<?xml version='1.0' encoding='UTF-8'?><gpx version="1.1" creator="JPX - https://github.com/jenetics/jpx" xmlns="http://www.topografix.com/GPX/1/1"><trk><trkseg><trkpt lat="40.8937835" lon="14.287757"><ele>80.0</ele><time>2026-05-04T08:33:59.582Z</time></trkpt><trkpt lat="40.8938623" lon="14.2877271"><ele>80.0</ele><time>2026-05-04T08:34:06.165Z</time></trkpt><trkpt lat="40.8939017" lon="14.2877939"><ele>80.0</ele><time>2026-05-04T08:34:09.184Z</time></trkpt><trkpt lat="40.8939568" lon="14.2878971"><ele>80.0</ele><time>2026-05-04T08:34:12.204Z</time></trkpt><trkpt lat="40.8940054" lon="14.2879744"><ele>80.0</ele><time>2026-05-04T08:34:16.141Z</time></trkpt><trkpt lat="40.8938733" lon="14.2872883"><ele>80.0</ele><time>2026-05-04T08:34:18.154Z</time></trkpt><trkpt lat="40.8938445" lon="14.2871906"><ele>80.0</ele><time>2026-05-04T08:34:19.161Z</time></trkpt><trkpt lat="40.8938131" lon="14.2870837"><ele>80.0</ele><time>2026-05-04T08:34:20.161Z</time></trkpt><trkpt lat="40.8937595" lon="14.2869627"><ele>80.0</ele><time>2026-05-04T08:34:22.182Z</time></trkpt><trkpt lat="40.8937283" lon="14.2868402"><ele>80.0</ele><time>2026-05-04T08:34:24.195Z</time></trkpt><trkpt lat="40.8937161" lon="14.286716"><ele>80.0</ele><time>2026-05-04T08:34:26.209Z</time></trkpt><trkpt lat="40.8936917" lon="14.2866078"><ele>80.0</ele><time>2026-05-04T08:34:28.222Z</time></trkpt><trkpt lat="40.8936451" lon="14.2865147"><ele>80.0</ele><time>2026-05-04T08:34:30.236Z</time></trkpt><trkpt lat="40.8936042" lon="14.28642"><ele>80.0</ele><time>2026-05-04T08:34:32.149Z</time></trkpt><trkpt lat="40.8935716" lon="14.2863135"><ele>80.0</ele><time>2026-05-04T08:34:34.364Z</time></trkpt><trkpt lat="40.8935321" lon="14.2862243"><ele>80.0</ele><time>2026-05-04T08:34:36.177Z</time></trkpt><trkpt lat="40.8935094" lon="14.2861304"><ele>80.16666666666667</ele><time>2026-05-04T08:34:38.19Z</time></trkpt><trkpt lat="40.8935371" lon="14.2860536"><ele>80.33333333333334</ele><time>2026-05-04T08:34:40.218Z</time></trkpt><trkpt lat="40.8936316" lon="14.2860615"><ele>80.5</ele><time>2026-05-04T08:34:43.224Z</time></trkpt><trkpt lat="40.893699" lon="14.2860679"><ele>80.66666666666667</ele><time>2026-05-04T08:34:45.137Z</time></trkpt><trkpt lat="40.8938054" lon="14.2860889"><ele>80.83333333333333</ele><time>2026-05-04T08:34:48.255Z</time></trkpt><trkpt lat="40.8939076" lon="14.2860727"><ele>81.0</ele><time>2026-05-04T08:34:50.181Z</time></trkpt><trkpt lat="40.8940065" lon="14.28609"><ele>81.0</ele><time>2026-05-04T08:34:52.196Z</time></trkpt><trkpt lat="40.8941192" lon="14.2860948"><ele>81.0</ele><time>2026-05-04T08:34:54.12Z</time></trkpt><trkpt lat="40.8942177" lon="14.2861095"><ele>81.0</ele><time>2026-05-04T08:34:56.12Z</time></trkpt><trkpt lat="40.8943135" lon="14.2861207"><ele>81.0</ele><time>2026-05-04T08:34:58.12Z</time></trkpt><trkpt lat="40.8944204" lon="14.2861518"><ele>81.0</ele><time>2026-05-04T08:35:00.121Z</time></trkpt><trkpt lat="40.8945279" lon="14.286166"><ele>80.8</ele><time>2026-05-04T08:35:02.121Z</time></trkpt><trkpt lat="40.8946417" lon="14.2861567"><ele>80.6</ele><time>2026-05-04T08:35:04.12Z</time></trkpt><trkpt lat="40.8947317" lon="14.286155"><ele>80.4</ele><time>2026-05-04T08:35:06.121Z</time></trkpt><trkpt lat="40.894795" lon="14.2861617"><ele>80.2</ele><time>2026-05-04T08:35:07.119Z</time></trkpt><trkpt lat="40.894925" lon="14.286195"><ele>80.0</ele><time>2026-05-04T08:35:09.119Z</time></trkpt><trkpt lat="40.8950633" lon="14.286205"><ele>79.66666666666667</ele><time>2026-05-04T08:35:11.12Z</time></trkpt><trkpt lat="40.89513" lon="14.2862233"><ele>79.33333333333334</ele><time>2026-05-04T08:35:12.121Z</time></trkpt><trkpt lat="40.8951983" lon="14.286235"><ele>79.0</ele><time>2026-05-04T08:35:13.12Z</time></trkpt><trkpt lat="40.895275" lon="14.2862433"><ele>78.66666666666667</ele><time>2026-05-04T08:35:14.121Z</time></trkpt><trkpt lat="40.89534" lon="14.2862367"><ele>78.33333333333333</ele><time>2026-05-04T08:35:15.121Z</time></trkpt><trkpt lat="40.8954033" lon="14.2862267"><ele>78.0</ele><time>2026-05-04T08:35:16.12Z</time></trkpt><trkpt lat="40.8955217" lon="14.28622"><ele>78.0</ele><time>2026-05-04T08:35:18.12Z</time></trkpt><trkpt lat="40.8956417" lon="14.2862383"><ele>78.0</ele><time>2026-05-04T08:35:20.121Z</time></trkpt><trkpt lat="40.8957067" lon="14.2862533"><ele>78.0</ele><time>2026-05-04T08:35:21.121Z</time></trkpt><trkpt lat="40.89583" lon="14.28628"><ele>78.0</ele><time>2026-05-04T08:35:23.12Z</time></trkpt><trkpt lat="40.8959533" lon="14.2863033"><ele>78.0</ele><time>2026-05-04T08:35:25.121Z</time></trkpt><trkpt lat="40.8960717" lon="14.2863283"><ele>78.4</ele><time>2026-05-04T08:35:27.12Z</time></trkpt><trkpt lat="40.8961833" lon="14.28635"><ele>78.8</ele><time>2026-05-04T08:35:29.118Z</time></trkpt><trkpt lat="40.8962883" lon="14.2863833"><ele>79.2</ele><time>2026-05-04T08:35:31.122Z</time></trkpt><trkpt lat="40.89637" lon="14.2863867"><ele>79.6</ele><time>2026-05-04T08:35:33.12Z</time></trkpt><trkpt lat="40.8964633" lon="14.2864267"><ele>80.0</ele><time>2026-05-04T08:35:35.12Z</time></trkpt><trkpt lat="40.8965617" lon="14.2864633"><ele>80.2</ele><time>2026-05-04T08:35:37.12Z</time></trkpt><trkpt lat="40.89666" lon="14.2864817"><ele>80.4</ele><time>2026-05-04T08:35:39.119Z</time></trkpt><trkpt lat="40.8967433" lon="14.2864283"><ele>80.6</ele><time>2026-05-04T08:35:41.121Z</time></trkpt><trkpt lat="40.89682" lon="14.2863383"><ele>80.8</ele><time>2026-05-04T08:35:43.12Z</time></trkpt><trkpt lat="40.8968933" lon="14.28624"><ele>81.0</ele><time>2026-05-04T08:35:45.119Z</time></trkpt><trkpt lat="40.8969833" lon="14.2861567"><ele>81.0</ele><time>2026-05-04T08:35:47.12Z</time></trkpt><trkpt lat="40.89705" lon="14.286055"><ele>81.0</ele><time>2026-05-04T08:35:49.12Z</time></trkpt><trkpt lat="40.89711" lon="14.285945"><ele>81.0</ele><time>2026-05-04T08:35:51.121Z</time></trkpt><trkpt lat="40.89717" lon="14.2858083"><ele>81.0</ele><time>2026-05-04T08:35:53.12Z</time></trkpt><trkpt lat="40.8972383" lon="14.2856967"><ele>81.0</ele><time>2026-05-04T08:35:55.12Z</time></trkpt><trkpt lat="40.8973083" lon="14.285585"><ele>81.0</ele><time>2026-05-04T08:35:57.12Z</time></trkpt><trkpt lat="40.8973717" lon="14.28546"><ele>81.0</ele><time>2026-05-04T08:35:59.119Z</time></trkpt><trkpt lat="40.8974433" lon="14.2853567"><ele>81.0</ele><time>2026-05-04T08:36:01.12Z</time></trkpt><trkpt lat="40.8975083" lon="14.285245"><ele>81.0</ele><time>2026-05-04T08:36:03.121Z</time></trkpt><trkpt lat="40.89757" lon="14.2851333"><ele>81.0</ele><time>2026-05-04T08:36:05.12Z</time></trkpt><trkpt lat="40.8976383" lon="14.2850183"><ele>80.8</ele><time>2026-05-04T08:36:07.118Z</time></trkpt><trkpt lat="40.897705" lon="14.2848967"><ele>80.6</ele><time>2026-05-04T08:36:09.12Z</time></trkpt><trkpt lat="40.8977733" lon="14.2847733"><ele>80.4</ele><time>2026-05-04T08:36:11.12Z</time></trkpt><trkpt lat="40.8978417" lon="14.2846617"><ele>80.2</ele><time>2026-05-04T08:36:13.12Z</time></trkpt><trkpt lat="40.897895" lon="14.2845783"><ele>80.0</ele><time>2026-05-04T08:36:15.12Z</time></trkpt><trkpt lat="40.897945" lon="14.2845117"><ele>79.66666666666667</ele><time>2026-05-04T08:36:17.121Z</time></trkpt><trkpt lat="40.8979917" lon="14.28445"><ele>79.33333333333334</ele><time>2026-05-04T08:36:19.119Z</time></trkpt><trkpt lat="40.8980517" lon="14.2844217"><ele>79.0</ele><time>2026-05-04T08:36:22.12Z</time></trkpt><trkpt lat="40.8981217" lon="14.28449"><ele>78.66666666666667</ele><time>2026-05-04T08:36:25.121Z</time></trkpt><trkpt lat="40.8981883" lon="14.2845683"><ele>78.33333333333333</ele><time>2026-05-04T08:36:27.119Z</time></trkpt><trkpt lat="40.8982483" lon="14.2846567"><ele>78.0</ele><time>2026-05-04T08:36:29.121Z</time></trkpt><trkpt lat="40.8983033" lon="14.284735"><ele>78.33333333333333</ele><time>2026-05-04T08:36:31.12Z</time></trkpt><trkpt lat="40.898345" lon="14.2848"><ele>78.66666666666667</ele><time>2026-05-04T08:36:33.119Z</time></trkpt><trkpt lat="40.8983883" lon="14.28489"><ele>79.0</ele><time>2026-05-04T08:36:36.121Z</time></trkpt><trkpt lat="40.8984283" lon="14.284955"><ele>79.33333333333334</ele><time>2026-05-04T08:36:38.122Z</time></trkpt><trkpt lat="40.8984933" lon="14.285015"><ele>79.66666666666667</ele><time>2026-05-04T08:36:40.119Z</time></trkpt><trkpt lat="40.8985717" lon="14.2850833"><ele>80.0</ele><time>2026-05-04T08:36:42.119Z</time></trkpt><trkpt lat="40.89865" lon="14.285155"><ele>80.6</ele><time>2026-05-04T08:36:44.12Z</time></trkpt><trkpt lat="40.8987167" lon="14.2852483"><ele>81.2</ele><time>2026-05-04T08:36:46.119Z</time></trkpt><trkpt lat="40.8988083" lon="14.2853167"><ele>81.80000000000001</ele><time>2026-05-04T08:36:48.121Z</time></trkpt><trkpt lat="40.8989017" lon="14.2853717"><ele>82.4</ele><time>2026-05-04T08:36:50.122Z</time></trkpt><trkpt lat="40.89899" lon="14.2854283"><ele>83.0</ele><time>2026-05-04T08:36:52.121Z</time></trkpt><trkpt lat="40.8990767" lon="14.285505"><ele>83.0</ele><time>2026-05-04T08:36:54.119Z</time></trkpt><trkpt lat="40.8991817" lon="14.2855533"><ele>83.0</ele><time>2026-05-04T08:36:56.121Z</time></trkpt><trkpt lat="40.899295" lon="14.2855983"><ele>83.0</ele><time>2026-05-04T08:36:58.12Z</time></trkpt><trkpt lat="40.8994133" lon="14.2856267"><ele>83.0</ele><time>2026-05-04T08:37:00.119Z</time></trkpt><trkpt lat="40.8995283" lon="14.2856633"><ele>83.16666666666667</ele><time>2026-05-04T08:37:02.121Z</time></trkpt><trkpt lat="40.89959" lon="14.285695"><ele>83.33333333333334</ele><time>2026-05-04T08:37:03.119Z</time></trkpt><trkpt lat="40.899655" lon="14.2857217"><ele>83.5</ele><time>2026-05-04T08:37:04.118Z</time></trkpt><trkpt lat="40.8997183" lon="14.2857467"><ele>83.66666666666667</ele><time>2026-05-04T08:37:05.121Z</time></trkpt><trkpt lat="40.89978" lon="14.28577"><ele>83.83333333333333</ele><time>2026-05-04T08:37:06.12Z</time></trkpt><trkpt lat="40.8998967" lon="14.285815"><ele>84.0</ele><time>2026-05-04T08:37:08.121Z</time></trkpt><trkpt lat="40.9000033" lon="14.28587"><ele>84.4</ele><time>2026-05-04T08:37:10.121Z</time></trkpt><trkpt lat="40.9000867" lon="14.2859267"><ele>84.80000000000001</ele><time>2026-05-04T08:37:12.12Z</time></trkpt><trkpt lat="40.9001817" lon="14.285945"><ele>85.19999999999999</ele><time>2026-05-04T08:37:14.118Z</time></trkpt><trkpt lat="40.9002833" lon="14.2859583"><ele>85.6</ele><time>2026-05-04T08:37:16.121Z</time></trkpt><trkpt lat="40.9003867" lon="14.285975"><ele>86.0</ele><time>2026-05-04T08:37:18.122Z</time></trkpt><trkpt lat="40.9004867" lon="14.2859867"><ele>86.0</ele><time>2026-05-04T08:37:20.121Z</time></trkpt><trkpt lat="40.9005867" lon="14.2859717"><ele>86.0</ele><time>2026-05-04T08:37:22.12Z</time></trkpt><trkpt lat="40.9006917" lon="14.2859517"><ele>86.0</ele><time>2026-05-04T08:37:24.12Z</time></trkpt><trkpt lat="40.900805" lon="14.2859433"><ele>86.0</ele><time>2026-05-04T08:37:26.12Z</time></trkpt><trkpt lat="40.9009217" lon="14.2859133"><ele>86.0</ele><time>2026-05-04T08:37:28.121Z</time></trkpt><trkpt lat="40.9010317" lon="14.285905"><ele>85.8</ele><time>2026-05-04T08:37:30.12Z</time></trkpt><trkpt lat="40.9011383" lon="14.2858717"><ele>85.6</ele><time>2026-05-04T08:37:32.12Z</time></trkpt><trkpt lat="40.9012417" lon="14.2858467"><ele>85.4</ele><time>2026-05-04T08:37:34.121Z</time></trkpt><trkpt lat="40.901335" lon="14.2858133"><ele>85.2</ele><time>2026-05-04T08:37:36.12Z</time></trkpt><trkpt lat="40.9014033" lon="14.2857933"><ele>85.0</ele><time>2026-05-04T08:37:38.121Z</time></trkpt><trkpt lat="40.9014917" lon="14.285755"><ele>85.0</ele><time>2026-05-04T08:37:41.12Z</time></trkpt><trkpt lat="40.9015683" lon="14.2857367"><ele>85.0</ele><time>2026-05-04T08:37:43.119Z</time></trkpt><trkpt lat="40.901655" lon="14.285705"><ele>85.0</ele><time>2026-05-04T08:37:45.12Z</time></trkpt><trkpt lat="40.901745" lon="14.2856767"><ele>85.0</ele><time>2026-05-04T08:37:47.12Z</time></trkpt><trkpt lat="40.9018283" lon="14.285645"><ele>85.0</ele><time>2026-05-04T08:37:49.12Z</time></trkpt><trkpt lat="40.9019133" lon="14.2856283"><ele>85.0</ele><time>2026-05-04T08:37:51.119Z</time></trkpt><trkpt lat="40.9019983" lon="14.285605"><ele>86.0</ele><time>2026-05-04T08:37:53.119Z</time></trkpt><trkpt lat="40.902085" lon="14.2855817"><ele>87.0</ele><time>2026-05-04T08:37:55.12Z</time></trkpt><trkpt lat="40.90217" lon="14.2855567"><ele>88.0</ele><time>2026-05-04T08:37:57.12Z</time></trkpt><trkpt lat="40.90226" lon="14.285505"><ele>89.0</ele><time>2026-05-04T08:37:59.12Z</time></trkpt><trkpt lat="40.9023667" lon="14.28546"><ele>90.0</ele><time>2026-05-04T08:38:01.12Z</time></trkpt><trkpt lat="40.9024783" lon="14.2854233"><ele>90.0</ele><time>2026-05-04T08:38:03.119Z</time></trkpt><trkpt lat="40.90258" lon="14.28539"><ele>90.0</ele><time>2026-05-04T08:38:05.119Z</time></trkpt><trkpt lat="40.9026617" lon="14.2853667"><ele>90.0</ele><time>2026-05-04T08:38:07.119Z</time></trkpt><trkpt lat="40.9027417" lon="14.285355"><ele>90.0</ele><time>2026-05-04T08:38:09.12Z</time></trkpt><trkpt lat="40.9028267" lon="14.28534"><ele>90.0</ele><time>2026-05-04T08:38:11.118Z</time></trkpt><trkpt lat="40.9028967" lon="14.2853283"><ele>90.0</ele><time>2026-05-04T08:38:14.12Z</time></trkpt><trkpt lat="40.90297" lon="14.2853167"><ele>89.0</ele><time>2026-05-04T08:38:17.118Z</time></trkpt><trkpt lat="40.9030383" lon="14.2853067"><ele>88.0</ele><time>2026-05-04T08:38:19.12Z</time></trkpt><trkpt lat="40.9031133" lon="14.2852883"><ele>87.0</ele><time>2026-05-04T08:38:21.119Z</time></trkpt><trkpt lat="40.903195" lon="14.285265"><ele>86.0</ele><time>2026-05-04T08:38:23.121Z</time></trkpt><trkpt lat="40.903285" lon="14.2852533"><ele>85.0</ele><time>2026-05-04T08:38:25.121Z</time></trkpt><trkpt lat="40.90337" lon="14.28521"><ele>84.0</ele><time>2026-05-04T08:38:27.12Z</time></trkpt><trkpt lat="40.9034533" lon="14.2851817"><ele>83.33333333333333</ele><time>2026-05-04T08:38:29.119Z</time></trkpt><trkpt lat="40.9035267" lon="14.2851583"><ele>82.66666666666667</ele><time>2026-05-04T08:38:31.121Z</time></trkpt><trkpt lat="40.9036017" lon="14.2851333"><ele>82.0</ele><time>2026-05-04T08:38:33.12Z</time></trkpt><trkpt lat="40.903665" lon="14.2851233"><ele>81.33333333333334</ele><time>2026-05-04T08:38:35.12Z</time></trkpt><trkpt lat="40.9037367" lon="14.2851083"><ele>80.66666666666667</ele><time>2026-05-04T08:38:37.121Z</time></trkpt><trkpt lat="40.9038317" lon="14.2851183"><ele>80.0</ele><time>2026-05-04T08:38:39.121Z</time></trkpt><trkpt lat="40.9039317" lon="14.2851067"><ele>80.0</ele><time>2026-05-04T08:38:41.121Z</time></trkpt><trkpt lat="40.9040383" lon="14.2850783"><ele>80.0</ele><time>2026-05-04T08:38:43.121Z</time></trkpt><trkpt lat="40.9041383" lon="14.2850517"><ele>80.0</ele><time>2026-05-04T08:38:45.12Z</time></trkpt><trkpt lat="40.9042433" lon="14.2850267"><ele>80.0</ele><time>2026-05-04T08:38:47.12Z</time></trkpt><trkpt lat="40.90435" lon="14.2850083"><ele>80.0</ele><time>2026-05-04T08:38:49.122Z</time></trkpt><trkpt lat="40.9044483" lon="14.2849733"><ele>79.8</ele><time>2026-05-04T08:38:51.119Z</time></trkpt><trkpt lat="40.9045533" lon="14.2849383"><ele>79.6</ele><time>2026-05-04T08:38:53.121Z</time></trkpt><trkpt lat="40.9046633" lon="14.2849083"><ele>79.4</ele><time>2026-05-04T08:38:55.119Z</time></trkpt><trkpt lat="40.90475" lon="14.2848817"><ele>79.2</ele><time>2026-05-04T08:38:57.122Z</time></trkpt><trkpt lat="40.904845" lon="14.2848683"><ele>79.0</ele><time>2026-05-04T08:39:01.122Z</time></trkpt><trkpt lat="40.9049417" lon="14.2848467"><ele>79.0</ele><time>2026-05-04T08:39:03.12Z</time></trkpt><trkpt lat="40.9050583" lon="14.2848233"><ele>79.0</ele><time>2026-05-04T08:39:05.122Z</time></trkpt><trkpt lat="40.9051767" lon="14.284785"><ele>79.0</ele><time>2026-05-04T08:39:07.12Z</time></trkpt><trkpt lat="40.9052867" lon="14.28476"><ele>79.0</ele><time>2026-05-04T08:39:09.121Z</time></trkpt><trkpt lat="40.9053933" lon="14.2847317"><ele>79.0</ele><time>2026-05-04T08:39:11.12Z</time></trkpt><trkpt lat="40.9055067" lon="14.2847183"><ele>79.0</ele><time>2026-05-04T08:39:13.12Z</time></trkpt><trkpt lat="40.9056283" lon="14.2847233"><ele>79.0</ele><time>2026-05-04T08:39:15.12Z</time></trkpt><trkpt lat="40.9057483" lon="14.2847233"><ele>79.0</ele><time>2026-05-04T08:39:17.119Z</time></trkpt><trkpt lat="40.905865" lon="14.2847217"><ele>78.83333333333333</ele><time>2026-05-04T08:39:19.12Z</time></trkpt><trkpt lat="40.9059867" lon="14.2847233"><ele>78.66666666666666</ele><time>2026-05-04T08:39:21.12Z</time></trkpt><trkpt lat="40.90605" lon="14.2847333"><ele>78.5</ele><time>2026-05-04T08:39:22.121Z</time></trkpt><trkpt lat="40.906175" lon="14.284755"><ele>78.33333333333333</ele><time>2026-05-04T08:39:24.121Z</time></trkpt><trkpt lat="40.9062383" lon="14.284775"><ele>78.16666666666667</ele><time>2026-05-04T08:39:25.119Z</time></trkpt><trkpt lat="40.9063017" lon="14.28479"><ele>78.0</ele><time>2026-05-04T08:39:26.119Z</time></trkpt><trkpt lat="40.9064233" lon="14.284835"><ele>78.0</ele><time>2026-05-04T08:39:28.12Z</time></trkpt><trkpt lat="40.906545" lon="14.2848933"><ele>78.0</ele><time>2026-05-04T08:39:30.121Z</time></trkpt><trkpt lat="40.906605" lon="14.284925"><ele>78.0</ele><time>2026-05-04T08:39:31.12Z</time></trkpt><trkpt lat="40.90667" lon="14.2849667"><ele>78.0</ele><time>2026-05-04T08:39:32.121Z</time></trkpt><trkpt lat="40.9067317" lon="14.28501"><ele>78.0</ele><time>2026-05-04T08:39:33.121Z</time></trkpt><trkpt lat="40.9067933" lon="14.2850567"><ele>78.0</ele><time>2026-05-04T08:39:34.12Z</time></trkpt><trkpt lat="40.906855" lon="14.2851033"><ele>77.42857142857143</ele><time>2026-05-04T08:39:35.121Z</time></trkpt><trkpt lat="40.9069167" lon="14.2851483"><ele>76.85714285714285</ele><time>2026-05-04T08:39:36.12Z</time></trkpt><trkpt lat="40.90698" lon="14.2851933"><ele>76.28571428571428</ele><time>2026-05-04T08:39:37.12Z</time></trkpt><trkpt lat="40.90704" lon="14.285245"><ele>75.71428571428572</ele><time>2026-05-04T08:39:38.119Z</time></trkpt><trkpt lat="40.9070983" lon="14.2852933"><ele>75.14285714285714</ele><time>2026-05-04T08:39:39.119Z</time></trkpt><trkpt lat="40.907155" lon="14.2853433"><ele>74.57142857142857</ele><time>2026-05-04T08:39:40.12Z</time></trkpt><trkpt lat="40.907215" lon="14.2853917"><ele>74.0</ele><time>2026-05-04T08:39:41.121Z</time></trkpt><trkpt lat="40.907275" lon="14.285445"><ele>74.0</ele><time>2026-05-04T08:39:42.121Z</time></trkpt><trkpt lat="40.9073333" lon="14.2854933"><ele>74.0</ele><time>2026-05-04T08:39:43.119Z</time></trkpt><trkpt lat="40.90739" lon="14.2855383"><ele>74.0</ele><time>2026-05-04T08:39:44.12Z</time></trkpt><trkpt lat="40.9074483" lon="14.285585"><ele>74.0</ele><time>2026-05-04T08:39:45.119Z</time></trkpt><trkpt lat="40.9075067" lon="14.2856317"><ele>74.0</ele><time>2026-05-04T08:39:46.12Z</time></trkpt><trkpt lat="40.9075667" lon="14.2856817"><ele>74.0</ele><time>2026-05-04T08:39:47.12Z</time></trkpt><trkpt lat="40.907625" lon="14.28573"><ele>74.0</ele><time>2026-05-04T08:39:48.12Z</time></trkpt><trkpt lat="40.9076883" lon="14.2857817"><ele>73.16666666666667</ele><time>2026-05-04T08:39:49.119Z</time></trkpt><trkpt lat="40.9077533" lon="14.2858367"><ele>72.33333333333334</ele><time>2026-05-04T08:39:50.121Z</time></trkpt><trkpt lat="40.907815" lon="14.28589"><ele>71.5</ele><time>2026-05-04T08:39:51.12Z</time></trkpt><trkpt lat="40.9078767" lon="14.2859483"><ele>70.66666666666667</ele><time>2026-05-04T08:39:52.12Z</time></trkpt><trkpt lat="40.9079417" lon="14.2860083"><ele>69.83333333333333</ele><time>2026-05-04T08:39:53.12Z</time></trkpt><trkpt lat="40.9080083" lon="14.2860633"><ele>69.0</ele><time>2026-05-04T08:39:54.12Z</time></trkpt><trkpt lat="40.908075" lon="14.2861167"><ele>69.0</ele><time>2026-05-04T08:39:55.121Z</time></trkpt><trkpt lat="40.9081433" lon="14.2861717"><ele>69.0</ele><time>2026-05-04T08:39:56.121Z</time></trkpt><trkpt lat="40.908215" lon="14.28623"><ele>69.0</ele><time>2026-05-04T08:39:57.119Z</time></trkpt><trkpt lat="40.908285" lon="14.2862867"><ele>69.0</ele><time>2026-05-04T08:39:58.119Z</time></trkpt><trkpt lat="40.9083567" lon="14.2863417"><ele>69.0</ele><time>2026-05-04T08:39:59.119Z</time></trkpt><trkpt lat="40.9084283" lon="14.2863983"><ele>69.0</ele><time>2026-05-04T08:40:00.12Z</time></trkpt><trkpt lat="40.9085" lon="14.2864583"><ele>69.16666666666667</ele><time>2026-05-04T08:40:01.119Z</time></trkpt><trkpt lat="40.9085683" lon="14.2865183"><ele>69.33333333333333</ele><time>2026-05-04T08:40:02.121Z</time></trkpt><trkpt lat="40.9086417" lon="14.2865783"><ele>69.5</ele><time>2026-05-04T08:40:03.12Z</time></trkpt><trkpt lat="40.9087133" lon="14.2866383"><ele>69.66666666666666</ele><time>2026-05-04T08:40:04.12Z</time></trkpt><trkpt lat="40.908785" lon="14.2866967"><ele>69.83333333333333</ele><time>2026-05-04T08:40:05.122Z</time></trkpt><trkpt lat="40.9088583" lon="14.2867567"><ele>70.0</ele><time>2026-05-04T08:40:06.122Z</time></trkpt><trkpt lat="40.9089317" lon="14.2868183"><ele>70.0</ele><time>2026-05-04T08:40:07.12Z</time></trkpt><trkpt lat="40.909005" lon="14.2868833"><ele>70.0</ele><time>2026-05-04T08:40:08.12Z</time></trkpt><trkpt lat="40.9090783" lon="14.2869467"><ele>70.0</ele><time>2026-05-04T08:40:09.12Z</time></trkpt><trkpt lat="40.9091567" lon="14.2870067"><ele>70.0</ele><time>2026-05-04T08:40:10.12Z</time></trkpt><trkpt lat="40.909235" lon="14.2870733"><ele>70.0</ele><time>2026-05-04T08:40:11.12Z</time></trkpt><trkpt lat="40.9093167" lon="14.28714"><ele>69.8</ele><time>2026-05-04T08:40:12.121Z</time></trkpt><trkpt lat="40.909395" lon="14.2871983"><ele>69.6</ele><time>2026-05-04T08:40:13.119Z</time></trkpt><trkpt lat="40.9094767" lon="14.28726"><ele>69.4</ele><time>2026-05-04T08:40:14.121Z</time></trkpt><trkpt lat="40.9095567" lon="14.2873167"><ele>69.2</ele><time>2026-05-04T08:40:15.119Z</time></trkpt><trkpt lat="40.90964" lon="14.2873783"><ele>69.0</ele><time>2026-05-04T08:40:16.121Z</time></trkpt><trkpt lat="40.9097233" lon="14.2874383"><ele>68.8</ele><time>2026-05-04T08:40:17.119Z</time></trkpt><trkpt lat="40.909805" lon="14.2875067"><ele>68.60000000000001</ele><time>2026-05-04T08:40:18.121Z</time></trkpt><trkpt lat="40.909885" lon="14.28757"><ele>68.4</ele><time>2026-05-04T08:40:19.121Z</time></trkpt><trkpt lat="40.9099633" lon="14.2876383"><ele>68.2</ele><time>2026-05-04T08:40:20.121Z</time></trkpt><trkpt lat="40.9100433" lon="14.287705"><ele>68.0</ele><time>2026-05-04T08:40:21.121Z</time></trkpt><trkpt lat="40.9101183" lon="14.2877767"><ele>67.5</ele><time>2026-05-04T08:40:22.12Z</time></trkpt><trkpt lat="40.9101917" lon="14.2878483"><ele>67.0</ele><time>2026-05-04T08:40:23.121Z</time></trkpt><trkpt lat="40.9102667" lon="14.2879183"><ele>66.5</ele><time>2026-05-04T08:40:24.12Z</time></trkpt><trkpt lat="40.9103433" lon="14.2879867"><ele>66.0</ele><time>2026-05-04T08:40:25.12Z</time></trkpt><trkpt lat="40.910415" lon="14.2880567"><ele>65.5</ele><time>2026-05-04T08:40:26.121Z</time></trkpt><trkpt lat="40.910485" lon="14.2881167"><ele>65.0</ele><time>2026-05-04T08:40:27.121Z</time></trkpt><trkpt lat="40.9105467" lon="14.28817"><ele>65.00000000000001</ele><time>2026-05-04T08:40:28.12Z</time></trkpt><trkpt lat="40.9106033" lon="14.28821"><ele>65.0</ele><time>2026-05-04T08:40:29.121Z</time></trkpt><trkpt lat="40.910665" lon="14.288245"><ele>65.0</ele><time>2026-05-04T08:40:30.124Z</time></trkpt><trkpt lat="40.9107233" lon="14.288285"><ele>65.0</ele><time>2026-05-04T08:40:31.12Z</time></trkpt><trkpt lat="40.91078" lon="14.2883367"><ele>65.0</ele><time>2026-05-04T08:40:32.123Z</time></trkpt><trkpt lat="40.9108383" lon="14.28839"><ele>65.00000000000001</ele><time>2026-05-04T08:40:33.119Z</time></trkpt><trkpt lat="40.9108967" lon="14.28844"><ele>65.0</ele><time>2026-05-04T08:40:34.122Z</time></trkpt><trkpt lat="40.9109583" lon="14.28849"><ele>64.71428571428572</ele><time>2026-05-04T08:40:35.119Z</time></trkpt><trkpt lat="40.9110217" lon="14.28854"><ele>64.42857142857143</ele><time>2026-05-04T08:40:36.124Z</time></trkpt><trkpt lat="40.9110867" lon="14.2885917"><ele>64.14285714285714</ele><time>2026-05-04T08:40:37.119Z</time></trkpt><trkpt lat="40.911155" lon="14.28864"><ele>63.85714285714286</ele><time>2026-05-04T08:40:38.122Z</time></trkpt><trkpt lat="40.9112217" lon="14.28869"><ele>63.57142857142857</ele><time>2026-05-04T08:40:39.121Z</time></trkpt><trkpt lat="40.9112867" lon="14.2887367"><ele>63.285714285714285</ele><time>2026-05-04T08:40:40.118Z</time></trkpt><trkpt lat="40.911345" lon="14.2887817"><ele>63.0</ele><time>2026-05-04T08:40:41.121Z</time></trkpt><trkpt lat="40.9114017" lon="14.2888233"><ele>63.0</ele><time>2026-05-04T08:40:42.121Z</time></trkpt><trkpt lat="40.91146" lon="14.2888683"><ele>63.0</ele><time>2026-05-04T08:40:43.12Z</time></trkpt><trkpt lat="40.911555" lon="14.2889367"><ele>63.0</ele><time>2026-05-04T08:40:45.121Z</time></trkpt><trkpt lat="40.91162" lon="14.28901"><ele>63.0</ele><time>2026-05-04T08:40:47.121Z</time></trkpt><trkpt lat="40.9117083" lon="14.2890917"><ele>63.0</ele><time>2026-05-04T08:40:49.12Z</time></trkpt><trkpt lat="40.91181" lon="14.28919"><ele>63.0</ele><time>2026-05-04T08:40:51.121Z</time></trkpt><trkpt lat="40.911865" lon="14.2892467"><ele>63.0</ele><time>2026-05-04T08:40:52.119Z</time></trkpt><trkpt lat="40.911925" lon="14.2893"><ele>63.0</ele><time>2026-05-04T08:40:53.12Z</time></trkpt><trkpt lat="40.911985" lon="14.2893483"><ele>63.0</ele><time>2026-05-04T08:40:54.121Z</time></trkpt><trkpt lat="40.9120467" lon="14.2894"><ele>63.0</ele><time>2026-05-04T08:40:55.12Z</time></trkpt><trkpt lat="40.9121117" lon="14.2894583"><ele>63.0</ele><time>2026-05-04T08:40:56.119Z</time></trkpt><trkpt lat="40.9121783" lon="14.289515"><ele>63.0</ele><time>2026-05-04T08:40:57.12Z</time></trkpt><trkpt lat="40.912245" lon="14.2895717"><ele>63.0</ele><time>2026-05-04T08:40:58.119Z</time></trkpt><trkpt lat="40.9123133" lon="14.2896283"><ele>63.0</ele><time>2026-05-04T08:40:59.12Z</time></trkpt><trkpt lat="40.9123867" lon="14.2896867"><ele>63.0</ele><time>2026-05-04T08:41:00.122Z</time></trkpt><trkpt lat="40.9124517" lon="14.2897467"><ele>63.0</ele><time>2026-05-04T08:41:01.119Z</time></trkpt><trkpt lat="40.9125167" lon="14.289795"><ele>63.0</ele><time>2026-05-04T08:41:02.121Z</time></trkpt><trkpt lat="40.912575" lon="14.2898517"><ele>63.0</ele><time>2026-05-04T08:41:03.119Z</time></trkpt><trkpt lat="40.9126383" lon="14.28989"><ele>63.0</ele><time>2026-05-04T08:41:04.121Z</time></trkpt><trkpt lat="40.9127517" lon="14.28995"><ele>63.0</ele><time>2026-05-04T08:41:06.12Z</time></trkpt><trkpt lat="40.9128117" lon="14.2899817"><ele>63.0</ele><time>2026-05-04T08:41:07.121Z</time></trkpt><trkpt lat="40.9129167" lon="14.2900567"><ele>63.0</ele><time>2026-05-04T08:41:09.121Z</time></trkpt><trkpt lat="40.913025" lon="14.2901467"><ele>63.0</ele><time>2026-05-04T08:41:11.12Z</time></trkpt><trkpt lat="40.9130817" lon="14.29019"><ele>63.0</ele><time>2026-05-04T08:41:12.121Z</time></trkpt><trkpt lat="40.9131417" lon="14.2902333"><ele>63.0</ele><time>2026-05-04T08:41:13.118Z</time></trkpt><trkpt lat="40.9132033" lon="14.2902717"><ele>63.0</ele><time>2026-05-04T08:41:14.12Z</time></trkpt><trkpt lat="40.913265" lon="14.29031"><ele>63.0</ele><time>2026-05-04T08:41:15.118Z</time></trkpt><trkpt lat="40.9133317" lon="14.2903433"><ele>63.0</ele><time>2026-05-04T08:41:16.12Z</time></trkpt><trkpt lat="40.9133983" lon="14.2903767"><ele>63.0</ele><time>2026-05-04T08:41:17.118Z</time></trkpt><trkpt lat="40.913465" lon="14.2904083"><ele>63.0</ele><time>2026-05-04T08:41:18.12Z</time></trkpt><trkpt lat="40.9135317" lon="14.2904333"><ele>62.85714285714286</ele><time>2026-05-04T08:41:19.12Z</time></trkpt><trkpt lat="40.913595" lon="14.2904567"><ele>62.714285714285715</ele><time>2026-05-04T08:41:20.12Z</time></trkpt><trkpt lat="40.91366" lon="14.2904783"><ele>62.57142857142857</ele><time>2026-05-04T08:41:21.121Z</time></trkpt><trkpt lat="40.9137233" lon="14.2904983"><ele>62.42857142857143</ele><time>2026-05-04T08:41:22.121Z</time></trkpt><trkpt lat="40.9137883" lon="14.29052"><ele>62.28571428571429</ele><time>2026-05-04T08:41:23.121Z</time></trkpt><trkpt lat="40.9138533" lon="14.2905367"><ele>62.142857142857146</ele><time>2026-05-04T08:41:24.12Z</time></trkpt><trkpt lat="40.9139183" lon="14.2905567"><ele>62.0</ele><time>2026-05-04T08:41:25.12Z</time></trkpt><trkpt lat="40.9139833" lon="14.29057"><ele>62.0</ele><time>2026-05-04T08:41:26.12Z</time></trkpt><trkpt lat="40.9140483" lon="14.290585"><ele>62.00000000000001</ele><time>2026-05-04T08:41:27.121Z</time></trkpt><trkpt lat="40.9141117" lon="14.2905983"><ele>62.0</ele><time>2026-05-04T08:41:28.121Z</time></trkpt><trkpt lat="40.91418" lon="14.290615"><ele>62.0</ele><time>2026-05-04T08:41:29.122Z</time></trkpt><trkpt lat="40.91425" lon="14.29063"><ele>62.00000000000001</ele><time>2026-05-04T08:41:30.122Z</time></trkpt><trkpt lat="40.9143217" lon="14.290635"><ele>62.0</ele><time>2026-05-04T08:41:31.12Z</time></trkpt><trkpt lat="40.9143917" lon="14.2906317"><ele>62.0</ele><time>2026-05-04T08:41:32.121Z</time></trkpt><trkpt lat="40.9144583" lon="14.29062"><ele>61.714285714285715</ele><time>2026-05-04T08:41:33.12Z</time></trkpt><trkpt lat="40.9145217" lon="14.2906083"><ele>61.42857142857143</ele><time>2026-05-04T08:41:34.12Z</time></trkpt><trkpt lat="40.9145867" lon="14.2906017"><ele>61.142857142857146</ele><time>2026-05-04T08:41:35.119Z</time></trkpt><trkpt lat="40.9146517" lon="14.2905933"><ele>60.85714285714286</ele><time>2026-05-04T08:41:36.123Z</time></trkpt><trkpt lat="40.9147167" lon="14.2905867"><ele>60.57142857142857</ele><time>2026-05-04T08:41:37.121Z</time></trkpt><trkpt lat="40.91478" lon="14.29058"><ele>60.28571428571429</ele><time>2026-05-04T08:41:38.121Z</time></trkpt><trkpt lat="40.914845" lon="14.2905817"><ele>60.0</ele><time>2026-05-04T08:41:39.123Z</time></trkpt><trkpt lat="40.9149133" lon="14.2905883"><ele>59.85714285714286</ele><time>2026-05-04T08:41:40.123Z</time></trkpt><trkpt lat="40.914985" lon="14.2905967"><ele>59.71428571428571</ele><time>2026-05-04T08:41:41.12Z</time></trkpt><trkpt lat="40.9150567" lon="14.290595"><ele>59.57142857142857</ele><time>2026-05-04T08:41:42.123Z</time></trkpt><trkpt lat="40.91513" lon="14.2905883"><ele>59.42857142857143</ele><time>2026-05-04T08:41:43.123Z</time></trkpt><trkpt lat="40.9152033" lon="14.2905783"><ele>59.28571428571429</ele><time>2026-05-04T08:41:44.12Z</time></trkpt><trkpt lat="40.9152783" lon="14.29057"><ele>59.14285714285714</ele><time>2026-05-04T08:41:45.121Z</time></trkpt><trkpt lat="40.915355" lon="14.290565"><ele>59.0</ele><time>2026-05-04T08:41:46.12Z</time></trkpt><trkpt lat="40.91543" lon="14.29056"><ele>59.0</ele><time>2026-05-04T08:41:47.119Z</time></trkpt><trkpt lat="40.9155033" lon="14.2905567"><ele>59.0</ele><time>2026-05-04T08:41:48.12Z</time></trkpt><trkpt lat="40.915575" lon="14.2905533"><ele>59.0</ele><time>2026-05-04T08:41:49.12Z</time></trkpt><trkpt lat="40.9156483" lon="14.2905533"><ele>59.0</ele><time>2026-05-04T08:41:50.12Z</time></trkpt><trkpt lat="40.9157233" lon="14.2905583"><ele>59.0</ele><time>2026-05-04T08:41:51.118Z</time></trkpt><trkpt lat="40.9157983" lon="14.2905667"><ele>59.0</ele><time>2026-05-04T08:41:52.121Z</time></trkpt><trkpt lat="40.9158733" lon="14.2905783"><ele>59.0</ele><time>2026-05-04T08:41:53.12Z</time></trkpt><trkpt lat="40.9159467" lon="14.29059"><ele>58.71428571428571</ele><time>2026-05-04T08:41:54.124Z</time></trkpt><trkpt lat="40.9160183" lon="14.2906083"><ele>58.42857142857143</ele><time>2026-05-04T08:41:55.123Z</time></trkpt><trkpt lat="40.916085" lon="14.2906233"><ele>58.14285714285714</ele><time>2026-05-04T08:41:56.119Z</time></trkpt><trkpt lat="40.91615" lon="14.2906467"><ele>57.857142857142854</ele><time>2026-05-04T08:41:57.121Z</time></trkpt><trkpt lat="40.9162133" lon="14.2906783"><ele>57.57142857142857</ele><time>2026-05-04T08:41:58.119Z</time></trkpt><trkpt lat="40.9162783" lon="14.2907133"><ele>57.285714285714285</ele><time>2026-05-04T08:41:59.118Z</time></trkpt><trkpt lat="40.9163417" lon="14.2907483"><ele>57.0</ele><time>2026-05-04T08:42:00.119Z</time></trkpt><trkpt lat="40.9164083" lon="14.290785"><ele>57.0</ele><time>2026-05-04T08:42:01.121Z</time></trkpt><trkpt lat="40.9164783" lon="14.2908217"><ele>56.99999999999999</ele><time>2026-05-04T08:42:02.121Z</time></trkpt><trkpt lat="40.9165467" lon="14.29086"><ele>57.0</ele><time>2026-05-04T08:42:03.121Z</time></trkpt><trkpt lat="40.916615" lon="14.2909017"><ele>57.0</ele><time>2026-05-04T08:42:04.118Z</time></trkpt><trkpt lat="40.91668" lon="14.2909383"><ele>56.99999999999999</ele><time>2026-05-04T08:42:05.118Z</time></trkpt><trkpt lat="40.9167467" lon="14.2909767"><ele>57.0</ele><time>2026-05-04T08:42:06.118Z</time></trkpt><trkpt lat="40.9168183" lon="14.291015"><ele>57.0</ele><time>2026-05-04T08:42:07.119Z</time></trkpt><trkpt lat="40.9168817" lon="14.2910517"><ele>57.0</ele><time>2026-05-04T08:42:08.118Z</time></trkpt><trkpt lat="40.9169767" lon="14.291115"><ele>57.0</ele><time>2026-05-04T08:42:10.119Z</time></trkpt><trkpt lat="40.9170583" lon="14.2911833"><ele>57.0</ele><time>2026-05-04T08:42:12.121Z</time></trkpt><trkpt lat="40.9171667" lon="14.2912433"><ele>57.0</ele><time>2026-05-04T08:42:14.121Z</time></trkpt><trkpt lat="40.917275" lon="14.2913083"><ele>57.0</ele><time>2026-05-04T08:42:16.119Z</time></trkpt><trkpt lat="40.917335" lon="14.2913483"><ele>57.0</ele><time>2026-05-04T08:42:17.117Z</time></trkpt><trkpt lat="40.9174" lon="14.291395"><ele>57.0</ele><time>2026-05-04T08:42:18.12Z</time></trkpt><trkpt lat="40.9174667" lon="14.2914433"><ele>57.0</ele><time>2026-05-04T08:42:19.12Z</time></trkpt><trkpt lat="40.917535" lon="14.2914917"><ele>57.0</ele><time>2026-05-04T08:42:20.123Z</time></trkpt><trkpt lat="40.9176033" lon="14.2915433"><ele>57.0</ele><time>2026-05-04T08:42:21.12Z</time></trkpt><trkpt lat="40.9176717" lon="14.2915917"><ele>57.0</ele><time>2026-05-04T08:42:22.121Z</time></trkpt><trkpt lat="40.917745" lon="14.2916417"><ele>56.666666666666664</ele><time>2026-05-04T08:42:23.12Z</time></trkpt><trkpt lat="40.917815" lon="14.2916883"><ele>56.33333333333333</ele><time>2026-05-04T08:42:24.121Z</time></trkpt><trkpt lat="40.9178867" lon="14.2917283"><ele>56.0</ele><time>2026-05-04T08:42:25.119Z</time></trkpt><trkpt lat="40.9179533" lon="14.29177"><ele>55.666666666666664</ele><time>2026-05-04T08:42:26.119Z</time></trkpt><trkpt lat="40.9180133" lon="14.291805"><ele>55.33333333333333</ele><time>2026-05-04T08:42:27.119Z</time></trkpt><trkpt lat="40.9181267" lon="14.2918583"><ele>55.0</ele><time>2026-05-04T08:42:29.12Z</time></trkpt><trkpt lat="40.9182433" lon="14.2919083"><ele>54.99999999999999</ele><time>2026-05-04T08:42:31.118Z</time></trkpt><trkpt lat="40.9183083" lon="14.2919333"><ele>55.0</ele><time>2026-05-04T08:42:32.121Z</time></trkpt><trkpt lat="40.918375" lon="14.29196"><ele>55.0</ele><time>2026-05-04T08:42:33.118Z</time></trkpt><trkpt lat="40.91844" lon="14.2919883"><ele>55.0</ele><time>2026-05-04T08:42:34.119Z</time></trkpt><trkpt lat="40.9185067" lon="14.2920183"><ele>55.0</ele><time>2026-05-04T08:42:35.122Z</time></trkpt><trkpt lat="40.91857" lon="14.2920483"><ele>54.99999999999999</ele><time>2026-05-04T08:42:36.12Z</time></trkpt><trkpt lat="40.9186333" lon="14.292075"><ele>55.0</ele><time>2026-05-04T08:42:37.119Z</time></trkpt><trkpt lat="40.9187" lon="14.2921"><ele>54.99999999999999</ele><time>2026-05-04T08:42:38.121Z</time></trkpt><trkpt lat="40.918765" lon="14.2921267"><ele>55.0</ele><time>2026-05-04T08:42:39.118Z</time></trkpt><trkpt lat="40.9188317" lon="14.292155"><ele>55.0</ele><time>2026-05-04T08:42:40.118Z</time></trkpt><trkpt lat="40.9189" lon="14.2921833"><ele>55.0</ele><time>2026-05-04T08:42:41.117Z</time></trkpt><trkpt lat="40.9189683" lon="14.2922117"><ele>55.0</ele><time>2026-05-04T08:42:42.12Z</time></trkpt><trkpt lat="40.919035" lon="14.2922417"><ele>54.99999999999999</ele><time>2026-05-04T08:42:43.121Z</time></trkpt><trkpt lat="40.9191017" lon="14.2922717"><ele>55.0</ele><time>2026-05-04T08:42:44.12Z</time></trkpt><trkpt lat="40.9191683" lon="14.2923017"><ele>54.99999999999999</ele><time>2026-05-04T08:42:45.12Z</time></trkpt><trkpt lat="40.9192333" lon="14.2923317"><ele>55.0</ele><time>2026-05-04T08:42:46.118Z</time></trkpt><trkpt lat="40.9192983" lon="14.29236"><ele>55.0</ele><time>2026-05-04T08:42:47.117Z</time></trkpt><trkpt lat="40.919365" lon="14.2923933"><ele>55.0</ele><time>2026-05-04T08:42:48.121Z</time></trkpt><trkpt lat="40.91943" lon="14.2924333"><ele>55.0</ele><time>2026-05-04T08:42:49.121Z</time></trkpt><trkpt lat="40.9194933" lon="14.2924833"><ele>54.99999999999999</ele><time>2026-05-04T08:42:50.121Z</time></trkpt><trkpt lat="40.919555" lon="14.2925367"><ele>55.0</ele><time>2026-05-04T08:42:51.122Z</time></trkpt><trkpt lat="40.9196183" lon="14.29259"><ele>54.666666666666664</ele><time>2026-05-04T08:42:52.122Z</time></trkpt><trkpt lat="40.91968" lon="14.2926467"><ele>54.33333333333333</ele><time>2026-05-04T08:42:53.121Z</time></trkpt><trkpt lat="40.9197433" lon="14.292705"><ele>54.0</ele><time>2026-05-04T08:42:54.122Z</time></trkpt><trkpt lat="40.9198067" lon="14.2927617"><ele>53.66666666666667</ele><time>2026-05-04T08:42:55.118Z</time></trkpt><trkpt lat="40.9198667" lon="14.2928233"><ele>53.333333333333336</ele><time>2026-05-04T08:42:56.12Z</time></trkpt><trkpt lat="40.9199133" lon="14.2929"><ele>53.0</ele><time>2026-05-04T08:42:57.12Z</time></trkpt><trkpt lat="40.919945" lon="14.29299"><ele>53.0</ele><time>2026-05-04T08:42:58.122Z</time></trkpt><trkpt lat="40.919965" lon="14.293085"><ele>53.0</ele><time>2026-05-04T08:42:59.12Z</time></trkpt><trkpt lat="40.919985" lon="14.2931817"><ele>53.0</ele><time>2026-05-04T08:43:00.121Z</time></trkpt><trkpt lat="40.920015" lon="14.2932717"><ele>53.0</ele><time>2026-05-04T08:43:01.121Z</time></trkpt><trkpt lat="40.9200667" lon="14.293335"><ele>53.0</ele><time>2026-05-04T08:43:02.122Z</time></trkpt><trkpt lat="40.9201333" lon="14.2933683"><ele>53.0</ele><time>2026-05-04T08:43:03.121Z</time></trkpt><trkpt lat="40.9202067" lon="14.2933767"><ele>53.0</ele><time>2026-05-04T08:43:04.121Z</time></trkpt><trkpt lat="40.9202783" lon="14.29338"><ele>53.0</ele><time>2026-05-04T08:43:05.122Z</time></trkpt><trkpt lat="40.9203483" lon="14.2933933"><ele>53.0</ele><time>2026-05-04T08:43:06.122Z</time></trkpt><trkpt lat="40.9204133" lon="14.2934267"><ele>53.0</ele><time>2026-05-04T08:43:07.12Z</time></trkpt><trkpt lat="40.9204733" lon="14.2934733"><ele>53.0</ele><time>2026-05-04T08:43:08.123Z</time></trkpt><trkpt lat="40.920535" lon="14.293525"><ele>53.0</ele><time>2026-05-04T08:43:09.12Z</time></trkpt><trkpt lat="40.9205933" lon="14.2935833"><ele>53.0</ele><time>2026-05-04T08:43:10.122Z</time></trkpt><trkpt lat="40.9206567" lon="14.2936383"><ele>53.0</ele><time>2026-05-04T08:43:11.122Z</time></trkpt><trkpt lat="40.920725" lon="14.2936883"><ele>53.00000000000001</ele><time>2026-05-04T08:43:12.122Z</time></trkpt><trkpt lat="40.920795" lon="14.293735"><ele>53.0</ele><time>2026-05-04T08:43:13.119Z</time></trkpt><trkpt lat="40.9208667" lon="14.29378"><ele>53.0</ele><time>2026-05-04T08:43:14.121Z</time></trkpt><trkpt lat="40.9209367" lon="14.293825"><ele>53.0</ele><time>2026-05-04T08:43:15.123Z</time></trkpt><trkpt lat="40.92101" lon="14.2938633"><ele>53.00000000000001</ele><time>2026-05-04T08:43:16.122Z</time></trkpt><trkpt lat="40.9210833" lon="14.2939"><ele>53.0</ele><time>2026-05-04T08:43:17.12Z</time></trkpt><trkpt lat="40.921155" lon="14.29393"><ele>52.833333333333336</ele><time>2026-05-04T08:43:18.123Z</time></trkpt><trkpt lat="40.92123" lon="14.2939583"><ele>52.66666666666667</ele><time>2026-05-04T08:43:19.12Z</time></trkpt><trkpt lat="40.9213033" lon="14.29399"><ele>52.5</ele><time>2026-05-04T08:43:20.122Z</time></trkpt><trkpt lat="40.9213783" lon="14.2940233"><ele>52.33333333333333</ele><time>2026-05-04T08:43:21.122Z</time></trkpt><trkpt lat="40.921455" lon="14.2940567"><ele>52.166666666666664</ele><time>2026-05-04T08:43:22.122Z</time></trkpt><trkpt lat="40.92153" lon="14.2940867"><ele>52.0</ele><time>2026-05-04T08:43:23.122Z</time></trkpt><trkpt lat="40.921605" lon="14.2941167"><ele>51.99999999999999</ele><time>2026-05-04T08:43:24.121Z</time></trkpt><trkpt lat="40.9216833" lon="14.2941467"><ele>52.0</ele><time>2026-05-04T08:43:25.119Z</time></trkpt><trkpt lat="40.92176" lon="14.2941733"><ele>52.0</ele><time>2026-05-04T08:43:26.122Z</time></trkpt><trkpt lat="40.9218367" lon="14.294205"><ele>52.0</ele><time>2026-05-04T08:43:27.122Z</time></trkpt><trkpt lat="40.9219133" lon="14.294235"><ele>51.99999999999999</ele><time>2026-05-04T08:43:28.121Z</time></trkpt><trkpt lat="40.92199" lon="14.2942683"><ele>52.0</ele><time>2026-05-04T08:43:29.12Z</time></trkpt><trkpt lat="40.9220633" lon="14.2943"><ele>51.83333333333333</ele><time>2026-05-04T08:43:30.121Z</time></trkpt><trkpt lat="40.92214" lon="14.2943317"><ele>51.666666666666664</ele><time>2026-05-04T08:43:31.122Z</time></trkpt><trkpt lat="40.922215" lon="14.2943617"><ele>51.5</ele><time>2026-05-04T08:43:32.123Z</time></trkpt><trkpt lat="40.92229" lon="14.2943933"><ele>51.33333333333333</ele><time>2026-05-04T08:43:33.123Z</time></trkpt><trkpt lat="40.9223667" lon="14.2944283"><ele>51.166666666666664</ele><time>2026-05-04T08:43:34.122Z</time></trkpt><trkpt lat="40.922445" lon="14.2944633"><ele>51.0</ele><time>2026-05-04T08:43:35.121Z</time></trkpt><trkpt lat="40.9225167" lon="14.2945017"><ele>51.0</ele><time>2026-05-04T08:43:36.122Z</time></trkpt><trkpt lat="40.9225883" lon="14.2945483"><ele>51.0</ele><time>2026-05-04T08:43:37.121Z</time></trkpt><trkpt lat="40.9226533" lon="14.294605"><ele>51.0</ele><time>2026-05-04T08:43:38.122Z</time></trkpt><trkpt lat="40.922715" lon="14.294665"><ele>51.0</ele><time>2026-05-04T08:43:39.12Z</time></trkpt><trkpt lat="40.9227733" lon="14.2947333"><ele>51.0</ele><time>2026-05-04T08:43:40.122Z</time></trkpt><trkpt lat="40.9228217" lon="14.2948083"><ele>51.0</ele><time>2026-05-04T08:43:41.122Z</time></trkpt><trkpt lat="40.92287" lon="14.2948867"><ele>50.833333333333336</ele><time>2026-05-04T08:43:42.118Z</time></trkpt><trkpt lat="40.9229167" lon="14.294965"><ele>50.66666666666667</ele><time>2026-05-04T08:43:43.121Z</time></trkpt><trkpt lat="40.9229617" lon="14.2950417"><ele>50.5</ele><time>2026-05-04T08:43:44.122Z</time></trkpt><trkpt lat="40.9230067" lon="14.2951217"><ele>50.333333333333336</ele><time>2026-05-04T08:43:45.123Z</time></trkpt><trkpt lat="40.9230533" lon="14.2952"><ele>50.16666666666667</ele><time>2026-05-04T08:43:46.121Z</time></trkpt><trkpt lat="40.9230967" lon="14.2952733"><ele>50.0</ele><time>2026-05-04T08:43:47.121Z</time></trkpt><trkpt lat="40.923155" lon="14.29538"><ele>50.00000000000001</ele><time>2026-05-04T08:43:49.121Z</time></trkpt><trkpt lat="40.923195" lon="14.2954467"><ele>50.0</ele><time>2026-05-04T08:43:52.12Z</time></trkpt><trkpt lat="40.9232383" lon="14.29553"><ele>50.0</ele><time>2026-05-04T08:43:55.122Z</time></trkpt><trkpt lat="40.92328" lon="14.2956083"><ele>50.0</ele><time>2026-05-04T08:43:57.121Z</time></trkpt><trkpt lat="40.9233333" lon="14.29571"><ele>50.00000000000001</ele><time>2026-05-04T08:43:59.122Z</time></trkpt><trkpt lat="40.9234033" lon="14.29583"><ele>50.0</ele><time>2026-05-04T08:44:01.122Z</time></trkpt><trkpt lat="40.92348" lon="14.295965"><ele>49.50000000000001</ele><time>2026-05-04T08:44:03.12Z</time></trkpt><trkpt lat="40.9235217" lon="14.2960317"><ele>49.0</ele><time>2026-05-04T08:44:04.122Z</time></trkpt><trkpt lat="40.9235633" lon="14.2961"><ele>48.5</ele><time>2026-05-04T08:44:05.121Z</time></trkpt><trkpt lat="40.9236033" lon="14.2961683"><ele>48.0</ele><time>2026-05-04T08:44:06.121Z</time></trkpt><trkpt lat="40.9236767" lon="14.2962817"><ele>47.5</ele><time>2026-05-04T08:44:08.123Z</time></trkpt><trkpt lat="40.923745" lon="14.296385"><ele>47.0</ele><time>2026-05-04T08:44:10.121Z</time></trkpt><trkpt lat="40.9238133" lon="14.2965083"><ele>47.0</ele><time>2026-05-04T08:44:12.122Z</time></trkpt><trkpt lat="40.923855" lon="14.2965733"><ele>47.0</ele><time>2026-05-04T08:44:13.122Z</time></trkpt><trkpt lat="40.92394" lon="14.2967067"><ele>47.0</ele><time>2026-05-04T08:44:15.122Z</time></trkpt><trkpt lat="40.923985" lon="14.2967783"><ele>47.0</ele><time>2026-05-04T08:44:16.123Z</time></trkpt><trkpt lat="40.9240267" lon="14.296855"><ele>47.0</ele><time>2026-05-04T08:44:17.122Z</time></trkpt><trkpt lat="40.92407" lon="14.2969283"><ele>47.0</ele><time>2026-05-04T08:44:18.122Z</time></trkpt><trkpt lat="40.9241167" lon="14.2970017"><ele>47.0</ele><time>2026-05-04T08:44:19.118Z</time></trkpt><trkpt lat="40.924165" lon="14.2970683"><ele>47.0</ele><time>2026-05-04T08:44:20.122Z</time></trkpt><trkpt lat="40.92421" lon="14.29714"><ele>47.0</ele><time>2026-05-04T08:44:21.12Z</time></trkpt><trkpt lat="40.9242517" lon="14.297215"><ele>47.0</ele><time>2026-05-04T08:44:22.118Z</time></trkpt><trkpt lat="40.9242967" lon="14.2972917"><ele>47.0</ele><time>2026-05-04T08:44:23.12Z</time></trkpt><trkpt lat="40.9243417" lon="14.2973683"><ele>47.0</ele><time>2026-05-04T08:44:24.121Z</time></trkpt><trkpt lat="40.924385" lon="14.297445"><ele>47.0</ele><time>2026-05-04T08:44:25.119Z</time></trkpt><trkpt lat="40.9244217" lon="14.29754"><ele>46.857142857142854</ele><time>2026-05-04T08:44:26.121Z</time></trkpt><trkpt lat="40.9244633" lon="14.2976167"><ele>46.71428571428571</ele><time>2026-05-04T08:44:27.12Z</time></trkpt><trkpt lat="40.9245067" lon="14.2976967"><ele>46.57142857142857</ele><time>2026-05-04T08:44:28.121Z</time></trkpt><trkpt lat="40.9245533" lon="14.2977717"><ele>46.42857142857143</ele><time>2026-05-04T08:44:29.121Z</time></trkpt><trkpt lat="40.9246" lon="14.297845"><ele>46.285714285714285</ele><time>2026-05-04T08:44:30.122Z</time></trkpt><trkpt lat="40.9246483" lon="14.2979167"><ele>46.142857142857146</ele><time>2026-05-04T08:44:31.119Z</time></trkpt><trkpt lat="40.924695" lon="14.297985"><ele>46.0</ele><time>2026-05-04T08:44:32.121Z</time></trkpt><trkpt lat="40.924745" lon="14.2980517"><ele>46.0</ele><time>2026-05-04T08:44:33.119Z</time></trkpt><trkpt lat="40.9248017" lon="14.2981083"><ele>46.0</ele><time>2026-05-04T08:44:34.121Z</time></trkpt><trkpt lat="40.9248617" lon="14.2981633"><ele>46.0</ele><time>2026-05-04T08:44:35.12Z</time></trkpt><trkpt lat="40.9249283" lon="14.298215"><ele>46.0</ele><time>2026-05-04T08:44:36.122Z</time></trkpt><trkpt lat="40.9249917" lon="14.2982717"><ele>46.0</ele><time>2026-05-04T08:44:37.123Z</time></trkpt><trkpt lat="40.9250533" lon="14.2983267"><ele>46.0</ele><time>2026-05-04T08:44:38.122Z</time></trkpt><trkpt lat="40.9251167" lon="14.298375"><ele>46.0</ele><time>2026-05-04T08:44:39.12Z</time></trkpt><trkpt lat="40.9251833" lon="14.2984167"><ele>46.16666666666667</ele><time>2026-05-04T08:44:40.12Z</time></trkpt><trkpt lat="40.9252517" lon="14.2984567"><ele>46.333333333333336</ele><time>2026-05-04T08:44:41.123Z</time></trkpt><trkpt lat="40.9253183" lon="14.29849"><ele>46.5</ele><time>2026-05-04T08:44:42.122Z</time></trkpt><trkpt lat="40.925385" lon="14.2985233"><ele>46.666666666666664</ele><time>2026-05-04T08:44:43.121Z</time></trkpt><trkpt lat="40.9254833" lon="14.29856"><ele>46.83333333333333</ele><time>2026-05-04T08:44:45.122Z</time></trkpt><trkpt lat="40.92554" lon="14.2986133"><ele>47.0</ele><time>2026-05-04T08:44:47.12Z</time></trkpt><trkpt lat="40.9256117" lon="14.2986433"><ele>47.0</ele><time>2026-05-04T08:44:49.121Z</time></trkpt><trkpt lat="40.925705" lon="14.298655"><ele>47.0</ele><time>2026-05-04T08:44:51.124Z</time></trkpt><trkpt lat="40.92581" lon="14.2986833"><ele>47.0</ele><time>2026-05-04T08:44:53.122Z</time></trkpt><trkpt lat="40.925925" lon="14.2986917"><ele>47.0</ele><time>2026-05-04T08:44:55.123Z</time></trkpt><trkpt lat="40.9260417" lon="14.2987"><ele>47.0</ele><time>2026-05-04T08:44:57.122Z</time></trkpt><trkpt lat="40.92616" lon="14.2987017"><ele>46.6</ele><time>2026-05-04T08:44:59.12Z</time></trkpt><trkpt lat="40.9262733" lon="14.29869"><ele>46.2</ele><time>2026-05-04T08:45:01.122Z</time></trkpt><trkpt lat="40.9263867" lon="14.2986833"><ele>45.8</ele><time>2026-05-04T08:45:03.12Z</time></trkpt><trkpt lat="40.9265083" lon="14.298675"><ele>45.4</ele><time>2026-05-04T08:45:05.121Z</time></trkpt><trkpt lat="40.9265733" lon="14.2986783"><ele>45.0</ele><time>2026-05-04T08:45:06.121Z</time></trkpt><trkpt lat="40.9266367" lon="14.29868"><ele>45.0</ele><time>2026-05-04T08:45:07.12Z</time></trkpt><trkpt lat="40.9267033" lon="14.2986783"><ele>45.0</ele><time>2026-05-04T08:45:08.12Z</time></trkpt><trkpt lat="40.9267683" lon="14.2986717"><ele>45.0</ele><time>2026-05-04T08:45:09.12Z</time></trkpt><trkpt lat="40.9268367" lon="14.298665"><ele>45.0</ele><time>2026-05-04T08:45:10.12Z</time></trkpt><trkpt lat="40.9269033" lon="14.2986567"><ele>45.0</ele><time>2026-05-04T08:45:11.118Z</time></trkpt><trkpt lat="40.9269667" lon="14.2986533"><ele>45.0</ele><time>2026-05-04T08:45:12.119Z</time></trkpt><trkpt lat="40.92708" lon="14.29864"><ele>45.0</ele><time>2026-05-04T08:45:14.12Z</time></trkpt><trkpt lat="40.9271667" lon="14.2986417"><ele>44.6</ele><time>2026-05-04T08:45:16.119Z</time></trkpt><trkpt lat="40.9272417" lon="14.2986733"><ele>44.2</ele><time>2026-05-04T08:45:18.121Z</time></trkpt><trkpt lat="40.92733" lon="14.29869"><ele>43.8</ele><time>2026-05-04T08:45:20.122Z</time></trkpt><trkpt lat="40.9274267" lon="14.2986433"><ele>43.4</ele><time>2026-05-04T08:45:22.118Z</time></trkpt><trkpt lat="40.9275317" lon="14.2985917"><ele>43.0</ele><time>2026-05-04T08:45:24.123Z</time></trkpt><trkpt lat="40.9276317" lon="14.29855"><ele>43.0</ele><time>2026-05-04T08:45:26.123Z</time></trkpt><trkpt lat="40.927745" lon="14.2985417"><ele>43.0</ele><time>2026-05-04T08:45:28.121Z</time></trkpt><trkpt lat="40.9278683" lon="14.2985333"><ele>43.0</ele><time>2026-05-04T08:45:30.122Z</time></trkpt><trkpt lat="40.9279917" lon="14.29851"><ele>43.0</ele><time>2026-05-04T08:45:32.121Z</time></trkpt><trkpt lat="40.9280567" lon="14.2984967"><ele>43.0</ele><time>2026-05-04T08:45:33.12Z</time></trkpt><trkpt lat="40.928125" lon="14.29849"><ele>43.00000000000001</ele><time>2026-05-04T08:45:34.121Z</time></trkpt><trkpt lat="40.9281933" lon="14.2984883"><ele>43.0</ele><time>2026-05-04T08:45:35.119Z</time></trkpt><trkpt lat="40.9282567" lon="14.298475"><ele>43.0</ele><time>2026-05-04T08:45:36.121Z</time></trkpt><trkpt lat="40.9283217" lon="14.2984617"><ele>43.0</ele><time>2026-05-04T08:45:37.118Z</time></trkpt><trkpt lat="40.92839" lon="14.2984483"><ele>43.0</ele><time>2026-05-04T08:45:38.12Z</time></trkpt><trkpt lat="40.9284583" lon="14.2984367"><ele>43.00000000000001</ele><time>2026-05-04T08:45:39.122Z</time></trkpt><trkpt lat="40.9285267" lon="14.2984267"><ele>43.0</ele><time>2026-05-04T08:45:40.119Z</time></trkpt><trkpt lat="40.9285917" lon="14.2984083"><ele>42.85714285714286</ele><time>2026-05-04T08:45:41.119Z</time></trkpt><trkpt lat="40.92866" lon="14.298395"><ele>42.714285714285715</ele><time>2026-05-04T08:45:42.119Z</time></trkpt><trkpt lat="40.9287267" lon="14.2983883"><ele>42.57142857142857</ele><time>2026-05-04T08:45:43.12Z</time></trkpt><trkpt lat="40.9287967" lon="14.2983867"><ele>42.42857142857143</ele><time>2026-05-04T08:45:44.119Z</time></trkpt><trkpt lat="40.9288667" lon="14.2983867"><ele>42.285714285714285</ele><time>2026-05-04T08:45:45.119Z</time></trkpt><trkpt lat="40.92894" lon="14.29838"><ele>42.142857142857146</ele><time>2026-05-04T08:45:46.119Z</time></trkpt><trkpt lat="40.9290067" lon="14.2983667"><ele>42.0</ele><time>2026-05-04T08:45:47.122Z</time></trkpt><trkpt lat="40.929075" lon="14.2983517"><ele>42.0</ele><time>2026-05-04T08:45:48.122Z</time></trkpt><trkpt lat="40.9291417" lon="14.2983383"><ele>42.0</ele><time>2026-05-04T08:45:49.122Z</time></trkpt><trkpt lat="40.92921" lon="14.2983283"><ele>42.0</ele><time>2026-05-04T08:45:50.121Z</time></trkpt><trkpt lat="40.9292767" lon="14.2983167"><ele>42.0</ele><time>2026-05-04T08:45:51.118Z</time></trkpt><trkpt lat="40.9293417" lon="14.2983083"><ele>42.0</ele><time>2026-05-04T08:45:52.119Z</time></trkpt><trkpt lat="40.92941" lon="14.2982983"><ele>42.0</ele><time>2026-05-04T08:45:53.122Z</time></trkpt><trkpt lat="40.9294767" lon="14.298285"><ele>42.0</ele><time>2026-05-04T08:45:54.118Z</time></trkpt><trkpt lat="40.9295417" lon="14.2982717"><ele>42.0</ele><time>2026-05-04T08:45:55.122Z</time></trkpt><trkpt lat="40.9296083" lon="14.2982633"><ele>42.0</ele><time>2026-05-04T08:45:56.123Z</time></trkpt><trkpt lat="40.929675" lon="14.2982633"><ele>42.0</ele><time>2026-05-04T08:45:57.121Z</time></trkpt><trkpt lat="40.929745" lon="14.298275"><ele>42.0</ele><time>2026-05-04T08:45:58.122Z</time></trkpt><trkpt lat="40.9298117" lon="14.2983017"><ele>42.0</ele><time>2026-05-04T08:45:59.119Z</time></trkpt><trkpt lat="40.9298767" lon="14.298325"><ele>42.0</ele><time>2026-05-04T08:46:00.121Z</time></trkpt><trkpt lat="40.92994" lon="14.2983533"><ele>42.0</ele><time>2026-05-04T08:46:01.122Z</time></trkpt><trkpt lat="40.929995" lon="14.2984"><ele>42.0</ele><time>2026-05-04T08:46:02.123Z</time></trkpt><trkpt lat="40.93004" lon="14.298465"><ele>42.0</ele><time>2026-05-04T08:46:03.123Z</time></trkpt><trkpt lat="40.9300833" lon="14.2985433"><ele>42.0</ele><time>2026-05-04T08:46:04.123Z</time></trkpt><trkpt lat="40.9301317" lon="14.2986167"><ele>42.0</ele><time>2026-05-04T08:46:05.122Z</time></trkpt><trkpt lat="40.930185" lon="14.2986917"><ele>42.0</ele><time>2026-05-04T08:46:06.123Z</time></trkpt><trkpt lat="40.9302417" lon="14.298765"><ele>42.0</ele><time>2026-05-04T08:46:07.122Z</time></trkpt><trkpt lat="40.9302933" lon="14.2988333"><ele>42.0</ele><time>2026-05-04T08:46:08.121Z</time></trkpt><trkpt lat="40.9303417" lon="14.2988967"><ele>41.714285714285715</ele><time>2026-05-04T08:46:09.121Z</time></trkpt><trkpt lat="40.9303883" lon="14.2989583"><ele>41.42857142857143</ele><time>2026-05-04T08:46:10.122Z</time></trkpt><trkpt lat="40.9304367" lon="14.299025"><ele>41.14285714285714</ele><time>2026-05-04T08:46:11.122Z</time></trkpt><trkpt lat="40.9304867" lon="14.2990883"><ele>40.85714285714286</ele><time>2026-05-04T08:46:12.119Z</time></trkpt><trkpt lat="40.9305333" lon="14.2991533"><ele>40.57142857142857</ele><time>2026-05-04T08:46:13.12Z</time></trkpt><trkpt lat="40.93058" lon="14.2992183"><ele>40.285714285714285</ele><time>2026-05-04T08:46:14.121Z</time></trkpt><trkpt lat="40.9306283" lon="14.2992817"><ele>40.0</ele><time>2026-05-04T08:46:15.12Z</time></trkpt><trkpt lat="40.9306767" lon="14.2993467"><ele>40.0</ele><time>2026-05-04T08:46:16.122Z</time></trkpt><trkpt lat="40.93072" lon="14.2994117"><ele>40.0</ele><time>2026-05-04T08:46:17.122Z</time></trkpt><trkpt lat="40.930765" lon="14.2994783"><ele>40.0</ele><time>2026-05-04T08:46:18.119Z</time></trkpt><trkpt lat="40.9308117" lon="14.299545"><ele>40.0</ele><time>2026-05-04T08:46:19.121Z</time></trkpt><trkpt lat="40.9308583" lon="14.2996117"><ele>40.0</ele><time>2026-05-04T08:46:20.12Z</time></trkpt><trkpt lat="40.930905" lon="14.2996767"><ele>40.0</ele><time>2026-05-04T08:46:21.123Z</time></trkpt><trkpt lat="40.9309483" lon="14.29974"><ele>40.0</ele><time>2026-05-04T08:46:22.12Z</time></trkpt><trkpt lat="40.9309933" lon="14.299805"><ele>40.0</ele><time>2026-05-04T08:46:23.121Z</time></trkpt><trkpt lat="40.93104" lon="14.299865"><ele>40.0</ele><time>2026-05-04T08:46:24.122Z</time></trkpt><trkpt lat="40.9310867" lon="14.2999283"><ele>40.0</ele><time>2026-05-04T08:46:25.122Z</time></trkpt><trkpt lat="40.9311367" lon="14.2999917"><ele>40.0</ele><time>2026-05-04T08:46:26.12Z</time></trkpt><trkpt lat="40.9311867" lon="14.3000517"><ele>40.0</ele><time>2026-05-04T08:46:27.122Z</time></trkpt><trkpt lat="40.9312367" lon="14.3001183"><ele>40.0</ele><time>2026-05-04T08:46:28.119Z</time></trkpt><trkpt lat="40.9312867" lon="14.3001867"><ele>40.0</ele><time>2026-05-04T08:46:29.121Z</time></trkpt><trkpt lat="40.9313367" lon="14.3002583"><ele>40.0</ele><time>2026-05-04T08:46:30.121Z</time></trkpt><trkpt lat="40.9313883" lon="14.3003317"><ele>40.0</ele><time>2026-05-04T08:46:31.12Z</time></trkpt><trkpt lat="40.93144" lon="14.3004083"><ele>40.0</ele><time>2026-05-04T08:46:32.124Z</time></trkpt><trkpt lat="40.9314917" lon="14.300485"><ele>40.0</ele><time>2026-05-04T08:46:33.122Z</time></trkpt><trkpt lat="40.9315417" lon="14.30056"><ele>40.0</ele><time>2026-05-04T08:46:34.12Z</time></trkpt><trkpt lat="40.9315917" lon="14.3006317"><ele>40.0</ele><time>2026-05-04T08:46:35.118Z</time></trkpt><trkpt lat="40.931635" lon="14.3006967"><ele>40.0</ele><time>2026-05-04T08:46:36.12Z</time></trkpt><trkpt lat="40.93168" lon="14.30076"><ele>40.0</ele><time>2026-05-04T08:46:37.121Z</time></trkpt><trkpt lat="40.9317583" lon="14.30087"><ele>40.0</ele><time>2026-05-04T08:46:39.122Z</time></trkpt><trkpt lat="40.931845" lon="14.3009667"><ele>40.0</ele><time>2026-05-04T08:46:41.122Z</time></trkpt><trkpt lat="40.9319483" lon="14.3010533"><ele>40.0</ele><time>2026-05-04T08:46:43.122Z</time></trkpt><trkpt lat="40.932005" lon="14.3010967"><ele>40.0</ele><time>2026-05-04T08:46:44.122Z</time></trkpt><trkpt lat="40.9321283" lon="14.301155"><ele>40.0</ele><time>2026-05-04T08:46:46.122Z</time></trkpt><trkpt lat="40.932195" lon="14.3011783"><ele>40.0</ele><time>2026-05-04T08:46:47.12Z</time></trkpt><trkpt lat="40.9322683" lon="14.3011933"><ele>40.0</ele><time>2026-05-04T08:46:48.123Z</time></trkpt><trkpt lat="40.9323417" lon="14.3012017"><ele>40.0</ele><time>2026-05-04T08:46:49.122Z</time></trkpt><trkpt lat="40.932415" lon="14.3012033"><ele>40.0</ele><time>2026-05-04T08:46:50.119Z</time></trkpt><trkpt lat="40.93249" lon="14.3012017"><ele>40.0</ele><time>2026-05-04T08:46:51.12Z</time></trkpt><trkpt lat="40.9325617" lon="14.3011983"><ele>40.0</ele><time>2026-05-04T08:46:52.121Z</time></trkpt><trkpt lat="40.93263" lon="14.301195"><ele>39.857142857142854</ele><time>2026-05-04T08:46:53.119Z</time></trkpt><trkpt lat="40.9326983" lon="14.301195"><ele>39.714285714285715</ele><time>2026-05-04T08:46:54.121Z</time></trkpt><trkpt lat="40.9327667" lon="14.3011983"><ele>39.57142857142857</ele><time>2026-05-04T08:46:55.122Z</time></trkpt><trkpt lat="40.932835" lon="14.301205"><ele>39.42857142857143</ele><time>2026-05-04T08:46:56.122Z</time></trkpt><trkpt lat="40.9329083" lon="14.3012067"><ele>39.285714285714285</ele><time>2026-05-04T08:46:57.12Z</time></trkpt><trkpt lat="40.9329767" lon="14.3012033"><ele>39.142857142857146</ele><time>2026-05-04T08:46:58.122Z</time></trkpt><trkpt lat="40.933045" lon="14.3011983"><ele>39.0</ele><time>2026-05-04T08:46:59.123Z</time></trkpt><trkpt lat="40.9331083" lon="14.3011967"><ele>39.0</ele><time>2026-05-04T08:47:00.119Z</time></trkpt><trkpt lat="40.9331733" lon="14.301205"><ele>39.0</ele><time>2026-05-04T08:47:01.121Z</time></trkpt><trkpt lat="40.9332367" lon="14.301215"><ele>39.0</ele><time>2026-05-04T08:47:02.122Z</time></trkpt><trkpt lat="40.9333517" lon="14.3012217"><ele>39.0</ele><time>2026-05-04T08:47:04.119Z</time></trkpt><trkpt lat="40.9334633" lon="14.3012417"><ele>39.0</ele><time>2026-05-04T08:47:06.118Z</time></trkpt><trkpt lat="40.933585" lon="14.301295"><ele>38.85714285714286</ele><time>2026-05-04T08:47:08.12Z</time></trkpt><trkpt lat="40.9336433" lon="14.3013283"><ele>38.71428571428571</ele><time>2026-05-04T08:47:09.121Z</time></trkpt><trkpt lat="40.9336983" lon="14.3013783"><ele>38.57142857142857</ele><time>2026-05-04T08:47:10.12Z</time></trkpt><trkpt lat="40.933755" lon="14.301425"><ele>38.42857142857143</ele><time>2026-05-04T08:47:11.119Z</time></trkpt><trkpt lat="40.9338167" lon="14.3014533"><ele>38.28571428571429</ele><time>2026-05-04T08:47:12.12Z</time></trkpt><trkpt lat="40.9338817" lon="14.3014483"><ele>38.14285714285714</ele><time>2026-05-04T08:47:13.12Z</time></trkpt><trkpt lat="40.9339417" lon="14.3014117"><ele>38.0</ele><time>2026-05-04T08:47:14.122Z</time></trkpt><trkpt lat="40.9339917" lon="14.3013533"><ele>38.14285714285714</ele><time>2026-05-04T08:47:15.123Z</time></trkpt><trkpt lat="40.9340467" lon="14.301305"><ele>38.28571428571429</ele><time>2026-05-04T08:47:16.118Z</time></trkpt><trkpt lat="40.9341067" lon="14.301265"><ele>38.42857142857143</ele><time>2026-05-04T08:47:17.117Z</time></trkpt><trkpt lat="40.93417" lon="14.30123"><ele>38.57142857142857</ele><time>2026-05-04T08:47:18.119Z</time></trkpt><trkpt lat="40.9342333" lon="14.3012133"><ele>38.71428571428571</ele><time>2026-05-04T08:47:19.12Z</time></trkpt><trkpt lat="40.9343017" lon="14.301205"><ele>38.85714285714286</ele><time>2026-05-04T08:47:20.12Z</time></trkpt><trkpt lat="40.9343683" lon="14.3012133"><ele>39.0</ele><time>2026-05-04T08:47:21.119Z</time></trkpt><trkpt lat="40.9344383" lon="14.3012167"><ele>39.0</ele><time>2026-05-04T08:47:22.119Z</time></trkpt><trkpt lat="40.9345133" lon="14.3012217"><ele>39.0</ele><time>2026-05-04T08:47:23.118Z</time></trkpt><trkpt lat="40.934585" lon="14.3012217"><ele>39.0</ele><time>2026-05-04T08:47:24.119Z</time></trkpt><trkpt lat="40.93466" lon="14.3012233"><ele>39.0</ele><time>2026-05-04T08:47:25.119Z</time></trkpt><trkpt lat="40.9347317" lon="14.3012283"><ele>39.0</ele><time>2026-05-04T08:47:26.123Z</time></trkpt><trkpt lat="40.9348" lon="14.3012333"><ele>39.0</ele><time>2026-05-04T08:47:27.121Z</time></trkpt><trkpt lat="40.9348683" lon="14.30124"><ele>39.0</ele><time>2026-05-04T08:47:28.122Z</time></trkpt><trkpt lat="40.934935" lon="14.301245"><ele>39.0</ele><time>2026-05-04T08:47:29.118Z</time></trkpt><trkpt lat="40.9350483" lon="14.3012517"><ele>39.0</ele><time>2026-05-04T08:47:31.123Z</time></trkpt><trkpt lat="40.9351367" lon="14.30125"><ele>39.0</ele><time>2026-05-04T08:47:33.121Z</time></trkpt><trkpt lat="40.9352217" lon="14.30125"><ele>39.0</ele><time>2026-05-04T08:47:35.119Z</time></trkpt><trkpt lat="40.9353167" lon="14.301265"><ele>39.0</ele><time>2026-05-04T08:47:37.119Z</time></trkpt><trkpt lat="40.93543" lon="14.3012683"><ele>38.6</ele><time>2026-05-04T08:47:39.119Z</time></trkpt><trkpt lat="40.9355517" lon="14.301265"><ele>38.2</ele><time>2026-05-04T08:47:41.121Z</time></trkpt><trkpt lat="40.9356733" lon="14.3012717"><ele>37.800000000000004</ele><time>2026-05-04T08:47:43.119Z</time></trkpt><trkpt lat="40.9358017" lon="14.3012683"><ele>37.4</ele><time>2026-05-04T08:47:45.122Z</time></trkpt><trkpt lat="40.9358683" lon="14.3012667"><ele>37.0</ele><time>2026-05-04T08:47:46.118Z</time></trkpt><trkpt lat="40.9359333" lon="14.301255"><ele>37.0</ele><time>2026-05-04T08:47:47.119Z</time></trkpt><trkpt lat="40.9360583" lon="14.30123"><ele>37.0</ele><time>2026-05-04T08:47:49.119Z</time></trkpt><trkpt lat="40.9361267" lon="14.3012117"><ele>37.0</ele><time>2026-05-04T08:47:50.121Z</time></trkpt><trkpt lat="40.9361967" lon="14.3012"><ele>37.0</ele><time>2026-05-04T08:47:51.12Z</time></trkpt><trkpt lat="40.9362667" lon="14.3011867"><ele>37.0</ele><time>2026-05-04T08:47:52.122Z</time></trkpt><trkpt lat="40.936335" lon="14.3011717"><ele>37.0</ele><time>2026-05-04T08:47:53.123Z</time></trkpt><trkpt lat="40.9364033" lon="14.3011567"><ele>37.0</ele><time>2026-05-04T08:47:54.119Z</time></trkpt><trkpt lat="40.9364717" lon="14.301145"><ele>37.0</ele><time>2026-05-04T08:47:55.122Z</time></trkpt><trkpt lat="40.936535" lon="14.301135"><ele>37.0</ele><time>2026-05-04T08:47:56.122Z</time></trkpt><trkpt lat="40.9366" lon="14.30112"><ele>37.0</ele><time>2026-05-04T08:47:57.121Z</time></trkpt><trkpt lat="40.9366617" lon="14.3011017"><ele>37.0</ele><time>2026-05-04T08:47:58.122Z</time></trkpt><trkpt lat="40.9367767" lon="14.3010717"><ele>37.0</ele><time>2026-05-04T08:48:00.121Z</time></trkpt><trkpt lat="40.936895" lon="14.3010483"><ele>37.0</ele><time>2026-05-04T08:48:02.123Z</time></trkpt><trkpt lat="40.93702" lon="14.3010233"><ele>37.0</ele><time>2026-05-04T08:48:04.122Z</time></trkpt><trkpt lat="40.937085" lon="14.3010067"><ele>37.0</ele><time>2026-05-04T08:48:05.122Z</time></trkpt><trkpt lat="40.93715" lon="14.3009917"><ele>37.0</ele><time>2026-05-04T08:48:06.122Z</time></trkpt><trkpt lat="40.9372183" lon="14.3009783"><ele>37.0</ele><time>2026-05-04T08:48:07.121Z</time></trkpt><trkpt lat="40.9372883" lon="14.3009633"><ele>37.0</ele><time>2026-05-04T08:48:08.122Z</time></trkpt><trkpt lat="40.937355" lon="14.3009433"><ele>37.0</ele><time>2026-05-04T08:48:09.121Z</time></trkpt><trkpt lat="40.937425" lon="14.3009283"><ele>37.0</ele><time>2026-05-04T08:48:10.122Z</time></trkpt><trkpt lat="40.9374933" lon="14.3009167"><ele>37.0</ele><time>2026-05-04T08:48:11.119Z</time></trkpt><trkpt lat="40.93756" lon="14.300905"><ele>37.0</ele><time>2026-05-04T08:48:12.122Z</time></trkpt><trkpt lat="40.9376317" lon="14.3008933"><ele>37.0</ele><time>2026-05-04T08:48:13.121Z</time></trkpt><trkpt lat="40.9377017" lon="14.30088"><ele>37.0</ele><time>2026-05-04T08:48:14.12Z</time></trkpt><trkpt lat="40.9377667" lon="14.300865"><ele>37.0</ele><time>2026-05-04T08:48:15.122Z</time></trkpt><trkpt lat="40.9378317" lon="14.3008483"><ele>37.16666666666667</ele><time>2026-05-04T08:48:16.123Z</time></trkpt><trkpt lat="40.937895" lon="14.3008267"><ele>37.333333333333336</ele><time>2026-05-04T08:48:17.12Z</time></trkpt><trkpt lat="40.9379567" lon="14.300805"><ele>37.5</ele><time>2026-05-04T08:48:18.12Z</time></trkpt><trkpt lat="40.9380783" lon="14.300755"><ele>37.666666666666664</ele><time>2026-05-04T08:48:20.12Z</time></trkpt><trkpt lat="40.9381433" lon="14.3007267"><ele>37.83333333333333</ele><time>2026-05-04T08:48:21.12Z</time></trkpt><trkpt lat="40.9382083" lon="14.3006933"><ele>38.0</ele><time>2026-05-04T08:48:22.119Z</time></trkpt><trkpt lat="40.938275" lon="14.3006567"><ele>38.0</ele><time>2026-05-04T08:48:23.118Z</time></trkpt><trkpt lat="40.93834" lon="14.3006167"><ele>38.0</ele><time>2026-05-04T08:48:24.122Z</time></trkpt><trkpt lat="40.938405" lon="14.3005783"><ele>38.0</ele><time>2026-05-04T08:48:25.12Z</time></trkpt><trkpt lat="40.93847" lon="14.3005433"><ele>38.0</ele><time>2026-05-04T08:48:26.121Z</time></trkpt><trkpt lat="40.9385317" lon="14.300505"><ele>38.0</ele><time>2026-05-04T08:48:27.12Z</time></trkpt><trkpt lat="40.9385967" lon="14.3004667"><ele>38.0</ele><time>2026-05-04T08:48:28.122Z</time></trkpt><trkpt lat="40.9386617" lon="14.30043"><ele>38.0</ele><time>2026-05-04T08:48:29.123Z</time></trkpt><trkpt lat="40.9387267" lon="14.3003917"><ele>37.857142857142854</ele><time>2026-05-04T08:48:30.118Z</time></trkpt><trkpt lat="40.93879" lon="14.3003517"><ele>37.714285714285715</ele><time>2026-05-04T08:48:31.12Z</time></trkpt><trkpt lat="40.9388567" lon="14.3003117"><ele>37.57142857142857</ele><time>2026-05-04T08:48:32.121Z</time></trkpt><trkpt lat="40.9389217" lon="14.3002667"><ele>37.42857142857143</ele><time>2026-05-04T08:48:33.119Z</time></trkpt><trkpt lat="40.9389867" lon="14.3002283"><ele>37.285714285714285</ele><time>2026-05-04T08:48:34.12Z</time></trkpt><trkpt lat="40.9390517" lon="14.30019"><ele>37.142857142857146</ele><time>2026-05-04T08:48:35.118Z</time></trkpt><trkpt lat="40.9391183" lon="14.3001517"><ele>37.0</ele><time>2026-05-04T08:48:36.121Z</time></trkpt><trkpt lat="40.9391867" lon="14.3001133"><ele>36.85714285714286</ele><time>2026-05-04T08:48:37.118Z</time></trkpt><trkpt lat="40.9392517" lon="14.3000733"><ele>36.714285714285715</ele><time>2026-05-04T08:48:38.121Z</time></trkpt><trkpt lat="40.939315" lon="14.300035"><ele>36.57142857142857</ele><time>2026-05-04T08:48:39.12Z</time></trkpt><trkpt lat="40.9393783" lon="14.2999917"><ele>36.42857142857143</ele><time>2026-05-04T08:48:40.121Z</time></trkpt><trkpt lat="40.939445" lon="14.2999467"><ele>36.285714285714285</ele><time>2026-05-04T08:48:41.12Z</time></trkpt><trkpt lat="40.9395083" lon="14.299905"><ele>36.142857142857146</ele><time>2026-05-04T08:48:42.12Z</time></trkpt><trkpt lat="40.9395733" lon="14.2998633"><ele>36.0</ele><time>2026-05-04T08:48:43.119Z</time></trkpt><trkpt lat="40.939635" lon="14.2998233"><ele>36.00000000000001</ele><time>2026-05-04T08:48:44.122Z</time></trkpt><trkpt lat="40.9396967" lon="14.2997817"><ele>36.0</ele><time>2026-05-04T08:48:45.12Z</time></trkpt><trkpt lat="40.9397583" lon="14.299745"><ele>36.0</ele><time>2026-05-04T08:48:46.121Z</time></trkpt><trkpt lat="40.9398217" lon="14.2997067"><ele>36.0</ele><time>2026-05-04T08:48:47.121Z</time></trkpt><trkpt lat="40.9398883" lon="14.299675"><ele>36.0</ele><time>2026-05-04T08:48:48.121Z</time></trkpt><trkpt lat="40.9399567" lon="14.299645"><ele>36.00000000000001</ele><time>2026-05-04T08:48:49.12Z</time></trkpt><trkpt lat="40.9400233" lon="14.2996167"><ele>36.0</ele><time>2026-05-04T08:48:50.12Z</time></trkpt><trkpt lat="40.9400917" lon="14.2995883"><ele>36.142857142857146</ele><time>2026-05-04T08:48:51.12Z</time></trkpt><trkpt lat="40.9401617" lon="14.29956"><ele>36.285714285714285</ele><time>2026-05-04T08:48:52.12Z</time></trkpt><trkpt lat="40.9402283" lon="14.29953"><ele>36.42857142857143</ele><time>2026-05-04T08:48:53.119Z</time></trkpt><trkpt lat="40.9402983" lon="14.2995083"><ele>36.57142857142857</ele><time>2026-05-04T08:48:54.121Z</time></trkpt><trkpt lat="40.9403683" lon="14.29949"><ele>36.714285714285715</ele><time>2026-05-04T08:48:55.119Z</time></trkpt><trkpt lat="40.9404383" lon="14.2994717"><ele>36.85714285714286</ele><time>2026-05-04T08:48:56.12Z</time></trkpt><trkpt lat="40.9405067" lon="14.29945"><ele>37.0</ele><time>2026-05-04T08:48:57.121Z</time></trkpt><trkpt lat="40.9405717" lon="14.2994233"><ele>37.0</ele><time>2026-05-04T08:48:58.12Z</time></trkpt><trkpt lat="40.9406383" lon="14.2994033"><ele>37.0</ele><time>2026-05-04T08:48:59.121Z</time></trkpt><trkpt lat="40.9407033" lon="14.29938"><ele>37.0</ele><time>2026-05-04T08:49:00.119Z</time></trkpt><trkpt lat="40.940765" lon="14.2993517"><ele>37.0</ele><time>2026-05-04T08:49:01.12Z</time></trkpt><trkpt lat="40.9408283" lon="14.2993267"><ele>37.0</ele><time>2026-05-04T08:49:02.12Z</time></trkpt><trkpt lat="40.9408933" lon="14.2993033"><ele>37.0</ele><time>2026-05-04T08:49:03.121Z</time></trkpt><trkpt lat="40.940955" lon="14.2992817"><ele>37.0</ele><time>2026-05-04T08:49:04.119Z</time></trkpt><trkpt lat="40.941065" lon="14.2992417"><ele>37.0</ele><time>2026-05-04T08:49:06.122Z</time></trkpt><trkpt lat="40.9411467" lon="14.2992117"><ele>37.0</ele><time>2026-05-04T08:49:08.121Z</time></trkpt><trkpt lat="40.9412167" lon="14.2991967"><ele>37.0</ele><time>2026-05-04T08:49:12.121Z</time></trkpt><trkpt lat="40.9413" lon="14.2992183"><ele>37.0</ele><time>2026-05-04T08:49:16.12Z</time></trkpt><trkpt lat="40.9413733" lon="14.2991883"><ele>37.0</ele><time>2026-05-04T08:49:18.118Z</time></trkpt><trkpt lat="40.9414633" lon="14.299145"><ele>37.0</ele><time>2026-05-04T08:49:20.12Z</time></trkpt><trkpt lat="40.9415717" lon="14.2991167"><ele>37.0</ele><time>2026-05-04T08:49:22.118Z</time></trkpt><trkpt lat="40.9416817" lon="14.29909"><ele>37.0</ele><time>2026-05-04T08:49:24.122Z</time></trkpt><trkpt lat="40.9417933" lon="14.2990567"><ele>37.0</ele><time>2026-05-04T08:49:26.122Z</time></trkpt><trkpt lat="40.9419117" lon="14.2990383"><ele>37.0</ele><time>2026-05-04T08:49:28.121Z</time></trkpt><trkpt lat="40.941975" lon="14.2990433"><ele>37.0</ele><time>2026-05-04T08:49:29.119Z</time></trkpt><trkpt lat="40.9420383" lon="14.2990467"><ele>36.833333333333336</ele><time>2026-05-04T08:49:30.121Z</time></trkpt><trkpt lat="40.9421033" lon="14.299045"><ele>36.66666666666667</ele><time>2026-05-04T08:49:31.121Z</time></trkpt><trkpt lat="40.9422217" lon="14.29903"><ele>36.5</ele><time>2026-05-04T08:49:33.123Z</time></trkpt><trkpt lat="40.9423467" lon="14.29902"><ele>36.333333333333336</ele><time>2026-05-04T08:49:35.12Z</time></trkpt><trkpt lat="40.942415" lon="14.2990217"><ele>36.166666666666664</ele><time>2026-05-04T08:49:36.12Z</time></trkpt><trkpt lat="40.9424817" lon="14.2990183"><ele>36.0</ele><time>2026-05-04T08:49:37.118Z</time></trkpt><trkpt lat="40.9425483" lon="14.29902"><ele>35.714285714285715</ele><time>2026-05-04T08:49:38.119Z</time></trkpt><trkpt lat="40.9426167" lon="14.2990183"><ele>35.42857142857143</ele><time>2026-05-04T08:49:39.12Z</time></trkpt><trkpt lat="40.9426883" lon="14.299025"><ele>35.14285714285714</ele><time>2026-05-04T08:49:40.119Z</time></trkpt><trkpt lat="40.94276" lon="14.2990317"><ele>34.85714285714286</ele><time>2026-05-04T08:49:41.118Z</time></trkpt><trkpt lat="40.9428317" lon="14.2990367"><ele>34.57142857142857</ele><time>2026-05-04T08:49:42.12Z</time></trkpt><trkpt lat="40.942905" lon="14.2990467"><ele>34.285714285714285</ele><time>2026-05-04T08:49:43.12Z</time></trkpt><trkpt lat="40.9429783" lon="14.2990433"><ele>34.0</ele><time>2026-05-04T08:49:44.122Z</time></trkpt><trkpt lat="40.9430483" lon="14.2990417"><ele>33.99999999999999</ele><time>2026-05-04T08:49:45.12Z</time></trkpt><trkpt lat="40.9431233" lon="14.2990367"><ele>34.0</ele><time>2026-05-04T08:49:46.121Z</time></trkpt><trkpt lat="40.9432" lon="14.2990417"><ele>34.0</ele><time>2026-05-04T08:49:47.119Z</time></trkpt><trkpt lat="40.943275" lon="14.29905"><ele>34.0</ele><time>2026-05-04T08:49:48.12Z</time></trkpt><trkpt lat="40.9433467" lon="14.29906"><ele>34.0</ele><time>2026-05-04T08:49:49.12Z</time></trkpt><trkpt lat="40.9434167" lon="14.29907"><ele>33.99999999999999</ele><time>2026-05-04T08:49:50.121Z</time></trkpt><trkpt lat="40.9434867" lon="14.299075"><ele>34.0</ele><time>2026-05-04T08:49:51.121Z</time></trkpt><trkpt lat="40.94356" lon="14.2990783"><ele>33.66666666666667</ele><time>2026-05-04T08:49:52.119Z</time></trkpt><trkpt lat="40.9436367" lon="14.2990917"><ele>33.333333333333336</ele><time>2026-05-04T08:49:53.12Z</time></trkpt><trkpt lat="40.9437133" lon="14.2991"><ele>33.0</ele><time>2026-05-04T08:49:54.122Z</time></trkpt><trkpt lat="40.9437883" lon="14.299115"><ele>32.666666666666664</ele><time>2026-05-04T08:49:55.12Z</time></trkpt><trkpt lat="40.9438633" lon="14.299125"><ele>32.33333333333333</ele><time>2026-05-04T08:49:56.118Z</time></trkpt><trkpt lat="40.9439383" lon="14.29913"><ele>32.0</ele><time>2026-05-04T08:49:57.123Z</time></trkpt><trkpt lat="40.9440167" lon="14.2991383"><ele>32.0</ele><time>2026-05-04T08:49:58.122Z</time></trkpt><trkpt lat="40.944095" lon="14.299155"><ele>31.999999999999996</ele><time>2026-05-04T08:49:59.117Z</time></trkpt><trkpt lat="40.9441667" lon="14.2991817"><ele>32.0</ele><time>2026-05-04T08:50:00.123Z</time></trkpt><trkpt lat="40.9442383" lon="14.2992167"><ele>32.0</ele><time>2026-05-04T08:50:01.12Z</time></trkpt><trkpt lat="40.944305" lon="14.299255"><ele>31.999999999999996</ele><time>2026-05-04T08:50:02.119Z</time></trkpt><trkpt lat="40.9443767" lon="14.2992833"><ele>32.0</ele><time>2026-05-04T08:50:03.119Z</time></trkpt><trkpt lat="40.9444467" lon="14.2992767"><ele>32.0</ele><time>2026-05-04T08:50:04.12Z</time></trkpt><trkpt lat="40.9445217" lon="14.299265"><ele>32.166666666666664</ele><time>2026-05-04T08:50:05.121Z</time></trkpt><trkpt lat="40.9445967" lon="14.29926"><ele>32.33333333333333</ele><time>2026-05-04T08:50:06.122Z</time></trkpt><trkpt lat="40.944675" lon="14.2992633"><ele>32.5</ele><time>2026-05-04T08:50:07.12Z</time></trkpt><trkpt lat="40.944755" lon="14.29927"><ele>32.666666666666664</ele><time>2026-05-04T08:50:08.12Z</time></trkpt><trkpt lat="40.9448333" lon="14.29928"><ele>32.833333333333336</ele><time>2026-05-04T08:50:09.119Z</time></trkpt><trkpt lat="40.944915" lon="14.2992917"><ele>33.0</ele><time>2026-05-04T08:50:10.123Z</time></trkpt><trkpt lat="40.944995" lon="14.299305"><ele>33.0</ele><time>2026-05-04T08:50:11.122Z</time></trkpt><trkpt lat="40.9450717" lon="14.2993217"><ele>33.0</ele><time>2026-05-04T08:50:12.122Z</time></trkpt><trkpt lat="40.9451533" lon="14.2993417"><ele>33.0</ele><time>2026-05-04T08:50:13.123Z</time></trkpt><trkpt lat="40.9452317" lon="14.29936"><ele>33.0</ele><time>2026-05-04T08:50:14.122Z</time></trkpt><trkpt lat="40.9453083" lon="14.2993733"><ele>33.0</ele><time>2026-05-04T08:50:15.121Z</time></trkpt><trkpt lat="40.9453883" lon="14.299385"><ele>33.0</ele><time>2026-05-04T08:50:16.119Z</time></trkpt><trkpt lat="40.94547" lon="14.2994083"><ele>33.0</ele><time>2026-05-04T08:50:17.123Z</time></trkpt><trkpt lat="40.9455483" lon="14.29943"><ele>33.0</ele><time>2026-05-04T08:50:18.121Z</time></trkpt><trkpt lat="40.945625" lon="14.299445"><ele>33.0</ele><time>2026-05-04T08:50:19.122Z</time></trkpt><trkpt lat="40.9457017" lon="14.2994583"><ele>33.0</ele><time>2026-05-04T08:50:20.122Z</time></trkpt><trkpt lat="40.9457767" lon="14.2994683"><ele>33.0</ele><time>2026-05-04T08:50:21.12Z</time></trkpt><trkpt lat="40.9458533" lon="14.29948"><ele>33.0</ele><time>2026-05-04T08:50:22.119Z</time></trkpt><trkpt lat="40.9459267" lon="14.299495"><ele>32.857142857142854</ele><time>2026-05-04T08:50:23.124Z</time></trkpt><trkpt lat="40.946" lon="14.2995133"><ele>32.714285714285715</ele><time>2026-05-04T08:50:24.121Z</time></trkpt><trkpt lat="40.94607" lon="14.2995267"><ele>32.57142857142857</ele><time>2026-05-04T08:50:25.118Z</time></trkpt><trkpt lat="40.9461383" lon="14.2995417"><ele>32.42857142857143</ele><time>2026-05-04T08:50:26.12Z</time></trkpt><trkpt lat="40.94621" lon="14.299555"><ele>32.285714285714285</ele><time>2026-05-04T08:50:27.12Z</time></trkpt><trkpt lat="40.946275" lon="14.299585"><ele>32.14285714285714</ele><time>2026-05-04T08:50:28.119Z</time></trkpt><trkpt lat="40.94634" lon="14.2996167"><ele>32.0</ele><time>2026-05-04T08:50:29.122Z</time></trkpt><trkpt lat="40.9463983" lon="14.2996533"><ele>32.0</ele><time>2026-05-04T08:50:30.122Z</time></trkpt><trkpt lat="40.9464517" lon="14.2997017"><ele>31.999999999999996</ele><time>2026-05-04T08:50:31.121Z</time></trkpt><trkpt lat="40.9465017" lon="14.2997583"><ele>32.0</ele><time>2026-05-04T08:50:32.12Z</time></trkpt><trkpt lat="40.9465433" lon="14.2998283"><ele>32.0</ele><time>2026-05-04T08:50:33.123Z</time></trkpt><trkpt lat="40.94658" lon="14.2999067"><ele>31.999999999999996</ele><time>2026-05-04T08:50:34.12Z</time></trkpt><trkpt lat="40.9466133" lon="14.2999917"><ele>32.0</ele><time>2026-05-04T08:50:35.121Z</time></trkpt><trkpt lat="40.946645" lon="14.3000783"><ele>32.0</ele><time>2026-05-04T08:50:36.12Z</time></trkpt><trkpt lat="40.9466733" lon="14.30017"><ele>31.999999999999996</ele><time>2026-05-04T08:50:37.121Z</time></trkpt><trkpt lat="40.9467017" lon="14.3002583"><ele>32.0</ele><time>2026-05-04T08:50:38.12Z</time></trkpt><trkpt lat="40.9467267" lon="14.3003483"><ele>32.0</ele><time>2026-05-04T08:50:39.118Z</time></trkpt><trkpt lat="40.94676" lon="14.3004383"><ele>32.0</ele><time>2026-05-04T08:50:40.122Z</time></trkpt><trkpt lat="40.946795" lon="14.30053"><ele>31.999999999999996</ele><time>2026-05-04T08:50:41.121Z</time></trkpt><trkpt lat="40.9468283" lon="14.3006217"><ele>32.0</ele><time>2026-05-04T08:50:42.12Z</time></trkpt><trkpt lat="40.946855" lon="14.3007167"><ele>31.833333333333332</ele><time>2026-05-04T08:50:43.119Z</time></trkpt><trkpt lat="40.9468783" lon="14.3008117"><ele>31.666666666666664</ele><time>2026-05-04T08:50:44.12Z</time></trkpt><trkpt lat="40.9469083" lon="14.3009"><ele>31.5</ele><time>2026-05-04T08:50:45.12Z</time></trkpt><trkpt lat="40.94694" lon="14.30099"><ele>31.333333333333336</ele><time>2026-05-04T08:50:46.119Z</time></trkpt><trkpt lat="40.9469717" lon="14.3010833"><ele>31.166666666666668</ele><time>2026-05-04T08:50:47.122Z</time></trkpt><trkpt lat="40.9470033" lon="14.3011733"><ele>31.0</ele><time>2026-05-04T08:50:48.122Z</time></trkpt><trkpt lat="40.94704" lon="14.301265"><ele>31.0</ele><time>2026-05-04T08:50:49.12Z</time></trkpt><trkpt lat="40.9470733" lon="14.3013533"><ele>31.000000000000004</ele><time>2026-05-04T08:50:50.121Z</time></trkpt><trkpt lat="40.947105" lon="14.30144"><ele>31.0</ele><time>2026-05-04T08:50:51.123Z</time></trkpt><trkpt lat="40.947135" lon="14.3015233"><ele>31.0</ele><time>2026-05-04T08:50:52.123Z</time></trkpt><trkpt lat="40.94717" lon="14.3015983"><ele>31.000000000000004</ele><time>2026-05-04T08:50:53.12Z</time></trkpt><trkpt lat="40.9472067" lon="14.3016717"><ele>31.0</ele><time>2026-05-04T08:50:54.12Z</time></trkpt><trkpt lat="40.9472433" lon="14.30174"><ele>31.0</ele><time>2026-05-04T08:50:55.121Z</time></trkpt><trkpt lat="40.947285" lon="14.3018083"><ele>31.200000000000003</ele><time>2026-05-04T08:50:56.12Z</time></trkpt><trkpt lat="40.9473667" lon="14.30193"><ele>31.400000000000002</ele><time>2026-05-04T08:50:58.119Z</time></trkpt><trkpt lat="40.9474317" lon="14.3020433"><ele>31.6</ele><time>2026-05-04T08:51:00.119Z</time></trkpt><trkpt lat="40.947485" lon="14.3021383"><ele>31.8</ele><time>2026-05-04T08:51:02.121Z</time></trkpt><trkpt lat="40.947565" lon="14.3021767"><ele>32.0</ele><time>2026-05-04T08:51:04.121Z</time></trkpt><trkpt lat="40.9476733" lon="14.3021783"><ele>32.0</ele><time>2026-05-04T08:51:06.121Z</time></trkpt><trkpt lat="40.9477967" lon="14.3021933"><ele>32.0</ele><time>2026-05-04T08:51:08.122Z</time></trkpt><trkpt lat="40.9479183" lon="14.3022133"><ele>32.0</ele><time>2026-05-04T08:51:10.122Z</time></trkpt><trkpt lat="40.9479833" lon="14.30222"><ele>32.0</ele><time>2026-05-04T08:51:11.122Z</time></trkpt><trkpt lat="40.9480483" lon="14.3022317"><ele>32.0</ele><time>2026-05-04T08:51:12.118Z</time></trkpt><trkpt lat="40.948175" lon="14.3022583"><ele>32.0</ele><time>2026-05-04T08:51:14.121Z</time></trkpt><trkpt lat="40.948245" lon="14.302275"><ele>31.999999999999996</ele><time>2026-05-04T08:51:15.118Z</time></trkpt><trkpt lat="40.9483133" lon="14.3022867"><ele>32.0</ele><time>2026-05-04T08:51:16.12Z</time></trkpt><trkpt lat="40.9483833" lon="14.3023033"><ele>32.0</ele><time>2026-05-04T08:51:17.12Z</time></trkpt><trkpt lat="40.9484533" lon="14.3023217"><ele>31.999999999999996</ele><time>2026-05-04T08:51:18.12Z</time></trkpt><trkpt lat="40.948525" lon="14.3023317"><ele>32.0</ele><time>2026-05-04T08:51:19.122Z</time></trkpt><trkpt lat="40.9485967" lon="14.302345"><ele>32.0</ele><time>2026-05-04T08:51:20.12Z</time></trkpt><trkpt lat="40.9486667" lon="14.3023533"><ele>31.833333333333332</ele><time>2026-05-04T08:51:21.119Z</time></trkpt><trkpt lat="40.9487417" lon="14.3023633"><ele>31.666666666666664</ele><time>2026-05-04T08:51:22.12Z</time></trkpt><trkpt lat="40.9488117" lon="14.3023733"><ele>31.5</ele><time>2026-05-04T08:51:23.121Z</time></trkpt><trkpt lat="40.9488833" lon="14.30239"><ele>31.333333333333336</ele><time>2026-05-04T08:51:24.12Z</time></trkpt><trkpt lat="40.9489533" lon="14.3024033"><ele>31.166666666666668</ele><time>2026-05-04T08:51:25.121Z</time></trkpt><trkpt lat="40.9490183" lon="14.3024133"><ele>31.0</ele><time>2026-05-04T08:51:26.119Z</time></trkpt><trkpt lat="40.949135" lon="14.3024617"><ele>31.333333333333336</ele><time>2026-05-04T08:51:28.121Z</time></trkpt><trkpt lat="40.9492433" lon="14.3024883"><ele>31.666666666666668</ele><time>2026-05-04T08:51:30.119Z</time></trkpt><trkpt lat="40.9493617" lon="14.3024967"><ele>32.0</ele><time>2026-05-04T08:51:32.121Z</time></trkpt><trkpt lat="40.949425" lon="14.3025167"><ele>32.333333333333336</ele><time>2026-05-04T08:51:33.122Z</time></trkpt><trkpt lat="40.9494867" lon="14.3025367"><ele>32.666666666666664</ele><time>2026-05-04T08:51:34.118Z</time></trkpt><trkpt lat="40.9495517" lon="14.3025567"><ele>33.0</ele><time>2026-05-04T08:51:35.12Z</time></trkpt><trkpt lat="40.9496733" lon="14.3025867"><ele>33.0</ele><time>2026-05-04T08:51:37.122Z</time></trkpt><trkpt lat="40.9497967" lon="14.30261"><ele>33.0</ele><time>2026-05-04T08:51:39.121Z</time></trkpt><trkpt lat="40.94986" lon="14.3026233"><ele>33.0</ele><time>2026-05-04T08:51:40.12Z</time></trkpt><trkpt lat="40.949925" lon="14.302635"><ele>33.0</ele><time>2026-05-04T08:51:41.122Z</time></trkpt><trkpt lat="40.9499933" lon="14.30265"><ele>33.0</ele><time>2026-05-04T08:51:42.123Z</time></trkpt><trkpt lat="40.9500667" lon="14.30267"><ele>33.0</ele><time>2026-05-04T08:51:43.122Z</time></trkpt><trkpt lat="40.9501417" lon="14.3026883"><ele>32.857142857142854</ele><time>2026-05-04T08:51:44.12Z</time></trkpt><trkpt lat="40.9502133" lon="14.30271"><ele>32.714285714285715</ele><time>2026-05-04T08:51:45.119Z</time></trkpt><trkpt lat="40.9502867" lon="14.302725"><ele>32.57142857142857</ele><time>2026-05-04T08:51:46.119Z</time></trkpt><trkpt lat="40.9503567" lon="14.3027417"><ele>32.42857142857143</ele><time>2026-05-04T08:51:47.12Z</time></trkpt><trkpt lat="40.9504317" lon="14.3027617"><ele>32.285714285714285</ele><time>2026-05-04T08:51:48.121Z</time></trkpt><trkpt lat="40.9505017" lon="14.30278"><ele>32.14285714285714</ele><time>2026-05-04T08:51:49.121Z</time></trkpt><trkpt lat="40.950575" lon="14.3028"><ele>32.0</ele><time>2026-05-04T08:51:50.12Z</time></trkpt><trkpt lat="40.9506467" lon="14.3028167"><ele>32.0</ele><time>2026-05-04T08:51:51.119Z</time></trkpt><trkpt lat="40.9507183" lon="14.3028333"><ele>31.999999999999996</ele><time>2026-05-04T08:51:52.12Z</time></trkpt><trkpt lat="40.95079" lon="14.3028517"><ele>32.0</ele><time>2026-05-04T08:51:53.12Z</time></trkpt><trkpt lat="40.9508633" lon="14.302875"><ele>32.0</ele><time>2026-05-04T08:51:54.12Z</time></trkpt><trkpt lat="40.9509333" lon="14.3028983"><ele>31.999999999999996</ele><time>2026-05-04T08:51:55.122Z</time></trkpt><trkpt lat="40.951005" lon="14.3029167"><ele>32.0</ele><time>2026-05-04T08:51:56.12Z</time></trkpt><trkpt lat="40.951075" lon="14.3029333"><ele>32.0</ele><time>2026-05-04T08:51:57.12Z</time></trkpt><trkpt lat="40.951145" lon="14.3029517"><ele>31.499999999999996</ele><time>2026-05-04T08:51:58.12Z</time></trkpt><trkpt lat="40.951215" lon="14.3029683"><ele>31.0</ele><time>2026-05-04T08:51:59.12Z</time></trkpt><trkpt lat="40.951285" lon="14.302985"><ele>30.5</ele><time>2026-05-04T08:52:00.118Z</time></trkpt><trkpt lat="40.9513567" lon="14.3030067"><ele>30.0</ele><time>2026-05-04T08:52:01.12Z</time></trkpt><trkpt lat="40.951425" lon="14.303025"><ele>29.499999999999996</ele><time>2026-05-04T08:52:02.121Z</time></trkpt><trkpt lat="40.951545" lon="14.3030567"><ele>29.0</ele><time>2026-05-04T08:52:04.118Z</time></trkpt><trkpt lat="40.9516367" lon="14.30308"><ele>29.2</ele><time>2026-05-04T08:52:06.121Z</time></trkpt><trkpt lat="40.9517133" lon="14.303105"><ele>29.4</ele><time>2026-05-04T08:52:08.122Z</time></trkpt><trkpt lat="40.9517933" lon="14.30312"><ele>29.6</ele><time>2026-05-04T08:52:10.118Z</time></trkpt><trkpt lat="40.95189" lon="14.3031383"><ele>29.8</ele><time>2026-05-04T08:52:12.118Z</time></trkpt><trkpt lat="40.9519967" lon="14.30317"><ele>30.0</ele><time>2026-05-04T08:52:14.119Z</time></trkpt><trkpt lat="40.9521217" lon="14.3032183"><ele>30.0</ele><time>2026-05-04T08:52:16.119Z</time></trkpt><trkpt lat="40.9521867" lon="14.303245"><ele>30.0</ele><time>2026-05-04T08:52:17.119Z</time></trkpt><trkpt lat="40.952255" lon="14.30327"><ele>30.0</ele><time>2026-05-04T08:52:18.12Z</time></trkpt><trkpt lat="40.9523267" lon="14.3033"><ele>30.0</ele><time>2026-05-04T08:52:19.119Z</time></trkpt><trkpt lat="40.9523967" lon="14.3033233"><ele>30.0</ele><time>2026-05-04T08:52:20.12Z</time></trkpt><trkpt lat="40.9524683" lon="14.3033417"><ele>30.0</ele><time>2026-05-04T08:52:21.118Z</time></trkpt><trkpt lat="40.9525467" lon="14.30337"><ele>30.0</ele><time>2026-05-04T08:52:22.12Z</time></trkpt><trkpt lat="40.9526217" lon="14.3034083"><ele>29.666666666666668</ele><time>2026-05-04T08:52:23.12Z</time></trkpt><trkpt lat="40.95269" lon="14.3034467"><ele>29.333333333333336</ele><time>2026-05-04T08:52:24.119Z</time></trkpt><trkpt lat="40.9527733" lon="14.3034833"><ele>29.0</ele><time>2026-05-04T08:52:25.122Z</time></trkpt><trkpt lat="40.9528517" lon="14.303515"><ele>28.666666666666668</ele><time>2026-05-04T08:52:26.121Z</time></trkpt><trkpt lat="40.9529283" lon="14.3035417"><ele>28.333333333333336</ele><time>2026-05-04T08:52:27.12Z</time></trkpt><trkpt lat="40.9530017" lon="14.3035717"><ele>28.0</ele><time>2026-05-04T08:52:28.12Z</time></trkpt><trkpt lat="40.9530733" lon="14.3036"><ele>28.0</ele><time>2026-05-04T08:52:29.119Z</time></trkpt><trkpt lat="40.9531417" lon="14.303615"><ele>28.0</ele><time>2026-05-04T08:52:30.121Z</time></trkpt><trkpt lat="40.9532183" lon="14.3036183"><ele>28.0</ele><time>2026-05-04T08:52:31.119Z</time></trkpt><trkpt lat="40.953285" lon="14.3036317"><ele>28.0</ele><time>2026-05-04T08:52:32.121Z</time></trkpt><trkpt lat="40.9533533" lon="14.3036483"><ele>28.0</ele><time>2026-05-04T08:52:33.119Z</time></trkpt><trkpt lat="40.9534267" lon="14.3036617"><ele>28.0</ele><time>2026-05-04T08:52:34.121Z</time></trkpt><trkpt lat="40.9534967" lon="14.3036767"><ele>28.0</ele><time>2026-05-04T08:52:35.122Z</time></trkpt><trkpt lat="40.9535633" lon="14.3037033"><ele>28.0</ele><time>2026-05-04T08:52:36.12Z</time></trkpt><trkpt lat="40.9536283" lon="14.3037233"><ele>28.0</ele><time>2026-05-04T08:52:37.119Z</time></trkpt><trkpt lat="40.9536967" lon="14.303755"><ele>28.0</ele><time>2026-05-04T08:52:38.121Z</time></trkpt><trkpt lat="40.953765" lon="14.303795"><ele>28.0</ele><time>2026-05-04T08:52:39.119Z</time></trkpt><trkpt lat="40.9538317" lon="14.3038283"><ele>28.0</ele><time>2026-05-04T08:52:40.119Z</time></trkpt><trkpt lat="40.953895" lon="14.303865"><ele>28.0</ele><time>2026-05-04T08:52:41.119Z</time></trkpt><trkpt lat="40.9539617" lon="14.3038983"><ele>28.0</ele><time>2026-05-04T08:52:42.12Z</time></trkpt><trkpt lat="40.954025" lon="14.3039283"><ele>28.0</ele><time>2026-05-04T08:52:43.121Z</time></trkpt><trkpt lat="40.954105" lon="14.3039383"><ele>28.0</ele><time>2026-05-04T08:52:44.12Z</time></trkpt><trkpt lat="40.9541783" lon="14.303955"><ele>28.0</ele><time>2026-05-04T08:52:45.119Z</time></trkpt><trkpt lat="40.9542483" lon="14.3039817"><ele>28.0</ele><time>2026-05-04T08:52:46.121Z</time></trkpt><trkpt lat="40.9543167" lon="14.3040083"><ele>28.0</ele><time>2026-05-04T08:52:47.119Z</time></trkpt><trkpt lat="40.9543833" lon="14.3040417"><ele>28.0</ele><time>2026-05-04T08:52:48.121Z</time></trkpt><trkpt lat="40.9544533" lon="14.3040717"><ele>28.0</ele><time>2026-05-04T08:52:49.12Z</time></trkpt><trkpt lat="40.95452" lon="14.3040983"><ele>28.0</ele><time>2026-05-04T08:52:50.12Z</time></trkpt><trkpt lat="40.9545833" lon="14.3041217"><ele>28.0</ele><time>2026-05-04T08:52:51.12Z</time></trkpt><trkpt lat="40.95465" lon="14.304145"><ele>28.0</ele><time>2026-05-04T08:52:52.12Z</time></trkpt><trkpt lat="40.9547133" lon="14.304165"><ele>28.0</ele><time>2026-05-04T08:52:53.119Z</time></trkpt><trkpt lat="40.95478" lon="14.3041783"><ele>28.0</ele><time>2026-05-04T08:52:54.121Z</time></trkpt><trkpt lat="40.9548467" lon="14.304195"><ele>28.0</ele><time>2026-05-04T08:52:55.118Z</time></trkpt><trkpt lat="40.9549167" lon="14.30422"><ele>28.0</ele><time>2026-05-04T08:52:56.12Z</time></trkpt><trkpt lat="40.9549817" lon="14.30425"><ele>28.000000000000004</ele><time>2026-05-04T08:52:57.119Z</time></trkpt><trkpt lat="40.95505" lon="14.30428"><ele>28.0</ele><time>2026-05-04T08:52:58.12Z</time></trkpt><trkpt lat="40.955115" lon="14.304305"><ele>28.0</ele><time>2026-05-04T08:52:59.119Z</time></trkpt><trkpt lat="40.955175" lon="14.3043333"><ele>28.0</ele><time>2026-05-04T08:53:00.118Z</time></trkpt><trkpt lat="40.9552883" lon="14.30438"><ele>28.000000000000004</ele><time>2026-05-04T08:53:02.121Z</time></trkpt><trkpt lat="40.95538" lon="14.30442"><ele>28.0</ele><time>2026-05-04T08:53:04.12Z</time></trkpt><trkpt lat="40.9554633" lon="14.3044567"><ele>28.0</ele><time>2026-05-04T08:53:06.12Z</time></trkpt><trkpt lat="40.955565" lon="14.3044967"><ele>28.0</ele><time>2026-05-04T08:53:08.119Z</time></trkpt><trkpt lat="40.95568" lon="14.304545"><ele>28.0</ele><time>2026-05-04T08:53:10.119Z</time></trkpt><trkpt lat="40.955795" lon="14.3045983"><ele>28.0</ele><time>2026-05-04T08:53:12.12Z</time></trkpt><trkpt lat="40.9559083" lon="14.3046567"><ele>28.2</ele><time>2026-05-04T08:53:14.121Z</time></trkpt><trkpt lat="40.9560183" lon="14.3046983"><ele>28.4</ele><time>2026-05-04T08:53:16.119Z</time></trkpt><trkpt lat="40.956125" lon="14.3047217"><ele>28.599999999999998</ele><time>2026-05-04T08:53:18.118Z</time></trkpt><trkpt lat="40.9562383" lon="14.3047417"><ele>28.799999999999997</ele><time>2026-05-04T08:53:20.12Z</time></trkpt><trkpt lat="40.9563467" lon="14.3047667"><ele>29.0</ele><time>2026-05-04T08:53:22.119Z</time></trkpt><trkpt lat="40.95645" lon="14.30478"><ele>28.999999999999996</ele><time>2026-05-04T08:53:24.12Z</time></trkpt><trkpt lat="40.956545" lon="14.3048017"><ele>29.0</ele><time>2026-05-04T08:53:26.12Z</time></trkpt><trkpt lat="40.9566167" lon="14.3048267"><ele>29.0</ele><time>2026-05-04T08:53:28.119Z</time></trkpt><trkpt lat="40.9566817" lon="14.3048517"><ele>29.0</ele><time>2026-05-04T08:53:31.12Z</time></trkpt><trkpt lat="40.9567583" lon="14.3048767"><ele>28.999999999999996</ele><time>2026-05-04T08:53:34.118Z</time></trkpt><trkpt lat="40.9568367" lon="14.3049283"><ele>29.0</ele><time>2026-05-04T08:53:36.119Z</time></trkpt><trkpt lat="40.9569283" lon="14.304995"><ele>29.0</ele><time>2026-05-04T08:53:38.119Z</time></trkpt><trkpt lat="40.9570217" lon="14.305075"><ele>29.0</ele><time>2026-05-04T08:53:40.12Z</time></trkpt><trkpt lat="40.9571167" lon="14.305165"><ele>29.0</ele><time>2026-05-04T08:53:42.12Z</time></trkpt><trkpt lat="40.9572133" lon="14.3052617"><ele>29.0</ele><time>2026-05-04T08:53:44.12Z</time></trkpt><trkpt lat="40.9573133" lon="14.305355"><ele>29.000000000000004</ele><time>2026-05-04T08:53:46.118Z</time></trkpt><trkpt lat="40.9573667" lon="14.3054033"><ele>29.0</ele><time>2026-05-04T08:53:47.121Z</time></trkpt><trkpt lat="40.9574183" lon="14.3054517"><ele>29.000000000000004</ele><time>2026-05-04T08:53:48.119Z</time></trkpt><trkpt lat="40.9574733" lon="14.3054983"><ele>29.000000000000004</ele><time>2026-05-04T08:53:49.119Z</time></trkpt><trkpt lat="40.95753" lon="14.3055467"><ele>29.0</ele><time>2026-05-04T08:53:50.12Z</time></trkpt><trkpt lat="40.9575917" lon="14.3055917"><ele>29.000000000000004</ele><time>2026-05-04T08:53:51.12Z</time></trkpt><trkpt lat="40.9576533" lon="14.305625"><ele>29.000000000000004</ele><time>2026-05-04T08:53:52.118Z</time></trkpt><trkpt lat="40.95771" lon="14.3056683"><ele>28.999999999999996</ele><time>2026-05-04T08:53:53.119Z</time></trkpt><trkpt lat="40.9577667" lon="14.305715"><ele>29.0</ele><time>2026-05-04T08:53:54.118Z</time></trkpt><trkpt lat="40.9578183" lon="14.3057667"><ele>29.0</ele><time>2026-05-04T08:53:55.118Z</time></trkpt><trkpt lat="40.957915" lon="14.3058667"><ele>29.0</ele><time>2026-05-04T08:53:57.118Z</time></trkpt><trkpt lat="40.9579867" lon="14.305935"><ele>28.999999999999996</ele><time>2026-05-04T08:53:59.12Z</time></trkpt><trkpt lat="40.9580383" lon="14.3059833"><ele>29.0</ele><time>2026-05-04T08:54:01.119Z</time></trkpt><trkpt lat="40.9580967" lon="14.3060433"><ele>29.0</ele><time>2026-05-04T08:54:04.121Z</time></trkpt><trkpt lat="40.9581617" lon="14.3060967"><ele>29.0</ele><time>2026-05-04T08:54:07.122Z</time></trkpt><trkpt lat="40.9582283" lon="14.30616"><ele>29.0</ele><time>2026-05-04T08:54:09.119Z</time></trkpt><trkpt lat="40.9582883" lon="14.3062483"><ele>29.0</ele><time>2026-05-04T08:54:11.121Z</time></trkpt><trkpt lat="40.9583617" lon="14.306345"><ele>29.0</ele><time>2026-05-04T08:54:13.119Z</time></trkpt><trkpt lat="40.9584483" lon="14.30645"><ele>28.75</ele><time>2026-05-04T08:54:15.119Z</time></trkpt><trkpt lat="40.958545" lon="14.3065317"><ele>28.5</ele><time>2026-05-04T08:54:17.121Z</time></trkpt><trkpt lat="40.9586533" lon="14.3065833"><ele>28.25</ele><time>2026-05-04T08:54:19.121Z</time></trkpt><trkpt lat="40.958765" lon="14.30665"><ele>28.0</ele><time>2026-05-04T08:54:21.121Z</time></trkpt><trkpt lat="40.9588867" lon="14.3067017"><ele>28.0</ele><time>2026-05-04T08:54:23.122Z</time></trkpt><trkpt lat="40.9589533" lon="14.30673"><ele>28.0</ele><time>2026-05-04T08:54:24.122Z</time></trkpt><trkpt lat="40.9590183" lon="14.3067567"><ele>28.0</ele><time>2026-05-04T08:54:25.122Z</time></trkpt><trkpt lat="40.959085" lon="14.3067833"><ele>28.0</ele><time>2026-05-04T08:54:26.123Z</time></trkpt><trkpt lat="40.9591533" lon="14.3068017"><ele>28.0</ele><time>2026-05-04T08:54:27.122Z</time></trkpt><trkpt lat="40.95922" lon="14.3068117"><ele>28.0</ele><time>2026-05-04T08:54:28.119Z</time></trkpt><trkpt lat="40.959285" lon="14.3068283"><ele>28.0</ele><time>2026-05-04T08:54:29.121Z</time></trkpt><trkpt lat="40.95935" lon="14.30684"><ele>27.333333333333336</ele><time>2026-05-04T08:54:30.121Z</time></trkpt><trkpt lat="40.959415" lon="14.306855"><ele>26.666666666666668</ele><time>2026-05-04T08:54:31.122Z</time></trkpt><trkpt lat="40.9594783" lon="14.3068767"><ele>26.0</ele><time>2026-05-04T08:54:32.12Z</time></trkpt><trkpt lat="40.9595967" lon="14.306915"><ele>25.333333333333336</ele><time>2026-05-04T08:54:34.12Z</time></trkpt><trkpt lat="40.9596583" lon="14.306935"><ele>24.666666666666668</ele><time>2026-05-04T08:54:35.12Z</time></trkpt><trkpt lat="40.9597817" lon="14.3069583"><ele>24.0</ele><time>2026-05-04T08:54:37.12Z</time></trkpt><trkpt lat="40.9599033" lon="14.30699"><ele>24.0</ele><time>2026-05-04T08:54:39.121Z</time></trkpt><trkpt lat="40.9600267" lon="14.30702"><ele>24.0</ele><time>2026-05-04T08:54:41.12Z</time></trkpt><trkpt lat="40.96009" lon="14.3070317"><ele>24.0</ele><time>2026-05-04T08:54:42.121Z</time></trkpt><trkpt lat="40.9602133" lon="14.3070683"><ele>24.0</ele><time>2026-05-04T08:54:44.12Z</time></trkpt><trkpt lat="40.9602767" lon="14.307085"><ele>24.0</ele><time>2026-05-04T08:54:45.121Z</time></trkpt><trkpt lat="40.9604017" lon="14.307105"><ele>24.4</ele><time>2026-05-04T08:54:47.12Z</time></trkpt><trkpt lat="40.960465" lon="14.3071233"><ele>24.799999999999997</ele><time>2026-05-04T08:54:48.121Z</time></trkpt><trkpt lat="40.9605767" lon="14.3071817"><ele>25.200000000000003</ele><time>2026-05-04T08:54:50.119Z</time></trkpt><trkpt lat="40.9606833" lon="14.3072317"><ele>25.6</ele><time>2026-05-04T08:54:52.122Z</time></trkpt><trkpt lat="40.9607767" lon="14.3072433"><ele>26.0</ele><time>2026-05-04T08:54:54.119Z</time></trkpt><trkpt lat="40.9608833" lon="14.3072217"><ele>26.25</ele><time>2026-05-04T08:54:56.122Z</time></trkpt><trkpt lat="40.96099" lon="14.3072267"><ele>26.5</ele><time>2026-05-04T08:54:58.121Z</time></trkpt><trkpt lat="40.961105" lon="14.307255"><ele>26.75</ele><time>2026-05-04T08:55:00.124Z</time></trkpt><trkpt lat="40.9612283" lon="14.307285"><ele>27.0</ele><time>2026-05-04T08:55:02.122Z</time></trkpt><trkpt lat="40.96135" lon="14.3073167"><ele>27.0</ele><time>2026-05-04T08:55:04.123Z</time></trkpt><trkpt lat="40.9614133" lon="14.3073383"><ele>27.0</ele><time>2026-05-04T08:55:05.123Z</time></trkpt><trkpt lat="40.9614767" lon="14.3073567"><ele>27.0</ele><time>2026-05-04T08:55:06.123Z</time></trkpt><trkpt lat="40.9616033" lon="14.3073567"><ele>27.0</ele><time>2026-05-04T08:55:08.123Z</time></trkpt><trkpt lat="40.9616717" lon="14.3073567"><ele>27.0</ele><time>2026-05-04T08:55:09.123Z</time></trkpt><trkpt lat="40.9617367" lon="14.30736"><ele>27.0</ele><time>2026-05-04T08:55:10.121Z</time></trkpt><trkpt lat="40.9618033" lon="14.3073683"><ele>27.0</ele><time>2026-05-04T08:55:11.123Z</time></trkpt><trkpt lat="40.96187" lon="14.307375"><ele>27.0</ele><time>2026-05-04T08:55:12.122Z</time></trkpt><trkpt lat="40.961935" lon="14.3073767"><ele>27.0</ele><time>2026-05-04T08:55:13.121Z</time></trkpt><trkpt lat="40.962" lon="14.3073683"><ele>27.0</ele><time>2026-05-04T08:55:14.124Z</time></trkpt><trkpt lat="40.9620633" lon="14.3073617"><ele>27.0</ele><time>2026-05-04T08:55:15.122Z</time></trkpt><trkpt lat="40.9621267" lon="14.3073583"><ele>27.0</ele><time>2026-05-04T08:55:16.122Z</time></trkpt><trkpt lat="40.9621917" lon="14.307355"><ele>27.0</ele><time>2026-05-04T08:55:17.123Z</time></trkpt><trkpt lat="40.9622567" lon="14.3073483"><ele>27.0</ele><time>2026-05-04T08:55:18.12Z</time></trkpt><trkpt lat="40.96232" lon="14.3073417"><ele>27.0</ele><time>2026-05-04T08:55:19.122Z</time></trkpt><trkpt lat="40.962385" lon="14.3073333"><ele>27.0</ele><time>2026-05-04T08:55:20.121Z</time></trkpt><trkpt lat="40.96245" lon="14.3073233"><ele>27.0</ele><time>2026-05-04T08:55:21.122Z</time></trkpt><trkpt lat="40.9625167" lon="14.307315"><ele>27.0</ele><time>2026-05-04T08:55:22.12Z</time></trkpt><trkpt lat="40.9625833" lon="14.3073083"><ele>27.0</ele><time>2026-05-04T08:55:23.123Z</time></trkpt><trkpt lat="40.9626483" lon="14.307305"><ele>27.0</ele><time>2026-05-04T08:55:24.119Z</time></trkpt><trkpt lat="40.9627183" lon="14.3073017"><ele>26.833333333333332</ele><time>2026-05-04T08:55:25.123Z</time></trkpt><trkpt lat="40.9627833" lon="14.307295"><ele>26.666666666666664</ele><time>2026-05-04T08:55:26.123Z</time></trkpt><trkpt lat="40.9629033" lon="14.307275"><ele>26.5</ele><time>2026-05-04T08:55:28.121Z</time></trkpt><trkpt lat="40.963025" lon="14.3072533"><ele>26.333333333333332</ele><time>2026-05-04T08:55:30.123Z</time></trkpt><trkpt lat="40.9630883" lon="14.3072383"><ele>26.166666666666664</ele><time>2026-05-04T08:55:31.122Z</time></trkpt><trkpt lat="40.9631533" lon="14.307225"><ele>26.0</ele><time>2026-05-04T08:55:32.119Z</time></trkpt><trkpt lat="40.9632183" lon="14.3072217"><ele>25.857142857142858</ele><time>2026-05-04T08:55:33.121Z</time></trkpt><trkpt lat="40.9632867" lon="14.307225"><ele>25.714285714285715</ele><time>2026-05-04T08:55:34.121Z</time></trkpt><trkpt lat="40.9633517" lon="14.3072217"><ele>25.571428571428573</ele><time>2026-05-04T08:55:35.12Z</time></trkpt><trkpt lat="40.96342" lon="14.30722"><ele>25.42857142857143</ele><time>2026-05-04T08:55:36.123Z</time></trkpt><trkpt lat="40.9634883" lon="14.3072167"><ele>25.285714285714285</ele><time>2026-05-04T08:55:37.124Z</time></trkpt><trkpt lat="40.963555" lon="14.3072233"><ele>25.142857142857146</ele><time>2026-05-04T08:55:38.124Z</time></trkpt><trkpt lat="40.9636233" lon="14.3072167"><ele>25.0</ele><time>2026-05-04T08:55:39.122Z</time></trkpt><trkpt lat="40.9636917" lon="14.3072117"><ele>24.714285714285715</ele><time>2026-05-04T08:55:40.119Z</time></trkpt><trkpt lat="40.96376" lon="14.3072067"><ele>24.42857142857143</ele><time>2026-05-04T08:55:41.123Z</time></trkpt><trkpt lat="40.963825" lon="14.3071967"><ele>24.142857142857146</ele><time>2026-05-04T08:55:42.121Z</time></trkpt><trkpt lat="40.9638883" lon="14.30719"><ele>23.857142857142858</ele><time>2026-05-04T08:55:43.122Z</time></trkpt><trkpt lat="40.9639533" lon="14.307185"><ele>23.57142857142857</ele><time>2026-05-04T08:55:44.121Z</time></trkpt><trkpt lat="40.9640167" lon="14.30718"><ele>23.28571428571429</ele><time>2026-05-04T08:55:45.122Z</time></trkpt><trkpt lat="40.9640817" lon="14.30717"><ele>23.0</ele><time>2026-05-04T08:55:46.122Z</time></trkpt><trkpt lat="40.9641483" lon="14.307165"><ele>23.28571428571429</ele><time>2026-05-04T08:55:47.122Z</time></trkpt><trkpt lat="40.9642117" lon="14.3071567"><ele>23.57142857142857</ele><time>2026-05-04T08:55:48.121Z</time></trkpt><trkpt lat="40.964275" lon="14.3071467"><ele>23.857142857142858</ele><time>2026-05-04T08:55:49.121Z</time></trkpt><trkpt lat="40.96434" lon="14.30714"><ele>24.142857142857146</ele><time>2026-05-04T08:55:50.121Z</time></trkpt><trkpt lat="40.964405" lon="14.307135"><ele>24.42857142857143</ele><time>2026-05-04T08:55:51.121Z</time></trkpt><trkpt lat="40.9644683" lon="14.3071233"><ele>24.714285714285715</ele><time>2026-05-04T08:55:52.122Z</time></trkpt><trkpt lat="40.96459" lon="14.3071"><ele>25.0</ele><time>2026-05-04T08:55:54.123Z</time></trkpt><trkpt lat="40.9647117" lon="14.3071033"><ele>25.000000000000004</ele><time>2026-05-04T08:55:56.124Z</time></trkpt><trkpt lat="40.9648317" lon="14.30708"><ele>25.0</ele><time>2026-05-04T08:55:58.121Z</time></trkpt><trkpt lat="40.964955" lon="14.3070567"><ele>25.0</ele><time>2026-05-04T08:56:00.121Z</time></trkpt><trkpt lat="40.9650183" lon="14.3070417"><ele>25.0</ele><time>2026-05-04T08:56:01.121Z</time></trkpt><trkpt lat="40.9650833" lon="14.3070267"><ele>25.000000000000004</ele><time>2026-05-04T08:56:02.121Z</time></trkpt><trkpt lat="40.9651483" lon="14.3070067"><ele>25.0</ele><time>2026-05-04T08:56:03.12Z</time></trkpt><trkpt lat="40.965215" lon="14.3069883"><ele>25.000000000000004</ele><time>2026-05-04T08:56:04.119Z</time></trkpt><trkpt lat="40.9652817" lon="14.306975"><ele>25.0</ele><time>2026-05-04T08:56:05.12Z</time></trkpt><trkpt lat="40.96535" lon="14.3069717"><ele>25.0</ele><time>2026-05-04T08:56:06.121Z</time></trkpt><trkpt lat="40.9654167" lon="14.3069633"><ele>25.0</ele><time>2026-05-04T08:56:07.121Z</time></trkpt><trkpt lat="40.9654817" lon="14.30695"><ele>25.0</ele><time>2026-05-04T08:56:08.122Z</time></trkpt><trkpt lat="40.96555" lon="14.3069333"><ele>25.000000000000004</ele><time>2026-05-04T08:56:09.122Z</time></trkpt><trkpt lat="40.9656167" lon="14.3069183"><ele>25.0</ele><time>2026-05-04T08:56:10.122Z</time></trkpt><trkpt lat="40.9656833" lon="14.3069183"><ele>25.000000000000004</ele><time>2026-05-04T08:56:11.123Z</time></trkpt><trkpt lat="40.9657483" lon="14.306925"><ele>25.0</ele><time>2026-05-04T08:56:12.123Z</time></trkpt><trkpt lat="40.9658133" lon="14.30693"><ele>25.0</ele><time>2026-05-04T08:56:13.121Z</time></trkpt><trkpt lat="40.9658783" lon="14.3069367"><ele>25.0</ele><time>2026-05-04T08:56:14.122Z</time></trkpt><trkpt lat="40.9659433" lon="14.3069467"><ele>25.0</ele><time>2026-05-04T08:56:15.124Z</time></trkpt><trkpt lat="40.9660067" lon="14.3069617"><ele>25.000000000000004</ele><time>2026-05-04T08:56:16.119Z</time></trkpt><trkpt lat="40.9660717" lon="14.30698"><ele>25.0</ele><time>2026-05-04T08:56:17.119Z</time></trkpt><trkpt lat="40.966185" lon="14.3070367"><ele>25.0</ele><time>2026-05-04T08:56:19.118Z</time></trkpt><trkpt lat="40.9662433" lon="14.30707"><ele>25.0</ele><time>2026-05-04T08:56:20.122Z</time></trkpt><trkpt lat="40.9663567" lon="14.30713"><ele>25.0</ele><time>2026-05-04T08:56:22.12Z</time></trkpt><trkpt lat="40.96647" lon="14.3071867"><ele>25.0</ele><time>2026-05-04T08:56:24.122Z</time></trkpt><trkpt lat="40.9665733" lon="14.307235"><ele>25.0</ele><time>2026-05-04T08:56:26.122Z</time></trkpt><trkpt lat="40.9666783" lon="14.3072717"><ele>24.833333333333336</ele><time>2026-05-04T08:56:28.12Z</time></trkpt><trkpt lat="40.966785" lon="14.3073083"><ele>24.666666666666668</ele><time>2026-05-04T08:56:30.121Z</time></trkpt><trkpt lat="40.96689" lon="14.3073733"><ele>24.5</ele><time>2026-05-04T08:56:32.123Z</time></trkpt><trkpt lat="40.9669467" lon="14.3074117"><ele>24.333333333333336</ele><time>2026-05-04T08:56:33.121Z</time></trkpt><trkpt lat="40.9670033" lon="14.30745"><ele>24.166666666666668</ele><time>2026-05-04T08:56:34.12Z</time></trkpt><trkpt lat="40.9670617" lon="14.3074883"><ele>24.0</ele><time>2026-05-04T08:56:35.124Z</time></trkpt><trkpt lat="40.9671217" lon="14.30752"><ele>24.0</ele><time>2026-05-04T08:56:36.123Z</time></trkpt><trkpt lat="40.9671833" lon="14.3075467"><ele>24.0</ele><time>2026-05-04T08:56:37.124Z</time></trkpt><trkpt lat="40.9672917" lon="14.3075917"><ele>24.0</ele><time>2026-05-04T08:56:39.124Z</time></trkpt><trkpt lat="40.9674033" lon="14.3076417"><ele>24.0</ele><time>2026-05-04T08:56:41.121Z</time></trkpt><trkpt lat="40.96752" lon="14.3077033"><ele>24.0</ele><time>2026-05-04T08:56:43.119Z</time></trkpt><trkpt lat="40.9676383" lon="14.3077667"><ele>24.285714285714285</ele><time>2026-05-04T08:56:45.122Z</time></trkpt><trkpt lat="40.9677" lon="14.3077967"><ele>24.57142857142857</ele><time>2026-05-04T08:56:46.122Z</time></trkpt><trkpt lat="40.9677633" lon="14.3078233"><ele>24.857142857142854</ele><time>2026-05-04T08:56:47.123Z</time></trkpt><trkpt lat="40.967825" lon="14.3078517"><ele>25.142857142857142</ele><time>2026-05-04T08:56:48.119Z</time></trkpt><trkpt lat="40.967885" lon="14.30788"><ele>25.42857142857143</ele><time>2026-05-04T08:56:49.122Z</time></trkpt><trkpt lat="40.9679467" lon="14.3079067"><ele>25.71428571428571</ele><time>2026-05-04T08:56:50.123Z</time></trkpt><trkpt lat="40.9680083" lon="14.3079383"><ele>26.0</ele><time>2026-05-04T08:56:51.121Z</time></trkpt><trkpt lat="40.968075" lon="14.3079617"><ele>26.0</ele><time>2026-05-04T08:56:52.122Z</time></trkpt><trkpt lat="40.9681433" lon="14.3079833"><ele>26.0</ele><time>2026-05-04T08:56:53.122Z</time></trkpt><trkpt lat="40.9682117" lon="14.308005"><ele>26.0</ele><time>2026-05-04T08:56:54.121Z</time></trkpt><trkpt lat="40.9682783" lon="14.3080283"><ele>26.0</ele><time>2026-05-04T08:56:55.119Z</time></trkpt><trkpt lat="40.9683433" lon="14.308055"><ele>26.0</ele><time>2026-05-04T08:56:56.119Z</time></trkpt><trkpt lat="40.96841" lon="14.30808"><ele>26.0</ele><time>2026-05-04T08:56:57.12Z</time></trkpt><trkpt lat="40.9684817" lon="14.3081067"><ele>26.0</ele><time>2026-05-04T08:56:58.119Z</time></trkpt><trkpt lat="40.9685533" lon="14.3081267"><ele>25.833333333333332</ele><time>2026-05-04T08:56:59.125Z</time></trkpt><trkpt lat="40.9686283" lon="14.3081517"><ele>25.666666666666664</ele><time>2026-05-04T08:57:00.122Z</time></trkpt><trkpt lat="40.9687033" lon="14.30817"><ele>25.5</ele><time>2026-05-04T08:57:01.121Z</time></trkpt><trkpt lat="40.9687783" lon="14.3081883"><ele>25.333333333333336</ele><time>2026-05-04T08:57:02.124Z</time></trkpt><trkpt lat="40.9688533" lon="14.3082067"><ele>25.166666666666668</ele><time>2026-05-04T08:57:03.121Z</time></trkpt><trkpt lat="40.9689317" lon="14.3082233"><ele>25.0</ele><time>2026-05-04T08:57:04.122Z</time></trkpt><trkpt lat="40.9690083" lon="14.3082367"><ele>25.000000000000004</ele><time>2026-05-04T08:57:05.121Z</time></trkpt><trkpt lat="40.969085" lon="14.3082467"><ele>25.0</ele><time>2026-05-04T08:57:06.123Z</time></trkpt><trkpt lat="40.96916" lon="14.30825"><ele>25.0</ele><time>2026-05-04T08:57:07.121Z</time></trkpt><trkpt lat="40.9692383" lon="14.30825"><ele>25.0</ele><time>2026-05-04T08:57:08.124Z</time></trkpt><trkpt lat="40.9693133" lon="14.3082567"><ele>25.000000000000004</ele><time>2026-05-04T08:57:09.121Z</time></trkpt><trkpt lat="40.9693867" lon="14.308265"><ele>25.0</ele><time>2026-05-04T08:57:10.123Z</time></trkpt><trkpt lat="40.9694633" lon="14.3082733"><ele>24.857142857142858</ele><time>2026-05-04T08:57:11.122Z</time></trkpt><trkpt lat="40.969535" lon="14.308285"><ele>24.714285714285715</ele><time>2026-05-04T08:57:12.121Z</time></trkpt><trkpt lat="40.9696083" lon="14.308295"><ele>24.57142857142857</ele><time>2026-05-04T08:57:13.12Z</time></trkpt><trkpt lat="40.9696817" lon="14.3083033"><ele>24.42857142857143</ele><time>2026-05-04T08:57:14.12Z</time></trkpt><trkpt lat="40.9697533" lon="14.3083083"><ele>24.285714285714285</ele><time>2026-05-04T08:57:15.121Z</time></trkpt><trkpt lat="40.9698267" lon="14.3083117"><ele>24.142857142857142</ele><time>2026-05-04T08:57:16.12Z</time></trkpt><trkpt lat="40.9699" lon="14.3083117"><ele>24.0</ele><time>2026-05-04T08:57:17.121Z</time></trkpt><trkpt lat="40.9699767" lon="14.3083167"><ele>23.857142857142854</ele><time>2026-05-04T08:57:18.121Z</time></trkpt><trkpt lat="40.9700533" lon="14.308325"><ele>23.714285714285715</ele><time>2026-05-04T08:57:19.12Z</time></trkpt><trkpt lat="40.9701283" lon="14.3083333"><ele>23.57142857142857</ele><time>2026-05-04T08:57:20.121Z</time></trkpt><trkpt lat="40.9702017" lon="14.30834"><ele>23.428571428571427</ele><time>2026-05-04T08:57:21.122Z</time></trkpt><trkpt lat="40.9702733" lon="14.308345"><ele>23.285714285714285</ele><time>2026-05-04T08:57:22.121Z</time></trkpt><trkpt lat="40.9703433" lon="14.308355"><ele>23.142857142857142</ele><time>2026-05-04T08:57:23.12Z</time></trkpt><trkpt lat="40.9704167" lon="14.3083717"><ele>23.0</ele><time>2026-05-04T08:57:24.122Z</time></trkpt><trkpt lat="40.9704917" lon="14.3083883"><ele>23.0</ele><time>2026-05-04T08:57:25.121Z</time></trkpt><trkpt lat="40.970565" lon="14.3084083"><ele>23.0</ele><time>2026-05-04T08:57:26.122Z</time></trkpt><trkpt lat="40.97064" lon="14.3084333"><ele>23.0</ele><time>2026-05-04T08:57:27.12Z</time></trkpt><trkpt lat="40.9707083" lon="14.3084683"><ele>23.0</ele><time>2026-05-04T08:57:28.121Z</time></trkpt><trkpt lat="40.97078" lon="14.308505"><ele>23.0</ele><time>2026-05-04T08:57:29.121Z</time></trkpt><trkpt lat="40.9708517" lon="14.308545"><ele>23.0</ele><time>2026-05-04T08:57:30.124Z</time></trkpt><trkpt lat="40.9709233" lon="14.3085917"><ele>23.166666666666668</ele><time>2026-05-04T08:57:31.121Z</time></trkpt><trkpt lat="40.9709967" lon="14.308635"><ele>23.333333333333336</ele><time>2026-05-04T08:57:32.123Z</time></trkpt><trkpt lat="40.9710667" lon="14.30868"><ele>23.5</ele><time>2026-05-04T08:57:33.118Z</time></trkpt><trkpt lat="40.9711333" lon="14.3087217"><ele>23.666666666666668</ele><time>2026-05-04T08:57:34.124Z</time></trkpt><trkpt lat="40.9712033" lon="14.3087667"><ele>23.833333333333332</ele><time>2026-05-04T08:57:35.123Z</time></trkpt><trkpt lat="40.9712733" lon="14.3088117"><ele>24.0</ele><time>2026-05-04T08:57:36.122Z</time></trkpt><trkpt lat="40.9713433" lon="14.308855"><ele>24.0</ele><time>2026-05-04T08:57:37.122Z</time></trkpt><trkpt lat="40.9714117" lon="14.3088983"><ele>24.0</ele><time>2026-05-04T08:57:38.121Z</time></trkpt><trkpt lat="40.97148" lon="14.3089417"><ele>24.0</ele><time>2026-05-04T08:57:39.123Z</time></trkpt><trkpt lat="40.9715517" lon="14.308985"><ele>24.0</ele><time>2026-05-04T08:57:40.123Z</time></trkpt><trkpt lat="40.9716217" lon="14.3090233"><ele>24.0</ele><time>2026-05-04T08:57:41.122Z</time></trkpt><trkpt lat="40.971695" lon="14.309065"><ele>24.0</ele><time>2026-05-04T08:57:42.123Z</time></trkpt><trkpt lat="40.9717683" lon="14.3091067"><ele>23.833333333333332</ele><time>2026-05-04T08:57:43.122Z</time></trkpt><trkpt lat="40.97184" lon="14.3091483"><ele>23.666666666666668</ele><time>2026-05-04T08:57:44.122Z</time></trkpt><trkpt lat="40.9719133" lon="14.309185"><ele>23.5</ele><time>2026-05-04T08:57:45.123Z</time></trkpt><trkpt lat="40.9719867" lon="14.3092233"><ele>23.333333333333336</ele><time>2026-05-04T08:57:46.12Z</time></trkpt><trkpt lat="40.9720617" lon="14.3092583"><ele>23.166666666666668</ele><time>2026-05-04T08:57:47.121Z</time></trkpt><trkpt lat="40.9721383" lon="14.30929"><ele>23.0</ele><time>2026-05-04T08:57:48.119Z</time></trkpt><trkpt lat="40.972215" lon="14.3093217"><ele>23.0</ele><time>2026-05-04T08:57:49.122Z</time></trkpt><trkpt lat="40.9722917" lon="14.3093533"><ele>23.0</ele><time>2026-05-04T08:57:50.12Z</time></trkpt><trkpt lat="40.9723683" lon="14.3093817"><ele>23.0</ele><time>2026-05-04T08:57:51.12Z</time></trkpt><trkpt lat="40.972445" lon="14.3094083"><ele>23.0</ele><time>2026-05-04T08:57:52.121Z</time></trkpt><trkpt lat="40.97252" lon="14.3094283"><ele>23.0</ele><time>2026-05-04T08:57:53.123Z</time></trkpt><trkpt lat="40.9725967" lon="14.3094517"><ele>23.0</ele><time>2026-05-04T08:57:54.121Z</time></trkpt><trkpt lat="40.9726717" lon="14.3094833"><ele>22.833333333333336</ele><time>2026-05-04T08:57:55.121Z</time></trkpt><trkpt lat="40.9727467" lon="14.309515"><ele>22.666666666666668</ele><time>2026-05-04T08:57:56.121Z</time></trkpt><trkpt lat="40.9728217" lon="14.3095467"><ele>22.5</ele><time>2026-05-04T08:57:57.122Z</time></trkpt><trkpt lat="40.9728983" lon="14.3095733"><ele>22.333333333333332</ele><time>2026-05-04T08:57:58.121Z</time></trkpt><trkpt lat="40.9729733" lon="14.3096067"><ele>22.166666666666664</ele><time>2026-05-04T08:57:59.12Z</time></trkpt><trkpt lat="40.973045" lon="14.30964"><ele>22.0</ele><time>2026-05-04T08:58:00.121Z</time></trkpt><trkpt lat="40.9731167" lon="14.3096667"><ele>22.0</ele><time>2026-05-04T08:58:01.121Z</time></trkpt><trkpt lat="40.9731867" lon="14.3096967"><ele>22.0</ele><time>2026-05-04T08:58:02.121Z</time></trkpt><trkpt lat="40.9732583" lon="14.3097217"><ele>22.0</ele><time>2026-05-04T08:58:03.119Z</time></trkpt><trkpt lat="40.9733283" lon="14.3097433"><ele>22.0</ele><time>2026-05-04T08:58:04.121Z</time></trkpt><trkpt lat="40.9734033" lon="14.3097683"><ele>22.0</ele><time>2026-05-04T08:58:05.123Z</time></trkpt><trkpt lat="40.9734783" lon="14.309795"><ele>22.0</ele><time>2026-05-04T08:58:06.122Z</time></trkpt><trkpt lat="40.9735517" lon="14.3098233"><ele>22.0</ele><time>2026-05-04T08:58:07.121Z</time></trkpt><trkpt lat="40.9736167" lon="14.309845"><ele>22.0</ele><time>2026-05-04T08:58:08.121Z</time></trkpt><trkpt lat="40.9736833" lon="14.3098517"><ele>22.0</ele><time>2026-05-04T08:58:09.12Z</time></trkpt><trkpt lat="40.9737517" lon="14.30985"><ele>22.0</ele><time>2026-05-04T08:58:10.121Z</time></trkpt><trkpt lat="40.973825" lon="14.309855"><ele>22.0</ele><time>2026-05-04T08:58:11.12Z</time></trkpt><trkpt lat="40.973905" lon="14.3098567"><ele>22.0</ele><time>2026-05-04T08:58:12.122Z</time></trkpt><trkpt lat="40.9739817" lon="14.30986"><ele>22.0</ele><time>2026-05-04T08:58:13.122Z</time></trkpt><trkpt lat="40.97406" lon="14.3098633"><ele>22.0</ele><time>2026-05-04T08:58:14.123Z</time></trkpt><trkpt lat="40.97414" lon="14.3098683"><ele>22.0</ele><time>2026-05-04T08:58:15.122Z</time></trkpt><trkpt lat="40.9742183" lon="14.3098683"><ele>22.0</ele><time>2026-05-04T08:58:16.122Z</time></trkpt><trkpt lat="40.9742967" lon="14.3098683"><ele>22.0</ele><time>2026-05-04T08:58:17.124Z</time></trkpt><trkpt lat="40.9743767" lon="14.3098667"><ele>22.0</ele><time>2026-05-04T08:58:18.119Z</time></trkpt><trkpt lat="40.9744567" lon="14.3098633"><ele>22.0</ele><time>2026-05-04T08:58:19.123Z</time></trkpt><trkpt lat="40.9745333" lon="14.30986"><ele>22.0</ele><time>2026-05-04T08:58:20.122Z</time></trkpt><trkpt lat="40.9746083" lon="14.30987"><ele>22.0</ele><time>2026-05-04T08:58:21.121Z</time></trkpt><trkpt lat="40.9746817" lon="14.3098733"><ele>22.0</ele><time>2026-05-04T08:58:22.124Z</time></trkpt><trkpt lat="40.9747517" lon="14.30987"><ele>22.0</ele><time>2026-05-04T08:58:23.12Z</time></trkpt><trkpt lat="40.97482" lon="14.3098667"><ele>22.0</ele><time>2026-05-04T08:58:24.124Z</time></trkpt><trkpt lat="40.97489" lon="14.3098633"><ele>22.0</ele><time>2026-05-04T08:58:25.12Z</time></trkpt><trkpt lat="40.97496" lon="14.3098617"><ele>22.0</ele><time>2026-05-04T08:58:26.123Z</time></trkpt><trkpt lat="40.9750317" lon="14.3098717"><ele>22.0</ele><time>2026-05-04T08:58:27.122Z</time></trkpt><trkpt lat="40.9751067" lon="14.3098717"><ele>22.0</ele><time>2026-05-04T08:58:28.119Z</time></trkpt><trkpt lat="40.97518" lon="14.3098667"><ele>22.0</ele><time>2026-05-04T08:58:29.121Z</time></trkpt><trkpt lat="40.9752517" lon="14.30986"><ele>22.0</ele><time>2026-05-04T08:58:30.121Z</time></trkpt><trkpt lat="40.975325" lon="14.30985"><ele>22.0</ele><time>2026-05-04T08:58:31.121Z</time></trkpt><trkpt lat="40.975395" lon="14.3098383"><ele>22.0</ele><time>2026-05-04T08:58:32.122Z</time></trkpt><trkpt lat="40.9754667" lon="14.30982"><ele>22.0</ele><time>2026-05-04T08:58:33.122Z</time></trkpt><trkpt lat="40.9755383" lon="14.3097983"><ele>22.0</ele><time>2026-05-04T08:58:34.119Z</time></trkpt><trkpt lat="40.9756067" lon="14.309775"><ele>22.0</ele><time>2026-05-04T08:58:35.12Z</time></trkpt><trkpt lat="40.9756767" lon="14.3097517"><ele>22.0</ele><time>2026-05-04T08:58:36.121Z</time></trkpt><trkpt lat="40.9757417" lon="14.30972"><ele>22.0</ele><time>2026-05-04T08:58:37.121Z</time></trkpt><trkpt lat="40.97581" lon="14.309685"><ele>22.0</ele><time>2026-05-04T08:58:38.121Z</time></trkpt><trkpt lat="40.9758783" lon="14.3096433"><ele>22.0</ele><time>2026-05-04T08:58:39.121Z</time></trkpt><trkpt lat="40.9759467" lon="14.309605"><ele>22.0</ele><time>2026-05-04T08:58:40.12Z</time></trkpt><trkpt lat="40.9760117" lon="14.309565"><ele>22.0</ele><time>2026-05-04T08:58:41.121Z</time></trkpt><trkpt lat="40.9760783" lon="14.3095267"><ele>22.0</ele><time>2026-05-04T08:58:42.12Z</time></trkpt><trkpt lat="40.9761483" lon="14.30949"><ele>22.0</ele><time>2026-05-04T08:58:43.121Z</time></trkpt><trkpt lat="40.976215" lon="14.3094517"><ele>22.0</ele><time>2026-05-04T08:58:44.121Z</time></trkpt><trkpt lat="40.976285" lon="14.3094183"><ele>22.0</ele><time>2026-05-04T08:58:45.121Z</time></trkpt><trkpt lat="40.9763533" lon="14.3093833"><ele>22.0</ele><time>2026-05-04T08:58:46.119Z</time></trkpt><trkpt lat="40.9764217" lon="14.309345"><ele>22.0</ele><time>2026-05-04T08:58:47.121Z</time></trkpt><trkpt lat="40.9764917" lon="14.3093083"><ele>22.0</ele><time>2026-05-04T08:58:48.121Z</time></trkpt><trkpt lat="40.97656" lon="14.30927"><ele>22.0</ele><time>2026-05-04T08:58:49.12Z</time></trkpt><trkpt lat="40.9766267" lon="14.30923"><ele>22.0</ele><time>2026-05-04T08:58:50.121Z</time></trkpt><trkpt lat="40.976695" lon="14.30919"><ele>22.0</ele><time>2026-05-04T08:58:51.121Z</time></trkpt><trkpt lat="40.976765" lon="14.3091533"><ele>22.0</ele><time>2026-05-04T08:58:52.119Z</time></trkpt><trkpt lat="40.976835" lon="14.3091183"><ele>22.0</ele><time>2026-05-04T08:58:53.121Z</time></trkpt><trkpt lat="40.9769067" lon="14.309085"><ele>22.0</ele><time>2026-05-04T08:58:54.121Z</time></trkpt><trkpt lat="40.9769817" lon="14.3090567"><ele>21.666666666666664</ele><time>2026-05-04T08:58:55.12Z</time></trkpt><trkpt lat="40.9770567" lon="14.3090317"><ele>21.333333333333332</ele><time>2026-05-04T08:58:56.121Z</time></trkpt><trkpt lat="40.97713" lon="14.3090183"><ele>21.0</ele><time>2026-05-04T08:58:57.12Z</time></trkpt><trkpt lat="40.9772083" lon="14.3090133"><ele>20.666666666666668</ele><time>2026-05-04T08:58:58.121Z</time></trkpt><trkpt lat="40.9772883" lon="14.3090267"><ele>20.333333333333336</ele><time>2026-05-04T08:58:59.121Z</time></trkpt><trkpt lat="40.9773667" lon="14.3090483"><ele>20.0</ele><time>2026-05-04T08:59:00.122Z</time></trkpt><trkpt lat="40.9774383" lon="14.309085"><ele>20.0</ele><time>2026-05-04T08:59:01.121Z</time></trkpt><trkpt lat="40.9775067" lon="14.3091383"><ele>20.0</ele><time>2026-05-04T08:59:02.124Z</time></trkpt><trkpt lat="40.977575" lon="14.3092017"><ele>20.0</ele><time>2026-05-04T08:59:03.122Z</time></trkpt><trkpt lat="40.977635" lon="14.30927"><ele>20.0</ele><time>2026-05-04T08:59:04.121Z</time></trkpt><trkpt lat="40.9776917" lon="14.3093417"><ele>20.0</ele><time>2026-05-04T08:59:05.12Z</time></trkpt><trkpt lat="40.9777467" lon="14.309415"><ele>20.0</ele><time>2026-05-04T08:59:06.119Z</time></trkpt><trkpt lat="40.9778033" lon="14.3094883"><ele>20.0</ele><time>2026-05-04T08:59:07.121Z</time></trkpt><trkpt lat="40.97786" lon="14.3095633"><ele>20.0</ele><time>2026-05-04T08:59:08.122Z</time></trkpt><trkpt lat="40.9779183" lon="14.309635"><ele>20.0</ele><time>2026-05-04T08:59:09.121Z</time></trkpt><trkpt lat="40.9779783" lon="14.3097117"><ele>20.0</ele><time>2026-05-04T08:59:10.119Z</time></trkpt><trkpt lat="40.9780383" lon="14.3097833"><ele>20.0</ele><time>2026-05-04T08:59:11.121Z</time></trkpt><trkpt lat="40.9781" lon="14.3098517"><ele>20.0</ele><time>2026-05-04T08:59:12.12Z</time></trkpt><trkpt lat="40.9781617" lon="14.3099183"><ele>20.0</ele><time>2026-05-04T08:59:13.122Z</time></trkpt><trkpt lat="40.978225" lon="14.309985"><ele>20.0</ele><time>2026-05-04T08:59:14.121Z</time></trkpt><trkpt lat="40.97829" lon="14.3100467"><ele>20.0</ele><time>2026-05-04T08:59:15.12Z</time></trkpt><trkpt lat="40.9783533" lon="14.3101117"><ele>20.0</ele><time>2026-05-04T08:59:16.121Z</time></trkpt><trkpt lat="40.9784167" lon="14.3101817"><ele>20.0</ele><time>2026-05-04T08:59:17.121Z</time></trkpt><trkpt lat="40.9784817" lon="14.310245"><ele>20.0</ele><time>2026-05-04T08:59:18.122Z</time></trkpt><trkpt lat="40.9785467" lon="14.3103083"><ele>20.0</ele><time>2026-05-04T08:59:19.121Z</time></trkpt><trkpt lat="40.9786133" lon="14.310375"><ele>20.0</ele><time>2026-05-04T08:59:20.122Z</time></trkpt><trkpt lat="40.9786783" lon="14.3104433"><ele>20.0</ele><time>2026-05-04T08:59:21.122Z</time></trkpt><trkpt lat="40.9787417" lon="14.3105083"><ele>20.0</ele><time>2026-05-04T08:59:22.119Z</time></trkpt><trkpt lat="40.978805" lon="14.31057"><ele>20.0</ele><time>2026-05-04T08:59:23.124Z</time></trkpt><trkpt lat="40.9788683" lon="14.3106317"><ele>20.0</ele><time>2026-05-04T08:59:24.119Z</time></trkpt><trkpt lat="40.9789333" lon="14.3106917"><ele>20.166666666666668</ele><time>2026-05-04T08:59:25.12Z</time></trkpt><trkpt lat="40.9789967" lon="14.3107533"><ele>20.333333333333336</ele><time>2026-05-04T08:59:26.122Z</time></trkpt><trkpt lat="40.979065" lon="14.3108117"><ele>20.5</ele><time>2026-05-04T08:59:27.121Z</time></trkpt><trkpt lat="40.97913" lon="14.310875"><ele>20.666666666666668</ele><time>2026-05-04T08:59:28.12Z</time></trkpt><trkpt lat="40.979195" lon="14.3109383"><ele>20.833333333333332</ele><time>2026-05-04T08:59:29.12Z</time></trkpt><trkpt lat="40.9792633" lon="14.3109933"><ele>21.0</ele><time>2026-05-04T08:59:30.123Z</time></trkpt><trkpt lat="40.97933" lon="14.3110483"><ele>21.0</ele><time>2026-05-04T08:59:31.124Z</time></trkpt><trkpt lat="40.9793967" lon="14.311105"><ele>21.0</ele><time>2026-05-04T08:59:32.122Z</time></trkpt><trkpt lat="40.9794633" lon="14.3111583"><ele>21.0</ele><time>2026-05-04T08:59:33.122Z</time></trkpt><trkpt lat="40.9795283" lon="14.3112133"><ele>21.0</ele><time>2026-05-04T08:59:34.119Z</time></trkpt><trkpt lat="40.97959" lon="14.3112683"><ele>21.0</ele><time>2026-05-04T08:59:35.121Z</time></trkpt><trkpt lat="40.979655" lon="14.3113233"><ele>21.0</ele><time>2026-05-04T08:59:36.121Z</time></trkpt><trkpt lat="40.9797167" lon="14.31138"><ele>21.0</ele><time>2026-05-04T08:59:37.123Z</time></trkpt><trkpt lat="40.97978" lon="14.3114333"><ele>21.0</ele><time>2026-05-04T08:59:38.123Z</time></trkpt><trkpt lat="40.9798467" lon="14.3114883"><ele>21.0</ele><time>2026-05-04T08:59:39.119Z</time></trkpt><trkpt lat="40.9799133" lon="14.3115383"><ele>21.0</ele><time>2026-05-04T08:59:40.121Z</time></trkpt><trkpt lat="40.97998" lon="14.3115883"><ele>21.0</ele><time>2026-05-04T08:59:41.12Z</time></trkpt><trkpt lat="40.98005" lon="14.3116417"><ele>21.0</ele><time>2026-05-04T08:59:42.12Z</time></trkpt><trkpt lat="40.98012" lon="14.3116933"><ele>21.333333333333332</ele><time>2026-05-04T08:59:43.123Z</time></trkpt><trkpt lat="40.98019" lon="14.3117467"><ele>21.666666666666668</ele><time>2026-05-04T08:59:44.124Z</time></trkpt><trkpt lat="40.980265" lon="14.3117983"><ele>22.0</ele><time>2026-05-04T08:59:45.122Z</time></trkpt><trkpt lat="40.98034" lon="14.3118467"><ele>22.333333333333336</ele><time>2026-05-04T08:59:46.122Z</time></trkpt><trkpt lat="40.9804167" lon="14.3118917"><ele>22.666666666666668</ele><time>2026-05-04T08:59:47.12Z</time></trkpt><trkpt lat="40.9804917" lon="14.3119383"><ele>23.0</ele><time>2026-05-04T08:59:48.121Z</time></trkpt><trkpt lat="40.9805667" lon="14.31198"><ele>23.0</ele><time>2026-05-04T08:59:49.119Z</time></trkpt><trkpt lat="40.9806417" lon="14.3120183"><ele>23.0</ele><time>2026-05-04T08:59:50.123Z</time></trkpt><trkpt lat="40.980715" lon="14.31206"><ele>23.0</ele><time>2026-05-04T08:59:51.122Z</time></trkpt><trkpt lat="40.9807867" lon="14.3121033"><ele>23.0</ele><time>2026-05-04T08:59:52.122Z</time></trkpt><trkpt lat="40.9808567" lon="14.312145"><ele>23.0</ele><time>2026-05-04T08:59:53.122Z</time></trkpt><trkpt lat="40.9809267" lon="14.3121867"><ele>23.0</ele><time>2026-05-04T08:59:54.123Z</time></trkpt><trkpt lat="40.9809967" lon="14.3122283"><ele>22.666666666666668</ele><time>2026-05-04T08:59:55.122Z</time></trkpt><trkpt lat="40.98107" lon="14.3122733"><ele>22.333333333333336</ele><time>2026-05-04T08:59:56.121Z</time></trkpt><trkpt lat="40.9811467" lon="14.3123133"><ele>22.0</ele><time>2026-05-04T08:59:57.121Z</time></trkpt><trkpt lat="40.98122" lon="14.31235"><ele>21.666666666666668</ele><time>2026-05-04T08:59:58.12Z</time></trkpt><trkpt lat="40.9812967" lon="14.3123817"><ele>21.333333333333332</ele><time>2026-05-04T08:59:59.121Z</time></trkpt><trkpt lat="40.98137" lon="14.312415"><ele>21.0</ele><time>2026-05-04T09:00:00.124Z</time></trkpt><trkpt lat="40.9814467" lon="14.3124467"><ele>21.0</ele><time>2026-05-04T09:00:01.118Z</time></trkpt><trkpt lat="40.98152" lon="14.3124717"><ele>21.0</ele><time>2026-05-04T09:00:02.12Z</time></trkpt><trkpt lat="40.98159" lon="14.3124917"><ele>21.0</ele><time>2026-05-04T09:00:03.12Z</time></trkpt><trkpt lat="40.981665" lon="14.3125017"><ele>21.0</ele><time>2026-05-04T09:00:04.119Z</time></trkpt><trkpt lat="40.9817417" lon="14.31251"><ele>21.0</ele><time>2026-05-04T09:00:05.119Z</time></trkpt><trkpt lat="40.9818217" lon="14.3125117"><ele>21.0</ele><time>2026-05-04T09:00:06.12Z</time></trkpt><trkpt lat="40.9819017" lon="14.31251"><ele>20.833333333333332</ele><time>2026-05-04T09:00:07.121Z</time></trkpt><trkpt lat="40.98198" lon="14.3125067"><ele>20.666666666666668</ele><time>2026-05-04T09:00:08.119Z</time></trkpt><trkpt lat="40.98206" lon="14.3125033"><ele>20.5</ele><time>2026-05-04T09:00:09.121Z</time></trkpt><trkpt lat="40.98214" lon="14.3125033"><ele>20.333333333333336</ele><time>2026-05-04T09:00:10.12Z</time></trkpt><trkpt lat="40.98222" lon="14.3125033"><ele>20.166666666666668</ele><time>2026-05-04T09:00:11.123Z</time></trkpt><trkpt lat="40.9822983" lon="14.3125"><ele>20.0</ele><time>2026-05-04T09:00:12.122Z</time></trkpt><trkpt lat="40.982375" lon="14.3124933"><ele>20.0</ele><time>2026-05-04T09:00:13.123Z</time></trkpt><trkpt lat="40.9824567" lon="14.3124917"><ele>20.0</ele><time>2026-05-04T09:00:14.124Z</time></trkpt><trkpt lat="40.9825367" lon="14.31249"><ele>20.0</ele><time>2026-05-04T09:00:15.123Z</time></trkpt><trkpt lat="40.9826167" lon="14.31249"><ele>20.0</ele><time>2026-05-04T09:00:16.122Z</time></trkpt><trkpt lat="40.9826933" lon="14.31249"><ele>20.0</ele><time>2026-05-04T09:00:17.122Z</time></trkpt><trkpt lat="40.9827733" lon="14.3124917"><ele>20.0</ele><time>2026-05-04T09:00:18.122Z</time></trkpt><trkpt lat="40.9828533" lon="14.3124917"><ele>20.0</ele><time>2026-05-04T09:00:19.121Z</time></trkpt><trkpt lat="40.9829317" lon="14.31249"><ele>20.0</ele><time>2026-05-04T09:00:20.121Z</time></trkpt><trkpt lat="40.983005" lon="14.3124867"><ele>20.0</ele><time>2026-05-04T09:00:21.121Z</time></trkpt><trkpt lat="40.98308" lon="14.3124833"><ele>20.0</ele><time>2026-05-04T09:00:22.121Z</time></trkpt><trkpt lat="40.983155" lon="14.312475"><ele>20.0</ele><time>2026-05-04T09:00:23.121Z</time></trkpt><trkpt lat="40.9832283" lon="14.3124633"><ele>20.0</ele><time>2026-05-04T09:00:24.123Z</time></trkpt><trkpt lat="40.9832967" lon="14.3124417"><ele>20.0</ele><time>2026-05-04T09:00:25.121Z</time></trkpt><trkpt lat="40.983365" lon="14.312415"><ele>20.0</ele><time>2026-05-04T09:00:26.12Z</time></trkpt><trkpt lat="40.9834317" lon="14.312385"><ele>20.0</ele><time>2026-05-04T09:00:27.122Z</time></trkpt><trkpt lat="40.9834983" lon="14.3123517"><ele>20.0</ele><time>2026-05-04T09:00:28.121Z</time></trkpt><trkpt lat="40.983565" lon="14.3123167"><ele>20.0</ele><time>2026-05-04T09:00:29.122Z</time></trkpt><trkpt lat="40.9836333" lon="14.3122817"><ele>20.0</ele><time>2026-05-04T09:00:30.121Z</time></trkpt><trkpt lat="40.9837033" lon="14.312245"><ele>20.0</ele><time>2026-05-04T09:00:31.121Z</time></trkpt><trkpt lat="40.98377" lon="14.3122067"><ele>20.0</ele><time>2026-05-04T09:00:32.121Z</time></trkpt><trkpt lat="40.9838383" lon="14.31217"><ele>20.0</ele><time>2026-05-04T09:00:33.122Z</time></trkpt><trkpt lat="40.9839067" lon="14.312135"><ele>20.0</ele><time>2026-05-04T09:00:34.119Z</time></trkpt><trkpt lat="40.983975" lon="14.3121017"><ele>20.0</ele><time>2026-05-04T09:00:35.121Z</time></trkpt><trkpt lat="40.9840417" lon="14.3120667"><ele>20.0</ele><time>2026-05-04T09:00:36.12Z</time></trkpt><trkpt lat="40.98411" lon="14.3120317"><ele>20.0</ele><time>2026-05-04T09:00:37.122Z</time></trkpt><trkpt lat="40.9841783" lon="14.3119983"><ele>20.0</ele><time>2026-05-04T09:00:38.122Z</time></trkpt><trkpt lat="40.9842517" lon="14.3119633"><ele>20.0</ele><time>2026-05-04T09:00:39.12Z</time></trkpt><trkpt lat="40.9843217" lon="14.3119283"><ele>20.166666666666668</ele><time>2026-05-04T09:00:40.121Z</time></trkpt><trkpt lat="40.984395" lon="14.3118933"><ele>20.333333333333336</ele><time>2026-05-04T09:00:41.121Z</time></trkpt><trkpt lat="40.984465" lon="14.3118617"><ele>20.5</ele><time>2026-05-04T09:00:42.124Z</time></trkpt><trkpt lat="40.9845367" lon="14.3118283"><ele>20.666666666666668</ele><time>2026-05-04T09:00:43.12Z</time></trkpt><trkpt lat="40.9846067" lon="14.31179"><ele>20.833333333333332</ele><time>2026-05-04T09:00:44.121Z</time></trkpt><trkpt lat="40.984675" lon="14.3117517"><ele>21.0</ele><time>2026-05-04T09:00:45.124Z</time></trkpt><trkpt lat="40.984745" lon="14.3117183"><ele>21.0</ele><time>2026-05-04T09:00:46.122Z</time></trkpt><trkpt lat="40.9848133" lon="14.311685"><ele>21.0</ele><time>2026-05-04T09:00:47.121Z</time></trkpt><trkpt lat="40.98488" lon="14.3116467"><ele>21.0</ele><time>2026-05-04T09:00:48.122Z</time></trkpt><trkpt lat="40.9849517" lon="14.3116133"><ele>21.0</ele><time>2026-05-04T09:00:49.119Z</time></trkpt><trkpt lat="40.985025" lon="14.311585"><ele>21.0</ele><time>2026-05-04T09:00:50.122Z</time></trkpt><trkpt lat="40.9851017" lon="14.3115617"><ele>21.0</ele><time>2026-05-04T09:00:51.121Z</time></trkpt><trkpt lat="40.9851767" lon="14.3115433"><ele>20.833333333333332</ele><time>2026-05-04T09:00:52.121Z</time></trkpt><trkpt lat="40.9852533" lon="14.31153"><ele>20.666666666666668</ele><time>2026-05-04T09:00:53.119Z</time></trkpt><trkpt lat="40.9853317" lon="14.3115267"><ele>20.5</ele><time>2026-05-04T09:00:54.123Z</time></trkpt><trkpt lat="40.98541" lon="14.3115333"><ele>20.333333333333336</ele><time>2026-05-04T09:00:55.121Z</time></trkpt><trkpt lat="40.9854883" lon="14.3115433"><ele>20.166666666666668</ele><time>2026-05-04T09:00:56.121Z</time></trkpt><trkpt lat="40.985565" lon="14.3115517"><ele>20.0</ele><time>2026-05-04T09:00:57.121Z</time></trkpt><trkpt lat="40.98564" lon="14.311565"><ele>20.0</ele><time>2026-05-04T09:00:58.121Z</time></trkpt><trkpt lat="40.985715" lon="14.3115767"><ele>20.0</ele><time>2026-05-04T09:00:59.122Z</time></trkpt><trkpt lat="40.98579" lon="14.3115917"><ele>20.0</ele><time>2026-05-04T09:01:00.122Z</time></trkpt><trkpt lat="40.9858633" lon="14.3116083"><ele>20.0</ele><time>2026-05-04T09:01:01.12Z</time></trkpt><trkpt lat="40.985935" lon="14.3116217"><ele>20.0</ele><time>2026-05-04T09:01:02.123Z</time></trkpt><trkpt lat="40.9860067" lon="14.3116333"><ele>20.0</ele><time>2026-05-04T09:01:03.123Z</time></trkpt><trkpt lat="40.9860767" lon="14.3116433"><ele>20.0</ele><time>2026-05-04T09:01:04.122Z</time></trkpt><trkpt lat="40.9861467" lon="14.311655"><ele>20.0</ele><time>2026-05-04T09:01:05.122Z</time></trkpt><trkpt lat="40.9862167" lon="14.31167"><ele>20.0</ele><time>2026-05-04T09:01:06.123Z</time></trkpt><trkpt lat="40.9862833" lon="14.3116833"><ele>20.0</ele><time>2026-05-04T09:01:07.123Z</time></trkpt><trkpt lat="40.9863483" lon="14.311695"><ele>20.0</ele><time>2026-05-04T09:01:08.123Z</time></trkpt><trkpt lat="40.986415" lon="14.311705"><ele>20.0</ele><time>2026-05-04T09:01:09.123Z</time></trkpt><trkpt lat="40.986485" lon="14.3117167"><ele>20.0</ele><time>2026-05-04T09:01:10.122Z</time></trkpt><trkpt lat="40.9865533" lon="14.3117267"><ele>20.0</ele><time>2026-05-04T09:01:11.123Z</time></trkpt><trkpt lat="40.98662" lon="14.3117383"><ele>20.0</ele><time>2026-05-04T09:01:12.122Z</time></trkpt><trkpt lat="40.9866883" lon="14.3117517"><ele>20.0</ele><time>2026-05-04T09:01:13.123Z</time></trkpt><trkpt lat="40.986755" lon="14.3117633"><ele>20.0</ele><time>2026-05-04T09:01:14.122Z</time></trkpt><trkpt lat="40.9868217" lon="14.3117767"><ele>20.0</ele><time>2026-05-04T09:01:15.122Z</time></trkpt><trkpt lat="40.9868883" lon="14.311795"><ele>20.0</ele><time>2026-05-04T09:01:16.121Z</time></trkpt><trkpt lat="40.9869567" lon="14.3118167"><ele>20.0</ele><time>2026-05-04T09:01:17.119Z</time></trkpt><trkpt lat="40.9870217" lon="14.31185"><ele>20.0</ele><time>2026-05-04T09:01:18.121Z</time></trkpt><trkpt lat="40.9870883" lon="14.3118917"><ele>20.0</ele><time>2026-05-04T09:01:19.121Z</time></trkpt><trkpt lat="40.9871533" lon="14.3119367"><ele>20.0</ele><time>2026-05-04T09:01:20.123Z</time></trkpt><trkpt lat="40.9872183" lon="14.3119867"><ele>20.0</ele><time>2026-05-04T09:01:21.121Z</time></trkpt><trkpt lat="40.98728" lon="14.3120433"><ele>20.0</ele><time>2026-05-04T09:01:22.119Z</time></trkpt><trkpt lat="40.98734" lon="14.3121067"><ele>20.0</ele><time>2026-05-04T09:01:23.12Z</time></trkpt><trkpt lat="40.9873983" lon="14.3121683"><ele>20.0</ele><time>2026-05-04T09:01:24.123Z</time></trkpt><trkpt lat="40.9874567" lon="14.3122283"><ele>20.0</ele><time>2026-05-04T09:01:25.122Z</time></trkpt><trkpt lat="40.987515" lon="14.31229"><ele>19.857142857142858</ele><time>2026-05-04T09:01:26.12Z</time></trkpt><trkpt lat="40.987575" lon="14.3123517"><ele>19.714285714285715</ele><time>2026-05-04T09:01:27.122Z</time></trkpt><trkpt lat="40.987635" lon="14.31241"><ele>19.57142857142857</ele><time>2026-05-04T09:01:28.121Z</time></trkpt><trkpt lat="40.987695" lon="14.3124717"><ele>19.42857142857143</ele><time>2026-05-04T09:01:29.122Z</time></trkpt><trkpt lat="40.9877533" lon="14.31253"><ele>19.28571428571429</ele><time>2026-05-04T09:01:30.121Z</time></trkpt><trkpt lat="40.9878133" lon="14.31259"><ele>19.142857142857142</ele><time>2026-05-04T09:01:31.121Z</time></trkpt><trkpt lat="40.98787" lon="14.3126517"><ele>19.0</ele><time>2026-05-04T09:01:32.121Z</time></trkpt><trkpt lat="40.9879267" lon="14.3127167"><ele>19.0</ele><time>2026-05-04T09:01:33.123Z</time></trkpt><trkpt lat="40.9879867" lon="14.3127767"><ele>19.0</ele><time>2026-05-04T09:01:34.12Z</time></trkpt><trkpt lat="40.9880483" lon="14.3128317"><ele>19.0</ele><time>2026-05-04T09:01:35.122Z</time></trkpt><trkpt lat="40.9881083" lon="14.3128883"><ele>19.0</ele><time>2026-05-04T09:01:36.122Z</time></trkpt><trkpt lat="40.98817" lon="14.3129433"><ele>19.0</ele><time>2026-05-04T09:01:37.124Z</time></trkpt><trkpt lat="40.9882283" lon="14.3130033"><ele>19.0</ele><time>2026-05-04T09:01:38.121Z</time></trkpt><trkpt lat="40.9882883" lon="14.3130667"><ele>19.0</ele><time>2026-05-04T09:01:39.121Z</time></trkpt><trkpt lat="40.9883483" lon="14.3131283"><ele>19.333333333333332</ele><time>2026-05-04T09:01:40.121Z</time></trkpt><trkpt lat="40.9884083" lon="14.3131883"><ele>19.666666666666664</ele><time>2026-05-04T09:01:41.121Z</time></trkpt><trkpt lat="40.9884667" lon="14.3132483"><ele>20.0</ele><time>2026-05-04T09:01:42.122Z</time></trkpt><trkpt lat="40.9885267" lon="14.3133067"><ele>20.333333333333332</ele><time>2026-05-04T09:01:43.12Z</time></trkpt><trkpt lat="40.9885867" lon="14.313365"><ele>20.666666666666668</ele><time>2026-05-04T09:01:44.121Z</time></trkpt><trkpt lat="40.9886483" lon="14.3134233"><ele>21.0</ele><time>2026-05-04T09:01:45.121Z</time></trkpt><trkpt lat="40.9887083" lon="14.3134867"><ele>21.0</ele><time>2026-05-04T09:01:46.122Z</time></trkpt><trkpt lat="40.988765" lon="14.3135533"><ele>21.0</ele><time>2026-05-04T09:01:47.122Z</time></trkpt><trkpt lat="40.9888233" lon="14.313615"><ele>21.0</ele><time>2026-05-04T09:01:48.122Z</time></trkpt><trkpt lat="40.9888833" lon="14.3136767"><ele>21.0</ele><time>2026-05-04T09:01:49.122Z</time></trkpt><trkpt lat="40.988945" lon="14.3137383"><ele>21.0</ele><time>2026-05-04T09:01:50.12Z</time></trkpt><trkpt lat="40.9890067" lon="14.3138"><ele>21.0</ele><time>2026-05-04T09:01:51.122Z</time></trkpt><trkpt lat="40.989065" lon="14.3138633"><ele>21.0</ele><time>2026-05-04T09:01:52.119Z</time></trkpt><trkpt lat="40.9891233" lon="14.3139267"><ele>21.0</ele><time>2026-05-04T09:01:53.121Z</time></trkpt><trkpt lat="40.9891833" lon="14.313985"><ele>21.0</ele><time>2026-05-04T09:01:54.12Z</time></trkpt><trkpt lat="40.9892433" lon="14.3140433"><ele>21.0</ele><time>2026-05-04T09:01:55.121Z</time></trkpt><trkpt lat="40.9893" lon="14.3141033"><ele>21.0</ele><time>2026-05-04T09:01:56.12Z</time></trkpt><trkpt lat="40.98936" lon="14.3141633"><ele>21.0</ele><time>2026-05-04T09:01:57.12Z</time></trkpt><trkpt lat="40.9894167" lon="14.3142233"><ele>21.0</ele><time>2026-05-04T09:01:58.122Z</time></trkpt><trkpt lat="40.9894717" lon="14.3142867"><ele>21.0</ele><time>2026-05-04T09:01:59.118Z</time></trkpt><trkpt lat="40.98953" lon="14.3143483"><ele>21.0</ele><time>2026-05-04T09:02:00.122Z</time></trkpt><trkpt lat="40.9895917" lon="14.31441"><ele>21.0</ele><time>2026-05-04T09:02:01.121Z</time></trkpt><trkpt lat="40.9896517" lon="14.31447"><ele>21.0</ele><time>2026-05-04T09:02:02.122Z</time></trkpt><trkpt lat="40.9897117" lon="14.31453"><ele>21.0</ele><time>2026-05-04T09:02:03.122Z</time></trkpt><trkpt lat="40.9897733" lon="14.3145917"><ele>21.0</ele><time>2026-05-04T09:02:04.122Z</time></trkpt><trkpt lat="40.9898333" lon="14.3146533"><ele>21.0</ele><time>2026-05-04T09:02:05.121Z</time></trkpt><trkpt lat="40.989895" lon="14.3147183"><ele>21.0</ele><time>2026-05-04T09:02:06.121Z</time></trkpt><trkpt lat="40.9899583" lon="14.3147833"><ele>21.0</ele><time>2026-05-04T09:02:07.121Z</time></trkpt><trkpt lat="40.9900217" lon="14.3148467"><ele>21.0</ele><time>2026-05-04T09:02:08.122Z</time></trkpt><trkpt lat="40.9900883" lon="14.3149133"><ele>21.0</ele><time>2026-05-04T09:02:09.121Z</time></trkpt><trkpt lat="40.9901533" lon="14.3149767"><ele>21.0</ele><time>2026-05-04T09:02:10.119Z</time></trkpt><trkpt lat="40.9902167" lon="14.31504"><ele>20.833333333333332</ele><time>2026-05-04T09:02:11.121Z</time></trkpt><trkpt lat="40.990285" lon="14.3151033"><ele>20.666666666666668</ele><time>2026-05-04T09:02:12.122Z</time></trkpt><trkpt lat="40.99035" lon="14.3151633"><ele>20.5</ele><time>2026-05-04T09:02:13.121Z</time></trkpt><trkpt lat="40.9904167" lon="14.3152267"><ele>20.333333333333336</ele><time>2026-05-04T09:02:14.121Z</time></trkpt><trkpt lat="40.9904783" lon="14.3152883"><ele>20.166666666666668</ele><time>2026-05-04T09:02:15.12Z</time></trkpt><trkpt lat="40.9905383" lon="14.31535"><ele>20.0</ele><time>2026-05-04T09:02:16.118Z</time></trkpt><trkpt lat="40.99061" lon="14.3154217"><ele>20.0</ele><time>2026-05-04T09:02:17.12Z</time></trkpt><trkpt lat="40.9906733" lon="14.3154933"><ele>20.0</ele><time>2026-05-04T09:02:18.121Z</time></trkpt><trkpt lat="40.99073" lon="14.315565"><ele>20.0</ele><time>2026-05-04T09:02:19.119Z</time></trkpt><trkpt lat="40.9907817" lon="14.3156333"><ele>20.0</ele><time>2026-05-04T09:02:20.12Z</time></trkpt><trkpt lat="40.99083" lon="14.3157"><ele>20.0</ele><time>2026-05-04T09:02:21.12Z</time></trkpt><trkpt lat="40.990915" lon="14.3158067"><ele>20.0</ele><time>2026-05-04T09:02:23.121Z</time></trkpt><trkpt lat="40.9910033" lon="14.315905"><ele>19.8</ele><time>2026-05-04T09:02:25.119Z</time></trkpt><trkpt lat="40.9911" lon="14.316005"><ele>19.6</ele><time>2026-05-04T09:02:27.121Z</time></trkpt><trkpt lat="40.9912017" lon="14.3161067"><ele>19.4</ele><time>2026-05-04T09:02:29.121Z</time></trkpt><trkpt lat="40.9912533" lon="14.3161617"><ele>19.2</ele><time>2026-05-04T09:02:30.122Z</time></trkpt><trkpt lat="40.9913067" lon="14.3162167"><ele>19.0</ele><time>2026-05-04T09:02:31.12Z</time></trkpt><trkpt lat="40.9913617" lon="14.3162733"><ele>19.0</ele><time>2026-05-04T09:02:32.122Z</time></trkpt><trkpt lat="40.9914183" lon="14.31633"><ele>19.0</ele><time>2026-05-04T09:02:33.122Z</time></trkpt><trkpt lat="40.991475" lon="14.31638"><ele>19.0</ele><time>2026-05-04T09:02:34.121Z</time></trkpt><trkpt lat="40.9915283" lon="14.3164317"><ele>19.0</ele><time>2026-05-04T09:02:35.121Z</time></trkpt><trkpt lat="40.99158" lon="14.3164883"><ele>19.0</ele><time>2026-05-04T09:02:36.123Z</time></trkpt><trkpt lat="40.9916383" lon="14.3165467"><ele>19.0</ele><time>2026-05-04T09:02:37.12Z</time></trkpt><trkpt lat="40.9916983" lon="14.3166083"><ele>19.0</ele><time>2026-05-04T09:02:38.12Z</time></trkpt><trkpt lat="40.991755" lon="14.3166683"><ele>19.142857142857142</ele><time>2026-05-04T09:02:39.123Z</time></trkpt><trkpt lat="40.991815" lon="14.3167283"><ele>19.28571428571429</ele><time>2026-05-04T09:02:40.121Z</time></trkpt><trkpt lat="40.9918733" lon="14.3167867"><ele>19.42857142857143</ele><time>2026-05-04T09:02:41.122Z</time></trkpt><trkpt lat="40.9919317" lon="14.316845"><ele>19.57142857142857</ele><time>2026-05-04T09:02:42.123Z</time></trkpt><trkpt lat="40.99199" lon="14.3169017"><ele>19.714285714285715</ele><time>2026-05-04T09:02:43.12Z</time></trkpt><trkpt lat="40.9920467" lon="14.3169583"><ele>19.857142857142858</ele><time>2026-05-04T09:02:44.122Z</time></trkpt><trkpt lat="40.992105" lon="14.3170133"><ele>20.0</ele><time>2026-05-04T09:02:45.122Z</time></trkpt><trkpt lat="40.9921633" lon="14.3170683"><ele>20.0</ele><time>2026-05-04T09:02:46.123Z</time></trkpt><trkpt lat="40.9922267" lon="14.3171233"><ele>20.0</ele><time>2026-05-04T09:02:47.122Z</time></trkpt><trkpt lat="40.9922867" lon="14.3171783"><ele>20.0</ele><time>2026-05-04T09:02:48.12Z</time></trkpt><trkpt lat="40.99235" lon="14.3172333"><ele>20.0</ele><time>2026-05-04T09:02:49.122Z</time></trkpt><trkpt lat="40.99241" lon="14.3172867"><ele>20.0</ele><time>2026-05-04T09:02:50.123Z</time></trkpt><trkpt lat="40.99247" lon="14.3173417"><ele>20.0</ele><time>2026-05-04T09:02:51.122Z</time></trkpt><trkpt lat="40.9925283" lon="14.3173933"><ele>20.0</ele><time>2026-05-04T09:02:52.122Z</time></trkpt><trkpt lat="40.99259" lon="14.3174467"><ele>19.857142857142858</ele><time>2026-05-04T09:02:53.122Z</time></trkpt><trkpt lat="40.99265" lon="14.317495"><ele>19.714285714285715</ele><time>2026-05-04T09:02:54.122Z</time></trkpt><trkpt lat="40.99271" lon="14.3175433"><ele>19.57142857142857</ele><time>2026-05-04T09:02:55.12Z</time></trkpt><trkpt lat="40.9927667" lon="14.317585"><ele>19.42857142857143</ele><time>2026-05-04T09:02:56.12Z</time></trkpt><trkpt lat="40.9928283" lon="14.31762"><ele>19.28571428571429</ele><time>2026-05-04T09:02:57.12Z</time></trkpt><trkpt lat="40.9928917" lon="14.31765"><ele>19.142857142857142</ele><time>2026-05-04T09:02:58.12Z</time></trkpt><trkpt lat="40.9929567" lon="14.3176783"><ele>19.0</ele><time>2026-05-04T09:02:59.122Z</time></trkpt><trkpt lat="40.9930267" lon="14.3176983"><ele>19.0</ele><time>2026-05-04T09:03:00.122Z</time></trkpt><trkpt lat="40.9930967" lon="14.317715"><ele>19.0</ele><time>2026-05-04T09:03:01.123Z</time></trkpt><trkpt lat="40.99317" lon="14.3177283"><ele>19.0</ele><time>2026-05-04T09:03:02.12Z</time></trkpt><trkpt lat="40.9932417" lon="14.31774"><ele>19.0</ele><time>2026-05-04T09:03:03.121Z</time></trkpt><trkpt lat="40.99331" lon="14.3177467"><ele>19.0</ele><time>2026-05-04T09:03:04.123Z</time></trkpt><trkpt lat="40.9933817" lon="14.317755"><ele>19.0</ele><time>2026-05-04T09:03:05.119Z</time></trkpt><trkpt lat="40.9934533" lon="14.317765"><ele>19.0</ele><time>2026-05-04T09:03:06.122Z</time></trkpt><trkpt lat="40.9935283" lon="14.317775"><ele>19.0</ele><time>2026-05-04T09:03:07.119Z</time></trkpt><trkpt lat="40.9935967" lon="14.3177833"><ele>19.0</ele><time>2026-05-04T09:03:08.122Z</time></trkpt><trkpt lat="40.99367" lon="14.317795"><ele>19.0</ele><time>2026-05-04T09:03:09.121Z</time></trkpt><trkpt lat="40.9937433" lon="14.3178033"><ele>19.0</ele><time>2026-05-04T09:03:10.122Z</time></trkpt><trkpt lat="40.993815" lon="14.3178117"><ele>19.0</ele><time>2026-05-04T09:03:11.123Z</time></trkpt><trkpt lat="40.99389" lon="14.3178167"><ele>19.0</ele><time>2026-05-04T09:03:12.122Z</time></trkpt><trkpt lat="40.9939633" lon="14.3178233"><ele>19.0</ele><time>2026-05-04T09:03:13.122Z</time></trkpt><trkpt lat="40.9940367" lon="14.31783"><ele>19.0</ele><time>2026-05-04T09:03:14.123Z</time></trkpt><trkpt lat="40.9941067" lon="14.3178367"><ele>19.0</ele><time>2026-05-04T09:03:15.122Z</time></trkpt><trkpt lat="40.994175" lon="14.3178467"><ele>19.0</ele><time>2026-05-04T09:03:16.122Z</time></trkpt><trkpt lat="40.99425" lon="14.317855"><ele>19.0</ele><time>2026-05-04T09:03:17.122Z</time></trkpt><trkpt lat="40.9943233" lon="14.3178617"><ele>19.0</ele><time>2026-05-04T09:03:18.119Z</time></trkpt><trkpt lat="40.994395" lon="14.3178683"><ele>19.0</ele><time>2026-05-04T09:03:19.12Z</time></trkpt><trkpt lat="40.9944667" lon="14.317875"><ele>19.0</ele><time>2026-05-04T09:03:20.119Z</time></trkpt><trkpt lat="40.9945367" lon="14.3178817"><ele>19.0</ele><time>2026-05-04T09:03:21.119Z</time></trkpt><trkpt lat="40.9946067" lon="14.3178867"><ele>19.0</ele><time>2026-05-04T09:03:22.121Z</time></trkpt><trkpt lat="40.9946767" lon="14.317895"><ele>19.0</ele><time>2026-05-04T09:03:23.122Z</time></trkpt><trkpt lat="40.9947433" lon="14.3179017"><ele>19.0</ele><time>2026-05-04T09:03:24.12Z</time></trkpt><trkpt lat="40.9948117" lon="14.3179083"><ele>19.0</ele><time>2026-05-04T09:03:25.119Z</time></trkpt><trkpt lat="40.9948817" lon="14.317915"><ele>19.0</ele><time>2026-05-04T09:03:26.12Z</time></trkpt><trkpt lat="40.9949533" lon="14.3179233"><ele>19.0</ele><time>2026-05-04T09:03:27.12Z</time></trkpt><trkpt lat="40.995025" lon="14.3179283"><ele>19.0</ele><time>2026-05-04T09:03:28.12Z</time></trkpt><trkpt lat="40.9950933" lon="14.317935"><ele>19.0</ele><time>2026-05-04T09:03:29.12Z</time></trkpt><trkpt lat="40.99516" lon="14.317945"><ele>19.0</ele><time>2026-05-04T09:03:30.122Z</time></trkpt><trkpt lat="40.9952267" lon="14.3179533"><ele>19.0</ele><time>2026-05-04T09:03:31.12Z</time></trkpt><trkpt lat="40.995295" lon="14.31796"><ele>19.0</ele><time>2026-05-04T09:03:32.122Z</time></trkpt><trkpt lat="40.995365" lon="14.317965"><ele>19.0</ele><time>2026-05-04T09:03:33.121Z</time></trkpt><trkpt lat="40.9954317" lon="14.3179733"><ele>19.0</ele><time>2026-05-04T09:03:34.121Z</time></trkpt><trkpt lat="40.9955017" lon="14.3179833"><ele>19.0</ele><time>2026-05-04T09:03:35.12Z</time></trkpt><trkpt lat="40.9955667" lon="14.31799"><ele>19.0</ele><time>2026-05-04T09:03:36.123Z</time></trkpt><trkpt lat="40.9956317" lon="14.3179983"><ele>19.0</ele><time>2026-05-04T09:03:37.122Z</time></trkpt><trkpt lat="40.9957" lon="14.318005"><ele>19.0</ele><time>2026-05-04T09:03:38.124Z</time></trkpt><trkpt lat="40.9957683" lon="14.31801"><ele>19.0</ele><time>2026-05-04T09:03:39.122Z</time></trkpt><trkpt lat="40.9958367" lon="14.3180183"><ele>19.0</ele><time>2026-05-04T09:03:40.122Z</time></trkpt><trkpt lat="40.9959083" lon="14.3180283"><ele>19.0</ele><time>2026-05-04T09:03:41.119Z</time></trkpt><trkpt lat="40.99598" lon="14.3180367"><ele>19.142857142857142</ele><time>2026-05-04T09:03:42.123Z</time></trkpt><trkpt lat="40.9960533" lon="14.3180483"><ele>19.28571428571429</ele><time>2026-05-04T09:03:43.122Z</time></trkpt><trkpt lat="40.9961283" lon="14.3180567"><ele>19.42857142857143</ele><time>2026-05-04T09:03:44.122Z</time></trkpt><trkpt lat="40.9962017" lon="14.31807"><ele>19.57142857142857</ele><time>2026-05-04T09:03:45.123Z</time></trkpt><trkpt lat="40.9962733" lon="14.3180817"><ele>19.714285714285715</ele><time>2026-05-04T09:03:46.123Z</time></trkpt><trkpt lat="40.9963467" lon="14.3180867"><ele>19.857142857142858</ele><time>2026-05-04T09:03:47.118Z</time></trkpt><trkpt lat="40.99642" lon="14.3180933"><ele>20.0</ele><time>2026-05-04T09:03:48.12Z</time></trkpt><trkpt lat="40.9964933" lon="14.3181017"><ele>20.0</ele><time>2026-05-04T09:03:49.121Z</time></trkpt><trkpt lat="40.9965667" lon="14.3181067"><ele>20.0</ele><time>2026-05-04T09:03:50.12Z</time></trkpt><trkpt lat="40.9966417" lon="14.31811"><ele>20.0</ele><time>2026-05-04T09:03:51.119Z</time></trkpt><trkpt lat="40.9967167" lon="14.31812"><ele>20.0</ele><time>2026-05-04T09:03:52.119Z</time></trkpt><trkpt lat="40.99679" lon="14.3181283"><ele>20.0</ele><time>2026-05-04T09:03:53.121Z</time></trkpt><trkpt lat="40.996865" lon="14.3181367"><ele>20.0</ele><time>2026-05-04T09:03:54.12Z</time></trkpt><trkpt lat="40.9969383" lon="14.318145"><ele>20.0</ele><time>2026-05-04T09:03:55.12Z</time></trkpt><trkpt lat="40.9970133" lon="14.3181533"><ele>20.0</ele><time>2026-05-04T09:03:56.121Z</time></trkpt><trkpt lat="40.9970867" lon="14.3181617"><ele>20.0</ele><time>2026-05-04T09:03:57.12Z</time></trkpt><trkpt lat="40.9971633" lon="14.31817"><ele>20.0</ele><time>2026-05-04T09:03:58.12Z</time></trkpt><trkpt lat="40.9972367" lon="14.318175"><ele>20.0</ele><time>2026-05-04T09:03:59.122Z</time></trkpt><trkpt lat="40.9973117" lon="14.3181817"><ele>20.0</ele><time>2026-05-04T09:04:00.122Z</time></trkpt><trkpt lat="40.9973867" lon="14.3181867"><ele>20.0</ele><time>2026-05-04T09:04:01.122Z</time></trkpt><trkpt lat="40.99746" lon="14.3181967"><ele>20.0</ele><time>2026-05-04T09:04:02.122Z</time></trkpt><trkpt lat="40.997535" lon="14.3182083"><ele>20.0</ele><time>2026-05-04T09:04:03.123Z</time></trkpt><trkpt lat="40.99761" lon="14.3182183"><ele>20.0</ele><time>2026-05-04T09:04:04.122Z</time></trkpt><trkpt lat="40.997685" lon="14.3182283"><ele>20.0</ele><time>2026-05-04T09:04:05.121Z</time></trkpt><trkpt lat="40.9977567" lon="14.31824"><ele>20.0</ele><time>2026-05-04T09:04:06.118Z</time></trkpt><trkpt lat="40.9978283" lon="14.3182483"><ele>20.0</ele><time>2026-05-04T09:04:07.122Z</time></trkpt><trkpt lat="40.9979017" lon="14.3182567"><ele>20.0</ele><time>2026-05-04T09:04:08.122Z</time></trkpt><trkpt lat="40.9979733" lon="14.318265"><ele>20.0</ele><time>2026-05-04T09:04:09.119Z</time></trkpt><trkpt lat="40.9980467" lon="14.3182733"><ele>20.0</ele><time>2026-05-04T09:04:10.121Z</time></trkpt><trkpt lat="40.9981183" lon="14.3182817"><ele>20.0</ele><time>2026-05-04T09:04:11.122Z</time></trkpt><trkpt lat="40.9981917" lon="14.3182917"><ele>20.0</ele><time>2026-05-04T09:04:12.123Z</time></trkpt><trkpt lat="40.9982633" lon="14.3182967"><ele>20.0</ele><time>2026-05-04T09:04:13.122Z</time></trkpt><trkpt lat="40.998335" lon="14.3183033"><ele>20.0</ele><time>2026-05-04T09:04:14.119Z</time></trkpt><trkpt lat="40.9984067" lon="14.3183117"><ele>20.0</ele><time>2026-05-04T09:04:15.12Z</time></trkpt><trkpt lat="40.99848" lon="14.3183167"><ele>20.0</ele><time>2026-05-04T09:04:16.119Z</time></trkpt><trkpt lat="40.9985517" lon="14.3183183"><ele>20.166666666666668</ele><time>2026-05-04T09:04:17.122Z</time></trkpt><trkpt lat="40.998625" lon="14.3183233"><ele>20.333333333333336</ele><time>2026-05-04T09:04:18.12Z</time></trkpt><trkpt lat="40.9987" lon="14.3183283"><ele>20.5</ele><time>2026-05-04T09:04:19.12Z</time></trkpt><trkpt lat="40.998775" lon="14.318335"><ele>20.666666666666668</ele><time>2026-05-04T09:04:20.119Z</time></trkpt><trkpt lat="40.9988517" lon="14.31834"><ele>20.833333333333332</ele><time>2026-05-04T09:04:21.118Z</time></trkpt><trkpt lat="40.9989283" lon="14.3183483"><ele>21.0</ele><time>2026-05-04T09:04:22.121Z</time></trkpt><trkpt lat="40.9990067" lon="14.3183567"><ele>21.0</ele><time>2026-05-04T09:04:23.119Z</time></trkpt><trkpt lat="40.9990817" lon="14.31837"><ele>21.0</ele><time>2026-05-04T09:04:24.119Z</time></trkpt><trkpt lat="40.9991567" lon="14.3183817"><ele>21.0</ele><time>2026-05-04T09:04:25.12Z</time></trkpt><trkpt lat="40.9992317" lon="14.3183917"><ele>21.0</ele><time>2026-05-04T09:04:26.121Z</time></trkpt><trkpt lat="40.9993033" lon="14.3184017"><ele>21.0</ele><time>2026-05-04T09:04:27.121Z</time></trkpt><trkpt lat="40.999375" lon="14.31841"><ele>21.0</ele><time>2026-05-04T09:04:28.12Z</time></trkpt><trkpt lat="40.9994467" lon="14.31842"><ele>21.0</ele><time>2026-05-04T09:04:29.123Z</time></trkpt><trkpt lat="40.999515" lon="14.31843"><ele>21.0</ele><time>2026-05-04T09:04:30.119Z</time></trkpt><trkpt lat="40.999585" lon="14.3184367"><ele>21.0</ele><time>2026-05-04T09:04:31.12Z</time></trkpt><trkpt lat="40.9996533" lon="14.3184433"><ele>21.0</ele><time>2026-05-04T09:04:32.122Z</time></trkpt><trkpt lat="40.9997217" lon="14.3184483"><ele>21.0</ele><time>2026-05-04T09:04:33.119Z</time></trkpt><trkpt lat="40.9997867" lon="14.3184533"><ele>21.0</ele><time>2026-05-04T09:04:34.122Z</time></trkpt><trkpt lat="40.999855" lon="14.3184633"><ele>21.0</ele><time>2026-05-04T09:04:35.121Z</time></trkpt><trkpt lat="40.9999233" lon="14.31847"><ele>21.0</ele><time>2026-05-04T09:04:36.121Z</time></trkpt><trkpt lat="40.9999933" lon="14.3184783"><ele>21.0</ele><time>2026-05-04T09:04:37.122Z</time></trkpt><trkpt lat="41.000065" lon="14.318485"><ele>21.0</ele><time>2026-05-04T09:04:38.12Z</time></trkpt><trkpt lat="41.0001367" lon="14.3184917"><ele>21.0</ele><time>2026-05-04T09:04:39.12Z</time></trkpt><trkpt lat="41.000205" lon="14.3184967"><ele>21.0</ele><time>2026-05-04T09:04:40.122Z</time></trkpt><trkpt lat="41.0002767" lon="14.3185017"><ele>21.0</ele><time>2026-05-04T09:04:41.121Z</time></trkpt><trkpt lat="41.0003467" lon="14.3185083"><ele>21.0</ele><time>2026-05-04T09:04:42.121Z</time></trkpt><trkpt lat="41.0004117" lon="14.3185117"><ele>21.0</ele><time>2026-05-04T09:04:43.122Z</time></trkpt><trkpt lat="41.00048" lon="14.3185167"><ele>21.0</ele><time>2026-05-04T09:04:44.123Z</time></trkpt><trkpt lat="41.0005517" lon="14.3185233"><ele>21.0</ele><time>2026-05-04T09:04:45.12Z</time></trkpt><trkpt lat="41.0006217" lon="14.3185317"><ele>21.0</ele><time>2026-05-04T09:04:46.12Z</time></trkpt><trkpt lat="41.00069" lon="14.3185367"><ele>21.0</ele><time>2026-05-04T09:04:47.121Z</time></trkpt><trkpt lat="41.00076" lon="14.318545"><ele>21.0</ele><time>2026-05-04T09:04:48.121Z</time></trkpt><trkpt lat="41.0008317" lon="14.3185517"><ele>21.0</ele><time>2026-05-04T09:04:49.12Z</time></trkpt><trkpt lat="41.0009033" lon="14.3185583"><ele>21.0</ele><time>2026-05-04T09:04:50.121Z</time></trkpt><trkpt lat="41.000975" lon="14.3185667"><ele>21.0</ele><time>2026-05-04T09:04:51.12Z</time></trkpt><trkpt lat="41.0010467" lon="14.318575"><ele>21.0</ele><time>2026-05-04T09:04:52.12Z</time></trkpt><trkpt lat="41.0011217" lon="14.3185917"><ele>21.0</ele><time>2026-05-04T09:04:53.119Z</time></trkpt><trkpt lat="41.0011933" lon="14.3186117"><ele>21.0</ele><time>2026-05-04T09:04:54.12Z</time></trkpt><trkpt lat="41.0012617" lon="14.3186467"><ele>21.0</ele><time>2026-05-04T09:04:55.119Z</time></trkpt><trkpt lat="41.001325" lon="14.3186883"><ele>21.0</ele><time>2026-05-04T09:04:56.122Z</time></trkpt><trkpt lat="41.0013867" lon="14.3187367"><ele>21.0</ele><time>2026-05-04T09:04:57.12Z</time></trkpt><trkpt lat="41.0014417" lon="14.3187933"><ele>21.0</ele><time>2026-05-04T09:04:58.12Z</time></trkpt><trkpt lat="41.001495" lon="14.3188583"><ele>21.0</ele><time>2026-05-04T09:04:59.121Z</time></trkpt><trkpt lat="41.0015467" lon="14.3189283"><ele>21.0</ele><time>2026-05-04T09:05:00.121Z</time></trkpt><trkpt lat="41.0015983" lon="14.3189983"><ele>21.0</ele><time>2026-05-04T09:05:01.12Z</time></trkpt><trkpt lat="41.00165" lon="14.3190667"><ele>21.0</ele><time>2026-05-04T09:05:02.121Z</time></trkpt><trkpt lat="41.0017083" lon="14.319115"><ele>21.0</ele><time>2026-05-04T09:05:03.122Z</time></trkpt><trkpt lat="41.001775" lon="14.3191333"><ele>21.0</ele><time>2026-05-04T09:05:04.122Z</time></trkpt><trkpt lat="41.0018433" lon="14.319125"><ele>21.0</ele><time>2026-05-04T09:05:05.12Z</time></trkpt><trkpt lat="41.0019067" lon="14.319095"><ele>21.0</ele><time>2026-05-04T09:05:06.119Z</time></trkpt><trkpt lat="41.0019633" lon="14.319045"><ele>21.0</ele><time>2026-05-04T09:05:07.118Z</time></trkpt><trkpt lat="41.002015" lon="14.318985"><ele>21.0</ele><time>2026-05-04T09:05:08.12Z</time></trkpt><trkpt lat="41.0020667" lon="14.31892"><ele>21.0</ele><time>2026-05-04T09:05:09.12Z</time></trkpt><trkpt lat="41.0021233" lon="14.3188633"><ele>21.0</ele><time>2026-05-04T09:05:10.119Z</time></trkpt><trkpt lat="41.0021867" lon="14.318815"><ele>21.0</ele><time>2026-05-04T09:05:11.12Z</time></trkpt><trkpt lat="41.0022533" lon="14.3187783"><ele>21.0</ele><time>2026-05-04T09:05:12.12Z</time></trkpt><trkpt lat="41.0023217" lon="14.318755"><ele>21.0</ele><time>2026-05-04T09:05:13.12Z</time></trkpt><trkpt lat="41.0023883" lon="14.3187417"><ele>21.0</ele><time>2026-05-04T09:05:14.12Z</time></trkpt><trkpt lat="41.0024583" lon="14.318735"><ele>21.0</ele><time>2026-05-04T09:05:15.119Z</time></trkpt><trkpt lat="41.0025267" lon="14.318735"><ele>21.0</ele><time>2026-05-04T09:05:16.121Z</time></trkpt><trkpt lat="41.0025933" lon="14.3187417"><ele>21.0</ele><time>2026-05-04T09:05:17.12Z</time></trkpt><trkpt lat="41.0026617" lon="14.3187517"><ele>21.0</ele><time>2026-05-04T09:05:18.121Z</time></trkpt><trkpt lat="41.0027333" lon="14.318765"><ele>21.142857142857142</ele><time>2026-05-04T09:05:19.12Z</time></trkpt><trkpt lat="41.0028083" lon="14.318775"><ele>21.285714285714285</ele><time>2026-05-04T09:05:20.121Z</time></trkpt><trkpt lat="41.0028783" lon="14.3187867"><ele>21.42857142857143</ele><time>2026-05-04T09:05:21.12Z</time></trkpt><trkpt lat="41.00295" lon="14.3187967"><ele>21.57142857142857</ele><time>2026-05-04T09:05:22.121Z</time></trkpt><trkpt lat="41.0030217" lon="14.318805"><ele>21.714285714285715</ele><time>2026-05-04T09:05:23.121Z</time></trkpt><trkpt lat="41.0030917" lon="14.318815"><ele>21.857142857142858</ele><time>2026-05-04T09:05:24.123Z</time></trkpt><trkpt lat="41.0031633" lon="14.3188283"><ele>22.0</ele><time>2026-05-04T09:05:25.123Z</time></trkpt><trkpt lat="41.0032333" lon="14.3188417"><ele>22.0</ele><time>2026-05-04T09:05:26.12Z</time></trkpt><trkpt lat="41.0033033" lon="14.3188533"><ele>22.0</ele><time>2026-05-04T09:05:27.12Z</time></trkpt><trkpt lat="41.0033733" lon="14.3188617"><ele>22.0</ele><time>2026-05-04T09:05:28.121Z</time></trkpt><trkpt lat="41.0034467" lon="14.31887"><ele>22.0</ele><time>2026-05-04T09:05:29.122Z</time></trkpt><trkpt lat="41.00352" lon="14.3188833"><ele>22.0</ele><time>2026-05-04T09:05:30.122Z</time></trkpt><trkpt lat="41.0035933" lon="14.3188933"><ele>22.0</ele><time>2026-05-04T09:05:31.122Z</time></trkpt><trkpt lat="41.003665" lon="14.3189033"><ele>22.0</ele><time>2026-05-04T09:05:32.121Z</time></trkpt><trkpt lat="41.0037367" lon="14.3189117"><ele>22.142857142857142</ele><time>2026-05-04T09:05:33.123Z</time></trkpt><trkpt lat="41.00381" lon="14.31892"><ele>22.285714285714285</ele><time>2026-05-04T09:05:34.119Z</time></trkpt><trkpt lat="41.0038817" lon="14.3189283"><ele>22.42857142857143</ele><time>2026-05-04T09:05:35.121Z</time></trkpt><trkpt lat="41.0039517" lon="14.3189417"><ele>22.57142857142857</ele><time>2026-05-04T09:05:36.123Z</time></trkpt><trkpt lat="41.004025" lon="14.3189567"><ele>22.71428571428571</ele><time>2026-05-04T09:05:37.122Z</time></trkpt><trkpt lat="41.004095" lon="14.3189717"><ele>22.857142857142858</ele><time>2026-05-04T09:05:38.123Z</time></trkpt><trkpt lat="41.0041667" lon="14.318985"><ele>23.0</ele><time>2026-05-04T09:05:39.123Z</time></trkpt><trkpt lat="41.0042433" lon="14.3190017"><ele>23.0</ele><time>2026-05-04T09:05:40.118Z</time></trkpt><trkpt lat="41.004315" lon="14.319015"><ele>23.0</ele><time>2026-05-04T09:05:41.119Z</time></trkpt><trkpt lat="41.0043883" lon="14.3190333"><ele>23.0</ele><time>2026-05-04T09:05:42.124Z</time></trkpt><trkpt lat="41.00446" lon="14.319055"><ele>23.0</ele><time>2026-05-04T09:05:43.121Z</time></trkpt><trkpt lat="41.0045317" lon="14.3190733"><ele>23.0</ele><time>2026-05-04T09:05:44.122Z</time></trkpt><trkpt lat="41.0046017" lon="14.3190883"><ele>23.0</ele><time>2026-05-04T09:05:45.123Z</time></trkpt><trkpt lat="41.0046717" lon="14.3191067"><ele>23.0</ele><time>2026-05-04T09:05:46.123Z</time></trkpt><trkpt lat="41.0047433" lon="14.3191283"><ele>23.0</ele><time>2026-05-04T09:05:47.121Z</time></trkpt><trkpt lat="41.004815" lon="14.31915"><ele>23.0</ele><time>2026-05-04T09:05:48.121Z</time></trkpt><trkpt lat="41.0048867" lon="14.3191733"><ele>23.0</ele><time>2026-05-04T09:05:49.121Z</time></trkpt><trkpt lat="41.0049583" lon="14.3192"><ele>23.0</ele><time>2026-05-04T09:05:50.121Z</time></trkpt><trkpt lat="41.00503" lon="14.31923"><ele>23.0</ele><time>2026-05-04T09:05:51.119Z</time></trkpt><trkpt lat="41.0051017" lon="14.31926"><ele>23.0</ele><time>2026-05-04T09:05:52.12Z</time></trkpt><trkpt lat="41.0051767" lon="14.3192867"><ele>22.857142857142858</ele><time>2026-05-04T09:05:53.12Z</time></trkpt><trkpt lat="41.0052517" lon="14.319315"><ele>22.71428571428571</ele><time>2026-05-04T09:05:54.121Z</time></trkpt><trkpt lat="41.0053233" lon="14.319345"><ele>22.57142857142857</ele><time>2026-05-04T09:05:55.121Z</time></trkpt><trkpt lat="41.0053933" lon="14.3193767"><ele>22.42857142857143</ele><time>2026-05-04T09:05:56.123Z</time></trkpt><trkpt lat="41.00546" lon="14.3194117"><ele>22.285714285714285</ele><time>2026-05-04T09:05:57.121Z</time></trkpt><trkpt lat="41.0055267" lon="14.3194467"><ele>22.142857142857142</ele><time>2026-05-04T09:05:58.122Z</time></trkpt><trkpt lat="41.005595" lon="14.319485"><ele>22.0</ele><time>2026-05-04T09:05:59.12Z</time></trkpt><trkpt lat="41.0056667" lon="14.3195167"><ele>22.0</ele><time>2026-05-04T09:06:00.119Z</time></trkpt><trkpt lat="41.00574" lon="14.3195383"><ele>22.0</ele><time>2026-05-04T09:06:01.122Z</time></trkpt><trkpt lat="41.0058133" lon="14.31956"><ele>22.0</ele><time>2026-05-04T09:06:02.12Z</time></trkpt><trkpt lat="41.0058883" lon="14.3195817"><ele>22.0</ele><time>2026-05-04T09:06:03.119Z</time></trkpt><trkpt lat="41.0059633" lon="14.3196083"><ele>22.0</ele><time>2026-05-04T09:06:04.12Z</time></trkpt><trkpt lat="41.0060333" lon="14.31964"><ele>22.0</ele><time>2026-05-04T09:06:05.121Z</time></trkpt><trkpt lat="41.0061033" lon="14.3196617"><ele>21.857142857142858</ele><time>2026-05-04T09:06:06.119Z</time></trkpt><trkpt lat="41.0061717" lon="14.31968"><ele>21.714285714285715</ele><time>2026-05-04T09:06:07.12Z</time></trkpt><trkpt lat="41.0062417" lon="14.3197017"><ele>21.57142857142857</ele><time>2026-05-04T09:06:08.12Z</time></trkpt><trkpt lat="41.0063117" lon="14.319725"><ele>21.42857142857143</ele><time>2026-05-04T09:06:09.121Z</time></trkpt><trkpt lat="41.006385" lon="14.3197483"><ele>21.285714285714285</ele><time>2026-05-04T09:06:10.119Z</time></trkpt><trkpt lat="41.0064567" lon="14.3197733"><ele>21.142857142857142</ele><time>2026-05-04T09:06:11.123Z</time></trkpt><trkpt lat="41.0065267" lon="14.3197983"><ele>21.0</ele><time>2026-05-04T09:06:12.122Z</time></trkpt><trkpt lat="41.006595" lon="14.3198233"><ele>21.142857142857142</ele><time>2026-05-04T09:06:13.122Z</time></trkpt><trkpt lat="41.00666" lon="14.31985"><ele>21.285714285714285</ele><time>2026-05-04T09:06:14.119Z</time></trkpt><trkpt lat="41.0067267" lon="14.3198767"><ele>21.42857142857143</ele><time>2026-05-04T09:06:15.119Z</time></trkpt><trkpt lat="41.0068" lon="14.319905"><ele>21.57142857142857</ele><time>2026-05-04T09:06:16.122Z</time></trkpt><trkpt lat="41.0068717" lon="14.3199333"><ele>21.714285714285715</ele><time>2026-05-04T09:06:17.123Z</time></trkpt><trkpt lat="41.0069433" lon="14.3199583"><ele>21.857142857142858</ele><time>2026-05-04T09:06:18.122Z</time></trkpt><trkpt lat="41.007015" lon="14.3199867"><ele>22.0</ele><time>2026-05-04T09:06:19.121Z</time></trkpt><trkpt lat="41.0070883" lon="14.3200117"><ele>22.0</ele><time>2026-05-04T09:06:20.122Z</time></trkpt><trkpt lat="41.00716" lon="14.32004"><ele>22.0</ele><time>2026-05-04T09:06:21.121Z</time></trkpt><trkpt lat="41.0072333" lon="14.3200667"><ele>22.0</ele><time>2026-05-04T09:06:22.12Z</time></trkpt><trkpt lat="41.0073067" lon="14.32009"><ele>22.0</ele><time>2026-05-04T09:06:23.123Z</time></trkpt><trkpt lat="41.0073767" lon="14.320115"><ele>22.0</ele><time>2026-05-04T09:06:24.123Z</time></trkpt><trkpt lat="41.00745" lon="14.3201417"><ele>22.0</ele><time>2026-05-04T09:06:25.122Z</time></trkpt><trkpt lat="41.0075267" lon="14.3201683"><ele>21.833333333333332</ele><time>2026-05-04T09:06:26.124Z</time></trkpt><trkpt lat="41.0076033" lon="14.3201917"><ele>21.666666666666664</ele><time>2026-05-04T09:06:27.122Z</time></trkpt><trkpt lat="41.0076733" lon="14.3202133"><ele>21.5</ele><time>2026-05-04T09:06:28.119Z</time></trkpt><trkpt lat="41.007745" lon="14.320235"><ele>21.333333333333332</ele><time>2026-05-04T09:06:29.12Z</time></trkpt><trkpt lat="41.00782" lon="14.320265"><ele>21.166666666666668</ele><time>2026-05-04T09:06:30.124Z</time></trkpt><trkpt lat="41.0078917" lon="14.3202917"><ele>21.0</ele><time>2026-05-04T09:06:31.123Z</time></trkpt><trkpt lat="41.0079667" lon="14.32032"><ele>21.0</ele><time>2026-05-04T09:06:32.118Z</time></trkpt><trkpt lat="41.0080417" lon="14.3203467"><ele>21.0</ele><time>2026-05-04T09:06:33.119Z</time></trkpt><trkpt lat="41.0081167" lon="14.320375"><ele>21.0</ele><time>2026-05-04T09:06:34.118Z</time></trkpt><trkpt lat="41.0081917" lon="14.3204033"><ele>21.0</ele><time>2026-05-04T09:06:35.119Z</time></trkpt><trkpt lat="41.0082683" lon="14.3204333"><ele>21.0</ele><time>2026-05-04T09:06:36.122Z</time></trkpt><trkpt lat="41.0083433" lon="14.3204583"><ele>21.0</ele><time>2026-05-04T09:06:37.123Z</time></trkpt><trkpt lat="41.0084217" lon="14.3204883"><ele>20.833333333333332</ele><time>2026-05-04T09:06:38.121Z</time></trkpt><trkpt lat="41.0085017" lon="14.320515"><ele>20.666666666666668</ele><time>2026-05-04T09:06:39.121Z</time></trkpt><trkpt lat="41.0085767" lon="14.3205417"><ele>20.5</ele><time>2026-05-04T09:06:40.12Z</time></trkpt><trkpt lat="41.0086533" lon="14.3205667"><ele>20.333333333333336</ele><time>2026-05-04T09:06:41.123Z</time></trkpt><trkpt lat="41.0087317" lon="14.3205883"><ele>20.166666666666668</ele><time>2026-05-04T09:06:42.12Z</time></trkpt><trkpt lat="41.00881" lon="14.3206133"><ele>20.0</ele><time>2026-05-04T09:06:43.119Z</time></trkpt><trkpt lat="41.00889" lon="14.3206433"><ele>20.333333333333336</ele><time>2026-05-04T09:06:44.122Z</time></trkpt><trkpt lat="41.0089683" lon="14.3206733"><ele>20.666666666666668</ele><time>2026-05-04T09:06:45.119Z</time></trkpt><trkpt lat="41.00905" lon="14.3207033"><ele>21.0</ele><time>2026-05-04T09:06:46.119Z</time></trkpt><trkpt lat="41.0091283" lon="14.3207333"><ele>21.333333333333332</ele><time>2026-05-04T09:06:47.12Z</time></trkpt><trkpt lat="41.0092067" lon="14.3207617"><ele>21.666666666666664</ele><time>2026-05-04T09:06:48.122Z</time></trkpt><trkpt lat="41.009285" lon="14.3207883"><ele>22.0</ele><time>2026-05-04T09:06:49.12Z</time></trkpt><trkpt lat="41.0093583" lon="14.3208183"><ele>22.166666666666664</ele><time>2026-05-04T09:06:50.12Z</time></trkpt><trkpt lat="41.009435" lon="14.320845"><ele>22.333333333333332</ele><time>2026-05-04T09:06:51.123Z</time></trkpt><trkpt lat="41.009515" lon="14.3208733"><ele>22.5</ele><time>2026-05-04T09:06:52.119Z</time></trkpt><trkpt lat="41.0095933" lon="14.3208983"><ele>22.666666666666668</ele><time>2026-05-04T09:06:53.119Z</time></trkpt><trkpt lat="41.0096733" lon="14.3209217"><ele>22.833333333333336</ele><time>2026-05-04T09:06:54.122Z</time></trkpt><trkpt lat="41.0097533" lon="14.320945"><ele>23.0</ele><time>2026-05-04T09:06:55.119Z</time></trkpt><trkpt lat="41.00983" lon="14.3209683"><ele>23.0</ele><time>2026-05-04T09:06:56.123Z</time></trkpt><trkpt lat="41.0099083" lon="14.3209917"><ele>23.0</ele><time>2026-05-04T09:06:57.118Z</time></trkpt><trkpt lat="41.009985" lon="14.3210183"><ele>23.0</ele><time>2026-05-04T09:06:58.12Z</time></trkpt><trkpt lat="41.01006" lon="14.3210483"><ele>23.0</ele><time>2026-05-04T09:06:59.119Z</time></trkpt><trkpt lat="41.010135" lon="14.3210817"><ele>23.0</ele><time>2026-05-04T09:07:00.122Z</time></trkpt><trkpt lat="41.01021" lon="14.321115"><ele>23.0</ele><time>2026-05-04T09:07:01.121Z</time></trkpt><trkpt lat="41.010285" lon="14.321145"><ele>22.857142857142858</ele><time>2026-05-04T09:07:02.12Z</time></trkpt><trkpt lat="41.0103583" lon="14.3211733"><ele>22.71428571428571</ele><time>2026-05-04T09:07:03.121Z</time></trkpt><trkpt lat="41.0104283" lon="14.3212033"><ele>22.57142857142857</ele><time>2026-05-04T09:07:04.119Z</time></trkpt><trkpt lat="41.0104983" lon="14.3212317"><ele>22.42857142857143</ele><time>2026-05-04T09:07:05.119Z</time></trkpt><trkpt lat="41.0105683" lon="14.3212567"><ele>22.285714285714285</ele><time>2026-05-04T09:07:06.118Z</time></trkpt><trkpt lat="41.010635" lon="14.3212833"><ele>22.142857142857142</ele><time>2026-05-04T09:07:07.12Z</time></trkpt><trkpt lat="41.010705" lon="14.321305"><ele>22.0</ele><time>2026-05-04T09:07:08.118Z</time></trkpt><trkpt lat="41.0107717" lon="14.3213283"><ele>22.0</ele><time>2026-05-04T09:07:09.119Z</time></trkpt><trkpt lat="41.0108333" lon="14.3213583"><ele>22.0</ele><time>2026-05-04T09:07:10.118Z</time></trkpt><trkpt lat="41.0108967" lon="14.3213933"><ele>22.0</ele><time>2026-05-04T09:07:11.119Z</time></trkpt><trkpt lat="41.0109567" lon="14.321435"><ele>22.0</ele><time>2026-05-04T09:07:12.12Z</time></trkpt><trkpt lat="41.0110183" lon="14.321475"><ele>22.0</ele><time>2026-05-04T09:07:13.12Z</time></trkpt><trkpt lat="41.01108" lon="14.3215133"><ele>22.0</ele><time>2026-05-04T09:07:14.118Z</time></trkpt><trkpt lat="41.0111433" lon="14.32156"><ele>22.0</ele><time>2026-05-04T09:07:15.118Z</time></trkpt><trkpt lat="41.0112017" lon="14.3216067"><ele>22.142857142857142</ele><time>2026-05-04T09:07:16.12Z</time></trkpt><trkpt lat="41.01126" lon="14.3216533"><ele>22.285714285714285</ele><time>2026-05-04T09:07:17.122Z</time></trkpt><trkpt lat="41.011315" lon="14.3217033"><ele>22.42857142857143</ele><time>2026-05-04T09:07:18.121Z</time></trkpt><trkpt lat="41.0113683" lon="14.32175"><ele>22.57142857142857</ele><time>2026-05-04T09:07:19.119Z</time></trkpt><trkpt lat="41.01142" lon="14.3218"><ele>22.71428571428571</ele><time>2026-05-04T09:07:20.122Z</time></trkpt><trkpt lat="41.01147" lon="14.3218533"><ele>22.857142857142858</ele><time>2026-05-04T09:07:21.121Z</time></trkpt><trkpt lat="41.0115167" lon="14.32191"><ele>23.0</ele><time>2026-05-04T09:07:22.122Z</time></trkpt><trkpt lat="41.0115633" lon="14.3219667"><ele>23.0</ele><time>2026-05-04T09:07:23.123Z</time></trkpt><trkpt lat="41.0116567" lon="14.32208"><ele>23.0</ele><time>2026-05-04T09:07:25.118Z</time></trkpt><trkpt lat="41.0117517" lon="14.3221867"><ele>23.0</ele><time>2026-05-04T09:07:27.121Z</time></trkpt><trkpt lat="41.0118017" lon="14.3222433"><ele>23.0</ele><time>2026-05-04T09:07:28.119Z</time></trkpt><trkpt lat="41.0118967" lon="14.32235"><ele>23.0</ele><time>2026-05-04T09:07:30.12Z</time></trkpt><trkpt lat="41.0119467" lon="14.3224017"><ele>23.4</ele><time>2026-05-04T09:07:31.12Z</time></trkpt><trkpt lat="41.0119967" lon="14.3224583"><ele>23.799999999999997</ele><time>2026-05-04T09:07:32.122Z</time></trkpt><trkpt lat="41.0120433" lon="14.322515"><ele>24.2</ele><time>2026-05-04T09:07:33.121Z</time></trkpt><trkpt lat="41.0121367" lon="14.3226233"><ele>24.6</ele><time>2026-05-04T09:07:35.122Z</time></trkpt><trkpt lat="41.012225" lon="14.3227367"><ele>25.0</ele><time>2026-05-04T09:07:37.122Z</time></trkpt><trkpt lat="41.012315" lon="14.32285"><ele>25.000000000000004</ele><time>2026-05-04T09:07:39.122Z</time></trkpt><trkpt lat="41.0124117" lon="14.3229567"><ele>25.0</ele><time>2026-05-04T09:07:41.122Z</time></trkpt><trkpt lat="41.0124617" lon="14.323015"><ele>25.0</ele><time>2026-05-04T09:07:42.12Z</time></trkpt><trkpt lat="41.0125117" lon="14.32307"><ele>25.0</ele><time>2026-05-04T09:07:43.122Z</time></trkpt><trkpt lat="41.0125617" lon="14.3231267"><ele>25.000000000000004</ele><time>2026-05-04T09:07:44.121Z</time></trkpt><trkpt lat="41.0126117" lon="14.3231833"><ele>25.0</ele><time>2026-05-04T09:07:45.12Z</time></trkpt><trkpt lat="41.0126633" lon="14.3232433"><ele>25.142857142857146</ele><time>2026-05-04T09:07:46.12Z</time></trkpt><trkpt lat="41.012715" lon="14.323305"><ele>25.285714285714285</ele><time>2026-05-04T09:07:47.119Z</time></trkpt><trkpt lat="41.0127667" lon="14.323365"><ele>25.42857142857143</ele><time>2026-05-04T09:07:48.121Z</time></trkpt><trkpt lat="41.0128167" lon="14.3234233"><ele>25.571428571428573</ele><time>2026-05-04T09:07:49.119Z</time></trkpt><trkpt lat="41.0128667" lon="14.3234767"><ele>25.714285714285715</ele><time>2026-05-04T09:07:50.12Z</time></trkpt><trkpt lat="41.012915" lon="14.3235333"><ele>25.857142857142858</ele><time>2026-05-04T09:07:51.12Z</time></trkpt><trkpt lat="41.0129683" lon="14.3235917"><ele>26.0</ele><time>2026-05-04T09:07:52.119Z</time></trkpt><trkpt lat="41.0130217" lon="14.3236483"><ele>26.0</ele><time>2026-05-04T09:07:53.119Z</time></trkpt><trkpt lat="41.0130783" lon="14.3237083"><ele>26.0</ele><time>2026-05-04T09:07:54.12Z</time></trkpt><trkpt lat="41.013135" lon="14.3237683"><ele>26.0</ele><time>2026-05-04T09:07:55.121Z</time></trkpt><trkpt lat="41.0131883" lon="14.3238333"><ele>26.0</ele><time>2026-05-04T09:07:56.121Z</time></trkpt><trkpt lat="41.0132367" lon="14.3239017"><ele>26.0</ele><time>2026-05-04T09:07:57.121Z</time></trkpt><trkpt lat="41.013285" lon="14.3239717"><ele>26.0</ele><time>2026-05-04T09:07:58.123Z</time></trkpt><trkpt lat="41.0133283" lon="14.324035"><ele>26.0</ele><time>2026-05-04T09:07:59.122Z</time></trkpt><trkpt lat="41.0133767" lon="14.3241017"><ele>25.857142857142858</ele><time>2026-05-04T09:08:00.12Z</time></trkpt><trkpt lat="41.0134167" lon="14.3241733"><ele>25.714285714285715</ele><time>2026-05-04T09:08:01.12Z</time></trkpt><trkpt lat="41.013455" lon="14.3242467"><ele>25.571428571428573</ele><time>2026-05-04T09:08:02.121Z</time></trkpt><trkpt lat="41.01349" lon="14.3243317"><ele>25.42857142857143</ele><time>2026-05-04T09:08:03.121Z</time></trkpt><trkpt lat="41.0135217" lon="14.3244167"><ele>25.285714285714285</ele><time>2026-05-04T09:08:04.12Z</time></trkpt><trkpt lat="41.01355" lon="14.324505"><ele>25.142857142857146</ele><time>2026-05-04T09:08:05.118Z</time></trkpt><trkpt lat="41.01358" lon="14.32459"><ele>25.0</ele><time>2026-05-04T09:08:06.12Z</time></trkpt><trkpt lat="41.01361" lon="14.324675"><ele>24.714285714285715</ele><time>2026-05-04T09:08:07.119Z</time></trkpt><trkpt lat="41.01364" lon="14.3247683"><ele>24.42857142857143</ele><time>2026-05-04T09:08:08.121Z</time></trkpt><trkpt lat="41.013665" lon="14.3248633"><ele>24.142857142857146</ele><time>2026-05-04T09:08:09.12Z</time></trkpt><trkpt lat="41.01369" lon="14.3249517"><ele>23.857142857142858</ele><time>2026-05-04T09:08:10.12Z</time></trkpt><trkpt lat="41.013715" lon="14.3250383"><ele>23.57142857142857</ele><time>2026-05-04T09:08:11.12Z</time></trkpt><trkpt lat="41.0137367" lon="14.3251217"><ele>23.28571428571429</ele><time>2026-05-04T09:08:12.12Z</time></trkpt><trkpt lat="41.0137633" lon="14.3252033"><ele>23.0</ele><time>2026-05-04T09:08:13.12Z</time></trkpt><trkpt lat="41.0137917" lon="14.3252833"><ele>23.0</ele><time>2026-05-04T09:08:14.121Z</time></trkpt><trkpt lat="41.0138217" lon="14.325365"><ele>23.0</ele><time>2026-05-04T09:08:15.12Z</time></trkpt><trkpt lat="41.01385" lon="14.3254467"><ele>23.0</ele><time>2026-05-04T09:08:16.12Z</time></trkpt><trkpt lat="41.013875" lon="14.32553"><ele>23.0</ele><time>2026-05-04T09:08:17.121Z</time></trkpt><trkpt lat="41.0138967" lon="14.32561"><ele>23.0</ele><time>2026-05-04T09:08:18.121Z</time></trkpt><trkpt lat="41.0139233" lon="14.3256933"><ele>23.0</ele><time>2026-05-04T09:08:19.121Z</time></trkpt><trkpt lat="41.013955" lon="14.32577"><ele>23.0</ele><time>2026-05-04T09:08:20.121Z</time></trkpt><trkpt lat="41.01399" lon="14.32585"><ele>23.0</ele><time>2026-05-04T09:08:21.12Z</time></trkpt><trkpt lat="41.01404" lon="14.325935"><ele>23.0</ele><time>2026-05-04T09:08:22.121Z</time></trkpt><trkpt lat="41.0140833" lon="14.3260167"><ele>23.0</ele><time>2026-05-04T09:08:23.121Z</time></trkpt><trkpt lat="41.0141433" lon="14.3261067"><ele>23.0</ele><time>2026-05-04T09:08:24.12Z</time></trkpt><trkpt lat="41.0141833" lon="14.3261917"><ele>23.0</ele><time>2026-05-04T09:08:25.12Z</time></trkpt><trkpt lat="41.0142333" lon="14.326275"><ele>23.0</ele><time>2026-05-04T09:08:26.121Z</time></trkpt><trkpt lat="41.01428" lon="14.3263533"><ele>23.0</ele><time>2026-05-04T09:08:27.121Z</time></trkpt><trkpt lat="41.014325" lon="14.3264333"><ele>23.0</ele><time>2026-05-04T09:08:28.121Z</time></trkpt><trkpt lat="41.014385" lon="14.326515"><ele>23.0</ele><time>2026-05-04T09:08:29.123Z</time></trkpt><trkpt lat="41.014445" lon="14.32659"><ele>23.0</ele><time>2026-05-04T09:08:30.119Z</time></trkpt><trkpt lat="41.0145083" lon="14.3266683"><ele>23.0</ele><time>2026-05-04T09:08:31.123Z</time></trkpt><trkpt lat="41.0145733" lon="14.3267383"><ele>23.0</ele><time>2026-05-04T09:08:32.123Z</time></trkpt><trkpt lat="41.0146467" lon="14.3268067"><ele>23.0</ele><time>2026-05-04T09:08:33.123Z</time></trkpt><trkpt lat="41.0147217" lon="14.3268667"><ele>23.0</ele><time>2026-05-04T09:08:34.122Z</time></trkpt><trkpt lat="41.0148" lon="14.3269217"><ele>23.0</ele><time>2026-05-04T09:08:35.122Z</time></trkpt><trkpt lat="41.0148767" lon="14.3269717"><ele>23.0</ele><time>2026-05-04T09:08:36.12Z</time></trkpt><trkpt lat="41.0149483" lon="14.327025"><ele>23.0</ele><time>2026-05-04T09:08:37.12Z</time></trkpt><trkpt lat="41.0150233" lon="14.327075"><ele>23.0</ele><time>2026-05-04T09:08:38.121Z</time></trkpt><trkpt lat="41.0150983" lon="14.3271217"><ele>23.0</ele><time>2026-05-04T09:08:39.12Z</time></trkpt><trkpt lat="41.015175" lon="14.32717"><ele>23.0</ele><time>2026-05-04T09:08:40.12Z</time></trkpt><trkpt lat="41.015255" lon="14.327215"><ele>23.0</ele><time>2026-05-04T09:08:41.121Z</time></trkpt><trkpt lat="41.0153367" lon="14.3272583"><ele>23.0</ele><time>2026-05-04T09:08:42.12Z</time></trkpt><trkpt lat="41.01542" lon="14.3272967"><ele>23.0</ele><time>2026-05-04T09:08:43.12Z</time></trkpt><trkpt lat="41.015505" lon="14.32733"><ele>23.0</ele><time>2026-05-04T09:08:44.121Z</time></trkpt><trkpt lat="41.0155917" lon="14.3273583"><ele>23.0</ele><time>2026-05-04T09:08:45.122Z</time></trkpt><trkpt lat="41.0156783" lon="14.327375"><ele>23.0</ele><time>2026-05-04T09:08:46.121Z</time></trkpt><trkpt lat="41.0157667" lon="14.3273867"><ele>23.0</ele><time>2026-05-04T09:08:47.12Z</time></trkpt><trkpt lat="41.0158567" lon="14.327395"><ele>23.0</ele><time>2026-05-04T09:08:48.12Z</time></trkpt><trkpt lat="41.0159417" lon="14.3274017"><ele>23.0</ele><time>2026-05-04T09:08:49.12Z</time></trkpt><trkpt lat="41.0160267" lon="14.3274083"><ele>23.0</ele><time>2026-05-04T09:08:50.122Z</time></trkpt><trkpt lat="41.0161117" lon="14.3274133"><ele>23.0</ele><time>2026-05-04T09:08:51.121Z</time></trkpt><trkpt lat="41.0161967" lon="14.327425"><ele>23.0</ele><time>2026-05-04T09:08:52.122Z</time></trkpt><trkpt lat="41.016285" lon="14.3274317"><ele>23.0</ele><time>2026-05-04T09:08:53.12Z</time></trkpt><trkpt lat="41.0163733" lon="14.3274317"><ele>23.0</ele><time>2026-05-04T09:08:54.121Z</time></trkpt><trkpt lat="41.0164617" lon="14.327425"><ele>23.0</ele><time>2026-05-04T09:08:55.121Z</time></trkpt><trkpt lat="41.0165483" lon="14.3274167"><ele>23.0</ele><time>2026-05-04T09:08:56.122Z</time></trkpt><trkpt lat="41.016635" lon="14.327405"><ele>23.0</ele><time>2026-05-04T09:08:57.12Z</time></trkpt><trkpt lat="41.01672" lon="14.3273933"><ele>23.0</ele><time>2026-05-04T09:08:58.12Z</time></trkpt><trkpt lat="41.0168033" lon="14.3273817"><ele>23.0</ele><time>2026-05-04T09:08:59.12Z</time></trkpt><trkpt lat="41.0168883" lon="14.3273683"><ele>23.0</ele><time>2026-05-04T09:09:00.122Z</time></trkpt><trkpt lat="41.0169717" lon="14.327355"><ele>23.0</ele><time>2026-05-04T09:09:01.119Z</time></trkpt><trkpt lat="41.0170533" lon="14.3273417"><ele>23.0</ele><time>2026-05-04T09:09:02.12Z</time></trkpt><trkpt lat="41.0171367" lon="14.3273283"><ele>23.0</ele><time>2026-05-04T09:09:03.119Z</time></trkpt><trkpt lat="41.017215" lon="14.3273183"><ele>23.0</ele><time>2026-05-04T09:09:04.121Z</time></trkpt><trkpt lat="41.0172933" lon="14.3273083"><ele>23.0</ele><time>2026-05-04T09:09:05.121Z</time></trkpt><trkpt lat="41.017375" lon="14.3272983"><ele>23.0</ele><time>2026-05-04T09:09:06.121Z</time></trkpt><trkpt lat="41.017455" lon="14.3272817"><ele>23.0</ele><time>2026-05-04T09:09:07.12Z</time></trkpt><trkpt lat="41.017535" lon="14.3272667"><ele>23.0</ele><time>2026-05-04T09:09:08.123Z</time></trkpt><trkpt lat="41.0176117" lon="14.3272517"><ele>23.0</ele><time>2026-05-04T09:09:09.119Z</time></trkpt><trkpt lat="41.0176917" lon="14.3272367"><ele>23.0</ele><time>2026-05-04T09:09:10.119Z</time></trkpt><trkpt lat="41.0177683" lon="14.3272233"><ele>23.0</ele><time>2026-05-04T09:09:11.12Z</time></trkpt><trkpt lat="41.0178433" lon="14.3272083"><ele>23.0</ele><time>2026-05-04T09:09:12.121Z</time></trkpt><trkpt lat="41.0179183" lon="14.3271917"><ele>23.0</ele><time>2026-05-04T09:09:13.12Z</time></trkpt><trkpt lat="41.0179983" lon="14.327175"><ele>23.0</ele><time>2026-05-04T09:09:14.122Z</time></trkpt><trkpt lat="41.0180733" lon="14.3271633"><ele>23.0</ele><time>2026-05-04T09:09:15.12Z</time></trkpt><trkpt lat="41.0181433" lon="14.3271533"><ele>23.0</ele><time>2026-05-04T09:09:16.122Z</time></trkpt><trkpt lat="41.0182133" lon="14.3271383"><ele>23.0</ele><time>2026-05-04T09:09:17.12Z</time></trkpt><trkpt lat="41.0182833" lon="14.3271217"><ele>23.0</ele><time>2026-05-04T09:09:18.12Z</time></trkpt><trkpt lat="41.0183533" lon="14.32711"><ele>23.0</ele><time>2026-05-04T09:09:19.119Z</time></trkpt><trkpt lat="41.0184267" lon="14.3271017"><ele>23.0</ele><time>2026-05-04T09:09:20.121Z</time></trkpt><trkpt lat="41.0184983" lon="14.3270933"><ele>23.0</ele><time>2026-05-04T09:09:21.121Z</time></trkpt><trkpt lat="41.018565" lon="14.327085"><ele>23.142857142857142</ele><time>2026-05-04T09:09:22.123Z</time></trkpt><trkpt lat="41.01863" lon="14.327075"><ele>23.285714285714285</ele><time>2026-05-04T09:09:23.12Z</time></trkpt><trkpt lat="41.0186967" lon="14.327065"><ele>23.428571428571427</ele><time>2026-05-04T09:09:24.122Z</time></trkpt><trkpt lat="41.018765" lon="14.327055"><ele>23.57142857142857</ele><time>2026-05-04T09:09:25.122Z</time></trkpt><trkpt lat="41.0188333" lon="14.327045"><ele>23.714285714285715</ele><time>2026-05-04T09:09:26.12Z</time></trkpt><trkpt lat="41.0189017" lon="14.327035"><ele>23.857142857142854</ele><time>2026-05-04T09:09:27.119Z</time></trkpt><trkpt lat="41.0189683" lon="14.327025"><ele>24.0</ele><time>2026-05-04T09:09:28.122Z</time></trkpt><trkpt lat="41.0190317" lon="14.327015"><ele>24.0</ele><time>2026-05-04T09:09:29.12Z</time></trkpt><trkpt lat="41.0190983" lon="14.3269983"><ele>24.0</ele><time>2026-05-04T09:09:30.123Z</time></trkpt><trkpt lat="41.0191633" lon="14.3269817"><ele>24.0</ele><time>2026-05-04T09:09:31.119Z</time></trkpt><trkpt lat="41.0192283" lon="14.3269617"><ele>24.0</ele><time>2026-05-04T09:09:32.12Z</time></trkpt><trkpt lat="41.0192933" lon="14.32694"><ele>24.0</ele><time>2026-05-04T09:09:33.119Z</time></trkpt><trkpt lat="41.0193567" lon="14.3269117"><ele>24.0</ele><time>2026-05-04T09:09:34.122Z</time></trkpt><trkpt lat="41.019475" lon="14.3268483"><ele>24.285714285714285</ele><time>2026-05-04T09:09:36.121Z</time></trkpt><trkpt lat="41.019535" lon="14.3268133"><ele>24.57142857142857</ele><time>2026-05-04T09:09:37.12Z</time></trkpt><trkpt lat="41.0195933" lon="14.326775"><ele>24.857142857142854</ele><time>2026-05-04T09:09:38.119Z</time></trkpt><trkpt lat="41.0196517" lon="14.3267367"><ele>25.142857142857142</ele><time>2026-05-04T09:09:39.121Z</time></trkpt><trkpt lat="41.0197117" lon="14.3266967"><ele>25.42857142857143</ele><time>2026-05-04T09:09:40.119Z</time></trkpt><trkpt lat="41.01977" lon="14.3266533"><ele>25.71428571428571</ele><time>2026-05-04T09:09:41.12Z</time></trkpt><trkpt lat="41.0198267" lon="14.3266083"><ele>26.0</ele><time>2026-05-04T09:09:42.122Z</time></trkpt><trkpt lat="41.0198833" lon="14.3265583"><ele>26.0</ele><time>2026-05-04T09:09:43.119Z</time></trkpt><trkpt lat="41.0199417" lon="14.3265067"><ele>26.0</ele><time>2026-05-04T09:09:44.121Z</time></trkpt><trkpt lat="41.019995" lon="14.32645"><ele>26.0</ele><time>2026-05-04T09:09:45.12Z</time></trkpt><trkpt lat="41.0200467" lon="14.3263933"><ele>26.0</ele><time>2026-05-04T09:09:46.12Z</time></trkpt><trkpt lat="41.0200967" lon="14.3263333"><ele>26.0</ele><time>2026-05-04T09:09:47.12Z</time></trkpt><trkpt lat="41.020145" lon="14.32627"><ele>26.0</ele><time>2026-05-04T09:09:48.122Z</time></trkpt><trkpt lat="41.0201917" lon="14.3262067"><ele>26.0</ele><time>2026-05-04T09:09:49.121Z</time></trkpt><trkpt lat="41.02024" lon="14.326145"><ele>26.142857142857142</ele><time>2026-05-04T09:09:50.12Z</time></trkpt><trkpt lat="41.02029" lon="14.32608"><ele>26.28571428571429</ele><time>2026-05-04T09:09:51.12Z</time></trkpt><trkpt lat="41.02034" lon="14.32602"><ele>26.42857142857143</ele><time>2026-05-04T09:09:52.122Z</time></trkpt><trkpt lat="41.02039" lon="14.3259583"><ele>26.57142857142857</ele><time>2026-05-04T09:09:53.121Z</time></trkpt><trkpt lat="41.0204417" lon="14.32589"><ele>26.714285714285715</ele><time>2026-05-04T09:09:54.121Z</time></trkpt><trkpt lat="41.0204967" lon="14.325825"><ele>26.857142857142858</ele><time>2026-05-04T09:09:55.121Z</time></trkpt><trkpt lat="41.02055" lon="14.3257617"><ele>27.0</ele><time>2026-05-04T09:09:56.121Z</time></trkpt><trkpt lat="41.0206017" lon="14.325695"><ele>27.0</ele><time>2026-05-04T09:09:57.12Z</time></trkpt><trkpt lat="41.02065" lon="14.3256267"><ele>27.0</ele><time>2026-05-04T09:09:58.12Z</time></trkpt><trkpt lat="41.0207017" lon="14.3255567"><ele>27.0</ele><time>2026-05-04T09:09:59.121Z</time></trkpt><trkpt lat="41.020755" lon="14.3254833"><ele>27.0</ele><time>2026-05-04T09:10:00.121Z</time></trkpt><trkpt lat="41.02081" lon="14.325415"><ele>27.0</ele><time>2026-05-04T09:10:01.122Z</time></trkpt><trkpt lat="41.0208667" lon="14.3253567"><ele>27.0</ele><time>2026-05-04T09:10:02.122Z</time></trkpt><trkpt lat="41.0209267" lon="14.3253033"><ele>27.0</ele><time>2026-05-04T09:10:03.122Z</time></trkpt><trkpt lat="41.02099" lon="14.32525"><ele>26.833333333333332</ele><time>2026-05-04T09:10:04.121Z</time></trkpt><trkpt lat="41.021055" lon="14.3251983"><ele>26.666666666666664</ele><time>2026-05-04T09:10:05.12Z</time></trkpt><trkpt lat="41.0211217" lon="14.32515"><ele>26.5</ele><time>2026-05-04T09:10:06.121Z</time></trkpt><trkpt lat="41.02119" lon="14.3251033"><ele>26.333333333333332</ele><time>2026-05-04T09:10:07.121Z</time></trkpt><trkpt lat="41.02126" lon="14.3250617"><ele>26.166666666666664</ele><time>2026-05-04T09:10:08.121Z</time></trkpt><trkpt lat="41.0213317" lon="14.3250317"><ele>26.0</ele><time>2026-05-04T09:10:09.122Z</time></trkpt><trkpt lat="41.0214067" lon="14.3250033"><ele>25.999999999999996</ele><time>2026-05-04T09:10:10.122Z</time></trkpt><trkpt lat="41.0214833" lon="14.3249817"><ele>26.0</ele><time>2026-05-04T09:10:11.121Z</time></trkpt><trkpt lat="41.0215583" lon="14.3249683"><ele>26.0</ele><time>2026-05-04T09:10:12.121Z</time></trkpt><trkpt lat="41.0216333" lon="14.32496"><ele>26.0</ele><time>2026-05-04T09:10:13.122Z</time></trkpt><trkpt lat="41.0217117" lon="14.3249583"><ele>25.999999999999996</ele><time>2026-05-04T09:10:14.124Z</time></trkpt><trkpt lat="41.0217867" lon="14.3249633"><ele>26.0</ele><time>2026-05-04T09:10:15.121Z</time></trkpt><trkpt lat="41.0218633" lon="14.3249667"><ele>26.142857142857142</ele><time>2026-05-04T09:10:16.122Z</time></trkpt><trkpt lat="41.02194" lon="14.32497"><ele>26.28571428571429</ele><time>2026-05-04T09:10:17.122Z</time></trkpt><trkpt lat="41.0220167" lon="14.3249717"><ele>26.42857142857143</ele><time>2026-05-04T09:10:18.119Z</time></trkpt><trkpt lat="41.0220883" lon="14.3249717"><ele>26.57142857142857</ele><time>2026-05-04T09:10:19.123Z</time></trkpt><trkpt lat="41.0221617" lon="14.3249733"><ele>26.714285714285715</ele><time>2026-05-04T09:10:20.122Z</time></trkpt><trkpt lat="41.0222317" lon="14.3249717"><ele>26.857142857142858</ele><time>2026-05-04T09:10:21.122Z</time></trkpt><trkpt lat="41.0223067" lon="14.3249667"><ele>27.0</ele><time>2026-05-04T09:10:22.121Z</time></trkpt><trkpt lat="41.0223817" lon="14.324965"><ele>27.0</ele><time>2026-05-04T09:10:23.12Z</time></trkpt><trkpt lat="41.022455" lon="14.32496"><ele>27.0</ele><time>2026-05-04T09:10:24.123Z</time></trkpt><trkpt lat="41.0225317" lon="14.3249583"><ele>27.0</ele><time>2026-05-04T09:10:25.122Z</time></trkpt><trkpt lat="41.0226083" lon="14.32496"><ele>27.0</ele><time>2026-05-04T09:10:26.12Z</time></trkpt><trkpt lat="41.0226833" lon="14.3249617"><ele>27.0</ele><time>2026-05-04T09:10:27.12Z</time></trkpt><trkpt lat="41.0227583" lon="14.3249617"><ele>27.0</ele><time>2026-05-04T09:10:28.12Z</time></trkpt><trkpt lat="41.02283" lon="14.3249617"><ele>27.0</ele><time>2026-05-04T09:10:29.122Z</time></trkpt><trkpt lat="41.0229033" lon="14.3249667"><ele>27.0</ele><time>2026-05-04T09:10:30.122Z</time></trkpt><trkpt lat="41.0229817" lon="14.3249667"><ele>27.0</ele><time>2026-05-04T09:10:31.12Z</time></trkpt><trkpt lat="41.0230617" lon="14.324965"><ele>27.0</ele><time>2026-05-04T09:10:32.122Z</time></trkpt><trkpt lat="41.0231433" lon="14.324965"><ele>27.0</ele><time>2026-05-04T09:10:33.122Z</time></trkpt><trkpt lat="41.023225" lon="14.324965"><ele>27.0</ele><time>2026-05-04T09:10:34.118Z</time></trkpt><trkpt lat="41.023305" lon="14.3249617"><ele>27.0</ele><time>2026-05-04T09:10:35.122Z</time></trkpt><trkpt lat="41.023385" lon="14.3249583"><ele>27.0</ele><time>2026-05-04T09:10:36.12Z</time></trkpt><trkpt lat="41.0234633" lon="14.3249567"><ele>27.0</ele><time>2026-05-04T09:10:37.12Z</time></trkpt><trkpt lat="41.02354" lon="14.3249583"><ele>27.0</ele><time>2026-05-04T09:10:38.121Z</time></trkpt><trkpt lat="41.02362" lon="14.3249567"><ele>27.0</ele><time>2026-05-04T09:10:39.12Z</time></trkpt><trkpt lat="41.0236967" lon="14.3249533"><ele>27.0</ele><time>2026-05-04T09:10:40.122Z</time></trkpt><trkpt lat="41.0237717" lon="14.3249517"><ele>27.0</ele><time>2026-05-04T09:10:41.12Z</time></trkpt><trkpt lat="41.0238483" lon="14.3249517"><ele>27.0</ele><time>2026-05-04T09:10:42.12Z</time></trkpt><trkpt lat="41.02392" lon="14.324955"><ele>27.0</ele><time>2026-05-04T09:10:43.122Z</time></trkpt><trkpt lat="41.0239917" lon="14.3249583"><ele>27.0</ele><time>2026-05-04T09:10:44.122Z</time></trkpt><trkpt lat="41.0240617" lon="14.3249617"><ele>27.0</ele><time>2026-05-04T09:10:45.119Z</time></trkpt><trkpt lat="41.0241333" lon="14.32496"><ele>27.0</ele><time>2026-05-04T09:10:46.122Z</time></trkpt><trkpt lat="41.0242017" lon="14.3249667"><ele>27.0</ele><time>2026-05-04T09:10:47.12Z</time></trkpt><trkpt lat="41.0243083" lon="14.3250067"><ele>26.8</ele><time>2026-05-04T09:10:49.122Z</time></trkpt><trkpt lat="41.024405" lon="14.3250417"><ele>26.6</ele><time>2026-05-04T09:10:51.121Z</time></trkpt><trkpt lat="41.0245117" lon="14.32504"><ele>26.400000000000002</ele><time>2026-05-04T09:10:53.123Z</time></trkpt><trkpt lat="41.0246233" lon="14.3250133"><ele>26.200000000000003</ele><time>2026-05-04T09:10:55.119Z</time></trkpt><trkpt lat="41.0247517" lon="14.324995"><ele>26.0</ele><time>2026-05-04T09:10:57.119Z</time></trkpt><trkpt lat="41.0248183" lon="14.3249883"><ele>26.0</ele><time>2026-05-04T09:10:58.121Z</time></trkpt><trkpt lat="41.0248867" lon="14.324985"><ele>26.0</ele><time>2026-05-04T09:10:59.121Z</time></trkpt><trkpt lat="41.0249567" lon="14.32498"><ele>26.0</ele><time>2026-05-04T09:11:00.12Z</time></trkpt><trkpt lat="41.0250267" lon="14.324975"><ele>26.0</ele><time>2026-05-04T09:11:01.121Z</time></trkpt><trkpt lat="41.025095" lon="14.3249683"><ele>26.0</ele><time>2026-05-04T09:11:02.122Z</time></trkpt><trkpt lat="41.0251667" lon="14.32496"><ele>26.0</ele><time>2026-05-04T09:11:03.12Z</time></trkpt><trkpt lat="41.0252367" lon="14.3249567"><ele>26.0</ele><time>2026-05-04T09:11:04.12Z</time></trkpt><trkpt lat="41.0253067" lon="14.324955"><ele>26.285714285714285</ele><time>2026-05-04T09:11:05.121Z</time></trkpt><trkpt lat="41.0253767" lon="14.324955"><ele>26.571428571428573</ele><time>2026-05-04T09:11:06.122Z</time></trkpt><trkpt lat="41.0254467" lon="14.3249567"><ele>26.857142857142858</ele><time>2026-05-04T09:11:07.122Z</time></trkpt><trkpt lat="41.025515" lon="14.3249567"><ele>27.142857142857142</ele><time>2026-05-04T09:11:08.123Z</time></trkpt><trkpt lat="41.025585" lon="14.324955"><ele>27.42857142857143</ele><time>2026-05-04T09:11:09.12Z</time></trkpt><trkpt lat="41.025655" lon="14.3249517"><ele>27.714285714285715</ele><time>2026-05-04T09:11:10.123Z</time></trkpt><trkpt lat="41.0257233" lon="14.3249483"><ele>28.0</ele><time>2026-05-04T09:11:11.122Z</time></trkpt><trkpt lat="41.0257933" lon="14.324945"><ele>28.142857142857142</ele><time>2026-05-04T09:11:12.121Z</time></trkpt><trkpt lat="41.0258633" lon="14.3249417"><ele>28.285714285714285</ele><time>2026-05-04T09:11:13.121Z</time></trkpt><trkpt lat="41.0259333" lon="14.3249383"><ele>28.42857142857143</ele><time>2026-05-04T09:11:14.121Z</time></trkpt><trkpt lat="41.0260033" lon="14.3249383"><ele>28.571428571428573</ele><time>2026-05-04T09:11:15.121Z</time></trkpt><trkpt lat="41.026075" lon="14.3249367"><ele>28.714285714285715</ele><time>2026-05-04T09:11:16.12Z</time></trkpt><trkpt lat="41.0261433" lon="14.3249317"><ele>28.85714285714286</ele><time>2026-05-04T09:11:17.122Z</time></trkpt><trkpt lat="41.0262133" lon="14.3249267"><ele>29.000000000000004</ele><time>2026-05-04T09:11:18.121Z</time></trkpt><trkpt lat="41.0262833" lon="14.324925"><ele>29.000000000000004</ele><time>2026-05-04T09:11:19.119Z</time></trkpt><trkpt lat="41.0263517" lon="14.3249267"><ele>29.0</ele><time>2026-05-04T09:11:20.122Z</time></trkpt><trkpt lat="41.02642" lon="14.3249267"><ele>29.000000000000004</ele><time>2026-05-04T09:11:21.119Z</time></trkpt><trkpt lat="41.02649" lon="14.3249283"><ele>29.000000000000004</ele><time>2026-05-04T09:11:22.122Z</time></trkpt><trkpt lat="41.02656" lon="14.3249267"><ele>29.0</ele><time>2026-05-04T09:11:23.121Z</time></trkpt><trkpt lat="41.0266283" lon="14.324925"><ele>29.000000000000004</ele><time>2026-05-04T09:11:24.121Z</time></trkpt><trkpt lat="41.0267" lon="14.3249267"><ele>29.000000000000004</ele><time>2026-05-04T09:11:25.122Z</time></trkpt><trkpt lat="41.02677" lon="14.3249267"><ele>29.142857142857146</ele><time>2026-05-04T09:11:26.123Z</time></trkpt><trkpt lat="41.02684" lon="14.324925"><ele>29.285714285714285</ele><time>2026-05-04T09:11:27.121Z</time></trkpt><trkpt lat="41.0269067" lon="14.324925"><ele>29.42857142857143</ele><time>2026-05-04T09:11:28.122Z</time></trkpt><trkpt lat="41.0269733" lon="14.3249217"><ele>29.571428571428573</ele><time>2026-05-04T09:11:29.12Z</time></trkpt><trkpt lat="41.0270383" lon="14.3249183"><ele>29.714285714285715</ele><time>2026-05-04T09:11:30.121Z</time></trkpt><trkpt lat="41.027105" lon="14.3249167"><ele>29.857142857142858</ele><time>2026-05-04T09:11:31.122Z</time></trkpt><trkpt lat="41.027175" lon="14.3249117"><ele>30.0</ele><time>2026-05-04T09:11:32.123Z</time></trkpt><trkpt lat="41.0272467" lon="14.3249133"><ele>30.0</ele><time>2026-05-04T09:11:33.12Z</time></trkpt><trkpt lat="41.0273183" lon="14.3249167"><ele>30.0</ele><time>2026-05-04T09:11:34.12Z</time></trkpt><trkpt lat="41.02739" lon="14.32492"><ele>30.0</ele><time>2026-05-04T09:11:35.121Z</time></trkpt><trkpt lat="41.0274617" lon="14.324925"><ele>30.0</ele><time>2026-05-04T09:11:36.12Z</time></trkpt><trkpt lat="41.02753" lon="14.3249267"><ele>30.0</ele><time>2026-05-04T09:11:37.12Z</time></trkpt><trkpt lat="41.0276017" lon="14.3249283"><ele>30.0</ele><time>2026-05-04T09:11:38.122Z</time></trkpt><trkpt lat="41.02767" lon="14.32493"><ele>30.0</ele><time>2026-05-04T09:11:39.122Z</time></trkpt><trkpt lat="41.0277367" lon="14.324925"><ele>30.42857142857143</ele><time>2026-05-04T09:11:40.12Z</time></trkpt><trkpt lat="41.027805" lon="14.3249233"><ele>30.857142857142854</ele><time>2026-05-04T09:11:41.119Z</time></trkpt><trkpt lat="41.0278767" lon="14.3249217"><ele>31.285714285714285</ele><time>2026-05-04T09:11:42.123Z</time></trkpt><trkpt lat="41.0279483" lon="14.3249183"><ele>31.714285714285715</ele><time>2026-05-04T09:11:43.123Z</time></trkpt><trkpt lat="41.0280183" lon="14.324915"><ele>32.142857142857146</ele><time>2026-05-04T09:11:44.122Z</time></trkpt><trkpt lat="41.0280883" lon="14.3249117"><ele>32.57142857142857</ele><time>2026-05-04T09:11:45.12Z</time></trkpt><trkpt lat="41.028155" lon="14.3249083"><ele>33.0</ele><time>2026-05-04T09:11:46.12Z</time></trkpt><trkpt lat="41.0282217" lon="14.324905"><ele>33.0</ele><time>2026-05-04T09:11:47.122Z</time></trkpt><trkpt lat="41.02829" lon="14.3249083"><ele>33.0</ele><time>2026-05-04T09:11:48.12Z</time></trkpt><trkpt lat="41.0283567" lon="14.3249117"><ele>33.0</ele><time>2026-05-04T09:11:49.12Z</time></trkpt><trkpt lat="41.028425" lon="14.3249167"><ele>33.0</ele><time>2026-05-04T09:11:50.121Z</time></trkpt><trkpt lat="41.0284967" lon="14.32492"><ele>33.0</ele><time>2026-05-04T09:11:51.121Z</time></trkpt><trkpt lat="41.0285633" lon="14.3249233"><ele>33.0</ele><time>2026-05-04T09:11:52.12Z</time></trkpt><trkpt lat="41.0286267" lon="14.3249233"><ele>33.0</ele><time>2026-05-04T09:11:53.121Z</time></trkpt><trkpt lat="41.0287533" lon="14.324915"><ele>32.857142857142854</ele><time>2026-05-04T09:11:55.122Z</time></trkpt><trkpt lat="41.0288183" lon="14.3249117"><ele>32.714285714285715</ele><time>2026-05-04T09:11:56.121Z</time></trkpt><trkpt lat="41.028885" lon="14.32491"><ele>32.57142857142857</ele><time>2026-05-04T09:11:57.121Z</time></trkpt><trkpt lat="41.02895" lon="14.3249133"><ele>32.42857142857143</ele><time>2026-05-04T09:11:58.123Z</time></trkpt><trkpt lat="41.029015" lon="14.3249167"><ele>32.285714285714285</ele><time>2026-05-04T09:11:59.12Z</time></trkpt><trkpt lat="41.0290833" lon="14.3249183"><ele>32.14285714285714</ele><time>2026-05-04T09:12:00.121Z</time></trkpt><trkpt lat="41.0291517" lon="14.32492"><ele>32.0</ele><time>2026-05-04T09:12:01.12Z</time></trkpt><trkpt lat="41.0292183" lon="14.3249167"><ele>31.999999999999996</ele><time>2026-05-04T09:12:02.121Z</time></trkpt><trkpt lat="41.0292867" lon="14.3249167"><ele>32.0</ele><time>2026-05-04T09:12:03.12Z</time></trkpt><trkpt lat="41.0293517" lon="14.3249167"><ele>32.0</ele><time>2026-05-04T09:12:04.121Z</time></trkpt><trkpt lat="41.0294783" lon="14.3249117"><ele>32.0</ele><time>2026-05-04T09:12:06.121Z</time></trkpt><trkpt lat="41.029545" lon="14.324905"><ele>31.999999999999996</ele><time>2026-05-04T09:12:07.121Z</time></trkpt><trkpt lat="41.0296133" lon="14.324905"><ele>32.0</ele><time>2026-05-04T09:12:08.12Z</time></trkpt><trkpt lat="41.0296833" lon="14.3249067"><ele>32.0</ele><time>2026-05-04T09:12:09.12Z</time></trkpt><trkpt lat="41.02975" lon="14.3249033"><ele>31.999999999999996</ele><time>2026-05-04T09:12:10.119Z</time></trkpt><trkpt lat="41.0298167" lon="14.3249017"><ele>32.0</ele><time>2026-05-04T09:12:11.122Z</time></trkpt><trkpt lat="41.0298833" lon="14.3249"><ele>32.0</ele><time>2026-05-04T09:12:12.121Z</time></trkpt><trkpt lat="41.02995" lon="14.3248967"><ele>31.999999999999996</ele><time>2026-05-04T09:12:13.124Z</time></trkpt><trkpt lat="41.0300183" lon="14.324895"><ele>32.0</ele><time>2026-05-04T09:12:14.122Z</time></trkpt><trkpt lat="41.0300867" lon="14.3248933"><ele>32.0</ele><time>2026-05-04T09:12:15.12Z</time></trkpt><trkpt lat="41.030155" lon="14.3248933"><ele>31.857142857142854</ele><time>2026-05-04T09:12:16.119Z</time></trkpt><trkpt lat="41.0302217" lon="14.324895"><ele>31.71428571428571</ele><time>2026-05-04T09:12:17.121Z</time></trkpt><trkpt lat="41.0302883" lon="14.3248933"><ele>31.57142857142857</ele><time>2026-05-04T09:12:18.122Z</time></trkpt><trkpt lat="41.030355" lon="14.3248867"><ele>31.42857142857143</ele><time>2026-05-04T09:12:19.122Z</time></trkpt><trkpt lat="41.0304233" lon="14.3248833"><ele>31.28571428571429</ele><time>2026-05-04T09:12:20.121Z</time></trkpt><trkpt lat="41.03049" lon="14.324885"><ele>31.142857142857146</ele><time>2026-05-04T09:12:21.122Z</time></trkpt><trkpt lat="41.0305583" lon="14.3248867"><ele>31.0</ele><time>2026-05-04T09:12:22.12Z</time></trkpt><trkpt lat="41.030625" lon="14.324885"><ele>31.0</ele><time>2026-05-04T09:12:23.119Z</time></trkpt><trkpt lat="41.0306933" lon="14.3248817"><ele>31.000000000000004</ele><time>2026-05-04T09:12:24.12Z</time></trkpt><trkpt lat="41.0307633" lon="14.3248817"><ele>31.0</ele><time>2026-05-04T09:12:25.123Z</time></trkpt><trkpt lat="41.0308333" lon="14.32488"><ele>31.0</ele><time>2026-05-04T09:12:26.121Z</time></trkpt><trkpt lat="41.0309033" lon="14.3248783"><ele>31.000000000000004</ele><time>2026-05-04T09:12:27.121Z</time></trkpt><trkpt lat="41.030975" lon="14.3248767"><ele>31.0</ele><time>2026-05-04T09:12:28.123Z</time></trkpt><trkpt lat="41.031045" lon="14.3248783"><ele>31.0</ele><time>2026-05-04T09:12:29.122Z</time></trkpt><trkpt lat="41.031115" lon="14.3248783"><ele>31.142857142857146</ele><time>2026-05-04T09:12:30.12Z</time></trkpt><trkpt lat="41.0311833" lon="14.32488"><ele>31.28571428571429</ele><time>2026-05-04T09:12:31.12Z</time></trkpt><trkpt lat="41.0312533" lon="14.3248817"><ele>31.42857142857143</ele><time>2026-05-04T09:12:32.121Z</time></trkpt><trkpt lat="41.0313217" lon="14.32488"><ele>31.57142857142857</ele><time>2026-05-04T09:12:33.12Z</time></trkpt><trkpt lat="41.0313883" lon="14.3248767"><ele>31.71428571428571</ele><time>2026-05-04T09:12:34.118Z</time></trkpt><trkpt lat="41.0314517" lon="14.3248733"><ele>31.857142857142854</ele><time>2026-05-04T09:12:35.121Z</time></trkpt><trkpt lat="41.031515" lon="14.32487"><ele>32.0</ele><time>2026-05-04T09:12:36.121Z</time></trkpt><trkpt lat="41.0315817" lon="14.3248733"><ele>32.0</ele><time>2026-05-04T09:12:37.12Z</time></trkpt><trkpt lat="41.0316483" lon="14.3248817"><ele>31.999999999999996</ele><time>2026-05-04T09:12:38.12Z</time></trkpt><trkpt lat="41.031715" lon="14.3248917"><ele>32.0</ele><time>2026-05-04T09:12:39.121Z</time></trkpt><trkpt lat="41.0317833" lon="14.3249"><ele>32.0</ele><time>2026-05-04T09:12:40.121Z</time></trkpt><trkpt lat="41.0318517" lon="14.324905"><ele>31.999999999999996</ele><time>2026-05-04T09:12:41.12Z</time></trkpt><trkpt lat="41.03192" lon="14.3249067"><ele>32.0</ele><time>2026-05-04T09:12:42.121Z</time></trkpt><trkpt lat="41.031985" lon="14.3249067"><ele>32.0</ele><time>2026-05-04T09:12:43.121Z</time></trkpt><trkpt lat="41.0320517" lon="14.324905"><ele>32.0</ele><time>2026-05-04T09:12:44.124Z</time></trkpt><trkpt lat="41.0321183" lon="14.324905"><ele>31.999999999999996</ele><time>2026-05-04T09:12:45.121Z</time></trkpt><trkpt lat="41.032185" lon="14.3249"><ele>32.0</ele><time>2026-05-04T09:12:46.119Z</time></trkpt><trkpt lat="41.0322517" lon="14.3248983"><ele>32.0</ele><time>2026-05-04T09:12:47.122Z</time></trkpt><trkpt lat="41.0323183" lon="14.324895"><ele>31.999999999999996</ele><time>2026-05-04T09:12:48.12Z</time></trkpt><trkpt lat="41.032385" lon="14.32489"><ele>32.0</ele><time>2026-05-04T09:12:49.121Z</time></trkpt><trkpt lat="41.0324517" lon="14.3248867"><ele>32.0</ele><time>2026-05-04T09:12:50.121Z</time></trkpt><trkpt lat="41.0325233" lon="14.3248867"><ele>32.285714285714285</ele><time>2026-05-04T09:12:51.12Z</time></trkpt><trkpt lat="41.03259" lon="14.324885"><ele>32.57142857142857</ele><time>2026-05-04T09:12:52.12Z</time></trkpt><trkpt lat="41.0326567" lon="14.324885"><ele>32.857142857142854</ele><time>2026-05-04T09:12:53.123Z</time></trkpt><trkpt lat="41.0327283" lon="14.324885"><ele>33.14285714285714</ele><time>2026-05-04T09:12:54.122Z</time></trkpt><trkpt lat="41.0328017" lon="14.3248833"><ele>33.42857142857143</ele><time>2026-05-04T09:12:55.12Z</time></trkpt><trkpt lat="41.0328717" lon="14.3248817"><ele>33.71428571428571</ele><time>2026-05-04T09:12:56.12Z</time></trkpt><trkpt lat="41.0329417" lon="14.32488"><ele>34.0</ele><time>2026-05-04T09:12:57.122Z</time></trkpt><trkpt lat="41.03301" lon="14.32488"><ele>33.99999999999999</ele><time>2026-05-04T09:12:58.12Z</time></trkpt><trkpt lat="41.0330767" lon="14.3248783"><ele>34.0</ele><time>2026-05-04T09:12:59.121Z</time></trkpt><trkpt lat="41.0331433" lon="14.3248767"><ele>34.0</ele><time>2026-05-04T09:13:00.121Z</time></trkpt><trkpt lat="41.03321" lon="14.324875"><ele>34.0</ele><time>2026-05-04T09:13:01.122Z</time></trkpt><trkpt lat="41.0332783" lon="14.324875"><ele>34.0</ele><time>2026-05-04T09:13:02.123Z</time></trkpt><trkpt lat="41.0333433" lon="14.324875"><ele>33.99999999999999</ele><time>2026-05-04T09:13:03.12Z</time></trkpt><trkpt lat="41.0334133" lon="14.324875"><ele>34.0</ele><time>2026-05-04T09:13:04.121Z</time></trkpt><trkpt lat="41.0334817" lon="14.324875"><ele>34.14285714285714</ele><time>2026-05-04T09:13:05.122Z</time></trkpt><trkpt lat="41.0335483" lon="14.324875"><ele>34.285714285714285</ele><time>2026-05-04T09:13:06.122Z</time></trkpt><trkpt lat="41.0336183" lon="14.3248767"><ele>34.42857142857143</ele><time>2026-05-04T09:13:07.123Z</time></trkpt><trkpt lat="41.033685" lon="14.3248783"><ele>34.57142857142857</ele><time>2026-05-04T09:13:08.123Z</time></trkpt><trkpt lat="41.0337517" lon="14.324875"><ele>34.714285714285715</ele><time>2026-05-04T09:13:09.12Z</time></trkpt><trkpt lat="41.0338183" lon="14.3248717"><ele>34.857142857142854</ele><time>2026-05-04T09:13:10.122Z</time></trkpt><trkpt lat="41.0338833" lon="14.3248767"><ele>35.0</ele><time>2026-05-04T09:13:11.12Z</time></trkpt><trkpt lat="41.0339483" lon="14.324885"><ele>35.0</ele><time>2026-05-04T09:13:12.122Z</time></trkpt><trkpt lat="41.0340167" lon="14.3248933"><ele>35.0</ele><time>2026-05-04T09:13:13.12Z</time></trkpt><trkpt lat="41.034085" lon="14.3249"><ele>35.0</ele><time>2026-05-04T09:13:14.123Z</time></trkpt><trkpt lat="41.0341533" lon="14.3249083"><ele>35.0</ele><time>2026-05-04T09:13:15.119Z</time></trkpt><trkpt lat="41.0342233" lon="14.3249083"><ele>35.0</ele><time>2026-05-04T09:13:16.119Z</time></trkpt><trkpt lat="41.0342933" lon="14.324905"><ele>35.0</ele><time>2026-05-04T09:13:17.122Z</time></trkpt><trkpt lat="41.0343617" lon="14.3249"><ele>35.0</ele><time>2026-05-04T09:13:18.121Z</time></trkpt><trkpt lat="41.0344333" lon="14.3248967"><ele>35.142857142857146</ele><time>2026-05-04T09:13:19.12Z</time></trkpt><trkpt lat="41.0345017" lon="14.3248917"><ele>35.285714285714285</ele><time>2026-05-04T09:13:20.12Z</time></trkpt><trkpt lat="41.0345667" lon="14.3248817"><ele>35.42857142857143</ele><time>2026-05-04T09:13:21.119Z</time></trkpt><trkpt lat="41.0346367" lon="14.3248733"><ele>35.57142857142857</ele><time>2026-05-04T09:13:22.119Z</time></trkpt><trkpt lat="41.034705" lon="14.3248667"><ele>35.714285714285715</ele><time>2026-05-04T09:13:23.119Z</time></trkpt><trkpt lat="41.0347733" lon="14.3248617"><ele>35.85714285714286</ele><time>2026-05-04T09:13:24.12Z</time></trkpt><trkpt lat="41.034845" lon="14.3248617"><ele>36.0</ele><time>2026-05-04T09:13:25.121Z</time></trkpt><trkpt lat="41.03491" lon="14.3248567"><ele>36.00000000000001</ele><time>2026-05-04T09:13:26.121Z</time></trkpt><trkpt lat="41.0349783" lon="14.32485"><ele>36.0</ele><time>2026-05-04T09:13:27.12Z</time></trkpt><trkpt lat="41.0350433" lon="14.32485"><ele>36.0</ele><time>2026-05-04T09:13:28.119Z</time></trkpt><trkpt lat="41.0351083" lon="14.3248483"><ele>36.0</ele><time>2026-05-04T09:13:29.119Z</time></trkpt><trkpt lat="41.0351767" lon="14.3248517"><ele>36.0</ele><time>2026-05-04T09:13:30.121Z</time></trkpt><trkpt lat="41.0352417" lon="14.3248483"><ele>36.00000000000001</ele><time>2026-05-04T09:13:31.122Z</time></trkpt><trkpt lat="41.03531" lon="14.32485"><ele>36.0</ele><time>2026-05-04T09:13:32.122Z</time></trkpt><trkpt lat="41.0353767" lon="14.32485"><ele>36.00000000000001</ele><time>2026-05-04T09:13:33.119Z</time></trkpt><trkpt lat="41.0354417" lon="14.3248467"><ele>36.0</ele><time>2026-05-04T09:13:34.119Z</time></trkpt><trkpt lat="41.03551" lon="14.3248433"><ele>36.0</ele><time>2026-05-04T09:13:35.119Z</time></trkpt><trkpt lat="41.0355767" lon="14.3248417"><ele>36.0</ele><time>2026-05-04T09:13:36.12Z</time></trkpt><trkpt lat="41.0356417" lon="14.3248483"><ele>36.0</ele><time>2026-05-04T09:13:37.119Z</time></trkpt><trkpt lat="41.035705" lon="14.3248517"><ele>36.00000000000001</ele><time>2026-05-04T09:13:38.12Z</time></trkpt><trkpt lat="41.0357683" lon="14.3248483"><ele>36.0</ele><time>2026-05-04T09:13:39.119Z</time></trkpt><trkpt lat="41.0358317" lon="14.3248417"><ele>36.28571428571429</ele><time>2026-05-04T09:13:40.119Z</time></trkpt><trkpt lat="41.0359" lon="14.3248367"><ele>36.57142857142857</ele><time>2026-05-04T09:13:41.119Z</time></trkpt><trkpt lat="41.035965" lon="14.3248267"><ele>36.85714285714286</ele><time>2026-05-04T09:13:42.123Z</time></trkpt><trkpt lat="41.0360317" lon="14.3248167"><ele>37.142857142857146</ele><time>2026-05-04T09:13:43.121Z</time></trkpt><trkpt lat="41.0360983" lon="14.3248067"><ele>37.42857142857143</ele><time>2026-05-04T09:13:44.12Z</time></trkpt><trkpt lat="41.036165" lon="14.3247983"><ele>37.714285714285715</ele><time>2026-05-04T09:13:45.121Z</time></trkpt><trkpt lat="41.0362283" lon="14.324795"><ele>38.0</ele><time>2026-05-04T09:13:46.12Z</time></trkpt><trkpt lat="41.0362933" lon="14.3247933"><ele>38.0</ele><time>2026-05-04T09:13:47.121Z</time></trkpt><trkpt lat="41.03636" lon="14.32479"><ele>38.0</ele><time>2026-05-04T09:13:48.121Z</time></trkpt><trkpt lat="41.0364367" lon="14.324795"><ele>38.0</ele><time>2026-05-04T09:13:49.12Z</time></trkpt><trkpt lat="41.03652" lon="14.3247883"><ele>38.0</ele><time>2026-05-04T09:13:50.12Z</time></trkpt><trkpt lat="41.036605" lon="14.3247967"><ele>38.0</ele><time>2026-05-04T09:13:51.121Z</time></trkpt><trkpt lat="41.0366833" lon="14.324795"><ele>38.0</ele><time>2026-05-04T09:13:52.12Z</time></trkpt><trkpt lat="41.036755" lon="14.3248"><ele>38.285714285714285</ele><time>2026-05-04T09:13:53.122Z</time></trkpt><trkpt lat="41.0368283" lon="14.324805"><ele>38.57142857142858</ele><time>2026-05-04T09:13:54.122Z</time></trkpt><trkpt lat="41.0369033" lon="14.324805"><ele>38.85714285714286</ele><time>2026-05-04T09:13:55.12Z</time></trkpt><trkpt lat="41.0369767" lon="14.3248067"><ele>39.14285714285714</ele><time>2026-05-04T09:13:56.121Z</time></trkpt><trkpt lat="41.03705" lon="14.3248033"><ele>39.42857142857143</ele><time>2026-05-04T09:13:57.12Z</time></trkpt><trkpt lat="41.03712" lon="14.3247983"><ele>39.714285714285715</ele><time>2026-05-04T09:13:58.12Z</time></trkpt><trkpt lat="41.0371883" lon="14.3247983"><ele>40.0</ele><time>2026-05-04T09:13:59.12Z</time></trkpt><trkpt lat="41.0372567" lon="14.324805"><ele>40.0</ele><time>2026-05-04T09:14:00.122Z</time></trkpt><trkpt lat="41.0373267" lon="14.32481"><ele>40.0</ele><time>2026-05-04T09:14:01.12Z</time></trkpt><trkpt lat="41.037395" lon="14.32481"><ele>40.0</ele><time>2026-05-04T09:14:02.122Z</time></trkpt><trkpt lat="41.03747" lon="14.3248117"><ele>40.0</ele><time>2026-05-04T09:14:03.122Z</time></trkpt><trkpt lat="41.0375433" lon="14.3248117"><ele>40.0</ele><time>2026-05-04T09:14:04.12Z</time></trkpt><trkpt lat="41.037615" lon="14.3248117"><ele>40.0</ele><time>2026-05-04T09:14:05.121Z</time></trkpt><trkpt lat="41.0376867" lon="14.324815"><ele>40.0</ele><time>2026-05-04T09:14:06.123Z</time></trkpt><trkpt lat="41.0377567" lon="14.3248133"><ele>40.285714285714285</ele><time>2026-05-04T09:14:07.121Z</time></trkpt><trkpt lat="41.03783" lon="14.324815"><ele>40.57142857142857</ele><time>2026-05-04T09:14:08.121Z</time></trkpt><trkpt lat="41.0379017" lon="14.3248133"><ele>40.85714285714286</ele><time>2026-05-04T09:14:09.121Z</time></trkpt><trkpt lat="41.03797" lon="14.3248133"><ele>41.14285714285714</ele><time>2026-05-04T09:14:10.12Z</time></trkpt><trkpt lat="41.0380417" lon="14.3248167"><ele>41.42857142857143</ele><time>2026-05-04T09:14:11.121Z</time></trkpt><trkpt lat="41.038115" lon="14.3248133"><ele>41.714285714285715</ele><time>2026-05-04T09:14:12.123Z</time></trkpt><trkpt lat="41.0381883" lon="14.3248067"><ele>42.0</ele><time>2026-05-04T09:14:13.12Z</time></trkpt><trkpt lat="41.0382633" lon="14.3248067"><ele>41.714285714285715</ele><time>2026-05-04T09:14:14.121Z</time></trkpt><trkpt lat="41.03834" lon="14.324805"><ele>41.42857142857143</ele><time>2026-05-04T09:14:15.121Z</time></trkpt><trkpt lat="41.038415" lon="14.3248067"><ele>41.14285714285714</ele><time>2026-05-04T09:14:16.121Z</time></trkpt><trkpt lat="41.0384883" lon="14.324805"><ele>40.85714285714286</ele><time>2026-05-04T09:14:17.12Z</time></trkpt><trkpt lat="41.0385633" lon="14.324805"><ele>40.57142857142857</ele><time>2026-05-04T09:14:18.122Z</time></trkpt><trkpt lat="41.0386367" lon="14.3248017"><ele>40.285714285714285</ele><time>2026-05-04T09:14:19.121Z</time></trkpt><trkpt lat="41.0387083" lon="14.3247983"><ele>40.0</ele><time>2026-05-04T09:14:20.121Z</time></trkpt><trkpt lat="41.03878" lon="14.324795"><ele>40.0</ele><time>2026-05-04T09:14:21.122Z</time></trkpt><trkpt lat="41.0388567" lon="14.3247983"><ele>40.0</ele><time>2026-05-04T09:14:22.122Z</time></trkpt><trkpt lat="41.0389317" lon="14.3248"><ele>40.0</ele><time>2026-05-04T09:14:23.12Z</time></trkpt><trkpt lat="41.039005" lon="14.3248017"><ele>40.0</ele><time>2026-05-04T09:14:24.12Z</time></trkpt><trkpt lat="41.0390783" lon="14.3248033"><ele>40.0</ele><time>2026-05-04T09:14:25.121Z</time></trkpt><trkpt lat="41.0391533" lon="14.3248017"><ele>40.0</ele><time>2026-05-04T09:14:26.121Z</time></trkpt><trkpt lat="41.03923" lon="14.3248"><ele>39.833333333333336</ele><time>2026-05-04T09:14:27.121Z</time></trkpt><trkpt lat="41.0393067" lon="14.3248"><ele>39.66666666666667</ele><time>2026-05-04T09:14:28.12Z</time></trkpt><trkpt lat="41.0393817" lon="14.3247983"><ele>39.5</ele><time>2026-05-04T09:14:29.12Z</time></trkpt><trkpt lat="41.0394567" lon="14.3247967"><ele>39.333333333333336</ele><time>2026-05-04T09:14:30.122Z</time></trkpt><trkpt lat="41.0395317" lon="14.3247967"><ele>39.166666666666664</ele><time>2026-05-04T09:14:31.12Z</time></trkpt><trkpt lat="41.0396067" lon="14.3247983"><ele>39.0</ele><time>2026-05-04T09:14:32.123Z</time></trkpt><trkpt lat="41.0396817" lon="14.3247983"><ele>39.0</ele><time>2026-05-04T09:14:33.123Z</time></trkpt><trkpt lat="41.03976" lon="14.3247967"><ele>39.0</ele><time>2026-05-04T09:14:34.121Z</time></trkpt><trkpt lat="41.0398367" lon="14.32479"><ele>39.0</ele><time>2026-05-04T09:14:35.122Z</time></trkpt><trkpt lat="41.0399133" lon="14.32479"><ele>39.0</ele><time>2026-05-04T09:14:36.123Z</time></trkpt><trkpt lat="41.03999" lon="14.3247917"><ele>39.0</ele><time>2026-05-04T09:14:37.12Z</time></trkpt><trkpt lat="41.0400633" lon="14.324795"><ele>39.0</ele><time>2026-05-04T09:14:38.121Z</time></trkpt><trkpt lat="41.0401383" lon="14.3247967"><ele>39.0</ele><time>2026-05-04T09:14:39.121Z</time></trkpt><trkpt lat="41.0402133" lon="14.3247917"><ele>39.0</ele><time>2026-05-04T09:14:40.119Z</time></trkpt><trkpt lat="41.0402883" lon="14.3247867"><ele>39.0</ele><time>2026-05-04T09:14:41.121Z</time></trkpt><trkpt lat="41.0403633" lon="14.3247817"><ele>39.0</ele><time>2026-05-04T09:14:42.122Z</time></trkpt><trkpt lat="41.04044" lon="14.3247783"><ele>39.0</ele><time>2026-05-04T09:14:43.12Z</time></trkpt><trkpt lat="41.0405183" lon="14.32478"><ele>39.0</ele><time>2026-05-04T09:14:44.123Z</time></trkpt><trkpt lat="41.0405933" lon="14.324785"><ele>39.0</ele><time>2026-05-04T09:14:45.121Z</time></trkpt><trkpt lat="41.0406683" lon="14.324785"><ele>39.0</ele><time>2026-05-04T09:14:46.119Z</time></trkpt><trkpt lat="41.0407467" lon="14.3247917"><ele>39.0</ele><time>2026-05-04T09:14:47.12Z</time></trkpt><trkpt lat="41.0408217" lon="14.3247967"><ele>39.0</ele><time>2026-05-04T09:14:48.12Z</time></trkpt><trkpt lat="41.0408983" lon="14.3247967"><ele>39.0</ele><time>2026-05-04T09:14:49.119Z</time></trkpt><trkpt lat="41.0409733" lon="14.3247983"><ele>39.0</ele><time>2026-05-04T09:14:50.12Z</time></trkpt><trkpt lat="41.0410467" lon="14.3247967"><ele>39.142857142857146</ele><time>2026-05-04T09:14:51.12Z</time></trkpt><trkpt lat="41.0411217" lon="14.324795"><ele>39.285714285714285</ele><time>2026-05-04T09:14:52.119Z</time></trkpt><trkpt lat="41.0411967" lon="14.3247967"><ele>39.42857142857143</ele><time>2026-05-04T09:14:53.121Z</time></trkpt><trkpt lat="41.0412717" lon="14.3247983"><ele>39.57142857142857</ele><time>2026-05-04T09:14:54.119Z</time></trkpt><trkpt lat="41.0413433" lon="14.3247967"><ele>39.714285714285715</ele><time>2026-05-04T09:14:55.12Z</time></trkpt><trkpt lat="41.04142" lon="14.3247933"><ele>39.857142857142854</ele><time>2026-05-04T09:14:56.12Z</time></trkpt><trkpt lat="41.041495" lon="14.324785"><ele>40.0</ele><time>2026-05-04T09:14:57.12Z</time></trkpt><trkpt lat="41.0415733" lon="14.3247733"><ele>40.0</ele><time>2026-05-04T09:14:58.122Z</time></trkpt><trkpt lat="41.0416467" lon="14.324765"><ele>40.0</ele><time>2026-05-04T09:14:59.123Z</time></trkpt><trkpt lat="41.04172" lon="14.3247533"><ele>40.0</ele><time>2026-05-04T09:15:00.119Z</time></trkpt><trkpt lat="41.041795" lon="14.3247433"><ele>40.0</ele><time>2026-05-04T09:15:01.123Z</time></trkpt><trkpt lat="41.04187" lon="14.3247383"><ele>40.0</ele><time>2026-05-04T09:15:02.121Z</time></trkpt><trkpt lat="41.0419483" lon="14.3247417"><ele>40.0</ele><time>2026-05-04T09:15:03.122Z</time></trkpt><trkpt lat="41.0420233" lon="14.324745"><ele>40.0</ele><time>2026-05-04T09:15:04.124Z</time></trkpt><trkpt lat="41.042095" lon="14.3247483"><ele>40.0</ele><time>2026-05-04T09:15:05.122Z</time></trkpt><trkpt lat="41.0421683" lon="14.3247533"><ele>40.0</ele><time>2026-05-04T09:15:06.121Z</time></trkpt><trkpt lat="41.0422433" lon="14.3247567"><ele>40.0</ele><time>2026-05-04T09:15:07.12Z</time></trkpt><trkpt lat="41.0423183" lon="14.32476"><ele>40.0</ele><time>2026-05-04T09:15:08.121Z</time></trkpt><trkpt lat="41.042395" lon="14.3247633"><ele>40.0</ele><time>2026-05-04T09:15:09.12Z</time></trkpt><trkpt lat="41.04247" lon="14.324765"><ele>40.0</ele><time>2026-05-04T09:15:10.12Z</time></trkpt><trkpt lat="41.042545" lon="14.3247717"><ele>40.14285714285714</ele><time>2026-05-04T09:15:11.122Z</time></trkpt><trkpt lat="41.04262" lon="14.32478"><ele>40.285714285714285</ele><time>2026-05-04T09:15:12.121Z</time></trkpt><trkpt lat="41.042695" lon="14.3247883"><ele>40.42857142857143</ele><time>2026-05-04T09:15:13.123Z</time></trkpt><trkpt lat="41.0427717" lon="14.3247967"><ele>40.57142857142857</ele><time>2026-05-04T09:15:14.121Z</time></trkpt><trkpt lat="41.0428433" lon="14.3248067"><ele>40.714285714285715</ele><time>2026-05-04T09:15:15.122Z</time></trkpt><trkpt lat="41.0429133" lon="14.324815"><ele>40.857142857142854</ele><time>2026-05-04T09:15:16.12Z</time></trkpt><trkpt lat="41.042985" lon="14.3248183"><ele>41.0</ele><time>2026-05-04T09:15:17.121Z</time></trkpt><trkpt lat="41.0430583" lon="14.324825"><ele>41.0</ele><time>2026-05-04T09:15:18.122Z</time></trkpt><trkpt lat="41.04313" lon="14.324835"><ele>41.0</ele><time>2026-05-04T09:15:19.121Z</time></trkpt><trkpt lat="41.0431983" lon="14.3248533"><ele>41.0</ele><time>2026-05-04T09:15:20.122Z</time></trkpt><trkpt lat="41.0432633" lon="14.3248717"><ele>41.0</ele><time>2026-05-04T09:15:21.121Z</time></trkpt><trkpt lat="41.0433267" lon="14.3248917"><ele>41.0</ele><time>2026-05-04T09:15:22.12Z</time></trkpt><trkpt lat="41.0433883" lon="14.3249167"><ele>41.0</ele><time>2026-05-04T09:15:23.12Z</time></trkpt><trkpt lat="41.0434983" lon="14.3249783"><ele>41.199999999999996</ele><time>2026-05-04T09:15:25.121Z</time></trkpt><trkpt lat="41.0435833" lon="14.3250767"><ele>41.4</ele><time>2026-05-04T09:15:27.121Z</time></trkpt><trkpt lat="41.0436667" lon="14.3251417"><ele>41.6</ele><time>2026-05-04T09:15:29.122Z</time></trkpt><trkpt lat="41.0437533" lon="14.3251533"><ele>41.8</ele><time>2026-05-04T09:15:32.121Z</time></trkpt><trkpt lat="41.0438167" lon="14.3251133"><ele>42.0</ele><time>2026-05-04T09:15:34.122Z</time></trkpt><trkpt lat="41.0438917" lon="14.3250517"><ele>42.0</ele><time>2026-05-04T09:15:36.121Z</time></trkpt><trkpt lat="41.0439767" lon="14.3249867"><ele>42.0</ele><time>2026-05-04T09:15:38.122Z</time></trkpt><trkpt lat="41.0440833" lon="14.32495"><ele>42.0</ele><time>2026-05-04T09:15:40.122Z</time></trkpt><trkpt lat="41.0442" lon="14.3249333"><ele>42.0</ele><time>2026-05-04T09:15:42.12Z</time></trkpt><trkpt lat="41.0443167" lon="14.3249333"><ele>42.0</ele><time>2026-05-04T09:15:44.123Z</time></trkpt><trkpt lat="41.0444367" lon="14.3249417"><ele>42.166666666666664</ele><time>2026-05-04T09:15:46.123Z</time></trkpt><trkpt lat="41.0445567" lon="14.324955"><ele>42.333333333333336</ele><time>2026-05-04T09:15:48.122Z</time></trkpt><trkpt lat="41.0446817" lon="14.324965"><ele>42.5</ele><time>2026-05-04T09:15:50.122Z</time></trkpt><trkpt lat="41.0447467" lon="14.324975"><ele>42.66666666666667</ele><time>2026-05-04T09:15:51.121Z</time></trkpt><trkpt lat="41.04481" lon="14.32498"><ele>42.833333333333336</ele><time>2026-05-04T09:15:52.122Z</time></trkpt><trkpt lat="41.0448733" lon="14.324985"><ele>43.0</ele><time>2026-05-04T09:15:53.123Z</time></trkpt><trkpt lat="41.044995" lon="14.3249967"><ele>43.333333333333336</ele><time>2026-05-04T09:15:55.122Z</time></trkpt><trkpt lat="41.0451167" lon="14.3250067"><ele>43.66666666666667</ele><time>2026-05-04T09:15:57.122Z</time></trkpt><trkpt lat="41.04518" lon="14.3250133"><ele>44.0</ele><time>2026-05-04T09:15:58.122Z</time></trkpt><trkpt lat="41.0453017" lon="14.32502"><ele>44.333333333333336</ele><time>2026-05-04T09:16:00.124Z</time></trkpt><trkpt lat="41.045365" lon="14.325025"><ele>44.666666666666664</ele><time>2026-05-04T09:16:01.12Z</time></trkpt><trkpt lat="41.0454283" lon="14.3250267"><ele>45.0</ele><time>2026-05-04T09:16:02.123Z</time></trkpt><trkpt lat="41.045555" lon="14.3250333"><ele>45.0</ele><time>2026-05-04T09:16:04.123Z</time></trkpt><trkpt lat="41.04562" lon="14.3250383"><ele>45.0</ele><time>2026-05-04T09:16:05.121Z</time></trkpt><trkpt lat="41.045685" lon="14.3250433"><ele>45.0</ele><time>2026-05-04T09:16:06.124Z</time></trkpt><trkpt lat="41.0457483" lon="14.325045"><ele>45.0</ele><time>2026-05-04T09:16:07.122Z</time></trkpt><trkpt lat="41.0458683" lon="14.325055"><ele>45.0</ele><time>2026-05-04T09:16:09.121Z</time></trkpt><trkpt lat="41.0459933" lon="14.3250633"><ele>45.0</ele><time>2026-05-04T09:16:11.123Z</time></trkpt><trkpt lat="41.0461167" lon="14.325075"><ele>45.166666666666664</ele><time>2026-05-04T09:16:13.12Z</time></trkpt><trkpt lat="41.0462417" lon="14.3250783"><ele>45.333333333333336</ele><time>2026-05-04T09:16:15.122Z</time></trkpt><trkpt lat="41.0463067" lon="14.3250717"><ele>45.5</ele><time>2026-05-04T09:16:16.12Z</time></trkpt><trkpt lat="41.0463733" lon="14.32508"><ele>45.66666666666667</ele><time>2026-05-04T09:16:17.121Z</time></trkpt><trkpt lat="41.0464367" lon="14.325095"><ele>45.833333333333336</ele><time>2026-05-04T09:16:18.121Z</time></trkpt><trkpt lat="41.0465033" lon="14.3251017"><ele>46.0</ele><time>2026-05-04T09:16:19.121Z</time></trkpt><trkpt lat="41.0465717" lon="14.325105"><ele>46.42857142857143</ele><time>2026-05-04T09:16:20.12Z</time></trkpt><trkpt lat="41.04664" lon="14.3251083"><ele>46.857142857142854</ele><time>2026-05-04T09:16:21.119Z</time></trkpt><trkpt lat="41.0467067" lon="14.3251083"><ele>47.285714285714285</ele><time>2026-05-04T09:16:22.121Z</time></trkpt><trkpt lat="41.046775" lon="14.325115"><ele>47.714285714285715</ele><time>2026-05-04T09:16:23.121Z</time></trkpt><trkpt lat="41.0468417" lon="14.3251217"><ele>48.14285714285714</ele><time>2026-05-04T09:16:24.121Z</time></trkpt><trkpt lat="41.0469067" lon="14.32513"><ele>48.57142857142857</ele><time>2026-05-04T09:16:25.121Z</time></trkpt><trkpt lat="41.0469733" lon="14.325135"><ele>49.0</ele><time>2026-05-04T09:16:26.12Z</time></trkpt><trkpt lat="41.0470433" lon="14.32514"><ele>49.0</ele><time>2026-05-04T09:16:27.12Z</time></trkpt><trkpt lat="41.04711" lon="14.3251417"><ele>49.0</ele><time>2026-05-04T09:16:28.12Z</time></trkpt><trkpt lat="41.0471767" lon="14.3251433"><ele>49.0</ele><time>2026-05-04T09:16:29.12Z</time></trkpt><trkpt lat="41.04724" lon="14.3251467"><ele>49.0</ele><time>2026-05-04T09:16:30.122Z</time></trkpt><trkpt lat="41.0473067" lon="14.32515"><ele>49.0</ele><time>2026-05-04T09:16:31.12Z</time></trkpt><trkpt lat="41.0473733" lon="14.3251517"><ele>49.0</ele><time>2026-05-04T09:16:32.123Z</time></trkpt><trkpt lat="41.0474417" lon="14.3251583"><ele>49.0</ele><time>2026-05-04T09:16:33.121Z</time></trkpt><trkpt lat="41.0475083" lon="14.3251683"><ele>48.800000000000004</ele><time>2026-05-04T09:16:34.122Z</time></trkpt><trkpt lat="41.047575" lon="14.3251767"><ele>48.6</ele><time>2026-05-04T09:16:35.12Z</time></trkpt><trkpt lat="41.0477" lon="14.3251917"><ele>48.4</ele><time>2026-05-04T09:16:37.12Z</time></trkpt><trkpt lat="41.0477633" lon="14.3252033"><ele>48.2</ele><time>2026-05-04T09:16:38.121Z</time></trkpt><trkpt lat="41.0478883" lon="14.325215"><ele>48.0</ele><time>2026-05-04T09:16:40.12Z</time></trkpt><trkpt lat="41.0479567" lon="14.3252233"><ele>48.0</ele><time>2026-05-04T09:16:41.12Z</time></trkpt><trkpt lat="41.0480233" lon="14.3252267"><ele>48.0</ele><time>2026-05-04T09:16:42.121Z</time></trkpt><trkpt lat="41.0480917" lon="14.3252333"><ele>48.0</ele><time>2026-05-04T09:16:43.118Z</time></trkpt><trkpt lat="41.04816" lon="14.325235"><ele>48.0</ele><time>2026-05-04T09:16:44.121Z</time></trkpt><trkpt lat="41.0482267" lon="14.3252383"><ele>48.0</ele><time>2026-05-04T09:16:45.122Z</time></trkpt><trkpt lat="41.04835" lon="14.3252483"><ele>48.0</ele><time>2026-05-04T09:16:47.12Z</time></trkpt><trkpt lat="41.048415" lon="14.3252517"><ele>48.285714285714285</ele><time>2026-05-04T09:16:48.12Z</time></trkpt><trkpt lat="41.0484783" lon="14.3252583"><ele>48.57142857142857</ele><time>2026-05-04T09:16:49.12Z</time></trkpt><trkpt lat="41.0485417" lon="14.3252617"><ele>48.85714285714286</ele><time>2026-05-04T09:16:50.121Z</time></trkpt><trkpt lat="41.0486067" lon="14.3252667"><ele>49.14285714285714</ele><time>2026-05-04T09:16:51.12Z</time></trkpt><trkpt lat="41.0487283" lon="14.3252783"><ele>49.42857142857143</ele><time>2026-05-04T09:16:53.12Z</time></trkpt><trkpt lat="41.0487917" lon="14.3252833"><ele>49.714285714285715</ele><time>2026-05-04T09:16:54.122Z</time></trkpt><trkpt lat="41.048855" lon="14.325285"><ele>50.0</ele><time>2026-05-04T09:16:55.121Z</time></trkpt><trkpt lat="41.04892" lon="14.325295"><ele>50.00000000000001</ele><time>2026-05-04T09:16:56.12Z</time></trkpt><trkpt lat="41.0489867" lon="14.325295"><ele>50.0</ele><time>2026-05-04T09:16:57.12Z</time></trkpt><trkpt lat="41.0490533" lon="14.3253"><ele>50.0</ele><time>2026-05-04T09:16:58.122Z</time></trkpt><trkpt lat="41.0491183" lon="14.3253067"><ele>50.0</ele><time>2026-05-04T09:16:59.123Z</time></trkpt><trkpt lat="41.0491833" lon="14.3253117"><ele>50.0</ele><time>2026-05-04T09:17:00.121Z</time></trkpt><trkpt lat="41.0492467" lon="14.3253183"><ele>50.00000000000001</ele><time>2026-05-04T09:17:01.123Z</time></trkpt><trkpt lat="41.04931" lon="14.3253233"><ele>50.0</ele><time>2026-05-04T09:17:02.121Z</time></trkpt><trkpt lat="41.049375" lon="14.32533"><ele>50.125</ele><time>2026-05-04T09:17:03.125Z</time></trkpt><trkpt lat="41.0494383" lon="14.3253383"><ele>50.25</ele><time>2026-05-04T09:17:04.122Z</time></trkpt><trkpt lat="41.0495017" lon="14.3253433"><ele>50.375</ele><time>2026-05-04T09:17:05.121Z</time></trkpt><trkpt lat="41.049565" lon="14.3253467"><ele>50.5</ele><time>2026-05-04T09:17:06.123Z</time></trkpt><trkpt lat="41.0496283" lon="14.3253533"><ele>50.625</ele><time>2026-05-04T09:17:07.123Z</time></trkpt><trkpt lat="41.0496917" lon="14.32536"><ele>50.75</ele><time>2026-05-04T09:17:08.121Z</time></trkpt><trkpt lat="41.0497567" lon="14.325365"><ele>50.875</ele><time>2026-05-04T09:17:09.123Z</time></trkpt><trkpt lat="41.0498217" lon="14.3253683"><ele>51.0</ele><time>2026-05-04T09:17:10.122Z</time></trkpt><trkpt lat="41.049885" lon="14.3253767"><ele>51.0</ele><time>2026-05-04T09:17:11.122Z</time></trkpt><trkpt lat="41.0499517" lon="14.3253817"><ele>51.0</ele><time>2026-05-04T09:17:12.124Z</time></trkpt><trkpt lat="41.05002" lon="14.325385"><ele>51.0</ele><time>2026-05-04T09:17:13.12Z</time></trkpt><trkpt lat="41.0500883" lon="14.3253917"><ele>51.0</ele><time>2026-05-04T09:17:14.122Z</time></trkpt><trkpt lat="41.050155" lon="14.3253983"><ele>51.0</ele><time>2026-05-04T09:17:15.12Z</time></trkpt><trkpt lat="41.0502217" lon="14.3254"><ele>51.0</ele><time>2026-05-04T09:17:16.12Z</time></trkpt><trkpt lat="41.0502867" lon="14.325405"><ele>51.0</ele><time>2026-05-04T09:17:17.121Z</time></trkpt><trkpt lat="41.0503517" lon="14.325405"><ele>51.0</ele><time>2026-05-04T09:17:18.121Z</time></trkpt><trkpt lat="41.0504183" lon="14.32541"><ele>51.0</ele><time>2026-05-04T09:17:19.121Z</time></trkpt><trkpt lat="41.0504817" lon="14.3254167"><ele>51.0</ele><time>2026-05-04T09:17:20.121Z</time></trkpt><trkpt lat="41.0505467" lon="14.32542"><ele>51.0</ele><time>2026-05-04T09:17:21.122Z</time></trkpt><trkpt lat="41.050615" lon="14.3254217"><ele>51.0</ele><time>2026-05-04T09:17:22.121Z</time></trkpt><trkpt lat="41.0506817" lon="14.3254267"><ele>51.0</ele><time>2026-05-04T09:17:23.121Z</time></trkpt><trkpt lat="41.0507483" lon="14.32543"><ele>51.0</ele><time>2026-05-04T09:17:24.12Z</time></trkpt><trkpt lat="41.050815" lon="14.3254333"><ele>51.0</ele><time>2026-05-04T09:17:25.121Z</time></trkpt><trkpt lat="41.0508833" lon="14.3254383"><ele>51.0</ele><time>2026-05-04T09:17:26.12Z</time></trkpt><trkpt lat="41.0509517" lon="14.3254433"><ele>51.0</ele><time>2026-05-04T09:17:27.122Z</time></trkpt><trkpt lat="41.05102" lon="14.3254517"><ele>51.0</ele><time>2026-05-04T09:17:28.122Z</time></trkpt><trkpt lat="41.0510917" lon="14.3254617"><ele>51.0</ele><time>2026-05-04T09:17:29.122Z</time></trkpt><trkpt lat="41.0511617" lon="14.325465"><ele>51.0</ele><time>2026-05-04T09:17:30.122Z</time></trkpt><trkpt lat="41.0512317" lon="14.32547"><ele>51.0</ele><time>2026-05-04T09:17:31.123Z</time></trkpt><trkpt lat="41.0513017" lon="14.32548"><ele>51.0</ele><time>2026-05-04T09:17:32.123Z</time></trkpt><trkpt lat="41.051375" lon="14.3254867"><ele>51.0</ele><time>2026-05-04T09:17:33.123Z</time></trkpt><trkpt lat="41.051445" lon="14.3254867"><ele>51.0</ele><time>2026-05-04T09:17:34.123Z</time></trkpt><trkpt lat="41.05151" lon="14.3254817"><ele>51.0</ele><time>2026-05-04T09:17:35.123Z</time></trkpt><trkpt lat="41.0516267" lon="14.3254833"><ele>51.0</ele><time>2026-05-04T09:17:37.121Z</time></trkpt><trkpt lat="41.0517067" lon="14.3254917"><ele>51.0</ele><time>2026-05-04T09:17:40.121Z</time></trkpt><trkpt lat="41.05179" lon="14.3255117"><ele>51.0</ele><time>2026-05-04T09:17:45.12Z</time></trkpt><trkpt lat="41.0518817" lon="14.325515"><ele>51.0</ele><time>2026-05-04T09:17:48.119Z</time></trkpt><trkpt lat="41.051965" lon="14.3255167"><ele>51.0</ele><time>2026-05-04T09:17:50.122Z</time></trkpt><trkpt lat="41.052065" lon="14.3255133"><ele>51.0</ele><time>2026-05-04T09:17:52.119Z</time></trkpt><trkpt lat="41.0521767" lon="14.3255183"><ele>51.0</ele><time>2026-05-04T09:17:54.119Z</time></trkpt><trkpt lat="41.0522917" lon="14.3255333"><ele>51.0</ele><time>2026-05-04T09:17:56.12Z</time></trkpt><trkpt lat="41.05241" lon="14.3255433"><ele>51.0</ele><time>2026-05-04T09:17:58.118Z</time></trkpt><trkpt lat="41.0525317" lon="14.32556"><ele>51.0</ele><time>2026-05-04T09:18:00.121Z</time></trkpt><trkpt lat="41.0526567" lon="14.32558"><ele>51.0</ele><time>2026-05-04T09:18:02.12Z</time></trkpt><trkpt lat="41.0527233" lon="14.32559"><ele>51.0</ele><time>2026-05-04T09:18:03.121Z</time></trkpt><trkpt lat="41.0527917" lon="14.3255983"><ele>51.42857142857143</ele><time>2026-05-04T09:18:04.121Z</time></trkpt><trkpt lat="41.0528567" lon="14.3256083"><ele>51.85714285714286</ele><time>2026-05-04T09:18:05.118Z</time></trkpt><trkpt lat="41.0529233" lon="14.325615"><ele>52.285714285714285</ele><time>2026-05-04T09:18:06.121Z</time></trkpt><trkpt lat="41.0529867" lon="14.3256183"><ele>52.714285714285715</ele><time>2026-05-04T09:18:07.12Z</time></trkpt><trkpt lat="41.0530533" lon="14.3256233"><ele>53.14285714285714</ele><time>2026-05-04T09:18:08.122Z</time></trkpt><trkpt lat="41.05312" lon="14.3256233"><ele>53.57142857142857</ele><time>2026-05-04T09:18:09.124Z</time></trkpt><trkpt lat="41.0531883" lon="14.3256267"><ele>54.0</ele><time>2026-05-04T09:18:10.121Z</time></trkpt><trkpt lat="41.0532583" lon="14.32563"><ele>54.14285714285714</ele><time>2026-05-04T09:18:11.12Z</time></trkpt><trkpt lat="41.0533283" lon="14.3256317"><ele>54.285714285714285</ele><time>2026-05-04T09:18:12.12Z</time></trkpt><trkpt lat="41.0533933" lon="14.3256333"><ele>54.42857142857143</ele><time>2026-05-04T09:18:13.121Z</time></trkpt><trkpt lat="41.0534617" lon="14.32564"><ele>54.57142857142857</ele><time>2026-05-04T09:18:14.121Z</time></trkpt><trkpt lat="41.05353" lon="14.32565"><ele>54.714285714285715</ele><time>2026-05-04T09:18:15.121Z</time></trkpt><trkpt lat="41.0536" lon="14.3256567"><ele>54.857142857142854</ele><time>2026-05-04T09:18:16.121Z</time></trkpt><trkpt lat="41.0536683" lon="14.3256667"><ele>55.0</ele><time>2026-05-04T09:18:17.119Z</time></trkpt><trkpt lat="41.0537383" lon="14.325675"><ele>54.99999999999999</ele><time>2026-05-04T09:18:18.12Z</time></trkpt><trkpt lat="41.0538067" lon="14.32568"><ele>55.0</ele><time>2026-05-04T09:18:19.121Z</time></trkpt><trkpt lat="41.0538767" lon="14.3256883"><ele>55.0</ele><time>2026-05-04T09:18:20.121Z</time></trkpt><trkpt lat="41.0539467" lon="14.3256933"><ele>55.0</ele><time>2026-05-04T09:18:21.121Z</time></trkpt><trkpt lat="41.05402" lon="14.3256983"><ele>55.0</ele><time>2026-05-04T09:18:22.12Z</time></trkpt><trkpt lat="41.0540933" lon="14.3257017"><ele>54.99999999999999</ele><time>2026-05-04T09:18:23.12Z</time></trkpt><trkpt lat="41.0541617" lon="14.32571"><ele>55.0</ele><time>2026-05-04T09:18:24.12Z</time></trkpt><trkpt lat="41.05423" lon="14.325715"><ele>54.71428571428571</ele><time>2026-05-04T09:18:25.12Z</time></trkpt><trkpt lat="41.0543" lon="14.3257183"><ele>54.42857142857143</ele><time>2026-05-04T09:18:26.12Z</time></trkpt><trkpt lat="41.05437" lon="14.3257217"><ele>54.14285714285714</ele><time>2026-05-04T09:18:27.12Z</time></trkpt><trkpt lat="41.0544417" lon="14.3257283"><ele>53.857142857142854</ele><time>2026-05-04T09:18:28.12Z</time></trkpt><trkpt lat="41.0545133" lon="14.325735"><ele>53.57142857142857</ele><time>2026-05-04T09:18:29.12Z</time></trkpt><trkpt lat="41.0545833" lon="14.32574"><ele>53.285714285714285</ele><time>2026-05-04T09:18:30.12Z</time></trkpt><trkpt lat="41.0546567" lon="14.325745"><ele>53.0</ele><time>2026-05-04T09:18:31.122Z</time></trkpt><trkpt lat="41.0547267" lon="14.3257483"><ele>53.0</ele><time>2026-05-04T09:18:32.121Z</time></trkpt><trkpt lat="41.0547967" lon="14.325755"><ele>53.0</ele><time>2026-05-04T09:18:33.122Z</time></trkpt><trkpt lat="41.0548717" lon="14.3257617"><ele>53.0</ele><time>2026-05-04T09:18:34.119Z</time></trkpt><trkpt lat="41.0549467" lon="14.3257683"><ele>53.0</ele><time>2026-05-04T09:18:35.12Z</time></trkpt><trkpt lat="41.05502" lon="14.325775"><ele>53.0</ele><time>2026-05-04T09:18:36.122Z</time></trkpt><trkpt lat="41.0550933" lon="14.3257833"><ele>53.0</ele><time>2026-05-04T09:18:37.121Z</time></trkpt><trkpt lat="41.055165" lon="14.3257917"><ele>53.0</ele><time>2026-05-04T09:18:38.121Z</time></trkpt><trkpt lat="41.0552367" lon="14.3257967"><ele>52.57142857142858</ele><time>2026-05-04T09:18:39.12Z</time></trkpt><trkpt lat="41.0553083" lon="14.3258017"><ele>52.14285714285714</ele><time>2026-05-04T09:18:40.121Z</time></trkpt><trkpt lat="41.0553817" lon="14.3258083"><ele>51.714285714285715</ele><time>2026-05-04T09:18:41.121Z</time></trkpt><trkpt lat="41.0554517" lon="14.32581"><ele>51.28571428571429</ele><time>2026-05-04T09:18:42.12Z</time></trkpt><trkpt lat="41.0555217" lon="14.325815"><ele>50.85714285714286</ele><time>2026-05-04T09:18:43.119Z</time></trkpt><trkpt lat="41.0555933" lon="14.3258167"><ele>50.42857142857143</ele><time>2026-05-04T09:18:44.12Z</time></trkpt><trkpt lat="41.0556633" lon="14.3258217"><ele>50.0</ele><time>2026-05-04T09:18:45.121Z</time></trkpt><trkpt lat="41.05573" lon="14.3258283"><ele>50.42857142857143</ele><time>2026-05-04T09:18:46.12Z</time></trkpt><trkpt lat="41.0557983" lon="14.3258333"><ele>50.85714285714286</ele><time>2026-05-04T09:18:47.122Z</time></trkpt><trkpt lat="41.055865" lon="14.32584"><ele>51.28571428571429</ele><time>2026-05-04T09:18:48.12Z</time></trkpt><trkpt lat="41.055935" lon="14.325845"><ele>51.714285714285715</ele><time>2026-05-04T09:18:49.121Z</time></trkpt><trkpt lat="41.0560033" lon="14.3258517"><ele>52.14285714285714</ele><time>2026-05-04T09:18:50.123Z</time></trkpt><trkpt lat="41.05607" lon="14.3258617"><ele>52.57142857142858</ele><time>2026-05-04T09:18:51.12Z</time></trkpt><trkpt lat="41.05614" lon="14.325865"><ele>53.0</ele><time>2026-05-04T09:18:52.121Z</time></trkpt><trkpt lat="41.05621" lon="14.3258667"><ele>53.00000000000001</ele><time>2026-05-04T09:18:53.121Z</time></trkpt><trkpt lat="41.0562783" lon="14.3258717"><ele>53.0</ele><time>2026-05-04T09:18:54.12Z</time></trkpt><trkpt lat="41.0563467" lon="14.3258767"><ele>53.0</ele><time>2026-05-04T09:18:55.12Z</time></trkpt><trkpt lat="41.0564117" lon="14.3258783"><ele>53.0</ele><time>2026-05-04T09:18:56.12Z</time></trkpt><trkpt lat="41.056475" lon="14.3258817"><ele>53.00000000000001</ele><time>2026-05-04T09:18:57.121Z</time></trkpt><trkpt lat="41.0565967" lon="14.3259067"><ele>53.0</ele><time>2026-05-04T09:18:59.12Z</time></trkpt><trkpt lat="41.056705" lon="14.3259617"><ele>53.16666666666667</ele><time>2026-05-04T09:19:01.121Z</time></trkpt><trkpt lat="41.0567667" lon="14.3259783"><ele>53.333333333333336</ele><time>2026-05-04T09:19:02.12Z</time></trkpt><trkpt lat="41.05683" lon="14.3259833"><ele>53.5</ele><time>2026-05-04T09:19:03.12Z</time></trkpt><trkpt lat="41.0569533" lon="14.3259683"><ele>53.66666666666667</ele><time>2026-05-04T09:19:05.121Z</time></trkpt><trkpt lat="41.057015" lon="14.32595"><ele>53.833333333333336</ele><time>2026-05-04T09:19:06.122Z</time></trkpt><trkpt lat="41.0571433" lon="14.3259317"><ele>54.0</ele><time>2026-05-04T09:19:08.121Z</time></trkpt><trkpt lat="41.0572083" lon="14.3259367"><ele>54.0</ele><time>2026-05-04T09:19:09.12Z</time></trkpt><trkpt lat="41.0573333" lon="14.3259467"><ele>54.0</ele><time>2026-05-04T09:19:11.121Z</time></trkpt><trkpt lat="41.0574567" lon="14.3259583"><ele>54.0</ele><time>2026-05-04T09:19:13.121Z</time></trkpt><trkpt lat="41.05752" lon="14.3259683"><ele>54.0</ele><time>2026-05-04T09:19:14.12Z</time></trkpt><trkpt lat="41.0575833" lon="14.3259783"><ele>54.0</ele><time>2026-05-04T09:19:15.12Z</time></trkpt><trkpt lat="41.0576467" lon="14.325985"><ele>54.0</ele><time>2026-05-04T09:19:16.12Z</time></trkpt><trkpt lat="41.0577117" lon="14.3259917"><ele>53.666666666666664</ele><time>2026-05-04T09:19:17.12Z</time></trkpt><trkpt lat="41.057775" lon="14.3259967"><ele>53.33333333333333</ele><time>2026-05-04T09:19:18.121Z</time></trkpt><trkpt lat="41.057895" lon="14.3260017"><ele>53.0</ele><time>2026-05-04T09:19:20.12Z</time></trkpt><trkpt lat="41.0579583" lon="14.326005"><ele>52.666666666666664</ele><time>2026-05-04T09:19:21.12Z</time></trkpt><trkpt lat="41.0580817" lon="14.3260067"><ele>52.33333333333333</ele><time>2026-05-04T09:19:23.118Z</time></trkpt><trkpt lat="41.058145" lon="14.32601"><ele>52.0</ele><time>2026-05-04T09:19:24.121Z</time></trkpt><trkpt lat="41.0582683" lon="14.326015"><ele>52.285714285714285</ele><time>2026-05-04T09:19:26.121Z</time></trkpt><trkpt lat="41.0583333" lon="14.3260183"><ele>52.57142857142858</ele><time>2026-05-04T09:19:27.122Z</time></trkpt><trkpt lat="41.0584583" lon="14.3260267"><ele>52.85714285714286</ele><time>2026-05-04T09:19:29.12Z</time></trkpt><trkpt lat="41.0585217" lon="14.3260283"><ele>53.14285714285714</ele><time>2026-05-04T09:19:30.12Z</time></trkpt><trkpt lat="41.058585" lon="14.3260333"><ele>53.42857142857143</ele><time>2026-05-04T09:19:31.121Z</time></trkpt><trkpt lat="41.0586483" lon="14.32604"><ele>53.714285714285715</ele><time>2026-05-04T09:19:32.12Z</time></trkpt><trkpt lat="41.0587117" lon="14.3260483"><ele>54.0</ele><time>2026-05-04T09:19:33.12Z</time></trkpt><trkpt lat="41.058775" lon="14.32606"><ele>54.0</ele><time>2026-05-04T09:19:34.119Z</time></trkpt><trkpt lat="41.05884" lon="14.3260683"><ele>54.0</ele><time>2026-05-04T09:19:35.12Z</time></trkpt><trkpt lat="41.058905" lon="14.3260717"><ele>54.0</ele><time>2026-05-04T09:19:36.121Z</time></trkpt><trkpt lat="41.05897" lon="14.3260783"><ele>54.0</ele><time>2026-05-04T09:19:37.12Z</time></trkpt><trkpt lat="41.0590383" lon="14.32608"><ele>54.0</ele><time>2026-05-04T09:19:38.121Z</time></trkpt><trkpt lat="41.0591067" lon="14.326085"><ele>54.0</ele><time>2026-05-04T09:19:39.121Z</time></trkpt><trkpt lat="41.0591733" lon="14.3260917"><ele>54.0</ele><time>2026-05-04T09:19:40.121Z</time></trkpt><trkpt lat="41.0592383" lon="14.3260967"><ele>54.14285714285714</ele><time>2026-05-04T09:19:41.12Z</time></trkpt><trkpt lat="41.0593033" lon="14.3261033"><ele>54.285714285714285</ele><time>2026-05-04T09:19:42.121Z</time></trkpt><trkpt lat="41.05937" lon="14.3261083"><ele>54.42857142857143</ele><time>2026-05-04T09:19:43.121Z</time></trkpt><trkpt lat="41.0594333" lon="14.3261117"><ele>54.57142857142857</ele><time>2026-05-04T09:19:44.121Z</time></trkpt><trkpt lat="41.0595" lon="14.3261167"><ele>54.714285714285715</ele><time>2026-05-04T09:19:45.119Z</time></trkpt><trkpt lat="41.0595633" lon="14.326125"><ele>54.857142857142854</ele><time>2026-05-04T09:19:46.12Z</time></trkpt><trkpt lat="41.05963" lon="14.3261333"><ele>55.0</ele><time>2026-05-04T09:19:47.119Z</time></trkpt><trkpt lat="41.0596967" lon="14.3261383"><ele>54.99999999999999</ele><time>2026-05-04T09:19:48.121Z</time></trkpt><trkpt lat="41.0597617" lon="14.3261433"><ele>55.0</ele><time>2026-05-04T09:19:49.123Z</time></trkpt><trkpt lat="41.0598867" lon="14.3261533"><ele>55.0</ele><time>2026-05-04T09:19:51.123Z</time></trkpt><trkpt lat="41.06001" lon="14.3261583"><ele>55.0</ele><time>2026-05-04T09:19:53.119Z</time></trkpt><trkpt lat="41.060075" lon="14.3261617"><ele>54.99999999999999</ele><time>2026-05-04T09:19:54.12Z</time></trkpt><trkpt lat="41.06014" lon="14.3261667"><ele>55.0</ele><time>2026-05-04T09:19:55.12Z</time></trkpt><trkpt lat="41.060205" lon="14.3261717"><ele>54.99999999999999</ele><time>2026-05-04T09:19:56.119Z</time></trkpt><trkpt lat="41.0602683" lon="14.3261767"><ele>55.0</ele><time>2026-05-04T09:19:57.121Z</time></trkpt><trkpt lat="41.0603317" lon="14.3261833"><ele>55.0</ele><time>2026-05-04T09:19:58.121Z</time></trkpt><trkpt lat="41.060395" lon="14.3261883"><ele>55.0</ele><time>2026-05-04T09:19:59.121Z</time></trkpt><trkpt lat="41.0604583" lon="14.3261983"><ele>55.0</ele><time>2026-05-04T09:20:00.119Z</time></trkpt><trkpt lat="41.0605233" lon="14.3262067"><ele>54.99999999999999</ele><time>2026-05-04T09:20:01.12Z</time></trkpt><trkpt lat="41.0606467" lon="14.326215"><ele>55.0</ele><time>2026-05-04T09:20:03.121Z</time></trkpt><trkpt lat="41.0607117" lon="14.3262183"><ele>55.14285714285714</ele><time>2026-05-04T09:20:04.12Z</time></trkpt><trkpt lat="41.060835" lon="14.3262267"><ele>55.285714285714285</ele><time>2026-05-04T09:20:06.121Z</time></trkpt><trkpt lat="41.0608983" lon="14.3262333"><ele>55.42857142857143</ele><time>2026-05-04T09:20:07.12Z</time></trkpt><trkpt lat="41.0609633" lon="14.32624"><ele>55.57142857142857</ele><time>2026-05-04T09:20:08.12Z</time></trkpt><trkpt lat="41.0610267" lon="14.326245"><ele>55.714285714285715</ele><time>2026-05-04T09:20:09.12Z</time></trkpt><trkpt lat="41.0610933" lon="14.3262517"><ele>55.857142857142854</ele><time>2026-05-04T09:20:10.119Z</time></trkpt><trkpt lat="41.0611567" lon="14.3262583"><ele>56.0</ele><time>2026-05-04T09:20:11.12Z</time></trkpt><trkpt lat="41.0612217" lon="14.326265"><ele>56.0</ele><time>2026-05-04T09:20:12.121Z</time></trkpt><trkpt lat="41.06129" lon="14.3262667"><ele>56.0</ele><time>2026-05-04T09:20:13.121Z</time></trkpt><trkpt lat="41.0613567" lon="14.3262667"><ele>56.0</ele><time>2026-05-04T09:20:14.121Z</time></trkpt><trkpt lat="41.06142" lon="14.32627"><ele>56.0</ele><time>2026-05-04T09:20:15.12Z</time></trkpt><trkpt lat="41.0614867" lon="14.3262733"><ele>56.0</ele><time>2026-05-04T09:20:16.121Z</time></trkpt><trkpt lat="41.061555" lon="14.3262817"><ele>56.0</ele><time>2026-05-04T09:20:17.123Z</time></trkpt><trkpt lat="41.0616217" lon="14.32629"><ele>56.0</ele><time>2026-05-04T09:20:18.12Z</time></trkpt><trkpt lat="41.0616883" lon="14.3262967"><ele>56.333333333333336</ele><time>2026-05-04T09:20:19.119Z</time></trkpt><trkpt lat="41.061755" lon="14.3263033"><ele>56.66666666666667</ele><time>2026-05-04T09:20:20.12Z</time></trkpt><trkpt lat="41.0618217" lon="14.3263083"><ele>57.0</ele><time>2026-05-04T09:20:21.12Z</time></trkpt><trkpt lat="41.0618883" lon="14.3263133"><ele>57.33333333333333</ele><time>2026-05-04T09:20:22.12Z</time></trkpt><trkpt lat="41.061955" lon="14.3263167"><ele>57.666666666666664</ele><time>2026-05-04T09:20:23.12Z</time></trkpt><trkpt lat="41.06202" lon="14.32632"><ele>58.0</ele><time>2026-05-04T09:20:24.122Z</time></trkpt><trkpt lat="41.0621433" lon="14.32633"><ele>58.00000000000001</ele><time>2026-05-04T09:20:26.122Z</time></trkpt><trkpt lat="41.0622083" lon="14.326335"><ele>58.0</ele><time>2026-05-04T09:20:27.119Z</time></trkpt><trkpt lat="41.062275" lon="14.3263417"><ele>58.00000000000001</ele><time>2026-05-04T09:20:28.12Z</time></trkpt><trkpt lat="41.0623433" lon="14.326345"><ele>58.00000000000001</ele><time>2026-05-04T09:20:29.12Z</time></trkpt><trkpt lat="41.0624133" lon="14.3263517"><ele>58.0</ele><time>2026-05-04T09:20:30.119Z</time></trkpt><trkpt lat="41.0624833" lon="14.3263567"><ele>58.00000000000001</ele><time>2026-05-04T09:20:31.119Z</time></trkpt><trkpt lat="41.0625533" lon="14.3263617"><ele>58.00000000000001</ele><time>2026-05-04T09:20:32.121Z</time></trkpt><trkpt lat="41.0626217" lon="14.326365"><ele>58.14285714285715</ele><time>2026-05-04T09:20:33.119Z</time></trkpt><trkpt lat="41.0626883" lon="14.3263717"><ele>58.28571428571429</ele><time>2026-05-04T09:20:34.121Z</time></trkpt><trkpt lat="41.0627533" lon="14.3263783"><ele>58.42857142857143</ele><time>2026-05-04T09:20:35.121Z</time></trkpt><trkpt lat="41.0628217" lon="14.326385"><ele>58.57142857142858</ele><time>2026-05-04T09:20:36.121Z</time></trkpt><trkpt lat="41.06289" lon="14.32639"><ele>58.71428571428572</ele><time>2026-05-04T09:20:37.12Z</time></trkpt><trkpt lat="41.0629617" lon="14.326395"><ele>58.857142857142854</ele><time>2026-05-04T09:20:38.121Z</time></trkpt><trkpt lat="41.0630317" lon="14.3264017"><ele>59.0</ele><time>2026-05-04T09:20:39.119Z</time></trkpt><trkpt lat="41.0631" lon="14.3264083"><ele>59.0</ele><time>2026-05-04T09:20:40.119Z</time></trkpt><trkpt lat="41.0631667" lon="14.32641"><ele>59.0</ele><time>2026-05-04T09:20:41.119Z</time></trkpt><trkpt lat="41.063235" lon="14.3264167"><ele>59.0</ele><time>2026-05-04T09:20:42.122Z</time></trkpt><trkpt lat="41.0633067" lon="14.3264267"><ele>59.0</ele><time>2026-05-04T09:20:43.12Z</time></trkpt><trkpt lat="41.0633717" lon="14.3264283"><ele>59.0</ele><time>2026-05-04T09:20:44.121Z</time></trkpt><trkpt lat="41.0634417" lon="14.3264317"><ele>59.0</ele><time>2026-05-04T09:20:45.118Z</time></trkpt><trkpt lat="41.06351" lon="14.3264367"><ele>59.0</ele><time>2026-05-04T09:20:46.119Z</time></trkpt><trkpt lat="41.063575" lon="14.3264383"><ele>59.57142857142857</ele><time>2026-05-04T09:20:47.118Z</time></trkpt><trkpt lat="41.06364" lon="14.3264367"><ele>60.142857142857146</ele><time>2026-05-04T09:20:48.121Z</time></trkpt><trkpt lat="41.0637083" lon="14.3264367"><ele>60.714285714285715</ele><time>2026-05-04T09:20:49.121Z</time></trkpt><trkpt lat="41.063775" lon="14.3264383"><ele>61.285714285714285</ele><time>2026-05-04T09:20:50.12Z</time></trkpt><trkpt lat="41.0638417" lon="14.3264417"><ele>61.85714285714286</ele><time>2026-05-04T09:20:51.123Z</time></trkpt><trkpt lat="41.06391" lon="14.3264483"><ele>62.42857142857143</ele><time>2026-05-04T09:20:52.121Z</time></trkpt><trkpt lat="41.0639783" lon="14.3264567"><ele>63.0</ele><time>2026-05-04T09:20:53.121Z</time></trkpt><trkpt lat="41.0640433" lon="14.3264667"><ele>63.0</ele><time>2026-05-04T09:20:54.12Z</time></trkpt><trkpt lat="41.0641083" lon="14.32648"><ele>63.0</ele><time>2026-05-04T09:20:55.119Z</time></trkpt><trkpt lat="41.0641733" lon="14.3264883"><ele>63.0</ele><time>2026-05-04T09:20:56.121Z</time></trkpt><trkpt lat="41.064295" lon="14.3264983"><ele>63.0</ele><time>2026-05-04T09:20:58.12Z</time></trkpt><trkpt lat="41.0643583" lon="14.3265017"><ele>63.0</ele><time>2026-05-04T09:20:59.121Z</time></trkpt><trkpt lat="41.0644217" lon="14.3265067"><ele>63.0</ele><time>2026-05-04T09:21:00.119Z</time></trkpt><trkpt lat="41.064485" lon="14.3265117"><ele>63.0</ele><time>2026-05-04T09:21:01.12Z</time></trkpt><trkpt lat="41.0646083" lon="14.3265233"><ele>62.42857142857143</ele><time>2026-05-04T09:21:03.121Z</time></trkpt><trkpt lat="41.064675" lon="14.32653"><ele>61.85714285714286</ele><time>2026-05-04T09:21:04.12Z</time></trkpt><trkpt lat="41.06474" lon="14.3265367"><ele>61.285714285714285</ele><time>2026-05-04T09:21:05.119Z</time></trkpt><trkpt lat="41.0648033" lon="14.32654"><ele>60.714285714285715</ele><time>2026-05-04T09:21:06.12Z</time></trkpt><trkpt lat="41.0648683" lon="14.3265417"><ele>60.142857142857146</ele><time>2026-05-04T09:21:07.12Z</time></trkpt><trkpt lat="41.0649317" lon="14.3265467"><ele>59.57142857142857</ele><time>2026-05-04T09:21:08.121Z</time></trkpt><trkpt lat="41.064995" lon="14.326555"><ele>59.0</ele><time>2026-05-04T09:21:09.121Z</time></trkpt><trkpt lat="41.0650617" lon="14.3265617"><ele>58.833333333333336</ele><time>2026-05-04T09:21:10.12Z</time></trkpt><trkpt lat="41.065125" lon="14.32657"><ele>58.66666666666667</ele><time>2026-05-04T09:21:11.119Z</time></trkpt><trkpt lat="41.06519" lon="14.326575"><ele>58.5</ele><time>2026-05-04T09:21:12.121Z</time></trkpt><trkpt lat="41.065255" lon="14.3265817"><ele>58.33333333333333</ele><time>2026-05-04T09:21:13.123Z</time></trkpt><trkpt lat="41.0653217" lon="14.3265867"><ele>58.166666666666664</ele><time>2026-05-04T09:21:14.122Z</time></trkpt><trkpt lat="41.0654483" lon="14.3265967"><ele>58.0</ele><time>2026-05-04T09:21:16.122Z</time></trkpt><trkpt lat="41.0655133" lon="14.3266"><ele>58.0</ele><time>2026-05-04T09:21:17.123Z</time></trkpt><trkpt lat="41.0656383" lon="14.3266033"><ele>58.0</ele><time>2026-05-04T09:21:19.121Z</time></trkpt><trkpt lat="41.0657017" lon="14.326605"><ele>58.0</ele><time>2026-05-04T09:21:20.124Z</time></trkpt><trkpt lat="41.0658217" lon="14.3266283"><ele>58.0</ele><time>2026-05-04T09:21:22.119Z</time></trkpt><trkpt lat="41.0659317" lon="14.3266983"><ele>58.0</ele><time>2026-05-04T09:21:24.122Z</time></trkpt><trkpt lat="41.0660167" lon="14.3268133"><ele>58.33333333333333</ele><time>2026-05-04T09:21:26.122Z</time></trkpt><trkpt lat="41.0660567" lon="14.32688"><ele>58.666666666666664</ele><time>2026-05-04T09:21:27.12Z</time></trkpt><trkpt lat="41.0660967" lon="14.3269467"><ele>59.0</ele><time>2026-05-04T09:21:28.118Z</time></trkpt><trkpt lat="41.0661383" lon="14.3270183"><ele>59.33333333333333</ele><time>2026-05-04T09:21:29.121Z</time></trkpt><trkpt lat="41.0661767" lon="14.3270867"><ele>59.666666666666664</ele><time>2026-05-04T09:21:30.123Z</time></trkpt><trkpt lat="41.0662483" lon="14.327215"><ele>60.0</ele><time>2026-05-04T09:21:32.123Z</time></trkpt><trkpt lat="41.06631" lon="14.3273433"><ele>60.0</ele><time>2026-05-04T09:21:34.119Z</time></trkpt><trkpt lat="41.066365" lon="14.3274867"><ele>60.0</ele><time>2026-05-04T09:21:36.121Z</time></trkpt><trkpt lat="41.066425" lon="14.3276233"><ele>60.0</ele><time>2026-05-04T09:21:38.12Z</time></trkpt><trkpt lat="41.0664867" lon="14.3277683"><ele>60.0</ele><time>2026-05-04T09:21:40.121Z</time></trkpt><trkpt lat="41.066555" lon="14.3279117"><ele>60.0</ele><time>2026-05-04T09:21:42.121Z</time></trkpt><trkpt lat="41.0665917" lon="14.32798"><ele>60.0</ele><time>2026-05-04T09:21:43.119Z</time></trkpt><trkpt lat="41.06666" lon="14.3281233"><ele>60.0</ele><time>2026-05-04T09:21:45.119Z</time></trkpt><trkpt lat="41.0666967" lon="14.3281967"><ele>60.0</ele><time>2026-05-04T09:21:46.12Z</time></trkpt><trkpt lat="41.0667517" lon="14.3283417"><ele>60.0</ele><time>2026-05-04T09:21:48.122Z</time></trkpt><trkpt lat="41.0668033" lon="14.32849"><ele>60.166666666666664</ele><time>2026-05-04T09:21:50.122Z</time></trkpt><trkpt lat="41.0668317" lon="14.328565"><ele>60.33333333333333</ele><time>2026-05-04T09:21:51.121Z</time></trkpt><trkpt lat="41.0668567" lon="14.3286417"><ele>60.5</ele><time>2026-05-04T09:21:52.121Z</time></trkpt><trkpt lat="41.06688" lon="14.32872"><ele>60.666666666666664</ele><time>2026-05-04T09:21:53.121Z</time></trkpt><trkpt lat="41.06694" lon="14.3288633"><ele>60.83333333333333</ele><time>2026-05-04T09:21:55.12Z</time></trkpt><trkpt lat="41.0670033" lon="14.329005"><ele>61.0</ele><time>2026-05-04T09:21:57.124Z</time></trkpt><trkpt lat="41.067065" lon="14.329145"><ele>61.0</ele><time>2026-05-04T09:21:59.12Z</time></trkpt><trkpt lat="41.0671283" lon="14.3292883"><ele>60.99999999999999</ele><time>2026-05-04T09:22:01.121Z</time></trkpt><trkpt lat="41.0671917" lon="14.32944"><ele>60.99999999999999</ele><time>2026-05-04T09:22:03.121Z</time></trkpt><trkpt lat="41.0672167" lon="14.3295167"><ele>61.0</ele><time>2026-05-04T09:22:04.119Z</time></trkpt><trkpt lat="41.0672733" lon="14.329665"><ele>61.0</ele><time>2026-05-04T09:22:06.121Z</time></trkpt><trkpt lat="41.0673283" lon="14.3298033"><ele>61.75</ele><time>2026-05-04T09:22:08.12Z</time></trkpt><trkpt lat="41.06738" lon="14.329945"><ele>62.5</ele><time>2026-05-04T09:22:10.119Z</time></trkpt><trkpt lat="41.0674317" lon="14.3300767"><ele>63.25</ele><time>2026-05-04T09:22:12.123Z</time></trkpt><trkpt lat="41.067505" lon="14.33019"><ele>64.0</ele><time>2026-05-04T09:22:14.123Z</time></trkpt><trkpt lat="41.0675917" lon="14.3302817"><ele>64.0</ele><time>2026-05-04T09:22:16.121Z</time></trkpt><trkpt lat="41.0676917" lon="14.3303583"><ele>64.0</ele><time>2026-05-04T09:22:18.121Z</time></trkpt><trkpt lat="41.0678067" lon="14.3304217"><ele>64.0</ele><time>2026-05-04T09:22:20.122Z</time></trkpt><trkpt lat="41.0678683" lon="14.3304417"><ele>64.0</ele><time>2026-05-04T09:22:21.12Z</time></trkpt><trkpt lat="41.067995" lon="14.3304617"><ele>64.0</ele><time>2026-05-04T09:22:23.122Z</time></trkpt><trkpt lat="41.06811" lon="14.33047"><ele>64.0</ele><time>2026-05-04T09:22:25.121Z</time></trkpt><trkpt lat="41.06822" lon="14.3304767"><ele>64.0</ele><time>2026-05-04T09:22:27.121Z</time></trkpt><trkpt lat="41.0683317" lon="14.330485"><ele>64.0</ele><time>2026-05-04T09:22:29.12Z</time></trkpt><trkpt lat="41.0684433" lon="14.3304917"><ele>64.0</ele><time>2026-05-04T09:22:31.121Z</time></trkpt><trkpt lat="41.0685617" lon="14.3305017"><ele>64.5</ele><time>2026-05-04T09:22:33.122Z</time></trkpt><trkpt lat="41.0686783" lon="14.3305117"><ele>65.0</ele><time>2026-05-04T09:22:35.12Z</time></trkpt><trkpt lat="41.0687967" lon="14.330515"><ele>65.5</ele><time>2026-05-04T09:22:37.123Z</time></trkpt><trkpt lat="41.0689117" lon="14.3305267"><ele>66.0</ele><time>2026-05-04T09:22:39.121Z</time></trkpt><trkpt lat="41.0690317" lon="14.3305433"><ele>66.5</ele><time>2026-05-04T09:22:41.12Z</time></trkpt><trkpt lat="41.069155" lon="14.33055"><ele>67.0</ele><time>2026-05-04T09:22:43.122Z</time></trkpt><trkpt lat="41.0692183" lon="14.3305567"><ele>67.5</ele><time>2026-05-04T09:22:44.12Z</time></trkpt><trkpt lat="41.069285" lon="14.3305633"><ele>68.0</ele><time>2026-05-04T09:22:45.119Z</time></trkpt><trkpt lat="41.0693533" lon="14.3305683"><ele>68.5</ele><time>2026-05-04T09:22:46.122Z</time></trkpt><trkpt lat="41.069425" lon="14.3305733"><ele>69.0</ele><time>2026-05-04T09:22:47.121Z</time></trkpt><trkpt lat="41.0694967" lon="14.33058"><ele>69.33333333333333</ele><time>2026-05-04T09:22:48.121Z</time></trkpt><trkpt lat="41.0695717" lon="14.3305867"><ele>69.66666666666667</ele><time>2026-05-04T09:22:49.122Z</time></trkpt><trkpt lat="41.0696467" lon="14.3305933"><ele>70.0</ele><time>2026-05-04T09:22:50.121Z</time></trkpt><trkpt lat="41.069725" lon="14.33061"><ele>70.33333333333334</ele><time>2026-05-04T09:22:51.12Z</time></trkpt><trkpt lat="41.0698033" lon="14.330635"><ele>70.66666666666667</ele><time>2026-05-04T09:22:52.12Z</time></trkpt><trkpt lat="41.0698767" lon="14.3306733"><ele>71.0</ele><time>2026-05-04T09:22:53.121Z</time></trkpt><trkpt lat="41.0699333" lon="14.3307183"><ele>70.5</ele><time>2026-05-04T09:22:54.12Z</time></trkpt><trkpt lat="41.0700217" lon="14.330835"><ele>70.0</ele><time>2026-05-04T09:22:56.123Z</time></trkpt><trkpt lat="41.07006" lon="14.33091"><ele>69.5</ele><time>2026-05-04T09:22:57.122Z</time></trkpt><trkpt lat="41.070095" lon="14.3309883"><ele>69.0</ele><time>2026-05-04T09:22:58.122Z</time></trkpt><trkpt lat="41.07012" lon="14.3310717"><ele>68.5</ele><time>2026-05-04T09:22:59.121Z</time></trkpt><trkpt lat="41.0701417" lon="14.331225"><ele>68.0</ele><time>2026-05-04T09:23:01.119Z</time></trkpt><trkpt lat="41.070155" lon="14.3313683"><ele>68.0</ele><time>2026-05-04T09:23:03.12Z</time></trkpt><trkpt lat="41.0701633" lon="14.3314867"><ele>68.0</ele><time>2026-05-04T09:23:05.121Z</time></trkpt><trkpt lat="41.0701633" lon="14.3315867"><ele>68.0</ele><time>2026-05-04T09:23:08.122Z</time></trkpt><trkpt lat="41.0702283" lon="14.3315633"><ele>68.0</ele><time>2026-05-04T09:23:15.121Z</time></trkpt><trkpt lat="41.0702783" lon="14.3314617"><ele>68.0</ele><time>2026-05-04T09:23:18.12Z</time></trkpt><trkpt lat="41.0703183" lon="14.331375"><ele>68.0</ele><time>2026-05-04T09:23:21.121Z</time></trkpt><trkpt lat="41.070385" lon="14.3313583"><ele>68.0</ele><time>2026-05-04T09:23:24.12Z</time></trkpt><trkpt lat="41.0704517" lon="14.3313333"><ele>68.0</ele><time>2026-05-04T09:23:27.121Z</time></trkpt><trkpt lat="41.0705233" lon="14.3313117"><ele>68.0</ele><time>2026-05-04T09:23:30.122Z</time></trkpt><trkpt lat="41.0705983" lon="14.33132"><ele>68.0</ele><time>2026-05-04T09:23:34.12Z</time></trkpt><trkpt lat="41.0706983" lon="14.3313117"><ele>68.0</ele><time>2026-05-04T09:23:39.121Z</time></trkpt><trkpt lat="41.0707617" lon="14.3312767"><ele>68.0</ele><time>2026-05-04T09:23:42.12Z</time></trkpt><trkpt lat="41.0708583" lon="14.3312683"><ele>67.83333333333334</ele><time>2026-05-04T09:23:45.122Z</time></trkpt><trkpt lat="41.0709183" lon="14.3312967"><ele>67.66666666666667</ele><time>2026-05-04T09:23:47.12Z</time></trkpt><trkpt lat="41.0709883" lon="14.3312833"><ele>67.5</ele><time>2026-05-04T09:23:52.118Z</time></trkpt><trkpt lat="41.0711" lon="14.33123"><ele>67.33333333333333</ele><time>2026-05-04T09:23:59.121Z</time></trkpt><trkpt lat="41.0711683" lon="14.331205"><ele>67.16666666666666</ele><time>2026-05-04T09:24:02.121Z</time></trkpt><trkpt lat="41.0712533" lon="14.3312083"><ele>67.0</ele><time>2026-05-04T09:24:04.121Z</time></trkpt><trkpt lat="41.071335" lon="14.3312167"><ele>67.0</ele><time>2026-05-04T09:24:06.121Z</time></trkpt><trkpt lat="41.0714" lon="14.3312333"><ele>67.0</ele><time>2026-05-04T09:24:08.121Z</time></trkpt><trkpt lat="41.0714733" lon="14.3312367"><ele>67.0</ele><time>2026-05-04T09:24:11.121Z</time></trkpt><trkpt lat="41.0715383" lon="14.331235"><ele>67.0</ele><time>2026-05-04T09:24:15.122Z</time></trkpt><trkpt lat="41.0716017" lon="14.3312633"><ele>67.0</ele><time>2026-05-04T09:24:19.121Z</time></trkpt><trkpt lat="41.0717033" lon="14.3312617"><ele>67.0</ele><time>2026-05-04T09:24:22.12Z</time></trkpt><trkpt lat="41.07179" lon="14.3312683"><ele>67.66666666666666</ele><time>2026-05-04T09:24:24.121Z</time></trkpt><trkpt lat="41.071875" lon="14.33129"><ele>68.33333333333333</ele><time>2026-05-04T09:24:26.123Z</time></trkpt><trkpt lat="41.07195" lon="14.3313067"><ele>69.0</ele><time>2026-05-04T09:24:28.12Z</time></trkpt><trkpt lat="41.0720417" lon="14.331335"><ele>69.66666666666667</ele><time>2026-05-04T09:24:31.121Z</time></trkpt><trkpt lat="41.0721183" lon="14.3313367"><ele>70.33333333333334</ele><time>2026-05-04T09:24:33.121Z</time></trkpt><trkpt lat="41.0721867" lon="14.3313117"><ele>71.0</ele><time>2026-05-04T09:24:35.122Z</time></trkpt><trkpt lat="41.0722517" lon="14.3312917"><ele>71.0</ele><time>2026-05-04T09:24:37.121Z</time></trkpt><trkpt lat="41.072345" lon="14.33131"><ele>71.0</ele><time>2026-05-04T09:24:40.121Z</time></trkpt><trkpt lat="41.0724183" lon="14.331315"><ele>71.0</ele><time>2026-05-04T09:24:42.121Z</time></trkpt><trkpt lat="41.072495" lon="14.3313217"><ele>71.0</ele><time>2026-05-04T09:24:44.121Z</time></trkpt><trkpt lat="41.0725667" lon="14.3313317"><ele>71.0</ele><time>2026-05-04T09:24:46.122Z</time></trkpt><trkpt lat="41.0726517" lon="14.33133"><ele>71.0</ele><time>2026-05-04T09:24:48.119Z</time></trkpt><trkpt lat="41.072745" lon="14.3313333"><ele>71.2</ele><time>2026-05-04T09:24:50.121Z</time></trkpt><trkpt lat="41.0728367" lon="14.33133"><ele>71.39999999999999</ele><time>2026-05-04T09:24:52.121Z</time></trkpt><trkpt lat="41.0729283" lon="14.3313367"><ele>71.6</ele><time>2026-05-04T09:24:54.121Z</time></trkpt><trkpt lat="41.0730267" lon="14.3313283"><ele>71.8</ele><time>2026-05-04T09:24:56.122Z</time></trkpt><trkpt lat="41.073135" lon="14.3313433"><ele>72.0</ele><time>2026-05-04T09:24:58.122Z</time></trkpt><trkpt lat="41.07324" lon="14.3313567"><ele>72.4</ele><time>2026-05-04T09:25:00.121Z</time></trkpt><trkpt lat="41.073345" lon="14.3313667"><ele>72.80000000000001</ele><time>2026-05-04T09:25:02.121Z</time></trkpt><trkpt lat="41.0734483" lon="14.3313833"><ele>73.2</ele><time>2026-05-04T09:25:04.122Z</time></trkpt><trkpt lat="41.07355" lon="14.3313883"><ele>73.60000000000001</ele><time>2026-05-04T09:25:06.121Z</time></trkpt><trkpt lat="41.0736483" lon="14.3313967"><ele>74.0</ele><time>2026-05-04T09:25:08.122Z</time></trkpt><trkpt lat="41.073755" lon="14.331395"><ele>74.0</ele><time>2026-05-04T09:25:10.119Z</time></trkpt><trkpt lat="41.0738683" lon="14.33139"><ele>74.0</ele><time>2026-05-04T09:25:12.122Z</time></trkpt><trkpt lat="41.073975" lon="14.33139"><ele>74.0</ele><time>2026-05-04T09:25:14.122Z</time></trkpt><trkpt lat="41.0740767" lon="14.3313917"><ele>74.0</ele><time>2026-05-04T09:25:16.122Z</time></trkpt><trkpt lat="41.0741783" lon="14.3313983"><ele>74.0</ele><time>2026-05-04T09:25:18.125Z</time></trkpt><trkpt lat="41.0742917" lon="14.3314083"><ele>74.8</ele><time>2026-05-04T09:25:20.123Z</time></trkpt><trkpt lat="41.0744067" lon="14.3314217"><ele>75.60000000000001</ele><time>2026-05-04T09:25:22.121Z</time></trkpt><trkpt lat="41.0745133" lon="14.3314317"><ele>76.4</ele><time>2026-05-04T09:25:24.122Z</time></trkpt><trkpt lat="41.0746133" lon="14.33144"><ele>77.2</ele><time>2026-05-04T09:25:26.121Z</time></trkpt><trkpt lat="41.07471" lon="14.3314633"><ele>78.0</ele><time>2026-05-04T09:25:28.121Z</time></trkpt><trkpt lat="41.0747917" lon="14.3314767"><ele>78.0</ele><time>2026-05-04T09:25:30.122Z</time></trkpt><trkpt lat="41.0748717" lon="14.3314817"><ele>78.0</ele><time>2026-05-04T09:25:32.123Z</time></trkpt><trkpt lat="41.0749483" lon="14.3314617"><ele>78.0</ele><time>2026-05-04T09:25:36.121Z</time></trkpt><trkpt lat="41.07503" lon="14.331425"><ele>78.0</ele><time>2026-05-04T09:25:39.123Z</time></trkpt><trkpt lat="41.0751167" lon="14.3313883"><ele>78.0</ele><time>2026-05-04T09:25:42.121Z</time></trkpt><trkpt lat="41.0751867" lon="14.3313633"><ele>78.0</ele><time>2026-05-04T09:25:44.12Z</time></trkpt><trkpt lat="41.07526" lon="14.3313483"><ele>77.57142857142857</ele><time>2026-05-04T09:25:46.122Z</time></trkpt><trkpt lat="41.0753333" lon="14.33134"><ele>77.14285714285714</ele><time>2026-05-04T09:25:48.122Z</time></trkpt><trkpt lat="41.0754033" lon="14.3313317"><ele>76.71428571428571</ele><time>2026-05-04T09:25:50.123Z</time></trkpt><trkpt lat="41.07548" lon="14.331325"><ele>76.28571428571428</ele><time>2026-05-04T09:25:52.119Z</time></trkpt><trkpt lat="41.0755583" lon="14.3313217"><ele>75.85714285714286</ele><time>2026-05-04T09:25:54.12Z</time></trkpt><trkpt lat="41.0756283" lon="14.3313117"><ele>75.42857142857142</ele><time>2026-05-04T09:25:56.122Z</time></trkpt><trkpt lat="41.0757017" lon="14.3313083"><ele>75.0</ele><time>2026-05-04T09:25:58.121Z</time></trkpt><trkpt lat="41.07577" lon="14.3312967"><ele>74.66666666666667</ele><time>2026-05-04T09:26:00.12Z</time></trkpt><trkpt lat="41.075835" lon="14.331295"><ele>74.33333333333333</ele><time>2026-05-04T09:26:02.12Z</time></trkpt><trkpt lat="41.0759083" lon="14.331295"><ele>74.0</ele><time>2026-05-04T09:26:04.119Z</time></trkpt><trkpt lat="41.07599" lon="14.3312917"><ele>73.66666666666666</ele><time>2026-05-04T09:26:06.121Z</time></trkpt><trkpt lat="41.0760767" lon="14.3312783"><ele>73.33333333333333</ele><time>2026-05-04T09:26:08.121Z</time></trkpt><trkpt lat="41.076155" lon="14.3312833"><ele>73.0</ele><time>2026-05-04T09:26:10.121Z</time></trkpt><trkpt lat="41.0762283" lon="14.3312883"><ele>73.0</ele><time>2026-05-04T09:26:12.123Z</time></trkpt><trkpt lat="41.0763083" lon="14.3312817"><ele>73.0</ele><time>2026-05-04T09:26:14.121Z</time></trkpt><trkpt lat="41.076395" lon="14.3312733"><ele>73.0</ele><time>2026-05-04T09:26:16.121Z</time></trkpt><trkpt lat="41.0764883" lon="14.331265"><ele>73.0</ele><time>2026-05-04T09:26:18.123Z</time></trkpt><trkpt lat="41.0765783" lon="14.3312567"><ele>73.0</ele><time>2026-05-04T09:26:20.121Z</time></trkpt><trkpt lat="41.0766717" lon="14.3312483"><ele>73.0</ele><time>2026-05-04T09:26:22.121Z</time></trkpt><trkpt lat="41.0767717" lon="14.3312567"><ele>72.83333333333333</ele><time>2026-05-04T09:26:24.121Z</time></trkpt><trkpt lat="41.07686" lon="14.3312633"><ele>72.66666666666666</ele><time>2026-05-04T09:26:26.122Z</time></trkpt><trkpt lat="41.076945" lon="14.3312667"><ele>72.5</ele><time>2026-05-04T09:26:28.12Z</time></trkpt><trkpt lat="41.0770217" lon="14.3312817"><ele>72.33333333333333</ele><time>2026-05-04T09:26:30.12Z</time></trkpt><trkpt lat="41.077095" lon="14.3312867"><ele>72.16666666666667</ele><time>2026-05-04T09:26:32.121Z</time></trkpt><trkpt lat="41.0771617" lon="14.3312933"><ele>72.0</ele><time>2026-05-04T09:26:34.12Z</time></trkpt><trkpt lat="41.0772367" lon="14.3313033"><ele>72.0</ele><time>2026-05-04T09:26:37.122Z</time></trkpt><trkpt lat="41.0772983" lon="14.3313333"><ele>72.0</ele><time>2026-05-04T09:26:40.122Z</time></trkpt><trkpt lat="41.0773917" lon="14.33132"><ele>72.0</ele><time>2026-05-04T09:26:43.121Z</time></trkpt><trkpt lat="41.0774767" lon="14.3313"><ele>72.0</ele><time>2026-05-04T09:26:45.122Z</time></trkpt><trkpt lat="41.07757" lon="14.3312967"><ele>72.0</ele><time>2026-05-04T09:26:47.122Z</time></trkpt><trkpt lat="41.0776633" lon="14.3312967"><ele>72.0</ele><time>2026-05-04T09:26:49.118Z</time></trkpt><trkpt lat="41.07776" lon="14.3313033"><ele>73.6</ele><time>2026-05-04T09:26:51.122Z</time></trkpt><trkpt lat="41.07786" lon="14.3313117"><ele>75.2</ele><time>2026-05-04T09:26:53.121Z</time></trkpt><trkpt lat="41.0779583" lon="14.3313167"><ele>76.8</ele><time>2026-05-04T09:26:55.122Z</time></trkpt><trkpt lat="41.0780533" lon="14.331315"><ele>78.4</ele><time>2026-05-04T09:26:57.119Z</time></trkpt><trkpt lat="41.0781433" lon="14.331315"><ele>80.0</ele><time>2026-05-04T09:26:59.121Z</time></trkpt><trkpt lat="41.07823" lon="14.331325"><ele>80.16666666666667</ele><time>2026-05-04T09:27:01.12Z</time></trkpt><trkpt lat="41.07831" lon="14.3313417"><ele>80.33333333333334</ele><time>2026-05-04T09:27:03.12Z</time></trkpt><trkpt lat="41.0783883" lon="14.3313467"><ele>80.5</ele><time>2026-05-04T09:27:05.122Z</time></trkpt><trkpt lat="41.0784683" lon="14.3313483"><ele>80.66666666666667</ele><time>2026-05-04T09:27:07.125Z</time></trkpt><trkpt lat="41.078545" lon="14.3313283"><ele>80.83333333333333</ele><time>2026-05-04T09:27:09.122Z</time></trkpt><trkpt lat="41.0786117" lon="14.331335"><ele>81.0</ele><time>2026-05-04T09:27:12.12Z</time></trkpt><trkpt lat="41.0786933" lon="14.3313267"><ele>81.0</ele><time>2026-05-04T09:27:15.121Z</time></trkpt><trkpt lat="41.0787667" lon="14.3313083"><ele>81.0</ele><time>2026-05-04T09:27:17.122Z</time></trkpt><trkpt lat="41.07884" lon="14.33129"><ele>81.0</ele><time>2026-05-04T09:27:19.122Z</time></trkpt><trkpt lat="41.0789233" lon="14.3312867"><ele>81.0</ele><time>2026-05-04T09:27:21.121Z</time></trkpt><trkpt lat="41.0790183" lon="14.3312833"><ele>81.0</ele><time>2026-05-04T09:27:23.122Z</time></trkpt><trkpt lat="41.0791167" lon="14.33128"><ele>81.0</ele><time>2026-05-04T09:27:25.121Z</time></trkpt><trkpt lat="41.079215" lon="14.3312933"><ele>81.4</ele><time>2026-05-04T09:27:27.121Z</time></trkpt><trkpt lat="41.07931" lon="14.33129"><ele>81.8</ele><time>2026-05-04T09:27:29.121Z</time></trkpt><trkpt lat="41.0794117" lon="14.3312967"><ele>82.2</ele><time>2026-05-04T09:27:31.12Z</time></trkpt><trkpt lat="41.07952" lon="14.3312917"><ele>82.60000000000001</ele><time>2026-05-04T09:27:33.12Z</time></trkpt><trkpt lat="41.0796267" lon="14.3312983"><ele>83.0</ele><time>2026-05-04T09:27:35.121Z</time></trkpt><trkpt lat="41.0797267" lon="14.3313"><ele>83.0</ele><time>2026-05-04T09:27:37.12Z</time></trkpt><trkpt lat="41.0798283" lon="14.3313133"><ele>83.0</ele><time>2026-05-04T09:27:39.121Z</time></trkpt><trkpt lat="41.0799283" lon="14.3313283"><ele>83.0</ele><time>2026-05-04T09:27:41.12Z</time></trkpt><trkpt lat="41.0800267" lon="14.3313267"><ele>83.0</ele><time>2026-05-04T09:27:43.12Z</time></trkpt><trkpt lat="41.0801217" lon="14.33134"><ele>83.0</ele><time>2026-05-04T09:27:45.121Z</time></trkpt><trkpt lat="41.0802233" lon="14.331355"><ele>82.4</ele><time>2026-05-04T09:27:47.121Z</time></trkpt><trkpt lat="41.0803233" lon="14.33136"><ele>81.80000000000001</ele><time>2026-05-04T09:27:49.12Z</time></trkpt><trkpt lat="41.0804283" lon="14.331365"><ele>81.2</ele><time>2026-05-04T09:27:51.119Z</time></trkpt><trkpt lat="41.080535" lon="14.3313733"><ele>80.6</ele><time>2026-05-04T09:27:53.121Z</time></trkpt><trkpt lat="41.0806367" lon="14.3313817"><ele>80.0</ele><time>2026-05-04T09:27:55.121Z</time></trkpt><trkpt lat="41.0807383" lon="14.3313867"><ele>80.2</ele><time>2026-05-04T09:27:57.122Z</time></trkpt><trkpt lat="41.080845" lon="14.3313817"><ele>80.4</ele><time>2026-05-04T09:27:59.121Z</time></trkpt><trkpt lat="41.0809467" lon="14.3313817"><ele>80.6</ele><time>2026-05-04T09:28:01.12Z</time></trkpt><trkpt lat="41.0810467" lon="14.3313883"><ele>80.8</ele><time>2026-05-04T09:28:03.12Z</time></trkpt><trkpt lat="41.08114" lon="14.3313917"><ele>81.0</ele><time>2026-05-04T09:28:05.121Z</time></trkpt><trkpt lat="41.0812267" lon="14.33139"><ele>81.0</ele><time>2026-05-04T09:28:07.119Z</time></trkpt><trkpt lat="41.0813117" lon="14.3313783"><ele>81.0</ele><time>2026-05-04T09:28:09.12Z</time></trkpt><trkpt lat="41.0813883" lon="14.33137"><ele>81.0</ele><time>2026-05-04T09:28:12.121Z</time></trkpt><trkpt lat="41.0814617" lon="14.3313467"><ele>81.0</ele><time>2026-05-04T09:28:16.12Z</time></trkpt><trkpt lat="41.0815383" lon="14.3313917"><ele>81.0</ele><time>2026-05-04T09:28:18.121Z</time></trkpt><trkpt lat="41.0816333" lon="14.3314117"><ele>81.0</ele><time>2026-05-04T09:28:20.12Z</time></trkpt><trkpt lat="41.0817433" lon="14.3314017"><ele>81.0</ele><time>2026-05-04T09:28:22.121Z</time></trkpt><trkpt lat="41.0818533" lon="14.3313967"><ele>81.0</ele><time>2026-05-04T09:28:24.12Z</time></trkpt><trkpt lat="41.0819617" lon="14.3313933"><ele>81.0</ele><time>2026-05-04T09:28:26.122Z</time></trkpt><trkpt lat="41.08206" lon="14.3313817"><ele>81.0</ele><time>2026-05-04T09:28:28.12Z</time></trkpt><trkpt lat="41.0821733" lon="14.3313683"><ele>81.0</ele><time>2026-05-04T09:28:30.121Z</time></trkpt><trkpt lat="41.0822783" lon="14.33136"><ele>81.0</ele><time>2026-05-04T09:28:32.121Z</time></trkpt><trkpt lat="41.0823783" lon="14.33135"><ele>81.0</ele><time>2026-05-04T09:28:34.12Z</time></trkpt><trkpt lat="41.0824833" lon="14.33134"><ele>81.0</ele><time>2026-05-04T09:28:36.12Z</time></trkpt><trkpt lat="41.0825917" lon="14.3313417"><ele>81.0</ele><time>2026-05-04T09:28:38.121Z</time></trkpt><trkpt lat="41.0827" lon="14.3313433"><ele>81.0</ele><time>2026-05-04T09:28:40.12Z</time></trkpt><trkpt lat="41.0828067" lon="14.3313383"><ele>80.2</ele><time>2026-05-04T09:28:42.12Z</time></trkpt><trkpt lat="41.0829117" lon="14.33133"><ele>79.39999999999999</ele><time>2026-05-04T09:28:44.121Z</time></trkpt><trkpt lat="41.0830117" lon="14.331335"><ele>78.6</ele><time>2026-05-04T09:28:46.12Z</time></trkpt><trkpt lat="41.083105" lon="14.331345"><ele>77.8</ele><time>2026-05-04T09:28:48.121Z</time></trkpt><trkpt lat="41.0831983" lon="14.3313467"><ele>77.0</ele><time>2026-05-04T09:28:50.121Z</time></trkpt><trkpt lat="41.083295" lon="14.3313617"><ele>77.0</ele><time>2026-05-04T09:28:52.118Z</time></trkpt><trkpt lat="41.083395" lon="14.331365"><ele>77.0</ele><time>2026-05-04T09:28:54.122Z</time></trkpt><trkpt lat="41.08349" lon="14.3313783"><ele>77.0</ele><time>2026-05-04T09:28:56.121Z</time></trkpt><trkpt lat="41.0835967" lon="14.331375"><ele>77.0</ele><time>2026-05-04T09:28:58.12Z</time></trkpt><trkpt lat="41.083705" lon="14.3313633"><ele>77.0</ele><time>2026-05-04T09:29:00.122Z</time></trkpt><trkpt lat="41.08381" lon="14.331355"><ele>77.0</ele><time>2026-05-04T09:29:02.119Z</time></trkpt><trkpt lat="41.083915" lon="14.33135"><ele>77.0</ele><time>2026-05-04T09:29:04.119Z</time></trkpt><trkpt lat="41.0840217" lon="14.331355"><ele>77.0</ele><time>2026-05-04T09:29:06.122Z</time></trkpt><trkpt lat="41.084125" lon="14.3313567"><ele>77.0</ele><time>2026-05-04T09:29:08.121Z</time></trkpt><trkpt lat="41.0842283" lon="14.3313483"><ele>77.0</ele><time>2026-05-04T09:29:10.121Z</time></trkpt><trkpt lat="41.084335" lon="14.3313467"><ele>77.4</ele><time>2026-05-04T09:29:12.12Z</time></trkpt><trkpt lat="41.084435" lon="14.33135"><ele>77.80000000000001</ele><time>2026-05-04T09:29:14.122Z</time></trkpt><trkpt lat="41.0845333" lon="14.33135"><ele>78.2</ele><time>2026-05-04T09:29:16.12Z</time></trkpt><trkpt lat="41.0846383" lon="14.33134"><ele>78.60000000000001</ele><time>2026-05-04T09:29:18.121Z</time></trkpt><trkpt lat="41.0847417" lon="14.3313433"><ele>79.0</ele><time>2026-05-04T09:29:20.121Z</time></trkpt><trkpt lat="41.08484" lon="14.3313467"><ele>79.2</ele><time>2026-05-04T09:29:22.12Z</time></trkpt><trkpt lat="41.0849383" lon="14.331365"><ele>79.4</ele><time>2026-05-04T09:29:24.121Z</time></trkpt><trkpt lat="41.0850217" lon="14.3313783"><ele>79.6</ele><time>2026-05-04T09:29:26.121Z</time></trkpt><trkpt lat="41.085105" lon="14.331375"><ele>79.8</ele><time>2026-05-04T09:29:28.122Z</time></trkpt><trkpt lat="41.0852" lon="14.3313567"><ele>80.0</ele><time>2026-05-04T09:29:30.122Z</time></trkpt><trkpt lat="41.085295" lon="14.3313567"><ele>80.0</ele><time>2026-05-04T09:29:32.123Z</time></trkpt><trkpt lat="41.0853867" lon="14.331355"><ele>80.0</ele><time>2026-05-04T09:29:34.122Z</time></trkpt><trkpt lat="41.085485" lon="14.331345"><ele>80.0</ele><time>2026-05-04T09:29:36.123Z</time></trkpt><trkpt lat="41.0855833" lon="14.331345"><ele>80.0</ele><time>2026-05-04T09:29:38.123Z</time></trkpt><trkpt lat="41.085685" lon="14.3313433"><ele>80.0</ele><time>2026-05-04T09:29:40.122Z</time></trkpt><trkpt lat="41.08579" lon="14.3313483"><ele>80.6</ele><time>2026-05-04T09:29:42.124Z</time></trkpt><trkpt lat="41.0858917" lon="14.331345"><ele>81.2</ele><time>2026-05-04T09:29:44.121Z</time></trkpt><trkpt lat="41.0859933" lon="14.3313367"><ele>81.80000000000001</ele><time>2026-05-04T09:29:46.122Z</time></trkpt><trkpt lat="41.0860917" lon="14.33134"><ele>82.4</ele><time>2026-05-04T09:29:48.123Z</time></trkpt><trkpt lat="41.0861817" lon="14.3313483"><ele>83.0</ele><time>2026-05-04T09:29:50.119Z</time></trkpt><trkpt lat="41.086275" lon="14.3313467"><ele>83.0</ele><time>2026-05-04T09:29:52.123Z</time></trkpt><trkpt lat="41.0863717" lon="14.331335"><ele>83.0</ele><time>2026-05-04T09:29:54.123Z</time></trkpt><trkpt lat="41.0864683" lon="14.33133"><ele>83.0</ele><time>2026-05-04T09:29:56.12Z</time></trkpt><trkpt lat="41.086555" lon="14.3313317"><ele>83.0</ele><time>2026-05-04T09:29:58.123Z</time></trkpt><trkpt lat="41.0866433" lon="14.3313333"><ele>83.0</ele><time>2026-05-04T09:30:00.124Z</time></trkpt><trkpt lat="41.0867383" lon="14.3313283"><ele>83.60000000000001</ele><time>2026-05-04T09:30:02.122Z</time></trkpt><trkpt lat="41.086845" lon="14.3313317"><ele>84.2</ele><time>2026-05-04T09:30:04.12Z</time></trkpt><trkpt lat="41.0869517" lon="14.3313333"><ele>84.8</ele><time>2026-05-04T09:30:06.121Z</time></trkpt><trkpt lat="41.087055" lon="14.3313333"><ele>85.4</ele><time>2026-05-04T09:30:08.119Z</time></trkpt><trkpt lat="41.0871517" lon="14.331325"><ele>86.0</ele><time>2026-05-04T09:30:10.12Z</time></trkpt><trkpt lat="41.087255" lon="14.3313117"><ele>86.0</ele><time>2026-05-04T09:30:12.122Z</time></trkpt><trkpt lat="41.087355" lon="14.3313117"><ele>86.0</ele><time>2026-05-04T09:30:14.121Z</time></trkpt><trkpt lat="41.0874483" lon="14.3313217"><ele>86.0</ele><time>2026-05-04T09:30:16.121Z</time></trkpt><trkpt lat="41.0875433" lon="14.3313417"><ele>86.0</ele><time>2026-05-04T09:30:18.121Z</time></trkpt><trkpt lat="41.0876467" lon="14.33135"><ele>86.0</ele><time>2026-05-04T09:30:20.122Z</time></trkpt><trkpt lat="41.08775" lon="14.33135"><ele>86.0</ele><time>2026-05-04T09:30:22.12Z</time></trkpt><trkpt lat="41.0878517" lon="14.33135"><ele>86.0</ele><time>2026-05-04T09:30:24.12Z</time></trkpt><trkpt lat="41.0879517" lon="14.3313467"><ele>86.0</ele><time>2026-05-04T09:30:26.121Z</time></trkpt><trkpt lat="41.0880467" lon="14.331345"><ele>86.0</ele><time>2026-05-04T09:30:28.121Z</time></trkpt><trkpt lat="41.088135" lon="14.3313517"><ele>86.0</ele><time>2026-05-04T09:30:30.122Z</time></trkpt><trkpt lat="41.08824" lon="14.3313433"><ele>86.19999999999999</ele><time>2026-05-04T09:30:32.12Z</time></trkpt><trkpt lat="41.0883467" lon="14.3313417"><ele>86.39999999999999</ele><time>2026-05-04T09:30:34.119Z</time></trkpt><trkpt lat="41.0884517" lon="14.3313417"><ele>86.6</ele><time>2026-05-04T09:30:36.121Z</time></trkpt><trkpt lat="41.0885617" lon="14.33134"><ele>86.8</ele><time>2026-05-04T09:30:38.121Z</time></trkpt><trkpt lat="41.0886667" lon="14.33134"><ele>87.0</ele><time>2026-05-04T09:30:40.12Z</time></trkpt><trkpt lat="41.08877" lon="14.3313367"><ele>87.0</ele><time>2026-05-04T09:30:42.122Z</time></trkpt><trkpt lat="41.0888733" lon="14.33133"><ele>87.0</ele><time>2026-05-04T09:30:44.121Z</time></trkpt><trkpt lat="41.08898" lon="14.3313217"><ele>87.0</ele><time>2026-05-04T09:30:46.119Z</time></trkpt><trkpt lat="41.0890833" lon="14.3313233"><ele>87.0</ele><time>2026-05-04T09:30:48.12Z</time></trkpt><trkpt lat="41.0891883" lon="14.3313217"><ele>87.0</ele><time>2026-05-04T09:30:50.122Z</time></trkpt><trkpt lat="41.0892983" lon="14.3313233"><ele>87.6</ele><time>2026-05-04T09:30:52.12Z</time></trkpt><trkpt lat="41.0894017" lon="14.3313267"><ele>88.19999999999999</ele><time>2026-05-04T09:30:54.12Z</time></trkpt><trkpt lat="41.0895067" lon="14.3313283"><ele>88.8</ele><time>2026-05-04T09:30:56.121Z</time></trkpt><trkpt lat="41.0896133" lon="14.3313367"><ele>89.4</ele><time>2026-05-04T09:30:58.121Z</time></trkpt><trkpt lat="41.089725" lon="14.3313417"><ele>90.0</ele><time>2026-05-04T09:31:00.121Z</time></trkpt><trkpt lat="41.0898383" lon="14.3313383"><ele>90.8</ele><time>2026-05-04T09:31:02.119Z</time></trkpt><trkpt lat="41.0899483" lon="14.3313267"><ele>91.6</ele><time>2026-05-04T09:31:04.121Z</time></trkpt><trkpt lat="41.0900533" lon="14.331325"><ele>92.4</ele><time>2026-05-04T09:31:06.12Z</time></trkpt><trkpt lat="41.0901567" lon="14.3313167"><ele>93.2</ele><time>2026-05-04T09:31:08.12Z</time></trkpt><trkpt lat="41.0902567" lon="14.33129"><ele>94.0</ele><time>2026-05-04T09:31:10.121Z</time></trkpt><trkpt lat="41.0903567" lon="14.33123"><ele>94.0</ele><time>2026-05-04T09:31:12.119Z</time></trkpt><trkpt lat="41.09045" lon="14.3311483"><ele>94.0</ele><time>2026-05-04T09:31:14.121Z</time></trkpt><trkpt lat="41.0905533" lon="14.33105"><ele>94.0</ele><time>2026-05-04T09:31:16.119Z</time></trkpt><trkpt lat="41.0906517" lon="14.3309517"><ele>94.0</ele><time>2026-05-04T09:31:18.119Z</time></trkpt><trkpt lat="41.090735" lon="14.3308317"><ele>94.0</ele><time>2026-05-04T09:31:20.12Z</time></trkpt><trkpt lat="41.0908083" lon="14.330695"><ele>94.0</ele><time>2026-05-04T09:31:22.119Z</time></trkpt><trkpt lat="41.090865" lon="14.330545"><ele>94.0</ele><time>2026-05-04T09:31:24.119Z</time></trkpt><trkpt lat="41.0909083" lon="14.330395"><ele>94.0</ele><time>2026-05-04T09:31:26.121Z</time></trkpt><trkpt lat="41.0909333" lon="14.3302417"><ele>94.0</ele><time>2026-05-04T09:31:28.119Z</time></trkpt><trkpt lat="41.0909433" lon="14.3300883"><ele>94.0</ele><time>2026-05-04T09:31:30.121Z</time></trkpt><trkpt lat="41.090945" lon="14.32993"><ele>94.0</ele><time>2026-05-04T09:31:32.121Z</time></trkpt><trkpt lat="41.0909483" lon="14.329765"><ele>94.0</ele><time>2026-05-04T09:31:34.119Z</time></trkpt><trkpt lat="41.0909467" lon="14.3296"><ele>93.4</ele><time>2026-05-04T09:31:36.119Z</time></trkpt><trkpt lat="41.0909433" lon="14.329515"><ele>92.80000000000001</ele><time>2026-05-04T09:31:37.119Z</time></trkpt><trkpt lat="41.090945" lon="14.32943"><ele>92.19999999999999</ele><time>2026-05-04T09:31:38.121Z</time></trkpt><trkpt lat="41.090945" lon="14.3292633"><ele>91.6</ele><time>2026-05-04T09:31:40.118Z</time></trkpt><trkpt lat="41.0909567" lon="14.3291083"><ele>91.0</ele><time>2026-05-04T09:31:42.119Z</time></trkpt><trkpt lat="41.0909633" lon="14.3289517"><ele>91.16666666666666</ele><time>2026-05-04T09:31:44.122Z</time></trkpt><trkpt lat="41.0909633" lon="14.3288667"><ele>91.33333333333333</ele><time>2026-05-04T09:31:45.12Z</time></trkpt><trkpt lat="41.0909517" lon="14.3287233"><ele>91.5</ele><time>2026-05-04T09:31:47.121Z</time></trkpt><trkpt lat="41.0909367" lon="14.3285933"><ele>91.66666666666667</ele><time>2026-05-04T09:31:49.119Z</time></trkpt><trkpt lat="41.0909283" lon="14.32848"><ele>91.83333333333334</ele><time>2026-05-04T09:31:51.122Z</time></trkpt><trkpt lat="41.09092" lon="14.3283867"><ele>92.0</ele><time>2026-05-04T09:31:53.12Z</time></trkpt><trkpt lat="41.0909167" lon="14.32827"><ele>92.0</ele><time>2026-05-04T09:31:56.122Z</time></trkpt><trkpt lat="41.0909667" lon="14.3281533"><ele>92.0</ele><time>2026-05-04T09:31:58.12Z</time></trkpt><trkpt lat="41.0909517" lon="14.3280533"><ele>92.0</ele><time>2026-05-04T09:32:01.12Z</time></trkpt><trkpt lat="41.09098" lon="14.32796"><ele>92.0</ele><time>2026-05-04T09:32:03.12Z</time></trkpt><trkpt lat="41.09101" lon="14.3278567"><ele>92.0</ele><time>2026-05-04T09:32:05.119Z</time></trkpt><trkpt lat="41.091035" lon="14.32775"><ele>92.0</ele><time>2026-05-04T09:32:07.119Z</time></trkpt><trkpt lat="41.0910283" lon="14.3276533"><ele>92.66666666666667</ele><time>2026-05-04T09:32:09.121Z</time></trkpt><trkpt lat="41.09101" lon="14.327535"><ele>93.33333333333334</ele><time>2026-05-04T09:32:12.122Z</time></trkpt><trkpt lat="41.0909967" lon="14.327445"><ele>94.0</ele><time>2026-05-04T09:32:14.121Z</time></trkpt><trkpt lat="41.090985" lon="14.3273517"><ele>94.66666666666667</ele><time>2026-05-04T09:32:16.12Z</time></trkpt><trkpt lat="41.0909617" lon="14.3272567"><ele>95.33333333333333</ele><time>2026-05-04T09:32:18.121Z</time></trkpt><trkpt lat="41.090955" lon="14.3271567"><ele>96.0</ele><time>2026-05-04T09:32:20.12Z</time></trkpt><trkpt lat="41.0909533" lon="14.32705"><ele>96.19999999999999</ele><time>2026-05-04T09:32:22.119Z</time></trkpt><trkpt lat="41.090955" lon="14.32695"><ele>96.39999999999999</ele><time>2026-05-04T09:32:24.121Z</time></trkpt><trkpt lat="41.0909567" lon="14.3268267"><ele>96.6</ele><time>2026-05-04T09:32:26.12Z</time></trkpt><trkpt lat="41.09096" lon="14.3266983"><ele>96.8</ele><time>2026-05-04T09:32:28.12Z</time></trkpt><trkpt lat="41.0909583" lon="14.3265633"><ele>97.0</ele><time>2026-05-04T09:32:30.122Z</time></trkpt><trkpt lat="41.0909617" lon="14.3264317"><ele>97.0</ele><time>2026-05-04T09:32:32.121Z</time></trkpt><trkpt lat="41.0909783" lon="14.3262917"><ele>97.0</ele><time>2026-05-04T09:32:34.119Z</time></trkpt><trkpt lat="41.0909967" lon="14.3261683"><ele>97.0</ele><time>2026-05-04T09:32:36.12Z</time></trkpt><trkpt lat="41.0909967" lon="14.3260417"><ele>97.0</ele><time>2026-05-04T09:32:38.121Z</time></trkpt><trkpt lat="41.0909883" lon="14.3259167"><ele>97.0</ele><time>2026-05-04T09:32:40.12Z</time></trkpt><trkpt lat="41.0909683" lon="14.3257833"><ele>97.0</ele><time>2026-05-04T09:32:42.12Z</time></trkpt><trkpt lat="41.0909567" lon="14.325655"><ele>97.0</ele><time>2026-05-04T09:32:44.121Z</time></trkpt><trkpt lat="41.09095" lon="14.3255333"><ele>97.0</ele><time>2026-05-04T09:32:46.121Z</time></trkpt><trkpt lat="41.0909317" lon="14.32541"><ele>97.0</ele><time>2026-05-04T09:32:48.12Z</time></trkpt><trkpt lat="41.090935" lon="14.3252833"><ele>97.0</ele><time>2026-05-04T09:32:50.12Z</time></trkpt><trkpt lat="41.0909317" lon="14.3251433"><ele>97.39999999999999</ele><time>2026-05-04T09:32:52.12Z</time></trkpt><trkpt lat="41.090945" lon="14.32501"><ele>97.8</ele><time>2026-05-04T09:32:54.121Z</time></trkpt><trkpt lat="41.09103" lon="14.324895"><ele>98.2</ele><time>2026-05-04T09:32:56.121Z</time></trkpt><trkpt lat="41.09111" lon="14.3248283"><ele>98.6</ele><time>2026-05-04T09:32:58.12Z</time></trkpt><trkpt lat="41.0912217" lon="14.324825"><ele>99.0</ele><time>2026-05-04T09:33:00.121Z</time></trkpt><trkpt lat="41.09132" lon="14.32479"><ele>99.0</ele><time>2026-05-04T09:33:02.12Z</time></trkpt><trkpt lat="41.0914183" lon="14.32473"><ele>99.0</ele><time>2026-05-04T09:33:04.12Z</time></trkpt><trkpt lat="41.091515" lon="14.3246617"><ele>99.0</ele><time>2026-05-04T09:33:06.12Z</time></trkpt><trkpt lat="41.09161" lon="14.3246283"><ele>99.0</ele><time>2026-05-04T09:33:08.119Z</time></trkpt><trkpt lat="41.091705" lon="14.3245967"><ele>99.0</ele><time>2026-05-04T09:33:10.12Z</time></trkpt><trkpt lat="41.0918033" lon="14.324545"><ele>99.4</ele><time>2026-05-04T09:33:12.122Z</time></trkpt><trkpt lat="41.0919167" lon="14.3245"><ele>99.80000000000001</ele><time>2026-05-04T09:33:14.121Z</time></trkpt><trkpt lat="41.0919783" lon="14.32448"><ele>100.19999999999999</ele><time>2026-05-04T09:33:15.121Z</time></trkpt><trkpt lat="41.092095" lon="14.3244417"><ele>100.6</ele><time>2026-05-04T09:33:17.121Z</time></trkpt><trkpt lat="41.0921583" lon="14.3244217"><ele>101.0</ele><time>2026-05-04T09:33:18.121Z</time></trkpt><trkpt lat="41.092265" lon="14.3243683"><ele>101.0</ele><time>2026-05-04T09:33:20.12Z</time></trkpt><trkpt lat="41.0923817" lon="14.324325"><ele>101.0</ele><time>2026-05-04T09:33:22.12Z</time></trkpt><trkpt lat="41.092495" lon="14.3243133"><ele>101.0</ele><time>2026-05-04T09:33:24.12Z</time></trkpt><trkpt lat="41.0926033" lon="14.3243183"><ele>101.0</ele><time>2026-05-04T09:33:26.121Z</time></trkpt><trkpt lat="41.0927133" lon="14.3243317"><ele>101.6</ele><time>2026-05-04T09:33:28.12Z</time></trkpt><trkpt lat="41.092835" lon="14.3243133"><ele>102.19999999999999</ele><time>2026-05-04T09:33:30.12Z</time></trkpt><trkpt lat="41.0929417" lon="14.3243067"><ele>102.80000000000001</ele><time>2026-05-04T09:33:32.12Z</time></trkpt><trkpt lat="41.093045" lon="14.3242967"><ele>103.4</ele><time>2026-05-04T09:33:34.119Z</time></trkpt><trkpt lat="41.0931467" lon="14.3243283"><ele>104.0</ele><time>2026-05-04T09:33:36.12Z</time></trkpt><trkpt lat="41.0932567" lon="14.3243483"><ele>104.4</ele><time>2026-05-04T09:33:38.121Z</time></trkpt><trkpt lat="41.093365" lon="14.3243583"><ele>104.80000000000001</ele><time>2026-05-04T09:33:40.12Z</time></trkpt><trkpt lat="41.0934683" lon="14.3243667"><ele>105.19999999999999</ele><time>2026-05-04T09:33:42.12Z</time></trkpt><trkpt lat="41.093575" lon="14.32436"><ele>105.6</ele><time>2026-05-04T09:33:44.12Z</time></trkpt><trkpt lat="41.09368" lon="14.32436"><ele>106.0</ele><time>2026-05-04T09:33:46.119Z</time></trkpt><trkpt lat="41.09378" lon="14.3243633"><ele>106.0</ele><time>2026-05-04T09:33:48.12Z</time></trkpt><trkpt lat="41.0938833" lon="14.3243717"><ele>106.0</ele><time>2026-05-04T09:33:50.12Z</time></trkpt><trkpt lat="41.0939933" lon="14.3243783"><ele>106.0</ele><time>2026-05-04T09:33:52.12Z</time></trkpt><trkpt lat="41.0940933" lon="14.32436"><ele>106.0</ele><time>2026-05-04T09:33:54.119Z</time></trkpt><trkpt lat="41.0941967" lon="14.324335"><ele>106.0</ele><time>2026-05-04T09:33:56.12Z</time></trkpt><trkpt lat="41.0942933" lon="14.3243117"><ele>106.33333333333334</ele><time>2026-05-04T09:33:58.121Z</time></trkpt><trkpt lat="41.094375" lon="14.3242967"><ele>106.66666666666667</ele><time>2026-05-04T09:34:00.121Z</time></trkpt><trkpt lat="41.0944633" lon="14.324275"><ele>107.0</ele><time>2026-05-04T09:34:02.12Z</time></trkpt><trkpt lat="41.0945517" lon="14.3242767"><ele>107.33333333333334</ele><time>2026-05-04T09:34:04.12Z</time></trkpt><trkpt lat="41.0946383" lon="14.32427"><ele>107.66666666666667</ele><time>2026-05-04T09:34:06.119Z</time></trkpt><trkpt lat="41.0947283" lon="14.3242467"><ele>108.0</ele><time>2026-05-04T09:34:08.121Z</time></trkpt><trkpt lat="41.09482" lon="14.3241917"><ele>108.0</ele><time>2026-05-04T09:34:10.121Z</time></trkpt><trkpt lat="41.0949033" lon="14.32413"><ele>108.00000000000001</ele><time>2026-05-04T09:34:12.12Z</time></trkpt><trkpt lat="41.094985" lon="14.3240783"><ele>108.00000000000001</ele><time>2026-05-04T09:34:14.121Z</time></trkpt><trkpt lat="41.0950667" lon="14.3240067"><ele>108.0</ele><time>2026-05-04T09:34:16.121Z</time></trkpt><trkpt lat="41.0951533" lon="14.3239483"><ele>108.0</ele><time>2026-05-04T09:34:18.122Z</time></trkpt><trkpt lat="41.09524" lon="14.3239067"><ele>108.16666666666667</ele><time>2026-05-04T09:34:20.122Z</time></trkpt><trkpt lat="41.0953283" lon="14.3238717"><ele>108.33333333333334</ele><time>2026-05-04T09:34:22.121Z</time></trkpt><trkpt lat="41.0954067" lon="14.3238467"><ele>108.5</ele><time>2026-05-04T09:34:24.122Z</time></trkpt><trkpt lat="41.0955033" lon="14.3238267"><ele>108.66666666666667</ele><time>2026-05-04T09:34:26.123Z</time></trkpt><trkpt lat="41.0955967" lon="14.3238317"><ele>108.83333333333334</ele><time>2026-05-04T09:34:28.121Z</time></trkpt><trkpt lat="41.0956767" lon="14.3238267"><ele>109.0</ele><time>2026-05-04T09:34:30.122Z</time></trkpt><trkpt lat="41.0957533" lon="14.32383"><ele>109.50000000000001</ele><time>2026-05-04T09:34:32.121Z</time></trkpt><trkpt lat="41.0958183" lon="14.32384"><ele>110.0</ele><time>2026-05-04T09:34:34.121Z</time></trkpt><trkpt lat="41.09588" lon="14.3238617"><ele>110.5</ele><time>2026-05-04T09:34:36.122Z</time></trkpt><trkpt lat="41.0959433" lon="14.3238183"><ele>111.0</ele><time>2026-05-04T09:34:38.121Z</time></trkpt><trkpt lat="41.09599" lon="14.3237367"><ele>111.50000000000001</ele><time>2026-05-04T09:34:40.122Z</time></trkpt><trkpt lat="41.0960067" lon="14.323625"><ele>112.0</ele><time>2026-05-04T09:34:42.121Z</time></trkpt><trkpt lat="41.0960033" lon="14.3235033"><ele>112.0</ele><time>2026-05-04T09:34:44.122Z</time></trkpt><trkpt lat="41.0960083" lon="14.323385"><ele>111.99999999999999</ele><time>2026-05-04T09:34:46.121Z</time></trkpt><trkpt lat="41.0960083" lon="14.323265"><ele>111.99999999999999</ele><time>2026-05-04T09:34:48.122Z</time></trkpt><trkpt lat="41.0959983" lon="14.3231417"><ele>112.0</ele><time>2026-05-04T09:34:50.122Z</time></trkpt><trkpt lat="41.095995" lon="14.32301"><ele>112.0</ele><time>2026-05-04T09:34:52.122Z</time></trkpt><trkpt lat="41.0959933" lon="14.322875"><ele>112.0</ele><time>2026-05-04T09:34:54.122Z</time></trkpt><trkpt lat="41.0959917" lon="14.3227417"><ele>111.99999999999999</ele><time>2026-05-04T09:34:56.121Z</time></trkpt><trkpt lat="41.09598" lon="14.3226033"><ele>111.99999999999999</ele><time>2026-05-04T09:34:58.12Z</time></trkpt><trkpt lat="41.0959717" lon="14.3224617"><ele>112.0</ele><time>2026-05-04T09:35:00.121Z</time></trkpt><trkpt lat="41.0959617" lon="14.32232"><ele>112.0</ele><time>2026-05-04T09:35:02.121Z</time></trkpt><trkpt lat="41.0959583" lon="14.3221717"><ele>111.5</ele><time>2026-05-04T09:35:04.121Z</time></trkpt><trkpt lat="41.095945" lon="14.3220233"><ele>111.0</ele><time>2026-05-04T09:35:06.12Z</time></trkpt><trkpt lat="41.0959283" lon="14.321865"><ele>110.5</ele><time>2026-05-04T09:35:08.123Z</time></trkpt><trkpt lat="41.0959033" lon="14.3217117"><ele>110.0</ele><time>2026-05-04T09:35:10.12Z</time></trkpt><trkpt lat="41.09587" lon="14.3215583"><ele>110.0</ele><time>2026-05-04T09:35:12.121Z</time></trkpt><trkpt lat="41.0958483" lon="14.3214067"><ele>110.0</ele><time>2026-05-04T09:35:14.121Z</time></trkpt><trkpt lat="41.0958333" lon="14.321255"><ele>110.0</ele><time>2026-05-04T09:35:16.12Z</time></trkpt><trkpt lat="41.095835" lon="14.321115"><ele>110.0</ele><time>2026-05-04T09:35:18.121Z</time></trkpt><trkpt lat="41.0958517" lon="14.3209767"><ele>110.0</ele><time>2026-05-04T09:35:20.121Z</time></trkpt><trkpt lat="41.0958533" lon="14.320835"><ele>110.0</ele><time>2026-05-04T09:35:22.121Z</time></trkpt><trkpt lat="41.0958483" lon="14.3206867"><ele>110.0</ele><time>2026-05-04T09:35:24.122Z</time></trkpt><trkpt lat="41.0958517" lon="14.32054"><ele>110.0</ele><time>2026-05-04T09:35:26.122Z</time></trkpt><trkpt lat="41.09585" lon="14.3203817"><ele>110.0</ele><time>2026-05-04T09:35:28.123Z</time></trkpt><trkpt lat="41.0958533" lon="14.3202217"><ele>110.25</ele><time>2026-05-04T09:35:30.124Z</time></trkpt><trkpt lat="41.095855" lon="14.3200617"><ele>110.5</ele><time>2026-05-04T09:35:32.122Z</time></trkpt><trkpt lat="41.0958583" lon="14.319905"><ele>110.75</ele><time>2026-05-04T09:35:34.12Z</time></trkpt><trkpt lat="41.09585" lon="14.3197517"><ele>111.0</ele><time>2026-05-04T09:35:36.121Z</time></trkpt><trkpt lat="41.0958517" lon="14.3196067"><ele>110.5</ele><time>2026-05-04T09:35:38.121Z</time></trkpt><trkpt lat="41.0958567" lon="14.319455"><ele>110.0</ele><time>2026-05-04T09:35:40.121Z</time></trkpt><trkpt lat="41.0958617" lon="14.3193017"><ele>109.5</ele><time>2026-05-04T09:35:42.123Z</time></trkpt><trkpt lat="41.0958633" lon="14.3191483"><ele>109.0</ele><time>2026-05-04T09:35:44.121Z</time></trkpt><trkpt lat="41.0958633" lon="14.3189933"><ele>108.5</ele><time>2026-05-04T09:35:46.122Z</time></trkpt><trkpt lat="41.0958667" lon="14.3188367"><ele>108.0</ele><time>2026-05-04T09:35:48.121Z</time></trkpt><trkpt lat="41.095865" lon="14.3186817"><ele>107.5</ele><time>2026-05-04T09:35:50.121Z</time></trkpt><trkpt lat="41.0958767" lon="14.3185367"><ele>107.0</ele><time>2026-05-04T09:35:52.12Z</time></trkpt><trkpt lat="41.0958817" lon="14.318395"><ele>107.0</ele><time>2026-05-04T09:35:54.121Z</time></trkpt><trkpt lat="41.0958933" lon="14.3182617"><ele>106.99999999999999</ele><time>2026-05-04T09:35:56.121Z</time></trkpt><trkpt lat="41.0959567" lon="14.3181717"><ele>106.99999999999999</ele><time>2026-05-04T09:35:58.12Z</time></trkpt><trkpt lat="41.09606" lon="14.31813"><ele>107.0</ele><time>2026-05-04T09:36:00.122Z</time></trkpt><trkpt lat="41.0961417" lon="14.318055"><ele>107.0</ele><time>2026-05-04T09:36:02.121Z</time></trkpt><trkpt lat="41.096205" lon="14.3179383"><ele>106.8</ele><time>2026-05-04T09:36:04.121Z</time></trkpt><trkpt lat="41.096275" lon="14.31784"><ele>106.6</ele><time>2026-05-04T09:36:06.122Z</time></trkpt><trkpt lat="41.0963517" lon="14.3177567"><ele>106.39999999999999</ele><time>2026-05-04T09:36:08.122Z</time></trkpt><trkpt lat="41.09643" lon="14.3176817"><ele>106.19999999999999</ele><time>2026-05-04T09:36:10.121Z</time></trkpt><trkpt lat="41.0965133" lon="14.3176"><ele>106.0</ele><time>2026-05-04T09:36:12.121Z</time></trkpt><trkpt lat="41.0965883" lon="14.3175233"><ele>106.8</ele><time>2026-05-04T09:36:14.121Z</time></trkpt><trkpt lat="41.0966567" lon="14.3174567"><ele>107.6</ele><time>2026-05-04T09:36:16.122Z</time></trkpt><trkpt lat="41.0967317" lon="14.31738"><ele>108.4</ele><time>2026-05-04T09:36:18.121Z</time></trkpt><trkpt lat="41.096805" lon="14.317315"><ele>109.2</ele><time>2026-05-04T09:36:20.122Z</time></trkpt><trkpt lat="41.0968817" lon="14.3172467"><ele>110.0</ele><time>2026-05-04T09:36:22.121Z</time></trkpt><trkpt lat="41.0969633" lon="14.3171667"><ele>110.0</ele><time>2026-05-04T09:36:24.12Z</time></trkpt><trkpt lat="41.0970483" lon="14.3170883"><ele>110.0</ele><time>2026-05-04T09:36:26.121Z</time></trkpt><trkpt lat="41.0971383" lon="14.3170033"><ele>110.0</ele><time>2026-05-04T09:36:28.12Z</time></trkpt><trkpt lat="41.097195" lon="14.316955"><ele>110.0</ele><time>2026-05-04T09:36:29.122Z</time></trkpt><trkpt lat="41.097275" lon="14.316875"><ele>110.0</ele><time>2026-05-04T09:36:31.122Z</time></trkpt><trkpt lat="41.0973733" lon="14.3167867"><ele>110.6</ele><time>2026-05-04T09:36:33.121Z</time></trkpt><trkpt lat="41.0974267" lon="14.31674"><ele>111.2</ele><time>2026-05-04T09:36:34.12Z</time></trkpt><trkpt lat="41.0975217" lon="14.3166533"><ele>111.80000000000001</ele><time>2026-05-04T09:36:36.121Z</time></trkpt><trkpt lat="41.0976133" lon="14.31658"><ele>112.4</ele><time>2026-05-04T09:36:38.121Z</time></trkpt><trkpt lat="41.0976933" lon="14.3164983"><ele>113.0</ele><time>2026-05-04T09:36:40.122Z</time></trkpt><trkpt lat="41.0977767" lon="14.3164217"><ele>113.0</ele><time>2026-05-04T09:36:42.121Z</time></trkpt><trkpt lat="41.0978667" lon="14.3163333"><ele>113.00000000000001</ele><time>2026-05-04T09:36:44.122Z</time></trkpt><trkpt lat="41.0979567" lon="14.3162567"><ele>113.00000000000001</ele><time>2026-05-04T09:36:46.12Z</time></trkpt><trkpt lat="41.0980417" lon="14.316185"><ele>113.0</ele><time>2026-05-04T09:36:48.121Z</time></trkpt><trkpt lat="41.0981233" lon="14.3161033"><ele>113.0</ele><time>2026-05-04T09:36:50.121Z</time></trkpt><trkpt lat="41.0982" lon="14.31603"><ele>113.83333333333333</ele><time>2026-05-04T09:36:52.121Z</time></trkpt><trkpt lat="41.09827" lon="14.3159417"><ele>114.66666666666666</ele><time>2026-05-04T09:36:54.121Z</time></trkpt><trkpt lat="41.0983183" lon="14.3158383"><ele>115.5</ele><time>2026-05-04T09:36:56.122Z</time></trkpt><trkpt lat="41.098365" lon="14.3157467"><ele>116.33333333333334</ele><time>2026-05-04T09:36:58.121Z</time></trkpt><trkpt lat="41.09838" lon="14.31566"><ele>117.16666666666667</ele><time>2026-05-04T09:37:00.12Z</time></trkpt><trkpt lat="41.0984517" lon="14.3156333"><ele>118.0</ele><time>2026-05-04T09:37:38.121Z</time></trkpt><trkpt lat="41.0985417" lon="14.3156017"><ele>117.80000000000001</ele><time>2026-05-04T09:37:41.12Z</time></trkpt><trkpt lat="41.0986133" lon="14.31557"><ele>117.60000000000001</ele><time>2026-05-04T09:37:43.121Z</time></trkpt><trkpt lat="41.09868" lon="14.3155217"><ele>117.39999999999999</ele><time>2026-05-04T09:37:45.12Z</time></trkpt><trkpt lat="41.0987517" lon="14.31544"><ele>117.19999999999999</ele><time>2026-05-04T09:37:47.121Z</time></trkpt><trkpt lat="41.0988283" lon="14.3153417"><ele>117.0</ele><time>2026-05-04T09:37:49.121Z</time></trkpt><trkpt lat="41.0989217" lon="14.315255"><ele>117.0</ele><time>2026-05-04T09:37:51.121Z</time></trkpt><trkpt lat="41.0989967" lon="14.3151683"><ele>116.99999999999999</ele><time>2026-05-04T09:37:53.12Z</time></trkpt><trkpt lat="41.0990683" lon="14.3150867"><ele>116.99999999999999</ele><time>2026-05-04T09:37:55.121Z</time></trkpt><trkpt lat="41.0991533" lon="14.3149933"><ele>117.0</ele><time>2026-05-04T09:37:57.119Z</time></trkpt><trkpt lat="41.0992317" lon="14.314905"><ele>117.0</ele><time>2026-05-04T09:37:59.119Z</time></trkpt><trkpt lat="41.09931" lon="14.31482"><ele>117.8</ele><time>2026-05-04T09:38:01.12Z</time></trkpt><trkpt lat="41.0993817" lon="14.3147417"><ele>118.6</ele><time>2026-05-04T09:38:03.122Z</time></trkpt><trkpt lat="41.0994533" lon="14.3146667"><ele>119.39999999999999</ele><time>2026-05-04T09:38:05.12Z</time></trkpt><trkpt lat="41.0995167" lon="14.3145817"><ele>120.19999999999999</ele><time>2026-05-04T09:38:07.12Z</time></trkpt><trkpt lat="41.0995717" lon="14.3144867"><ele>121.0</ele><time>2026-05-04T09:38:09.12Z</time></trkpt><trkpt lat="41.0996183" lon="14.3143833"><ele>121.16666666666667</ele><time>2026-05-04T09:38:11.121Z</time></trkpt><trkpt lat="41.0996617" lon="14.3142783"><ele>121.33333333333334</ele><time>2026-05-04T09:38:13.12Z</time></trkpt><trkpt lat="41.0997083" lon="14.3141617"><ele>121.5</ele><time>2026-05-04T09:38:15.12Z</time></trkpt><trkpt lat="41.0997567" lon="14.3140583"><ele>121.66666666666666</ele><time>2026-05-04T09:38:17.121Z</time></trkpt><trkpt lat="41.099805" lon="14.3139683"><ele>121.83333333333333</ele><time>2026-05-04T09:38:19.122Z</time></trkpt><trkpt lat="41.09985" lon="14.313875"><ele>122.0</ele><time>2026-05-04T09:38:21.121Z</time></trkpt><trkpt lat="41.0998917" lon="14.31378"><ele>123.39999999999999</ele><time>2026-05-04T09:38:23.12Z</time></trkpt><trkpt lat="41.0999533" lon="14.31368"><ele>124.79999999999998</ele><time>2026-05-04T09:38:25.122Z</time></trkpt><trkpt lat="41.0999983" lon="14.3135883"><ele>126.2</ele><time>2026-05-04T09:38:27.121Z</time></trkpt><trkpt lat="41.1000517" lon="14.3134933"><ele>127.6</ele><time>2026-05-04T09:38:29.121Z</time></trkpt><trkpt lat="41.1001" lon="14.3133967"><ele>129.0</ele><time>2026-05-04T09:38:31.119Z</time></trkpt><trkpt lat="41.1001517" lon="14.3132833"><ele>129.0</ele><time>2026-05-04T09:38:33.12Z</time></trkpt><trkpt lat="41.100205" lon="14.3131833"><ele>129.0</ele><time>2026-05-04T09:38:35.12Z</time></trkpt><trkpt lat="41.10026" lon="14.313075"><ele>129.0</ele><time>2026-05-04T09:38:37.12Z</time></trkpt><trkpt lat="41.1003067" lon="14.3129733"><ele>129.0</ele><time>2026-05-04T09:38:39.119Z</time></trkpt><trkpt lat="41.1003533" lon="14.3128633"><ele>129.0</ele><time>2026-05-04T09:38:41.12Z</time></trkpt><trkpt lat="41.1003917" lon="14.3127883"><ele>129.0</ele><time>2026-05-04T09:38:43.12Z</time></trkpt><trkpt lat="41.1004433" lon="14.3126983"><ele>128.5</ele><time>2026-05-04T09:38:45.12Z</time></trkpt><trkpt lat="41.1004867" lon="14.31262"><ele>128.0</ele><time>2026-05-04T09:38:47.119Z</time></trkpt><trkpt lat="41.1005283" lon="14.31253"><ele>127.5</ele><time>2026-05-04T09:38:49.121Z</time></trkpt><trkpt lat="41.1005733" lon="14.3124383"><ele>127.0</ele><time>2026-05-04T09:38:51.121Z</time></trkpt><trkpt lat="41.1006217" lon="14.312355"><ele>126.5</ele><time>2026-05-04T09:38:53.121Z</time></trkpt><trkpt lat="41.1006767" lon="14.3122883"><ele>126.0</ele><time>2026-05-04T09:38:55.119Z</time></trkpt><trkpt lat="41.100745" lon="14.31223"><ele>126.83333333333333</ele><time>2026-05-04T09:38:57.12Z</time></trkpt><trkpt lat="41.1008133" lon="14.3121783"><ele>127.66666666666666</ele><time>2026-05-04T09:38:59.121Z</time></trkpt><trkpt lat="41.100875" lon="14.312125"><ele>128.5</ele><time>2026-05-04T09:39:01.121Z</time></trkpt><trkpt lat="41.1009317" lon="14.312065"><ele>129.33333333333331</ele><time>2026-05-04T09:39:03.12Z</time></trkpt><trkpt lat="41.1009883" lon="14.31199"><ele>130.16666666666666</ele><time>2026-05-04T09:39:05.12Z</time></trkpt><trkpt lat="41.10104" lon="14.3119217"><ele>131.0</ele><time>2026-05-04T09:39:07.12Z</time></trkpt><trkpt lat="41.1010933" lon="14.3118517"><ele>131.0</ele><time>2026-05-04T09:39:09.12Z</time></trkpt><trkpt lat="41.1011467" lon="14.311785"><ele>131.0</ele><time>2026-05-04T09:39:11.121Z</time></trkpt><trkpt lat="41.101195" lon="14.31172"><ele>131.0</ele><time>2026-05-04T09:39:13.121Z</time></trkpt><trkpt lat="41.1012433" lon="14.3116517"><ele>131.0</ele><time>2026-05-04T09:39:15.119Z</time></trkpt><trkpt lat="41.1012983" lon="14.3115883"><ele>131.0</ele><time>2026-05-04T09:39:17.119Z</time></trkpt><trkpt lat="41.101355" lon="14.3115267"><ele>131.0</ele><time>2026-05-04T09:39:19.121Z</time></trkpt><trkpt lat="41.1014083" lon="14.3114733"><ele>131.0</ele><time>2026-05-04T09:39:21.12Z</time></trkpt><trkpt lat="41.1014667" lon="14.3114133"><ele>131.16666666666666</ele><time>2026-05-04T09:39:23.12Z</time></trkpt><trkpt lat="41.101525" lon="14.3113617"><ele>131.33333333333331</ele><time>2026-05-04T09:39:25.12Z</time></trkpt><trkpt lat="41.1015817" lon="14.3113133"><ele>131.5</ele><time>2026-05-04T09:39:27.121Z</time></trkpt><trkpt lat="41.101635" lon="14.3112683"><ele>131.66666666666666</ele><time>2026-05-04T09:39:29.118Z</time></trkpt><trkpt lat="41.10172" lon="14.3112083"><ele>131.83333333333334</ele><time>2026-05-04T09:39:32.122Z</time></trkpt><trkpt lat="41.1018017" lon="14.3111433"><ele>132.0</ele><time>2026-05-04T09:39:35.119Z</time></trkpt><trkpt lat="41.1018667" lon="14.3110983"><ele>132.85714285714286</ele><time>2026-05-04T09:39:37.121Z</time></trkpt><trkpt lat="41.1019267" lon="14.3110583"><ele>133.71428571428572</ele><time>2026-05-04T09:39:39.12Z</time></trkpt><trkpt lat="41.1019983" lon="14.3110217"><ele>134.57142857142858</ele><time>2026-05-04T09:39:41.121Z</time></trkpt><trkpt lat="41.1020633" lon="14.3109817"><ele>135.42857142857144</ele><time>2026-05-04T09:39:43.12Z</time></trkpt><trkpt lat="41.1021333" lon="14.3109583"><ele>136.2857142857143</ele><time>2026-05-04T09:39:45.121Z</time></trkpt><trkpt lat="41.1022067" lon="14.310925"><ele>137.14285714285714</ele><time>2026-05-04T09:39:47.119Z</time></trkpt><trkpt lat="41.1022833" lon="14.3108967"><ele>138.0</ele><time>2026-05-04T09:39:49.12Z</time></trkpt><trkpt lat="41.1023617" lon="14.31087"><ele>139.0</ele><time>2026-05-04T09:39:51.121Z</time></trkpt><trkpt lat="41.1024383" lon="14.310835"><ele>140.0</ele><time>2026-05-04T09:39:53.121Z</time></trkpt><trkpt lat="41.1025517" lon="14.31078"><ele>141.0</ele><time>2026-05-04T09:39:56.121Z</time></trkpt><trkpt lat="41.1026267" lon="14.3107383"><ele>142.0</ele><time>2026-05-04T09:39:58.121Z</time></trkpt><trkpt lat="41.1027033" lon="14.3106933"><ele>143.0</ele><time>2026-05-04T09:40:00.12Z</time></trkpt><trkpt lat="41.1027783" lon="14.3106433"><ele>143.0</ele><time>2026-05-04T09:40:02.122Z</time></trkpt><trkpt lat="41.1028567" lon="14.310605"><ele>143.0</ele><time>2026-05-04T09:40:04.12Z</time></trkpt><trkpt lat="41.1029333" lon="14.3105533"><ele>143.0</ele><time>2026-05-04T09:40:06.119Z</time></trkpt><trkpt lat="41.10301" lon="14.3105083"><ele>143.0</ele><time>2026-05-04T09:40:08.122Z</time></trkpt><trkpt lat="41.1030767" lon="14.3104533"><ele>143.0</ele><time>2026-05-04T09:40:10.12Z</time></trkpt><trkpt lat="41.10315" lon="14.310395"><ele>143.0</ele><time>2026-05-04T09:40:12.12Z</time></trkpt><trkpt lat="41.1032267" lon="14.31033"><ele>143.6</ele><time>2026-05-04T09:40:14.12Z</time></trkpt><trkpt lat="41.1033017" lon="14.3102583"><ele>144.20000000000002</ele><time>2026-05-04T09:40:16.119Z</time></trkpt><trkpt lat="41.10337" lon="14.3101717"><ele>144.8</ele><time>2026-05-04T09:40:18.121Z</time></trkpt><trkpt lat="41.1034367" lon="14.3100833"><ele>145.4</ele><time>2026-05-04T09:40:20.121Z</time></trkpt><trkpt lat="41.103495" lon="14.309985"><ele>146.0</ele><time>2026-05-04T09:40:22.121Z</time></trkpt><trkpt lat="41.1035417" lon="14.3098767"><ele>146.0</ele><time>2026-05-04T09:40:24.121Z</time></trkpt><trkpt lat="41.10358" lon="14.30976"><ele>146.0</ele><time>2026-05-04T09:40:26.122Z</time></trkpt><trkpt lat="41.1036167" lon="14.3096433"><ele>146.0</ele><time>2026-05-04T09:40:28.12Z</time></trkpt><trkpt lat="41.103655" lon="14.309525"><ele>146.0</ele><time>2026-05-04T09:40:30.119Z</time></trkpt><trkpt lat="41.1036883" lon="14.3094067"><ele>146.0</ele><time>2026-05-04T09:40:32.121Z</time></trkpt><trkpt lat="41.1037283" lon="14.309285"><ele>145.4</ele><time>2026-05-04T09:40:34.123Z</time></trkpt><trkpt lat="41.1037767" lon="14.309175"><ele>144.8</ele><time>2026-05-04T09:40:36.122Z</time></trkpt><trkpt lat="41.103825" lon="14.3090633"><ele>144.20000000000002</ele><time>2026-05-04T09:40:38.121Z</time></trkpt><trkpt lat="41.1038767" lon="14.3089583"><ele>143.6</ele><time>2026-05-04T09:40:40.12Z</time></trkpt><trkpt lat="41.1039333" lon="14.308865"><ele>143.0</ele><time>2026-05-04T09:40:42.121Z</time></trkpt><trkpt lat="41.1039867" lon="14.3087633"><ele>143.0</ele><time>2026-05-04T09:40:44.123Z</time></trkpt><trkpt lat="41.1040517" lon="14.30866"><ele>143.0</ele><time>2026-05-04T09:40:46.121Z</time></trkpt><trkpt lat="41.10412" lon="14.3085683"><ele>143.0</ele><time>2026-05-04T09:40:48.121Z</time></trkpt><trkpt lat="41.104195" lon="14.3084867"><ele>143.0</ele><time>2026-05-04T09:40:50.119Z</time></trkpt><trkpt lat="41.1042767" lon="14.3084133"><ele>143.0</ele><time>2026-05-04T09:40:52.12Z</time></trkpt><trkpt lat="41.1043617" lon="14.3083417"><ele>143.8</ele><time>2026-05-04T09:40:54.122Z</time></trkpt><trkpt lat="41.1044417" lon="14.3082683"><ele>144.60000000000002</ele><time>2026-05-04T09:40:56.12Z</time></trkpt><trkpt lat="41.1045167" lon="14.308195"><ele>145.39999999999998</ele><time>2026-05-04T09:40:58.121Z</time></trkpt><trkpt lat="41.104595" lon="14.3081233"><ele>146.2</ele><time>2026-05-04T09:41:00.121Z</time></trkpt><trkpt lat="41.104675" lon="14.3080517"><ele>147.0</ele><time>2026-05-04T09:41:02.122Z</time></trkpt><trkpt lat="41.1047533" lon="14.307975"><ele>147.2</ele><time>2026-05-04T09:41:04.121Z</time></trkpt><trkpt lat="41.1048333" lon="14.3079"><ele>147.39999999999998</ele><time>2026-05-04T09:41:06.121Z</time></trkpt><trkpt lat="41.104915" lon="14.3078283"><ele>147.60000000000002</ele><time>2026-05-04T09:41:08.122Z</time></trkpt><trkpt lat="41.1049917" lon="14.3077633"><ele>147.8</ele><time>2026-05-04T09:41:10.12Z</time></trkpt><trkpt lat="41.1050667" lon="14.3077"><ele>148.0</ele><time>2026-05-04T09:41:12.122Z</time></trkpt><trkpt lat="41.10514" lon="14.3076367"><ele>148.66666666666669</ele><time>2026-05-04T09:41:14.123Z</time></trkpt><trkpt lat="41.1052183" lon="14.30758"><ele>149.33333333333334</ele><time>2026-05-04T09:41:16.12Z</time></trkpt><trkpt lat="41.1052933" lon="14.3075267"><ele>150.0</ele><time>2026-05-04T09:41:18.12Z</time></trkpt><trkpt lat="41.105365" lon="14.3074717"><ele>150.66666666666666</ele><time>2026-05-04T09:41:20.12Z</time></trkpt><trkpt lat="41.105435" lon="14.30742"><ele>151.33333333333331</ele><time>2026-05-04T09:41:22.121Z</time></trkpt><trkpt lat="41.1055067" lon="14.3073667"><ele>152.0</ele><time>2026-05-04T09:41:24.12Z</time></trkpt><trkpt lat="41.1055767" lon="14.3073267"><ele>152.0</ele><time>2026-05-04T09:41:26.121Z</time></trkpt><trkpt lat="41.10565" lon="14.3072883"><ele>152.0</ele><time>2026-05-04T09:41:28.12Z</time></trkpt><trkpt lat="41.1057183" lon="14.3072433"><ele>152.0</ele><time>2026-05-04T09:41:30.121Z</time></trkpt><trkpt lat="41.1057767" lon="14.3071833"><ele>152.0</ele><time>2026-05-04T09:41:32.121Z</time></trkpt><trkpt lat="41.1058367" lon="14.307135"><ele>152.0</ele><time>2026-05-04T09:41:34.124Z</time></trkpt><trkpt lat="41.1058967" lon="14.307095"><ele>152.0</ele><time>2026-05-04T09:41:36.12Z</time></trkpt><trkpt lat="41.1060283" lon="14.3070333"><ele>152.42857142857142</ele><time>2026-05-04T09:41:40.118Z</time></trkpt><trkpt lat="41.1061" lon="14.3070067"><ele>152.85714285714286</ele><time>2026-05-04T09:41:42.121Z</time></trkpt><trkpt lat="41.1061683" lon="14.3069667"><ele>153.28571428571428</ele><time>2026-05-04T09:41:44.118Z</time></trkpt><trkpt lat="41.1062367" lon="14.3069333"><ele>153.71428571428572</ele><time>2026-05-04T09:41:46.12Z</time></trkpt><trkpt lat="41.1063083" lon="14.30689"><ele>154.14285714285714</ele><time>2026-05-04T09:41:48.119Z</time></trkpt><trkpt lat="41.1063767" lon="14.30685"><ele>154.57142857142858</ele><time>2026-05-04T09:41:50.119Z</time></trkpt><trkpt lat="41.10644" lon="14.3068183"><ele>155.0</ele><time>2026-05-04T09:41:52.12Z</time></trkpt><trkpt lat="41.1065" lon="14.30678"><ele>156.0</ele><time>2026-05-04T09:41:54.12Z</time></trkpt><trkpt lat="41.10658" lon="14.3067233"><ele>157.0</ele><time>2026-05-04T09:41:57.12Z</time></trkpt><trkpt lat="41.10664" lon="14.3066967"><ele>158.0</ele><time>2026-05-04T09:41:59.12Z</time></trkpt><trkpt lat="41.1066983" lon="14.306665"><ele>159.0</ele><time>2026-05-04T09:42:01.116Z</time></trkpt><trkpt lat="41.1067733" lon="14.30662"><ele>160.0</ele><time>2026-05-04T09:42:04.12Z</time></trkpt><trkpt lat="41.1068317" lon="14.3065817"><ele>161.0</ele><time>2026-05-04T09:42:06.118Z</time></trkpt><trkpt lat="41.10689" lon="14.3065417"><ele>162.0</ele><time>2026-05-04T09:42:08.119Z</time></trkpt><trkpt lat="41.1069817" lon="14.306505"><ele>162.0</ele><time>2026-05-04T09:42:11.12Z</time></trkpt><trkpt lat="41.10704" lon="14.3064733"><ele>162.0</ele><time>2026-05-04T09:42:13.121Z</time></trkpt><trkpt lat="41.1071" lon="14.306445"><ele>162.0</ele><time>2026-05-04T09:42:15.121Z</time></trkpt><trkpt lat="41.1071717" lon="14.3064217"><ele>162.0</ele><time>2026-05-04T09:42:17.117Z</time></trkpt><trkpt lat="41.1072433" lon="14.3063833"><ele>162.0</ele><time>2026-05-04T09:42:19.121Z</time></trkpt><trkpt lat="41.1073083" lon="14.3063533"><ele>162.0</ele><time>2026-05-04T09:42:21.119Z</time></trkpt><trkpt lat="41.10737" lon="14.3063117"><ele>162.0</ele><time>2026-05-04T09:42:23.122Z</time></trkpt><trkpt lat="41.1074233" lon="14.3062667"><ele>162.71428571428572</ele><time>2026-05-04T09:42:25.122Z</time></trkpt><trkpt lat="41.1074833" lon="14.3062317"><ele>163.42857142857142</ele><time>2026-05-04T09:42:27.121Z</time></trkpt><trkpt lat="41.10754" lon="14.30619"><ele>164.14285714285714</ele><time>2026-05-04T09:42:29.12Z</time></trkpt><trkpt lat="41.1075967" lon="14.30615"><ele>164.85714285714286</ele><time>2026-05-04T09:42:31.121Z</time></trkpt><trkpt lat="41.1076583" lon="14.30613"><ele>165.57142857142858</ele><time>2026-05-04T09:42:33.12Z</time></trkpt><trkpt lat="41.1077483" lon="14.30609"><ele>166.28571428571428</ele><time>2026-05-04T09:42:36.12Z</time></trkpt><trkpt lat="41.1078067" lon="14.3060483"><ele>167.0</ele><time>2026-05-04T09:42:38.12Z</time></trkpt><trkpt lat="41.107865" lon="14.3060067"><ele>167.0</ele><time>2026-05-04T09:42:40.121Z</time></trkpt><trkpt lat="41.1079233" lon="14.3059617"><ele>167.0</ele><time>2026-05-04T09:42:42.123Z</time></trkpt><trkpt lat="41.1080067" lon="14.3059067"><ele>167.0</ele><time>2026-05-04T09:42:45.123Z</time></trkpt><trkpt lat="41.1080683" lon="14.305875"><ele>167.0</ele><time>2026-05-04T09:42:47.121Z</time></trkpt><trkpt lat="41.108135" lon="14.3058367"><ele>167.0</ele><time>2026-05-04T09:42:49.122Z</time></trkpt><trkpt lat="41.1082167" lon="14.305785"><ele>167.0</ele><time>2026-05-04T09:42:52.122Z</time></trkpt><trkpt lat="41.1083067" lon="14.30574"><ele>167.42857142857142</ele><time>2026-05-04T09:42:55.123Z</time></trkpt><trkpt lat="41.108365" lon="14.3057"><ele>167.85714285714286</ele><time>2026-05-04T09:42:57.121Z</time></trkpt><trkpt lat="41.1084517" lon="14.3056517"><ele>168.28571428571428</ele><time>2026-05-04T09:43:00.123Z</time></trkpt><trkpt lat="41.1085167" lon="14.30569"><ele>168.71428571428572</ele><time>2026-05-04T09:43:04.123Z</time></trkpt><trkpt lat="41.1084733" lon="14.3055933"><ele>169.14285714285714</ele><time>2026-05-04T09:44:07.12Z</time></trkpt><trkpt lat="41.1085283" lon="14.3055467"><ele>169.57142857142858</ele><time>2026-05-04T09:44:44.121Z</time></trkpt><trkpt lat="41.1085767" lon="14.3054917"><ele>170.0</ele><time>2026-05-04T09:44:46.12Z</time></trkpt><trkpt lat="41.10864" lon="14.3054333"><ele>170.0</ele><time>2026-05-04T09:44:48.121Z</time></trkpt><trkpt lat="41.1087117" lon="14.30538"><ele>170.0</ele><time>2026-05-04T09:44:50.121Z</time></trkpt><trkpt lat="41.10878" lon="14.3053183"><ele>170.0</ele><time>2026-05-04T09:44:52.12Z</time></trkpt><trkpt lat="41.1088317" lon="14.3052333"><ele>170.0</ele><time>2026-05-04T09:44:54.12Z</time></trkpt><trkpt lat="41.10889" lon="14.3051517"><ele>170.0</ele><time>2026-05-04T09:44:56.118Z</time></trkpt><trkpt lat="41.1089617" lon="14.3050517"><ele>170.0</ele><time>2026-05-04T09:44:58.12Z</time></trkpt><trkpt lat="41.1089933" lon="14.3049617"><ele>170.0</ele><time>2026-05-04T09:45:00.117Z</time></trkpt><trkpt lat="41.10903" lon="14.3048683"><ele>170.0</ele><time>2026-05-04T09:45:02.124Z</time></trkpt><trkpt lat="41.10907" lon="14.3047667"><ele>170.0</ele><time>2026-05-04T09:45:04.119Z</time></trkpt><trkpt lat="41.1091133" lon="14.3046767"><ele>170.0</ele><time>2026-05-04T09:45:06.118Z</time></trkpt><trkpt lat="41.10916" lon="14.30457"><ele>170.0</ele><time>2026-05-04T09:45:08.119Z</time></trkpt><trkpt lat="41.1092067" lon="14.304455"><ele>170.0</ele><time>2026-05-04T09:45:10.121Z</time></trkpt><trkpt lat="41.109275" lon="14.3043367"><ele>170.57142857142858</ele><time>2026-05-04T09:45:12.12Z</time></trkpt><trkpt lat="41.1093183" lon="14.30427"><ele>171.14285714285714</ele><time>2026-05-04T09:45:13.118Z</time></trkpt><trkpt lat="41.1093633" lon="14.304205"><ele>171.71428571428572</ele><time>2026-05-04T09:45:14.119Z</time></trkpt><trkpt lat="41.1094083" lon="14.3041433"><ele>172.28571428571428</ele><time>2026-05-04T09:45:15.117Z</time></trkpt><trkpt lat="41.10946" lon="14.304075"><ele>172.85714285714286</ele><time>2026-05-04T09:45:16.118Z</time></trkpt><trkpt lat="41.1095167" lon="14.3040033"><ele>173.42857142857142</ele><time>2026-05-04T09:45:17.118Z</time></trkpt><trkpt lat="41.1095733" lon="14.303925"><ele>174.0</ele><time>2026-05-04T09:45:18.117Z</time></trkpt><trkpt lat="41.1096367" lon="14.30385"><ele>174.39999999999998</ele><time>2026-05-04T09:45:19.117Z</time></trkpt><trkpt lat="41.109705" lon="14.30377"><ele>174.8</ele><time>2026-05-04T09:45:20.117Z</time></trkpt><trkpt lat="41.1097767" lon="14.3036983"><ele>175.2</ele><time>2026-05-04T09:45:21.118Z</time></trkpt><trkpt lat="41.1098533" lon="14.3036217"><ele>175.60000000000002</ele><time>2026-05-04T09:45:22.118Z</time></trkpt><trkpt lat="41.109935" lon="14.3035567"><ele>176.0</ele><time>2026-05-04T09:45:23.117Z</time></trkpt><trkpt lat="41.110025" lon="14.3034983"><ele>175.20000000000002</ele><time>2026-05-04T09:45:24.117Z</time></trkpt><trkpt lat="41.110115" lon="14.3034483"><ele>174.4</ele><time>2026-05-04T09:45:25.118Z</time></trkpt><trkpt lat="41.110205" lon="14.3033983"><ele>173.6</ele><time>2026-05-04T09:45:26.118Z</time></trkpt><trkpt lat="41.110295" lon="14.3033483"><ele>172.8</ele><time>2026-05-04T09:45:27.118Z</time></trkpt><trkpt lat="41.1103917" lon="14.3032983"><ele>172.0</ele><time>2026-05-04T09:45:28.118Z</time></trkpt><trkpt lat="41.1104883" lon="14.3032417"><ele>172.0</ele><time>2026-05-04T09:45:29.117Z</time></trkpt><trkpt lat="41.110585" lon="14.303195"><ele>172.0</ele><time>2026-05-04T09:45:30.117Z</time></trkpt><trkpt lat="41.110685" lon="14.30315"><ele>172.0</ele><time>2026-05-04T09:45:31.12Z</time></trkpt><trkpt lat="41.1107933" lon="14.3031083"><ele>172.0</ele><time>2026-05-04T09:45:32.118Z</time></trkpt><trkpt lat="41.1108983" lon="14.30307"><ele>172.0</ele><time>2026-05-04T09:45:33.119Z</time></trkpt><trkpt lat="41.111005" lon="14.3030367"><ele>170.8</ele><time>2026-05-04T09:45:34.116Z</time></trkpt><trkpt lat="41.11111" lon="14.303005"><ele>169.6</ele><time>2026-05-04T09:45:35.117Z</time></trkpt><trkpt lat="41.1112167" lon="14.3029667"><ele>168.4</ele><time>2026-05-04T09:45:36.117Z</time></trkpt><trkpt lat="41.1113183" lon="14.30293"><ele>167.20000000000002</ele><time>2026-05-04T09:45:37.118Z</time></trkpt><trkpt lat="41.1114233" lon="14.3028933"><ele>166.0</ele><time>2026-05-04T09:45:38.118Z</time></trkpt><trkpt lat="41.1115283" lon="14.30285"><ele>164.75</ele><time>2026-05-04T09:45:39.118Z</time></trkpt><trkpt lat="41.111635" lon="14.3028133"><ele>163.5</ele><time>2026-05-04T09:45:40.117Z</time></trkpt><trkpt lat="41.111745" lon="14.3027783"><ele>162.25</ele><time>2026-05-04T09:45:41.117Z</time></trkpt><trkpt lat="41.111855" lon="14.3027417"><ele>161.0</ele><time>2026-05-04T09:45:42.121Z</time></trkpt><trkpt lat="41.1119683" lon="14.3027017"><ele>161.0</ele><time>2026-05-04T09:45:43.117Z</time></trkpt><trkpt lat="41.1120783" lon="14.3026617"><ele>161.0</ele><time>2026-05-04T09:45:44.117Z</time></trkpt><trkpt lat="41.1121867" lon="14.30262"><ele>161.0</ele><time>2026-05-04T09:45:45.117Z</time></trkpt><trkpt lat="41.1122933" lon="14.30258"><ele>161.0</ele><time>2026-05-04T09:45:46.117Z</time></trkpt><trkpt lat="41.1124017" lon="14.3025383"><ele>160.8</ele><time>2026-05-04T09:45:47.117Z</time></trkpt><trkpt lat="41.1125067" lon="14.3024967"><ele>160.60000000000002</ele><time>2026-05-04T09:45:48.117Z</time></trkpt><trkpt lat="41.1126083" lon="14.30245"><ele>160.4</ele><time>2026-05-04T09:45:49.118Z</time></trkpt><trkpt lat="41.1127117" lon="14.3024067"><ele>160.2</ele><time>2026-05-04T09:45:50.122Z</time></trkpt><trkpt lat="41.1128183" lon="14.3023633"><ele>160.0</ele><time>2026-05-04T09:45:51.117Z</time></trkpt><trkpt lat="41.1129267" lon="14.302315"><ele>160.0</ele><time>2026-05-04T09:45:52.118Z</time></trkpt><trkpt lat="41.11303" lon="14.3022633"><ele>160.0</ele><time>2026-05-04T09:45:53.117Z</time></trkpt><trkpt lat="41.11313" lon="14.302205"><ele>160.0</ele><time>2026-05-04T09:45:54.117Z</time></trkpt><trkpt lat="41.113225" lon="14.3021467"><ele>160.0</ele><time>2026-05-04T09:45:55.117Z</time></trkpt><trkpt lat="41.113315" lon="14.3020833"><ele>160.0</ele><time>2026-05-04T09:45:56.119Z</time></trkpt><trkpt lat="41.1134" lon="14.3020133"><ele>158.33333333333334</ele><time>2026-05-04T09:45:57.119Z</time></trkpt><trkpt lat="41.1134833" lon="14.3019433"><ele>156.66666666666669</ele><time>2026-05-04T09:45:58.117Z</time></trkpt><trkpt lat="41.1135583" lon="14.301875"><ele>155.0</ele><time>2026-05-04T09:45:59.116Z</time></trkpt><trkpt lat="41.113635" lon="14.301825"><ele>153.33333333333334</ele><time>2026-05-04T09:46:00.117Z</time></trkpt><trkpt lat="41.1137083" lon="14.3017683"><ele>151.66666666666666</ele><time>2026-05-04T09:46:01.116Z</time></trkpt><trkpt lat="41.11378" lon="14.3017033"><ele>150.0</ele><time>2026-05-04T09:46:02.117Z</time></trkpt><trkpt lat="41.113855" lon="14.30164"><ele>150.0</ele><time>2026-05-04T09:46:03.116Z</time></trkpt><trkpt lat="41.1139383" lon="14.3015717"><ele>150.0</ele><time>2026-05-04T09:46:04.116Z</time></trkpt><trkpt lat="41.1140233" lon="14.301505"><ele>150.0</ele><time>2026-05-04T09:46:05.118Z</time></trkpt><trkpt lat="41.11411" lon="14.3014383"><ele>150.0</ele><time>2026-05-04T09:46:06.117Z</time></trkpt><trkpt lat="41.11419" lon="14.3013717"><ele>150.0</ele><time>2026-05-04T09:46:07.116Z</time></trkpt><trkpt lat="41.1142533" lon="14.30132"><ele>148.42857142857142</ele><time>2026-05-04T09:46:08.117Z</time></trkpt><trkpt lat="41.1143083" lon="14.30127"><ele>146.85714285714286</ele><time>2026-05-04T09:46:09.116Z</time></trkpt><trkpt lat="41.114365" lon="14.30122"><ele>145.28571428571428</ele><time>2026-05-04T09:46:10.116Z</time></trkpt><trkpt lat="41.1144217" lon="14.3011733"><ele>143.71428571428572</ele><time>2026-05-04T09:46:11.117Z</time></trkpt><trkpt lat="41.114475" lon="14.301125"><ele>142.14285714285714</ele><time>2026-05-04T09:46:12.118Z</time></trkpt><trkpt lat="41.1145317" lon="14.3010733"><ele>140.57142857142856</ele><time>2026-05-04T09:46:13.118Z</time></trkpt><trkpt lat="41.114595" lon="14.3010133"><ele>139.0</ele><time>2026-05-04T09:46:14.116Z</time></trkpt><trkpt lat="41.1146583" lon="14.3009467"><ele>139.0</ele><time>2026-05-04T09:46:15.117Z</time></trkpt><trkpt lat="41.114725" lon="14.3008817"><ele>139.0</ele><time>2026-05-04T09:46:16.116Z</time></trkpt><trkpt lat="41.11479" lon="14.3008067"><ele>139.0</ele><time>2026-05-04T09:46:17.117Z</time></trkpt><trkpt lat="41.1148633" lon="14.3007283"><ele>139.0</ele><time>2026-05-04T09:46:18.117Z</time></trkpt><trkpt lat="41.11494" lon="14.300655"><ele>139.0</ele><time>2026-05-04T09:46:19.117Z</time></trkpt><trkpt lat="41.1150217" lon="14.3005833"><ele>140.2</ele><time>2026-05-04T09:46:20.116Z</time></trkpt><trkpt lat="41.1151033" lon="14.3005033"><ele>141.4</ele><time>2026-05-04T09:46:21.116Z</time></trkpt><trkpt lat="41.1151867" lon="14.3004233"><ele>142.6</ele><time>2026-05-04T09:46:22.116Z</time></trkpt><trkpt lat="41.1152733" lon="14.30035"><ele>143.8</ele><time>2026-05-04T09:46:23.117Z</time></trkpt><trkpt lat="41.11536" lon="14.3002683"><ele>145.0</ele><time>2026-05-04T09:46:24.117Z</time></trkpt><trkpt lat="41.11545" lon="14.3001867"><ele>145.0</ele><time>2026-05-04T09:46:25.116Z</time></trkpt><trkpt lat="41.115545" lon="14.3001067"><ele>145.0</ele><time>2026-05-04T09:46:26.118Z</time></trkpt><trkpt lat="41.1156383" lon="14.3000233"><ele>145.0</ele><time>2026-05-04T09:46:27.117Z</time></trkpt><trkpt lat="41.1157283" lon="14.2999417"><ele>145.0</ele><time>2026-05-04T09:46:28.116Z</time></trkpt><trkpt lat="41.1158133" lon="14.299855"><ele>145.0</ele><time>2026-05-04T09:46:29.118Z</time></trkpt><trkpt lat="41.1158933" lon="14.2997567"><ele>144.0</ele><time>2026-05-04T09:46:30.118Z</time></trkpt><trkpt lat="41.11597" lon="14.29966"><ele>143.0</ele><time>2026-05-04T09:46:31.118Z</time></trkpt><trkpt lat="41.116045" lon="14.2995567"><ele>142.0</ele><time>2026-05-04T09:46:32.117Z</time></trkpt><trkpt lat="41.1161117" lon="14.2994433"><ele>141.0</ele><time>2026-05-04T09:46:33.116Z</time></trkpt><trkpt lat="41.1161733" lon="14.2993233"><ele>140.0</ele><time>2026-05-04T09:46:34.116Z</time></trkpt><trkpt lat="41.116225" lon="14.299195"><ele>140.0</ele><time>2026-05-04T09:46:35.116Z</time></trkpt><trkpt lat="41.1162817" lon="14.2990617"><ele>140.0</ele><time>2026-05-04T09:46:36.117Z</time></trkpt><trkpt lat="41.11634" lon="14.2989233"><ele>140.0</ele><time>2026-05-04T09:46:37.116Z</time></trkpt><trkpt lat="41.1163933" lon="14.2987767"><ele>140.0</ele><time>2026-05-04T09:46:38.117Z</time></trkpt><trkpt lat="41.11644" lon="14.29863"><ele>140.2</ele><time>2026-05-04T09:46:39.117Z</time></trkpt><trkpt lat="41.1164933" lon="14.298495"><ele>140.4</ele><time>2026-05-04T09:46:40.118Z</time></trkpt><trkpt lat="41.1165517" lon="14.2983783"><ele>140.6</ele><time>2026-05-04T09:46:41.117Z</time></trkpt><trkpt lat="41.1166233" lon="14.2982883"><ele>140.8</ele><time>2026-05-04T09:46:42.119Z</time></trkpt><trkpt lat="41.1167083" lon="14.2982183"><ele>141.0</ele><time>2026-05-04T09:46:43.116Z</time></trkpt><trkpt lat="41.1168017" lon="14.2981667"><ele>141.6</ele><time>2026-05-04T09:46:44.117Z</time></trkpt><trkpt lat="41.1168967" lon="14.298135"><ele>142.2</ele><time>2026-05-04T09:46:45.117Z</time></trkpt><trkpt lat="41.1169933" lon="14.2981067"><ele>142.8</ele><time>2026-05-04T09:46:46.119Z</time></trkpt><trkpt lat="41.1170933" lon="14.298065"><ele>143.4</ele><time>2026-05-04T09:46:47.117Z</time></trkpt><trkpt lat="41.1171967" lon="14.2980283"><ele>144.0</ele><time>2026-05-04T09:46:48.117Z</time></trkpt><trkpt lat="41.1173033" lon="14.297985"><ele>144.0</ele><time>2026-05-04T09:46:49.117Z</time></trkpt><trkpt lat="41.1174017" lon="14.29794"><ele>144.0</ele><time>2026-05-04T09:46:50.116Z</time></trkpt><trkpt lat="41.1175017" lon="14.2978817"><ele>144.0</ele><time>2026-05-04T09:46:51.117Z</time></trkpt><trkpt lat="41.1176" lon="14.2978133"><ele>144.0</ele><time>2026-05-04T09:46:52.117Z</time></trkpt><trkpt lat="41.1176967" lon="14.297745"><ele>144.0</ele><time>2026-05-04T09:46:53.117Z</time></trkpt><trkpt lat="41.1177867" lon="14.297685"><ele>141.6</ele><time>2026-05-04T09:46:54.116Z</time></trkpt><trkpt lat="41.1178717" lon="14.29764"><ele>139.2</ele><time>2026-05-04T09:46:55.118Z</time></trkpt><trkpt lat="41.117965" lon="14.2976133"><ele>136.79999999999998</ele><time>2026-05-04T09:46:56.117Z</time></trkpt><trkpt lat="41.118055" lon="14.2976083"><ele>134.4</ele><time>2026-05-04T09:46:57.117Z</time></trkpt><trkpt lat="41.118155" lon="14.29764"><ele>132.0</ele><time>2026-05-04T09:46:58.117Z</time></trkpt><trkpt lat="41.1182317" lon="14.2977183"><ele>130.79999999999998</ele><time>2026-05-04T09:46:59.116Z</time></trkpt><trkpt lat="41.1183033" lon="14.2978117"><ele>129.6</ele><time>2026-05-04T09:47:00.117Z</time></trkpt><trkpt lat="41.1183733" lon="14.2979033"><ele>128.39999999999998</ele><time>2026-05-04T09:47:01.116Z</time></trkpt><trkpt lat="41.11845" lon="14.2979967"><ele>127.19999999999999</ele><time>2026-05-04T09:47:02.118Z</time></trkpt><trkpt lat="41.1185367" lon="14.2980717"><ele>126.0</ele><time>2026-05-04T09:47:03.118Z</time></trkpt><trkpt lat="41.118635" lon="14.29813"><ele>126.0</ele><time>2026-05-04T09:47:04.116Z</time></trkpt><trkpt lat="41.118735" lon="14.2981433"><ele>126.0</ele><time>2026-05-04T09:47:05.116Z</time></trkpt><trkpt lat="41.11883" lon="14.2981367"><ele>126.0</ele><time>2026-05-04T09:47:06.118Z</time></trkpt><trkpt lat="41.11891" lon="14.298125"><ele>126.0</ele><time>2026-05-04T09:47:07.116Z</time></trkpt><trkpt lat="41.1190117" lon="14.2980583"><ele>126.0</ele><time>2026-05-04T09:47:08.117Z</time></trkpt><trkpt lat="41.1191233" lon="14.2979683"><ele>125.6</ele><time>2026-05-04T09:47:09.117Z</time></trkpt><trkpt lat="41.11924" lon="14.2979233"><ele>125.19999999999999</ele><time>2026-05-04T09:47:10.117Z</time></trkpt><trkpt lat="41.119345" lon="14.2978933"><ele>124.80000000000001</ele><time>2026-05-04T09:47:11.116Z</time></trkpt><trkpt lat="41.119445" lon="14.29789"><ele>124.4</ele><time>2026-05-04T09:47:12.118Z</time></trkpt><trkpt lat="41.1195367" lon="14.297915"><ele>124.0</ele><time>2026-05-04T09:47:13.116Z</time></trkpt><trkpt lat="41.119625" lon="14.2979717"><ele>124.0</ele><time>2026-05-04T09:47:14.116Z</time></trkpt><trkpt lat="41.1197067" lon="14.2980433"><ele>124.0</ele><time>2026-05-04T09:47:15.116Z</time></trkpt><trkpt lat="41.1197917" lon="14.2981183"><ele>124.0</ele><time>2026-05-04T09:47:16.116Z</time></trkpt><trkpt lat="41.11988" lon="14.298195"><ele>124.0</ele><time>2026-05-04T09:47:17.117Z</time></trkpt><trkpt lat="41.11997" lon="14.2982767"><ele>124.0</ele><time>2026-05-04T09:47:18.117Z</time></trkpt><trkpt lat="41.12006" lon="14.298355"><ele>119.75</ele><time>2026-05-04T09:47:19.117Z</time></trkpt><trkpt lat="41.1201583" lon="14.298425"><ele>115.5</ele><time>2026-05-04T09:47:20.117Z</time></trkpt><trkpt lat="41.1202633" lon="14.298475"><ele>111.25</ele><time>2026-05-04T09:47:21.116Z</time></trkpt><trkpt lat="41.1203783" lon="14.2984933"><ele>107.0</ele><time>2026-05-04T09:47:22.116Z</time></trkpt><trkpt lat="41.120495" lon="14.298505"><ele>107.0</ele><time>2026-05-04T09:47:23.116Z</time></trkpt><trkpt lat="41.1206183" lon="14.2985017"><ele>107.0</ele><time>2026-05-04T09:47:24.116Z</time></trkpt><trkpt lat="41.120735" lon="14.2984983"><ele>107.0</ele><time>2026-05-04T09:47:25.116Z</time></trkpt><trkpt lat="41.12085" lon="14.2984967"><ele>107.0</ele><time>2026-05-04T09:47:26.117Z</time></trkpt><trkpt lat="41.1209667" lon="14.2984967"><ele>108.0</ele><time>2026-05-04T09:47:27.117Z</time></trkpt><trkpt lat="41.1210883" lon="14.2984933"><ele>109.0</ele><time>2026-05-04T09:47:28.118Z</time></trkpt><trkpt lat="41.1212083" lon="14.2984833"><ele>110.0</ele><time>2026-05-04T09:47:29.117Z</time></trkpt><trkpt lat="41.1213283" lon="14.298465"><ele>111.0</ele><time>2026-05-04T09:47:30.116Z</time></trkpt><trkpt lat="41.121445" lon="14.2984383"><ele>111.0</ele><time>2026-05-04T09:47:31.116Z</time></trkpt><trkpt lat="41.12156" lon="14.2984067"><ele>111.0</ele><time>2026-05-04T09:47:32.117Z</time></trkpt><trkpt lat="41.1216783" lon="14.29837"><ele>111.0</ele><time>2026-05-04T09:47:33.118Z</time></trkpt><trkpt lat="41.12179" lon="14.298335"><ele>111.0</ele><time>2026-05-04T09:47:34.117Z</time></trkpt><trkpt lat="41.1218983" lon="14.298285"><ele>108.5</ele><time>2026-05-04T09:47:35.116Z</time></trkpt><trkpt lat="41.1220067" lon="14.298235"><ele>106.0</ele><time>2026-05-04T09:47:36.117Z</time></trkpt><trkpt lat="41.12212" lon="14.2981833"><ele>103.5</ele><time>2026-05-04T09:47:37.117Z</time></trkpt><trkpt lat="41.122235" lon="14.2981217"><ele>101.0</ele><time>2026-05-04T09:47:38.118Z</time></trkpt><trkpt lat="41.1223433" lon="14.29806"><ele>101.4</ele><time>2026-05-04T09:47:39.116Z</time></trkpt><trkpt lat="41.1224567" lon="14.2979983"><ele>101.8</ele><time>2026-05-04T09:47:40.117Z</time></trkpt><trkpt lat="41.1225617" lon="14.29794"><ele>102.2</ele><time>2026-05-04T09:47:41.117Z</time></trkpt><trkpt lat="41.1226583" lon="14.2978817"><ele>102.60000000000001</ele><time>2026-05-04T09:47:42.117Z</time></trkpt><trkpt lat="41.12275" lon="14.2978167"><ele>103.0</ele><time>2026-05-04T09:47:43.117Z</time></trkpt><trkpt lat="41.1228367" lon="14.2977417"><ele>103.0</ele><time>2026-05-04T09:47:44.117Z</time></trkpt><trkpt lat="41.1229167" lon="14.2976567"><ele>103.0</ele><time>2026-05-04T09:47:45.116Z</time></trkpt><trkpt lat="41.1229833" lon="14.2975533"><ele>103.0</ele><time>2026-05-04T09:47:46.116Z</time></trkpt><trkpt lat="41.1230267" lon="14.29743"><ele>103.0</ele><time>2026-05-04T09:47:47.117Z</time></trkpt><trkpt lat="41.123055" lon="14.2972967"><ele>103.0</ele><time>2026-05-04T09:47:48.117Z</time></trkpt><trkpt lat="41.1230667" lon="14.297155"><ele>105.0</ele><time>2026-05-04T09:47:49.118Z</time></trkpt><trkpt lat="41.12307" lon="14.2970117"><ele>107.0</ele><time>2026-05-04T09:47:50.117Z</time></trkpt><trkpt lat="41.12306" lon="14.2968633"><ele>109.00000000000001</ele><time>2026-05-04T09:47:51.117Z</time></trkpt><trkpt lat="41.123045" lon="14.2967183"><ele>111.0</ele><time>2026-05-04T09:47:52.117Z</time></trkpt><trkpt lat="41.12303" lon="14.296575"><ele>113.0</ele><time>2026-05-04T09:47:53.117Z</time></trkpt><trkpt lat="41.12301" lon="14.2964333"><ele>112.60000000000001</ele><time>2026-05-04T09:47:54.117Z</time></trkpt><trkpt lat="41.1229867" lon="14.2962933"><ele>112.20000000000002</ele><time>2026-05-04T09:47:55.117Z</time></trkpt><trkpt lat="41.122995" lon="14.2961467"><ele>111.8</ele><time>2026-05-04T09:47:56.118Z</time></trkpt><trkpt lat="41.1230267" lon="14.2960017"><ele>111.4</ele><time>2026-05-04T09:47:57.119Z</time></trkpt><trkpt lat="41.123065" lon="14.2958733"><ele>111.0</ele><time>2026-05-04T09:47:58.117Z</time></trkpt><trkpt lat="41.1231067" lon="14.2957517"><ele>111.0</ele><time>2026-05-04T09:47:59.116Z</time></trkpt><trkpt lat="41.123185" lon="14.2956383"><ele>111.0</ele><time>2026-05-04T09:48:00.116Z</time></trkpt><trkpt lat="41.12325" lon="14.2955283"><ele>111.0</ele><time>2026-05-04T09:48:01.12Z</time></trkpt><trkpt lat="41.1233083" lon="14.2954117"><ele>111.0</ele><time>2026-05-04T09:48:02.116Z</time></trkpt><trkpt lat="41.12335" lon="14.29529"><ele>111.0</ele><time>2026-05-04T09:48:03.116Z</time></trkpt><trkpt lat="41.1233967" lon="14.2951567"><ele>106.75</ele><time>2026-05-04T09:48:04.117Z</time></trkpt><trkpt lat="41.1234367" lon="14.2950133"><ele>102.5</ele><time>2026-05-04T09:48:05.117Z</time></trkpt><trkpt lat="41.1234867" lon="14.2948767"><ele>98.25</ele><time>2026-05-04T09:48:06.116Z</time></trkpt><trkpt lat="41.123535" lon="14.2947333"><ele>94.0</ele><time>2026-05-04T09:48:07.116Z</time></trkpt><trkpt lat="41.123585" lon="14.2945883"><ele>94.0</ele><time>2026-05-04T09:48:08.117Z</time></trkpt><trkpt lat="41.1236433" lon="14.29445"><ele>94.0</ele><time>2026-05-04T09:48:09.117Z</time></trkpt><trkpt lat="41.1237133" lon="14.29432"><ele>94.0</ele><time>2026-05-04T09:48:10.116Z</time></trkpt><trkpt lat="41.123795" lon="14.2942017"><ele>94.0</ele><time>2026-05-04T09:48:11.119Z</time></trkpt><trkpt lat="41.123885" lon="14.2940883"><ele>94.0</ele><time>2026-05-04T09:48:12.116Z</time></trkpt><trkpt lat="41.1239933" lon="14.2939733"><ele>94.0</ele><time>2026-05-04T09:48:13.117Z</time></trkpt><trkpt lat="41.1240883" lon="14.2938767"><ele>94.0</ele><time>2026-05-04T09:48:14.118Z</time></trkpt><trkpt lat="41.1241933" lon="14.2937833"><ele>94.0</ele><time>2026-05-04T09:48:15.117Z</time></trkpt><trkpt lat="41.1242867" lon="14.293695"><ele>90.5</ele><time>2026-05-04T09:48:16.116Z</time></trkpt><trkpt lat="41.1243917" lon="14.2936133"><ele>87.0</ele><time>2026-05-04T09:48:17.117Z</time></trkpt><trkpt lat="41.1244933" lon="14.2935383"><ele>83.5</ele><time>2026-05-04T09:48:18.117Z</time></trkpt><trkpt lat="41.1246017" lon="14.2934717"><ele>80.0</ele><time>2026-05-04T09:48:19.117Z</time></trkpt><trkpt lat="41.1247083" lon="14.2934083"><ele>80.0</ele><time>2026-05-04T09:48:20.117Z</time></trkpt><trkpt lat="41.1248167" lon="14.2933433"><ele>80.0</ele><time>2026-05-04T09:48:21.116Z</time></trkpt><trkpt lat="41.1249233" lon="14.2932833"><ele>80.0</ele><time>2026-05-04T09:48:22.117Z</time></trkpt><trkpt lat="41.125045" lon="14.2932217"><ele>80.0</ele><time>2026-05-04T09:48:23.118Z</time></trkpt><trkpt lat="41.1251617" lon="14.29316"><ele>78.75</ele><time>2026-05-04T09:48:24.117Z</time></trkpt><trkpt lat="41.12528" lon="14.293105"><ele>77.5</ele><time>2026-05-04T09:48:25.116Z</time></trkpt><trkpt lat="41.1253917" lon="14.293045"><ele>76.25</ele><time>2026-05-04T09:48:26.118Z</time></trkpt><trkpt lat="41.125495" lon="14.2929917"><ele>75.0</ele><time>2026-05-04T09:48:27.117Z</time></trkpt><trkpt lat="41.1255917" lon="14.2929317"><ele>75.0</ele><time>2026-05-04T09:48:28.116Z</time></trkpt><trkpt lat="41.1256883" lon="14.2928717"><ele>75.0</ele><time>2026-05-04T09:48:29.117Z</time></trkpt><trkpt lat="41.12581" lon="14.292855"><ele>75.0</ele><time>2026-05-04T09:48:30.116Z</time></trkpt><trkpt lat="41.1259283" lon="14.2928317"><ele>75.0</ele><time>2026-05-04T09:48:31.117Z</time></trkpt><trkpt lat="41.1260417" lon="14.2928083"><ele>71.25</ele><time>2026-05-04T09:48:32.117Z</time></trkpt><trkpt lat="41.1261633" lon="14.292795"><ele>67.5</ele><time>2026-05-04T09:48:33.118Z</time></trkpt><trkpt lat="41.1262867" lon="14.2927817"><ele>63.75</ele><time>2026-05-04T09:48:34.118Z</time></trkpt><trkpt lat="41.1264067" lon="14.2927683"><ele>60.0</ele><time>2026-05-04T09:48:35.118Z</time></trkpt><trkpt lat="41.12653" lon="14.2927583"><ele>58.0</ele><time>2026-05-04T09:48:36.119Z</time></trkpt><trkpt lat="41.1266617" lon="14.2927533"><ele>56.0</ele><time>2026-05-04T09:48:37.118Z</time></trkpt><trkpt lat="41.1267867" lon="14.29274"><ele>54.0</ele><time>2026-05-04T09:48:38.118Z</time></trkpt><trkpt lat="41.1269133" lon="14.292755"><ele>52.0</ele><time>2026-05-04T09:48:39.117Z</time></trkpt><trkpt lat="41.127035" lon="14.2927517"><ele>52.0</ele><time>2026-05-04T09:48:40.118Z</time></trkpt><trkpt lat="41.127145" lon="14.292755"><ele>52.0</ele><time>2026-05-04T09:48:41.118Z</time></trkpt><trkpt lat="41.1272483" lon="14.2927633"><ele>52.0</ele><time>2026-05-04T09:48:42.118Z</time></trkpt><trkpt lat="41.1273467" lon="14.2927833"><ele>52.0</ele><time>2026-05-04T09:48:43.119Z</time></trkpt><trkpt lat="41.1274417" lon="14.2928117"><ele>52.0</ele><time>2026-05-04T09:48:44.12Z</time></trkpt><trkpt lat="41.1275333" lon="14.2928533"><ele>50.99999999999999</ele><time>2026-05-04T09:48:45.118Z</time></trkpt><trkpt lat="41.1276183" lon="14.2928983"><ele>50.0</ele><time>2026-05-04T09:48:46.118Z</time></trkpt><trkpt lat="41.1276967" lon="14.2929417"><ele>49.0</ele><time>2026-05-04T09:48:47.118Z</time></trkpt><trkpt lat="41.1277683" lon="14.2929683"><ele>48.0</ele><time>2026-05-04T09:48:48.117Z</time></trkpt><trkpt lat="41.1278367" lon="14.29297"><ele>47.0</ele><time>2026-05-04T09:48:49.117Z</time></trkpt><trkpt lat="41.127905" lon="14.2929517"><ele>46.0</ele><time>2026-05-04T09:48:50.117Z</time></trkpt><trkpt lat="41.127965" lon="14.2928283"><ele>46.0</ele><time>2026-05-04T09:48:52.117Z</time></trkpt><trkpt lat="41.12795" lon="14.2927317"><ele>46.0</ele><time>2026-05-04T09:48:53.118Z</time></trkpt><trkpt lat="41.1279417" lon="14.29264"><ele>46.0</ele><time>2026-05-04T09:48:54.117Z</time></trkpt><trkpt lat="41.1279617" lon="14.29249"><ele>46.0</ele><time>2026-05-04T09:48:56.117Z</time></trkpt><trkpt lat="41.1279967" lon="14.29235"><ele>46.0</ele><time>2026-05-04T09:48:58.117Z</time></trkpt><trkpt lat="41.128035" lon="14.2922217"><ele>46.0</ele><time>2026-05-04T09:49:00.117Z</time></trkpt><trkpt lat="41.128085" lon="14.2920817"><ele>46.0</ele><time>2026-05-04T09:49:02.117Z</time></trkpt><trkpt lat="41.128135" lon="14.2919433"><ele>46.0</ele><time>2026-05-04T09:49:04.117Z</time></trkpt><trkpt lat="41.1281833" lon="14.2917933"><ele>46.0</ele><time>2026-05-04T09:49:06.118Z</time></trkpt><trkpt lat="41.1282133" lon="14.291715"><ele>46.0</ele><time>2026-05-04T09:49:07.119Z</time></trkpt><trkpt lat="41.1282417" lon="14.29164"><ele>45.199999999999996</ele><time>2026-05-04T09:49:08.117Z</time></trkpt><trkpt lat="41.128305" lon="14.29149"><ele>44.4</ele><time>2026-05-04T09:49:10.117Z</time></trkpt><trkpt lat="41.12836" lon="14.2913283"><ele>43.6</ele><time>2026-05-04T09:49:12.117Z</time></trkpt><trkpt lat="41.1283967" lon="14.2912383"><ele>42.8</ele><time>2026-05-04T09:49:13.12Z</time></trkpt><trkpt lat="41.12843" lon="14.2911483"><ele>42.0</ele><time>2026-05-04T09:49:14.118Z</time></trkpt><trkpt lat="41.128465" lon="14.2910533"><ele>41.833333333333336</ele><time>2026-05-04T09:49:15.117Z</time></trkpt><trkpt lat="41.1284983" lon="14.2909583"><ele>41.666666666666664</ele><time>2026-05-04T09:49:16.117Z</time></trkpt><trkpt lat="41.128535" lon="14.2908617"><ele>41.5</ele><time>2026-05-04T09:49:17.118Z</time></trkpt><trkpt lat="41.1285717" lon="14.2907667"><ele>41.33333333333333</ele><time>2026-05-04T09:49:18.119Z</time></trkpt><trkpt lat="41.12861" lon="14.2906683"><ele>41.166666666666664</ele><time>2026-05-04T09:49:19.118Z</time></trkpt><trkpt lat="41.1286483" lon="14.29057"><ele>41.0</ele><time>2026-05-04T09:49:20.117Z</time></trkpt><trkpt lat="41.128685" lon="14.29047"><ele>40.83333333333333</ele><time>2026-05-04T09:49:21.118Z</time></trkpt><trkpt lat="41.1287233" lon="14.2903683"><ele>40.666666666666664</ele><time>2026-05-04T09:49:22.117Z</time></trkpt><trkpt lat="41.1287617" lon="14.2902667"><ele>40.5</ele><time>2026-05-04T09:49:23.117Z</time></trkpt><trkpt lat="41.1288" lon="14.290165"><ele>40.333333333333336</ele><time>2026-05-04T09:49:24.117Z</time></trkpt><trkpt lat="41.1288367" lon="14.290065"><ele>40.16666666666667</ele><time>2026-05-04T09:49:25.116Z</time></trkpt><trkpt lat="41.1288683" lon="14.2899683"><ele>40.0</ele><time>2026-05-04T09:49:26.12Z</time></trkpt><trkpt lat="41.1289" lon="14.2898717"><ele>40.0</ele><time>2026-05-04T09:49:27.117Z</time></trkpt><trkpt lat="41.128935" lon="14.2897733"><ele>40.0</ele><time>2026-05-04T09:49:28.118Z</time></trkpt><trkpt lat="41.1289683" lon="14.28968"><ele>40.0</ele><time>2026-05-04T09:49:29.118Z</time></trkpt><trkpt lat="41.129" lon="14.2895867"><ele>40.0</ele><time>2026-05-04T09:49:30.116Z</time></trkpt><trkpt lat="41.129035" lon="14.289495"><ele>40.0</ele><time>2026-05-04T09:49:31.118Z</time></trkpt><trkpt lat="41.1290717" lon="14.2894083"><ele>40.0</ele><time>2026-05-04T09:49:32.118Z</time></trkpt><trkpt lat="41.129105" lon="14.289325"><ele>39.857142857142854</ele><time>2026-05-04T09:49:33.118Z</time></trkpt><trkpt lat="41.12914" lon="14.2892433"><ele>39.714285714285715</ele><time>2026-05-04T09:49:34.117Z</time></trkpt><trkpt lat="41.1291733" lon="14.28916"><ele>39.57142857142857</ele><time>2026-05-04T09:49:35.117Z</time></trkpt><trkpt lat="41.129205" lon="14.289075"><ele>39.42857142857143</ele><time>2026-05-04T09:49:36.117Z</time></trkpt><trkpt lat="41.12924" lon="14.28899"><ele>39.285714285714285</ele><time>2026-05-04T09:49:37.118Z</time></trkpt><trkpt lat="41.1292733" lon="14.2889067"><ele>39.142857142857146</ele><time>2026-05-04T09:49:38.118Z</time></trkpt><trkpt lat="41.129305" lon="14.2888217"><ele>39.0</ele><time>2026-05-04T09:49:39.118Z</time></trkpt><trkpt lat="41.1293383" lon="14.288735"><ele>39.714285714285715</ele><time>2026-05-04T09:49:40.117Z</time></trkpt><trkpt lat="41.12937" lon="14.2886533"><ele>40.42857142857142</ele><time>2026-05-04T09:49:41.118Z</time></trkpt><trkpt lat="41.1294033" lon="14.2885733"><ele>41.14285714285714</ele><time>2026-05-04T09:49:42.117Z</time></trkpt><trkpt lat="41.129435" lon="14.2884933"><ele>41.85714285714286</ele><time>2026-05-04T09:49:43.118Z</time></trkpt><trkpt lat="41.1294667" lon="14.2884133"><ele>42.57142857142857</ele><time>2026-05-04T09:49:44.118Z</time></trkpt><trkpt lat="41.1295" lon="14.2883317"><ele>43.285714285714285</ele><time>2026-05-04T09:49:45.119Z</time></trkpt><trkpt lat="41.1295317" lon="14.2882483"><ele>44.0</ele><time>2026-05-04T09:49:46.117Z</time></trkpt><trkpt lat="41.1295617" lon="14.2881667"><ele>44.33333333333333</ele><time>2026-05-04T09:49:47.118Z</time></trkpt><trkpt lat="41.129595" lon="14.2880883"><ele>44.666666666666664</ele><time>2026-05-04T09:49:48.118Z</time></trkpt><trkpt lat="41.129625" lon="14.2880133"><ele>45.0</ele><time>2026-05-04T09:49:49.117Z</time></trkpt><trkpt lat="41.1296817" lon="14.2878683"><ele>45.333333333333336</ele><time>2026-05-04T09:49:51.117Z</time></trkpt><trkpt lat="41.129735" lon="14.28772"><ele>45.66666666666667</ele><time>2026-05-04T09:49:53.118Z</time></trkpt><trkpt lat="41.1297633" lon="14.287645"><ele>46.0</ele><time>2026-05-04T09:49:54.118Z</time></trkpt><trkpt lat="41.129815" lon="14.2875017"><ele>46.0</ele><time>2026-05-04T09:49:56.118Z</time></trkpt><trkpt lat="41.12987" lon="14.2873683"><ele>46.0</ele><time>2026-05-04T09:49:58.118Z</time></trkpt><trkpt lat="41.1299233" lon="14.28723"><ele>46.0</ele><time>2026-05-04T09:50:00.117Z</time></trkpt><trkpt lat="41.12998" lon="14.2870883"><ele>46.0</ele><time>2026-05-04T09:50:02.118Z</time></trkpt><trkpt lat="41.13004" lon="14.2869383"><ele>46.142857142857146</ele><time>2026-05-04T09:50:04.117Z</time></trkpt><trkpt lat="41.13007" lon="14.2868617"><ele>46.285714285714285</ele><time>2026-05-04T09:50:05.117Z</time></trkpt><trkpt lat="41.1301" lon="14.2867817"><ele>46.42857142857143</ele><time>2026-05-04T09:50:06.117Z</time></trkpt><trkpt lat="41.1301317" lon="14.286705"><ele>46.57142857142857</ele><time>2026-05-04T09:50:07.117Z</time></trkpt><trkpt lat="41.1301617" lon="14.2866267"><ele>46.71428571428571</ele><time>2026-05-04T09:50:08.117Z</time></trkpt><trkpt lat="41.1301933" lon="14.2865467"><ele>46.857142857142854</ele><time>2026-05-04T09:50:09.116Z</time></trkpt><trkpt lat="41.130225" lon="14.2864633"><ele>47.0</ele><time>2026-05-04T09:50:10.118Z</time></trkpt><trkpt lat="41.1302567" lon="14.28638"><ele>47.0</ele><time>2026-05-04T09:50:11.117Z</time></trkpt><trkpt lat="41.1302883" lon="14.2862933"><ele>47.0</ele><time>2026-05-04T09:50:12.117Z</time></trkpt><trkpt lat="41.1303167" lon="14.28621"><ele>47.0</ele><time>2026-05-04T09:50:13.117Z</time></trkpt><trkpt lat="41.1303483" lon="14.286125"><ele>47.0</ele><time>2026-05-04T09:50:14.118Z</time></trkpt><trkpt lat="41.1303817" lon="14.28604"><ele>47.0</ele><time>2026-05-04T09:50:15.117Z</time></trkpt><trkpt lat="41.1304167" lon="14.2859533"><ele>47.0</ele><time>2026-05-04T09:50:16.116Z</time></trkpt><trkpt lat="41.1304533" lon="14.28587"><ele>47.0</ele><time>2026-05-04T09:50:17.117Z</time></trkpt><trkpt lat="41.1304867" lon="14.2857833"><ele>47.0</ele><time>2026-05-04T09:50:18.117Z</time></trkpt><trkpt lat="41.130515" lon="14.2857017"><ele>47.0</ele><time>2026-05-04T09:50:19.118Z</time></trkpt><trkpt lat="41.1305517" lon="14.2856183"><ele>47.0</ele><time>2026-05-04T09:50:20.117Z</time></trkpt><trkpt lat="41.1305883" lon="14.2855183"><ele>47.0</ele><time>2026-05-04T09:50:21.118Z</time></trkpt><trkpt lat="41.13062" lon="14.2854317"><ele>47.0</ele><time>2026-05-04T09:50:22.117Z</time></trkpt><trkpt lat="41.130655" lon="14.28534"><ele>47.0</ele><time>2026-05-04T09:50:23.117Z</time></trkpt><trkpt lat="41.13069" lon="14.28525"><ele>45.5</ele><time>2026-05-04T09:50:24.118Z</time></trkpt><trkpt lat="41.130725" lon="14.2851567"><ele>44.0</ele><time>2026-05-04T09:50:25.117Z</time></trkpt><trkpt lat="41.13076" lon="14.2850583"><ele>42.5</ele><time>2026-05-04T09:50:26.118Z</time></trkpt><trkpt lat="41.130795" lon="14.284965"><ele>41.0</ele><time>2026-05-04T09:50:27.119Z</time></trkpt><trkpt lat="41.13083" lon="14.2848717"><ele>39.5</ele><time>2026-05-04T09:50:28.116Z</time></trkpt><trkpt lat="41.1308667" lon="14.2847767"><ele>38.0</ele><time>2026-05-04T09:50:29.117Z</time></trkpt><trkpt lat="41.1309067" lon="14.2846783"><ele>38.0</ele><time>2026-05-04T09:50:30.118Z</time></trkpt><trkpt lat="41.130945" lon="14.2845767"><ele>38.0</ele><time>2026-05-04T09:50:31.117Z</time></trkpt><trkpt lat="41.1309833" lon="14.284475"><ele>38.0</ele><time>2026-05-04T09:50:32.118Z</time></trkpt><trkpt lat="41.1310233" lon="14.28437"><ele>38.0</ele><time>2026-05-04T09:50:33.117Z</time></trkpt><trkpt lat="41.1310617" lon="14.2842667"><ele>38.0</ele><time>2026-05-04T09:50:34.117Z</time></trkpt><trkpt lat="41.1311033" lon="14.28416"><ele>38.0</ele><time>2026-05-04T09:50:35.118Z</time></trkpt><trkpt lat="41.131145" lon="14.2840533"><ele>38.0</ele><time>2026-05-04T09:50:36.117Z</time></trkpt><trkpt lat="41.1311833" lon="14.283945"><ele>38.0</ele><time>2026-05-04T09:50:37.119Z</time></trkpt><trkpt lat="41.131225" lon="14.2838383"><ele>38.0</ele><time>2026-05-04T09:50:38.117Z</time></trkpt><trkpt lat="41.131265" lon="14.2837283"><ele>38.0</ele><time>2026-05-04T09:50:39.119Z</time></trkpt><trkpt lat="41.1313067" lon="14.2836117"><ele>38.0</ele><time>2026-05-04T09:50:40.118Z</time></trkpt><trkpt lat="41.131345" lon="14.283505"><ele>38.0</ele><time>2026-05-04T09:50:41.117Z</time></trkpt><trkpt lat="41.1313833" lon="14.2834"><ele>38.0</ele><time>2026-05-04T09:50:42.117Z</time></trkpt><trkpt lat="41.13142" lon="14.2832967"><ele>38.0</ele><time>2026-05-04T09:50:43.118Z</time></trkpt><trkpt lat="41.1314567" lon="14.2831983"><ele>38.0</ele><time>2026-05-04T09:50:44.117Z</time></trkpt><trkpt lat="41.1314917" lon="14.2830983"><ele>38.0</ele><time>2026-05-04T09:50:45.118Z</time></trkpt><trkpt lat="41.1315283" lon="14.2829917"><ele>38.0</ele><time>2026-05-04T09:50:46.117Z</time></trkpt><trkpt lat="41.1315633" lon="14.28289"><ele>37.166666666666664</ele><time>2026-05-04T09:50:47.117Z</time></trkpt><trkpt lat="41.1315933" lon="14.2827867"><ele>36.33333333333333</ele><time>2026-05-04T09:50:48.117Z</time></trkpt><trkpt lat="41.131615" lon="14.2826833"><ele>35.5</ele><time>2026-05-04T09:50:49.118Z</time></trkpt><trkpt lat="41.13163" lon="14.2825767"><ele>34.666666666666664</ele><time>2026-05-04T09:50:50.118Z</time></trkpt><trkpt lat="41.131645" lon="14.2824683"><ele>33.833333333333336</ele><time>2026-05-04T09:50:51.117Z</time></trkpt><trkpt lat="41.1316533" lon="14.282355"><ele>33.0</ele><time>2026-05-04T09:50:52.118Z</time></trkpt><trkpt lat="41.1316583" lon="14.2822367"><ele>32.8</ele><time>2026-05-04T09:50:53.119Z</time></trkpt><trkpt lat="41.13166" lon="14.2821133"><ele>32.599999999999994</ele><time>2026-05-04T09:50:54.122Z</time></trkpt><trkpt lat="41.13166" lon="14.2819917"><ele>32.400000000000006</ele><time>2026-05-04T09:50:55.119Z</time></trkpt><trkpt lat="41.1316617" lon="14.2818717"><ele>32.2</ele><time>2026-05-04T09:50:56.121Z</time></trkpt><trkpt lat="41.1316567" lon="14.28175"><ele>32.0</ele><time>2026-05-04T09:50:57.117Z</time></trkpt><trkpt lat="41.13165" lon="14.2816267"><ele>31.999999999999996</ele><time>2026-05-04T09:50:58.118Z</time></trkpt><trkpt lat="41.131645" lon="14.281505"><ele>32.0</ele><time>2026-05-04T09:50:59.117Z</time></trkpt><trkpt lat="41.1316333" lon="14.2813883"><ele>32.0</ele><time>2026-05-04T09:51:00.117Z</time></trkpt><trkpt lat="41.1316267" lon="14.28127"><ele>32.0</ele><time>2026-05-04T09:51:01.117Z</time></trkpt><trkpt lat="41.1316233" lon="14.2811517"><ele>31.999999999999996</ele><time>2026-05-04T09:51:02.12Z</time></trkpt><trkpt lat="41.1316183" lon="14.281035"><ele>32.0</ele><time>2026-05-04T09:51:03.117Z</time></trkpt><trkpt lat="41.1316183" lon="14.28092"><ele>32.166666666666664</ele><time>2026-05-04T09:51:04.118Z</time></trkpt><trkpt lat="41.1316233" lon="14.2808033"><ele>32.33333333333333</ele><time>2026-05-04T09:51:05.118Z</time></trkpt><trkpt lat="41.1316233" lon="14.28069"><ele>32.5</ele><time>2026-05-04T09:51:06.118Z</time></trkpt><trkpt lat="41.1316217" lon="14.2805817"><ele>32.666666666666664</ele><time>2026-05-04T09:51:07.118Z</time></trkpt><trkpt lat="41.1316217" lon="14.280475"><ele>32.833333333333336</ele><time>2026-05-04T09:51:08.119Z</time></trkpt><trkpt lat="41.131635" lon="14.28036"><ele>33.0</ele><time>2026-05-04T09:51:09.117Z</time></trkpt><trkpt lat="41.1316383" lon="14.2802517"><ele>33.0</ele><time>2026-05-04T09:51:10.117Z</time></trkpt><trkpt lat="41.1316433" lon="14.2801417"><ele>33.0</ele><time>2026-05-04T09:51:11.117Z</time></trkpt><trkpt lat="41.1316483" lon="14.28003"><ele>33.0</ele><time>2026-05-04T09:51:12.117Z</time></trkpt><trkpt lat="41.1316517" lon="14.27992"><ele>33.0</ele><time>2026-05-04T09:51:13.117Z</time></trkpt><trkpt lat="41.131655" lon="14.27981"><ele>33.0</ele><time>2026-05-04T09:51:14.118Z</time></trkpt><trkpt lat="41.1316567" lon="14.2797017"><ele>33.0</ele><time>2026-05-04T09:51:15.117Z</time></trkpt><trkpt lat="41.131655" lon="14.2795967"><ele>33.0</ele><time>2026-05-04T09:51:16.117Z</time></trkpt><trkpt lat="41.131655" lon="14.27949"><ele>33.0</ele><time>2026-05-04T09:51:17.119Z</time></trkpt><trkpt lat="41.13166" lon="14.2793817"><ele>33.0</ele><time>2026-05-04T09:51:18.117Z</time></trkpt><trkpt lat="41.1316617" lon="14.279285"><ele>33.0</ele><time>2026-05-04T09:51:19.118Z</time></trkpt><trkpt lat="41.1316617" lon="14.27919"><ele>33.0</ele><time>2026-05-04T09:51:20.117Z</time></trkpt><trkpt lat="41.1316717" lon="14.2790967"><ele>33.0</ele><time>2026-05-04T09:51:21.117Z</time></trkpt><trkpt lat="41.1316917" lon="14.2790067"><ele>33.0</ele><time>2026-05-04T09:51:22.117Z</time></trkpt><trkpt lat="41.1317167" lon="14.2789183"><ele>32.8</ele><time>2026-05-04T09:51:23.118Z</time></trkpt><trkpt lat="41.1317383" lon="14.2788317"><ele>32.599999999999994</ele><time>2026-05-04T09:51:24.118Z</time></trkpt><trkpt lat="41.1317417" lon="14.278745"><ele>32.400000000000006</ele><time>2026-05-04T09:51:25.118Z</time></trkpt><trkpt lat="41.1317083" lon="14.278585"><ele>32.2</ele><time>2026-05-04T09:51:27.117Z</time></trkpt><trkpt lat="41.13167" lon="14.2784283"><ele>32.0</ele><time>2026-05-04T09:51:29.117Z</time></trkpt><trkpt lat="41.1316517" lon="14.2782683"><ele>32.0</ele><time>2026-05-04T09:51:31.117Z</time></trkpt><trkpt lat="41.1316467" lon="14.2781067"><ele>32.0</ele><time>2026-05-04T09:51:33.118Z</time></trkpt><trkpt lat="41.1316517" lon="14.277955"><ele>32.0</ele><time>2026-05-04T09:51:35.118Z</time></trkpt><trkpt lat="41.1316767" lon="14.2778067"><ele>32.0</ele><time>2026-05-04T09:51:37.119Z</time></trkpt><trkpt lat="41.13172" lon="14.2776667"><ele>32.0</ele><time>2026-05-04T09:51:39.118Z</time></trkpt><trkpt lat="41.131775" lon="14.2775317"><ele>32.0</ele><time>2026-05-04T09:51:41.117Z</time></trkpt><trkpt lat="41.1318417" lon="14.2774183"><ele>32.0</ele><time>2026-05-04T09:51:43.117Z</time></trkpt><trkpt lat="41.131915" lon="14.2773217"><ele>32.0</ele><time>2026-05-04T09:51:45.117Z</time></trkpt><trkpt lat="41.1319967" lon="14.2772517"><ele>32.0</ele><time>2026-05-04T09:51:47.118Z</time></trkpt><trkpt lat="41.1320733" lon="14.2771833"><ele>32.0</ele><time>2026-05-04T09:51:49.119Z</time></trkpt><trkpt lat="41.1321433" lon="14.2771383"><ele>32.0</ele><time>2026-05-04T09:51:51.118Z</time></trkpt><trkpt lat="41.13222" lon="14.2770983"><ele>32.0</ele><time>2026-05-04T09:51:53.118Z</time></trkpt><trkpt lat="41.1323117" lon="14.2770667"><ele>32.0</ele><time>2026-05-04T09:51:55.118Z</time></trkpt><trkpt lat="41.13241" lon="14.2770467"><ele>32.0</ele><time>2026-05-04T09:51:57.117Z</time></trkpt><trkpt lat="41.13251" lon="14.2770433"><ele>31.400000000000002</ele><time>2026-05-04T09:51:59.118Z</time></trkpt><trkpt lat="41.1326167" lon="14.2770433"><ele>30.800000000000004</ele><time>2026-05-04T09:52:01.118Z</time></trkpt><trkpt lat="41.132725" lon="14.2770367"><ele>30.2</ele><time>2026-05-04T09:52:03.117Z</time></trkpt><trkpt lat="41.1328317" lon="14.2770367"><ele>29.6</ele><time>2026-05-04T09:52:05.118Z</time></trkpt><trkpt lat="41.1329467" lon="14.2770317"><ele>29.0</ele><time>2026-05-04T09:52:07.117Z</time></trkpt><trkpt lat="41.1330667" lon="14.27703"><ele>29.0</ele><time>2026-05-04T09:52:09.118Z</time></trkpt><trkpt lat="41.1331917" lon="14.2770267"><ele>29.0</ele><time>2026-05-04T09:52:11.117Z</time></trkpt><trkpt lat="41.13331" lon="14.2770267"><ele>29.0</ele><time>2026-05-04T09:52:13.117Z</time></trkpt><trkpt lat="41.13343" lon="14.2770267"><ele>29.0</ele><time>2026-05-04T09:52:15.117Z</time></trkpt><trkpt lat="41.1335467" lon="14.2770233"><ele>28.799999999999997</ele><time>2026-05-04T09:52:17.117Z</time></trkpt><trkpt lat="41.1336683" lon="14.2770167"><ele>28.599999999999998</ele><time>2026-05-04T09:52:19.117Z</time></trkpt><trkpt lat="41.1337317" lon="14.2770133"><ele>28.4</ele><time>2026-05-04T09:52:20.119Z</time></trkpt><trkpt lat="41.133795" lon="14.2770083"><ele>28.2</ele><time>2026-05-04T09:52:21.117Z</time></trkpt><trkpt lat="41.1339133" lon="14.277005"><ele>28.0</ele><time>2026-05-04T09:52:23.119Z</time></trkpt><trkpt lat="41.1340317" lon="14.277"><ele>27.799999999999997</ele><time>2026-05-04T09:52:25.118Z</time></trkpt><trkpt lat="41.134155" lon="14.2769917"><ele>27.599999999999998</ele><time>2026-05-04T09:52:27.119Z</time></trkpt><trkpt lat="41.1342183" lon="14.2769867"><ele>27.400000000000002</ele><time>2026-05-04T09:52:28.116Z</time></trkpt><trkpt lat="41.1343367" lon="14.27698"><ele>27.200000000000003</ele><time>2026-05-04T09:52:30.117Z</time></trkpt><trkpt lat="41.1344583" lon="14.2769683"><ele>27.0</ele><time>2026-05-04T09:52:32.12Z</time></trkpt><trkpt lat="41.1345217" lon="14.2769633"><ele>27.0</ele><time>2026-05-04T09:52:33.118Z</time></trkpt><trkpt lat="41.134645" lon="14.276955"><ele>27.000000000000004</ele><time>2026-05-04T09:52:35.116Z</time></trkpt><trkpt lat="41.1347717" lon="14.2769517"><ele>27.000000000000004</ele><time>2026-05-04T09:52:37.116Z</time></trkpt><trkpt lat="41.13484" lon="14.2769517"><ele>27.0</ele><time>2026-05-04T09:52:38.118Z</time></trkpt><trkpt lat="41.1349083" lon="14.2769517"><ele>27.0</ele><time>2026-05-04T09:52:39.116Z</time></trkpt><trkpt lat="41.134985" lon="14.2769483"><ele>27.0</ele><time>2026-05-04T09:52:40.117Z</time></trkpt><trkpt lat="41.135065" lon="14.2769433"><ele>27.0</ele><time>2026-05-04T09:52:41.117Z</time></trkpt><trkpt lat="41.1351517" lon="14.2769333"><ele>27.0</ele><time>2026-05-04T09:52:42.119Z</time></trkpt><trkpt lat="41.1352367" lon="14.2769267"><ele>27.0</ele><time>2026-05-04T09:52:43.118Z</time></trkpt><trkpt lat="41.1353233" lon="14.2769267"><ele>27.0</ele><time>2026-05-04T09:52:44.117Z</time></trkpt><trkpt lat="41.1354117" lon="14.2769267"><ele>27.0</ele><time>2026-05-04T09:52:45.118Z</time></trkpt><trkpt lat="41.1355033" lon="14.2769283"><ele>27.0</ele><time>2026-05-04T09:52:46.116Z</time></trkpt><trkpt lat="41.1355983" lon="14.27693"><ele>27.000000000000004</ele><time>2026-05-04T09:52:47.118Z</time></trkpt><trkpt lat="41.1356967" lon="14.2769283"><ele>27.000000000000004</ele><time>2026-05-04T09:52:48.118Z</time></trkpt><trkpt lat="41.1358" lon="14.2769233"><ele>27.0</ele><time>2026-05-04T09:52:49.119Z</time></trkpt><trkpt lat="41.1359033" lon="14.27692"><ele>27.0</ele><time>2026-05-04T09:52:50.118Z</time></trkpt><trkpt lat="41.13601" lon="14.2769167"><ele>27.400000000000002</ele><time>2026-05-04T09:52:51.116Z</time></trkpt><trkpt lat="41.136115" lon="14.2769183"><ele>27.800000000000004</ele><time>2026-05-04T09:52:52.116Z</time></trkpt><trkpt lat="41.1362183" lon="14.2769233"><ele>28.2</ele><time>2026-05-04T09:52:53.117Z</time></trkpt><trkpt lat="41.136325" lon="14.276925"><ele>28.6</ele><time>2026-05-04T09:52:54.117Z</time></trkpt><trkpt lat="41.136425" lon="14.27693"><ele>29.0</ele><time>2026-05-04T09:52:55.117Z</time></trkpt><trkpt lat="41.136525" lon="14.2769367"><ele>29.0</ele><time>2026-05-04T09:52:56.117Z</time></trkpt><trkpt lat="41.1366233" lon="14.2769417"><ele>29.0</ele><time>2026-05-04T09:52:57.119Z</time></trkpt><trkpt lat="41.13672" lon="14.2769467"><ele>29.0</ele><time>2026-05-04T09:52:58.116Z</time></trkpt><trkpt lat="41.1368117" lon="14.2769517"><ele>29.0</ele><time>2026-05-04T09:52:59.117Z</time></trkpt><trkpt lat="41.136905" lon="14.276955"><ele>29.0</ele><time>2026-05-04T09:53:00.118Z</time></trkpt><trkpt lat="41.1369933" lon="14.2769617"><ele>28.999999999999996</ele><time>2026-05-04T09:53:01.116Z</time></trkpt><trkpt lat="41.137075" lon="14.2769717"><ele>29.0</ele><time>2026-05-04T09:53:02.116Z</time></trkpt><trkpt lat="41.1371567" lon="14.2769783"><ele>29.0</ele><time>2026-05-04T09:53:03.117Z</time></trkpt><trkpt lat="41.13724" lon="14.27698"><ele>29.0</ele><time>2026-05-04T09:53:04.117Z</time></trkpt><trkpt lat="41.1373267" lon="14.2769817"><ele>28.999999999999996</ele><time>2026-05-04T09:53:05.118Z</time></trkpt><trkpt lat="41.1374117" lon="14.2769817"><ele>29.0</ele><time>2026-05-04T09:53:06.116Z</time></trkpt><trkpt lat="41.137495" lon="14.276985"><ele>28.833333333333332</ele><time>2026-05-04T09:53:07.117Z</time></trkpt><trkpt lat="41.1375767" lon="14.2769883"><ele>28.666666666666664</ele><time>2026-05-04T09:53:08.118Z</time></trkpt><trkpt lat="41.1376567" lon="14.2769933"><ele>28.5</ele><time>2026-05-04T09:53:09.116Z</time></trkpt><trkpt lat="41.137735" lon="14.276995"><ele>28.333333333333336</ele><time>2026-05-04T09:53:10.118Z</time></trkpt><trkpt lat="41.1378133" lon="14.2769967"><ele>28.166666666666668</ele><time>2026-05-04T09:53:11.117Z</time></trkpt><trkpt lat="41.1378917" lon="14.2770017"><ele>28.0</ele><time>2026-05-04T09:53:12.118Z</time></trkpt><trkpt lat="41.1379683" lon="14.2770033"><ele>28.000000000000004</ele><time>2026-05-04T09:53:13.116Z</time></trkpt><trkpt lat="41.1380433" lon="14.2770067"><ele>28.0</ele><time>2026-05-04T09:53:14.117Z</time></trkpt><trkpt lat="41.13812" lon="14.2770067"><ele>28.0</ele><time>2026-05-04T09:53:15.119Z</time></trkpt><trkpt lat="41.1381933" lon="14.2770033"><ele>28.0</ele><time>2026-05-04T09:53:16.117Z</time></trkpt><trkpt lat="41.1382683" lon="14.2770033"><ele>28.000000000000004</ele><time>2026-05-04T09:53:17.117Z</time></trkpt><trkpt lat="41.1383417" lon="14.2770067"><ele>28.0</ele><time>2026-05-04T09:53:18.116Z</time></trkpt><trkpt lat="41.1384183" lon="14.277015"><ele>28.0</ele><time>2026-05-04T09:53:19.118Z</time></trkpt><trkpt lat="41.13849" lon="14.27702"><ele>28.0</ele><time>2026-05-04T09:53:20.116Z</time></trkpt><trkpt lat="41.1385617" lon="14.2770217"><ele>28.0</ele><time>2026-05-04T09:53:21.117Z</time></trkpt><trkpt lat="41.138635" lon="14.277025"><ele>28.0</ele><time>2026-05-04T09:53:22.116Z</time></trkpt><trkpt lat="41.1387067" lon="14.2770333"><ele>28.0</ele><time>2026-05-04T09:53:23.118Z</time></trkpt><trkpt lat="41.1387783" lon="14.2770367"><ele>28.0</ele><time>2026-05-04T09:53:24.118Z</time></trkpt><trkpt lat="41.1388533" lon="14.2770417"><ele>28.0</ele><time>2026-05-04T09:53:25.117Z</time></trkpt><trkpt lat="41.1389283" lon="14.27705"><ele>28.000000000000004</ele><time>2026-05-04T09:53:26.117Z</time></trkpt><trkpt lat="41.1390033" lon="14.2770567"><ele>28.0</ele><time>2026-05-04T09:53:27.12Z</time></trkpt><trkpt lat="41.139075" lon="14.2770617"><ele>28.0</ele><time>2026-05-04T09:53:28.117Z</time></trkpt><trkpt lat="41.1391483" lon="14.277065"><ele>28.0</ele><time>2026-05-04T09:53:29.116Z</time></trkpt><trkpt lat="41.139225" lon="14.277065"><ele>28.000000000000004</ele><time>2026-05-04T09:53:30.117Z</time></trkpt><trkpt lat="41.1393" lon="14.277065"><ele>28.0</ele><time>2026-05-04T09:53:31.118Z</time></trkpt><trkpt lat="41.1393783" lon="14.2770633"><ele>28.0</ele><time>2026-05-04T09:53:32.117Z</time></trkpt><trkpt lat="41.139455" lon="14.2770617"><ele>28.0</ele><time>2026-05-04T09:53:33.118Z</time></trkpt><trkpt lat="41.1395283" lon="14.277065"><ele>28.0</ele><time>2026-05-04T09:53:34.117Z</time></trkpt><trkpt lat="41.139605" lon="14.2770683"><ele>28.0</ele><time>2026-05-04T09:53:35.117Z</time></trkpt><trkpt lat="41.13968" lon="14.2770717"><ele>28.0</ele><time>2026-05-04T09:53:36.117Z</time></trkpt><trkpt lat="41.1397517" lon="14.277075"><ele>28.0</ele><time>2026-05-04T09:53:37.116Z</time></trkpt><trkpt lat="41.1398267" lon="14.2770783"><ele>28.0</ele><time>2026-05-04T09:53:38.117Z</time></trkpt><trkpt lat="41.1399033" lon="14.2770733"><ele>28.0</ele><time>2026-05-04T09:53:39.117Z</time></trkpt><trkpt lat="41.13998" lon="14.2770733"><ele>28.0</ele><time>2026-05-04T09:53:40.117Z</time></trkpt><trkpt lat="41.140055" lon="14.2770733"><ele>28.0</ele><time>2026-05-04T09:53:41.118Z</time></trkpt><trkpt lat="41.140125" lon="14.2770717"><ele>28.0</ele><time>2026-05-04T09:53:42.117Z</time></trkpt><trkpt lat="41.1402" lon="14.2770717"><ele>28.0</ele><time>2026-05-04T09:53:43.117Z</time></trkpt><trkpt lat="41.140275" lon="14.27707"><ele>28.0</ele><time>2026-05-04T09:53:44.118Z</time></trkpt><trkpt lat="41.14035" lon="14.2770633"><ele>28.0</ele><time>2026-05-04T09:53:45.117Z</time></trkpt><trkpt lat="41.1404267" lon="14.2770567"><ele>28.0</ele><time>2026-05-04T09:53:46.117Z</time></trkpt><trkpt lat="41.1405017" lon="14.27705"><ele>28.0</ele><time>2026-05-04T09:53:47.117Z</time></trkpt><trkpt lat="41.140575" lon="14.277035"><ele>28.0</ele><time>2026-05-04T09:53:48.118Z</time></trkpt><trkpt lat="41.14065" lon="14.2770183"><ele>28.0</ele><time>2026-05-04T09:53:49.117Z</time></trkpt><trkpt lat="41.1407217" lon="14.2769967"><ele>28.0</ele><time>2026-05-04T09:53:50.118Z</time></trkpt><trkpt lat="41.1407933" lon="14.2769667"><ele>28.0</ele><time>2026-05-04T09:53:51.117Z</time></trkpt><trkpt lat="41.14086" lon="14.2769317"><ele>28.0</ele><time>2026-05-04T09:53:52.118Z</time></trkpt><trkpt lat="41.14093" lon="14.276895"><ele>28.0</ele><time>2026-05-04T09:53:53.116Z</time></trkpt><trkpt lat="41.141" lon="14.2768533"><ele>28.0</ele><time>2026-05-04T09:53:54.117Z</time></trkpt><trkpt lat="41.141065" lon="14.2768117"><ele>28.0</ele><time>2026-05-04T09:53:55.116Z</time></trkpt><trkpt lat="41.1411283" lon="14.276765"><ele>28.0</ele><time>2026-05-04T09:53:56.118Z</time></trkpt><trkpt lat="41.1411917" lon="14.2767133"><ele>28.0</ele><time>2026-05-04T09:53:57.117Z</time></trkpt><trkpt lat="41.1412567" lon="14.2766617"><ele>28.0</ele><time>2026-05-04T09:53:58.118Z</time></trkpt><trkpt lat="41.1413167" lon="14.2766067"><ele>28.0</ele><time>2026-05-04T09:53:59.117Z</time></trkpt><trkpt lat="41.1413733" lon="14.276545"><ele>28.0</ele><time>2026-05-04T09:54:00.118Z</time></trkpt><trkpt lat="41.1414283" lon="14.2764833"><ele>28.0</ele><time>2026-05-04T09:54:01.118Z</time></trkpt><trkpt lat="41.1414833" lon="14.2764183"><ele>28.0</ele><time>2026-05-04T09:54:02.118Z</time></trkpt><trkpt lat="41.1415383" lon="14.2763533"><ele>28.0</ele><time>2026-05-04T09:54:03.118Z</time></trkpt><trkpt lat="41.14159" lon="14.2762833"><ele>28.0</ele><time>2026-05-04T09:54:04.117Z</time></trkpt><trkpt lat="41.1416417" lon="14.2762117"><ele>28.0</ele><time>2026-05-04T09:54:05.117Z</time></trkpt><trkpt lat="41.1416883" lon="14.2761367"><ele>28.0</ele><time>2026-05-04T09:54:06.117Z</time></trkpt><trkpt lat="41.14173" lon="14.27606"><ele>28.142857142857142</ele><time>2026-05-04T09:54:07.117Z</time></trkpt><trkpt lat="41.14177" lon="14.2759817"><ele>28.285714285714285</ele><time>2026-05-04T09:54:08.117Z</time></trkpt><trkpt lat="41.14181" lon="14.2759017"><ele>28.42857142857143</ele><time>2026-05-04T09:54:09.117Z</time></trkpt><trkpt lat="41.141845" lon="14.2758233"><ele>28.571428571428573</ele><time>2026-05-04T09:54:10.118Z</time></trkpt><trkpt lat="41.1418783" lon="14.2757433"><ele>28.714285714285715</ele><time>2026-05-04T09:54:11.118Z</time></trkpt><trkpt lat="41.1419067" lon="14.27566"><ele>28.85714285714286</ele><time>2026-05-04T09:54:12.118Z</time></trkpt><trkpt lat="41.1419333" lon="14.27558"><ele>29.000000000000004</ele><time>2026-05-04T09:54:13.117Z</time></trkpt><trkpt lat="41.1419817" lon="14.2754183"><ele>29.0</ele><time>2026-05-04T09:54:15.117Z</time></trkpt><trkpt lat="41.1420083" lon="14.2753383"><ele>29.0</ele><time>2026-05-04T09:54:16.117Z</time></trkpt><trkpt lat="41.1420317" lon="14.27526"><ele>29.0</ele><time>2026-05-04T09:54:17.117Z</time></trkpt><trkpt lat="41.1420767" lon="14.2751067"><ele>29.0</ele><time>2026-05-04T09:54:19.119Z</time></trkpt><trkpt lat="41.142125" lon="14.2749583"><ele>29.0</ele><time>2026-05-04T09:54:21.117Z</time></trkpt><trkpt lat="41.1421783" lon="14.2748233"><ele>28.799999999999997</ele><time>2026-05-04T09:54:23.119Z</time></trkpt><trkpt lat="41.142235" lon="14.2746833"><ele>28.599999999999998</ele><time>2026-05-04T09:54:25.119Z</time></trkpt><trkpt lat="41.1423" lon="14.274555"><ele>28.4</ele><time>2026-05-04T09:54:27.117Z</time></trkpt><trkpt lat="41.1423667" lon="14.2744433"><ele>28.2</ele><time>2026-05-04T09:54:29.119Z</time></trkpt><trkpt lat="41.142435" lon="14.274345"><ele>28.0</ele><time>2026-05-04T09:54:31.117Z</time></trkpt><trkpt lat="41.142505" lon="14.2742517"><ele>28.000000000000004</ele><time>2026-05-04T09:54:33.117Z</time></trkpt><trkpt lat="41.1425683" lon="14.2741683"><ele>28.0</ele><time>2026-05-04T09:54:35.118Z</time></trkpt><trkpt lat="41.142635" lon="14.274095"><ele>28.0</ele><time>2026-05-04T09:54:37.118Z</time></trkpt><trkpt lat="41.1427017" lon="14.2740383"><ele>28.0</ele><time>2026-05-04T09:54:39.117Z</time></trkpt><trkpt lat="41.1427617" lon="14.274"><ele>28.000000000000004</ele><time>2026-05-04T09:54:41.117Z</time></trkpt><trkpt lat="41.1428217" lon="14.273945"><ele>28.0</ele><time>2026-05-04T09:54:44.118Z</time></trkpt><trkpt lat="41.1428667" lon="14.27388"><ele>28.333333333333336</ele><time>2026-05-04T09:54:47.118Z</time></trkpt><trkpt lat="41.1429283" lon="14.2738217"><ele>28.666666666666668</ele><time>2026-05-04T09:54:50.12Z</time></trkpt><trkpt lat="41.14299" lon="14.2737667"><ele>29.0</ele><time>2026-05-04T09:54:53.119Z</time></trkpt><trkpt lat="41.1430633" lon="14.2737083"><ele>29.333333333333336</ele><time>2026-05-04T09:54:56.12Z</time></trkpt><trkpt lat="41.1431317" lon="14.27366"><ele>29.666666666666668</ele><time>2026-05-04T09:54:59.118Z</time></trkpt><trkpt lat="41.1432" lon="14.2736083"><ele>30.0</ele><time>2026-05-04T09:55:02.119Z</time></trkpt><trkpt lat="41.143265" lon="14.27355"><ele>30.833333333333332</ele><time>2026-05-04T09:55:05.119Z</time></trkpt><trkpt lat="41.1433367" lon="14.2734733"><ele>31.666666666666664</ele><time>2026-05-04T09:55:08.12Z</time></trkpt><trkpt lat="41.143405" lon="14.2734033"><ele>32.5</ele><time>2026-05-04T09:55:11.119Z</time></trkpt><trkpt lat="41.143475" lon="14.2733417"><ele>33.33333333333333</ele><time>2026-05-04T09:55:14.117Z</time></trkpt><trkpt lat="41.1435333" lon="14.2733"><ele>34.166666666666664</ele><time>2026-05-04T09:55:16.118Z</time></trkpt><trkpt lat="41.1435933" lon="14.2732517"><ele>35.0</ele><time>2026-05-04T09:55:18.12Z</time></trkpt><trkpt lat="41.1436483" lon="14.2732017"><ele>35.0</ele><time>2026-05-04T09:55:20.119Z</time></trkpt><trkpt lat="41.1437033" lon="14.2731517"><ele>35.0</ele><time>2026-05-04T09:55:22.117Z</time></trkpt><trkpt lat="41.1437667" lon="14.2730983"><ele>35.0</ele><time>2026-05-04T09:55:24.119Z</time></trkpt><trkpt lat="41.1438317" lon="14.2730417"><ele>35.0</ele><time>2026-05-04T09:55:26.119Z</time></trkpt><trkpt lat="41.1438967" lon="14.2729933"><ele>35.0</ele><time>2026-05-04T09:55:28.119Z</time></trkpt><trkpt lat="41.1439733" lon="14.2729617"><ele>35.0</ele><time>2026-05-04T09:55:30.119Z</time></trkpt><trkpt lat="41.1440533" lon="14.273"><ele>36.5</ele><time>2026-05-04T09:55:32.119Z</time></trkpt><trkpt lat="41.1441283" lon="14.273075"><ele>38.0</ele><time>2026-05-04T09:55:34.119Z</time></trkpt><trkpt lat="41.1442033" lon="14.2731133"><ele>39.5</ele><time>2026-05-04T09:55:36.12Z</time></trkpt><trkpt lat="41.14428" lon="14.2731117"><ele>41.0</ele><time>2026-05-04T09:55:38.118Z</time></trkpt><trkpt lat="41.1443433" lon="14.2730633"><ele>42.5</ele><time>2026-05-04T09:55:40.12Z</time></trkpt><trkpt lat="41.1443983" lon="14.2729767"><ele>44.0</ele><time>2026-05-04T09:55:42.119Z</time></trkpt><trkpt lat="41.1444233" lon="14.272865"><ele>44.0</ele><time>2026-05-04T09:55:44.122Z</time></trkpt><trkpt lat="41.144425" lon="14.2727383"><ele>44.0</ele><time>2026-05-04T09:55:46.119Z</time></trkpt><trkpt lat="41.1444233" lon="14.27261"><ele>44.0</ele><time>2026-05-04T09:55:48.117Z</time></trkpt><trkpt lat="41.1444333" lon="14.27249"><ele>44.0</ele><time>2026-05-04T09:55:50.119Z</time></trkpt><trkpt lat="41.144465" lon="14.2723767"><ele>44.0</ele><time>2026-05-04T09:55:52.119Z</time></trkpt><trkpt lat="41.1445133" lon="14.2722733"><ele>43.800000000000004</ele><time>2026-05-04T09:55:54.118Z</time></trkpt><trkpt lat="41.1445633" lon="14.2721733"><ele>43.6</ele><time>2026-05-04T09:55:56.117Z</time></trkpt><trkpt lat="41.1446233" lon="14.2720617"><ele>43.4</ele><time>2026-05-04T09:55:58.119Z</time></trkpt><trkpt lat="41.144695" lon="14.2719733"><ele>43.2</ele><time>2026-05-04T09:56:00.119Z</time></trkpt><trkpt lat="41.14478" lon="14.27195"><ele>43.0</ele><time>2026-05-04T09:56:02.119Z</time></trkpt><trkpt lat="41.1448567" lon="14.2720133"><ele>43.2</ele><time>2026-05-04T09:56:04.118Z</time></trkpt><trkpt lat="41.1449217" lon="14.2721167"><ele>43.4</ele><time>2026-05-04T09:56:06.119Z</time></trkpt><trkpt lat="41.1449867" lon="14.27222"><ele>43.6</ele><time>2026-05-04T09:56:08.118Z</time></trkpt><trkpt lat="41.145045" lon="14.2723367"><ele>43.800000000000004</ele><time>2026-05-04T09:56:10.119Z</time></trkpt><trkpt lat="41.1451017" lon="14.27247"><ele>44.0</ele><time>2026-05-04T09:56:12.118Z</time></trkpt><trkpt lat="41.1451633" lon="14.2726067"><ele>44.0</ele><time>2026-05-04T09:56:14.119Z</time></trkpt><trkpt lat="41.14522" lon="14.272745"><ele>44.0</ele><time>2026-05-04T09:56:16.118Z</time></trkpt><trkpt lat="41.1452817" lon="14.27288"><ele>44.0</ele><time>2026-05-04T09:56:18.119Z</time></trkpt><trkpt lat="41.14535" lon="14.2730117"><ele>44.0</ele><time>2026-05-04T09:56:20.119Z</time></trkpt><trkpt lat="41.1454183" lon="14.273145"><ele>43.800000000000004</ele><time>2026-05-04T09:56:22.119Z</time></trkpt><trkpt lat="41.1454867" lon="14.27327"><ele>43.6</ele><time>2026-05-04T09:56:24.119Z</time></trkpt><trkpt lat="41.1455683" lon="14.27338"><ele>43.4</ele><time>2026-05-04T09:56:26.12Z</time></trkpt><trkpt lat="41.1456683" lon="14.273455"><ele>43.2</ele><time>2026-05-04T09:56:28.119Z</time></trkpt><trkpt lat="41.14573" lon="14.2734883"><ele>43.0</ele><time>2026-05-04T09:56:29.119Z</time></trkpt><trkpt lat="41.1457933" lon="14.273515"><ele>43.0</ele><time>2026-05-04T09:56:30.119Z</time></trkpt><trkpt lat="41.1459183" lon="14.273555"><ele>43.0</ele><time>2026-05-04T09:56:32.12Z</time></trkpt><trkpt lat="41.1459833" lon="14.2735683"><ele>43.0</ele><time>2026-05-04T09:56:33.119Z</time></trkpt><trkpt lat="41.1460467" lon="14.2735867"><ele>43.0</ele><time>2026-05-04T09:56:34.12Z</time></trkpt><trkpt lat="41.14611" lon="14.2736033"><ele>43.0</ele><time>2026-05-04T09:56:35.12Z</time></trkpt><trkpt lat="41.1461733" lon="14.27362"><ele>43.0</ele><time>2026-05-04T09:56:36.118Z</time></trkpt><trkpt lat="41.1462367" lon="14.2736367"><ele>43.0</ele><time>2026-05-04T09:56:37.119Z</time></trkpt><trkpt lat="41.1463017" lon="14.27365"><ele>43.0</ele><time>2026-05-04T09:56:38.121Z</time></trkpt><trkpt lat="41.146365" lon="14.2736667"><ele>43.0</ele><time>2026-05-04T09:56:39.119Z</time></trkpt><trkpt lat="41.1464283" lon="14.2736867"><ele>43.0</ele><time>2026-05-04T09:56:40.118Z</time></trkpt><trkpt lat="41.14649" lon="14.2737083"><ele>43.0</ele><time>2026-05-04T09:56:41.119Z</time></trkpt><trkpt lat="41.146615" lon="14.273745"><ele>43.0</ele><time>2026-05-04T09:56:43.119Z</time></trkpt><trkpt lat="41.1466783" lon="14.273765"><ele>43.28571428571429</ele><time>2026-05-04T09:56:44.119Z</time></trkpt><trkpt lat="41.146745" lon="14.2737817"><ele>43.57142857142857</ele><time>2026-05-04T09:56:45.122Z</time></trkpt><trkpt lat="41.14681" lon="14.2738017"><ele>43.85714285714286</ele><time>2026-05-04T09:56:46.119Z</time></trkpt><trkpt lat="41.1468767" lon="14.2738217"><ele>44.142857142857146</ele><time>2026-05-04T09:56:47.119Z</time></trkpt><trkpt lat="41.14694" lon="14.27384"><ele>44.42857142857143</ele><time>2026-05-04T09:56:48.118Z</time></trkpt><trkpt lat="41.1470067" lon="14.27386"><ele>44.714285714285715</ele><time>2026-05-04T09:56:49.122Z</time></trkpt><trkpt lat="41.14707" lon="14.2738783"><ele>45.0</ele><time>2026-05-04T09:56:50.118Z</time></trkpt><trkpt lat="41.1471317" lon="14.2738967"><ele>45.0</ele><time>2026-05-04T09:56:51.119Z</time></trkpt><trkpt lat="41.1471967" lon="14.27391"><ele>45.0</ele><time>2026-05-04T09:56:52.118Z</time></trkpt><trkpt lat="41.1472617" lon="14.2739217"><ele>45.0</ele><time>2026-05-04T09:56:53.119Z</time></trkpt><trkpt lat="41.1473267" lon="14.273935"><ele>45.0</ele><time>2026-05-04T09:56:54.119Z</time></trkpt><trkpt lat="41.147395" lon="14.2739467"><ele>45.0</ele><time>2026-05-04T09:56:55.119Z</time></trkpt><trkpt lat="41.1474617" lon="14.2739467"><ele>45.0</ele><time>2026-05-04T09:56:56.12Z</time></trkpt><trkpt lat="41.1475267" lon="14.2739433"><ele>45.0</ele><time>2026-05-04T09:56:57.119Z</time></trkpt><trkpt lat="41.147595" lon="14.2739283"><ele>45.0</ele><time>2026-05-04T09:56:58.12Z</time></trkpt><trkpt lat="41.1476633" lon="14.2739167"><ele>45.0</ele><time>2026-05-04T09:56:59.119Z</time></trkpt><trkpt lat="41.14773" lon="14.2739"><ele>45.0</ele><time>2026-05-04T09:57:00.119Z</time></trkpt><trkpt lat="41.1477967" lon="14.273885"><ele>45.0</ele><time>2026-05-04T09:57:01.119Z</time></trkpt><trkpt lat="41.1478633" lon="14.2738733"><ele>45.0</ele><time>2026-05-04T09:57:02.12Z</time></trkpt><trkpt lat="41.14793" lon="14.2738583"><ele>45.0</ele><time>2026-05-04T09:57:03.119Z</time></trkpt><trkpt lat="41.147995" lon="14.273845"><ele>45.0</ele><time>2026-05-04T09:57:04.119Z</time></trkpt><trkpt lat="41.1480583" lon="14.2738317"><ele>45.0</ele><time>2026-05-04T09:57:05.119Z</time></trkpt><trkpt lat="41.1481217" lon="14.2738133"><ele>45.0</ele><time>2026-05-04T09:57:06.117Z</time></trkpt><trkpt lat="41.1481867" lon="14.2737983"><ele>45.0</ele><time>2026-05-04T09:57:07.117Z</time></trkpt><trkpt lat="41.1482517" lon="14.273785"><ele>45.0</ele><time>2026-05-04T09:57:08.118Z</time></trkpt><trkpt lat="41.1483717" lon="14.2737533"><ele>45.0</ele><time>2026-05-04T09:57:10.117Z</time></trkpt><trkpt lat="41.148435" lon="14.27374"><ele>45.0</ele><time>2026-05-04T09:57:11.117Z</time></trkpt><trkpt lat="41.14856" lon="14.27371"><ele>45.333333333333336</ele><time>2026-05-04T09:57:13.117Z</time></trkpt><trkpt lat="41.1486267" lon="14.273695"><ele>45.666666666666664</ele><time>2026-05-04T09:57:14.117Z</time></trkpt><trkpt lat="41.1486917" lon="14.273685"><ele>46.0</ele><time>2026-05-04T09:57:15.119Z</time></trkpt><trkpt lat="41.1488117" lon="14.2736583"><ele>46.33333333333333</ele><time>2026-05-04T09:57:17.118Z</time></trkpt><trkpt lat="41.1489333" lon="14.2736317"><ele>46.666666666666664</ele><time>2026-05-04T09:57:19.118Z</time></trkpt><trkpt lat="41.1489967" lon="14.2736217"><ele>47.0</ele><time>2026-05-04T09:57:20.118Z</time></trkpt><trkpt lat="41.1491183" lon="14.27359"><ele>47.0</ele><time>2026-05-04T09:57:22.117Z</time></trkpt><trkpt lat="41.1491833" lon="14.2735733"><ele>47.0</ele><time>2026-05-04T09:57:23.117Z</time></trkpt><trkpt lat="41.149245" lon="14.2735567"><ele>47.0</ele><time>2026-05-04T09:57:24.118Z</time></trkpt><trkpt lat="41.1493083" lon="14.2735367"><ele>47.0</ele><time>2026-05-04T09:57:25.118Z</time></trkpt><trkpt lat="41.1493733" lon="14.27352"><ele>47.0</ele><time>2026-05-04T09:57:26.117Z</time></trkpt><trkpt lat="41.149435" lon="14.2735033"><ele>47.0</ele><time>2026-05-04T09:57:27.121Z</time></trkpt><trkpt lat="41.149555" lon="14.27346"><ele>47.0</ele><time>2026-05-04T09:57:29.117Z</time></trkpt><trkpt lat="41.149675" lon="14.2734083"><ele>47.0</ele><time>2026-05-04T09:57:31.121Z</time></trkpt><trkpt lat="41.1497383" lon="14.273385"><ele>47.0</ele><time>2026-05-04T09:57:32.117Z</time></trkpt><trkpt lat="41.1498" lon="14.2733633"><ele>47.0</ele><time>2026-05-04T09:57:33.118Z</time></trkpt><trkpt lat="41.149915" lon="14.2733283"><ele>47.0</ele><time>2026-05-04T09:57:35.117Z</time></trkpt><trkpt lat="41.15003" lon="14.27329"><ele>47.0</ele><time>2026-05-04T09:57:37.118Z</time></trkpt><trkpt lat="41.150145" lon="14.27325"><ele>47.25</ele><time>2026-05-04T09:57:39.117Z</time></trkpt><trkpt lat="41.1502583" lon="14.273205"><ele>47.5</ele><time>2026-05-04T09:57:41.118Z</time></trkpt><trkpt lat="41.1503667" lon="14.27317"><ele>47.75</ele><time>2026-05-04T09:57:43.118Z</time></trkpt><trkpt lat="41.1504767" lon="14.27313"><ele>48.0</ele><time>2026-05-04T09:57:45.118Z</time></trkpt><trkpt lat="41.1505983" lon="14.2731033"><ele>47.99999999999999</ele><time>2026-05-04T09:57:47.119Z</time></trkpt><trkpt lat="41.1506633" lon="14.2730983"><ele>48.0</ele><time>2026-05-04T09:57:48.119Z</time></trkpt><trkpt lat="41.150735" lon="14.2730933"><ele>48.0</ele><time>2026-05-04T09:57:49.117Z</time></trkpt><trkpt lat="41.150805" lon="14.2730883"><ele>48.0</ele><time>2026-05-04T09:57:50.12Z</time></trkpt><trkpt lat="41.15087" lon="14.27309"><ele>48.0</ele><time>2026-05-04T09:57:51.118Z</time></trkpt><trkpt lat="41.15094" lon="14.273105"><ele>47.99999999999999</ele><time>2026-05-04T09:57:52.119Z</time></trkpt><trkpt lat="41.1510133" lon="14.27313"><ele>48.0</ele><time>2026-05-04T09:57:53.118Z</time></trkpt><trkpt lat="41.1510867" lon="14.27316"><ele>48.0</ele><time>2026-05-04T09:57:54.121Z</time></trkpt><trkpt lat="41.1511617" lon="14.273195"><ele>48.0</ele><time>2026-05-04T09:57:55.118Z</time></trkpt><trkpt lat="41.1512383" lon="14.273235"><ele>48.0</ele><time>2026-05-04T09:57:56.117Z</time></trkpt><trkpt lat="41.15132" lon="14.2732767"><ele>48.0</ele><time>2026-05-04T09:57:57.117Z</time></trkpt><trkpt lat="41.151405" lon="14.273315"><ele>48.0</ele><time>2026-05-04T09:57:58.118Z</time></trkpt><trkpt lat="41.1514917" lon="14.2733433"><ele>48.0</ele><time>2026-05-04T09:57:59.118Z</time></trkpt><trkpt lat="41.1515817" lon="14.2733683"><ele>47.599999999999994</ele><time>2026-05-04T09:58:00.118Z</time></trkpt><trkpt lat="41.15167" lon="14.2733833"><ele>47.199999999999996</ele><time>2026-05-04T09:58:01.117Z</time></trkpt><trkpt lat="41.1517633" lon="14.2733867"><ele>46.8</ele><time>2026-05-04T09:58:02.12Z</time></trkpt><trkpt lat="41.151855" lon="14.2733833"><ele>46.4</ele><time>2026-05-04T09:58:03.117Z</time></trkpt><trkpt lat="41.15195" lon="14.27337"><ele>46.0</ele><time>2026-05-04T09:58:04.117Z</time></trkpt><trkpt lat="41.1520433" lon="14.2733533"><ele>46.0</ele><time>2026-05-04T09:58:05.118Z</time></trkpt><trkpt lat="41.1521383" lon="14.2733267"><ele>46.0</ele><time>2026-05-04T09:58:06.117Z</time></trkpt><trkpt lat="41.1522317" lon="14.2732967"><ele>46.0</ele><time>2026-05-04T09:58:07.118Z</time></trkpt><trkpt lat="41.1523267" lon="14.2732683"><ele>46.0</ele><time>2026-05-04T09:58:08.117Z</time></trkpt><trkpt lat="41.152425" lon="14.2732367"><ele>46.0</ele><time>2026-05-04T09:58:09.117Z</time></trkpt><trkpt lat="41.152525" lon="14.2732067"><ele>45.199999999999996</ele><time>2026-05-04T09:58:10.117Z</time></trkpt><trkpt lat="41.152625" lon="14.2731817"><ele>44.4</ele><time>2026-05-04T09:58:11.117Z</time></trkpt><trkpt lat="41.152725" lon="14.2731617"><ele>43.6</ele><time>2026-05-04T09:58:12.118Z</time></trkpt><trkpt lat="41.1528233" lon="14.2731467"><ele>42.8</ele><time>2026-05-04T09:58:13.117Z</time></trkpt><trkpt lat="41.1529217" lon="14.2731367"><ele>42.0</ele><time>2026-05-04T09:58:14.118Z</time></trkpt><trkpt lat="41.1530183" lon="14.2731283"><ele>42.0</ele><time>2026-05-04T09:58:15.118Z</time></trkpt><trkpt lat="41.1531133" lon="14.2731167"><ele>42.0</ele><time>2026-05-04T09:58:16.118Z</time></trkpt><trkpt lat="41.1532083" lon="14.2731033"><ele>42.0</ele><time>2026-05-04T09:58:17.117Z</time></trkpt><trkpt lat="41.1533017" lon="14.27309"><ele>42.0</ele><time>2026-05-04T09:58:18.117Z</time></trkpt><trkpt lat="41.1533933" lon="14.2730783"><ele>42.0</ele><time>2026-05-04T09:58:19.117Z</time></trkpt><trkpt lat="41.1534883" lon="14.273065"><ele>42.400000000000006</ele><time>2026-05-04T09:58:20.118Z</time></trkpt><trkpt lat="41.1535817" lon="14.27305"><ele>42.800000000000004</ele><time>2026-05-04T09:58:21.117Z</time></trkpt><trkpt lat="41.1536717" lon="14.2730367"><ele>43.2</ele><time>2026-05-04T09:58:22.118Z</time></trkpt><trkpt lat="41.15376" lon="14.2730233"><ele>43.6</ele><time>2026-05-04T09:58:23.118Z</time></trkpt><trkpt lat="41.15385" lon="14.2730183"><ele>44.0</ele><time>2026-05-04T09:58:24.118Z</time></trkpt><trkpt lat="41.1539367" lon="14.2730167"><ele>44.0</ele><time>2026-05-04T09:58:25.118Z</time></trkpt><trkpt lat="41.15402" lon="14.2730267"><ele>44.0</ele><time>2026-05-04T09:58:26.119Z</time></trkpt><trkpt lat="41.154095" lon="14.2730483"><ele>44.0</ele><time>2026-05-04T09:58:27.119Z</time></trkpt><trkpt lat="41.15416" lon="14.2730867"><ele>44.0</ele><time>2026-05-04T09:58:28.118Z</time></trkpt><trkpt lat="41.1542133" lon="14.2731617"><ele>44.0</ele><time>2026-05-04T09:58:29.117Z</time></trkpt><trkpt lat="41.1542617" lon="14.2732367"><ele>44.0</ele><time>2026-05-04T09:58:30.118Z</time></trkpt><trkpt lat="41.1543033" lon="14.2733217"><ele>43.166666666666664</ele><time>2026-05-04T09:58:31.117Z</time></trkpt><trkpt lat="41.154355" lon="14.2733967"><ele>42.33333333333333</ele><time>2026-05-04T09:58:32.119Z</time></trkpt><trkpt lat="41.154415" lon="14.2734517"><ele>41.5</ele><time>2026-05-04T09:58:33.119Z</time></trkpt><trkpt lat="41.1544783" lon="14.2734883"><ele>40.666666666666664</ele><time>2026-05-04T09:58:34.117Z</time></trkpt><trkpt lat="41.15454" lon="14.27351"><ele>39.833333333333336</ele><time>2026-05-04T09:58:35.117Z</time></trkpt><trkpt lat="41.154665" lon="14.2735433"><ele>39.0</ele><time>2026-05-04T09:58:37.117Z</time></trkpt><trkpt lat="41.1547283" lon="14.27356"><ele>39.0</ele><time>2026-05-04T09:58:38.118Z</time></trkpt><trkpt lat="41.1548483" lon="14.2735883"><ele>39.0</ele><time>2026-05-04T09:58:40.117Z</time></trkpt><trkpt lat="41.1549617" lon="14.27361"><ele>39.0</ele><time>2026-05-04T09:58:42.117Z</time></trkpt><trkpt lat="41.15507" lon="14.27363"><ele>39.0</ele><time>2026-05-04T09:58:44.118Z</time></trkpt><trkpt lat="41.1551783" lon="14.273655"><ele>39.0</ele><time>2026-05-04T09:58:46.117Z</time></trkpt><trkpt lat="41.1552867" lon="14.27368"><ele>39.0</ele><time>2026-05-04T09:58:48.116Z</time></trkpt><trkpt lat="41.1553833" lon="14.2737"><ele>39.0</ele><time>2026-05-04T09:58:50.116Z</time></trkpt><trkpt lat="41.1554767" lon="14.2737183"><ele>39.0</ele><time>2026-05-04T09:58:52.117Z</time></trkpt><trkpt lat="41.1555617" lon="14.2737433"><ele>39.0</ele><time>2026-05-04T09:58:54.117Z</time></trkpt><trkpt lat="41.1556417" lon="14.2737617"><ele>39.333333333333336</ele><time>2026-05-04T09:58:56.117Z</time></trkpt><trkpt lat="41.1557233" lon="14.27378"><ele>39.666666666666664</ele><time>2026-05-04T09:58:58.116Z</time></trkpt><trkpt lat="41.1558017" lon="14.2737933"><ele>40.0</ele><time>2026-05-04T09:59:00.117Z</time></trkpt><trkpt lat="41.1558767" lon="14.2738183"><ele>40.33333333333333</ele><time>2026-05-04T09:59:02.118Z</time></trkpt><trkpt lat="41.1559517" lon="14.273845"><ele>40.666666666666664</ele><time>2026-05-04T09:59:04.117Z</time></trkpt><trkpt lat="41.15603" lon="14.2738633"><ele>41.0</ele><time>2026-05-04T09:59:06.118Z</time></trkpt><trkpt lat="41.15611" lon="14.2738833"><ele>41.0</ele><time>2026-05-04T09:59:08.117Z</time></trkpt><trkpt lat="41.1561867" lon="14.2739067"><ele>41.0</ele><time>2026-05-04T09:59:10.117Z</time></trkpt><trkpt lat="41.1562567" lon="14.2739283"><ele>41.0</ele><time>2026-05-04T09:59:12.117Z</time></trkpt><trkpt lat="41.1563317" lon="14.27395"><ele>41.0</ele><time>2026-05-04T09:59:14.117Z</time></trkpt><trkpt lat="41.1564117" lon="14.273965"><ele>41.0</ele><time>2026-05-04T09:59:16.118Z</time></trkpt><trkpt lat="41.1564817" lon="14.273995"><ele>41.0</ele><time>2026-05-04T09:59:18.116Z</time></trkpt><trkpt lat="41.1565517" lon="14.2740183"><ele>41.83333333333333</ele><time>2026-05-04T09:59:20.117Z</time></trkpt><trkpt lat="41.1566233" lon="14.27404"><ele>42.666666666666664</ele><time>2026-05-04T09:59:22.116Z</time></trkpt><trkpt lat="41.1566917" lon="14.2740483"><ele>43.5</ele><time>2026-05-04T09:59:24.117Z</time></trkpt><trkpt lat="41.1567633" lon="14.2740617"><ele>44.333333333333336</ele><time>2026-05-04T09:59:26.117Z</time></trkpt><trkpt lat="41.1568417" lon="14.274075"><ele>45.16666666666667</ele><time>2026-05-04T09:59:28.117Z</time></trkpt><trkpt lat="41.1569183" lon="14.27408"><ele>46.0</ele><time>2026-05-04T09:59:30.117Z</time></trkpt><trkpt lat="41.1570017" lon="14.274075"><ele>46.0</ele><time>2026-05-04T09:59:32.116Z</time></trkpt><trkpt lat="41.157085" lon="14.274065"><ele>46.0</ele><time>2026-05-04T09:59:34.117Z</time></trkpt><trkpt lat="41.1571683" lon="14.2740567"><ele>46.0</ele><time>2026-05-04T09:59:36.116Z</time></trkpt><trkpt lat="41.157255" lon="14.2740417"><ele>46.0</ele><time>2026-05-04T09:59:38.116Z</time></trkpt><trkpt lat="41.1573383" lon="14.27402"><ele>46.0</ele><time>2026-05-04T09:59:40.117Z</time></trkpt><trkpt lat="41.1574217" lon="14.27401"><ele>46.0</ele><time>2026-05-04T09:59:42.116Z</time></trkpt><trkpt lat="41.1575033" lon="14.2739833"><ele>46.16666666666667</ele><time>2026-05-04T09:59:44.116Z</time></trkpt><trkpt lat="41.1575883" lon="14.2739417"><ele>46.333333333333336</ele><time>2026-05-04T09:59:46.116Z</time></trkpt><trkpt lat="41.15768" lon="14.273915"><ele>46.5</ele><time>2026-05-04T09:59:48.116Z</time></trkpt><trkpt lat="41.1577683" lon="14.2738967"><ele>46.666666666666664</ele><time>2026-05-04T09:59:50.117Z</time></trkpt><trkpt lat="41.157855" lon="14.273885"><ele>46.83333333333333</ele><time>2026-05-04T09:59:52.116Z</time></trkpt><trkpt lat="41.1579333" lon="14.2738633"><ele>47.0</ele><time>2026-05-04T09:59:54.117Z</time></trkpt><trkpt lat="41.1580167" lon="14.2738383"><ele>47.666666666666664</ele><time>2026-05-04T09:59:56.118Z</time></trkpt><trkpt lat="41.1581017" lon="14.273805"><ele>48.33333333333333</ele><time>2026-05-04T09:59:58.116Z</time></trkpt><trkpt lat="41.1581867" lon="14.2737817"><ele>49.0</ele><time>2026-05-04T10:00:00.117Z</time></trkpt><trkpt lat="41.15827" lon="14.2737567"><ele>49.666666666666664</ele><time>2026-05-04T10:00:02.118Z</time></trkpt><trkpt lat="41.15835" lon="14.2737417"><ele>50.333333333333336</ele><time>2026-05-04T10:00:04.116Z</time></trkpt><trkpt lat="41.1584267" lon="14.273725"><ele>51.0</ele><time>2026-05-04T10:00:06.118Z</time></trkpt><trkpt lat="41.15851" lon="14.273705"><ele>51.0</ele><time>2026-05-04T10:00:08.118Z</time></trkpt><trkpt lat="41.158595" lon="14.27368"><ele>51.0</ele><time>2026-05-04T10:00:10.117Z</time></trkpt><trkpt lat="41.158685" lon="14.2736533"><ele>51.0</ele><time>2026-05-04T10:00:12.118Z</time></trkpt><trkpt lat="41.15878" lon="14.2736283"><ele>51.0</ele><time>2026-05-04T10:00:14.117Z</time></trkpt><trkpt lat="41.1588733" lon="14.273605"><ele>51.0</ele><time>2026-05-04T10:00:16.117Z</time></trkpt><trkpt lat="41.1589717" lon="14.2735833"><ele>51.0</ele><time>2026-05-04T10:00:18.118Z</time></trkpt><trkpt lat="41.1590717" lon="14.27356"><ele>51.0</ele><time>2026-05-04T10:00:20.116Z</time></trkpt><trkpt lat="41.15917" lon="14.273535"><ele>51.0</ele><time>2026-05-04T10:00:22.117Z</time></trkpt><trkpt lat="41.15927" lon="14.273515"><ele>51.0</ele><time>2026-05-04T10:00:24.118Z</time></trkpt><trkpt lat="41.1593733" lon="14.273485"><ele>51.0</ele><time>2026-05-04T10:00:26.118Z</time></trkpt><trkpt lat="41.1594733" lon="14.2734517"><ele>51.0</ele><time>2026-05-04T10:00:28.117Z</time></trkpt><trkpt lat="41.1595667" lon="14.27342"><ele>51.0</ele><time>2026-05-04T10:00:30.118Z</time></trkpt><trkpt lat="41.15967" lon="14.273385"><ele>51.0</ele><time>2026-05-04T10:00:32.117Z</time></trkpt><trkpt lat="41.15977" lon="14.2733533"><ele>51.0</ele><time>2026-05-04T10:00:34.117Z</time></trkpt><trkpt lat="41.1598683" lon="14.273315"><ele>51.0</ele><time>2026-05-04T10:00:36.117Z</time></trkpt><trkpt lat="41.1599683" lon="14.2732833"><ele>51.599999999999994</ele><time>2026-05-04T10:00:38.117Z</time></trkpt><trkpt lat="41.160065" lon="14.2732517"><ele>52.2</ele><time>2026-05-04T10:00:40.118Z</time></trkpt><trkpt lat="41.160165" lon="14.2732083"><ele>52.800000000000004</ele><time>2026-05-04T10:00:42.118Z</time></trkpt><trkpt lat="41.1602617" lon="14.2731567"><ele>53.400000000000006</ele><time>2026-05-04T10:00:44.117Z</time></trkpt><trkpt lat="41.1603567" lon="14.2731267"><ele>54.0</ele><time>2026-05-04T10:00:46.117Z</time></trkpt><trkpt lat="41.1604533" lon="14.273095"><ele>54.6</ele><time>2026-05-04T10:00:48.118Z</time></trkpt><trkpt lat="41.1605467" lon="14.2730683"><ele>55.2</ele><time>2026-05-04T10:00:50.118Z</time></trkpt><trkpt lat="41.160635" lon="14.27304"><ele>55.800000000000004</ele><time>2026-05-04T10:00:52.116Z</time></trkpt><trkpt lat="41.160725" lon="14.2730033"><ele>56.400000000000006</ele><time>2026-05-04T10:00:54.117Z</time></trkpt><trkpt lat="41.1608217" lon="14.2729617"><ele>57.0</ele><time>2026-05-04T10:00:56.117Z</time></trkpt><trkpt lat="41.1609133" lon="14.272925"><ele>57.333333333333336</ele><time>2026-05-04T10:00:58.116Z</time></trkpt><trkpt lat="41.1610033" lon="14.272895"><ele>57.66666666666667</ele><time>2026-05-04T10:01:00.117Z</time></trkpt><trkpt lat="41.16109" lon="14.27286"><ele>58.0</ele><time>2026-05-04T10:01:02.117Z</time></trkpt><trkpt lat="41.1611767" lon="14.27283"><ele>58.333333333333336</ele><time>2026-05-04T10:01:04.118Z</time></trkpt><trkpt lat="41.1612617" lon="14.2728"><ele>58.66666666666667</ele><time>2026-05-04T10:01:06.117Z</time></trkpt><trkpt lat="41.1613467" lon="14.2727717"><ele>59.0</ele><time>2026-05-04T10:01:08.117Z</time></trkpt><trkpt lat="41.16143" lon="14.2727367"><ele>59.00000000000001</ele><time>2026-05-04T10:01:10.117Z</time></trkpt><trkpt lat="41.1615167" lon="14.2727"><ele>59.0</ele><time>2026-05-04T10:01:12.124Z</time></trkpt><trkpt lat="41.161595" lon="14.2726633"><ele>59.0</ele><time>2026-05-04T10:01:14.118Z</time></trkpt><trkpt lat="41.1616783" lon="14.2726317"><ele>59.0</ele><time>2026-05-04T10:01:16.117Z</time></trkpt><trkpt lat="41.1617617" lon="14.2725983"><ele>59.00000000000001</ele><time>2026-05-04T10:01:18.117Z</time></trkpt><trkpt lat="41.161845" lon="14.2725633"><ele>59.0</ele><time>2026-05-04T10:01:20.117Z</time></trkpt><trkpt lat="41.1619233" lon="14.272535"><ele>59.333333333333336</ele><time>2026-05-04T10:01:22.117Z</time></trkpt><trkpt lat="41.1620083" lon="14.272505"><ele>59.66666666666667</ele><time>2026-05-04T10:01:24.118Z</time></trkpt><trkpt lat="41.16209" lon="14.27247"><ele>60.0</ele><time>2026-05-04T10:01:26.117Z</time></trkpt><trkpt lat="41.16218" lon="14.2724367"><ele>60.33333333333333</ele><time>2026-05-04T10:01:28.117Z</time></trkpt><trkpt lat="41.1622617" lon="14.272405"><ele>60.666666666666664</ele><time>2026-05-04T10:01:30.119Z</time></trkpt><trkpt lat="41.1623467" lon="14.2723883"><ele>61.0</ele><time>2026-05-04T10:01:32.118Z</time></trkpt><trkpt lat="41.1624333" lon="14.2723817"><ele>61.199999999999996</ele><time>2026-05-04T10:01:34.117Z</time></trkpt><trkpt lat="41.162525" lon="14.27238"><ele>61.39999999999999</ele><time>2026-05-04T10:01:36.117Z</time></trkpt><trkpt lat="41.1626167" lon="14.2723783"><ele>61.6</ele><time>2026-05-04T10:01:38.118Z</time></trkpt><trkpt lat="41.162715" lon="14.2723767"><ele>61.8</ele><time>2026-05-04T10:01:40.118Z</time></trkpt><trkpt lat="41.1628133" lon="14.2723733"><ele>62.0</ele><time>2026-05-04T10:01:42.117Z</time></trkpt><trkpt lat="41.1629117" lon="14.27236"><ele>62.0</ele><time>2026-05-04T10:01:44.117Z</time></trkpt><trkpt lat="41.163015" lon="14.27235"><ele>62.0</ele><time>2026-05-04T10:01:46.117Z</time></trkpt><trkpt lat="41.1631167" lon="14.2723517"><ele>62.0</ele><time>2026-05-04T10:01:48.117Z</time></trkpt><trkpt lat="41.1632183" lon="14.27235"><ele>62.0</ele><time>2026-05-04T10:01:50.117Z</time></trkpt><trkpt lat="41.1633167" lon="14.2723483"><ele>62.0</ele><time>2026-05-04T10:01:52.118Z</time></trkpt><trkpt lat="41.1634217" lon="14.2723467"><ele>62.2</ele><time>2026-05-04T10:01:54.117Z</time></trkpt><trkpt lat="41.16353" lon="14.2723383"><ele>62.400000000000006</ele><time>2026-05-04T10:01:56.118Z</time></trkpt><trkpt lat="41.1636317" lon="14.2723283"><ele>62.599999999999994</ele><time>2026-05-04T10:01:58.118Z</time></trkpt><trkpt lat="41.1637433" lon="14.2723217"><ele>62.8</ele><time>2026-05-04T10:02:00.119Z</time></trkpt><trkpt lat="41.1638583" lon="14.27231"><ele>63.0</ele><time>2026-05-04T10:02:02.118Z</time></trkpt><trkpt lat="41.163975" lon="14.2722967"><ele>63.2</ele><time>2026-05-04T10:02:04.118Z</time></trkpt><trkpt lat="41.1640867" lon="14.272285"><ele>63.4</ele><time>2026-05-04T10:02:06.117Z</time></trkpt><trkpt lat="41.164195" lon="14.2722783"><ele>63.60000000000001</ele><time>2026-05-04T10:02:08.119Z</time></trkpt><trkpt lat="41.1642933" lon="14.2722817"><ele>63.800000000000004</ele><time>2026-05-04T10:02:10.117Z</time></trkpt><trkpt lat="41.1643833" lon="14.2722767"><ele>64.0</ele><time>2026-05-04T10:02:12.117Z</time></trkpt><trkpt lat="41.1644683" lon="14.272275"><ele>64.66666666666666</ele><time>2026-05-04T10:02:14.118Z</time></trkpt><trkpt lat="41.16456" lon="14.2722683"><ele>65.33333333333333</ele><time>2026-05-04T10:02:16.118Z</time></trkpt><trkpt lat="41.164645" lon="14.2722617"><ele>66.0</ele><time>2026-05-04T10:02:18.117Z</time></trkpt><trkpt lat="41.1647333" lon="14.27225"><ele>66.66666666666667</ele><time>2026-05-04T10:02:20.118Z</time></trkpt><trkpt lat="41.1648217" lon="14.2722417"><ele>67.33333333333334</ele><time>2026-05-04T10:02:22.127Z</time></trkpt><trkpt lat="41.1648983" lon="14.2722367"><ele>68.0</ele><time>2026-05-04T10:02:24.118Z</time></trkpt><trkpt lat="41.164975" lon="14.27224"><ele>68.16666666666667</ele><time>2026-05-04T10:02:26.119Z</time></trkpt><trkpt lat="41.1650533" lon="14.2722383"><ele>68.33333333333334</ele><time>2026-05-04T10:02:28.117Z</time></trkpt><trkpt lat="41.1651367" lon="14.27224"><ele>68.5</ele><time>2026-05-04T10:02:30.117Z</time></trkpt><trkpt lat="41.16522" lon="14.2722433"><ele>68.66666666666667</ele><time>2026-05-04T10:02:32.119Z</time></trkpt><trkpt lat="41.165305" lon="14.2722483"><ele>68.83333333333333</ele><time>2026-05-04T10:02:34.118Z</time></trkpt><trkpt lat="41.1653917" lon="14.272255"><ele>69.0</ele><time>2026-05-04T10:02:36.117Z</time></trkpt><trkpt lat="41.1654833" lon="14.2722633"><ele>68.60000000000001</ele><time>2026-05-04T10:02:38.118Z</time></trkpt><trkpt lat="41.16558" lon="14.2722783"><ele>68.2</ele><time>2026-05-04T10:02:40.117Z</time></trkpt><trkpt lat="41.1656767" lon="14.2723183"><ele>67.80000000000001</ele><time>2026-05-04T10:02:42.128Z</time></trkpt><trkpt lat="41.1657683" lon="14.272355"><ele>67.4</ele><time>2026-05-04T10:02:44.122Z</time></trkpt><trkpt lat="41.1658583" lon="14.2723967"><ele>67.0</ele><time>2026-05-04T10:02:46.118Z</time></trkpt><trkpt lat="41.165945" lon="14.2724217"><ele>67.0</ele><time>2026-05-04T10:02:48.118Z</time></trkpt><trkpt lat="41.1660183" lon="14.272445"><ele>67.0</ele><time>2026-05-04T10:02:50.126Z</time></trkpt><trkpt lat="41.1661" lon="14.2724767"><ele>67.0</ele><time>2026-05-04T10:02:52.12Z</time></trkpt><trkpt lat="41.1661767" lon="14.2725117"><ele>67.0</ele><time>2026-05-04T10:02:54.119Z</time></trkpt><trkpt lat="41.1662567" lon="14.2725533"><ele>67.0</ele><time>2026-05-04T10:02:56.119Z</time></trkpt><trkpt lat="41.16633" lon="14.2726117"><ele>67.0</ele><time>2026-05-04T10:02:58.12Z</time></trkpt><trkpt lat="41.166435" lon="14.2726517"><ele>67.2</ele><time>2026-05-04T10:03:00.118Z</time></trkpt><trkpt lat="41.166545" lon="14.2726917"><ele>67.4</ele><time>2026-05-04T10:03:02.118Z</time></trkpt><trkpt lat="41.1666483" lon="14.27273"><ele>67.6</ele><time>2026-05-04T10:03:04.118Z</time></trkpt><trkpt lat="41.1667483" lon="14.2727717"><ele>67.8</ele><time>2026-05-04T10:03:06.117Z</time></trkpt><trkpt lat="41.16685" lon="14.2728267"><ele>68.0</ele><time>2026-05-04T10:03:08.118Z</time></trkpt><trkpt lat="41.1669567" lon="14.27287"><ele>68.0</ele><time>2026-05-04T10:03:10.117Z</time></trkpt><trkpt lat="41.16706" lon="14.272925"><ele>68.0</ele><time>2026-05-04T10:03:12.117Z</time></trkpt><trkpt lat="41.167165" lon="14.2729783"><ele>68.0</ele><time>2026-05-04T10:03:14.118Z</time></trkpt><trkpt lat="41.1672667" lon="14.2730217"><ele>68.0</ele><time>2026-05-04T10:03:16.118Z</time></trkpt><trkpt lat="41.16736" lon="14.2730633"><ele>68.0</ele><time>2026-05-04T10:03:18.119Z</time></trkpt><trkpt lat="41.1674583" lon="14.2730983"><ele>67.8</ele><time>2026-05-04T10:03:20.118Z</time></trkpt><trkpt lat="41.1675517" lon="14.27314"><ele>67.6</ele><time>2026-05-04T10:03:22.118Z</time></trkpt><trkpt lat="41.167655" lon="14.2731783"><ele>67.4</ele><time>2026-05-04T10:03:24.118Z</time></trkpt><trkpt lat="41.167765" lon="14.2732133"><ele>67.2</ele><time>2026-05-04T10:03:26.118Z</time></trkpt><trkpt lat="41.167875" lon="14.27324"><ele>67.0</ele><time>2026-05-04T10:03:28.117Z</time></trkpt><trkpt lat="41.167985" lon="14.2732733"><ele>67.0</ele><time>2026-05-04T10:03:30.118Z</time></trkpt><trkpt lat="41.1680967" lon="14.2733033"><ele>67.0</ele><time>2026-05-04T10:03:32.117Z</time></trkpt><trkpt lat="41.1682083" lon="14.2733333"><ele>67.0</ele><time>2026-05-04T10:03:34.118Z</time></trkpt><trkpt lat="41.16832" lon="14.27337"><ele>67.0</ele><time>2026-05-04T10:03:36.119Z</time></trkpt><trkpt lat="41.1684283" lon="14.273415"><ele>67.4</ele><time>2026-05-04T10:03:38.119Z</time></trkpt><trkpt lat="41.16854" lon="14.27346"><ele>67.80000000000001</ele><time>2026-05-04T10:03:40.119Z</time></trkpt><trkpt lat="41.16865" lon="14.2735083"><ele>68.2</ele><time>2026-05-04T10:03:42.119Z</time></trkpt><trkpt lat="41.16876" lon="14.2735667"><ele>68.60000000000001</ele><time>2026-05-04T10:03:44.118Z</time></trkpt><trkpt lat="41.1688183" lon="14.2735983"><ele>69.0</ele><time>2026-05-04T10:03:45.119Z</time></trkpt><trkpt lat="41.16893" lon="14.27365"><ele>69.75</ele><time>2026-05-04T10:03:47.119Z</time></trkpt><trkpt lat="41.1690433" lon="14.273705"><ele>70.5</ele><time>2026-05-04T10:03:49.12Z</time></trkpt><trkpt lat="41.1691617" lon="14.2737483"><ele>71.25</ele><time>2026-05-04T10:03:51.122Z</time></trkpt><trkpt lat="41.1692767" lon="14.27379"><ele>72.0</ele><time>2026-05-04T10:03:53.121Z</time></trkpt><trkpt lat="41.169395" lon="14.2738367"><ele>72.0</ele><time>2026-05-04T10:03:55.12Z</time></trkpt><trkpt lat="41.1695133" lon="14.2738867"><ele>72.0</ele><time>2026-05-04T10:03:57.119Z</time></trkpt><trkpt lat="41.1696317" lon="14.273935"><ele>72.0</ele><time>2026-05-04T10:03:59.121Z</time></trkpt><trkpt lat="41.1696933" lon="14.2739567"><ele>72.0</ele><time>2026-05-04T10:04:00.122Z</time></trkpt><trkpt lat="41.1698117" lon="14.274005"><ele>72.0</ele><time>2026-05-04T10:04:02.12Z</time></trkpt><trkpt lat="41.1699333" lon="14.2740517"><ele>71.8</ele><time>2026-05-04T10:04:04.122Z</time></trkpt><trkpt lat="41.170055" lon="14.2741017"><ele>71.6</ele><time>2026-05-04T10:04:06.12Z</time></trkpt><trkpt lat="41.170115" lon="14.2741283"><ele>71.39999999999999</ele><time>2026-05-04T10:04:07.119Z</time></trkpt><trkpt lat="41.1702383" lon="14.274175"><ele>71.2</ele><time>2026-05-04T10:04:09.118Z</time></trkpt><trkpt lat="41.1703017" lon="14.2742"><ele>71.0</ele><time>2026-05-04T10:04:10.119Z</time></trkpt><trkpt lat="41.1703683" lon="14.2742267"><ele>71.0</ele><time>2026-05-04T10:04:11.119Z</time></trkpt><trkpt lat="41.1704333" lon="14.2742517"><ele>71.0</ele><time>2026-05-04T10:04:12.123Z</time></trkpt><trkpt lat="41.1705" lon="14.2742767"><ele>71.0</ele><time>2026-05-04T10:04:13.119Z</time></trkpt><trkpt lat="41.1705667" lon="14.2742967"><ele>71.0</ele><time>2026-05-04T10:04:14.12Z</time></trkpt><trkpt lat="41.1706317" lon="14.2743217"><ele>71.0</ele><time>2026-05-04T10:04:15.119Z</time></trkpt><trkpt lat="41.1706983" lon="14.27435"><ele>71.0</ele><time>2026-05-04T10:04:16.119Z</time></trkpt><trkpt lat="41.1707633" lon="14.2743717"><ele>71.0</ele><time>2026-05-04T10:04:17.119Z</time></trkpt><trkpt lat="41.1708267" lon="14.274395"><ele>71.0</ele><time>2026-05-04T10:04:18.119Z</time></trkpt><trkpt lat="41.1708917" lon="14.27442"><ele>71.0</ele><time>2026-05-04T10:04:19.118Z</time></trkpt><trkpt lat="41.1709617" lon="14.2744433"><ele>71.0</ele><time>2026-05-04T10:04:20.119Z</time></trkpt><trkpt lat="41.171035" lon="14.274465"><ele>71.0</ele><time>2026-05-04T10:04:21.122Z</time></trkpt><trkpt lat="41.171105" lon="14.2744867"><ele>71.0</ele><time>2026-05-04T10:04:22.118Z</time></trkpt><trkpt lat="41.1711767" lon="14.2745083"><ele>71.0</ele><time>2026-05-04T10:04:23.12Z</time></trkpt><trkpt lat="41.1712517" lon="14.2745317"><ele>71.0</ele><time>2026-05-04T10:04:24.119Z</time></trkpt><trkpt lat="41.17132" lon="14.2745567"><ele>71.0</ele><time>2026-05-04T10:04:25.119Z</time></trkpt><trkpt lat="41.1713933" lon="14.2745933"><ele>71.0</ele><time>2026-05-04T10:04:26.12Z</time></trkpt><trkpt lat="41.1714683" lon="14.2746467"><ele>71.0</ele><time>2026-05-04T10:04:27.126Z</time></trkpt><trkpt lat="41.17155" lon="14.2746933"><ele>71.0</ele><time>2026-05-04T10:04:28.127Z</time></trkpt><trkpt lat="41.1716133" lon="14.274735"><ele>71.0</ele><time>2026-05-04T10:04:29.122Z</time></trkpt><trkpt lat="41.1716767" lon="14.2747733"><ele>71.0</ele><time>2026-05-04T10:04:30.121Z</time></trkpt><trkpt lat="41.1717383" lon="14.2748183"><ele>70.57142857142857</ele><time>2026-05-04T10:04:31.121Z</time></trkpt><trkpt lat="41.171805" lon="14.2748583"><ele>70.14285714285714</ele><time>2026-05-04T10:04:32.124Z</time></trkpt><trkpt lat="41.171875" lon="14.2749"><ele>69.71428571428571</ele><time>2026-05-04T10:04:33.119Z</time></trkpt><trkpt lat="41.1719417" lon="14.2749467"><ele>69.28571428571428</ele><time>2026-05-04T10:04:34.121Z</time></trkpt><trkpt lat="41.1720067" lon="14.2749933"><ele>68.85714285714286</ele><time>2026-05-04T10:04:35.123Z</time></trkpt><trkpt lat="41.1720717" lon="14.2750417"><ele>68.42857142857142</ele><time>2026-05-04T10:04:36.123Z</time></trkpt><trkpt lat="41.172135" lon="14.2750833"><ele>68.0</ele><time>2026-05-04T10:04:37.123Z</time></trkpt><trkpt lat="41.1721983" lon="14.275125"><ele>67.99999999999999</ele><time>2026-05-04T10:04:38.122Z</time></trkpt><trkpt lat="41.17226" lon="14.27517"><ele>68.0</ele><time>2026-05-04T10:04:39.124Z</time></trkpt><trkpt lat="41.1723217" lon="14.275215"><ele>68.0</ele><time>2026-05-04T10:04:40.122Z</time></trkpt><trkpt lat="41.1723833" lon="14.275255"><ele>68.0</ele><time>2026-05-04T10:04:41.123Z</time></trkpt><trkpt lat="41.1724433" lon="14.275295"><ele>68.0</ele><time>2026-05-04T10:04:42.124Z</time></trkpt><trkpt lat="41.1725017" lon="14.275335"><ele>67.99999999999999</ele><time>2026-05-04T10:04:43.123Z</time></trkpt><trkpt lat="41.17256" lon="14.275375"><ele>68.0</ele><time>2026-05-04T10:04:44.121Z</time></trkpt><trkpt lat="41.1726167" lon="14.27542"><ele>67.85714285714285</ele><time>2026-05-04T10:04:45.122Z</time></trkpt><trkpt lat="41.1726733" lon="14.2754633"><ele>67.71428571428571</ele><time>2026-05-04T10:04:46.122Z</time></trkpt><trkpt lat="41.1727317" lon="14.2755017"><ele>67.57142857142857</ele><time>2026-05-04T10:04:47.122Z</time></trkpt><trkpt lat="41.1727933" lon="14.2755417"><ele>67.42857142857142</ele><time>2026-05-04T10:04:48.12Z</time></trkpt><trkpt lat="41.1728533" lon="14.27558"><ele>67.28571428571428</ele><time>2026-05-04T10:04:49.12Z</time></trkpt><trkpt lat="41.17291" lon="14.27562"><ele>67.14285714285714</ele><time>2026-05-04T10:04:50.12Z</time></trkpt><trkpt lat="41.1729683" lon="14.27566"><ele>67.0</ele><time>2026-05-04T10:04:51.118Z</time></trkpt><trkpt lat="41.17303" lon="14.2756967"><ele>67.0</ele><time>2026-05-04T10:04:52.119Z</time></trkpt><trkpt lat="41.17309" lon="14.275735"><ele>67.0</ele><time>2026-05-04T10:04:53.12Z</time></trkpt><trkpt lat="41.1731483" lon="14.275775"><ele>67.0</ele><time>2026-05-04T10:04:54.121Z</time></trkpt><trkpt lat="41.1732083" lon="14.2758167"><ele>67.0</ele><time>2026-05-04T10:04:55.12Z</time></trkpt><trkpt lat="41.1732667" lon="14.2758617"><ele>67.0</ele><time>2026-05-04T10:04:56.12Z</time></trkpt><trkpt lat="41.1733283" lon="14.2759017"><ele>67.0</ele><time>2026-05-04T10:04:57.118Z</time></trkpt><trkpt lat="41.1733867" lon="14.27594"><ele>67.0</ele><time>2026-05-04T10:04:58.12Z</time></trkpt><trkpt lat="41.173445" lon="14.27598"><ele>67.42857142857143</ele><time>2026-05-04T10:04:59.121Z</time></trkpt><trkpt lat="41.1735033" lon="14.2760167"><ele>67.85714285714286</ele><time>2026-05-04T10:05:00.12Z</time></trkpt><trkpt lat="41.1735617" lon="14.27605"><ele>68.28571428571428</ele><time>2026-05-04T10:05:01.121Z</time></trkpt><trkpt lat="41.1736233" lon="14.2760783"><ele>68.71428571428572</ele><time>2026-05-04T10:05:02.121Z</time></trkpt><trkpt lat="41.173685" lon="14.2761"><ele>69.14285714285714</ele><time>2026-05-04T10:05:03.121Z</time></trkpt><trkpt lat="41.17375" lon="14.2761133"><ele>69.57142857142857</ele><time>2026-05-04T10:05:04.119Z</time></trkpt><trkpt lat="41.173815" lon="14.2761233"><ele>70.0</ele><time>2026-05-04T10:05:05.122Z</time></trkpt><trkpt lat="41.17388" lon="14.2761283"><ele>70.0</ele><time>2026-05-04T10:05:06.12Z</time></trkpt><trkpt lat="41.174005" lon="14.27611"><ele>70.0</ele><time>2026-05-04T10:05:08.122Z</time></trkpt><trkpt lat="41.1741267" lon="14.2760733"><ele>70.0</ele><time>2026-05-04T10:05:10.119Z</time></trkpt><trkpt lat="41.174255" lon="14.2760417"><ele>70.0</ele><time>2026-05-04T10:05:12.119Z</time></trkpt><trkpt lat="41.17432" lon="14.276025"><ele>70.0</ele><time>2026-05-04T10:05:13.118Z</time></trkpt><trkpt lat="41.1743833" lon="14.2760083"><ele>70.0</ele><time>2026-05-04T10:05:14.12Z</time></trkpt><trkpt lat="41.1744467" lon="14.2759917"><ele>70.0</ele><time>2026-05-04T10:05:15.12Z</time></trkpt><trkpt lat="41.1745683" lon="14.2759583"><ele>70.0</ele><time>2026-05-04T10:05:17.12Z</time></trkpt><trkpt lat="41.17463" lon="14.27594"><ele>70.0</ele><time>2026-05-04T10:05:18.121Z</time></trkpt><trkpt lat="41.1746917" lon="14.2759217"><ele>70.0</ele><time>2026-05-04T10:05:19.119Z</time></trkpt><trkpt lat="41.17481" lon="14.275885"><ele>70.0</ele><time>2026-05-04T10:05:21.119Z</time></trkpt><trkpt lat="41.1749233" lon="14.275855"><ele>70.4</ele><time>2026-05-04T10:05:23.12Z</time></trkpt><trkpt lat="41.1750317" lon="14.27583"><ele>70.8</ele><time>2026-05-04T10:05:25.119Z</time></trkpt><trkpt lat="41.175145" lon="14.2758083"><ele>71.2</ele><time>2026-05-04T10:05:27.12Z</time></trkpt><trkpt lat="41.17525" lon="14.2757817"><ele>71.6</ele><time>2026-05-04T10:05:29.119Z</time></trkpt><trkpt lat="41.17535" lon="14.2757533"><ele>72.0</ele><time>2026-05-04T10:05:31.12Z</time></trkpt><trkpt lat="41.1754567" lon="14.27573"><ele>72.0</ele><time>2026-05-04T10:05:33.12Z</time></trkpt><trkpt lat="41.1755517" lon="14.275705"><ele>72.0</ele><time>2026-05-04T10:05:35.121Z</time></trkpt><trkpt lat="41.1756517" lon="14.2756917"><ele>72.0</ele><time>2026-05-04T10:05:37.119Z</time></trkpt><trkpt lat="41.17575" lon="14.2756683"><ele>72.0</ele><time>2026-05-04T10:05:39.12Z</time></trkpt><trkpt lat="41.17585" lon="14.2756417"><ele>72.0</ele><time>2026-05-04T10:05:41.12Z</time></trkpt><trkpt lat="41.1759483" lon="14.2756183"><ele>72.66666666666667</ele><time>2026-05-04T10:05:43.12Z</time></trkpt><trkpt lat="41.176045" lon="14.2756117"><ele>73.33333333333333</ele><time>2026-05-04T10:05:45.119Z</time></trkpt><trkpt lat="41.1761417" lon="14.27563"><ele>74.0</ele><time>2026-05-04T10:05:47.12Z</time></trkpt><trkpt lat="41.1762317" lon="14.2756483"><ele>74.66666666666666</ele><time>2026-05-04T10:05:49.12Z</time></trkpt><trkpt lat="41.1763117" lon="14.2756283"><ele>75.33333333333333</ele><time>2026-05-04T10:05:51.12Z</time></trkpt><trkpt lat="41.1763867" lon="14.275585"><ele>76.0</ele><time>2026-05-04T10:05:53.121Z</time></trkpt><trkpt lat="41.17647" lon="14.27553"><ele>76.2</ele><time>2026-05-04T10:05:55.122Z</time></trkpt><trkpt lat="41.1765633" lon="14.2754967"><ele>76.39999999999999</ele><time>2026-05-04T10:05:57.122Z</time></trkpt><trkpt lat="41.1766583" lon="14.2754633"><ele>76.6</ele><time>2026-05-04T10:05:59.12Z</time></trkpt><trkpt lat="41.17674" lon="14.2754183"><ele>76.8</ele><time>2026-05-04T10:06:01.12Z</time></trkpt><trkpt lat="41.176835" lon="14.2753833"><ele>77.0</ele><time>2026-05-04T10:06:03.121Z</time></trkpt><trkpt lat="41.17693" lon="14.2753433"><ele>77.0</ele><time>2026-05-04T10:06:05.119Z</time></trkpt><trkpt lat="41.1770217" lon="14.2753083"><ele>77.0</ele><time>2026-05-04T10:06:07.12Z</time></trkpt><trkpt lat="41.1771133" lon="14.2752717"><ele>77.0</ele><time>2026-05-04T10:06:09.121Z</time></trkpt><trkpt lat="41.1772033" lon="14.27523"><ele>77.0</ele><time>2026-05-04T10:06:11.12Z</time></trkpt><trkpt lat="41.17729" lon="14.275195"><ele>77.0</ele><time>2026-05-04T10:06:13.119Z</time></trkpt><trkpt lat="41.1773817" lon="14.2751617"><ele>77.16666666666667</ele><time>2026-05-04T10:06:15.119Z</time></trkpt><trkpt lat="41.17747" lon="14.2751217"><ele>77.33333333333334</ele><time>2026-05-04T10:06:17.121Z</time></trkpt><trkpt lat="41.1775567" lon="14.2750783"><ele>77.5</ele><time>2026-05-04T10:06:19.122Z</time></trkpt><trkpt lat="41.17764" lon="14.2750433"><ele>77.66666666666667</ele><time>2026-05-04T10:06:21.119Z</time></trkpt><trkpt lat="41.1777217" lon="14.2750067"><ele>77.83333333333333</ele><time>2026-05-04T10:06:23.122Z</time></trkpt><trkpt lat="41.1778033" lon="14.27497"><ele>78.0</ele><time>2026-05-04T10:06:25.12Z</time></trkpt><trkpt lat="41.1778783" lon="14.2749383"><ele>78.0</ele><time>2026-05-04T10:06:27.12Z</time></trkpt><trkpt lat="41.1779517" lon="14.2748967"><ele>78.0</ele><time>2026-05-04T10:06:29.121Z</time></trkpt><trkpt lat="41.1780333" lon="14.2748533"><ele>78.0</ele><time>2026-05-04T10:06:31.121Z</time></trkpt><trkpt lat="41.1781183" lon="14.2748167"><ele>78.0</ele><time>2026-05-04T10:06:33.12Z</time></trkpt><trkpt lat="41.1782" lon="14.2748067"><ele>78.0</ele><time>2026-05-04T10:06:35.12Z</time></trkpt><trkpt lat="41.178285" lon="14.274795"><ele>78.0</ele><time>2026-05-04T10:06:37.12Z</time></trkpt><trkpt lat="41.17837" lon="14.2747733"><ele>79.16666666666667</ele><time>2026-05-04T10:06:39.12Z</time></trkpt><trkpt lat="41.17844" lon="14.274735"><ele>80.33333333333333</ele><time>2026-05-04T10:06:41.122Z</time></trkpt><trkpt lat="41.1785083" lon="14.2746833"><ele>81.5</ele><time>2026-05-04T10:06:43.12Z</time></trkpt><trkpt lat="41.178565" lon="14.2745967"><ele>82.66666666666666</ele><time>2026-05-04T10:06:45.122Z</time></trkpt><trkpt lat="41.17862" lon="14.2745083"><ele>83.83333333333333</ele><time>2026-05-04T10:06:47.119Z</time></trkpt><trkpt lat="41.1786767" lon="14.2744183"><ele>85.0</ele><time>2026-05-04T10:06:49.123Z</time></trkpt><trkpt lat="41.178735" lon="14.2743183"><ele>85.0</ele><time>2026-05-04T10:06:51.121Z</time></trkpt><trkpt lat="41.1787983" lon="14.2742183"><ele>85.0</ele><time>2026-05-04T10:06:53.121Z</time></trkpt><trkpt lat="41.1788533" lon="14.2741117"><ele>85.0</ele><time>2026-05-04T10:06:55.12Z</time></trkpt><trkpt lat="41.1789033" lon="14.2740033"><ele>85.0</ele><time>2026-05-04T10:06:57.121Z</time></trkpt><trkpt lat="41.17896" lon="14.2739083"><ele>85.0</ele><time>2026-05-04T10:06:59.121Z</time></trkpt><trkpt lat="41.1790417" lon="14.2737667"><ele>85.33333333333333</ele><time>2026-05-04T10:07:02.12Z</time></trkpt><trkpt lat="41.17909" lon="14.27368"><ele>85.66666666666666</ele><time>2026-05-04T10:07:04.121Z</time></trkpt><trkpt lat="41.1791383" lon="14.2735967"><ele>86.0</ele><time>2026-05-04T10:07:06.121Z</time></trkpt><trkpt lat="41.1792033" lon="14.2735533"><ele>86.33333333333333</ele><time>2026-05-04T10:07:08.122Z</time></trkpt><trkpt lat="41.17928" lon="14.2735633"><ele>86.66666666666667</ele><time>2026-05-04T10:07:10.12Z</time></trkpt><trkpt lat="41.1793183" lon="14.2736417"><ele>87.0</ele><time>2026-05-04T10:07:12.122Z</time></trkpt><trkpt lat="41.1793267" lon="14.273745"><ele>87.0</ele><time>2026-05-04T10:07:14.121Z</time></trkpt><trkpt lat="41.1793233" lon="14.2738367"><ele>87.0</ele><time>2026-05-04T10:07:16.119Z</time></trkpt><trkpt lat="41.17934" lon="14.273965"><ele>87.0</ele><time>2026-05-04T10:07:19.119Z</time></trkpt><trkpt lat="41.1793567" lon="14.2740667"><ele>87.0</ele><time>2026-05-04T10:07:21.121Z</time></trkpt><trkpt lat="41.1793483" lon="14.2741683"><ele>87.0</ele><time>2026-05-04T10:07:23.12Z</time></trkpt><trkpt lat="41.179335" lon="14.2742717"><ele>87.0</ele><time>2026-05-04T10:07:25.12Z</time></trkpt><trkpt lat="41.1793283" lon="14.2743783"><ele>87.28571428571428</ele><time>2026-05-04T10:07:27.119Z</time></trkpt><trkpt lat="41.1793417" lon="14.2744833"><ele>87.57142857142857</ele><time>2026-05-04T10:07:29.119Z</time></trkpt><trkpt lat="41.17938" lon="14.2745733"><ele>87.85714285714286</ele><time>2026-05-04T10:07:31.12Z</time></trkpt><trkpt lat="41.1794417" lon="14.2746233"><ele>88.14285714285714</ele><time>2026-05-04T10:07:33.119Z</time></trkpt><trkpt lat="41.17952" lon="14.27462"><ele>88.42857142857143</ele><time>2026-05-04T10:07:35.12Z</time></trkpt><trkpt lat="41.1795867" lon="14.2745983"><ele>88.71428571428571</ele><time>2026-05-04T10:07:37.119Z</time></trkpt><trkpt lat="41.179645" lon="14.27455"><ele>89.0</ele><time>2026-05-04T10:07:39.121Z</time></trkpt><trkpt lat="41.1796917" lon="14.27448"><ele>89.0</ele><time>2026-05-04T10:07:41.119Z</time></trkpt><trkpt lat="41.1797317" lon="14.2744083"><ele>89.0</ele><time>2026-05-04T10:07:43.119Z</time></trkpt><trkpt lat="41.1797867" lon="14.27431"><ele>89.0</ele><time>2026-05-04T10:07:46.121Z</time></trkpt><trkpt lat="41.1798333" lon="14.27422"><ele>89.0</ele><time>2026-05-04T10:07:49.12Z</time></trkpt><trkpt lat="41.1798783" lon="14.274135"><ele>89.0</ele><time>2026-05-04T10:07:52.12Z</time></trkpt><trkpt lat="41.1799183" lon="14.2740533"><ele>89.0</ele><time>2026-05-04T10:07:55.119Z</time></trkpt><trkpt lat="41.1799583" lon="14.273975"><ele>90.16666666666667</ele><time>2026-05-04T10:07:58.119Z</time></trkpt><trkpt lat="41.1800183" lon="14.2738833"><ele>91.33333333333334</ele><time>2026-05-04T10:08:01.119Z</time></trkpt><trkpt lat="41.1800767" lon="14.2737933"><ele>92.5</ele><time>2026-05-04T10:08:04.12Z</time></trkpt><trkpt lat="41.1801183" lon="14.273725"><ele>93.66666666666667</ele><time>2026-05-04T10:08:06.121Z</time></trkpt><trkpt lat="41.1801683" lon="14.2736167"><ele>94.83333333333333</ele><time>2026-05-04T10:08:09.119Z</time></trkpt><trkpt lat="41.1802117" lon="14.2735367"><ele>96.0</ele><time>2026-05-04T10:08:11.119Z</time></trkpt><trkpt lat="41.18026" lon="14.27346"><ele>96.0</ele><time>2026-05-04T10:08:13.119Z</time></trkpt><trkpt lat="41.180315" lon="14.27337"><ele>96.0</ele><time>2026-05-04T10:08:16.12Z</time></trkpt><trkpt lat="41.1803767" lon="14.273285"><ele>96.0</ele><time>2026-05-04T10:08:19.12Z</time></trkpt><trkpt lat="41.1804267" lon="14.273205"><ele>96.0</ele><time>2026-05-04T10:08:22.118Z</time></trkpt><trkpt lat="41.180485" lon="14.2731117"><ele>96.0</ele><time>2026-05-04T10:08:25.12Z</time></trkpt><trkpt lat="41.1805517" lon="14.2730283"><ele>96.0</ele><time>2026-05-04T10:08:28.12Z</time></trkpt><trkpt lat="41.1806183" lon="14.2729567"><ele>97.83333333333333</ele><time>2026-05-04T10:08:31.121Z</time></trkpt><trkpt lat="41.1806883" lon="14.2728783"><ele>99.66666666666666</ele><time>2026-05-04T10:08:34.119Z</time></trkpt><trkpt lat="41.1807517" lon="14.272795"><ele>101.5</ele><time>2026-05-04T10:08:37.12Z</time></trkpt><trkpt lat="41.1807933" lon="14.2727317"><ele>103.33333333333333</ele><time>2026-05-04T10:08:39.121Z</time></trkpt><trkpt lat="41.1808383" lon="14.27267"><ele>105.16666666666666</ele><time>2026-05-04T10:08:41.12Z</time></trkpt><trkpt lat="41.1808967" lon="14.272575"><ele>107.0</ele><time>2026-05-04T10:08:44.122Z</time></trkpt><trkpt lat="41.1809567" lon="14.27248"><ele>106.99999999999999</ele><time>2026-05-04T10:08:47.122Z</time></trkpt><trkpt lat="41.18102" lon="14.2723917"><ele>107.0</ele><time>2026-05-04T10:08:50.122Z</time></trkpt><trkpt lat="41.1810733" lon="14.27231"><ele>107.0</ele><time>2026-05-04T10:08:53.12Z</time></trkpt><trkpt lat="41.181145" lon="14.272245"><ele>107.0</ele><time>2026-05-04T10:08:56.121Z</time></trkpt><trkpt lat="41.1811983" lon="14.2721967"><ele>106.99999999999999</ele><time>2026-05-04T10:08:58.12Z</time></trkpt><trkpt lat="41.181255" lon="14.27215"><ele>107.0</ele><time>2026-05-04T10:09:00.121Z</time></trkpt><trkpt lat="41.1813267" lon="14.2720817"><ele>108.14285714285715</ele><time>2026-05-04T10:09:03.12Z</time></trkpt><trkpt lat="41.1814017" lon="14.2720133"><ele>109.28571428571428</ele><time>2026-05-04T10:09:06.121Z</time></trkpt><trkpt lat="41.18145" lon="14.2719583"><ele>110.42857142857142</ele><time>2026-05-04T10:09:08.121Z</time></trkpt><trkpt lat="41.1815217" lon="14.2718883"><ele>111.57142857142857</ele><time>2026-05-04T10:09:11.119Z</time></trkpt><trkpt lat="41.1815767" lon="14.2718433"><ele>112.71428571428571</ele><time>2026-05-04T10:09:13.12Z</time></trkpt><trkpt lat="41.1816283" lon="14.2717867"><ele>113.85714285714285</ele><time>2026-05-04T10:09:15.12Z</time></trkpt><trkpt lat="41.181675" lon="14.2717233"><ele>114.99999999999999</ele><time>2026-05-04T10:09:17.119Z</time></trkpt><trkpt lat="41.1817317" lon="14.2716383"><ele>115.00000000000001</ele><time>2026-05-04T10:09:20.121Z</time></trkpt><trkpt lat="41.1817817" lon="14.2715817"><ele>115.0</ele><time>2026-05-04T10:09:23.121Z</time></trkpt><trkpt lat="41.1818517" lon="14.271525"><ele>115.0</ele><time>2026-05-04T10:09:26.121Z</time></trkpt><trkpt lat="41.1819117" lon="14.2714717"><ele>115.0</ele><time>2026-05-04T10:09:29.121Z</time></trkpt><trkpt lat="41.1819667" lon="14.271425"><ele>115.00000000000001</ele><time>2026-05-04T10:09:31.121Z</time></trkpt><trkpt lat="41.18204" lon="14.271365"><ele>115.0</ele><time>2026-05-04T10:09:34.121Z</time></trkpt><trkpt lat="41.1821133" lon="14.2712883"><ele>115.28571428571428</ele><time>2026-05-04T10:09:37.121Z</time></trkpt><trkpt lat="41.1821733" lon="14.2712383"><ele>115.57142857142857</ele><time>2026-05-04T10:09:39.12Z</time></trkpt><trkpt lat="41.1822483" lon="14.2711633"><ele>115.85714285714286</ele><time>2026-05-04T10:09:42.121Z</time></trkpt><trkpt lat="41.1823017" lon="14.2711033"><ele>116.14285714285714</ele><time>2026-05-04T10:09:44.12Z</time></trkpt><trkpt lat="41.182355" lon="14.2710517"><ele>116.42857142857144</ele><time>2026-05-04T10:09:46.121Z</time></trkpt><trkpt lat="41.1824133" lon="14.2710117"><ele>116.71428571428572</ele><time>2026-05-04T10:09:48.121Z</time></trkpt><trkpt lat="41.18248" lon="14.2709467"><ele>117.0</ele><time>2026-05-04T10:09:51.12Z</time></trkpt><trkpt lat="41.1825633" lon="14.2709217"><ele>117.0</ele><time>2026-05-04T10:09:55.122Z</time></trkpt><trkpt lat="41.1826267" lon="14.2708933"><ele>117.0</ele><time>2026-05-04T10:09:57.121Z</time></trkpt><trkpt lat="41.18269" lon="14.2708233"><ele>117.0</ele><time>2026-05-04T10:09:59.121Z</time></trkpt><trkpt lat="41.18275" lon="14.2707667"><ele>117.0</ele><time>2026-05-04T10:10:01.119Z</time></trkpt><trkpt lat="41.1828083" lon="14.27071"><ele>117.0</ele><time>2026-05-04T10:10:03.121Z</time></trkpt><trkpt lat="41.1828533" lon="14.27062"><ele>117.0</ele><time>2026-05-04T10:10:05.122Z</time></trkpt><trkpt lat="41.1829017" lon="14.27054"><ele>117.66666666666667</ele><time>2026-05-04T10:10:07.121Z</time></trkpt><trkpt lat="41.1829667" lon="14.27045"><ele>118.33333333333334</ele><time>2026-05-04T10:10:10.122Z</time></trkpt><trkpt lat="41.183035" lon="14.2703733"><ele>119.0</ele><time>2026-05-04T10:10:12.119Z</time></trkpt><trkpt lat="41.183095" lon="14.2703117"><ele>119.66666666666667</ele><time>2026-05-04T10:10:14.121Z</time></trkpt><trkpt lat="41.1831533" lon="14.2702617"><ele>120.33333333333334</ele><time>2026-05-04T10:10:16.119Z</time></trkpt><trkpt lat="41.183215" lon="14.2702183"><ele>121.0</ele><time>2026-05-04T10:10:18.123Z</time></trkpt><trkpt lat="41.183305" lon="14.2701867"><ele>121.00000000000001</ele><time>2026-05-04T10:10:21.122Z</time></trkpt><trkpt lat="41.1833833" lon="14.270165"><ele>121.0</ele><time>2026-05-04T10:10:24.122Z</time></trkpt><trkpt lat="41.1834617" lon="14.2701067"><ele>121.0</ele><time>2026-05-04T10:10:27.12Z</time></trkpt><trkpt lat="41.1835417" lon="14.27005"><ele>121.0</ele><time>2026-05-04T10:10:30.123Z</time></trkpt><trkpt lat="41.1836233" lon="14.2699767"><ele>121.00000000000001</ele><time>2026-05-04T10:10:33.121Z</time></trkpt><trkpt lat="41.1836833" lon="14.26993"><ele>121.0</ele><time>2026-05-04T10:10:35.123Z</time></trkpt><trkpt lat="41.1837467" lon="14.2698817"><ele>121.00000000000001</ele><time>2026-05-04T10:10:37.12Z</time></trkpt><trkpt lat="41.18381" lon="14.2698383"><ele>121.0</ele><time>2026-05-04T10:10:39.12Z</time></trkpt><trkpt lat="41.1838633" lon="14.2697933"><ele>121.0</ele><time>2026-05-04T10:10:41.12Z</time></trkpt><trkpt lat="41.18394" lon="14.2697233"><ele>121.0</ele><time>2026-05-04T10:10:44.121Z</time></trkpt><trkpt lat="41.1839917" lon="14.269675"><ele>121.00000000000001</ele><time>2026-05-04T10:10:46.121Z</time></trkpt><trkpt lat="41.1840467" lon="14.2696317"><ele>121.0</ele><time>2026-05-04T10:10:48.121Z</time></trkpt><trkpt lat="41.1841317" lon="14.2695733"><ele>120.50000000000001</ele><time>2026-05-04T10:10:51.12Z</time></trkpt><trkpt lat="41.1841917" lon="14.269535"><ele>120.0</ele><time>2026-05-04T10:10:53.12Z</time></trkpt><trkpt lat="41.18425" lon="14.2694983"><ele>119.5</ele><time>2026-05-04T10:10:55.12Z</time></trkpt><trkpt lat="41.1843083" lon="14.26946"><ele>119.0</ele><time>2026-05-04T10:10:57.12Z</time></trkpt><trkpt lat="41.1843867" lon="14.2693983"><ele>118.50000000000001</ele><time>2026-05-04T10:11:00.121Z</time></trkpt><trkpt lat="41.18447" lon="14.2693583"><ele>118.0</ele><time>2026-05-04T10:11:03.122Z</time></trkpt><trkpt lat="41.1845533" lon="14.2693083"><ele>118.00000000000001</ele><time>2026-05-04T10:11:06.121Z</time></trkpt><trkpt lat="41.1846367" lon="14.26925"><ele>118.0</ele><time>2026-05-04T10:11:09.121Z</time></trkpt><trkpt lat="41.18472" lon="14.2691983"><ele>118.0</ele><time>2026-05-04T10:11:12.123Z</time></trkpt><trkpt lat="41.1848033" lon="14.2691517"><ele>118.0</ele><time>2026-05-04T10:11:15.121Z</time></trkpt><trkpt lat="41.1848783" lon="14.2691033"><ele>118.00000000000001</ele><time>2026-05-04T10:11:18.121Z</time></trkpt><trkpt lat="41.1849517" lon="14.269085"><ele>118.0</ele><time>2026-05-04T10:11:21.122Z</time></trkpt><trkpt lat="41.1850367" lon="14.2690667"><ele>121.33333333333334</ele><time>2026-05-04T10:11:24.121Z</time></trkpt><trkpt lat="41.1851283" lon="14.2690583"><ele>124.66666666666667</ele><time>2026-05-04T10:11:27.12Z</time></trkpt><trkpt lat="41.1852133" lon="14.2690467"><ele>128.0</ele><time>2026-05-04T10:11:30.123Z</time></trkpt><trkpt lat="41.1853033" lon="14.2690383"><ele>131.33333333333334</ele><time>2026-05-04T10:11:33.121Z</time></trkpt><trkpt lat="41.185385" lon="14.2690133"><ele>134.66666666666666</ele><time>2026-05-04T10:11:36.121Z</time></trkpt><trkpt lat="41.1854667" lon="14.268985"><ele>138.0</ele><time>2026-05-04T10:11:39.121Z</time></trkpt><trkpt lat="41.18553" lon="14.2689733"><ele>138.0</ele><time>2026-05-04T10:11:41.121Z</time></trkpt><trkpt lat="41.1855933" lon="14.2689683"><ele>138.0</ele><time>2026-05-04T10:11:43.123Z</time></trkpt><trkpt lat="41.1856667" lon="14.2689683"><ele>138.0</ele><time>2026-05-04T10:11:46.12Z</time></trkpt><trkpt lat="41.1857383" lon="14.26895"><ele>138.0</ele><time>2026-05-04T10:11:49.12Z</time></trkpt><trkpt lat="41.1858233" lon="14.26891"><ele>138.0</ele><time>2026-05-04T10:11:52.12Z</time></trkpt><trkpt lat="41.1859033" lon="14.2688783"><ele>138.0</ele><time>2026-05-04T10:11:55.119Z</time></trkpt><trkpt lat="41.1859817" lon="14.2688467"><ele>135.5</ele><time>2026-05-04T10:11:58.121Z</time></trkpt><trkpt lat="41.1860633" lon="14.268815"><ele>133.0</ele><time>2026-05-04T10:12:01.12Z</time></trkpt><trkpt lat="41.1861383" lon="14.268815"><ele>130.5</ele><time>2026-05-04T10:12:04.121Z</time></trkpt><trkpt lat="41.1862083" lon="14.268805"><ele>128.0</ele><time>2026-05-04T10:12:07.12Z</time></trkpt><trkpt lat="41.1862817" lon="14.2687783"><ele>125.5</ele><time>2026-05-04T10:12:10.118Z</time></trkpt><trkpt lat="41.1863717" lon="14.2687667"><ele>123.0</ele><time>2026-05-04T10:12:13.12Z</time></trkpt><trkpt lat="41.18645" lon="14.2687417"><ele>124.16666666666667</ele><time>2026-05-04T10:12:16.121Z</time></trkpt><trkpt lat="41.1865283" lon="14.2687233"><ele>125.33333333333334</ele><time>2026-05-04T10:12:19.121Z</time></trkpt><trkpt lat="41.1865933" lon="14.2687183"><ele>126.5</ele><time>2026-05-04T10:12:22.122Z</time></trkpt><trkpt lat="41.186665" lon="14.2687333"><ele>127.66666666666667</ele><time>2026-05-04T10:12:25.121Z</time></trkpt><trkpt lat="41.1867567" lon="14.26873"><ele>128.83333333333334</ele><time>2026-05-04T10:12:28.121Z</time></trkpt><trkpt lat="41.1868233" lon="14.268755"><ele>130.0</ele><time>2026-05-04T10:12:30.121Z</time></trkpt><trkpt lat="41.1869033" lon="14.2687483"><ele>130.0</ele><time>2026-05-04T10:12:33.121Z</time></trkpt><trkpt lat="41.1869683" lon="14.2687417"><ele>130.0</ele><time>2026-05-04T10:12:36.12Z</time></trkpt><trkpt lat="41.1870467" lon="14.2687433"><ele>130.0</ele><time>2026-05-04T10:12:39.119Z</time></trkpt><trkpt lat="41.187125" lon="14.26872"><ele>130.0</ele><time>2026-05-04T10:12:42.119Z</time></trkpt><trkpt lat="41.1872033" lon="14.2686933"><ele>130.0</ele><time>2026-05-04T10:12:45.119Z</time></trkpt><trkpt lat="41.187285" lon="14.268715"><ele>130.0</ele><time>2026-05-04T10:12:48.119Z</time></trkpt><trkpt lat="41.18736" lon="14.2687233"><ele>131.0</ele><time>2026-05-04T10:12:51.118Z</time></trkpt><trkpt lat="41.18743" lon="14.268745"><ele>132.0</ele><time>2026-05-04T10:12:54.12Z</time></trkpt><trkpt lat="41.1875233" lon="14.2687517"><ele>133.0</ele><time>2026-05-04T10:12:57.12Z</time></trkpt><trkpt lat="41.187605" lon="14.2687533"><ele>134.0</ele><time>2026-05-04T10:13:00.12Z</time></trkpt><trkpt lat="41.1876933" lon="14.2687517"><ele>135.0</ele><time>2026-05-04T10:13:03.118Z</time></trkpt><trkpt lat="41.1877583" lon="14.2687383"><ele>136.0</ele><time>2026-05-04T10:13:05.118Z</time></trkpt><trkpt lat="41.1878567" lon="14.2687317"><ele>135.99999999999997</ele><time>2026-05-04T10:13:08.118Z</time></trkpt><trkpt lat="41.1879267" lon="14.26872"><ele>136.0</ele><time>2026-05-04T10:13:10.118Z</time></trkpt><trkpt lat="41.18799" lon="14.2687133"><ele>136.0</ele><time>2026-05-04T10:13:12.118Z</time></trkpt><trkpt lat="41.188065" lon="14.26874"><ele>136.0</ele><time>2026-05-04T10:13:14.119Z</time></trkpt><trkpt lat="41.1881333" lon="14.26874"><ele>136.0</ele><time>2026-05-04T10:13:16.119Z</time></trkpt><trkpt lat="41.1882117" lon="14.2687683"><ele>135.99999999999997</ele><time>2026-05-04T10:13:18.12Z</time></trkpt><trkpt lat="41.188275" lon="14.2687867"><ele>136.0</ele><time>2026-05-04T10:13:20.12Z</time></trkpt><trkpt lat="41.1883467" lon="14.2688067"><ele>136.28571428571428</ele><time>2026-05-04T10:13:22.119Z</time></trkpt><trkpt lat="41.1884117" lon="14.2688217"><ele>136.57142857142856</ele><time>2026-05-04T10:13:24.12Z</time></trkpt><trkpt lat="41.1884817" lon="14.2688467"><ele>136.85714285714286</ele><time>2026-05-04T10:13:26.119Z</time></trkpt><trkpt lat="41.1885467" lon="14.268845"><ele>137.14285714285714</ele><time>2026-05-04T10:13:28.119Z</time></trkpt><trkpt lat="41.1886133" lon="14.2688367"><ele>137.42857142857144</ele><time>2026-05-04T10:13:30.12Z</time></trkpt><trkpt lat="41.18868" lon="14.2688367"><ele>137.71428571428572</ele><time>2026-05-04T10:13:32.121Z</time></trkpt><trkpt lat="41.1887433" lon="14.2688417"><ele>138.0</ele><time>2026-05-04T10:13:34.12Z</time></trkpt><trkpt lat="41.18881" lon="14.2688517"><ele>138.0</ele><time>2026-05-04T10:13:36.12Z</time></trkpt><trkpt lat="41.1888983" lon="14.26886"><ele>138.0</ele><time>2026-05-04T10:13:39.12Z</time></trkpt><trkpt lat="41.18899" lon="14.268875"><ele>138.0</ele><time>2026-05-04T10:13:42.121Z</time></trkpt><trkpt lat="41.18908" lon="14.268895"><ele>138.0</ele><time>2026-05-04T10:13:45.12Z</time></trkpt><trkpt lat="41.18915" lon="14.26893"><ele>138.0</ele><time>2026-05-04T10:13:47.12Z</time></trkpt><trkpt lat="41.1892133" lon="14.2689717"><ele>138.0</ele><time>2026-05-04T10:13:49.118Z</time></trkpt><trkpt lat="41.189275" lon="14.2690033"><ele>143.33333333333334</ele><time>2026-05-04T10:13:51.119Z</time></trkpt><trkpt lat="41.1893633" lon="14.2690483"><ele>148.66666666666666</ele><time>2026-05-04T10:13:54.12Z</time></trkpt><trkpt lat="41.1894217" lon="14.2690833"><ele>154.0</ele><time>2026-05-04T10:13:56.119Z</time></trkpt><trkpt lat="41.1895117" lon="14.26912"><ele>159.33333333333331</ele><time>2026-05-04T10:13:59.119Z</time></trkpt><trkpt lat="41.1895733" lon="14.2691667"><ele>164.66666666666666</ele><time>2026-05-04T10:14:01.119Z</time></trkpt><trkpt lat="41.18963" lon="14.2692183"><ele>170.0</ele><time>2026-05-04T10:14:03.12Z</time></trkpt><trkpt lat="41.1896967" lon="14.2692867"><ele>170.0</ele><time>2026-05-04T10:14:06.119Z</time></trkpt><trkpt lat="41.1897533" lon="14.2693317"><ele>170.0</ele><time>2026-05-04T10:14:08.118Z</time></trkpt><trkpt lat="41.1898117" lon="14.2693767"><ele>170.0</ele><time>2026-05-04T10:14:10.117Z</time></trkpt><trkpt lat="41.1898817" lon="14.269465"><ele>170.0</ele><time>2026-05-04T10:14:13.119Z</time></trkpt><trkpt lat="41.18995" lon="14.26954"><ele>170.0</ele><time>2026-05-04T10:14:16.119Z</time></trkpt><trkpt lat="41.1900183" lon="14.26962"><ele>170.0</ele><time>2026-05-04T10:14:19.119Z</time></trkpt><trkpt lat="41.190075" lon="14.2696917"><ele>171.42857142857144</ele><time>2026-05-04T10:14:21.12Z</time></trkpt><trkpt lat="41.1901267" lon="14.26975"><ele>172.85714285714283</ele><time>2026-05-04T10:14:23.119Z</time></trkpt><trkpt lat="41.1901867" lon="14.26983"><ele>174.28571428571428</ele><time>2026-05-04T10:14:26.12Z</time></trkpt><trkpt lat="41.19024" lon="14.269905"><ele>175.71428571428572</ele><time>2026-05-04T10:14:29.119Z</time></trkpt><trkpt lat="41.19029" lon="14.2699683"><ele>177.14285714285717</ele><time>2026-05-04T10:14:31.119Z</time></trkpt><trkpt lat="41.1903417" lon="14.2700367"><ele>178.57142857142856</ele><time>2026-05-04T10:14:33.119Z</time></trkpt><trkpt lat="41.19039" lon="14.2701"><ele>180.0</ele><time>2026-05-04T10:14:35.119Z</time></trkpt><trkpt lat="41.19044" lon="14.2701633"><ele>180.0</ele><time>2026-05-04T10:14:37.12Z</time></trkpt><trkpt lat="41.1904917" lon="14.270215"><ele>180.0</ele><time>2026-05-04T10:14:39.12Z</time></trkpt><trkpt lat="41.190565" lon="14.2702617"><ele>180.0</ele><time>2026-05-04T10:14:42.121Z</time></trkpt><trkpt lat="41.19061" lon="14.2703233"><ele>180.0</ele><time>2026-05-04T10:14:44.121Z</time></trkpt><trkpt lat="41.1906567" lon="14.2704317"><ele>180.0</ele><time>2026-05-04T10:14:47.118Z</time></trkpt><trkpt lat="41.1906983" lon="14.2705"><ele>180.0</ele><time>2026-05-04T10:14:49.12Z</time></trkpt><trkpt lat="41.190755" lon="14.2705933"><ele>180.5</ele><time>2026-05-04T10:14:52.119Z</time></trkpt><trkpt lat="41.190795" lon="14.2706817"><ele>181.0</ele><time>2026-05-04T10:14:55.12Z</time></trkpt><trkpt lat="41.1908367" lon="14.27078"><ele>181.5</ele><time>2026-05-04T10:14:58.119Z</time></trkpt><trkpt lat="41.1908667" lon="14.2708567"><ele>182.0</ele><time>2026-05-04T10:15:00.118Z</time></trkpt><trkpt lat="41.1909117" lon="14.2709533"><ele>182.5</ele><time>2026-05-04T10:15:03.119Z</time></trkpt><trkpt lat="41.1909483" lon="14.271025"><ele>183.0</ele><time>2026-05-04T10:15:05.119Z</time></trkpt><trkpt lat="41.1910033" lon="14.2711167"><ele>183.0</ele><time>2026-05-04T10:15:08.12Z</time></trkpt><trkpt lat="41.1910517" lon="14.2712067"><ele>183.0</ele><time>2026-05-04T10:15:11.119Z</time></trkpt><trkpt lat="41.1911" lon="14.27127"><ele>183.0</ele><time>2026-05-04T10:15:13.12Z</time></trkpt><trkpt lat="41.1911483" lon="14.2713333"><ele>183.0</ele><time>2026-05-04T10:15:15.119Z</time></trkpt><trkpt lat="41.1912067" lon="14.271375"><ele>183.0</ele><time>2026-05-04T10:15:17.121Z</time></trkpt><trkpt lat="41.191285" lon="14.27143"><ele>183.0</ele><time>2026-05-04T10:15:20.118Z</time></trkpt><trkpt lat="41.1913667" lon="14.271475"><ele>182.33333333333334</ele><time>2026-05-04T10:15:23.12Z</time></trkpt><trkpt lat="41.1914283" lon="14.2715017"><ele>181.66666666666666</ele><time>2026-05-04T10:15:25.12Z</time></trkpt><trkpt lat="41.1915067" lon="14.2715667"><ele>181.0</ele><time>2026-05-04T10:15:28.12Z</time></trkpt><trkpt lat="41.1915567" lon="14.27163"><ele>180.33333333333331</ele><time>2026-05-04T10:15:30.12Z</time></trkpt><trkpt lat="41.1916183" lon="14.2717233"><ele>179.66666666666666</ele><time>2026-05-04T10:15:33.12Z</time></trkpt><trkpt lat="41.1916567" lon="14.271795"><ele>179.0</ele><time>2026-05-04T10:15:35.12Z</time></trkpt><trkpt lat="41.191705" lon="14.2718617"><ele>179.00000000000003</ele><time>2026-05-04T10:15:37.12Z</time></trkpt><trkpt lat="41.1917733" lon="14.271955"><ele>179.0</ele><time>2026-05-04T10:15:40.119Z</time></trkpt><trkpt lat="41.1918067" lon="14.27204"><ele>179.0</ele><time>2026-05-04T10:15:42.118Z</time></trkpt><trkpt lat="41.1918417" lon="14.2721133"><ele>179.0</ele><time>2026-05-04T10:15:44.119Z</time></trkpt><trkpt lat="41.19189" lon="14.2721817"><ele>179.0</ele><time>2026-05-04T10:15:46.119Z</time></trkpt><trkpt lat="41.1919367" lon="14.2722483"><ele>179.00000000000003</ele><time>2026-05-04T10:15:48.12Z</time></trkpt><trkpt lat="41.191985" lon="14.2723067"><ele>179.0</ele><time>2026-05-04T10:15:50.12Z</time></trkpt><trkpt lat="41.1920333" lon="14.2723683"><ele>179.33333333333331</ele><time>2026-05-04T10:15:52.119Z</time></trkpt><trkpt lat="41.1920983" lon="14.27243"><ele>179.66666666666666</ele><time>2026-05-04T10:15:55.12Z</time></trkpt><trkpt lat="41.1921733" lon="14.2724733"><ele>180.0</ele><time>2026-05-04T10:15:58.12Z</time></trkpt><trkpt lat="41.1922283" lon="14.272515"><ele>180.33333333333334</ele><time>2026-05-04T10:16:00.118Z</time></trkpt><trkpt lat="41.1922867" lon="14.2725483"><ele>180.66666666666669</ele><time>2026-05-04T10:16:02.119Z</time></trkpt><trkpt lat="41.1923467" lon="14.2726117"><ele>181.0</ele><time>2026-05-04T10:16:04.119Z</time></trkpt><trkpt lat="41.19243" lon="14.2726633"><ele>181.0</ele><time>2026-05-04T10:16:07.121Z</time></trkpt><trkpt lat="41.1924933" lon="14.2726967"><ele>181.0</ele><time>2026-05-04T10:16:09.119Z</time></trkpt><trkpt lat="41.1925717" lon="14.2726917"><ele>181.0</ele><time>2026-05-04T10:16:12.118Z</time></trkpt><trkpt lat="41.1926367" lon="14.2727083"><ele>181.0</ele><time>2026-05-04T10:16:14.12Z</time></trkpt><trkpt lat="41.1926983" lon="14.2727367"><ele>181.0</ele><time>2026-05-04T10:16:16.12Z</time></trkpt><trkpt lat="41.1927567" lon="14.27278"><ele>181.0</ele><time>2026-05-04T10:16:18.119Z</time></trkpt><trkpt lat="41.1928183" lon="14.2728217"><ele>181.0</ele><time>2026-05-04T10:16:20.12Z</time></trkpt><trkpt lat="41.19287" lon="14.2728783"><ele>181.0</ele><time>2026-05-04T10:16:22.119Z</time></trkpt><trkpt lat="41.1929133" lon="14.2729517"><ele>181.0</ele><time>2026-05-04T10:16:24.118Z</time></trkpt><trkpt lat="41.1929667" lon="14.2730317"><ele>181.0</ele><time>2026-05-04T10:16:26.12Z</time></trkpt><trkpt lat="41.19301" lon="14.2731067"><ele>181.0</ele><time>2026-05-04T10:16:28.12Z</time></trkpt><trkpt lat="41.193045" lon="14.2731917"><ele>181.0</ele><time>2026-05-04T10:16:30.118Z</time></trkpt><trkpt lat="41.1930867" lon="14.2732733"><ele>181.0</ele><time>2026-05-04T10:16:32.12Z</time></trkpt><trkpt lat="41.193115" lon="14.2733517"><ele>181.0</ele><time>2026-05-04T10:16:34.118Z</time></trkpt><trkpt lat="41.1931383" lon="14.27347"><ele>181.0</ele><time>2026-05-04T10:16:37.12Z</time></trkpt><trkpt lat="41.193145" lon="14.2736"><ele>181.0</ele><time>2026-05-04T10:16:40.118Z</time></trkpt><trkpt lat="41.1931633" lon="14.2736833"><ele>181.0</ele><time>2026-05-04T10:16:42.12Z</time></trkpt><trkpt lat="41.1931783" lon="14.27377"><ele>181.0</ele><time>2026-05-04T10:16:44.121Z</time></trkpt><trkpt lat="41.1931867" lon="14.27389"><ele>181.0</ele><time>2026-05-04T10:16:47.12Z</time></trkpt><trkpt lat="41.1931883" lon="14.2740133"><ele>181.0</ele><time>2026-05-04T10:16:50.121Z</time></trkpt><trkpt lat="41.1931767" lon="14.2741033"><ele>183.0</ele><time>2026-05-04T10:16:52.118Z</time></trkpt><trkpt lat="41.1931717" lon="14.2742033"><ele>185.0</ele><time>2026-05-04T10:16:54.12Z</time></trkpt><trkpt lat="41.1931767" lon="14.2743033"><ele>187.0</ele><time>2026-05-04T10:16:57.119Z</time></trkpt><trkpt lat="41.1932" lon="14.27441"><ele>189.0</ele><time>2026-05-04T10:17:00.119Z</time></trkpt><trkpt lat="41.1932167" lon="14.2745267"><ele>190.99999999999997</ele><time>2026-05-04T10:17:03.119Z</time></trkpt><trkpt lat="41.193215" lon="14.2746533"><ele>193.0</ele><time>2026-05-04T10:17:06.12Z</time></trkpt><trkpt lat="41.1932233" lon="14.2747433"><ele>194.16666666666666</ele><time>2026-05-04T10:17:08.121Z</time></trkpt><trkpt lat="41.1932233" lon="14.274845"><ele>195.33333333333331</ele><time>2026-05-04T10:17:10.12Z</time></trkpt><trkpt lat="41.1932183" lon="14.27494"><ele>196.5</ele><time>2026-05-04T10:17:12.12Z</time></trkpt><trkpt lat="41.1932267" lon="14.2750617"><ele>197.66666666666669</ele><time>2026-05-04T10:17:15.121Z</time></trkpt><trkpt lat="41.19323" lon="14.2751733"><ele>198.83333333333334</ele><time>2026-05-04T10:17:18.121Z</time></trkpt><trkpt lat="41.1932567" lon="14.2752733"><ele>200.0</ele><time>2026-05-04T10:17:22.12Z</time></trkpt><trkpt lat="41.19333" lon="14.2753067"><ele>200.00000000000003</ele><time>2026-05-04T10:17:25.12Z</time></trkpt><trkpt lat="41.1934117" lon="14.2753233"><ele>200.0</ele><time>2026-05-04T10:17:28.119Z</time></trkpt><trkpt lat="41.193495" lon="14.2753117"><ele>200.0</ele><time>2026-05-04T10:17:31.12Z</time></trkpt><trkpt lat="41.193575" lon="14.2752817"><ele>200.0</ele><time>2026-05-04T10:17:34.119Z</time></trkpt><trkpt lat="41.1936567" lon="14.2752533"><ele>200.00000000000003</ele><time>2026-05-04T10:17:37.121Z</time></trkpt><trkpt lat="41.1937467" lon="14.2752333"><ele>200.0</ele><time>2026-05-04T10:17:40.119Z</time></trkpt><trkpt lat="41.1938333" lon="14.27522"><ele>200.00000000000003</ele><time>2026-05-04T10:17:43.121Z</time></trkpt><trkpt lat="41.1939217" lon="14.2752117"><ele>200.0</ele><time>2026-05-04T10:17:46.118Z</time></trkpt><trkpt lat="41.1940083" lon="14.2751733"><ele>200.0</ele><time>2026-05-04T10:17:49.121Z</time></trkpt><trkpt lat="41.1940833" lon="14.2751233"><ele>200.0</ele><time>2026-05-04T10:17:52.121Z</time></trkpt><trkpt lat="41.1941417" lon="14.2750783"><ele>200.00000000000003</ele><time>2026-05-04T10:17:54.12Z</time></trkpt><trkpt lat="41.1941983" lon="14.2750367"><ele>200.0</ele><time>2026-05-04T10:17:56.121Z</time></trkpt><trkpt lat="41.1942783" lon="14.2749733"><ele>201.00000000000003</ele><time>2026-05-04T10:17:59.12Z</time></trkpt><trkpt lat="41.194335" lon="14.2749083"><ele>202.0</ele><time>2026-05-04T10:18:01.12Z</time></trkpt><trkpt lat="41.1943833" lon="14.2748517"><ele>203.0</ele><time>2026-05-04T10:18:03.12Z</time></trkpt><trkpt lat="41.194455" lon="14.27478"><ele>204.0</ele><time>2026-05-04T10:18:06.121Z</time></trkpt><trkpt lat="41.19451" lon="14.2747317"><ele>205.0</ele><time>2026-05-04T10:18:08.121Z</time></trkpt><trkpt lat="41.1945867" lon="14.2746783"><ele>206.00000000000003</ele><time>2026-05-04T10:18:11.12Z</time></trkpt><trkpt lat="41.1946517" lon="14.2746633"><ele>207.0</ele><time>2026-05-04T10:18:13.119Z</time></trkpt><trkpt lat="41.1947433" lon="14.27465"><ele>204.5</ele><time>2026-05-04T10:18:16.118Z</time></trkpt><trkpt lat="41.1948067" lon="14.2746417"><ele>202.0</ele><time>2026-05-04T10:18:18.121Z</time></trkpt><trkpt lat="41.1948733" lon="14.2746567"><ele>199.5</ele><time>2026-05-04T10:18:20.122Z</time></trkpt><trkpt lat="41.1949367" lon="14.2746733"><ele>197.0</ele><time>2026-05-04T10:18:22.12Z</time></trkpt><trkpt lat="41.1950167" lon="14.27469"><ele>194.5</ele><time>2026-05-04T10:18:25.121Z</time></trkpt><trkpt lat="41.1951" lon="14.2747"><ele>192.0</ele><time>2026-05-04T10:18:28.121Z</time></trkpt><trkpt lat="41.1951883" lon="14.2747283"><ele>192.0</ele><time>2026-05-04T10:18:31.12Z</time></trkpt><trkpt lat="41.1952483" lon="14.2747617"><ele>192.0</ele><time>2026-05-04T10:18:33.121Z</time></trkpt><trkpt lat="41.195335" lon="14.2747817"><ele>192.0</ele><time>2026-05-04T10:18:36.12Z</time></trkpt><trkpt lat="41.1954183" lon="14.2748333"><ele>192.0</ele><time>2026-05-04T10:18:39.12Z</time></trkpt><trkpt lat="41.1954783" lon="14.2748917"><ele>192.0</ele><time>2026-05-04T10:18:41.12Z</time></trkpt><trkpt lat="41.1955383" lon="14.2749733"><ele>192.0</ele><time>2026-05-04T10:18:43.121Z</time></trkpt><trkpt lat="41.1955833" lon="14.2750417"><ele>194.83333333333334</ele><time>2026-05-04T10:18:45.12Z</time></trkpt><trkpt lat="41.1956183" lon="14.27513"><ele>197.66666666666669</ele><time>2026-05-04T10:18:47.121Z</time></trkpt><trkpt lat="41.1956433" lon="14.275225"><ele>200.5</ele><time>2026-05-04T10:18:49.121Z</time></trkpt><trkpt lat="41.1956767" lon="14.27531"><ele>203.33333333333334</ele><time>2026-05-04T10:18:51.121Z</time></trkpt><trkpt lat="41.1957117" lon="14.2754233"><ele>206.16666666666669</ele><time>2026-05-04T10:18:54.119Z</time></trkpt><trkpt lat="41.1957417" lon="14.27553"><ele>209.0</ele><time>2026-05-04T10:18:57.121Z</time></trkpt><trkpt lat="41.1957717" lon="14.2756083"><ele>211.16666666666669</ele><time>2026-05-04T10:18:59.121Z</time></trkpt><trkpt lat="41.1958" lon="14.2757167"><ele>213.33333333333334</ele><time>2026-05-04T10:19:02.12Z</time></trkpt><trkpt lat="41.1958167" lon="14.27584"><ele>215.5</ele><time>2026-05-04T10:19:05.121Z</time></trkpt><trkpt lat="41.1958417" lon="14.275925"><ele>217.66666666666669</ele><time>2026-05-04T10:19:07.121Z</time></trkpt><trkpt lat="41.1958483" lon="14.27601"><ele>219.83333333333334</ele><time>2026-05-04T10:19:09.121Z</time></trkpt><trkpt lat="41.1958483" lon="14.276095"><ele>222.0</ele><time>2026-05-04T10:19:11.12Z</time></trkpt><trkpt lat="41.1958467" lon="14.27622"><ele>222.0</ele><time>2026-05-04T10:19:14.118Z</time></trkpt><trkpt lat="41.1958517" lon="14.2763117"><ele>222.0</ele><time>2026-05-04T10:19:16.121Z</time></trkpt><trkpt lat="41.195855" lon="14.2764117"><ele>222.0</ele><time>2026-05-04T10:19:18.121Z</time></trkpt><trkpt lat="41.1958617" lon="14.2765167"><ele>222.0</ele><time>2026-05-04T10:19:20.12Z</time></trkpt><trkpt lat="41.1958633" lon="14.2766067"><ele>222.0</ele><time>2026-05-04T10:19:22.121Z</time></trkpt><trkpt lat="41.1958633" lon="14.2767"><ele>222.0</ele><time>2026-05-04T10:19:24.121Z</time></trkpt><trkpt lat="41.1958483" lon="14.2767883"><ele>222.0</ele><time>2026-05-04T10:19:26.12Z</time></trkpt><trkpt lat="41.1958367" lon="14.27688"><ele>223.0</ele><time>2026-05-04T10:19:28.12Z</time></trkpt><trkpt lat="41.1958283" lon="14.276965"><ele>224.0</ele><time>2026-05-04T10:19:30.12Z</time></trkpt><trkpt lat="41.1958083" lon="14.27705"><ele>225.0</ele><time>2026-05-04T10:19:32.121Z</time></trkpt><trkpt lat="41.1958017" lon="14.277155"><ele>226.0</ele><time>2026-05-04T10:19:35.118Z</time></trkpt><trkpt lat="41.19577" lon="14.2772783"><ele>227.0</ele><time>2026-05-04T10:19:38.12Z</time></trkpt><trkpt lat="41.1957533" lon="14.2773667"><ele>228.0</ele><time>2026-05-04T10:19:40.12Z</time></trkpt><trkpt lat="41.1957367" lon="14.2774583"><ele>229.0</ele><time>2026-05-04T10:19:42.121Z</time></trkpt><trkpt lat="41.1957367" lon="14.27759"><ele>229.0</ele><time>2026-05-04T10:19:45.121Z</time></trkpt><trkpt lat="41.1957267" lon="14.2776833"><ele>229.0</ele><time>2026-05-04T10:19:47.12Z</time></trkpt><trkpt lat="41.1957233" lon="14.2777767"><ele>229.0</ele><time>2026-05-04T10:19:49.121Z</time></trkpt><trkpt lat="41.1957267" lon="14.277865"><ele>229.0</ele><time>2026-05-04T10:19:51.123Z</time></trkpt><trkpt lat="41.1957467" lon="14.27798"><ele>229.0</ele><time>2026-05-04T10:19:54.118Z</time></trkpt><trkpt lat="41.1957633" lon="14.2780617"><ele>229.0</ele><time>2026-05-04T10:19:56.122Z</time></trkpt><trkpt lat="41.19578" lon="14.2781533"><ele>229.0</ele><time>2026-05-04T10:19:58.123Z</time></trkpt><trkpt lat="41.19579" lon="14.2782383"><ele>229.28571428571428</ele><time>2026-05-04T10:20:00.12Z</time></trkpt><trkpt lat="41.195815" lon="14.2783167"><ele>229.57142857142858</ele><time>2026-05-04T10:20:02.123Z</time></trkpt><trkpt lat="41.1958533" lon="14.278385"><ele>229.85714285714286</ele><time>2026-05-04T10:20:04.124Z</time></trkpt><trkpt lat="41.195905" lon="14.2784383"><ele>230.14285714285714</ele><time>2026-05-04T10:20:06.124Z</time></trkpt><trkpt lat="41.1959833" lon="14.2784967"><ele>230.42857142857144</ele><time>2026-05-04T10:20:09.122Z</time></trkpt><trkpt lat="41.1960417" lon="14.27853"><ele>230.71428571428572</ele><time>2026-05-04T10:20:11.121Z</time></trkpt><trkpt lat="41.1961133" lon="14.2785767"><ele>231.0</ele><time>2026-05-04T10:20:14.12Z</time></trkpt><trkpt lat="41.1961867" lon="14.2786033"><ele>231.0</ele><time>2026-05-04T10:20:17.12Z</time></trkpt><trkpt lat="41.1962633" lon="14.2786317"><ele>231.0</ele><time>2026-05-04T10:20:20.121Z</time></trkpt><trkpt lat="41.19635" lon="14.278655"><ele>231.0</ele><time>2026-05-04T10:20:23.12Z</time></trkpt><trkpt lat="41.1964367" lon="14.2787"><ele>231.0</ele><time>2026-05-04T10:20:26.12Z</time></trkpt><trkpt lat="41.1965" lon="14.2787317"><ele>231.0</ele><time>2026-05-04T10:20:28.12Z</time></trkpt><trkpt lat="41.1965583" lon="14.2787783"><ele>231.0</ele><time>2026-05-04T10:20:30.119Z</time></trkpt><trkpt lat="41.1966267" lon="14.278845"><ele>231.57142857142856</ele><time>2026-05-04T10:20:33.122Z</time></trkpt><trkpt lat="41.1966933" lon="14.2789233"><ele>232.14285714285714</ele><time>2026-05-04T10:20:36.122Z</time></trkpt><trkpt lat="41.1967433" lon="14.2789767"><ele>232.71428571428572</ele><time>2026-05-04T10:20:38.123Z</time></trkpt><trkpt lat="41.1967933" lon="14.2790283"><ele>233.28571428571428</ele><time>2026-05-04T10:20:40.122Z</time></trkpt><trkpt lat="41.1968617" lon="14.279115"><ele>233.85714285714283</ele><time>2026-05-04T10:20:43.12Z</time></trkpt><trkpt lat="41.1969033" lon="14.2791833"><ele>234.42857142857142</ele><time>2026-05-04T10:20:45.122Z</time></trkpt><trkpt lat="41.1969417" lon="14.279255"><ele>235.0</ele><time>2026-05-04T10:20:47.121Z</time></trkpt><trkpt lat="41.1969667" lon="14.2793333"><ele>235.0</ele><time>2026-05-04T10:20:49.12Z</time></trkpt><trkpt lat="41.1969733" lon="14.2794217"><ele>234.99999999999997</ele><time>2026-05-04T10:20:51.121Z</time></trkpt><trkpt lat="41.1969483" lon="14.2795417"><ele>235.0</ele><time>2026-05-04T10:20:54.12Z</time></trkpt><trkpt lat="41.19691" lon="14.279615"><ele>235.0</ele><time>2026-05-04T10:20:56.12Z</time></trkpt><trkpt lat="41.196875" lon="14.279685"><ele>234.99999999999997</ele><time>2026-05-04T10:20:58.119Z</time></trkpt><trkpt lat="41.1968367" lon="14.2797517"><ele>235.0</ele><time>2026-05-04T10:21:00.12Z</time></trkpt><trkpt lat="41.196785" lon="14.279855"><ele>235.0</ele><time>2026-05-04T10:21:03.12Z</time></trkpt><trkpt lat="41.1967517" lon="14.27993"><ele>235.49999999999997</ele><time>2026-05-04T10:21:05.12Z</time></trkpt><trkpt lat="41.1967283" lon="14.2800083"><ele>236.0</ele><time>2026-05-04T10:21:07.12Z</time></trkpt><trkpt lat="41.196735" lon="14.2800967"><ele>236.5</ele><time>2026-05-04T10:21:09.12Z</time></trkpt><trkpt lat="41.1967667" lon="14.280175"><ele>237.0</ele><time>2026-05-04T10:21:11.121Z</time></trkpt><trkpt lat="41.19684" lon="14.28023"><ele>237.49999999999997</ele><time>2026-05-04T10:21:14.122Z</time></trkpt><trkpt lat="41.1969233" lon="14.2802133"><ele>238.0</ele><time>2026-05-04T10:21:17.119Z</time></trkpt><trkpt lat="41.19698" lon="14.2801133"><ele>237.99999999999997</ele><time>2026-05-04T10:21:20.12Z</time></trkpt><trkpt lat="41.197015" lon="14.2800433"><ele>238.0</ele><time>2026-05-04T10:21:22.121Z</time></trkpt><trkpt lat="41.197075" lon="14.2799517"><ele>238.0</ele><time>2026-05-04T10:21:25.119Z</time></trkpt><trkpt lat="41.1971467" lon="14.2798833"><ele>238.0</ele><time>2026-05-04T10:21:28.118Z</time></trkpt><trkpt lat="41.1972067" lon="14.279845"><ele>237.99999999999997</ele><time>2026-05-04T10:21:30.12Z</time></trkpt><trkpt lat="41.197275" lon="14.2798"><ele>238.0</ele><time>2026-05-04T10:21:32.12Z</time></trkpt><trkpt lat="41.1973417" lon="14.27977"><ele>240.16666666666666</ele><time>2026-05-04T10:21:34.118Z</time></trkpt><trkpt lat="41.19743" lon="14.2797267"><ele>242.33333333333331</ele><time>2026-05-04T10:21:37.119Z</time></trkpt><trkpt lat="41.1975067" lon="14.2796817"><ele>244.5</ele><time>2026-05-04T10:21:40.119Z</time></trkpt><trkpt lat="41.1975833" lon="14.2796233"><ele>246.66666666666669</ele><time>2026-05-04T10:21:43.12Z</time></trkpt><trkpt lat="41.1976667" lon="14.2795733"><ele>248.83333333333334</ele><time>2026-05-04T10:21:46.121Z</time></trkpt><trkpt lat="41.1977217" lon="14.279525"><ele>251.0</ele><time>2026-05-04T10:21:48.12Z</time></trkpt><trkpt lat="41.1977717" lon="14.27947"><ele>250.99999999999997</ele><time>2026-05-04T10:21:50.121Z</time></trkpt><trkpt lat="41.197805" lon="14.27939"><ele>251.0</ele><time>2026-05-04T10:21:52.119Z</time></trkpt><trkpt lat="41.1978283" lon="14.2793067"><ele>250.99999999999997</ele><time>2026-05-04T10:21:54.12Z</time></trkpt><trkpt lat="41.197845" lon="14.27922"><ele>250.99999999999997</ele><time>2026-05-04T10:21:56.119Z</time></trkpt><trkpt lat="41.1978517" lon="14.2791317"><ele>251.0</ele><time>2026-05-04T10:21:58.12Z</time></trkpt><trkpt lat="41.197855" lon="14.2790133"><ele>250.99999999999997</ele><time>2026-05-04T10:22:01.119Z</time></trkpt><trkpt lat="41.197855" lon="14.2789033"><ele>250.99999999999997</ele><time>2026-05-04T10:22:04.119Z</time></trkpt><trkpt lat="41.1978667" lon="14.2787817"><ele>251.00000000000003</ele><time>2026-05-04T10:22:07.12Z</time></trkpt><trkpt lat="41.1978683" lon="14.2786633"><ele>251.0</ele><time>2026-05-04T10:22:10.119Z</time></trkpt><trkpt lat="41.1978783" lon="14.27855"><ele>251.0</ele><time>2026-05-04T10:22:13.119Z</time></trkpt><trkpt lat="41.1978983" lon="14.2784483"><ele>251.0</ele><time>2026-05-04T10:22:16.12Z</time></trkpt><trkpt lat="41.19791" lon="14.2783333"><ele>251.00000000000003</ele><time>2026-05-04T10:22:19.118Z</time></trkpt><trkpt lat="41.1979267" lon="14.2782483"><ele>251.0</ele><time>2026-05-04T10:22:21.121Z</time></trkpt><trkpt lat="41.19794" lon="14.2781567"><ele>250.85714285714283</ele><time>2026-05-04T10:22:23.12Z</time></trkpt><trkpt lat="41.19796" lon="14.27807"><ele>250.71428571428572</ele><time>2026-05-04T10:22:25.119Z</time></trkpt><trkpt lat="41.1979817" lon="14.2779867"><ele>250.57142857142856</ele><time>2026-05-04T10:22:27.119Z</time></trkpt><trkpt lat="41.1980083" lon="14.2779067"><ele>250.42857142857142</ele><time>2026-05-04T10:22:29.12Z</time></trkpt><trkpt lat="41.1980517" lon="14.2777883"><ele>250.28571428571428</ele><time>2026-05-04T10:22:32.12Z</time></trkpt><trkpt lat="41.19809" lon="14.2777117"><ele>250.14285714285714</ele><time>2026-05-04T10:22:34.121Z</time></trkpt><trkpt lat="41.198125" lon="14.277635"><ele>250.0</ele><time>2026-05-04T10:22:36.12Z</time></trkpt><trkpt lat="41.1981567" lon="14.277525"><ele>252.16666666666666</ele><time>2026-05-04T10:22:39.119Z</time></trkpt><trkpt lat="41.198195" lon="14.2774183"><ele>254.33333333333331</ele><time>2026-05-04T10:22:42.119Z</time></trkpt><trkpt lat="41.198225" lon="14.2773283"><ele>256.5</ele><time>2026-05-04T10:22:45.122Z</time></trkpt><trkpt lat="41.198265" lon="14.2772217"><ele>258.6666666666667</ele><time>2026-05-04T10:22:48.116Z</time></trkpt><trkpt lat="41.1982833" lon="14.2771117"><ele>260.83333333333337</ele><time>2026-05-04T10:22:51.116Z</time></trkpt><trkpt lat="41.198325" lon="14.27701"><ele>263.0</ele><time>2026-05-04T10:22:54.118Z</time></trkpt><trkpt lat="41.198365" lon="14.2769167"><ele>263.0</ele><time>2026-05-04T10:22:57.118Z</time></trkpt><trkpt lat="41.19842" lon="14.2768133"><ele>263.0</ele><time>2026-05-04T10:23:01.119Z</time></trkpt><trkpt lat="41.1984483" lon="14.2767333"><ele>263.0</ele><time>2026-05-04T10:23:03.12Z</time></trkpt><trkpt lat="41.198505" lon="14.2766533"><ele>263.0</ele><time>2026-05-04T10:23:06.116Z</time></trkpt><trkpt lat="41.1985367" lon="14.276555"><ele>263.0</ele><time>2026-05-04T10:23:08.117Z</time></trkpt><trkpt lat="41.1985733" lon="14.2764867"><ele>263.0</ele><time>2026-05-04T10:23:10.118Z</time></trkpt><trkpt lat="41.19865" lon="14.27642"><ele>261.83333333333337</ele><time>2026-05-04T10:23:13.118Z</time></trkpt><trkpt lat="41.1987083" lon="14.27637"><ele>260.6666666666667</ele><time>2026-05-04T10:23:16.118Z</time></trkpt><trkpt lat="41.19877" lon="14.2763217"><ele>259.5</ele><time>2026-05-04T10:23:19.152Z</time></trkpt><trkpt lat="41.198855" lon="14.2763"><ele>258.3333333333333</ele><time>2026-05-04T10:23:22.12Z</time></trkpt><trkpt lat="41.1989333" lon="14.2762967"><ele>257.16666666666663</ele><time>2026-05-04T10:23:25.317Z</time></trkpt><trkpt lat="41.1990133" lon="14.27628"><ele>256.0</ele><time>2026-05-04T10:23:28.118Z</time></trkpt><trkpt lat="41.1990967" lon="14.276305"><ele>255.99999999999997</ele><time>2026-05-04T10:23:31.117Z</time></trkpt><trkpt lat="41.19917" lon="14.2763667"><ele>256.0</ele><time>2026-05-04T10:23:34.118Z</time></trkpt><trkpt lat="41.1992333" lon="14.2764483"><ele>256.0</ele><time>2026-05-04T10:23:37.118Z</time></trkpt><trkpt lat="41.1992817" lon="14.27655"><ele>256.0</ele><time>2026-05-04T10:23:40.118Z</time></trkpt><trkpt lat="41.1993183" lon="14.2766617"><ele>255.99999999999997</ele><time>2026-05-04T10:23:43.118Z</time></trkpt><trkpt lat="41.1993317" lon="14.2767783"><ele>256.0</ele><time>2026-05-04T10:23:46.118Z</time></trkpt><trkpt lat="41.1993333" lon="14.276865"><ele>258.66666666666663</ele><time>2026-05-04T10:23:48.118Z</time></trkpt><trkpt lat="41.1993367" lon="14.276965"><ele>261.3333333333333</ele><time>2026-05-04T10:23:50.12Z</time></trkpt><trkpt lat="41.199345" lon="14.2770867"><ele>264.0</ele><time>2026-05-04T10:23:53.117Z</time></trkpt><trkpt lat="41.1993333" lon="14.2772133"><ele>266.6666666666667</ele><time>2026-05-04T10:23:56.119Z</time></trkpt><trkpt lat="41.1993617" lon="14.277335"><ele>269.33333333333337</ele><time>2026-05-04T10:23:59.119Z</time></trkpt><trkpt lat="41.1993817" lon="14.2774167"><ele>272.0</ele><time>2026-05-04T10:24:01.117Z</time></trkpt><trkpt lat="41.1994483" lon="14.2774783"><ele>273.0</ele><time>2026-05-04T10:24:04.118Z</time></trkpt><trkpt lat="41.19954" lon="14.277515"><ele>274.0</ele><time>2026-05-04T10:24:07.118Z</time></trkpt><trkpt lat="41.1996267" lon="14.277535"><ele>275.0</ele><time>2026-05-04T10:24:10.119Z</time></trkpt><trkpt lat="41.1997067" lon="14.277535"><ele>276.0</ele><time>2026-05-04T10:24:13.119Z</time></trkpt><trkpt lat="41.199775" lon="14.2775367"><ele>277.0</ele><time>2026-05-04T10:24:16.118Z</time></trkpt><trkpt lat="41.19985" lon="14.2775483"><ele>278.0</ele><time>2026-05-04T10:24:18.119Z</time></trkpt><trkpt lat="41.199925" lon="14.277555"><ele>278.0</ele><time>2026-05-04T10:24:20.12Z</time></trkpt><trkpt lat="41.200005" lon="14.2775833"><ele>278.0</ele><time>2026-05-04T10:24:23.119Z</time></trkpt><trkpt lat="41.200075" lon="14.2776167"><ele>278.0</ele><time>2026-05-04T10:24:26.119Z</time></trkpt><trkpt lat="41.200155" lon="14.2776583"><ele>278.0</ele><time>2026-05-04T10:24:29.123Z</time></trkpt><trkpt lat="41.20024" lon="14.277695"><ele>278.0</ele><time>2026-05-04T10:24:32.123Z</time></trkpt><trkpt lat="41.2003117" lon="14.2777383"><ele>278.0</ele><time>2026-05-04T10:24:35.117Z</time></trkpt><trkpt lat="41.2004017" lon="14.2777683"><ele>278.0</ele><time>2026-05-04T10:24:38.117Z</time></trkpt><trkpt lat="41.2004883" lon="14.2777983"><ele>278.0</ele><time>2026-05-04T10:24:41.117Z</time></trkpt><trkpt lat="41.2005667" lon="14.27783"><ele>278.0</ele><time>2026-05-04T10:24:44.119Z</time></trkpt><trkpt lat="41.2006567" lon="14.2778733"><ele>278.0</ele><time>2026-05-04T10:24:47.118Z</time></trkpt><trkpt lat="41.20074" lon="14.2778833"><ele>278.0</ele><time>2026-05-04T10:24:50.12Z</time></trkpt><trkpt lat="41.2008267" lon="14.2779033"><ele>278.0</ele><time>2026-05-04T10:24:53.118Z</time></trkpt><trkpt lat="41.2008933" lon="14.2779083"><ele>278.2857142857143</ele><time>2026-05-04T10:24:55.119Z</time></trkpt><trkpt lat="41.2009583" lon="14.2779017"><ele>278.57142857142856</ele><time>2026-05-04T10:24:57.117Z</time></trkpt><trkpt lat="41.20103" lon="14.2778933"><ele>278.8571428571429</ele><time>2026-05-04T10:24:59.119Z</time></trkpt><trkpt lat="41.2010967" lon="14.2778833"><ele>279.1428571428571</ele><time>2026-05-04T10:25:01.12Z</time></trkpt><trkpt lat="41.201165" lon="14.2778767"><ele>279.42857142857144</ele><time>2026-05-04T10:25:03.119Z</time></trkpt><trkpt lat="41.2012533" lon="14.2778467"><ele>279.7142857142857</ele><time>2026-05-04T10:25:06.12Z</time></trkpt><trkpt lat="41.2013133" lon="14.277815"><ele>280.0</ele><time>2026-05-04T10:25:08.122Z</time></trkpt><trkpt lat="41.20139" lon="14.2777767"><ele>280.0</ele><time>2026-05-04T10:25:11.121Z</time></trkpt><trkpt lat="41.2014683" lon="14.2777283"><ele>280.0</ele><time>2026-05-04T10:25:14.122Z</time></trkpt><trkpt lat="41.2015467" lon="14.2776867"><ele>280.0</ele><time>2026-05-04T10:25:17.12Z</time></trkpt><trkpt lat="41.2016283" lon="14.2776433"><ele>280.0</ele><time>2026-05-04T10:25:20.122Z</time></trkpt><trkpt lat="41.2017033" lon="14.277595"><ele>280.0</ele><time>2026-05-04T10:25:23.118Z</time></trkpt><trkpt lat="41.2017633" lon="14.27756"><ele>280.0</ele><time>2026-05-04T10:25:26.122Z</time></trkpt><trkpt lat="41.20183" lon="14.2775133"><ele>281.0</ele><time>2026-05-04T10:25:29.121Z</time></trkpt><trkpt lat="41.2018917" lon="14.277455"><ele>282.0</ele><time>2026-05-04T10:25:32.121Z</time></trkpt><trkpt lat="41.2019467" lon="14.2773917"><ele>283.0</ele><time>2026-05-04T10:25:35.121Z</time></trkpt><trkpt lat="41.2019967" lon="14.2773217"><ele>284.0</ele><time>2026-05-04T10:25:38.121Z</time></trkpt><trkpt lat="41.2020433" lon="14.2772567"><ele>285.0</ele><time>2026-05-04T10:25:41.121Z</time></trkpt><trkpt lat="41.2021" lon="14.2771917"><ele>286.0</ele><time>2026-05-04T10:25:44.121Z</time></trkpt><trkpt lat="41.2021583" lon="14.2771217"><ele>287.0</ele><time>2026-05-04T10:25:47.121Z</time></trkpt><trkpt lat="41.2022183" lon="14.277065"><ele>287.0</ele><time>2026-05-04T10:25:50.123Z</time></trkpt><trkpt lat="41.2022867" lon="14.2770217"><ele>287.0</ele><time>2026-05-04T10:25:53.122Z</time></trkpt><trkpt lat="41.2023567" lon="14.276975"><ele>287.0</ele><time>2026-05-04T10:25:56.12Z</time></trkpt><trkpt lat="41.20242" lon="14.2769233"><ele>287.0</ele><time>2026-05-04T10:25:59.119Z</time></trkpt><trkpt lat="41.2024867" lon="14.2768833"><ele>287.0</ele><time>2026-05-04T10:26:02.121Z</time></trkpt><trkpt lat="41.2025633" lon="14.2768483"><ele>287.0</ele><time>2026-05-04T10:26:05.121Z</time></trkpt><trkpt lat="41.2026467" lon="14.2768267"><ele>288.7142857142857</ele><time>2026-05-04T10:26:08.123Z</time></trkpt><trkpt lat="41.2027267" lon="14.2768017"><ele>290.42857142857144</ele><time>2026-05-04T10:26:11.123Z</time></trkpt><trkpt lat="41.2028033" lon="14.276815"><ele>292.1428571428571</ele><time>2026-05-04T10:26:14.121Z</time></trkpt><trkpt lat="41.2028717" lon="14.2768267"><ele>293.8571428571429</ele><time>2026-05-04T10:26:17.122Z</time></trkpt><trkpt lat="41.202935" lon="14.2768367"><ele>295.57142857142856</ele><time>2026-05-04T10:26:20.122Z</time></trkpt><trkpt lat="41.2030083" lon="14.2768833"><ele>297.2857142857143</ele><time>2026-05-04T10:26:24.12Z</time></trkpt><trkpt lat="41.20307" lon="14.2769333"><ele>299.0</ele><time>2026-05-04T10:26:27.12Z</time></trkpt><trkpt lat="41.2031267" lon="14.276975"><ele>300.1428571428571</ele><time>2026-05-04T10:26:30.121Z</time></trkpt><trkpt lat="41.2031917" lon="14.277015"><ele>301.2857142857143</ele><time>2026-05-04T10:26:33.121Z</time></trkpt><trkpt lat="41.2032567" lon="14.2770583"><ele>302.42857142857144</ele><time>2026-05-04T10:26:36.119Z</time></trkpt><trkpt lat="41.2033217" lon="14.2770817"><ele>303.57142857142856</ele><time>2026-05-04T10:26:39.12Z</time></trkpt><trkpt lat="41.2033967" lon="14.2770833"><ele>304.7142857142857</ele><time>2026-05-04T10:26:44.123Z</time></trkpt><trkpt lat="41.2034717" lon="14.2771167"><ele>305.85714285714283</ele><time>2026-05-04T10:26:48.121Z</time></trkpt><trkpt lat="41.2035433" lon="14.2771133"><ele>307.0</ele><time>2026-05-04T10:26:52.119Z</time></trkpt><trkpt lat="41.2036067" lon="14.277075"><ele>306.99999999999994</ele><time>2026-05-04T10:26:56.12Z</time></trkpt><trkpt lat="41.2036567" lon="14.2770067"><ele>307.0</ele><time>2026-05-04T10:27:01.121Z</time></trkpt><trkpt lat="41.2036833" lon="14.27693"><ele>307.0</ele><time>2026-05-04T10:27:05.121Z</time></trkpt><trkpt lat="41.2037117" lon="14.2768383"><ele>307.0</ele><time>2026-05-04T10:27:10.12Z</time></trkpt><trkpt lat="41.2037267" lon="14.2767367"><ele>307.0</ele><time>2026-05-04T10:27:15.12Z</time></trkpt><trkpt lat="41.2037283" lon="14.2766483"><ele>306.99999999999994</ele><time>2026-05-04T10:27:19.121Z</time></trkpt><trkpt lat="41.2037317" lon="14.2765583"><ele>307.0</ele><time>2026-05-04T10:27:23.121Z</time></trkpt><trkpt lat="41.2037283" lon="14.2764667"><ele>307.85714285714283</ele><time>2026-05-04T10:27:27.122Z</time></trkpt><trkpt lat="41.2037233" lon="14.2763767"><ele>308.7142857142857</ele><time>2026-05-04T10:27:31.121Z</time></trkpt><trkpt lat="41.20372" lon="14.2762683"><ele>309.57142857142856</ele><time>2026-05-04T10:27:35.12Z</time></trkpt><trkpt lat="41.2037033" lon="14.27616"><ele>310.42857142857144</ele><time>2026-05-04T10:27:39.12Z</time></trkpt><trkpt lat="41.2036933" lon="14.2760717"><ele>311.2857142857143</ele><time>2026-05-04T10:27:42.123Z</time></trkpt><trkpt lat="41.2036867" lon="14.2759767"><ele>312.1428571428571</ele><time>2026-05-04T10:27:45.124Z</time></trkpt><trkpt lat="41.2036917" lon="14.2758783"><ele>313.0</ele><time>2026-05-04T10:27:48.12Z</time></trkpt><trkpt lat="41.203735" lon="14.2758067"><ele>313.0</ele><time>2026-05-04T10:27:51.12Z</time></trkpt><trkpt lat="41.2038017" lon="14.275795"><ele>313.0</ele><time>2026-05-04T10:27:55.122Z</time></trkpt><trkpt lat="41.2038667" lon="14.275845"><ele>313.0</ele><time>2026-05-04T10:27:59.122Z</time></trkpt><trkpt lat="41.2039183" lon="14.27591"><ele>313.0</ele><time>2026-05-04T10:28:02.124Z</time></trkpt><trkpt lat="41.2039783" lon="14.2759683"><ele>313.0</ele><time>2026-05-04T10:28:05.122Z</time></trkpt><trkpt lat="41.2040417" lon="14.27604"><ele>313.0</ele><time>2026-05-04T10:28:08.121Z</time></trkpt><trkpt lat="41.2041033" lon="14.2761217"><ele>315.0</ele><time>2026-05-04T10:28:11.124Z</time></trkpt><trkpt lat="41.204175" lon="14.2761817"><ele>317.0</ele><time>2026-05-04T10:28:14.119Z</time></trkpt><trkpt lat="41.2042533" lon="14.276235"><ele>319.0</ele><time>2026-05-04T10:28:17.122Z</time></trkpt><trkpt lat="41.2043417" lon="14.2762717"><ele>321.0</ele><time>2026-05-04T10:28:20.12Z</time></trkpt><trkpt lat="41.204425" lon="14.2763167"><ele>323.0</ele><time>2026-05-04T10:28:23.121Z</time></trkpt><trkpt lat="41.20451" lon="14.2763633"><ele>325.0</ele><time>2026-05-04T10:28:26.121Z</time></trkpt><trkpt lat="41.20459" lon="14.2764133"><ele>324.16666666666663</ele><time>2026-05-04T10:28:29.121Z</time></trkpt><trkpt lat="41.2046617" lon="14.2764783"><ele>323.3333333333333</ele><time>2026-05-04T10:28:32.121Z</time></trkpt><trkpt lat="41.2047267" lon="14.2765683"><ele>322.5</ele><time>2026-05-04T10:28:35.12Z</time></trkpt><trkpt lat="41.2047833" lon="14.2766583"><ele>321.6666666666667</ele><time>2026-05-04T10:28:38.12Z</time></trkpt><trkpt lat="41.2048183" lon="14.2767317"><ele>320.83333333333337</ele><time>2026-05-04T10:28:40.118Z</time></trkpt><trkpt lat="41.2048683" lon="14.2768317"><ele>320.0</ele><time>2026-05-04T10:28:43.117Z</time></trkpt><trkpt lat="41.204905" lon="14.2769217"><ele>321.0</ele><time>2026-05-04T10:28:46.121Z</time></trkpt><trkpt lat="41.2049483" lon="14.27703"><ele>322.0</ele><time>2026-05-04T10:28:49.122Z</time></trkpt><trkpt lat="41.20498" lon="14.277105"><ele>323.0</ele><time>2026-05-04T10:28:51.12Z</time></trkpt><trkpt lat="41.205015" lon="14.2771767"><ele>324.0</ele><time>2026-05-04T10:28:53.119Z</time></trkpt><trkpt lat="41.205085" lon="14.27726"><ele>325.0</ele><time>2026-05-04T10:28:56.118Z</time></trkpt><trkpt lat="41.2051417" lon="14.2773167"><ele>326.0</ele><time>2026-05-04T10:28:58.12Z</time></trkpt><trkpt lat="41.2051967" lon="14.2773667"><ele>326.0</ele><time>2026-05-04T10:29:00.121Z</time></trkpt><trkpt lat="41.2052733" lon="14.2774317"><ele>326.0</ele><time>2026-05-04T10:29:03.119Z</time></trkpt><trkpt lat="41.2053367" lon="14.2774883"><ele>326.0</ele><time>2026-05-04T10:29:06.124Z</time></trkpt><trkpt lat="41.2054" lon="14.2775433"><ele>326.0</ele><time>2026-05-04T10:29:09.122Z</time></trkpt><trkpt lat="41.20547" lon="14.2775767"><ele>326.0</ele><time>2026-05-04T10:29:12.118Z</time></trkpt><trkpt lat="41.2055383" lon="14.2776267"><ele>326.0</ele><time>2026-05-04T10:29:15.12Z</time></trkpt><trkpt lat="41.205605" lon="14.2776733"><ele>328.0</ele><time>2026-05-04T10:29:18.12Z</time></trkpt><trkpt lat="41.2056733" lon="14.2777283"><ele>330.0</ele><time>2026-05-04T10:29:21.12Z</time></trkpt><trkpt lat="41.2057517" lon="14.277765"><ele>332.0</ele><time>2026-05-04T10:29:24.12Z</time></trkpt><trkpt lat="41.2058283" lon="14.277815"><ele>334.0</ele><time>2026-05-04T10:29:27.12Z</time></trkpt><trkpt lat="41.2058867" lon="14.2778817"><ele>336.0</ele><time>2026-05-04T10:29:30.122Z</time></trkpt><trkpt lat="41.2059583" lon="14.277925"><ele>338.0</ele><time>2026-05-04T10:29:33.12Z</time></trkpt><trkpt lat="41.2060283" lon="14.27798"><ele>338.0</ele><time>2026-05-04T10:29:36.12Z</time></trkpt><trkpt lat="41.2061083" lon="14.2780417"><ele>338.0</ele><time>2026-05-04T10:29:39.118Z</time></trkpt><trkpt lat="41.2061783" lon="14.2781067"><ele>338.0</ele><time>2026-05-04T10:29:42.121Z</time></trkpt><trkpt lat="41.2062433" lon="14.2781717"><ele>338.0</ele><time>2026-05-04T10:29:45.119Z</time></trkpt><trkpt lat="41.2063117" lon="14.2782267"><ele>338.0</ele><time>2026-05-04T10:29:48.121Z</time></trkpt><trkpt lat="41.2063767" lon="14.2782717"><ele>338.0</ele><time>2026-05-04T10:29:51.12Z</time></trkpt><trkpt lat="41.20644" lon="14.278325"><ele>338.83333333333337</ele><time>2026-05-04T10:29:54.121Z</time></trkpt><trkpt lat="41.206495" lon="14.2783933"><ele>339.6666666666667</ele><time>2026-05-04T10:29:57.12Z</time></trkpt><trkpt lat="41.20656" lon="14.2784633"><ele>340.5</ele><time>2026-05-04T10:30:00.12Z</time></trkpt><trkpt lat="41.206625" lon="14.2785217"><ele>341.3333333333333</ele><time>2026-05-04T10:30:03.12Z</time></trkpt><trkpt lat="41.2066983" lon="14.2785817"><ele>342.16666666666663</ele><time>2026-05-04T10:30:06.12Z</time></trkpt><trkpt lat="41.2067767" lon="14.27865"><ele>343.0</ele><time>2026-05-04T10:30:09.121Z</time></trkpt><trkpt lat="41.2068283" lon="14.2787"><ele>343.0</ele><time>2026-05-04T10:30:11.121Z</time></trkpt><trkpt lat="41.2069083" lon="14.2787583"><ele>343.0</ele><time>2026-05-04T10:30:14.12Z</time></trkpt><trkpt lat="41.20699" lon="14.27881"><ele>343.0</ele><time>2026-05-04T10:30:17.121Z</time></trkpt><trkpt lat="41.20706" lon="14.2788617"><ele>343.0</ele><time>2026-05-04T10:30:20.12Z</time></trkpt><trkpt lat="41.20713" lon="14.278915"><ele>343.0</ele><time>2026-05-04T10:30:24.119Z</time></trkpt><trkpt lat="41.2072" lon="14.278965"><ele>343.0</ele><time>2026-05-04T10:30:28.119Z</time></trkpt><trkpt lat="41.2072483" lon="14.27903"><ele>341.8333333333333</ele><time>2026-05-04T10:30:31.12Z</time></trkpt><trkpt lat="41.2073" lon="14.2791167"><ele>340.66666666666663</ele><time>2026-05-04T10:30:34.12Z</time></trkpt><trkpt lat="41.2073717" lon="14.279185"><ele>339.5</ele><time>2026-05-04T10:30:37.12Z</time></trkpt><trkpt lat="41.20743" lon="14.2792467"><ele>338.3333333333333</ele><time>2026-05-04T10:30:40.121Z</time></trkpt><trkpt lat="41.2074867" lon="14.2793"><ele>337.1666666666667</ele><time>2026-05-04T10:30:43.122Z</time></trkpt><trkpt lat="41.207555" lon="14.279345"><ele>336.0</ele><time>2026-05-04T10:30:46.121Z</time></trkpt><trkpt lat="41.2076283" lon="14.2793983"><ele>337.5</ele><time>2026-05-04T10:30:49.119Z</time></trkpt><trkpt lat="41.2077033" lon="14.2794517"><ele>339.0</ele><time>2026-05-04T10:30:52.12Z</time></trkpt><trkpt lat="41.2077583" lon="14.2794967"><ele>340.5</ele><time>2026-05-04T10:30:54.118Z</time></trkpt><trkpt lat="41.2078083" lon="14.27955"><ele>342.0</ele><time>2026-05-04T10:30:56.123Z</time></trkpt><trkpt lat="41.2078683" lon="14.27963"><ele>343.5</ele><time>2026-05-04T10:30:59.119Z</time></trkpt><trkpt lat="41.2079167" lon="14.2797167"><ele>345.0</ele><time>2026-05-04T10:31:02.119Z</time></trkpt><trkpt lat="41.2079583" lon="14.2798083"><ele>345.0</ele><time>2026-05-04T10:31:05.122Z</time></trkpt><trkpt lat="41.2079983" lon="14.2799033"><ele>345.0</ele><time>2026-05-04T10:31:08.12Z</time></trkpt><trkpt lat="41.2080433" lon="14.2800017"><ele>345.0</ele><time>2026-05-04T10:31:11.121Z</time></trkpt><trkpt lat="41.2080883" lon="14.2801"><ele>345.0</ele><time>2026-05-04T10:31:14.121Z</time></trkpt><trkpt lat="41.2081383" lon="14.28019"><ele>345.0</ele><time>2026-05-04T10:31:17.123Z</time></trkpt><trkpt lat="41.2081967" lon="14.2802633"><ele>345.0</ele><time>2026-05-04T10:31:20.122Z</time></trkpt><trkpt lat="41.20826" lon="14.2803067"><ele>347.3333333333333</ele><time>2026-05-04T10:31:23.121Z</time></trkpt><trkpt lat="41.208335" lon="14.280345"><ele>349.6666666666667</ele><time>2026-05-04T10:31:26.118Z</time></trkpt><trkpt lat="41.2084067" lon="14.28035"><ele>352.0</ele><time>2026-05-04T10:31:29.121Z</time></trkpt><trkpt lat="41.2084767" lon="14.28036"><ele>354.33333333333337</ele><time>2026-05-04T10:31:32.12Z</time></trkpt><trkpt lat="41.20856" lon="14.28037"><ele>356.6666666666667</ele><time>2026-05-04T10:31:35.119Z</time></trkpt><trkpt lat="41.20864" lon="14.28038"><ele>359.0</ele><time>2026-05-04T10:31:38.123Z</time></trkpt><trkpt lat="41.20872" lon="14.2803817"><ele>359.0</ele><time>2026-05-04T10:31:41.122Z</time></trkpt><trkpt lat="41.208805" lon="14.2803867"><ele>359.0</ele><time>2026-05-04T10:31:44.12Z</time></trkpt><trkpt lat="41.2088833" lon="14.2803983"><ele>359.0</ele><time>2026-05-04T10:31:47.119Z</time></trkpt><trkpt lat="41.208965" lon="14.280405"><ele>359.0</ele><time>2026-05-04T10:31:50.12Z</time></trkpt><trkpt lat="41.2090283" lon="14.2804133"><ele>359.0</ele><time>2026-05-04T10:31:52.119Z</time></trkpt><trkpt lat="41.20912" lon="14.2804333"><ele>359.0</ele><time>2026-05-04T10:31:55.122Z</time></trkpt><trkpt lat="41.2091833" lon="14.2804483"><ele>360.2857142857143</ele><time>2026-05-04T10:31:57.118Z</time></trkpt><trkpt lat="41.2092767" lon="14.2804717"><ele>361.57142857142856</ele><time>2026-05-04T10:32:00.121Z</time></trkpt><trkpt lat="41.2093467" lon="14.28049"><ele>362.8571428571429</ele><time>2026-05-04T10:32:02.123Z</time></trkpt><trkpt lat="41.2094183" lon="14.2805083"><ele>364.1428571428571</ele><time>2026-05-04T10:32:04.121Z</time></trkpt><trkpt lat="41.2094867" lon="14.2805217"><ele>365.4285714285714</ele><time>2026-05-04T10:32:06.12Z</time></trkpt><trkpt lat="41.2095567" lon="14.2805383"><ele>366.7142857142857</ele><time>2026-05-04T10:32:08.121Z</time></trkpt><trkpt lat="41.2096217" lon="14.2805633"><ele>368.0</ele><time>2026-05-04T10:32:10.118Z</time></trkpt><trkpt lat="41.2096867" lon="14.2805883"><ele>368.0</ele><time>2026-05-04T10:32:12.122Z</time></trkpt><trkpt lat="41.2097467" lon="14.2806167"><ele>368.0</ele><time>2026-05-04T10:32:14.123Z</time></trkpt><trkpt lat="41.2098217" lon="14.2806633"><ele>368.0</ele><time>2026-05-04T10:32:17.121Z</time></trkpt><trkpt lat="41.2098917" lon="14.2807283"><ele>368.0</ele><time>2026-05-04T10:32:20.118Z</time></trkpt><trkpt lat="41.2099417" lon="14.2807817"><ele>368.0</ele><time>2026-05-04T10:32:22.119Z</time></trkpt><trkpt lat="41.2100133" lon="14.2808617"><ele>368.0</ele><time>2026-05-04T10:32:25.12Z</time></trkpt><trkpt lat="41.2100817" lon="14.2809417"><ele>368.0</ele><time>2026-05-04T10:32:28.121Z</time></trkpt><trkpt lat="41.2101433" lon="14.2810167"><ele>368.0</ele><time>2026-05-04T10:32:31.121Z</time></trkpt><trkpt lat="41.21021" lon="14.2811"><ele>368.0</ele><time>2026-05-04T10:32:34.123Z</time></trkpt><trkpt lat="41.210275" lon="14.2811867"><ele>368.0</ele><time>2026-05-04T10:32:37.118Z</time></trkpt><trkpt lat="41.21034" lon="14.281265"><ele>368.0</ele><time>2026-05-04T10:32:40.119Z</time></trkpt><trkpt lat="41.2104" lon="14.2813333"><ele>368.0</ele><time>2026-05-04T10:32:43.121Z</time></trkpt><trkpt lat="41.2104567" lon="14.2813967"><ele>366.6666666666667</ele><time>2026-05-04T10:32:46.121Z</time></trkpt><trkpt lat="41.210515" lon="14.2814633"><ele>365.33333333333337</ele><time>2026-05-04T10:32:49.122Z</time></trkpt><trkpt lat="41.210575" lon="14.2815333"><ele>364.0</ele><time>2026-05-04T10:32:52.121Z</time></trkpt><trkpt lat="41.21064" lon="14.281595"><ele>362.6666666666667</ele><time>2026-05-04T10:32:55.121Z</time></trkpt><trkpt lat="41.2107083" lon="14.2816583"><ele>361.3333333333333</ele><time>2026-05-04T10:32:58.12Z</time></trkpt><trkpt lat="41.2107817" lon="14.2817167"><ele>360.0</ele><time>2026-05-04T10:33:01.12Z</time></trkpt><trkpt lat="41.210835" lon="14.2817683"><ele>362.8333333333333</ele><time>2026-05-04T10:33:03.121Z</time></trkpt><trkpt lat="41.2109" lon="14.28184"><ele>365.6666666666667</ele><time>2026-05-04T10:33:06.119Z</time></trkpt><trkpt lat="41.21096" lon="14.2818817"><ele>368.5</ele><time>2026-05-04T10:33:09.119Z</time></trkpt><trkpt lat="41.211025" lon="14.2819283"><ele>371.33333333333337</ele><time>2026-05-04T10:33:12.118Z</time></trkpt><trkpt lat="41.21109" lon="14.281975"><ele>374.1666666666667</ele><time>2026-05-04T10:33:15.121Z</time></trkpt><trkpt lat="41.2111667" lon="14.2819983"><ele>377.0</ele><time>2026-05-04T10:33:18.122Z</time></trkpt><trkpt lat="41.21125" lon="14.2820367"><ele>377.0</ele><time>2026-05-04T10:33:21.121Z</time></trkpt><trkpt lat="41.2113183" lon="14.2820533"><ele>377.0</ele><time>2026-05-04T10:33:24.121Z</time></trkpt><trkpt lat="41.2113983" lon="14.282075"><ele>377.0</ele><time>2026-05-04T10:33:27.119Z</time></trkpt><trkpt lat="41.21147" lon="14.2821117"><ele>377.0</ele><time>2026-05-04T10:33:30.121Z</time></trkpt><trkpt lat="41.2115483" lon="14.2821467"><ele>377.0</ele><time>2026-05-04T10:33:33.12Z</time></trkpt><trkpt lat="41.211615" lon="14.2822067"><ele>377.0</ele><time>2026-05-04T10:33:36.121Z</time></trkpt><trkpt lat="41.2116883" lon="14.28227"><ele>377.57142857142856</ele><time>2026-05-04T10:33:39.118Z</time></trkpt><trkpt lat="41.2117367" lon="14.2823317"><ele>378.1428571428571</ele><time>2026-05-04T10:33:41.119Z</time></trkpt><trkpt lat="41.21178" lon="14.2823967"><ele>378.71428571428567</ele><time>2026-05-04T10:33:43.119Z</time></trkpt><trkpt lat="41.211825" lon="14.282465"><ele>379.2857142857143</ele><time>2026-05-04T10:33:45.12Z</time></trkpt><trkpt lat="41.2118667" lon="14.2825317"><ele>379.8571428571429</ele><time>2026-05-04T10:33:47.119Z</time></trkpt><trkpt lat="41.21191" lon="14.2825933"><ele>380.4285714285714</ele><time>2026-05-04T10:33:49.118Z</time></trkpt><trkpt lat="41.2119683" lon="14.2826867"><ele>381.0</ele><time>2026-05-04T10:33:52.119Z</time></trkpt><trkpt lat="41.2120283" lon="14.2827833"><ele>381.0</ele><time>2026-05-04T10:33:55.119Z</time></trkpt><trkpt lat="41.2120733" lon="14.28285"><ele>381.0</ele><time>2026-05-04T10:33:57.121Z</time></trkpt><trkpt lat="41.2121117" lon="14.28292"><ele>381.0</ele><time>2026-05-04T10:33:59.118Z</time></trkpt><trkpt lat="41.2121433" lon="14.2830033"><ele>381.0</ele><time>2026-05-04T10:34:01.119Z</time></trkpt><trkpt lat="41.2121833" lon="14.2830717"><ele>381.0</ele><time>2026-05-04T10:34:03.121Z</time></trkpt><trkpt lat="41.21223" lon="14.283175"><ele>381.0</ele><time>2026-05-04T10:34:06.122Z</time></trkpt><trkpt lat="41.2122633" lon="14.2832517"><ele>381.0</ele><time>2026-05-04T10:34:08.122Z</time></trkpt><trkpt lat="41.2122967" lon="14.2833317"><ele>382.57142857142856</ele><time>2026-05-04T10:34:10.123Z</time></trkpt><trkpt lat="41.212335" lon="14.2834017"><ele>384.14285714285717</ele><time>2026-05-04T10:34:12.121Z</time></trkpt><trkpt lat="41.2123783" lon="14.2834667"><ele>385.7142857142857</ele><time>2026-05-04T10:34:14.122Z</time></trkpt><trkpt lat="41.2124267" lon="14.2835267"><ele>387.2857142857143</ele><time>2026-05-04T10:34:16.122Z</time></trkpt><trkpt lat="41.2124883" lon="14.2835733"><ele>388.8571428571429</ele><time>2026-05-04T10:34:18.12Z</time></trkpt><trkpt lat="41.21258" lon="14.2836117"><ele>390.42857142857144</ele><time>2026-05-04T10:34:21.12Z</time></trkpt><trkpt lat="41.2126633" lon="14.2836167"><ele>392.0</ele><time>2026-05-04T10:34:23.12Z</time></trkpt><trkpt lat="41.2127367" lon="14.2836067"><ele>392.0</ele><time>2026-05-04T10:34:25.12Z</time></trkpt><trkpt lat="41.21281" lon="14.2835917"><ele>392.0</ele><time>2026-05-04T10:34:27.12Z</time></trkpt><trkpt lat="41.212885" lon="14.2835817"><ele>392.0</ele><time>2026-05-04T10:34:29.12Z</time></trkpt><trkpt lat="41.2129567" lon="14.283575"><ele>392.0</ele><time>2026-05-04T10:34:31.121Z</time></trkpt><trkpt lat="41.21303" lon="14.2835683"><ele>392.0</ele><time>2026-05-04T10:34:33.12Z</time></trkpt><trkpt lat="41.2131017" lon="14.283555"><ele>392.0</ele><time>2026-05-04T10:34:35.12Z</time></trkpt><trkpt lat="41.2131733" lon="14.283545"><ele>392.0</ele><time>2026-05-04T10:34:37.119Z</time></trkpt><trkpt lat="41.2132483" lon="14.2835317"><ele>392.57142857142856</ele><time>2026-05-04T10:34:39.12Z</time></trkpt><trkpt lat="41.2133183" lon="14.283525"><ele>393.1428571428571</ele><time>2026-05-04T10:34:41.12Z</time></trkpt><trkpt lat="41.2133867" lon="14.2835183"><ele>393.7142857142857</ele><time>2026-05-04T10:34:43.12Z</time></trkpt><trkpt lat="41.2134517" lon="14.2835117"><ele>394.2857142857143</ele><time>2026-05-04T10:34:45.12Z</time></trkpt><trkpt lat="41.2135233" lon="14.2835017"><ele>394.85714285714283</ele><time>2026-05-04T10:34:47.122Z</time></trkpt><trkpt lat="41.2135983" lon="14.2834883"><ele>395.42857142857144</ele><time>2026-05-04T10:34:49.12Z</time></trkpt><trkpt lat="41.2136717" lon="14.2834767"><ele>396.0</ele><time>2026-05-04T10:34:51.121Z</time></trkpt><trkpt lat="41.2137433" lon="14.2834617"><ele>396.0</ele><time>2026-05-04T10:34:53.118Z</time></trkpt><trkpt lat="41.2138117" lon="14.2834483"><ele>396.0</ele><time>2026-05-04T10:34:55.12Z</time></trkpt><trkpt lat="41.2138817" lon="14.283435"><ele>396.0</ele><time>2026-05-04T10:34:57.122Z</time></trkpt><trkpt lat="41.21395" lon="14.28342"><ele>396.0</ele><time>2026-05-04T10:34:59.12Z</time></trkpt><trkpt lat="41.2140167" lon="14.2834117"><ele>396.0</ele><time>2026-05-04T10:35:01.12Z</time></trkpt><trkpt lat="41.214085" lon="14.2834117"><ele>396.0</ele><time>2026-05-04T10:35:03.123Z</time></trkpt><trkpt lat="41.2141533" lon="14.2834217"><ele>396.0</ele><time>2026-05-04T10:35:05.122Z</time></trkpt><trkpt lat="41.2142167" lon="14.28343"><ele>396.2857142857143</ele><time>2026-05-04T10:35:07.12Z</time></trkpt><trkpt lat="41.2142867" lon="14.2834567"><ele>396.57142857142856</ele><time>2026-05-04T10:35:09.12Z</time></trkpt><trkpt lat="41.2143517" lon="14.283495"><ele>396.85714285714283</ele><time>2026-05-04T10:35:11.122Z</time></trkpt><trkpt lat="41.2144067" lon="14.28354"><ele>397.1428571428571</ele><time>2026-05-04T10:35:13.121Z</time></trkpt><trkpt lat="41.2144583" lon="14.2836"><ele>397.42857142857144</ele><time>2026-05-04T10:35:15.122Z</time></trkpt><trkpt lat="41.2145117" lon="14.2836717"><ele>397.71428571428567</ele><time>2026-05-04T10:35:17.12Z</time></trkpt><trkpt lat="41.2145633" lon="14.2837467"><ele>398.0</ele><time>2026-05-04T10:35:19.119Z</time></trkpt><trkpt lat="41.214615" lon="14.2838267"><ele>397.99999999999994</ele><time>2026-05-04T10:35:21.121Z</time></trkpt><trkpt lat="41.2146633" lon="14.28391"><ele>398.0</ele><time>2026-05-04T10:35:23.122Z</time></trkpt><trkpt lat="41.214705" lon="14.283985"><ele>398.0</ele><time>2026-05-04T10:35:25.123Z</time></trkpt><trkpt lat="41.2147483" lon="14.2840633"><ele>398.0</ele><time>2026-05-04T10:35:27.12Z</time></trkpt><trkpt lat="41.2148" lon="14.2841367"><ele>398.0</ele><time>2026-05-04T10:35:29.119Z</time></trkpt><trkpt lat="41.2148483" lon="14.28421"><ele>397.99999999999994</ele><time>2026-05-04T10:35:31.121Z</time></trkpt><trkpt lat="41.2148983" lon="14.2842867"><ele>398.0</ele><time>2026-05-04T10:35:33.12Z</time></trkpt><trkpt lat="41.214955" lon="14.28434"><ele>398.49999999999994</ele><time>2026-05-04T10:35:35.12Z</time></trkpt><trkpt lat="41.2150233" lon="14.2843783"><ele>399.0</ele><time>2026-05-04T10:35:37.12Z</time></trkpt><trkpt lat="41.215095" lon="14.284395"><ele>399.5</ele><time>2026-05-04T10:35:39.121Z</time></trkpt><trkpt lat="41.215175" lon="14.28439"><ele>400.0</ele><time>2026-05-04T10:35:41.122Z</time></trkpt><trkpt lat="41.2152533" lon="14.28436"><ele>400.49999999999994</ele><time>2026-05-04T10:35:43.121Z</time></trkpt><trkpt lat="41.2153233" lon="14.2843133"><ele>401.0</ele><time>2026-05-04T10:35:45.122Z</time></trkpt><trkpt lat="41.2153917" lon="14.2842667"><ele>401.0</ele><time>2026-05-04T10:35:47.119Z</time></trkpt><trkpt lat="41.2154567" lon="14.2842133"><ele>401.0</ele><time>2026-05-04T10:35:49.12Z</time></trkpt><trkpt lat="41.2155167" lon="14.284155"><ele>401.0</ele><time>2026-05-04T10:35:51.121Z</time></trkpt><trkpt lat="41.2155717" lon="14.2841"><ele>401.0</ele><time>2026-05-04T10:35:53.121Z</time></trkpt><trkpt lat="41.2156233" lon="14.28405"><ele>401.0</ele><time>2026-05-04T10:35:55.122Z</time></trkpt><trkpt lat="41.2156767" lon="14.2840017"><ele>401.0</ele><time>2026-05-04T10:35:57.122Z</time></trkpt><trkpt lat="41.2157317" lon="14.2839517"><ele>401.0</ele><time>2026-05-04T10:35:59.121Z</time></trkpt><trkpt lat="41.2157833" lon="14.2839033"><ele>402.57142857142856</ele><time>2026-05-04T10:36:01.121Z</time></trkpt><trkpt lat="41.2158417" lon="14.2838617"><ele>404.14285714285717</ele><time>2026-05-04T10:36:03.121Z</time></trkpt><trkpt lat="41.2158983" lon="14.283815"><ele>405.71428571428567</ele><time>2026-05-04T10:36:05.12Z</time></trkpt><trkpt lat="41.2159533" lon="14.2837617"><ele>407.2857142857143</ele><time>2026-05-04T10:36:07.121Z</time></trkpt><trkpt lat="41.2160083" lon="14.283705"><ele>408.85714285714283</ele><time>2026-05-04T10:36:09.12Z</time></trkpt><trkpt lat="41.2160617" lon="14.28365"><ele>410.4285714285714</ele><time>2026-05-04T10:36:11.124Z</time></trkpt><trkpt lat="41.21611" lon="14.2835917"><ele>412.0</ele><time>2026-05-04T10:36:13.121Z</time></trkpt><trkpt lat="41.2161617" lon="14.283535"><ele>412.00000000000006</ele><time>2026-05-04T10:36:15.122Z</time></trkpt><trkpt lat="41.2162083" lon="14.2834733"><ele>412.0</ele><time>2026-05-04T10:36:17.12Z</time></trkpt><trkpt lat="41.216275" lon="14.28339"><ele>412.0</ele><time>2026-05-04T10:36:20.118Z</time></trkpt><trkpt lat="41.2163233" lon="14.2833217"><ele>412.0</ele><time>2026-05-04T10:36:22.118Z</time></trkpt><trkpt lat="41.216375" lon="14.2832433"><ele>412.00000000000006</ele><time>2026-05-04T10:36:24.118Z</time></trkpt><trkpt lat="41.21644" lon="14.283195"><ele>412.0</ele><time>2026-05-04T10:36:26.119Z</time></trkpt><trkpt lat="41.2165033" lon="14.2831417"><ele>411.85714285714283</ele><time>2026-05-04T10:36:28.119Z</time></trkpt><trkpt lat="41.2165683" lon="14.2831033"><ele>411.7142857142857</ele><time>2026-05-04T10:36:30.119Z</time></trkpt><trkpt lat="41.2166333" lon="14.2830667"><ele>411.57142857142856</ele><time>2026-05-04T10:36:32.118Z</time></trkpt><trkpt lat="41.2167033" lon="14.2830383"><ele>411.42857142857144</ele><time>2026-05-04T10:36:34.117Z</time></trkpt><trkpt lat="41.2167833" lon="14.2830117"><ele>411.2857142857143</ele><time>2026-05-04T10:36:36.119Z</time></trkpt><trkpt lat="41.2168467" lon="14.282965"><ele>411.1428571428571</ele><time>2026-05-04T10:36:38.121Z</time></trkpt><trkpt lat="41.2169033" lon="14.2829067"><ele>411.0</ele><time>2026-05-04T10:36:40.118Z</time></trkpt><trkpt lat="41.2169583" lon="14.2828367"><ele>412.0</ele><time>2026-05-04T10:36:42.121Z</time></trkpt><trkpt lat="41.2169933" lon="14.282755"><ele>413.0</ele><time>2026-05-04T10:36:44.122Z</time></trkpt><trkpt lat="41.2170367" lon="14.2826817"><ele>414.0</ele><time>2026-05-04T10:36:46.118Z</time></trkpt><trkpt lat="41.217085" lon="14.2826117"><ele>415.0</ele><time>2026-05-04T10:36:48.12Z</time></trkpt><trkpt lat="41.2171283" lon="14.28255"><ele>416.0</ele><time>2026-05-04T10:36:50.119Z</time></trkpt><trkpt lat="41.2171817" lon="14.28246"><ele>417.0</ele><time>2026-05-04T10:36:53.12Z</time></trkpt><trkpt lat="41.2172233" lon="14.2823733"><ele>418.0</ele><time>2026-05-04T10:36:56.121Z</time></trkpt><trkpt lat="41.2172583" lon="14.282295"><ele>418.33333333333337</ele><time>2026-05-04T10:36:59.12Z</time></trkpt><trkpt lat="41.217295" lon="14.282215"><ele>418.6666666666667</ele><time>2026-05-04T10:37:02.118Z</time></trkpt><trkpt lat="41.2173283" lon="14.2821267"><ele>419.0</ele><time>2026-05-04T10:37:05.118Z</time></trkpt><trkpt lat="41.2173667" lon="14.2820283"><ele>419.33333333333337</ele><time>2026-05-04T10:37:08.121Z</time></trkpt><trkpt lat="41.2174333" lon="14.2819317"><ele>419.6666666666667</ele><time>2026-05-04T10:37:11.119Z</time></trkpt><trkpt lat="41.2174983" lon="14.2818783"><ele>420.0</ele><time>2026-05-04T10:37:13.123Z</time></trkpt><trkpt lat="41.21758" lon="14.2818533"><ele>420.0</ele><time>2026-05-04T10:37:16.118Z</time></trkpt><trkpt lat="41.217675" lon="14.2818417"><ele>420.0</ele><time>2026-05-04T10:37:19.118Z</time></trkpt><trkpt lat="41.2177667" lon="14.2818267"><ele>420.0</ele><time>2026-05-04T10:37:22.118Z</time></trkpt><trkpt lat="41.2178567" lon="14.2818117"><ele>420.0</ele><time>2026-05-04T10:37:25.121Z</time></trkpt><trkpt lat="41.2179417" lon="14.281795"><ele>420.0</ele><time>2026-05-04T10:37:28.12Z</time></trkpt><trkpt lat="41.2180183" lon="14.281755"><ele>420.0</ele><time>2026-05-04T10:37:31.119Z</time></trkpt><trkpt lat="41.2180867" lon="14.28171"><ele>420.0</ele><time>2026-05-04T10:37:34.119Z</time></trkpt><trkpt lat="41.2181467" lon="14.281625"><ele>420.0</ele><time>2026-05-04T10:37:37.118Z</time></trkpt><trkpt lat="41.2181833" lon="14.2815517"><ele>420.0</ele><time>2026-05-04T10:37:39.12Z</time></trkpt><trkpt lat="41.21823" lon="14.2814767"><ele>420.0</ele><time>2026-05-04T10:37:41.118Z</time></trkpt><trkpt lat="41.2182883" lon="14.2813833"><ele>420.0</ele><time>2026-05-04T10:37:44.12Z</time></trkpt><trkpt lat="41.2183217" lon="14.2813117"><ele>420.0</ele><time>2026-05-04T10:37:46.119Z</time></trkpt><trkpt lat="41.2183667" lon="14.281245"><ele>420.0</ele><time>2026-05-04T10:37:48.12Z</time></trkpt><trkpt lat="41.218405" lon="14.2811733"><ele>421.3333333333333</ele><time>2026-05-04T10:37:50.119Z</time></trkpt><trkpt lat="41.21845" lon="14.2811083"><ele>422.66666666666663</ele><time>2026-05-04T10:37:52.119Z</time></trkpt><trkpt lat="41.2184983" lon="14.2810383"><ele>424.0</ele><time>2026-05-04T10:37:54.121Z</time></trkpt><trkpt lat="41.21855" lon="14.28098"><ele>425.3333333333333</ele><time>2026-05-04T10:37:56.121Z</time></trkpt><trkpt lat="41.2186067" lon="14.28093"><ele>426.66666666666663</ele><time>2026-05-04T10:37:58.119Z</time></trkpt><trkpt lat="41.2186817" lon="14.280865"><ele>428.0</ele><time>2026-05-04T10:38:01.123Z</time></trkpt><trkpt lat="41.2187667" lon="14.280805"><ele>428.00000000000006</ele><time>2026-05-04T10:38:04.121Z</time></trkpt><trkpt lat="41.2188317" lon="14.280775"><ele>428.0</ele><time>2026-05-04T10:38:06.119Z</time></trkpt><trkpt lat="41.2188917" lon="14.280735"><ele>428.0</ele><time>2026-05-04T10:38:08.12Z</time></trkpt><trkpt lat="41.218955" lon="14.2806933"><ele>428.0</ele><time>2026-05-04T10:38:10.118Z</time></trkpt><trkpt lat="41.219015" lon="14.280645"><ele>428.0</ele><time>2026-05-04T10:38:12.121Z</time></trkpt><trkpt lat="41.2190817" lon="14.2805917"><ele>428.00000000000006</ele><time>2026-05-04T10:38:14.12Z</time></trkpt><trkpt lat="41.21914" lon="14.2805317"><ele>428.0</ele><time>2026-05-04T10:38:16.12Z</time></trkpt><trkpt lat="41.21918" lon="14.28045"><ele>428.42857142857144</ele><time>2026-05-04T10:38:18.121Z</time></trkpt><trkpt lat="41.2192017" lon="14.2803583"><ele>428.8571428571429</ele><time>2026-05-04T10:38:20.118Z</time></trkpt><trkpt lat="41.2192183" lon="14.2802717"><ele>429.28571428571433</ele><time>2026-05-04T10:38:22.118Z</time></trkpt><trkpt lat="41.2192167" lon="14.2801833"><ele>429.7142857142857</ele><time>2026-05-04T10:38:24.12Z</time></trkpt><trkpt lat="41.21921" lon="14.2800983"><ele>430.1428571428571</ele><time>2026-05-04T10:38:26.12Z</time></trkpt><trkpt lat="41.2192017" lon="14.2800117"><ele>430.5714285714286</ele><time>2026-05-04T10:38:28.118Z</time></trkpt><trkpt lat="41.219195" lon="14.279925"><ele>431.0</ele><time>2026-05-04T10:38:30.121Z</time></trkpt><trkpt lat="41.2191917" lon="14.27981"><ele>431.8333333333333</ele><time>2026-05-04T10:38:33.121Z</time></trkpt><trkpt lat="41.219195" lon="14.279725"><ele>432.66666666666663</ele><time>2026-05-04T10:38:35.121Z</time></trkpt><trkpt lat="41.2191967" lon="14.2796067"><ele>433.5</ele><time>2026-05-04T10:38:38.122Z</time></trkpt><trkpt lat="41.21919" lon="14.2794967"><ele>434.33333333333337</ele><time>2026-05-04T10:38:42.123Z</time></trkpt><trkpt lat="41.21919" lon="14.2794"><ele>435.1666666666667</ele><time>2026-05-04T10:38:45.121Z</time></trkpt><trkpt lat="41.2192067" lon="14.27929"><ele>436.0</ele><time>2026-05-04T10:38:48.118Z</time></trkpt><trkpt lat="41.219235" lon="14.2791817"><ele>436.00000000000006</ele><time>2026-05-04T10:38:51.118Z</time></trkpt><trkpt lat="41.2192633" lon="14.2791067"><ele>436.0</ele><time>2026-05-04T10:38:53.118Z</time></trkpt><trkpt lat="41.2193067" lon="14.2790067"><ele>436.0</ele><time>2026-05-04T10:38:56.12Z</time></trkpt><trkpt lat="41.2193483" lon="14.2789083"><ele>436.0</ele><time>2026-05-04T10:38:59.12Z</time></trkpt><trkpt lat="41.2193967" lon="14.2788117"><ele>436.00000000000006</ele><time>2026-05-04T10:39:02.12Z</time></trkpt><trkpt lat="41.2194383" lon="14.2787133"><ele>436.0</ele><time>2026-05-04T10:39:05.12Z</time></trkpt><trkpt lat="41.219475" lon="14.2786167"><ele>437.0</ele><time>2026-05-04T10:39:08.122Z</time></trkpt><trkpt lat="41.219525" lon="14.2785167"><ele>438.0</ele><time>2026-05-04T10:39:11.121Z</time></trkpt><trkpt lat="41.2195683" lon="14.2784117"><ele>439.0</ele><time>2026-05-04T10:39:14.12Z</time></trkpt><trkpt lat="41.2196267" lon="14.2783167"><ele>440.0</ele><time>2026-05-04T10:39:17.123Z</time></trkpt><trkpt lat="41.2196933" lon="14.2782267"><ele>441.0</ele><time>2026-05-04T10:39:20.121Z</time></trkpt><trkpt lat="41.21978" lon="14.27818"><ele>440.6666666666667</ele><time>2026-05-04T10:39:23.121Z</time></trkpt><trkpt lat="41.21986" lon="14.2781533"><ele>440.33333333333337</ele><time>2026-05-04T10:39:26.118Z</time></trkpt><trkpt lat="41.2199483" lon="14.2781383"><ele>440.0</ele><time>2026-05-04T10:39:29.12Z</time></trkpt><trkpt lat="41.2200367" lon="14.2781417"><ele>439.6666666666667</ele><time>2026-05-04T10:39:32.12Z</time></trkpt><trkpt lat="41.220125" lon="14.2781533"><ele>439.33333333333337</ele><time>2026-05-04T10:39:35.12Z</time></trkpt><trkpt lat="41.220205" lon="14.2781683"><ele>439.0</ele><time>2026-05-04T10:39:38.119Z</time></trkpt><trkpt lat="41.2202733" lon="14.2781933"><ele>439.00000000000006</ele><time>2026-05-04T10:39:41.119Z</time></trkpt><trkpt lat="41.2203517" lon="14.2782"><ele>439.0</ele><time>2026-05-04T10:39:44.118Z</time></trkpt><trkpt lat="41.2204317" lon="14.2782167"><ele>439.0</ele><time>2026-05-04T10:39:47.118Z</time></trkpt><trkpt lat="41.2205133" lon="14.27824"><ele>439.0</ele><time>2026-05-04T10:39:50.12Z</time></trkpt><trkpt lat="41.2205983" lon="14.2782683"><ele>439.00000000000006</ele><time>2026-05-04T10:39:53.119Z</time></trkpt><trkpt lat="41.2206833" lon="14.2783083"><ele>439.0</ele><time>2026-05-04T10:39:56.119Z</time></trkpt><trkpt lat="41.220765" lon="14.27834"><ele>440.33333333333337</ele><time>2026-05-04T10:39:59.118Z</time></trkpt><trkpt lat="41.2208483" lon="14.278365"><ele>441.6666666666667</ele><time>2026-05-04T10:40:02.12Z</time></trkpt><trkpt lat="41.2209317" lon="14.2783983"><ele>443.0</ele><time>2026-05-04T10:40:05.12Z</time></trkpt><trkpt lat="41.2210133" lon="14.278425"><ele>444.33333333333337</ele><time>2026-05-04T10:40:08.12Z</time></trkpt><trkpt lat="41.22109" lon="14.2784567"><ele>445.6666666666667</ele><time>2026-05-04T10:40:11.12Z</time></trkpt><trkpt lat="41.2211617" lon="14.278495"><ele>447.0</ele><time>2026-05-04T10:40:14.119Z</time></trkpt><trkpt lat="41.2212267" lon="14.2785233"><ele>447.0</ele><time>2026-05-04T10:40:16.12Z</time></trkpt><trkpt lat="41.2212883" lon="14.2785567"><ele>447.0</ele><time>2026-05-04T10:40:18.12Z</time></trkpt><trkpt lat="41.22134" lon="14.2786083"><ele>447.0</ele><time>2026-05-04T10:40:20.118Z</time></trkpt><trkpt lat="41.22141" lon="14.2786817"><ele>447.0</ele><time>2026-05-04T10:40:23.119Z</time></trkpt><trkpt lat="41.22147" lon="14.2787767"><ele>447.0</ele><time>2026-05-04T10:40:26.121Z</time></trkpt><trkpt lat="41.2215067" lon="14.2788917"><ele>447.0</ele><time>2026-05-04T10:40:29.119Z</time></trkpt><trkpt lat="41.2215333" lon="14.2789733"><ele>447.71428571428567</ele><time>2026-05-04T10:40:31.119Z</time></trkpt><trkpt lat="41.221565" lon="14.27906"><ele>448.42857142857144</ele><time>2026-05-04T10:40:33.12Z</time></trkpt><trkpt lat="41.2215833" lon="14.2791433"><ele>449.1428571428571</ele><time>2026-05-04T10:40:35.122Z</time></trkpt><trkpt lat="41.2216033" lon="14.279225"><ele>449.85714285714283</ele><time>2026-05-04T10:40:37.123Z</time></trkpt><trkpt lat="41.22163" lon="14.27931"><ele>450.57142857142856</ele><time>2026-05-04T10:40:39.12Z</time></trkpt><trkpt lat="41.2216517" lon="14.2793983"><ele>451.2857142857143</ele><time>2026-05-04T10:40:41.12Z</time></trkpt><trkpt lat="41.2216933" lon="14.27948"><ele>452.0</ele><time>2026-05-04T10:40:43.121Z</time></trkpt><trkpt lat="41.2217383" lon="14.27956"><ele>452.0</ele><time>2026-05-04T10:40:45.119Z</time></trkpt><trkpt lat="41.221785" lon="14.2796267"><ele>452.0</ele><time>2026-05-04T10:40:47.12Z</time></trkpt><trkpt lat="41.2218367" lon="14.2796867"><ele>452.0</ele><time>2026-05-04T10:40:49.12Z</time></trkpt><trkpt lat="41.2218967" lon="14.2797383"><ele>452.0</ele><time>2026-05-04T10:40:51.121Z</time></trkpt><trkpt lat="41.2219567" lon="14.279775"><ele>452.0</ele><time>2026-05-04T10:40:53.121Z</time></trkpt><trkpt lat="41.22203" lon="14.27982"><ele>452.0</ele><time>2026-05-04T10:40:56.121Z</time></trkpt><trkpt lat="41.2220933" lon="14.279855"><ele>452.0</ele><time>2026-05-04T10:40:59.12Z</time></trkpt><trkpt lat="41.2221717" lon="14.279885"><ele>451.8333333333333</ele><time>2026-05-04T10:41:02.123Z</time></trkpt><trkpt lat="41.2222583" lon="14.279925"><ele>451.66666666666663</ele><time>2026-05-04T10:41:05.12Z</time></trkpt><trkpt lat="41.2223183" lon="14.2799583"><ele>451.5</ele><time>2026-05-04T10:41:07.119Z</time></trkpt><trkpt lat="41.2224067" lon="14.280005"><ele>451.33333333333337</ele><time>2026-05-04T10:41:10.118Z</time></trkpt><trkpt lat="41.2224817" lon="14.28007"><ele>451.1666666666667</ele><time>2026-05-04T10:41:13.118Z</time></trkpt><trkpt lat="41.22255" lon="14.2801567"><ele>451.0</ele><time>2026-05-04T10:41:16.118Z</time></trkpt><trkpt lat="41.2226133" lon="14.2802467"><ele>452.1666666666667</ele><time>2026-05-04T10:41:19.119Z</time></trkpt><trkpt lat="41.222665" lon="14.2803433"><ele>453.33333333333337</ele><time>2026-05-04T10:41:22.118Z</time></trkpt><trkpt lat="41.2227083" lon="14.2804517"><ele>454.5</ele><time>2026-05-04T10:41:25.119Z</time></trkpt><trkpt lat="41.2227317" lon="14.2805367"><ele>455.66666666666663</ele><time>2026-05-04T10:41:27.118Z</time></trkpt><trkpt lat="41.222745" lon="14.2806217"><ele>456.8333333333333</ele><time>2026-05-04T10:41:29.118Z</time></trkpt><trkpt lat="41.2227617" lon="14.2807383"><ele>458.0</ele><time>2026-05-04T10:41:32.12Z</time></trkpt><trkpt lat="41.2227683" lon="14.2808317"><ele>460.0</ele><time>2026-05-04T10:41:35.119Z</time></trkpt><trkpt lat="41.22277" lon="14.2809383"><ele>460.0</ele><time>2026-05-04T10:41:39.118Z</time></trkpt><trkpt lat="41.222835" lon="14.280945"><ele>460.0</ele><time>2026-05-04T10:41:45.12Z</time></trkpt><trkpt lat="41.222885" lon="14.2808883"><ele>460.0</ele><time>2026-05-04T10:43:11.121Z</time></trkpt></trkseg><trkseg><trkpt lat="41.2228292" lon="14.2810463"><ele>460.00000000000006</ele><time>2026-05-04T10:54:31.496Z</time></trkpt><trkpt lat="41.2227556" lon="14.2811385"><ele>460.0</ele><time>2026-05-04T10:54:35.405Z</time></trkpt><trkpt lat="41.2226921" lon="14.2812183"><ele>460.0</ele><time>2026-05-04T10:54:39.426Z</time></trkpt><trkpt lat="41.2226202" lon="14.2812851"><ele>460.0</ele><time>2026-05-04T10:54:41.51Z</time></trkpt><trkpt lat="41.2225601" lon="14.2813554"><ele>460.00000000000006</ele><time>2026-05-04T10:54:43.83Z</time></trkpt><trkpt lat="41.2225114" lon="14.2814386"><ele>460.0</ele><time>2026-05-04T10:54:46.228Z</time></trkpt><trkpt lat="41.2224753" lon="14.2815193"><ele>458.50000000000006</ele><time>2026-05-04T10:54:47.469Z</time></trkpt><trkpt lat="41.2224359" lon="14.2816061"><ele>457.0</ele><time>2026-05-04T10:54:49.491Z</time></trkpt><trkpt lat="41.222416" lon="14.2816928"><ele>455.5</ele><time>2026-05-04T10:54:51.512Z</time></trkpt><trkpt lat="41.2223894" lon="14.2817995"><ele>454.0</ele><time>2026-05-04T10:54:54.443Z</time></trkpt><trkpt lat="41.2223581" lon="14.2818911"><ele>452.50000000000006</ele><time>2026-05-04T10:54:57.408Z</time></trkpt><trkpt lat="41.2223204" lon="14.2819934"><ele>451.0</ele><time>2026-05-04T10:55:00.505Z</time></trkpt><trkpt lat="41.222285" lon="14.2820883"><ele>451.00000000000006</ele><time>2026-05-04T10:55:03.405Z</time></trkpt><trkpt lat="41.2222667" lon="14.28221"><ele>451.0</ele><time>2026-05-04T10:55:06.404Z</time></trkpt><trkpt lat="41.2222867" lon="14.2823233"><ele>451.0</ele><time>2026-05-04T10:55:09.405Z</time></trkpt><trkpt lat="41.2223433" lon="14.2824167"><ele>451.0</ele><time>2026-05-04T10:55:12.404Z</time></trkpt><trkpt lat="41.2224067" lon="14.2824983"><ele>451.00000000000006</ele><time>2026-05-04T10:55:15.402Z</time></trkpt><trkpt lat="41.2224683" lon="14.2825833"><ele>451.0</ele><time>2026-05-04T10:55:18.404Z</time></trkpt><trkpt lat="41.22251" lon="14.28265"><ele>455.00000000000006</ele><time>2026-05-04T10:55:20.402Z</time></trkpt><trkpt lat="41.2225667" lon="14.2827367"><ele>459.0</ele><time>2026-05-04T10:55:23.405Z</time></trkpt><trkpt lat="41.2226017" lon="14.2828433"><ele>463.0</ele><time>2026-05-04T10:55:26.404Z</time></trkpt><trkpt lat="41.22257" lon="14.2829383"><ele>467.0</ele><time>2026-05-04T10:55:29.404Z</time></trkpt><trkpt lat="41.2225183" lon="14.2830217"><ele>471.00000000000006</ele><time>2026-05-04T10:55:32.404Z</time></trkpt><trkpt lat="41.2224583" lon="14.2831133"><ele>475.0</ele><time>2026-05-04T10:55:35.405Z</time></trkpt><trkpt lat="41.2224017" lon="14.2832067"><ele>475.0</ele><time>2026-05-04T10:55:38.403Z</time></trkpt><trkpt lat="41.2224033" lon="14.2832983"><ele>475.00000000000006</ele><time>2026-05-04T10:55:40.403Z</time></trkpt><trkpt lat="41.2224183" lon="14.2833883"><ele>475.0</ele><time>2026-05-04T10:55:42.404Z</time></trkpt><trkpt lat="41.222435" lon="14.2834933"><ele>475.0</ele><time>2026-05-04T10:55:44.405Z</time></trkpt><trkpt lat="41.22244" lon="14.2835867"><ele>475.00000000000006</ele><time>2026-05-04T10:55:46.403Z</time></trkpt><trkpt lat="41.222465" lon="14.283675"><ele>475.0</ele><time>2026-05-04T10:55:48.404Z</time></trkpt><trkpt lat="41.2224933" lon="14.283775"><ele>475.0</ele><time>2026-05-04T10:55:50.412Z</time></trkpt><trkpt lat="41.2225167" lon="14.28388"><ele>474.6</ele><time>2026-05-04T10:55:52.407Z</time></trkpt><trkpt lat="41.222545" lon="14.2839767"><ele>474.2</ele><time>2026-05-04T10:55:54.411Z</time></trkpt><trkpt lat="41.2226067" lon="14.28415"><ele>473.79999999999995</ele><time>2026-05-04T10:55:58.404Z</time></trkpt><trkpt lat="41.22263" lon="14.2842367"><ele>473.4</ele><time>2026-05-04T10:56:00.404Z</time></trkpt><trkpt lat="41.2226283" lon="14.2843467"><ele>473.0</ele><time>2026-05-04T10:56:02.403Z</time></trkpt><trkpt lat="41.222615" lon="14.2844583"><ele>473.0</ele><time>2026-05-04T10:56:04.411Z</time></trkpt><trkpt lat="41.2226067" lon="14.28458"><ele>472.99999999999994</ele><time>2026-05-04T10:56:06.403Z</time></trkpt><trkpt lat="41.2226033" lon="14.284705"><ele>472.99999999999994</ele><time>2026-05-04T10:56:08.402Z</time></trkpt><trkpt lat="41.22261" lon="14.2848467"><ele>473.0</ele><time>2026-05-04T10:56:10.404Z</time></trkpt><trkpt lat="41.2226133" lon="14.284985"><ele>473.0</ele><time>2026-05-04T10:56:12.402Z</time></trkpt><trkpt lat="41.2226283" lon="14.2851217"><ele>473.0</ele><time>2026-05-04T10:56:14.402Z</time></trkpt><trkpt lat="41.2226467" lon="14.28526"><ele>473.0</ele><time>2026-05-04T10:56:16.403Z</time></trkpt><trkpt lat="41.22271" lon="14.285395"><ele>473.0</ele><time>2026-05-04T10:56:18.403Z</time></trkpt><trkpt lat="41.2227917" lon="14.28552"><ele>473.0</ele><time>2026-05-04T10:56:20.403Z</time></trkpt><trkpt lat="41.2228867" lon="14.28564"><ele>473.49999999999994</ele><time>2026-05-04T10:56:22.404Z</time></trkpt><trkpt lat="41.22293" lon="14.2857033"><ele>474.0</ele><time>2026-05-04T10:56:23.405Z</time></trkpt><trkpt lat="41.223005" lon="14.2858333"><ele>474.5</ele><time>2026-05-04T10:56:25.405Z</time></trkpt><trkpt lat="41.2230483" lon="14.2858983"><ele>475.0</ele><time>2026-05-04T10:56:26.402Z</time></trkpt><trkpt lat="41.2230917" lon="14.28597"><ele>475.49999999999994</ele><time>2026-05-04T10:56:27.404Z</time></trkpt><trkpt lat="41.223135" lon="14.2860383"><ele>476.0</ele><time>2026-05-04T10:56:28.404Z</time></trkpt><trkpt lat="41.223175" lon="14.286105"><ele>474.6</ele><time>2026-05-04T10:56:29.404Z</time></trkpt><trkpt lat="41.2232167" lon="14.28617"><ele>473.20000000000005</ele><time>2026-05-04T10:56:30.404Z</time></trkpt><trkpt lat="41.22329" lon="14.2862983"><ele>471.79999999999995</ele><time>2026-05-04T10:56:32.405Z</time></trkpt><trkpt lat="41.223335" lon="14.2863617"><ele>470.4</ele><time>2026-05-04T10:56:33.403Z</time></trkpt><trkpt lat="41.2234083" lon="14.2864817"><ele>469.0</ele><time>2026-05-04T10:56:35.406Z</time></trkpt><trkpt lat="41.22349" lon="14.2866033"><ele>469.0</ele><time>2026-05-04T10:56:37.404Z</time></trkpt><trkpt lat="41.22356" lon="14.2867217"><ele>469.0</ele><time>2026-05-04T10:56:39.406Z</time></trkpt><trkpt lat="41.223625" lon="14.28684"><ele>469.0</ele><time>2026-05-04T10:56:41.402Z</time></trkpt><trkpt lat="41.2236933" lon="14.2869683"><ele>469.0</ele><time>2026-05-04T10:56:43.405Z</time></trkpt><trkpt lat="41.2237583" lon="14.2870883"><ele>469.0</ele><time>2026-05-04T10:56:45.404Z</time></trkpt><trkpt lat="41.223825" lon="14.287195"><ele>469.0</ele><time>2026-05-04T10:56:47.403Z</time></trkpt><trkpt lat="41.2238917" lon="14.2873"><ele>469.0</ele><time>2026-05-04T10:56:49.405Z</time></trkpt><trkpt lat="41.22395" lon="14.28741"><ele>469.0</ele><time>2026-05-04T10:56:51.418Z</time></trkpt><trkpt lat="41.224035" lon="14.28752"><ele>469.0</ele><time>2026-05-04T10:56:53.403Z</time></trkpt><trkpt lat="41.2240883" lon="14.287635"><ele>468.6</ele><time>2026-05-04T10:56:55.407Z</time></trkpt><trkpt lat="41.22413" lon="14.287755"><ele>468.2</ele><time>2026-05-04T10:56:57.405Z</time></trkpt><trkpt lat="41.22418" lon="14.2878717"><ele>467.80000000000007</ele><time>2026-05-04T10:56:59.403Z</time></trkpt><trkpt lat="41.2242417" lon="14.28799"><ele>467.40000000000003</ele><time>2026-05-04T10:57:01.404Z</time></trkpt><trkpt lat="41.2243067" lon="14.2881083"><ele>467.0</ele><time>2026-05-04T10:57:03.404Z</time></trkpt><trkpt lat="41.2243683" lon="14.288225"><ele>467.0</ele><time>2026-05-04T10:57:05.403Z</time></trkpt><trkpt lat="41.2244333" lon="14.2883367"><ele>467.0</ele><time>2026-05-04T10:57:07.405Z</time></trkpt><trkpt lat="41.2244983" lon="14.288455"><ele>467.0</ele><time>2026-05-04T10:57:09.405Z</time></trkpt><trkpt lat="41.2245633" lon="14.2885867"><ele>467.0</ele><time>2026-05-04T10:57:11.404Z</time></trkpt><trkpt lat="41.224635" lon="14.288715"><ele>467.0</ele><time>2026-05-04T10:57:13.404Z</time></trkpt><trkpt lat="41.224715" lon="14.2888467"><ele>467.00000000000006</ele><time>2026-05-04T10:57:15.404Z</time></trkpt><trkpt lat="41.2247517" lon="14.2889183"><ele>467.00000000000006</ele><time>2026-05-04T10:57:16.405Z</time></trkpt><trkpt lat="41.2247867" lon="14.2889883"><ele>467.0</ele><time>2026-05-04T10:57:17.405Z</time></trkpt><trkpt lat="41.2248617" lon="14.2891167"><ele>467.0</ele><time>2026-05-04T10:57:19.407Z</time></trkpt><trkpt lat="41.22494" lon="14.2892333"><ele>466.5</ele><time>2026-05-04T10:57:21.404Z</time></trkpt><trkpt lat="41.2250267" lon="14.289345"><ele>466.0</ele><time>2026-05-04T10:57:23.407Z</time></trkpt><trkpt lat="41.2251167" lon="14.2894483"><ele>465.5</ele><time>2026-05-04T10:57:25.404Z</time></trkpt><trkpt lat="41.2252" lon="14.289555"><ele>465.0</ele><time>2026-05-04T10:57:27.404Z</time></trkpt><trkpt lat="41.225285" lon="14.2896333"><ele>465.0</ele><time>2026-05-04T10:57:29.407Z</time></trkpt><trkpt lat="41.225375" lon="14.2896817"><ele>465.0</ele><time>2026-05-04T10:57:31.404Z</time></trkpt><trkpt lat="41.225465" lon="14.2897083"><ele>465.0</ele><time>2026-05-04T10:57:33.404Z</time></trkpt><trkpt lat="41.22555" lon="14.2896883"><ele>465.0</ele><time>2026-05-04T10:57:35.407Z</time></trkpt><trkpt lat="41.225625" lon="14.2896433"><ele>465.0</ele><time>2026-05-04T10:57:37.406Z</time></trkpt><trkpt lat="41.2256967" lon="14.2896017"><ele>465.0</ele><time>2026-05-04T10:57:39.403Z</time></trkpt><trkpt lat="41.22577" lon="14.2895883"><ele>464.8333333333333</ele><time>2026-05-04T10:57:41.406Z</time></trkpt><trkpt lat="41.2258383" lon="14.2895967"><ele>464.66666666666663</ele><time>2026-05-04T10:57:43.406Z</time></trkpt><trkpt lat="41.22591" lon="14.289675"><ele>464.5</ele><time>2026-05-04T10:57:46.406Z</time></trkpt><trkpt lat="41.2259567" lon="14.2897483"><ele>464.3333333333333</ele><time>2026-05-04T10:57:48.407Z</time></trkpt><trkpt lat="41.2260183" lon="14.2898267"><ele>464.16666666666663</ele><time>2026-05-04T10:57:50.407Z</time></trkpt><trkpt lat="41.2260817" lon="14.2899133"><ele>464.0</ele><time>2026-05-04T10:57:52.406Z</time></trkpt><trkpt lat="41.2261433" lon="14.2899933"><ele>463.99999999999994</ele><time>2026-05-04T10:57:54.405Z</time></trkpt><trkpt lat="41.2261983" lon="14.2900667"><ele>464.0</ele><time>2026-05-04T10:57:56.406Z</time></trkpt><trkpt lat="41.2262717" lon="14.290095"><ele>464.0</ele><time>2026-05-04T10:57:58.403Z</time></trkpt><trkpt lat="41.2263567" lon="14.2900867"><ele>464.0</ele><time>2026-05-04T10:58:00.404Z</time></trkpt><trkpt lat="41.226435" lon="14.2900667"><ele>463.99999999999994</ele><time>2026-05-04T10:58:02.405Z</time></trkpt><trkpt lat="41.2265167" lon="14.29006"><ele>464.0</ele><time>2026-05-04T10:58:04.404Z</time></trkpt><trkpt lat="41.2265983" lon="14.2900567"><ele>464.3333333333333</ele><time>2026-05-04T10:58:06.404Z</time></trkpt><trkpt lat="41.2266783" lon="14.29004"><ele>464.66666666666663</ele><time>2026-05-04T10:58:08.404Z</time></trkpt><trkpt lat="41.2267567" lon="14.2900283"><ele>465.0</ele><time>2026-05-04T10:58:10.405Z</time></trkpt><trkpt lat="41.2268367" lon="14.2900117"><ele>465.33333333333337</ele><time>2026-05-04T10:58:12.404Z</time></trkpt><trkpt lat="41.2269117" lon="14.2900133"><ele>465.6666666666667</ele><time>2026-05-04T10:58:14.405Z</time></trkpt><trkpt lat="41.2269783" lon="14.290035"><ele>466.0</ele><time>2026-05-04T10:58:16.407Z</time></trkpt><trkpt lat="41.2270633" lon="14.2900817"><ele>466.00000000000006</ele><time>2026-05-04T10:58:19.408Z</time></trkpt><trkpt lat="41.2271233" lon="14.2901667"><ele>466.0</ele><time>2026-05-04T10:58:22.406Z</time></trkpt><trkpt lat="41.22707" lon="14.2900783"><ele>466.0</ele><time>2026-05-04T10:58:31.404Z</time></trkpt><trkpt lat="41.2270883" lon="14.2899833"><ele>466.0</ele><time>2026-05-04T10:58:34.403Z</time></trkpt><trkpt lat="41.2271533" lon="14.2899733"><ele>466.00000000000006</ele><time>2026-05-04T10:58:36.404Z</time></trkpt><trkpt lat="41.2272333" lon="14.28998"><ele>466.0</ele><time>2026-05-04T10:58:38.405Z</time></trkpt><trkpt lat="41.227325" lon="14.2899667"><ele>466.4</ele><time>2026-05-04T10:58:40.405Z</time></trkpt><trkpt lat="41.22742" lon="14.2899467"><ele>466.8</ele><time>2026-05-04T10:58:42.402Z</time></trkpt><trkpt lat="41.22752" lon="14.2899283"><ele>467.19999999999993</ele><time>2026-05-04T10:58:44.403Z</time></trkpt><trkpt lat="41.2276217" lon="14.2899217"><ele>467.59999999999997</ele><time>2026-05-04T10:58:46.404Z</time></trkpt><trkpt lat="41.2277183" lon="14.2899067"><ele>468.0</ele><time>2026-05-04T10:58:48.403Z</time></trkpt><trkpt lat="41.22781" lon="14.28989"><ele>468.0</ele><time>2026-05-04T10:58:50.404Z</time></trkpt><trkpt lat="41.227905" lon="14.2898633"><ele>467.99999999999994</ele><time>2026-05-04T10:58:52.405Z</time></trkpt><trkpt lat="41.22799" lon="14.289845"><ele>467.99999999999994</ele><time>2026-05-04T10:58:54.405Z</time></trkpt><trkpt lat="41.2280767" lon="14.2898183"><ele>468.0</ele><time>2026-05-04T10:58:56.405Z</time></trkpt><trkpt lat="41.2281633" lon="14.2897683"><ele>468.0</ele><time>2026-05-04T10:58:58.406Z</time></trkpt><trkpt lat="41.228245" lon="14.2897067"><ele>467.8333333333333</ele><time>2026-05-04T10:59:00.404Z</time></trkpt><trkpt lat="41.2283233" lon="14.2896517"><ele>467.66666666666663</ele><time>2026-05-04T10:59:02.405Z</time></trkpt><trkpt lat="41.2284017" lon="14.2896167"><ele>467.5</ele><time>2026-05-04T10:59:04.407Z</time></trkpt><trkpt lat="41.2284767" lon="14.2895733"><ele>467.3333333333333</ele><time>2026-05-04T10:59:06.405Z</time></trkpt><trkpt lat="41.2285533" lon="14.28952"><ele>467.16666666666663</ele><time>2026-05-04T10:59:08.406Z</time></trkpt><trkpt lat="41.2286267" lon="14.2894717"><ele>467.0</ele><time>2026-05-04T10:59:10.406Z</time></trkpt><trkpt lat="41.2287067" lon="14.2894333"><ele>466.99999999999994</ele><time>2026-05-04T10:59:12.404Z</time></trkpt><trkpt lat="41.22878" lon="14.2894217"><ele>467.0</ele><time>2026-05-04T10:59:14.403Z</time></trkpt><trkpt lat="41.2288433" lon="14.2894133"><ele>467.0</ele><time>2026-05-04T10:59:17.405Z</time></trkpt><trkpt lat="41.2287533" lon="14.2894167"><ele>467.0</ele><time>2026-05-04T10:59:30.405Z</time></trkpt><trkpt lat="41.2286867" lon="14.2894483"><ele>466.99999999999994</ele><time>2026-05-04T10:59:32.407Z</time></trkpt><trkpt lat="41.2286133" lon="14.289485"><ele>467.0</ele><time>2026-05-04T10:59:34.403Z</time></trkpt><trkpt lat="41.2285367" lon="14.2895217"><ele>467.0</ele><time>2026-05-04T10:59:36.404Z</time></trkpt><trkpt lat="41.2284533" lon="14.28957"><ele>467.00000000000006</ele><time>2026-05-04T10:59:38.404Z</time></trkpt><trkpt lat="41.2283717" lon="14.2896167"><ele>467.00000000000006</ele><time>2026-05-04T10:59:40.405Z</time></trkpt><trkpt lat="41.2282933" lon="14.2896717"><ele>467.0</ele><time>2026-05-04T10:59:42.407Z</time></trkpt><trkpt lat="41.22821" lon="14.2897283"><ele>467.0</ele><time>2026-05-04T10:59:44.406Z</time></trkpt><trkpt lat="41.22813" lon="14.2897867"><ele>467.20000000000005</ele><time>2026-05-04T10:59:46.405Z</time></trkpt><trkpt lat="41.2280317" lon="14.289825"><ele>467.40000000000003</ele><time>2026-05-04T10:59:48.404Z</time></trkpt><trkpt lat="41.2279283" lon="14.2898517"><ele>467.59999999999997</ele><time>2026-05-04T10:59:50.405Z</time></trkpt><trkpt lat="41.2278217" lon="14.289885"><ele>467.79999999999995</ele><time>2026-05-04T10:59:52.406Z</time></trkpt><trkpt lat="41.227705" lon="14.2899033"><ele>468.0</ele><time>2026-05-04T10:59:54.406Z</time></trkpt><trkpt lat="41.2275917" lon="14.2899133"><ele>468.0</ele><time>2026-05-04T10:59:56.404Z</time></trkpt><trkpt lat="41.2274767" lon="14.2899267"><ele>467.99999999999994</ele><time>2026-05-04T10:59:58.405Z</time></trkpt><trkpt lat="41.227365" lon="14.2899417"><ele>467.99999999999994</ele><time>2026-05-04T11:00:00.404Z</time></trkpt><trkpt lat="41.2272583" lon="14.2899633"><ele>468.0</ele><time>2026-05-04T11:00:02.404Z</time></trkpt><trkpt lat="41.2271533" lon="14.2899733"><ele>468.0</ele><time>2026-05-04T11:00:04.405Z</time></trkpt><trkpt lat="41.2270733" lon="14.2900017"><ele>468.0</ele><time>2026-05-04T11:00:06.405Z</time></trkpt><trkpt lat="41.2270667" lon="14.2901183"><ele>468.0</ele><time>2026-05-04T11:00:09.404Z</time></trkpt><trkpt lat="41.227125" lon="14.2901867"><ele>468.0</ele><time>2026-05-04T11:00:11.406Z</time></trkpt><trkpt lat="41.2271967" lon="14.2902467"><ele>468.0</ele><time>2026-05-04T11:00:13.405Z</time></trkpt><trkpt lat="41.2272733" lon="14.2903033"><ele>468.0</ele><time>2026-05-04T11:00:15.404Z</time></trkpt><trkpt lat="41.2273567" lon="14.2903567"><ele>468.0</ele><time>2026-05-04T11:00:17.405Z</time></trkpt><trkpt lat="41.2274417" lon="14.2904133"><ele>468.0</ele><time>2026-05-04T11:00:19.405Z</time></trkpt><trkpt lat="41.2275283" lon="14.2904683"><ele>467.99999999999994</ele><time>2026-05-04T11:00:21.403Z</time></trkpt><trkpt lat="41.2276067" lon="14.2905233"><ele>467.99999999999994</ele><time>2026-05-04T11:00:23.405Z</time></trkpt><trkpt lat="41.227685" lon="14.2905817"><ele>468.0</ele><time>2026-05-04T11:00:25.407Z</time></trkpt><trkpt lat="41.2277633" lon="14.29064"><ele>468.0</ele><time>2026-05-04T11:00:27.405Z</time></trkpt><trkpt lat="41.2278417" lon="14.2906917"><ele>468.3333333333333</ele><time>2026-05-04T11:00:29.405Z</time></trkpt><trkpt lat="41.22791" lon="14.2907433"><ele>468.66666666666663</ele><time>2026-05-04T11:00:31.405Z</time></trkpt><trkpt lat="41.2279917" lon="14.2907667"><ele>469.0</ele><time>2026-05-04T11:00:33.405Z</time></trkpt><trkpt lat="41.22807" lon="14.2907783"><ele>469.3333333333333</ele><time>2026-05-04T11:00:35.405Z</time></trkpt><trkpt lat="41.2281483" lon="14.2907817"><ele>469.66666666666663</ele><time>2026-05-04T11:00:37.405Z</time></trkpt><trkpt lat="41.2282217" lon="14.2907567"><ele>470.0</ele><time>2026-05-04T11:00:39.403Z</time></trkpt><trkpt lat="41.2282917" lon="14.29073"><ele>470.4285714285714</ele><time>2026-05-04T11:00:41.406Z</time></trkpt><trkpt lat="41.22836" lon="14.2907233"><ele>470.8571428571428</ele><time>2026-05-04T11:00:43.407Z</time></trkpt><trkpt lat="41.2284267" lon="14.2907217"><ele>471.2857142857143</ele><time>2026-05-04T11:00:45.405Z</time></trkpt><trkpt lat="41.2284983" lon="14.2907133"><ele>471.71428571428567</ele><time>2026-05-04T11:00:47.407Z</time></trkpt><trkpt lat="41.2285617" lon="14.29071"><ele>472.1428571428571</ele><time>2026-05-04T11:00:49.405Z</time></trkpt><trkpt lat="41.2286517" lon="14.290695"><ele>472.57142857142856</ele><time>2026-05-04T11:00:52.407Z</time></trkpt><trkpt lat="41.2287367" lon="14.2906817"><ele>473.0</ele><time>2026-05-04T11:00:55.404Z</time></trkpt><trkpt lat="41.2288233" lon="14.2906917"><ele>472.99999999999994</ele><time>2026-05-04T11:00:58.405Z</time></trkpt><trkpt lat="41.2289117" lon="14.29073"><ele>473.0</ele><time>2026-05-04T11:01:01.405Z</time></trkpt><trkpt lat="41.2289717" lon="14.2907733"><ele>473.0</ele><time>2026-05-04T11:01:03.403Z</time></trkpt><trkpt lat="41.2290283" lon="14.2908117"><ele>473.0</ele><time>2026-05-04T11:01:05.406Z</time></trkpt><trkpt lat="41.2290817" lon="14.2908583"><ele>472.99999999999994</ele><time>2026-05-04T11:01:07.405Z</time></trkpt><trkpt lat="41.2291517" lon="14.2909333"><ele>473.0</ele><time>2026-05-04T11:01:10.406Z</time></trkpt><trkpt lat="41.229225" lon="14.2909983"><ele>473.66666666666663</ele><time>2026-05-04T11:01:13.406Z</time></trkpt><trkpt lat="41.2293083" lon="14.2910467"><ele>474.3333333333333</ele><time>2026-05-04T11:01:16.403Z</time></trkpt><trkpt lat="41.229385" lon="14.2910983"><ele>475.0</ele><time>2026-05-04T11:01:19.405Z</time></trkpt><trkpt lat="41.2294683" lon="14.2911083"><ele>475.66666666666663</ele><time>2026-05-04T11:01:22.403Z</time></trkpt><trkpt lat="41.229555" lon="14.2911033"><ele>476.3333333333333</ele><time>2026-05-04T11:01:25.403Z</time></trkpt><trkpt lat="41.2296267" lon="14.2911117"><ele>477.0</ele><time>2026-05-04T11:01:28.404Z</time></trkpt><trkpt lat="41.229705" lon="14.291115"><ele>477.0</ele><time>2026-05-04T11:01:31.405Z</time></trkpt><trkpt lat="41.22979" lon="14.291115"><ele>477.0</ele><time>2026-05-04T11:01:34.404Z</time></trkpt><trkpt lat="41.229855" lon="14.2911167"><ele>477.0</ele><time>2026-05-04T11:01:36.405Z</time></trkpt><trkpt lat="41.2299433" lon="14.291105"><ele>477.0</ele><time>2026-05-04T11:01:39.405Z</time></trkpt><trkpt lat="41.2300317" lon="14.2911117"><ele>477.0</ele><time>2026-05-04T11:01:42.405Z</time></trkpt><trkpt lat="41.2301133" lon="14.291105"><ele>477.0</ele><time>2026-05-04T11:01:45.404Z</time></trkpt><trkpt lat="41.2301933" lon="14.2910917"><ele>477.8333333333333</ele><time>2026-05-04T11:01:48.405Z</time></trkpt><trkpt lat="41.2302767" lon="14.291075"><ele>478.66666666666663</ele><time>2026-05-04T11:01:51.405Z</time></trkpt><trkpt lat="41.230365" lon="14.2910717"><ele>479.5</ele><time>2026-05-04T11:01:54.403Z</time></trkpt><trkpt lat="41.2304233" lon="14.2911417"><ele>480.3333333333333</ele><time>2026-05-04T11:01:57.404Z</time></trkpt><trkpt lat="41.23039" lon="14.29123"><ele>481.16666666666663</ele><time>2026-05-04T11:02:00.405Z</time></trkpt><trkpt lat="41.2303017" lon="14.29126"><ele>482.0</ele><time>2026-05-04T11:02:03.405Z</time></trkpt><trkpt lat="41.23023" lon="14.2912767"><ele>482.0</ele><time>2026-05-04T11:02:05.405Z</time></trkpt><trkpt lat="41.2301617" lon="14.2913067"><ele>482.00000000000006</ele><time>2026-05-04T11:02:07.405Z</time></trkpt><trkpt lat="41.2300917" lon="14.29133"><ele>482.0</ele><time>2026-05-04T11:02:09.405Z</time></trkpt><trkpt lat="41.230025" lon="14.29135"><ele>482.0</ele><time>2026-05-04T11:02:11.405Z</time></trkpt><trkpt lat="41.2299567" lon="14.2913717"><ele>482.00000000000006</ele><time>2026-05-04T11:02:13.405Z</time></trkpt><trkpt lat="41.2298867" lon="14.2913933"><ele>482.0</ele><time>2026-05-04T11:02:15.405Z</time></trkpt><trkpt lat="41.2298" lon="14.2914183"><ele>482.0</ele><time>2026-05-04T11:02:18.406Z</time></trkpt><trkpt lat="41.2297317" lon="14.2914483"><ele>483.14285714285717</ele><time>2026-05-04T11:02:20.404Z</time></trkpt><trkpt lat="41.2296683" lon="14.2914817"><ele>484.28571428571433</ele><time>2026-05-04T11:02:22.405Z</time></trkpt><trkpt lat="41.2296017" lon="14.2915083"><ele>485.42857142857144</ele><time>2026-05-04T11:02:24.407Z</time></trkpt><trkpt lat="41.229535" lon="14.2915333"><ele>486.57142857142856</ele><time>2026-05-04T11:02:26.406Z</time></trkpt><trkpt lat="41.229465" lon="14.2915733"><ele>487.7142857142857</ele><time>2026-05-04T11:02:28.404Z</time></trkpt><trkpt lat="41.229395" lon="14.291615"><ele>488.8571428571429</ele><time>2026-05-04T11:02:30.403Z</time></trkpt><trkpt lat="41.229325" lon="14.2916617"><ele>490.0</ele><time>2026-05-04T11:02:32.402Z</time></trkpt><trkpt lat="41.2292583" lon="14.291715"><ele>490.00000000000006</ele><time>2026-05-04T11:02:34.403Z</time></trkpt><trkpt lat="41.22919" lon="14.2917717"><ele>490.0</ele><time>2026-05-04T11:02:36.404Z</time></trkpt><trkpt lat="41.229125" lon="14.29183"><ele>490.0</ele><time>2026-05-04T11:02:38.403Z</time></trkpt><trkpt lat="41.2290633" lon="14.2918917"><ele>490.0</ele><time>2026-05-04T11:02:40.403Z</time></trkpt><trkpt lat="41.2290017" lon="14.2919533"><ele>490.00000000000006</ele><time>2026-05-04T11:02:42.402Z</time></trkpt><trkpt lat="41.2289383" lon="14.2920117"><ele>490.0</ele><time>2026-05-04T11:02:44.404Z</time></trkpt><trkpt lat="41.22887" lon="14.2920717"><ele>490.1428571428571</ele><time>2026-05-04T11:02:46.405Z</time></trkpt><trkpt lat="41.2288067" lon="14.2921267"><ele>490.2857142857143</ele><time>2026-05-04T11:02:48.404Z</time></trkpt><trkpt lat="41.22875" lon="14.29219"><ele>490.42857142857144</ele><time>2026-05-04T11:02:50.403Z</time></trkpt><trkpt lat="41.2286983" lon="14.2922517"><ele>490.57142857142856</ele><time>2026-05-04T11:02:52.403Z</time></trkpt><trkpt lat="41.2286467" lon="14.29231"><ele>490.71428571428567</ele><time>2026-05-04T11:02:54.403Z</time></trkpt><trkpt lat="41.2285983" lon="14.2923683"><ele>490.85714285714283</ele><time>2026-05-04T11:02:56.405Z</time></trkpt><trkpt lat="41.2285417" lon="14.292425"><ele>491.0</ele><time>2026-05-04T11:02:58.404Z</time></trkpt><trkpt lat="41.2284933" lon="14.2924867"><ele>491.0</ele><time>2026-05-04T11:03:00.404Z</time></trkpt><trkpt lat="41.2284417" lon="14.29254"><ele>490.99999999999994</ele><time>2026-05-04T11:03:02.404Z</time></trkpt><trkpt lat="41.2283867" lon="14.292595"><ele>491.0</ele><time>2026-05-04T11:03:04.405Z</time></trkpt><trkpt lat="41.22834" lon="14.292655"><ele>491.0</ele><time>2026-05-04T11:03:06.406Z</time></trkpt><trkpt lat="41.228295" lon="14.2927183"><ele>490.99999999999994</ele><time>2026-05-04T11:03:08.405Z</time></trkpt><trkpt lat="41.2282583" lon="14.2928267"><ele>491.0</ele><time>2026-05-04T11:03:11.404Z</time></trkpt><trkpt lat="41.2282217" lon="14.2929267"><ele>491.0</ele><time>2026-05-04T11:03:14.403Z</time></trkpt><trkpt lat="41.228185" lon="14.2930317"><ele>490.57142857142856</ele><time>2026-05-04T11:03:17.405Z</time></trkpt><trkpt lat="41.2281567" lon="14.29313"><ele>490.1428571428571</ele><time>2026-05-04T11:03:20.402Z</time></trkpt><trkpt lat="41.2281417" lon="14.2932167"><ele>489.71428571428567</ele><time>2026-05-04T11:03:22.405Z</time></trkpt><trkpt lat="41.2281333" lon="14.2933017"><ele>489.2857142857142</ele><time>2026-05-04T11:03:24.406Z</time></trkpt><trkpt lat="41.2281117" lon="14.2934067"><ele>488.85714285714283</ele><time>2026-05-04T11:03:26.404Z</time></trkpt><trkpt lat="41.2281017" lon="14.2935067"><ele>488.42857142857133</ele><time>2026-05-04T11:03:28.404Z</time></trkpt><trkpt lat="41.228105" lon="14.2935967"><ele>487.99999999999994</ele><time>2026-05-04T11:03:30.405Z</time></trkpt><trkpt lat="41.2281" lon="14.2937117"><ele>487.99999999999994</ele><time>2026-05-04T11:03:33.404Z</time></trkpt><trkpt lat="41.2281" lon="14.2938117"><ele>488.0</ele><time>2026-05-04T11:03:36.405Z</time></trkpt><trkpt lat="41.2281133" lon="14.2939067"><ele>487.99999999999994</ele><time>2026-05-04T11:03:38.404Z</time></trkpt><trkpt lat="41.2281217" lon="14.29401"><ele>487.99999999999994</ele><time>2026-05-04T11:03:40.405Z</time></trkpt><trkpt lat="41.2281317" lon="14.2941117"><ele>488.0</ele><time>2026-05-04T11:03:42.404Z</time></trkpt><trkpt lat="41.2281383" lon="14.294205"><ele>487.99999999999994</ele><time>2026-05-04T11:03:44.404Z</time></trkpt><trkpt lat="41.2281517" lon="14.2942983"><ele>487.99999999999994</ele><time>2026-05-04T11:03:46.404Z</time></trkpt><trkpt lat="41.22816" lon="14.2943883"><ele>492.66666666666663</ele><time>2026-05-04T11:03:48.404Z</time></trkpt><trkpt lat="41.22817" lon="14.2945067"><ele>497.3333333333333</ele><time>2026-05-04T11:03:51.403Z</time></trkpt><trkpt lat="41.2281933" lon="14.2945917"><ele>502.0</ele><time>2026-05-04T11:03:53.402Z</time></trkpt><trkpt lat="41.2282167" lon="14.2946783"><ele>506.66666666666663</ele><time>2026-05-04T11:03:55.403Z</time></trkpt><trkpt lat="41.228225" lon="14.2947783"><ele>511.3333333333333</ele><time>2026-05-04T11:03:57.403Z</time></trkpt><trkpt lat="41.2282317" lon="14.2948717"><ele>516.0</ele><time>2026-05-04T11:03:59.404Z</time></trkpt><trkpt lat="41.2282317" lon="14.2949933"><ele>515.9999999999999</ele><time>2026-05-04T11:04:02.402Z</time></trkpt><trkpt lat="41.2282117" lon="14.2951133"><ele>516.0</ele><time>2026-05-04T11:04:05.404Z</time></trkpt><trkpt lat="41.2281717" lon="14.2952233"><ele>516.0</ele><time>2026-05-04T11:04:08.406Z</time></trkpt><trkpt lat="41.2281317" lon="14.2952917"><ele>516.0</ele><time>2026-05-04T11:04:10.404Z</time></trkpt><trkpt lat="41.2280983" lon="14.2953667"><ele>516.0</ele><time>2026-05-04T11:04:12.404Z</time></trkpt><trkpt lat="41.228075" lon="14.29545"><ele>515.9999999999999</ele><time>2026-05-04T11:04:14.404Z</time></trkpt><trkpt lat="41.2280633" lon="14.295535"><ele>516.0</ele><time>2026-05-04T11:04:16.404Z</time></trkpt><trkpt lat="41.228045" lon="14.29562"><ele>516.0</ele><time>2026-05-04T11:04:18.406Z</time></trkpt><trkpt lat="41.22803" lon="14.2957017"><ele>516.0</ele><time>2026-05-04T11:04:20.405Z</time></trkpt><trkpt lat="41.2280033" lon="14.2957817"><ele>516.0</ele><time>2026-05-04T11:04:22.405Z</time></trkpt><trkpt lat="41.22799" lon="14.2958683"><ele>516.0</ele><time>2026-05-04T11:04:24.405Z</time></trkpt><trkpt lat="41.2279767" lon="14.2959867"><ele>516.0</ele><time>2026-05-04T11:04:27.403Z</time></trkpt><trkpt lat="41.2279667" lon="14.2961083"><ele>516.0</ele><time>2026-05-04T11:04:30.405Z</time></trkpt><trkpt lat="41.2279633" lon="14.2962283"><ele>516.0</ele><time>2026-05-04T11:04:33.403Z</time></trkpt><trkpt lat="41.227975" lon="14.296345"><ele>516.0</ele><time>2026-05-04T11:04:36.403Z</time></trkpt><trkpt lat="41.2280117" lon="14.2964583"><ele>516.0</ele><time>2026-05-04T11:04:39.405Z</time></trkpt><trkpt lat="41.2280417" lon="14.2965367"><ele>516.0</ele><time>2026-05-04T11:04:41.404Z</time></trkpt><trkpt lat="41.2280783" lon="14.29665"><ele>516.0</ele><time>2026-05-04T11:04:44.405Z</time></trkpt><trkpt lat="41.2281117" lon="14.296765"><ele>516.0</ele><time>2026-05-04T11:04:47.406Z</time></trkpt><trkpt lat="41.2281333" lon="14.296855"><ele>516.2857142857142</ele><time>2026-05-04T11:04:49.404Z</time></trkpt><trkpt lat="41.228155" lon="14.29694"><ele>516.5714285714286</ele><time>2026-05-04T11:04:51.403Z</time></trkpt><trkpt lat="41.2281833" lon="14.2970267"><ele>516.8571428571429</ele><time>2026-05-04T11:04:53.406Z</time></trkpt><trkpt lat="41.2282133" lon="14.29711"><ele>517.1428571428571</ele><time>2026-05-04T11:04:55.405Z</time></trkpt><trkpt lat="41.2282433" lon="14.29719"><ele>517.4285714285714</ele><time>2026-05-04T11:04:57.405Z</time></trkpt><trkpt lat="41.2282733" lon="14.2972683"><ele>517.7142857142857</ele><time>2026-05-04T11:04:59.405Z</time></trkpt><trkpt lat="41.2282917" lon="14.2973567"><ele>518.0</ele><time>2026-05-04T11:05:01.405Z</time></trkpt><trkpt lat="41.228315" lon="14.2974383"><ele>518.7142857142857</ele><time>2026-05-04T11:05:03.406Z</time></trkpt><trkpt lat="41.2283417" lon="14.29752"><ele>519.4285714285714</ele><time>2026-05-04T11:05:05.406Z</time></trkpt><trkpt lat="41.2283583" lon="14.297605"><ele>520.1428571428571</ele><time>2026-05-04T11:05:07.405Z</time></trkpt><trkpt lat="41.2283667" lon="14.2977017"><ele>520.8571428571429</ele><time>2026-05-04T11:05:09.404Z</time></trkpt><trkpt lat="41.228375" lon="14.2978017"><ele>521.5714285714286</ele><time>2026-05-04T11:05:11.406Z</time></trkpt><trkpt lat="41.2283817" lon="14.2979017"><ele>522.2857142857142</ele><time>2026-05-04T11:05:13.404Z</time></trkpt><trkpt lat="41.2283867" lon="14.297995"><ele>523.0</ele><time>2026-05-04T11:05:15.405Z</time></trkpt><trkpt lat="41.2283867" lon="14.2980933"><ele>523.8333333333334</ele><time>2026-05-04T11:05:17.406Z</time></trkpt><trkpt lat="41.2283967" lon="14.2981817"><ele>524.6666666666667</ele><time>2026-05-04T11:05:19.404Z</time></trkpt><trkpt lat="41.2284167" lon="14.2982733"><ele>525.5</ele><time>2026-05-04T11:05:21.402Z</time></trkpt><trkpt lat="41.2284517" lon="14.2983583"><ele>526.3333333333334</ele><time>2026-05-04T11:05:23.406Z</time></trkpt><trkpt lat="41.22849" lon="14.2984417"><ele>527.1666666666666</ele><time>2026-05-04T11:05:25.405Z</time></trkpt><trkpt lat="41.228545" lon="14.2985267"><ele>528.0</ele><time>2026-05-04T11:05:27.404Z</time></trkpt><trkpt lat="41.2286383" lon="14.2986017"><ele>528.0</ele><time>2026-05-04T11:05:29.404Z</time></trkpt><trkpt lat="41.228735" lon="14.2986833"><ele>528.0</ele><time>2026-05-04T11:05:31.405Z</time></trkpt><trkpt lat="41.22879" lon="14.298735"><ele>528.0</ele><time>2026-05-04T11:05:32.406Z</time></trkpt><trkpt lat="41.22885" lon="14.2987933"><ele>528.0</ele><time>2026-05-04T11:05:33.406Z</time></trkpt><trkpt lat="41.2289067" lon="14.298855"><ele>528.0</ele><time>2026-05-04T11:05:34.406Z</time></trkpt><trkpt lat="41.228965" lon="14.2989267"><ele>528.0</ele><time>2026-05-04T11:05:35.406Z</time></trkpt><trkpt lat="41.229025" lon="14.2990017"><ele>526.6666666666666</ele><time>2026-05-04T11:05:36.405Z</time></trkpt><trkpt lat="41.2290867" lon="14.299075"><ele>525.3333333333334</ele><time>2026-05-04T11:05:37.406Z</time></trkpt><trkpt lat="41.2291467" lon="14.2991517"><ele>524.0</ele><time>2026-05-04T11:05:38.405Z</time></trkpt><trkpt lat="41.2292167" lon="14.2992217"><ele>522.6666666666667</ele><time>2026-05-04T11:05:39.405Z</time></trkpt><trkpt lat="41.2292917" lon="14.2992883"><ele>521.3333333333334</ele><time>2026-05-04T11:05:40.404Z</time></trkpt><trkpt lat="41.2293633" lon="14.2993667"><ele>520.0</ele><time>2026-05-04T11:05:41.404Z</time></trkpt><trkpt lat="41.229445" lon="14.2994467"><ele>520.0</ele><time>2026-05-04T11:05:42.406Z</time></trkpt><trkpt lat="41.2295267" lon="14.29953"><ele>520.0</ele><time>2026-05-04T11:05:43.405Z</time></trkpt><trkpt lat="41.2296183" lon="14.2996"><ele>520.0</ele><time>2026-05-04T11:05:44.405Z</time></trkpt><trkpt lat="41.2297167" lon="14.29965"><ele>520.0</ele><time>2026-05-04T11:05:45.403Z</time></trkpt><trkpt lat="41.2298117" lon="14.2996967"><ele>520.0</ele><time>2026-05-04T11:05:46.404Z</time></trkpt><trkpt lat="41.2298967" lon="14.2997667"><ele>518.6</ele><time>2026-05-04T11:05:47.406Z</time></trkpt><trkpt lat="41.2299717" lon="14.29985"><ele>517.2</ele><time>2026-05-04T11:05:48.403Z</time></trkpt><trkpt lat="41.2300483" lon="14.2999417"><ele>515.8</ele><time>2026-05-04T11:05:49.406Z</time></trkpt><trkpt lat="41.2301267" lon="14.3000433"><ele>514.4</ele><time>2026-05-04T11:05:50.405Z</time></trkpt><trkpt lat="41.2302033" lon="14.3001533"><ele>513.0</ele><time>2026-05-04T11:05:51.403Z</time></trkpt><trkpt lat="41.2302767" lon="14.300265"><ele>513.0</ele><time>2026-05-04T11:05:52.404Z</time></trkpt><trkpt lat="41.2303633" lon="14.3003733"><ele>513.0</ele><time>2026-05-04T11:05:53.405Z</time></trkpt><trkpt lat="41.23045" lon="14.30048"><ele>513.0</ele><time>2026-05-04T11:05:54.405Z</time></trkpt><trkpt lat="41.23054" lon="14.3005933"><ele>513.0</ele><time>2026-05-04T11:05:55.405Z</time></trkpt><trkpt lat="41.2306133" lon="14.3007033"><ele>512.1999999999999</ele><time>2026-05-04T11:05:56.405Z</time></trkpt><trkpt lat="41.230675" lon="14.3008133"><ele>511.4</ele><time>2026-05-04T11:05:57.406Z</time></trkpt><trkpt lat="41.2307283" lon="14.300935"><ele>510.59999999999997</ele><time>2026-05-04T11:05:58.406Z</time></trkpt><trkpt lat="41.2307767" lon="14.30106"><ele>509.79999999999995</ele><time>2026-05-04T11:05:59.405Z</time></trkpt><trkpt lat="41.2308283" lon="14.3011833"><ele>509.0</ele><time>2026-05-04T11:06:00.405Z</time></trkpt><trkpt lat="41.2308917" lon="14.3012917"><ele>509.0</ele><time>2026-05-04T11:06:01.404Z</time></trkpt><trkpt lat="41.2309633" lon="14.3013883"><ele>509.0</ele><time>2026-05-04T11:06:02.404Z</time></trkpt><trkpt lat="41.2310333" lon="14.30147"><ele>509.0</ele><time>2026-05-04T11:06:03.405Z</time></trkpt><trkpt lat="41.2310967" lon="14.3015383"><ele>509.0</ele><time>2026-05-04T11:06:04.405Z</time></trkpt><trkpt lat="41.231185" lon="14.30162"><ele>509.0</ele><time>2026-05-04T11:06:06.405Z</time></trkpt><trkpt lat="41.231265" lon="14.301705"><ele>508.16666666666663</ele><time>2026-05-04T11:07:06.406Z</time></trkpt><trkpt lat="41.231355" lon="14.3018233"><ele>507.3333333333333</ele><time>2026-05-04T11:07:08.405Z</time></trkpt><trkpt lat="41.2314067" lon="14.301885"><ele>506.5</ele><time>2026-05-04T11:07:09.404Z</time></trkpt><trkpt lat="41.231465" lon="14.30195"><ele>505.66666666666663</ele><time>2026-05-04T11:07:10.406Z</time></trkpt><trkpt lat="41.2315267" lon="14.30201"><ele>504.8333333333333</ele><time>2026-05-04T11:07:11.404Z</time></trkpt><trkpt lat="41.2315933" lon="14.3020733"><ele>504.0</ele><time>2026-05-04T11:07:12.407Z</time></trkpt><trkpt lat="41.2316683" lon="14.302115"><ele>504.0</ele><time>2026-05-04T11:07:13.405Z</time></trkpt><trkpt lat="41.23175" lon="14.30216"><ele>504.0</ele><time>2026-05-04T11:07:14.406Z</time></trkpt><trkpt lat="41.2318417" lon="14.302205"><ele>504.0</ele><time>2026-05-04T11:07:15.404Z</time></trkpt><trkpt lat="41.2319417" lon="14.3022333"><ele>504.0</ele><time>2026-05-04T11:07:16.405Z</time></trkpt><trkpt lat="41.2320233" lon="14.3022483"><ele>504.0</ele><time>2026-05-04T11:07:17.407Z</time></trkpt><trkpt lat="41.2321067" lon="14.3022167"><ele>504.0</ele><time>2026-05-04T11:07:18.406Z</time></trkpt><trkpt lat="41.232195" lon="14.3021983"><ele>504.0</ele><time>2026-05-04T11:07:19.406Z</time></trkpt><trkpt lat="41.23229" lon="14.302155"><ele>504.0</ele><time>2026-05-04T11:07:20.406Z</time></trkpt><trkpt lat="41.2323783" lon="14.3020983"><ele>504.0</ele><time>2026-05-04T11:07:21.406Z</time></trkpt><trkpt lat="41.232465" lon="14.30199"><ele>504.0</ele><time>2026-05-04T11:07:22.405Z</time></trkpt><trkpt lat="41.232545" lon="14.3019067"><ele>504.4</ele><time>2026-05-04T11:07:23.407Z</time></trkpt><trkpt lat="41.232605" lon="14.3018083"><ele>504.79999999999995</ele><time>2026-05-04T11:07:24.404Z</time></trkpt><trkpt lat="41.2326433" lon="14.301685"><ele>505.20000000000005</ele><time>2026-05-04T11:07:25.405Z</time></trkpt><trkpt lat="41.232685" lon="14.301555"><ele>505.6</ele><time>2026-05-04T11:07:26.404Z</time></trkpt><trkpt lat="41.2327283" lon="14.3014467"><ele>506.0</ele><time>2026-05-04T11:07:27.403Z</time></trkpt><trkpt lat="41.2327533" lon="14.30135"><ele>506.00000000000006</ele><time>2026-05-04T11:07:28.405Z</time></trkpt><trkpt lat="41.2327917" lon="14.3012667"><ele>506.0</ele><time>2026-05-04T11:07:29.404Z</time></trkpt><trkpt lat="41.23285" lon="14.3011933"><ele>506.00000000000006</ele><time>2026-05-04T11:07:30.403Z</time></trkpt><trkpt lat="41.232905" lon="14.3011383"><ele>506.00000000000006</ele><time>2026-05-04T11:07:31.406Z</time></trkpt><trkpt lat="41.23297" lon="14.3011233"><ele>506.0</ele><time>2026-05-04T11:07:32.406Z</time></trkpt><trkpt lat="41.2330433" lon="14.301135"><ele>506.00000000000006</ele><time>2026-05-04T11:07:33.406Z</time></trkpt><trkpt lat="41.2331167" lon="14.301175"><ele>506.00000000000006</ele><time>2026-05-04T11:07:34.406Z</time></trkpt><trkpt lat="41.2331783" lon="14.30124"><ele>505.16666666666663</ele><time>2026-05-04T11:07:35.403Z</time></trkpt><trkpt lat="41.2332517" lon="14.3013083"><ele>504.3333333333333</ele><time>2026-05-04T11:07:36.404Z</time></trkpt><trkpt lat="41.2333183" lon="14.3013733"><ele>503.5</ele><time>2026-05-04T11:07:37.405Z</time></trkpt><trkpt lat="41.2333883" lon="14.3014333"><ele>502.66666666666663</ele><time>2026-05-04T11:07:38.404Z</time></trkpt><trkpt lat="41.2334583" lon="14.301495"><ele>501.8333333333333</ele><time>2026-05-04T11:07:39.405Z</time></trkpt><trkpt lat="41.2335467" lon="14.3015583"><ele>501.0</ele><time>2026-05-04T11:07:40.405Z</time></trkpt><trkpt lat="41.2336533" lon="14.30162"><ele>496.4</ele><time>2026-05-04T11:07:41.405Z</time></trkpt><trkpt lat="41.233765" lon="14.3016633"><ele>491.8</ele><time>2026-05-04T11:07:42.403Z</time></trkpt><trkpt lat="41.2338817" lon="14.3016983"><ele>487.19999999999993</ele><time>2026-05-04T11:07:43.404Z</time></trkpt><trkpt lat="41.2339733" lon="14.301695"><ele>482.59999999999997</ele><time>2026-05-04T11:07:44.405Z</time></trkpt><trkpt lat="41.2340633" lon="14.30167"><ele>478.0</ele><time>2026-05-04T11:07:45.405Z</time></trkpt><trkpt lat="41.23416" lon="14.3016233"><ele>477.59999999999997</ele><time>2026-05-04T11:07:46.404Z</time></trkpt><trkpt lat="41.2342633" lon="14.301585"><ele>477.19999999999993</ele><time>2026-05-04T11:07:47.405Z</time></trkpt><trkpt lat="41.2343483" lon="14.3015267"><ele>476.8</ele><time>2026-05-04T11:07:48.405Z</time></trkpt><trkpt lat="41.2344567" lon="14.3014733"><ele>476.4</ele><time>2026-05-04T11:07:49.405Z</time></trkpt><trkpt lat="41.2345567" lon="14.3014133"><ele>476.0</ele><time>2026-05-04T11:07:50.404Z</time></trkpt><trkpt lat="41.2346583" lon="14.30136"><ele>476.20000000000005</ele><time>2026-05-04T11:07:51.404Z</time></trkpt><trkpt lat="41.234755" lon="14.301305"><ele>476.40000000000003</ele><time>2026-05-04T11:07:52.405Z</time></trkpt><trkpt lat="41.2348383" lon="14.3012417"><ele>476.6</ele><time>2026-05-04T11:07:53.406Z</time></trkpt><trkpt lat="41.2349183" lon="14.301165"><ele>476.8</ele><time>2026-05-04T11:07:54.406Z</time></trkpt><trkpt lat="41.2350017" lon="14.3010817"><ele>477.0</ele><time>2026-05-04T11:07:55.405Z</time></trkpt><trkpt lat="41.2350883" lon="14.3010017"><ele>477.0</ele><time>2026-05-04T11:07:56.404Z</time></trkpt><trkpt lat="41.2351733" lon="14.3009367"><ele>477.00000000000006</ele><time>2026-05-04T11:07:57.404Z</time></trkpt><trkpt lat="41.23527" lon="14.3009117"><ele>477.00000000000006</ele><time>2026-05-04T11:07:58.404Z</time></trkpt><trkpt lat="41.2353817" lon="14.3009033"><ele>477.0</ele><time>2026-05-04T11:07:59.406Z</time></trkpt><trkpt lat="41.235485" lon="14.300895"><ele>477.0</ele><time>2026-05-04T11:08:00.404Z</time></trkpt><trkpt lat="41.2355867" lon="14.30086"><ele>478.8</ele><time>2026-05-04T11:08:01.405Z</time></trkpt><trkpt lat="41.2356817" lon="14.3008117"><ele>480.6</ele><time>2026-05-04T11:08:02.405Z</time></trkpt><trkpt lat="41.2357667" lon="14.3007383"><ele>482.40000000000003</ele><time>2026-05-04T11:08:03.404Z</time></trkpt><trkpt lat="41.2358433" lon="14.3006633"><ele>484.20000000000005</ele><time>2026-05-04T11:08:04.405Z</time></trkpt><trkpt lat="41.235915" lon="14.3005917"><ele>486.0</ele><time>2026-05-04T11:08:05.407Z</time></trkpt><trkpt lat="41.235995" lon="14.3005283"><ele>486.0</ele><time>2026-05-04T11:08:06.406Z</time></trkpt><trkpt lat="41.2360767" lon="14.30048"><ele>486.0</ele><time>2026-05-04T11:08:07.406Z</time></trkpt><trkpt lat="41.23616" lon="14.30044"><ele>486.0</ele><time>2026-05-04T11:08:08.406Z</time></trkpt><trkpt lat="41.236255" lon="14.30042"><ele>486.0</ele><time>2026-05-04T11:08:09.404Z</time></trkpt><trkpt lat="41.236355" lon="14.3004183"><ele>486.0</ele><time>2026-05-04T11:08:10.403Z</time></trkpt><trkpt lat="41.2364433" lon="14.3003983"><ele>482.6</ele><time>2026-05-04T11:08:11.404Z</time></trkpt><trkpt lat="41.23655" lon="14.3003833"><ele>479.20000000000005</ele><time>2026-05-04T11:08:12.404Z</time></trkpt><trkpt lat="41.2366483" lon="14.3003517"><ele>475.79999999999995</ele><time>2026-05-04T11:08:13.406Z</time></trkpt><trkpt lat="41.23674" lon="14.30032"><ele>472.4</ele><time>2026-05-04T11:08:14.406Z</time></trkpt><trkpt lat="41.2368233" lon="14.3002867"><ele>469.0</ele><time>2026-05-04T11:08:15.404Z</time></trkpt><trkpt lat="41.23691" lon="14.300275"><ele>469.0</ele><time>2026-05-04T11:08:16.405Z</time></trkpt><trkpt lat="41.2369983" lon="14.300265"><ele>469.0</ele><time>2026-05-04T11:08:17.406Z</time></trkpt><trkpt lat="41.2370767" lon="14.3002967"><ele>469.0</ele><time>2026-05-04T11:08:18.405Z</time></trkpt><trkpt lat="41.2371667" lon="14.3003417"><ele>469.0</ele><time>2026-05-04T11:08:19.406Z</time></trkpt><trkpt lat="41.23725" lon="14.300395"><ele>469.0</ele><time>2026-05-04T11:08:20.405Z</time></trkpt><trkpt lat="41.2373383" lon="14.3004517"><ele>466.0</ele><time>2026-05-04T11:08:21.404Z</time></trkpt><trkpt lat="41.237425" lon="14.30051"><ele>463.0</ele><time>2026-05-04T11:08:22.406Z</time></trkpt><trkpt lat="41.2375033" lon="14.300565"><ele>460.0</ele><time>2026-05-04T11:08:23.408Z</time></trkpt><trkpt lat="41.23759" lon="14.30062"><ele>457.0</ele><time>2026-05-04T11:08:24.407Z</time></trkpt><trkpt lat="41.237675" lon="14.3006767"><ele>454.0</ele><time>2026-05-04T11:08:25.407Z</time></trkpt><trkpt lat="41.2377583" lon="14.300725"><ele>453.33333333333337</ele><time>2026-05-04T11:08:26.406Z</time></trkpt><trkpt lat="41.2378383" lon="14.300775"><ele>452.6666666666667</ele><time>2026-05-04T11:08:27.407Z</time></trkpt><trkpt lat="41.2379183" lon="14.3008217"><ele>452.0</ele><time>2026-05-04T11:08:28.407Z</time></trkpt><trkpt lat="41.2379983" lon="14.3008767"><ele>451.33333333333337</ele><time>2026-05-04T11:08:29.406Z</time></trkpt><trkpt lat="41.23807" lon="14.300925"><ele>450.6666666666667</ele><time>2026-05-04T11:08:30.407Z</time></trkpt><trkpt lat="41.2381433" lon="14.3009733"><ele>450.0</ele><time>2026-05-04T11:08:31.408Z</time></trkpt><trkpt lat="41.2382167" lon="14.3010233"><ele>450.0</ele><time>2026-05-04T11:08:32.407Z</time></trkpt><trkpt lat="41.2382867" lon="14.3010683"><ele>450.0</ele><time>2026-05-04T11:08:33.406Z</time></trkpt><trkpt lat="41.2383583" lon="14.301115"><ele>450.0</ele><time>2026-05-04T11:08:34.407Z</time></trkpt><trkpt lat="41.2384317" lon="14.30116"><ele>450.0</ele><time>2026-05-04T11:08:35.406Z</time></trkpt><trkpt lat="41.2385067" lon="14.3012133"><ele>450.0</ele><time>2026-05-04T11:08:36.408Z</time></trkpt><trkpt lat="41.23858" lon="14.3012617"><ele>450.0</ele><time>2026-05-04T11:08:37.408Z</time></trkpt><trkpt lat="41.2386517" lon="14.3013067"><ele>450.00000000000006</ele><time>2026-05-04T11:08:38.407Z</time></trkpt><trkpt lat="41.2387217" lon="14.301355"><ele>450.0</ele><time>2026-05-04T11:08:39.407Z</time></trkpt><trkpt lat="41.2387883" lon="14.3013983"><ele>450.00000000000006</ele><time>2026-05-04T11:08:40.407Z</time></trkpt><trkpt lat="41.2388517" lon="14.30144"><ele>450.00000000000006</ele><time>2026-05-04T11:08:41.407Z</time></trkpt><trkpt lat="41.2389133" lon="14.3014867"><ele>450.0</ele><time>2026-05-04T11:08:42.408Z</time></trkpt><trkpt lat="41.2389783" lon="14.3015333"><ele>450.00000000000006</ele><time>2026-05-04T11:08:43.408Z</time></trkpt><trkpt lat="41.23904" lon="14.3015683"><ele>450.00000000000006</ele><time>2026-05-04T11:08:44.406Z</time></trkpt><trkpt lat="41.2391067" lon="14.3015983"><ele>450.28571428571433</ele><time>2026-05-04T11:08:45.404Z</time></trkpt><trkpt lat="41.2391733" lon="14.3016133"><ele>450.57142857142856</ele><time>2026-05-04T11:08:46.407Z</time></trkpt><trkpt lat="41.2392417" lon="14.3016133"><ele>450.8571428571429</ele><time>2026-05-04T11:08:47.407Z</time></trkpt><trkpt lat="41.2393183" lon="14.3016067"><ele>451.14285714285717</ele><time>2026-05-04T11:08:48.407Z</time></trkpt><trkpt lat="41.2393933" lon="14.30159"><ele>451.42857142857144</ele><time>2026-05-04T11:08:49.407Z</time></trkpt><trkpt lat="41.2394733" lon="14.3015733"><ele>451.7142857142857</ele><time>2026-05-04T11:08:50.406Z</time></trkpt><trkpt lat="41.2395467" lon="14.3015583"><ele>452.0</ele><time>2026-05-04T11:08:51.406Z</time></trkpt><trkpt lat="41.2396217" lon="14.3015433"><ele>451.99999999999994</ele><time>2026-05-04T11:08:52.406Z</time></trkpt><trkpt lat="41.239695" lon="14.30154"><ele>452.0</ele><time>2026-05-04T11:08:53.405Z</time></trkpt><trkpt lat="41.239765" lon="14.3015417"><ele>452.0</ele><time>2026-05-04T11:08:54.406Z</time></trkpt><trkpt lat="41.23983" lon="14.30156"><ele>452.0</ele><time>2026-05-04T11:08:55.407Z</time></trkpt><trkpt lat="41.2399483" lon="14.3015917"><ele>451.99999999999994</ele><time>2026-05-04T11:08:57.403Z</time></trkpt><trkpt lat="41.240065" lon="14.3015883"><ele>452.0</ele><time>2026-05-04T11:08:59.406Z</time></trkpt><trkpt lat="41.2401283" lon="14.3015733"><ele>452.20000000000005</ele><time>2026-05-04T11:09:00.408Z</time></trkpt><trkpt lat="41.2402367" lon="14.3015433"><ele>452.40000000000003</ele><time>2026-05-04T11:09:02.406Z</time></trkpt><trkpt lat="41.2403367" lon="14.3015067"><ele>452.59999999999997</ele><time>2026-05-04T11:09:04.403Z</time></trkpt><trkpt lat="41.2404283" lon="14.30146"><ele>452.79999999999995</ele><time>2026-05-04T11:09:06.404Z</time></trkpt><trkpt lat="41.2405117" lon="14.30143"><ele>453.0</ele><time>2026-05-04T11:09:08.404Z</time></trkpt><trkpt lat="41.2405983" lon="14.30139"><ele>454.59999999999997</ele><time>2026-05-04T11:09:10.407Z</time></trkpt><trkpt lat="41.2406817" lon="14.3013433"><ele>456.19999999999993</ele><time>2026-05-04T11:09:12.404Z</time></trkpt><trkpt lat="41.2407667" lon="14.3013033"><ele>457.8</ele><time>2026-05-04T11:09:14.406Z</time></trkpt><trkpt lat="41.2408567" lon="14.3012633"><ele>459.4</ele><time>2026-05-04T11:09:16.404Z</time></trkpt><trkpt lat="41.2409417" lon="14.3012233"><ele>461.0</ele><time>2026-05-04T11:09:18.405Z</time></trkpt><trkpt lat="41.2410233" lon="14.3011833"><ele>460.99999999999994</ele><time>2026-05-04T11:09:20.405Z</time></trkpt><trkpt lat="41.24111" lon="14.3011483"><ele>461.0</ele><time>2026-05-04T11:09:22.403Z</time></trkpt><trkpt lat="41.2411867" lon="14.3011067"><ele>461.0</ele><time>2026-05-04T11:09:24.404Z</time></trkpt><trkpt lat="41.24126" lon="14.301065"><ele>461.0</ele><time>2026-05-04T11:09:26.405Z</time></trkpt><trkpt lat="41.2413283" lon="14.3010083"><ele>460.99999999999994</ele><time>2026-05-04T11:09:28.406Z</time></trkpt><trkpt lat="41.2413883" lon="14.300935"><ele>461.0</ele><time>2026-05-04T11:09:30.406Z</time></trkpt><trkpt lat="41.24145" lon="14.3008667"><ele>461.49999999999994</ele><time>2026-05-04T11:09:32.407Z</time></trkpt><trkpt lat="41.241505" lon="14.30079"><ele>462.0</ele><time>2026-05-04T11:09:34.406Z</time></trkpt><trkpt lat="41.241555" lon="14.300725"><ele>462.5</ele><time>2026-05-04T11:09:36.405Z</time></trkpt><trkpt lat="41.2416117" lon="14.30065"><ele>463.0</ele><time>2026-05-04T11:09:38.406Z</time></trkpt><trkpt lat="41.2416667" lon="14.3005883"><ele>463.49999999999994</ele><time>2026-05-04T11:09:40.406Z</time></trkpt><trkpt lat="41.2417233" lon="14.3005167"><ele>464.0</ele><time>2026-05-04T11:09:42.406Z</time></trkpt><trkpt lat="41.241785" lon="14.3004517"><ele>465.8333333333333</ele><time>2026-05-04T11:09:44.406Z</time></trkpt><trkpt lat="41.24184" lon="14.3003883"><ele>467.66666666666663</ele><time>2026-05-04T11:09:46.406Z</time></trkpt><trkpt lat="41.241905" lon="14.3003333"><ele>469.5</ele><time>2026-05-04T11:09:48.404Z</time></trkpt><trkpt lat="41.241975" lon="14.300275"><ele>471.33333333333337</ele><time>2026-05-04T11:09:50.406Z</time></trkpt><trkpt lat="41.2420483" lon="14.3002183"><ele>473.1666666666667</ele><time>2026-05-04T11:09:52.406Z</time></trkpt><trkpt lat="41.242115" lon="14.3001583"><ele>475.0</ele><time>2026-05-04T11:09:54.406Z</time></trkpt><trkpt lat="41.2421967" lon="14.300105"><ele>475.00000000000006</ele><time>2026-05-04T11:09:56.406Z</time></trkpt><trkpt lat="41.2422783" lon="14.3000567"><ele>475.0</ele><time>2026-05-04T11:09:58.407Z</time></trkpt><trkpt lat="41.2423517" lon="14.3000017"><ele>475.0</ele><time>2026-05-04T11:10:00.406Z</time></trkpt><trkpt lat="41.2424267" lon="14.2999533"><ele>475.0</ele><time>2026-05-04T11:10:02.405Z</time></trkpt><trkpt lat="41.2425067" lon="14.29991"><ele>475.00000000000006</ele><time>2026-05-04T11:10:04.405Z</time></trkpt><trkpt lat="41.2425783" lon="14.2998533"><ele>475.0</ele><time>2026-05-04T11:10:06.405Z</time></trkpt><trkpt lat="41.24266" lon="14.2997917"><ele>476.1666666666667</ele><time>2026-05-04T11:10:08.407Z</time></trkpt><trkpt lat="41.2427417" lon="14.29974"><ele>477.33333333333337</ele><time>2026-05-04T11:10:10.406Z</time></trkpt><trkpt lat="41.2428133" lon="14.2996917"><ele>478.5</ele><time>2026-05-04T11:10:12.406Z</time></trkpt><trkpt lat="41.2428867" lon="14.299645"><ele>479.66666666666663</ele><time>2026-05-04T11:10:14.406Z</time></trkpt><trkpt lat="41.2429633" lon="14.2996067"><ele>480.8333333333333</ele><time>2026-05-04T11:10:16.406Z</time></trkpt><trkpt lat="41.2430533" lon="14.2995717"><ele>482.0</ele><time>2026-05-04T11:10:18.406Z</time></trkpt><trkpt lat="41.2431433" lon="14.2995283"><ele>479.0</ele><time>2026-05-04T11:10:20.407Z</time></trkpt><trkpt lat="41.2432517" lon="14.29951"><ele>476.00000000000006</ele><time>2026-05-04T11:10:22.406Z</time></trkpt><trkpt lat="41.2433717" lon="14.299485"><ele>473.00000000000006</ele><time>2026-05-04T11:10:24.406Z</time></trkpt><trkpt lat="41.2434867" lon="14.2994733"><ele>470.0</ele><time>2026-05-04T11:10:26.407Z</time></trkpt><trkpt lat="41.2435517" lon="14.2994633"><ele>467.0</ele><time>2026-05-04T11:10:27.404Z</time></trkpt><trkpt lat="41.2436183" lon="14.2994483"><ele>466.99999999999994</ele><time>2026-05-04T11:10:28.404Z</time></trkpt><trkpt lat="41.2436833" lon="14.2994267"><ele>467.0</ele><time>2026-05-04T11:10:29.406Z</time></trkpt><trkpt lat="41.2437483" lon="14.2994017"><ele>466.99999999999994</ele><time>2026-05-04T11:10:30.404Z</time></trkpt><trkpt lat="41.24381" lon="14.2993667"><ele>466.99999999999994</ele><time>2026-05-04T11:10:31.405Z</time></trkpt><trkpt lat="41.2438683" lon="14.2993183"><ele>467.0</ele><time>2026-05-04T11:10:32.405Z</time></trkpt><trkpt lat="41.2439233" lon="14.29927"><ele>466.99999999999994</ele><time>2026-05-04T11:10:33.403Z</time></trkpt><trkpt lat="41.2439817" lon="14.299225"><ele>466.99999999999994</ele><time>2026-05-04T11:10:34.405Z</time></trkpt><trkpt lat="41.2440433" lon="14.2991767"><ele>467.2857142857142</ele><time>2026-05-04T11:10:35.405Z</time></trkpt><trkpt lat="41.2441033" lon="14.29913"><ele>467.57142857142856</ele><time>2026-05-04T11:10:36.404Z</time></trkpt><trkpt lat="41.2441617" lon="14.29908"><ele>467.85714285714283</ele><time>2026-05-04T11:10:37.406Z</time></trkpt><trkpt lat="41.2442217" lon="14.2990283"><ele>468.1428571428571</ele><time>2026-05-04T11:10:38.405Z</time></trkpt><trkpt lat="41.24428" lon="14.2989733"><ele>468.42857142857144</ele><time>2026-05-04T11:10:39.406Z</time></trkpt><trkpt lat="41.2443433" lon="14.298915"><ele>468.7142857142857</ele><time>2026-05-04T11:10:40.406Z</time></trkpt><trkpt lat="41.2444117" lon="14.29886"><ele>469.0</ele><time>2026-05-04T11:10:41.405Z</time></trkpt><trkpt lat="41.2444783" lon="14.2988083"><ele>469.00000000000006</ele><time>2026-05-04T11:10:42.405Z</time></trkpt><trkpt lat="41.24455" lon="14.2987533"><ele>469.0</ele><time>2026-05-04T11:10:43.406Z</time></trkpt><trkpt lat="41.2446167" lon="14.298705"><ele>469.0</ele><time>2026-05-04T11:10:44.405Z</time></trkpt><trkpt lat="41.244685" lon="14.2986533"><ele>469.0</ele><time>2026-05-04T11:10:45.404Z</time></trkpt><trkpt lat="41.2447517" lon="14.2985967"><ele>469.00000000000006</ele><time>2026-05-04T11:10:46.406Z</time></trkpt><trkpt lat="41.244815" lon="14.2985333"><ele>469.0</ele><time>2026-05-04T11:10:47.405Z</time></trkpt><trkpt lat="41.244875" lon="14.2984667"><ele>469.00000000000006</ele><time>2026-05-04T11:10:48.403Z</time></trkpt><trkpt lat="41.2449333" lon="14.298395"><ele>469.0</ele><time>2026-05-04T11:10:49.406Z</time></trkpt><trkpt lat="41.2449883" lon="14.2983217"><ele>469.0</ele><time>2026-05-04T11:10:50.406Z</time></trkpt><trkpt lat="41.2450433" lon="14.2982483"><ele>469.0</ele><time>2026-05-04T11:10:51.405Z</time></trkpt><trkpt lat="41.2451" lon="14.298175"><ele>469.00000000000006</ele><time>2026-05-04T11:10:52.405Z</time></trkpt><trkpt lat="41.2451517" lon="14.2980967"><ele>469.0</ele><time>2026-05-04T11:10:53.405Z</time></trkpt><trkpt lat="41.2452017" lon="14.2980167"><ele>469.00000000000006</ele><time>2026-05-04T11:10:54.404Z</time></trkpt><trkpt lat="41.2452533" lon="14.29794"><ele>469.0</ele><time>2026-05-04T11:10:55.408Z</time></trkpt><trkpt lat="41.2453117" lon="14.2978667"><ele>469.0</ele><time>2026-05-04T11:10:56.405Z</time></trkpt><trkpt lat="41.2453717" lon="14.2977983"><ele>469.0</ele><time>2026-05-04T11:10:57.404Z</time></trkpt><trkpt lat="41.2454367" lon="14.2977417"><ele>469.00000000000006</ele><time>2026-05-04T11:10:58.406Z</time></trkpt><trkpt lat="41.2455017" lon="14.2976867"><ele>469.0</ele><time>2026-05-04T11:10:59.405Z</time></trkpt><trkpt lat="41.2455667" lon="14.2976283"><ele>467.1666666666667</ele><time>2026-05-04T11:11:00.405Z</time></trkpt><trkpt lat="41.2456317" lon="14.2975683"><ele>465.33333333333337</ele><time>2026-05-04T11:11:01.405Z</time></trkpt><trkpt lat="41.2457017" lon="14.29751"><ele>463.5</ele><time>2026-05-04T11:11:02.405Z</time></trkpt><trkpt lat="41.2457717" lon="14.2974533"><ele>461.66666666666663</ele><time>2026-05-04T11:11:03.406Z</time></trkpt><trkpt lat="41.2458433" lon="14.2973917"><ele>459.8333333333333</ele><time>2026-05-04T11:11:04.405Z</time></trkpt><trkpt lat="41.2459133" lon="14.2973267"><ele>458.0</ele><time>2026-05-04T11:11:05.406Z</time></trkpt><trkpt lat="41.2459767" lon="14.2972583"><ele>459.3333333333333</ele><time>2026-05-04T11:11:06.404Z</time></trkpt><trkpt lat="41.2460317" lon="14.297185"><ele>460.66666666666663</ele><time>2026-05-04T11:11:07.405Z</time></trkpt><trkpt lat="41.2460833" lon="14.2971033"><ele>462.0</ele><time>2026-05-04T11:11:08.405Z</time></trkpt><trkpt lat="41.2461333" lon="14.297015"><ele>463.33333333333337</ele><time>2026-05-04T11:11:09.404Z</time></trkpt><trkpt lat="41.2461967" lon="14.2969233"><ele>464.6666666666667</ele><time>2026-05-04T11:11:10.406Z</time></trkpt><trkpt lat="41.2462633" lon="14.2968383"><ele>466.0</ele><time>2026-05-04T11:11:11.405Z</time></trkpt><trkpt lat="41.246335" lon="14.2967517"><ele>466.0</ele><time>2026-05-04T11:11:12.405Z</time></trkpt><trkpt lat="41.2464083" lon="14.29667"><ele>466.0</ele><time>2026-05-04T11:11:13.406Z</time></trkpt><trkpt lat="41.246485" lon="14.2965917"><ele>466.0</ele><time>2026-05-04T11:11:14.405Z</time></trkpt><trkpt lat="41.2465617" lon="14.2965183"><ele>466.0</ele><time>2026-05-04T11:11:15.404Z</time></trkpt><trkpt lat="41.2466383" lon="14.296445"><ele>466.0</ele><time>2026-05-04T11:11:16.404Z</time></trkpt><trkpt lat="41.246715" lon="14.296365"><ele>464.6</ele><time>2026-05-04T11:11:17.404Z</time></trkpt><trkpt lat="41.246785" lon="14.2962783"><ele>463.20000000000005</ele><time>2026-05-04T11:11:18.405Z</time></trkpt><trkpt lat="41.2468567" lon="14.2961867"><ele>461.79999999999995</ele><time>2026-05-04T11:11:19.406Z</time></trkpt><trkpt lat="41.24693" lon="14.29609"><ele>460.4</ele><time>2026-05-04T11:11:20.405Z</time></trkpt><trkpt lat="41.2469983" lon="14.2959833"><ele>459.0</ele><time>2026-05-04T11:11:21.405Z</time></trkpt><trkpt lat="41.2470633" lon="14.2958733"><ele>459.0</ele><time>2026-05-04T11:11:22.406Z</time></trkpt><trkpt lat="41.2471267" lon="14.2957583"><ele>459.0</ele><time>2026-05-04T11:11:23.405Z</time></trkpt><trkpt lat="41.2471917" lon="14.2956433"><ele>459.0</ele><time>2026-05-04T11:11:24.404Z</time></trkpt><trkpt lat="41.2472633" lon="14.2955333"><ele>459.0</ele><time>2026-05-04T11:11:25.406Z</time></trkpt><trkpt lat="41.247335" lon="14.295425"><ele>459.0</ele><time>2026-05-04T11:11:26.405Z</time></trkpt><trkpt lat="41.247405" lon="14.2953167"><ele>459.79999999999995</ele><time>2026-05-04T11:11:27.403Z</time></trkpt><trkpt lat="41.2474733" lon="14.2952017"><ele>460.59999999999997</ele><time>2026-05-04T11:11:28.406Z</time></trkpt><trkpt lat="41.24754" lon="14.29508"><ele>461.4</ele><time>2026-05-04T11:11:29.404Z</time></trkpt><trkpt lat="41.2476067" lon="14.2949583"><ele>462.2</ele><time>2026-05-04T11:11:30.406Z</time></trkpt><trkpt lat="41.2476667" lon="14.294845"><ele>463.0</ele><time>2026-05-04T11:11:31.404Z</time></trkpt><trkpt lat="41.247715" lon="14.2947483"><ele>463.00000000000006</ele><time>2026-05-04T11:11:32.403Z</time></trkpt><trkpt lat="41.2477517" lon="14.294655"><ele>463.0</ele><time>2026-05-04T11:11:33.403Z</time></trkpt><trkpt lat="41.2478" lon="14.2945733"><ele>463.0</ele><time>2026-05-04T11:11:34.405Z</time></trkpt><trkpt lat="41.2478583" lon="14.2944983"><ele>463.0</ele><time>2026-05-04T11:11:35.406Z</time></trkpt><trkpt lat="41.24792" lon="14.2944283"><ele>463.00000000000006</ele><time>2026-05-04T11:11:36.404Z</time></trkpt><trkpt lat="41.24799" lon="14.2943733"><ele>463.0</ele><time>2026-05-04T11:11:37.405Z</time></trkpt><trkpt lat="41.2480667" lon="14.2943283"><ele>460.50000000000006</ele><time>2026-05-04T11:11:38.405Z</time></trkpt><trkpt lat="41.2481533" lon="14.2942867"><ele>458.0</ele><time>2026-05-04T11:11:39.404Z</time></trkpt><trkpt lat="41.2482367" lon="14.2942317"><ele>455.5</ele><time>2026-05-04T11:11:40.404Z</time></trkpt><trkpt lat="41.2483133" lon="14.29418"><ele>453.0</ele><time>2026-05-04T11:11:41.404Z</time></trkpt><trkpt lat="41.2483867" lon="14.2941233"><ele>450.50000000000006</ele><time>2026-05-04T11:11:42.405Z</time></trkpt><trkpt lat="41.2484633" lon="14.2940633"><ele>448.0</ele><time>2026-05-04T11:11:43.404Z</time></trkpt><trkpt lat="41.24854" lon="14.2940067"><ele>448.00000000000006</ele><time>2026-05-04T11:11:44.405Z</time></trkpt><trkpt lat="41.2486117" lon="14.293945"><ele>448.0</ele><time>2026-05-04T11:11:45.404Z</time></trkpt><trkpt lat="41.2486817" lon="14.2938817"><ele>448.0</ele><time>2026-05-04T11:11:46.406Z</time></trkpt><trkpt lat="41.2487533" lon="14.29382"><ele>448.0</ele><time>2026-05-04T11:11:47.405Z</time></trkpt><trkpt lat="41.24882" lon="14.2937567"><ele>448.00000000000006</ele><time>2026-05-04T11:11:48.405Z</time></trkpt><trkpt lat="41.2488883" lon="14.2936933"><ele>448.0</ele><time>2026-05-04T11:11:49.405Z</time></trkpt><trkpt lat="41.2489517" lon="14.2936317"><ele>446.33333333333337</ele><time>2026-05-04T11:11:50.403Z</time></trkpt><trkpt lat="41.2490233" lon="14.29358"><ele>444.6666666666667</ele><time>2026-05-04T11:11:51.405Z</time></trkpt><trkpt lat="41.2491017" lon="14.2935433"><ele>443.0</ele><time>2026-05-04T11:11:52.405Z</time></trkpt><trkpt lat="41.2491833" lon="14.293535"><ele>441.33333333333337</ele><time>2026-05-04T11:11:53.403Z</time></trkpt><trkpt lat="41.249265" lon="14.2935333"><ele>439.6666666666667</ele><time>2026-05-04T11:11:54.404Z</time></trkpt><trkpt lat="41.2493433" lon="14.2935433"><ele>438.0</ele><time>2026-05-04T11:11:55.405Z</time></trkpt><trkpt lat="41.2494167" lon="14.29358"><ele>438.0</ele><time>2026-05-04T11:11:56.405Z</time></trkpt><trkpt lat="41.2494883" lon="14.2936233"><ele>438.0</ele><time>2026-05-04T11:11:57.403Z</time></trkpt><trkpt lat="41.2495483" lon="14.293675"><ele>438.0</ele><time>2026-05-04T11:11:58.404Z</time></trkpt><trkpt lat="41.2496517" lon="14.293785"><ele>438.0</ele><time>2026-05-04T11:12:00.405Z</time></trkpt><trkpt lat="41.2497067" lon="14.293855"><ele>438.0</ele><time>2026-05-04T11:12:01.406Z</time></trkpt><trkpt lat="41.2497617" lon="14.2939217"><ele>438.0</ele><time>2026-05-04T11:12:02.405Z</time></trkpt><trkpt lat="41.2498183" lon="14.2939867"><ele>439.0</ele><time>2026-05-04T11:12:03.404Z</time></trkpt><trkpt lat="41.2498833" lon="14.294045"><ele>440.0</ele><time>2026-05-04T11:12:04.404Z</time></trkpt><trkpt lat="41.2499517" lon="14.2940817"><ele>441.0</ele><time>2026-05-04T11:12:05.404Z</time></trkpt><trkpt lat="41.2500217" lon="14.2941067"><ele>442.0</ele><time>2026-05-04T11:12:06.405Z</time></trkpt><trkpt lat="41.2500933" lon="14.2941217"><ele>443.0</ele><time>2026-05-04T11:12:07.405Z</time></trkpt><trkpt lat="41.25017" lon="14.29413"><ele>444.0</ele><time>2026-05-04T11:12:08.406Z</time></trkpt><trkpt lat="41.25024" lon="14.2941367"><ele>445.0</ele><time>2026-05-04T11:12:09.405Z</time></trkpt><trkpt lat="41.2503133" lon="14.29414"><ele>445.0</ele><time>2026-05-04T11:12:10.406Z</time></trkpt><trkpt lat="41.25039" lon="14.2941433"><ele>445.0</ele><time>2026-05-04T11:12:11.406Z</time></trkpt><trkpt lat="41.2504633" lon="14.2941433"><ele>445.0</ele><time>2026-05-04T11:12:12.405Z</time></trkpt><trkpt lat="41.2505367" lon="14.2941433"><ele>445.0</ele><time>2026-05-04T11:12:13.406Z</time></trkpt><trkpt lat="41.2506083" lon="14.2941383"><ele>445.0</ele><time>2026-05-04T11:12:14.404Z</time></trkpt><trkpt lat="41.2506833" lon="14.294135"><ele>445.0</ele><time>2026-05-04T11:12:15.403Z</time></trkpt><trkpt lat="41.2507533" lon="14.2941317"><ele>445.0</ele><time>2026-05-04T11:12:16.406Z</time></trkpt><trkpt lat="41.2508217" lon="14.2941333"><ele>444.42857142857144</ele><time>2026-05-04T11:12:17.406Z</time></trkpt><trkpt lat="41.2508917" lon="14.29414"><ele>443.85714285714283</ele><time>2026-05-04T11:12:18.405Z</time></trkpt><trkpt lat="41.25096" lon="14.294145"><ele>443.2857142857143</ele><time>2026-05-04T11:12:19.406Z</time></trkpt><trkpt lat="41.2510317" lon="14.294155"><ele>442.7142857142857</ele><time>2026-05-04T11:12:20.405Z</time></trkpt><trkpt lat="41.2511017" lon="14.294165"><ele>442.1428571428571</ele><time>2026-05-04T11:12:21.404Z</time></trkpt><trkpt lat="41.2511717" lon="14.2941767"><ele>441.57142857142856</ele><time>2026-05-04T11:12:22.405Z</time></trkpt><trkpt lat="41.2512383" lon="14.29419"><ele>441.0</ele><time>2026-05-04T11:12:23.404Z</time></trkpt><trkpt lat="41.25131" lon="14.294205"><ele>441.0</ele><time>2026-05-04T11:12:24.406Z</time></trkpt><trkpt lat="41.25138" lon="14.294215"><ele>441.0</ele><time>2026-05-04T11:12:25.406Z</time></trkpt><trkpt lat="41.2514583" lon="14.2942183"><ele>441.0</ele><time>2026-05-04T11:12:26.406Z</time></trkpt><trkpt lat="41.2515283" lon="14.2942083"><ele>441.0</ele><time>2026-05-04T11:12:27.403Z</time></trkpt><trkpt lat="41.251595" lon="14.2941917"><ele>441.0</ele><time>2026-05-04T11:12:28.405Z</time></trkpt><trkpt lat="41.2516633" lon="14.2941633"><ele>441.0</ele><time>2026-05-04T11:12:29.403Z</time></trkpt><trkpt lat="41.2517283" lon="14.2941183"><ele>441.0</ele><time>2026-05-04T11:12:30.404Z</time></trkpt><trkpt lat="41.2517767" lon="14.29406"><ele>441.6666666666667</ele><time>2026-05-04T11:12:31.404Z</time></trkpt><trkpt lat="41.251825" lon="14.2939917"><ele>442.33333333333337</ele><time>2026-05-04T11:12:32.403Z</time></trkpt><trkpt lat="41.25187" lon="14.2939183"><ele>443.0</ele><time>2026-05-04T11:12:33.403Z</time></trkpt><trkpt lat="41.25191" lon="14.2938333"><ele>443.6666666666667</ele><time>2026-05-04T11:12:34.403Z</time></trkpt><trkpt lat="41.25194" lon="14.2937483"><ele>444.33333333333337</ele><time>2026-05-04T11:12:35.402Z</time></trkpt><trkpt lat="41.2519683" lon="14.2935867"><ele>445.0</ele><time>2026-05-04T11:12:37.403Z</time></trkpt><trkpt lat="41.2519783" lon="14.29343"><ele>443.50000000000006</ele><time>2026-05-04T11:12:39.405Z</time></trkpt><trkpt lat="41.25198" lon="14.2932583"><ele>442.0</ele><time>2026-05-04T11:12:41.402Z</time></trkpt><trkpt lat="41.2519883" lon="14.2931667"><ele>440.5</ele><time>2026-05-04T11:12:42.402Z</time></trkpt><trkpt lat="41.2519983" lon="14.2930817"><ele>439.0</ele><time>2026-05-04T11:12:43.403Z</time></trkpt><trkpt lat="41.2520033" lon="14.2929883"><ele>437.50000000000006</ele><time>2026-05-04T11:12:44.403Z</time></trkpt><trkpt lat="41.2520183" lon="14.2929"><ele>436.0</ele><time>2026-05-04T11:12:45.403Z</time></trkpt><trkpt lat="41.25204" lon="14.2928117"><ele>435.0</ele><time>2026-05-04T11:12:46.405Z</time></trkpt><trkpt lat="41.25206" lon="14.2927283"><ele>434.0</ele><time>2026-05-04T11:12:47.404Z</time></trkpt><trkpt lat="41.252135" lon="14.2925867"><ele>433.0</ele><time>2026-05-04T11:12:49.404Z</time></trkpt><trkpt lat="41.2521767" lon="14.2925083"><ele>432.0</ele><time>2026-05-04T11:12:50.404Z</time></trkpt><trkpt lat="41.2522617" lon="14.2923833"><ele>431.0</ele><time>2026-05-04T11:12:52.404Z</time></trkpt><trkpt lat="41.252355" lon="14.2922717"><ele>432.0</ele><time>2026-05-04T11:12:54.405Z</time></trkpt><trkpt lat="41.2524467" lon="14.2921783"><ele>433.0</ele><time>2026-05-04T11:12:56.405Z</time></trkpt><trkpt lat="41.25255" lon="14.2920733"><ele>434.0</ele><time>2026-05-04T11:12:58.406Z</time></trkpt><trkpt lat="41.2526433" lon="14.2919883"><ele>435.0</ele><time>2026-05-04T11:13:00.405Z</time></trkpt><trkpt lat="41.25275" lon="14.29192"><ele>435.0</ele><time>2026-05-04T11:13:02.405Z</time></trkpt><trkpt lat="41.25281" lon="14.2918933"><ele>435.0</ele><time>2026-05-04T11:13:03.404Z</time></trkpt><trkpt lat="41.252925" lon="14.2918467"><ele>435.0</ele><time>2026-05-04T11:13:05.406Z</time></trkpt><trkpt lat="41.25304" lon="14.2918017"><ele>435.0</ele><time>2026-05-04T11:13:07.406Z</time></trkpt><trkpt lat="41.25316" lon="14.2917883"><ele>435.0</ele><time>2026-05-04T11:13:09.405Z</time></trkpt><trkpt lat="41.2532833" lon="14.2918067"><ele>435.8333333333333</ele><time>2026-05-04T11:13:11.404Z</time></trkpt><trkpt lat="41.2533983" lon="14.2918683"><ele>436.66666666666663</ele><time>2026-05-04T11:13:13.406Z</time></trkpt><trkpt lat="41.25345" lon="14.2919167"><ele>437.5</ele><time>2026-05-04T11:13:14.404Z</time></trkpt><trkpt lat="41.25355" lon="14.292005"><ele>438.3333333333333</ele><time>2026-05-04T11:13:16.404Z</time></trkpt><trkpt lat="41.2536067" lon="14.2920517"><ele>439.16666666666663</ele><time>2026-05-04T11:13:17.406Z</time></trkpt><trkpt lat="41.2536667" lon="14.2920867"><ele>440.0</ele><time>2026-05-04T11:13:18.404Z</time></trkpt><trkpt lat="41.2537317" lon="14.2921183"><ele>439.99999999999994</ele><time>2026-05-04T11:13:19.404Z</time></trkpt><trkpt lat="41.2538033" lon="14.2921383"><ele>440.0</ele><time>2026-05-04T11:13:20.403Z</time></trkpt><trkpt lat="41.25388" lon="14.29215"><ele>440.0</ele><time>2026-05-04T11:13:21.405Z</time></trkpt><trkpt lat="41.2539567" lon="14.292155"><ele>440.0</ele><time>2026-05-04T11:13:22.404Z</time></trkpt><trkpt lat="41.2540283" lon="14.2921617"><ele>440.0</ele><time>2026-05-04T11:13:23.404Z</time></trkpt><trkpt lat="41.2540983" lon="14.292175"><ele>439.99999999999994</ele><time>2026-05-04T11:13:24.405Z</time></trkpt><trkpt lat="41.254165" lon="14.2922017"><ele>440.0</ele><time>2026-05-04T11:13:25.403Z</time></trkpt><trkpt lat="41.2542283" lon="14.2922383"><ele>440.99999999999994</ele><time>2026-05-04T11:13:26.404Z</time></trkpt><trkpt lat="41.2542917" lon="14.2922817"><ele>442.0</ele><time>2026-05-04T11:13:27.405Z</time></trkpt><trkpt lat="41.2543533" lon="14.292335"><ele>443.0</ele><time>2026-05-04T11:13:28.405Z</time></trkpt><trkpt lat="41.2544183" lon="14.2923967"><ele>444.0</ele><time>2026-05-04T11:13:29.405Z</time></trkpt><trkpt lat="41.254485" lon="14.2924617"><ele>444.99999999999994</ele><time>2026-05-04T11:13:30.405Z</time></trkpt><trkpt lat="41.2545583" lon="14.2925317"><ele>446.0</ele><time>2026-05-04T11:13:31.405Z</time></trkpt><trkpt lat="41.2546283" lon="14.2926033"><ele>446.0</ele><time>2026-05-04T11:13:32.404Z</time></trkpt><trkpt lat="41.2547" lon="14.2926783"><ele>446.0</ele><time>2026-05-04T11:13:33.405Z</time></trkpt><trkpt lat="41.2547733" lon="14.2927533"><ele>446.0</ele><time>2026-05-04T11:13:34.404Z</time></trkpt><trkpt lat="41.2548467" lon="14.2928317"><ele>446.0</ele><time>2026-05-04T11:13:35.406Z</time></trkpt><trkpt lat="41.25492" lon="14.2929133"><ele>446.0</ele><time>2026-05-04T11:13:36.405Z</time></trkpt><trkpt lat="41.2549883" lon="14.293005"><ele>445.4</ele><time>2026-05-04T11:13:37.405Z</time></trkpt><trkpt lat="41.255055" lon="14.2931067"><ele>444.8</ele><time>2026-05-04T11:13:38.404Z</time></trkpt><trkpt lat="41.2551167" lon="14.2932183"><ele>444.19999999999993</ele><time>2026-05-04T11:13:39.404Z</time></trkpt><trkpt lat="41.2551683" lon="14.2933417"><ele>443.59999999999997</ele><time>2026-05-04T11:13:40.404Z</time></trkpt><trkpt lat="41.255215" lon="14.29347"><ele>443.0</ele><time>2026-05-04T11:13:41.405Z</time></trkpt><trkpt lat="41.25526" lon="14.293605"><ele>443.0</ele><time>2026-05-04T11:13:42.405Z</time></trkpt><trkpt lat="41.2552933" lon="14.2937367"><ele>442.99999999999994</ele><time>2026-05-04T11:13:43.405Z</time></trkpt><trkpt lat="41.2553417" lon="14.2938583"><ele>442.99999999999994</ele><time>2026-05-04T11:13:44.405Z</time></trkpt><trkpt lat="41.2553917" lon="14.293975"><ele>443.0</ele><time>2026-05-04T11:13:45.405Z</time></trkpt><trkpt lat="41.255445" lon="14.29408"><ele>443.0</ele><time>2026-05-04T11:13:46.405Z</time></trkpt><trkpt lat="41.25551" lon="14.294185"><ele>443.59999999999997</ele><time>2026-05-04T11:13:47.405Z</time></trkpt><trkpt lat="41.25559" lon="14.2942817"><ele>444.19999999999993</ele><time>2026-05-04T11:13:48.405Z</time></trkpt><trkpt lat="41.2556733" lon="14.2943667"><ele>444.8</ele><time>2026-05-04T11:13:49.405Z</time></trkpt><trkpt lat="41.25576" lon="14.2944533"><ele>445.4</ele><time>2026-05-04T11:13:50.405Z</time></trkpt><trkpt lat="41.2558417" lon="14.294565"><ele>446.0</ele><time>2026-05-04T11:13:51.405Z</time></trkpt><trkpt lat="41.2559367" lon="14.294655"><ele>441.0</ele><time>2026-05-04T11:13:52.405Z</time></trkpt><trkpt lat="41.2560317" lon="14.2947483"><ele>436.0</ele><time>2026-05-04T11:13:53.405Z</time></trkpt><trkpt lat="41.2561183" lon="14.2948417"><ele>431.0</ele><time>2026-05-04T11:13:54.406Z</time></trkpt><trkpt lat="41.2562083" lon="14.2949283"><ele>426.0</ele><time>2026-05-04T11:13:55.405Z</time></trkpt><trkpt lat="41.25631" lon="14.2950167"><ele>425.6</ele><time>2026-05-04T11:13:56.405Z</time></trkpt><trkpt lat="41.2563967" lon="14.295105"><ele>425.20000000000005</ele><time>2026-05-04T11:13:57.406Z</time></trkpt><trkpt lat="41.256475" lon="14.2951967"><ele>424.79999999999995</ele><time>2026-05-04T11:13:58.403Z</time></trkpt><trkpt lat="41.2565533" lon="14.2952883"><ele>424.4</ele><time>2026-05-04T11:13:59.406Z</time></trkpt><trkpt lat="41.2566383" lon="14.295375"><ele>424.0</ele><time>2026-05-04T11:14:00.406Z</time></trkpt><trkpt lat="41.2567217" lon="14.2954467"><ele>422.6</ele><time>2026-05-04T11:14:01.405Z</time></trkpt><trkpt lat="41.2568083" lon="14.2955033"><ele>421.2</ele><time>2026-05-04T11:14:02.406Z</time></trkpt><trkpt lat="41.2568967" lon="14.2955383"><ele>419.8</ele><time>2026-05-04T11:14:03.405Z</time></trkpt><trkpt lat="41.2569983" lon="14.29555"><ele>418.40000000000003</ele><time>2026-05-04T11:14:04.404Z</time></trkpt><trkpt lat="41.2571" lon="14.2955567"><ele>417.0</ele><time>2026-05-04T11:14:05.406Z</time></trkpt><trkpt lat="41.2571967" lon="14.2955733"><ele>416.3333333333333</ele><time>2026-05-04T11:14:06.406Z</time></trkpt><trkpt lat="41.2572817" lon="14.2956083"><ele>415.66666666666663</ele><time>2026-05-04T11:14:07.406Z</time></trkpt><trkpt lat="41.2573567" lon="14.2956517"><ele>415.0</ele><time>2026-05-04T11:14:08.405Z</time></trkpt><trkpt lat="41.2574167" lon="14.2957133"><ele>414.3333333333333</ele><time>2026-05-04T11:14:09.404Z</time></trkpt><trkpt lat="41.2574583" lon="14.2958117"><ele>413.66666666666663</ele><time>2026-05-04T11:14:10.405Z</time></trkpt><trkpt lat="41.25749" lon="14.2959167"><ele>413.0</ele><time>2026-05-04T11:14:11.406Z</time></trkpt><trkpt lat="41.2575033" lon="14.29603"><ele>413.0</ele><time>2026-05-04T11:14:12.404Z</time></trkpt><trkpt lat="41.2574933" lon="14.2961533"><ele>413.0</ele><time>2026-05-04T11:14:13.405Z</time></trkpt><trkpt lat="41.2574633" lon="14.29629"><ele>413.0</ele><time>2026-05-04T11:14:14.406Z</time></trkpt><trkpt lat="41.2574383" lon="14.2964217"><ele>413.0</ele><time>2026-05-04T11:14:15.403Z</time></trkpt><trkpt lat="41.257415" lon="14.2965583"><ele>413.0</ele><time>2026-05-04T11:14:16.404Z</time></trkpt><trkpt lat="41.25739" lon="14.2966933"><ele>412.4</ele><time>2026-05-04T11:14:17.404Z</time></trkpt><trkpt lat="41.2573683" lon="14.29683"><ele>411.79999999999995</ele><time>2026-05-04T11:14:18.406Z</time></trkpt><trkpt lat="41.2573467" lon="14.2969683"><ele>411.2</ele><time>2026-05-04T11:14:19.404Z</time></trkpt><trkpt lat="41.25732" lon="14.29712"><ele>410.6</ele><time>2026-05-04T11:14:20.404Z</time></trkpt><trkpt lat="41.2573" lon="14.297265"><ele>410.0</ele><time>2026-05-04T11:14:21.402Z</time></trkpt><trkpt lat="41.2572767" lon="14.2974183"><ele>414.0</ele><time>2026-05-04T11:14:22.404Z</time></trkpt><trkpt lat="41.2572617" lon="14.2975733"><ele>418.0</ele><time>2026-05-04T11:14:23.405Z</time></trkpt><trkpt lat="41.25724" lon="14.2977283"><ele>422.0</ele><time>2026-05-04T11:14:24.404Z</time></trkpt><trkpt lat="41.2572167" lon="14.2978883"><ele>426.0</ele><time>2026-05-04T11:14:25.406Z</time></trkpt><trkpt lat="41.2571833" lon="14.2980517"><ele>423.25</ele><time>2026-05-04T11:14:26.407Z</time></trkpt><trkpt lat="41.25715" lon="14.29821"><ele>420.5</ele><time>2026-05-04T11:14:27.405Z</time></trkpt><trkpt lat="41.2570867" lon="14.2983667"><ele>417.75</ele><time>2026-05-04T11:14:28.406Z</time></trkpt><trkpt lat="41.2570467" lon="14.298515"><ele>415.0</ele><time>2026-05-04T11:14:29.406Z</time></trkpt><trkpt lat="41.2570167" lon="14.2986633"><ele>415.0</ele><time>2026-05-04T11:14:30.405Z</time></trkpt><trkpt lat="41.256995" lon="14.2988167"><ele>415.0</ele><time>2026-05-04T11:14:31.404Z</time></trkpt><trkpt lat="41.256985" lon="14.2989717"><ele>415.0</ele><time>2026-05-04T11:14:32.403Z</time></trkpt><trkpt lat="41.25697" lon="14.2991283"><ele>415.0</ele><time>2026-05-04T11:14:33.404Z</time></trkpt><trkpt lat="41.2569667" lon="14.2992883"><ele>412.2</ele><time>2026-05-04T11:14:34.404Z</time></trkpt><trkpt lat="41.2569733" lon="14.299445"><ele>409.4</ele><time>2026-05-04T11:14:35.405Z</time></trkpt><trkpt lat="41.2569817" lon="14.29959"><ele>406.6</ele><time>2026-05-04T11:14:36.405Z</time></trkpt><trkpt lat="41.2569933" lon="14.2997217"><ele>403.8</ele><time>2026-05-04T11:14:37.405Z</time></trkpt><trkpt lat="41.25702" lon="14.2998467"><ele>401.0</ele><time>2026-05-04T11:14:38.406Z</time></trkpt><trkpt lat="41.2570583" lon="14.2999733"><ele>399.4</ele><time>2026-05-04T11:14:39.405Z</time></trkpt><trkpt lat="41.257105" lon="14.300095"><ele>397.8</ele><time>2026-05-04T11:14:40.405Z</time></trkpt><trkpt lat="41.2571517" lon="14.300225"><ele>396.2</ele><time>2026-05-04T11:14:41.405Z</time></trkpt><trkpt lat="41.2571967" lon="14.3003583"><ele>394.59999999999997</ele><time>2026-05-04T11:14:42.406Z</time></trkpt><trkpt lat="41.2572367" lon="14.3005"><ele>393.0</ele><time>2026-05-04T11:14:43.405Z</time></trkpt><trkpt lat="41.2572683" lon="14.30065"><ele>393.75</ele><time>2026-05-04T11:14:44.406Z</time></trkpt><trkpt lat="41.2572933" lon="14.3008067"><ele>394.5</ele><time>2026-05-04T11:14:45.404Z</time></trkpt><trkpt lat="41.2573067" lon="14.3009683"><ele>395.25</ele><time>2026-05-04T11:14:46.405Z</time></trkpt><trkpt lat="41.2573183" lon="14.3011367"><ele>396.0</ele><time>2026-05-04T11:14:47.405Z</time></trkpt><trkpt lat="41.2573183" lon="14.301305"><ele>395.25</ele><time>2026-05-04T11:14:48.404Z</time></trkpt><trkpt lat="41.257315" lon="14.3014783"><ele>394.5</ele><time>2026-05-04T11:14:49.406Z</time></trkpt><trkpt lat="41.25732" lon="14.3016533"><ele>393.75</ele><time>2026-05-04T11:14:50.406Z</time></trkpt><trkpt lat="41.25732" lon="14.3018417"><ele>393.0</ele><time>2026-05-04T11:14:51.405Z</time></trkpt><trkpt lat="41.2573267" lon="14.30203"><ele>393.0</ele><time>2026-05-04T11:14:52.404Z</time></trkpt><trkpt lat="41.25733" lon="14.30222"><ele>393.0</ele><time>2026-05-04T11:14:53.406Z</time></trkpt><trkpt lat="41.257345" lon="14.3024033"><ele>393.0</ele><time>2026-05-04T11:14:54.405Z</time></trkpt><trkpt lat="41.2573583" lon="14.3025867"><ele>393.0</ele><time>2026-05-04T11:14:55.407Z</time></trkpt><trkpt lat="41.2573667" lon="14.302765"><ele>390.75</ele><time>2026-05-04T11:14:56.406Z</time></trkpt><trkpt lat="41.2573833" lon="14.3029317"><ele>388.5</ele><time>2026-05-04T11:14:57.405Z</time></trkpt><trkpt lat="41.2573983" lon="14.3030883"><ele>386.25</ele><time>2026-05-04T11:14:58.405Z</time></trkpt><trkpt lat="41.2574117" lon="14.3032467"><ele>384.0</ele><time>2026-05-04T11:14:59.403Z</time></trkpt><trkpt lat="41.2574167" lon="14.30341"><ele>380.5</ele><time>2026-05-04T11:15:00.405Z</time></trkpt><trkpt lat="41.2574283" lon="14.3035683"><ele>377.0</ele><time>2026-05-04T11:15:01.405Z</time></trkpt><trkpt lat="41.2574483" lon="14.3037217"><ele>373.5</ele><time>2026-05-04T11:15:02.403Z</time></trkpt><trkpt lat="41.25747" lon="14.3038633"><ele>370.0</ele><time>2026-05-04T11:15:03.405Z</time></trkpt><trkpt lat="41.25749" lon="14.304"><ele>367.8333333333333</ele><time>2026-05-04T11:15:04.406Z</time></trkpt><trkpt lat="41.2575117" lon="14.3041183"><ele>365.66666666666663</ele><time>2026-05-04T11:15:05.405Z</time></trkpt><trkpt lat="41.2575467" lon="14.3042217"><ele>363.5</ele><time>2026-05-04T11:15:06.404Z</time></trkpt><trkpt lat="41.25759" lon="14.3043117"><ele>361.3333333333333</ele><time>2026-05-04T11:15:07.405Z</time></trkpt><trkpt lat="41.257635" lon="14.3043933"><ele>359.1666666666667</ele><time>2026-05-04T11:15:08.405Z</time></trkpt><trkpt lat="41.2576917" lon="14.3044483"><ele>357.0</ele><time>2026-05-04T11:15:09.403Z</time></trkpt><trkpt lat="41.2577583" lon="14.30447"><ele>357.0</ele><time>2026-05-04T11:15:10.406Z</time></trkpt><trkpt lat="41.2578317" lon="14.3044883"><ele>357.0</ele><time>2026-05-04T11:15:11.403Z</time></trkpt><trkpt lat="41.2578967" lon="14.3044683"><ele>357.0</ele><time>2026-05-04T11:15:12.406Z</time></trkpt><trkpt lat="41.2579717" lon="14.304395"><ele>357.0</ele><time>2026-05-04T11:15:13.408Z</time></trkpt><trkpt lat="41.25805" lon="14.304345"><ele>357.0</ele><time>2026-05-04T11:15:14.404Z</time></trkpt><trkpt lat="41.25813" lon="14.3042783"><ele>357.0</ele><time>2026-05-04T11:15:15.406Z</time></trkpt><trkpt lat="41.258215" lon="14.304215"><ele>357.0</ele><time>2026-05-04T11:15:16.405Z</time></trkpt><trkpt lat="41.25831" lon="14.3041633"><ele>357.0</ele><time>2026-05-04T11:15:17.406Z</time></trkpt><trkpt lat="41.2583933" lon="14.3041167"><ele>357.0</ele><time>2026-05-04T11:15:18.406Z</time></trkpt><trkpt lat="41.25847" lon="14.3040717"><ele>357.0</ele><time>2026-05-04T11:15:19.406Z</time></trkpt><trkpt lat="41.2585433" lon="14.3040283"><ele>357.0</ele><time>2026-05-04T11:15:20.405Z</time></trkpt><trkpt lat="41.2586117" lon="14.303975"><ele>357.0</ele><time>2026-05-04T11:15:21.408Z</time></trkpt><trkpt lat="41.2586733" lon="14.3038933"><ele>354.8</ele><time>2026-05-04T11:15:22.406Z</time></trkpt><trkpt lat="41.2587317" lon="14.3037967"><ele>352.6</ele><time>2026-05-04T11:15:23.406Z</time></trkpt><trkpt lat="41.25879" lon="14.3036933"><ele>350.40000000000003</ele><time>2026-05-04T11:15:24.405Z</time></trkpt><trkpt lat="41.2588583" lon="14.3035917"><ele>348.20000000000005</ele><time>2026-05-04T11:15:25.405Z</time></trkpt><trkpt lat="41.2589317" lon="14.3034817"><ele>346.0</ele><time>2026-05-04T11:15:26.405Z</time></trkpt><trkpt lat="41.2590033" lon="14.303385"><ele>346.0</ele><time>2026-05-04T11:15:27.404Z</time></trkpt><trkpt lat="41.2590767" lon="14.3032867"><ele>346.0</ele><time>2026-05-04T11:15:28.406Z</time></trkpt><trkpt lat="41.25916" lon="14.3031667"><ele>346.0</ele><time>2026-05-04T11:15:29.406Z</time></trkpt><trkpt lat="41.2592333" lon="14.3030517"><ele>346.0</ele><time>2026-05-04T11:15:30.406Z</time></trkpt><trkpt lat="41.259305" lon="14.3029417"><ele>348.8</ele><time>2026-05-04T11:15:31.406Z</time></trkpt><trkpt lat="41.25937" lon="14.3028167"><ele>351.6</ele><time>2026-05-04T11:15:32.405Z</time></trkpt><trkpt lat="41.25943" lon="14.3026983"><ele>354.4</ele><time>2026-05-04T11:15:33.404Z</time></trkpt><trkpt lat="41.2594917" lon="14.30258"><ele>357.2</ele><time>2026-05-04T11:15:34.405Z</time></trkpt><trkpt lat="41.2595383" lon="14.3024583"><ele>360.0</ele><time>2026-05-04T11:15:35.406Z</time></trkpt><trkpt lat="41.2595883" lon="14.3023417"><ele>363.4</ele><time>2026-05-04T11:15:36.404Z</time></trkpt><trkpt lat="41.259645" lon="14.3022267"><ele>366.8</ele><time>2026-05-04T11:15:37.405Z</time></trkpt><trkpt lat="41.2597017" lon="14.3021167"><ele>370.20000000000005</ele><time>2026-05-04T11:15:38.405Z</time></trkpt><trkpt lat="41.25974" lon="14.3020117"><ele>373.6</ele><time>2026-05-04T11:15:39.404Z</time></trkpt><trkpt lat="41.2597817" lon="14.3018917"><ele>377.0</ele><time>2026-05-04T11:15:40.404Z</time></trkpt><trkpt lat="41.2598317" lon="14.301765"><ele>370.5</ele><time>2026-05-04T11:15:41.405Z</time></trkpt><trkpt lat="41.25989" lon="14.3016367"><ele>364.0</ele><time>2026-05-04T11:15:42.404Z</time></trkpt><trkpt lat="41.2599467" lon="14.3015067"><ele>357.5</ele><time>2026-05-04T11:15:43.406Z</time></trkpt><trkpt lat="41.2600083" lon="14.3013767"><ele>351.0</ele><time>2026-05-04T11:15:44.406Z</time></trkpt><trkpt lat="41.2600817" lon="14.3012633"><ele>351.0</ele><time>2026-05-04T11:15:45.405Z</time></trkpt><trkpt lat="41.2601617" lon="14.3011683"><ele>351.0</ele><time>2026-05-04T11:15:46.405Z</time></trkpt><trkpt lat="41.2602333" lon="14.3010867"><ele>351.0</ele><time>2026-05-04T11:15:47.404Z</time></trkpt><trkpt lat="41.260315" lon="14.301015"><ele>351.0</ele><time>2026-05-04T11:15:48.404Z</time></trkpt><trkpt lat="41.2604" lon="14.30095"><ele>351.0</ele><time>2026-05-04T11:15:49.406Z</time></trkpt><trkpt lat="41.2604883" lon="14.3009"><ele>351.0</ele><time>2026-05-04T11:15:50.404Z</time></trkpt><trkpt lat="41.2605817" lon="14.300845"><ele>351.0</ele><time>2026-05-04T11:15:51.404Z</time></trkpt><trkpt lat="41.2606667" lon="14.300785"><ele>351.0</ele><time>2026-05-04T11:15:52.404Z</time></trkpt><trkpt lat="41.2607767" lon="14.300715"><ele>351.0</ele><time>2026-05-04T11:15:53.404Z</time></trkpt><trkpt lat="41.2608633" lon="14.300635"><ele>351.0</ele><time>2026-05-04T11:15:54.404Z</time></trkpt><trkpt lat="41.260945" lon="14.3005417"><ele>349.25</ele><time>2026-05-04T11:15:55.407Z</time></trkpt><trkpt lat="41.2610333" lon="14.3004317"><ele>347.5</ele><time>2026-05-04T11:15:56.404Z</time></trkpt><trkpt lat="41.261125" lon="14.3003317"><ele>345.75</ele><time>2026-05-04T11:15:57.404Z</time></trkpt><trkpt lat="41.2612183" lon="14.3002333"><ele>344.0</ele><time>2026-05-04T11:15:58.405Z</time></trkpt><trkpt lat="41.2613117" lon="14.30013"><ele>344.0</ele><time>2026-05-04T11:15:59.403Z</time></trkpt><trkpt lat="41.2614083" lon="14.3000283"><ele>344.0</ele><time>2026-05-04T11:16:00.404Z</time></trkpt><trkpt lat="41.2614983" lon="14.29993"><ele>344.0</ele><time>2026-05-04T11:16:01.404Z</time></trkpt><trkpt lat="41.2615883" lon="14.2998267"><ele>344.0</ele><time>2026-05-04T11:16:02.406Z</time></trkpt><trkpt lat="41.2616783" lon="14.29973"><ele>342.2</ele><time>2026-05-04T11:16:03.403Z</time></trkpt><trkpt lat="41.261765" lon="14.299635"><ele>340.4</ele><time>2026-05-04T11:16:04.405Z</time></trkpt><trkpt lat="41.2618533" lon="14.29955"><ele>338.6</ele><time>2026-05-04T11:16:05.404Z</time></trkpt><trkpt lat="41.2619383" lon="14.2994667"><ele>336.8</ele><time>2026-05-04T11:16:06.405Z</time></trkpt><trkpt lat="41.262025" lon="14.2993867"><ele>335.0</ele><time>2026-05-04T11:16:07.404Z</time></trkpt><trkpt lat="41.2621183" lon="14.2993083"><ele>335.0</ele><time>2026-05-04T11:16:08.404Z</time></trkpt><trkpt lat="41.2622117" lon="14.2992317"><ele>335.0</ele><time>2026-05-04T11:16:09.406Z</time></trkpt><trkpt lat="41.2623167" lon="14.2991567"><ele>335.0</ele><time>2026-05-04T11:16:10.405Z</time></trkpt><trkpt lat="41.2624167" lon="14.29906"><ele>335.0</ele><time>2026-05-04T11:16:11.403Z</time></trkpt><trkpt lat="41.2625133" lon="14.2989567"><ele>333.0</ele><time>2026-05-04T11:16:12.403Z</time></trkpt><trkpt lat="41.2626" lon="14.2988483"><ele>331.0</ele><time>2026-05-04T11:16:13.404Z</time></trkpt><trkpt lat="41.2626817" lon="14.2987467"><ele>329.0</ele><time>2026-05-04T11:16:14.403Z</time></trkpt><trkpt lat="41.26276" lon="14.2986333"><ele>327.0</ele><time>2026-05-04T11:16:15.403Z</time></trkpt><trkpt lat="41.2628433" lon="14.298515"><ele>327.0</ele><time>2026-05-04T11:16:16.405Z</time></trkpt><trkpt lat="41.26293" lon="14.2983933"><ele>327.0</ele><time>2026-05-04T11:16:17.405Z</time></trkpt><trkpt lat="41.263015" lon="14.2982683"><ele>327.0</ele><time>2026-05-04T11:16:18.404Z</time></trkpt><trkpt lat="41.26309" lon="14.2981567"><ele>327.0</ele><time>2026-05-04T11:16:19.406Z</time></trkpt><trkpt lat="41.26316" lon="14.2980467"><ele>324.3333333333333</ele><time>2026-05-04T11:16:20.405Z</time></trkpt><trkpt lat="41.2632267" lon="14.2979483"><ele>321.6666666666667</ele><time>2026-05-04T11:16:21.404Z</time></trkpt><trkpt lat="41.26328" lon="14.2978533"><ele>319.0</ele><time>2026-05-04T11:16:22.404Z</time></trkpt><trkpt lat="41.2633317" lon="14.2977683"><ele>316.33333333333337</ele><time>2026-05-04T11:16:23.405Z</time></trkpt><trkpt lat="41.2633883" lon="14.2976817"><ele>313.6666666666667</ele><time>2026-05-04T11:16:24.405Z</time></trkpt><trkpt lat="41.26345" lon="14.2976"><ele>311.0</ele><time>2026-05-04T11:16:25.406Z</time></trkpt><trkpt lat="41.2635217" lon="14.2975283"><ele>311.0</ele><time>2026-05-04T11:16:26.406Z</time></trkpt><trkpt lat="41.2635983" lon="14.2974683"><ele>311.0</ele><time>2026-05-04T11:16:27.405Z</time></trkpt><trkpt lat="41.2636733" lon="14.297415"><ele>311.0</ele><time>2026-05-04T11:16:28.405Z</time></trkpt><trkpt lat="41.2637517" lon="14.2973767"><ele>311.0</ele><time>2026-05-04T11:16:29.406Z</time></trkpt><trkpt lat="41.2638333" lon="14.29735"><ele>311.0</ele><time>2026-05-04T11:16:30.405Z</time></trkpt><trkpt lat="41.2639083" lon="14.2973483"><ele>311.0</ele><time>2026-05-04T11:16:31.405Z</time></trkpt><trkpt lat="41.2640267" lon="14.2973517"><ele>305.0</ele><time>2026-05-04T11:16:32.405Z</time></trkpt><trkpt lat="41.26415" lon="14.2973733"><ele>299.0</ele><time>2026-05-04T11:16:33.403Z</time></trkpt><trkpt lat="41.2642667" lon="14.29739"><ele>293.0</ele><time>2026-05-04T11:16:34.404Z</time></trkpt><trkpt lat="41.2643783" lon="14.29741"><ele>287.0</ele><time>2026-05-04T11:16:35.406Z</time></trkpt><trkpt lat="41.2644783" lon="14.2974383"><ele>287.0</ele><time>2026-05-04T11:16:36.403Z</time></trkpt><trkpt lat="41.2645717" lon="14.2974617"><ele>287.0</ele><time>2026-05-04T11:16:37.406Z</time></trkpt><trkpt lat="41.2646583" lon="14.2974883"><ele>287.0</ele><time>2026-05-04T11:16:38.406Z</time></trkpt><trkpt lat="41.264735" lon="14.297515"><ele>287.0</ele><time>2026-05-04T11:16:39.405Z</time></trkpt><trkpt lat="41.264805" lon="14.2975717"><ele>287.0</ele><time>2026-05-04T11:16:40.405Z</time></trkpt><trkpt lat="41.2648667" lon="14.2976533"><ele>287.0</ele><time>2026-05-04T11:16:41.407Z</time></trkpt><trkpt lat="41.2649233" lon="14.2977433"><ele>286.6</ele><time>2026-05-04T11:16:42.404Z</time></trkpt><trkpt lat="41.264965" lon="14.2978533"><ele>286.2</ele><time>2026-05-04T11:16:43.405Z</time></trkpt><trkpt lat="41.265" lon="14.2979717"><ele>285.8</ele><time>2026-05-04T11:16:44.405Z</time></trkpt><trkpt lat="41.2650383" lon="14.2980983"><ele>285.4</ele><time>2026-05-04T11:16:45.405Z</time></trkpt><trkpt lat="41.2650783" lon="14.2982233"><ele>285.0</ele><time>2026-05-04T11:16:46.405Z</time></trkpt><trkpt lat="41.2651267" lon="14.29835"><ele>282.6</ele><time>2026-05-04T11:16:47.406Z</time></trkpt><trkpt lat="41.2651833" lon="14.2984767"><ele>280.2</ele><time>2026-05-04T11:16:48.405Z</time></trkpt><trkpt lat="41.2652467" lon="14.2986"><ele>277.8</ele><time>2026-05-04T11:16:49.406Z</time></trkpt><trkpt lat="41.265305" lon="14.2987117"><ele>275.4</ele><time>2026-05-04T11:16:50.405Z</time></trkpt><trkpt lat="41.26535" lon="14.2988217"><ele>273.0</ele><time>2026-05-04T11:16:51.406Z</time></trkpt><trkpt lat="41.2653783" lon="14.298945"><ele>271.6</ele><time>2026-05-04T11:16:52.406Z</time></trkpt><trkpt lat="41.2653883" lon="14.299075"><ele>270.20000000000005</ele><time>2026-05-04T11:16:53.406Z</time></trkpt><trkpt lat="41.26539" lon="14.299215"><ele>268.8</ele><time>2026-05-04T11:16:54.405Z</time></trkpt><trkpt lat="41.2653833" lon="14.2993583"><ele>267.40000000000003</ele><time>2026-05-04T11:16:55.406Z</time></trkpt><trkpt lat="41.2653783" lon="14.2995017"><ele>266.0</ele><time>2026-05-04T11:16:56.405Z</time></trkpt><trkpt lat="41.2653783" lon="14.2996417"><ele>263.8</ele><time>2026-05-04T11:16:57.405Z</time></trkpt><trkpt lat="41.2653883" lon="14.29978"><ele>261.6</ele><time>2026-05-04T11:16:58.405Z</time></trkpt><trkpt lat="41.26541" lon="14.2999167"><ele>259.4</ele><time>2026-05-04T11:16:59.406Z</time></trkpt><trkpt lat="41.2654367" lon="14.3000517"><ele>257.2</ele><time>2026-05-04T11:17:00.406Z</time></trkpt><trkpt lat="41.265465" lon="14.3001867"><ele>255.0</ele><time>2026-05-04T11:17:01.406Z</time></trkpt><trkpt lat="41.2654983" lon="14.300305"><ele>255.0</ele><time>2026-05-04T11:17:02.406Z</time></trkpt><trkpt lat="41.2655417" lon="14.3004067"><ele>255.0</ele><time>2026-05-04T11:17:03.404Z</time></trkpt><trkpt lat="41.2655817" lon="14.30049"><ele>255.0</ele><time>2026-05-04T11:17:04.406Z</time></trkpt><trkpt lat="41.2656417" lon="14.3005583"><ele>255.0</ele><time>2026-05-04T11:17:05.406Z</time></trkpt><trkpt lat="41.2657117" lon="14.3006033"><ele>255.0</ele><time>2026-05-04T11:17:06.404Z</time></trkpt><trkpt lat="41.2657917" lon="14.3006383"><ele>255.0</ele><time>2026-05-04T11:17:07.406Z</time></trkpt><trkpt lat="41.26588" lon="14.300645"><ele>254.2</ele><time>2026-05-04T11:17:08.406Z</time></trkpt><trkpt lat="41.2659767" lon="14.3006383"><ele>253.4</ele><time>2026-05-04T11:17:09.404Z</time></trkpt><trkpt lat="41.266075" lon="14.3006167"><ele>252.60000000000002</ele><time>2026-05-04T11:17:10.404Z</time></trkpt><trkpt lat="41.2661683" lon="14.300575"><ele>251.8</ele><time>2026-05-04T11:17:11.406Z</time></trkpt><trkpt lat="41.2662567" lon="14.3005267"><ele>251.0</ele><time>2026-05-04T11:17:12.406Z</time></trkpt><trkpt lat="41.2663317" lon="14.3004767"><ele>253.00000000000003</ele><time>2026-05-04T11:17:13.406Z</time></trkpt><trkpt lat="41.2664033" lon="14.3004267"><ele>255.0</ele><time>2026-05-04T11:17:14.405Z</time></trkpt><trkpt lat="41.266475" lon="14.3004033"><ele>257.0</ele><time>2026-05-04T11:17:15.406Z</time></trkpt><trkpt lat="41.2665517" lon="14.30039"><ele>259.0</ele><time>2026-05-04T11:17:16.403Z</time></trkpt><trkpt lat="41.2666267" lon="14.3004"><ele>261.0</ele><time>2026-05-04T11:17:17.406Z</time></trkpt><trkpt lat="41.2666967" lon="14.300425"><ele>263.0</ele><time>2026-05-04T11:17:18.405Z</time></trkpt><trkpt lat="41.2667567" lon="14.3004933"><ele>261.6666666666667</ele><time>2026-05-04T11:17:19.406Z</time></trkpt><trkpt lat="41.2668133" lon="14.3005867"><ele>260.33333333333337</ele><time>2026-05-04T11:17:20.405Z</time></trkpt><trkpt lat="41.2668683" lon="14.3006767"><ele>259.0</ele><time>2026-05-04T11:17:21.406Z</time></trkpt><trkpt lat="41.2668967" lon="14.30079"><ele>257.6666666666667</ele><time>2026-05-04T11:17:22.405Z</time></trkpt><trkpt lat="41.2669217" lon="14.3009067"><ele>256.3333333333333</ele><time>2026-05-04T11:17:23.406Z</time></trkpt><trkpt lat="41.26693" lon="14.3010267"><ele>255.0</ele><time>2026-05-04T11:17:24.405Z</time></trkpt><trkpt lat="41.2668967" lon="14.3011783"><ele>255.0</ele><time>2026-05-04T11:17:25.405Z</time></trkpt><trkpt lat="41.266835" lon="14.301355"><ele>255.0</ele><time>2026-05-04T11:17:26.408Z</time></trkpt><trkpt lat="41.2668017" lon="14.3015133"><ele>255.0</ele><time>2026-05-04T11:17:27.407Z</time></trkpt><trkpt lat="41.266775" lon="14.3016783"><ele>255.0</ele><time>2026-05-04T11:17:28.405Z</time></trkpt><trkpt lat="41.266765" lon="14.301845"><ele>253.6</ele><time>2026-05-04T11:17:29.407Z</time></trkpt><trkpt lat="41.2667683" lon="14.302"><ele>252.2</ele><time>2026-05-04T11:17:30.406Z</time></trkpt><trkpt lat="41.2667783" lon="14.3021483"><ele>250.8</ele><time>2026-05-04T11:17:31.405Z</time></trkpt><trkpt lat="41.26679" lon="14.3022867"><ele>249.4</ele><time>2026-05-04T11:17:32.406Z</time></trkpt><trkpt lat="41.266805" lon="14.3024133"><ele>248.0</ele><time>2026-05-04T11:17:33.404Z</time></trkpt><trkpt lat="41.2668217" lon="14.3025417"><ele>246.0</ele><time>2026-05-04T11:17:34.407Z</time></trkpt><trkpt lat="41.266835" lon="14.3026717"><ele>244.0</ele><time>2026-05-04T11:17:35.409Z</time></trkpt><trkpt lat="41.2668467" lon="14.3028117"><ele>242.0</ele><time>2026-05-04T11:17:36.407Z</time></trkpt><trkpt lat="41.2668483" lon="14.302955"><ele>240.0</ele><time>2026-05-04T11:17:37.408Z</time></trkpt><trkpt lat="41.2668483" lon="14.3031033"><ele>238.0</ele><time>2026-05-04T11:17:38.408Z</time></trkpt><trkpt lat="41.2668417" lon="14.303255"><ele>236.75</ele><time>2026-05-04T11:17:39.406Z</time></trkpt><trkpt lat="41.2668317" lon="14.3034067"><ele>235.5</ele><time>2026-05-04T11:17:40.408Z</time></trkpt><trkpt lat="41.26682" lon="14.3035683"><ele>234.25</ele><time>2026-05-04T11:17:41.407Z</time></trkpt><trkpt lat="41.2668167" lon="14.3037333"><ele>233.0</ele><time>2026-05-04T11:17:42.406Z</time></trkpt><trkpt lat="41.2668083" lon="14.3038967"><ele>232.25</ele><time>2026-05-04T11:17:43.407Z</time></trkpt><trkpt lat="41.266795" lon="14.3040567"><ele>231.5</ele><time>2026-05-04T11:17:44.408Z</time></trkpt><trkpt lat="41.26678" lon="14.30422"><ele>230.75</ele><time>2026-05-04T11:17:45.407Z</time></trkpt><trkpt lat="41.2667717" lon="14.3044017"><ele>230.0</ele><time>2026-05-04T11:17:46.408Z</time></trkpt><trkpt lat="41.2667483" lon="14.30457"><ele>230.0</ele><time>2026-05-04T11:17:47.408Z</time></trkpt><trkpt lat="41.2667183" lon="14.3047367"><ele>230.0</ele><time>2026-05-04T11:17:48.406Z</time></trkpt><trkpt lat="41.2666933" lon="14.3048917"><ele>230.0</ele><time>2026-05-04T11:17:49.408Z</time></trkpt><trkpt lat="41.2666683" lon="14.30502"><ele>230.0</ele><time>2026-05-04T11:17:50.407Z</time></trkpt><trkpt lat="41.2666333" lon="14.3051417"><ele>230.0</ele><time>2026-05-04T11:17:51.406Z</time></trkpt><trkpt lat="41.266595" lon="14.3052683"><ele>229.66666666666669</ele><time>2026-05-04T11:17:52.407Z</time></trkpt><trkpt lat="41.26656" lon="14.3053817"><ele>229.33333333333334</ele><time>2026-05-04T11:17:53.407Z</time></trkpt><trkpt lat="41.2665133" lon="14.30548"><ele>229.0</ele><time>2026-05-04T11:17:54.405Z</time></trkpt><trkpt lat="41.26646" lon="14.3055583"><ele>228.66666666666669</ele><time>2026-05-04T11:17:55.408Z</time></trkpt><trkpt lat="41.266405" lon="14.305615"><ele>228.33333333333334</ele><time>2026-05-04T11:17:56.407Z</time></trkpt><trkpt lat="41.2663283" lon="14.3056583"><ele>228.0</ele><time>2026-05-04T11:17:57.405Z</time></trkpt><trkpt lat="41.2662433" lon="14.305665"><ele>225.60000000000002</ele><time>2026-05-04T11:17:58.408Z</time></trkpt><trkpt lat="41.2661417" lon="14.305645"><ele>223.20000000000002</ele><time>2026-05-04T11:17:59.407Z</time></trkpt><trkpt lat="41.266035" lon="14.3056367"><ele>220.8</ele><time>2026-05-04T11:18:00.407Z</time></trkpt><trkpt lat="41.2659417" lon="14.30564"><ele>218.4</ele><time>2026-05-04T11:18:01.407Z</time></trkpt><trkpt lat="41.2658583" lon="14.3056583"><ele>216.0</ele><time>2026-05-04T11:18:02.406Z</time></trkpt><trkpt lat="41.2657867" lon="14.3057067"><ele>216.0</ele><time>2026-05-04T11:18:03.407Z</time></trkpt><trkpt lat="41.2657267" lon="14.3057767"><ele>216.00000000000003</ele><time>2026-05-04T11:18:04.405Z</time></trkpt><trkpt lat="41.2656767" lon="14.30587"><ele>216.00000000000003</ele><time>2026-05-04T11:18:05.408Z</time></trkpt><trkpt lat="41.2656267" lon="14.305975"><ele>216.0</ele><time>2026-05-04T11:18:06.408Z</time></trkpt><trkpt lat="41.2655733" lon="14.3060833"><ele>216.0</ele><time>2026-05-04T11:18:07.408Z</time></trkpt><trkpt lat="41.2655217" lon="14.3062"><ele>212.20000000000002</ele><time>2026-05-04T11:18:08.408Z</time></trkpt><trkpt lat="41.26547" lon="14.3063183"><ele>208.40000000000003</ele><time>2026-05-04T11:18:09.406Z</time></trkpt><trkpt lat="41.2654183" lon="14.3064433"><ele>204.6</ele><time>2026-05-04T11:18:10.408Z</time></trkpt><trkpt lat="41.265365" lon="14.3065717"><ele>200.8</ele><time>2026-05-04T11:18:11.405Z</time></trkpt><trkpt lat="41.265315" lon="14.3067017"><ele>197.0</ele><time>2026-05-04T11:18:12.408Z</time></trkpt><trkpt lat="41.2652683" lon="14.30684"><ele>197.0</ele><time>2026-05-04T11:18:13.408Z</time></trkpt><trkpt lat="41.2652267" lon="14.3069833"><ele>197.0</ele><time>2026-05-04T11:18:14.407Z</time></trkpt><trkpt lat="41.26519" lon="14.307135"><ele>197.0</ele><time>2026-05-04T11:18:15.408Z</time></trkpt><trkpt lat="41.26516" lon="14.3072933"><ele>197.0</ele><time>2026-05-04T11:18:16.408Z</time></trkpt><trkpt lat="41.265135" lon="14.3074567"><ele>197.5</ele><time>2026-05-04T11:18:17.407Z</time></trkpt><trkpt lat="41.265105" lon="14.3076217"><ele>198.0</ele><time>2026-05-04T11:18:18.407Z</time></trkpt><trkpt lat="41.265075" lon="14.3077917"><ele>198.5</ele><time>2026-05-04T11:18:19.407Z</time></trkpt><trkpt lat="41.265055" lon="14.307965"><ele>199.0</ele><time>2026-05-04T11:18:20.407Z</time></trkpt><trkpt lat="41.26504" lon="14.30814"><ele>199.0</ele><time>2026-05-04T11:18:21.408Z</time></trkpt><trkpt lat="41.2650267" lon="14.3083167"><ele>199.0</ele><time>2026-05-04T11:18:22.407Z</time></trkpt><trkpt lat="41.2650117" lon="14.3084933"><ele>199.0</ele><time>2026-05-04T11:18:23.407Z</time></trkpt><trkpt lat="41.2649967" lon="14.3086567"><ele>199.0</ele><time>2026-05-04T11:18:24.408Z</time></trkpt><trkpt lat="41.2649817" lon="14.3088067"><ele>198.2</ele><time>2026-05-04T11:18:25.408Z</time></trkpt><trkpt lat="41.2649667" lon="14.3089417"><ele>197.39999999999998</ele><time>2026-05-04T11:18:26.406Z</time></trkpt><trkpt lat="41.264945" lon="14.3090683"><ele>196.6</ele><time>2026-05-04T11:18:27.406Z</time></trkpt><trkpt lat="41.2649233" lon="14.3091883"><ele>195.8</ele><time>2026-05-04T11:18:28.408Z</time></trkpt><trkpt lat="41.2648917" lon="14.3093083"><ele>195.0</ele><time>2026-05-04T11:18:29.408Z</time></trkpt><trkpt lat="41.2648417" lon="14.30942"><ele>195.0</ele><time>2026-05-04T11:18:30.408Z</time></trkpt><trkpt lat="41.2647833" lon="14.3095183"><ele>195.0</ele><time>2026-05-04T11:18:31.408Z</time></trkpt><trkpt lat="41.2647383" lon="14.309625"><ele>195.0</ele><time>2026-05-04T11:18:32.408Z</time></trkpt><trkpt lat="41.2647033" lon="14.3097433"><ele>195.0</ele><time>2026-05-04T11:18:33.407Z</time></trkpt><trkpt lat="41.2646717" lon="14.30987"><ele>195.0</ele><time>2026-05-04T11:18:34.406Z</time></trkpt><trkpt lat="41.2646467" lon="14.3100067"><ele>191.0</ele><time>2026-05-04T11:18:35.407Z</time></trkpt><trkpt lat="41.2646217" lon="14.3101467"><ele>187.0</ele><time>2026-05-04T11:18:36.407Z</time></trkpt><trkpt lat="41.2645983" lon="14.310285"><ele>183.0</ele><time>2026-05-04T11:18:37.409Z</time></trkpt><trkpt lat="41.2645767" lon="14.31043"><ele>179.0</ele><time>2026-05-04T11:18:38.408Z</time></trkpt><trkpt lat="41.2645667" lon="14.3105833"><ele>175.0</ele><time>2026-05-04T11:18:39.406Z</time></trkpt><trkpt lat="41.2645583" lon="14.3107367"><ele>174.0</ele><time>2026-05-04T11:18:40.408Z</time></trkpt><trkpt lat="41.26456" lon="14.3108917"><ele>173.0</ele><time>2026-05-04T11:18:41.408Z</time></trkpt><trkpt lat="41.2645567" lon="14.31105"><ele>172.0</ele><time>2026-05-04T11:18:42.408Z</time></trkpt><trkpt lat="41.2645483" lon="14.31121"><ele>171.0</ele><time>2026-05-04T11:18:43.408Z</time></trkpt><trkpt lat="41.2645433" lon="14.31137"><ele>169.75</ele><time>2026-05-04T11:18:44.408Z</time></trkpt><trkpt lat="41.2645467" lon="14.3115317"><ele>168.5</ele><time>2026-05-04T11:18:45.407Z</time></trkpt><trkpt lat="41.264555" lon="14.3117017"><ele>167.25</ele><time>2026-05-04T11:18:46.406Z</time></trkpt><trkpt lat="41.2645667" lon="14.3118733"><ele>166.0</ele><time>2026-05-04T11:18:47.408Z</time></trkpt><trkpt lat="41.2645767" lon="14.3120517"><ele>166.0</ele><time>2026-05-04T11:18:48.407Z</time></trkpt><trkpt lat="41.26459" lon="14.3122183"><ele>166.0</ele><time>2026-05-04T11:18:49.409Z</time></trkpt><trkpt lat="41.2646033" lon="14.31237"><ele>166.0</ele><time>2026-05-04T11:18:50.408Z</time></trkpt><trkpt lat="41.2646133" lon="14.3125133"><ele>166.0</ele><time>2026-05-04T11:18:51.408Z</time></trkpt><trkpt lat="41.2646233" lon="14.3126433"><ele>166.0</ele><time>2026-05-04T11:18:52.406Z</time></trkpt><trkpt lat="41.2646283" lon="14.3127567"><ele>166.0</ele><time>2026-05-04T11:18:53.407Z</time></trkpt><trkpt lat="41.26463" lon="14.312855"><ele>166.0</ele><time>2026-05-04T11:18:54.407Z</time></trkpt><trkpt lat="41.2646517" lon="14.3129433"><ele>166.0</ele><time>2026-05-04T11:18:55.408Z</time></trkpt><trkpt lat="41.2646867" lon="14.3130283"><ele>166.0</ele><time>2026-05-04T11:18:56.408Z</time></trkpt><trkpt lat="41.2647367" lon="14.313105"><ele>166.0</ele><time>2026-05-04T11:18:57.408Z</time></trkpt><trkpt lat="41.2647983" lon="14.313175"><ele>166.0</ele><time>2026-05-04T11:18:58.408Z</time></trkpt><trkpt lat="41.2648667" lon="14.3132383"><ele>166.0</ele><time>2026-05-04T11:18:59.407Z</time></trkpt><trkpt lat="41.2649533" lon="14.3132983"><ele>166.0</ele><time>2026-05-04T11:19:00.405Z</time></trkpt><trkpt lat="41.265045" lon="14.3133533"><ele>166.0</ele><time>2026-05-04T11:19:01.407Z</time></trkpt><trkpt lat="41.265145" lon="14.313395"><ele>166.0</ele><time>2026-05-04T11:19:02.408Z</time></trkpt><trkpt lat="41.26525" lon="14.3134133"><ele>166.0</ele><time>2026-05-04T11:19:03.406Z</time></trkpt><trkpt lat="41.2653433" lon="14.3134067"><ele>166.0</ele><time>2026-05-04T11:19:04.408Z</time></trkpt><trkpt lat="41.26544" lon="14.3133667"><ele>166.0</ele><time>2026-05-04T11:19:05.408Z</time></trkpt><trkpt lat="41.2655233" lon="14.3132967"><ele>166.0</ele><time>2026-05-04T11:19:06.407Z</time></trkpt><trkpt lat="41.2656" lon="14.3131967"><ele>166.0</ele><time>2026-05-04T11:19:07.408Z</time></trkpt><trkpt lat="41.26566" lon="14.3130783"><ele>166.0</ele><time>2026-05-04T11:19:08.403Z</time></trkpt><trkpt lat="41.2657083" lon="14.3129617"><ele>164.20000000000002</ele><time>2026-05-04T11:19:09.402Z</time></trkpt><trkpt lat="41.2657483" lon="14.312845"><ele>162.4</ele><time>2026-05-04T11:19:10.405Z</time></trkpt><trkpt lat="41.2657783" lon="14.3127267"><ele>160.6</ele><time>2026-05-04T11:19:11.406Z</time></trkpt><trkpt lat="41.2658067" lon="14.3125967"><ele>158.8</ele><time>2026-05-04T11:19:12.404Z</time></trkpt><trkpt lat="41.26584" lon="14.3124667"><ele>157.0</ele><time>2026-05-04T11:19:13.407Z</time></trkpt><trkpt lat="41.265875" lon="14.3123433"><ele>158.2</ele><time>2026-05-04T11:19:14.403Z</time></trkpt><trkpt lat="41.2659067" lon="14.3122167"><ele>159.39999999999998</ele><time>2026-05-04T11:19:15.405Z</time></trkpt><trkpt lat="41.265935" lon="14.312095"><ele>160.60000000000002</ele><time>2026-05-04T11:19:16.408Z</time></trkpt><trkpt lat="41.2659683" lon="14.3119783"><ele>161.8</ele><time>2026-05-04T11:19:17.408Z</time></trkpt><trkpt lat="41.2660133" lon="14.3118733"><ele>163.0</ele><time>2026-05-04T11:19:18.405Z</time></trkpt><trkpt lat="41.2660533" lon="14.3117683"><ele>163.0</ele><time>2026-05-04T11:19:19.406Z</time></trkpt><trkpt lat="41.2661133" lon="14.3116833"><ele>163.0</ele><time>2026-05-04T11:19:20.405Z</time></trkpt><trkpt lat="41.266185" lon="14.31162"><ele>163.0</ele><time>2026-05-04T11:19:21.406Z</time></trkpt><trkpt lat="41.26628" lon="14.31157"><ele>163.0</ele><time>2026-05-04T11:19:22.406Z</time></trkpt><trkpt lat="41.2663817" lon="14.3115133"><ele>163.0</ele><time>2026-05-04T11:19:23.408Z</time></trkpt><trkpt lat="41.26648" lon="14.311435"><ele>160.75</ele><time>2026-05-04T11:19:24.406Z</time></trkpt><trkpt lat="41.2665733" lon="14.3113417"><ele>158.5</ele><time>2026-05-04T11:19:25.405Z</time></trkpt><trkpt lat="41.2666683" lon="14.3112383"><ele>156.25</ele><time>2026-05-04T11:19:26.405Z</time></trkpt><trkpt lat="41.2667633" lon="14.3111333"><ele>154.0</ele><time>2026-05-04T11:19:27.406Z</time></trkpt><trkpt lat="41.2668633" lon="14.3110367"><ele>154.0</ele><time>2026-05-04T11:19:28.406Z</time></trkpt><trkpt lat="41.2669583" lon="14.3109517"><ele>154.0</ele><time>2026-05-04T11:19:29.407Z</time></trkpt><trkpt lat="41.2670467" lon="14.31088"><ele>154.0</ele><time>2026-05-04T11:19:30.406Z</time></trkpt><trkpt lat="41.2671333" lon="14.310815"><ele>154.0</ele><time>2026-05-04T11:19:31.406Z</time></trkpt><trkpt lat="41.2672233" lon="14.31075"><ele>154.0</ele><time>2026-05-04T11:19:32.406Z</time></trkpt><trkpt lat="41.2673167" lon="14.310685"><ele>152.16666666666669</ele><time>2026-05-04T11:19:33.405Z</time></trkpt><trkpt lat="41.26741" lon="14.3106217"><ele>150.33333333333334</ele><time>2026-05-04T11:19:34.406Z</time></trkpt><trkpt lat="41.2675" lon="14.31056"><ele>148.5</ele><time>2026-05-04T11:19:35.405Z</time></trkpt><trkpt lat="41.267575" lon="14.3105017"><ele>146.66666666666666</ele><time>2026-05-04T11:19:36.406Z</time></trkpt><trkpt lat="41.2676367" lon="14.3104417"><ele>144.83333333333331</ele><time>2026-05-04T11:19:37.406Z</time></trkpt><trkpt lat="41.26769" lon="14.3103733"><ele>143.0</ele><time>2026-05-04T11:19:38.404Z</time></trkpt><trkpt lat="41.267735" lon="14.3102933"><ele>143.0</ele><time>2026-05-04T11:19:39.406Z</time></trkpt><trkpt lat="41.267765" lon="14.3102017"><ele>143.0</ele><time>2026-05-04T11:19:40.408Z</time></trkpt><trkpt lat="41.2677933" lon="14.310105"><ele>143.0</ele><time>2026-05-04T11:19:41.406Z</time></trkpt><trkpt lat="41.2678267" lon="14.3100017"><ele>143.0</ele><time>2026-05-04T11:19:42.406Z</time></trkpt><trkpt lat="41.2678567" lon="14.3098917"><ele>143.0</ele><time>2026-05-04T11:19:43.403Z</time></trkpt><trkpt lat="41.267885" lon="14.3097817"><ele>143.0</ele><time>2026-05-04T11:19:44.406Z</time></trkpt><trkpt lat="41.267925" lon="14.3096783"><ele>145.0</ele><time>2026-05-04T11:19:45.406Z</time></trkpt><trkpt lat="41.2679683" lon="14.3095783"><ele>147.0</ele><time>2026-05-04T11:19:46.406Z</time></trkpt><trkpt lat="41.2680167" lon="14.30949"><ele>149.0</ele><time>2026-05-04T11:19:47.405Z</time></trkpt><trkpt lat="41.268065" lon="14.309415"><ele>151.0</ele><time>2026-05-04T11:19:48.406Z</time></trkpt><trkpt lat="41.2681183" lon="14.3093617"><ele>153.0</ele><time>2026-05-04T11:19:49.407Z</time></trkpt><trkpt lat="41.2681917" lon="14.3093267"><ele>155.0</ele><time>2026-05-04T11:19:50.405Z</time></trkpt><trkpt lat="41.2682917" lon="14.3093217"><ele>150.2</ele><time>2026-05-04T11:19:51.406Z</time></trkpt><trkpt lat="41.2683833" lon="14.3093333"><ele>145.4</ele><time>2026-05-04T11:19:52.407Z</time></trkpt><trkpt lat="41.2685067" lon="14.3093733"><ele>140.6</ele><time>2026-05-04T11:19:53.406Z</time></trkpt><trkpt lat="41.268615" lon="14.3094133"><ele>135.8</ele><time>2026-05-04T11:19:54.407Z</time></trkpt><trkpt lat="41.2687183" lon="14.30946"><ele>131.0</ele><time>2026-05-04T11:19:55.408Z</time></trkpt><trkpt lat="41.268805" lon="14.3095017"><ele>131.0</ele><time>2026-05-04T11:19:56.404Z</time></trkpt><trkpt lat="41.2688883" lon="14.309535"><ele>131.0</ele><time>2026-05-04T11:19:57.406Z</time></trkpt><trkpt lat="41.268965" lon="14.30956"><ele>131.0</ele><time>2026-05-04T11:19:58.406Z</time></trkpt><trkpt lat="41.2690433" lon="14.309585"><ele>131.0</ele><time>2026-05-04T11:19:59.406Z</time></trkpt><trkpt lat="41.2691183" lon="14.3096167"><ele>131.0</ele><time>2026-05-04T11:20:00.406Z</time></trkpt><trkpt lat="41.26919" lon="14.3096533"><ele>131.0</ele><time>2026-05-04T11:20:01.406Z</time></trkpt><trkpt lat="41.2692583" lon="14.3097017"><ele>129.66666666666666</ele><time>2026-05-04T11:20:02.404Z</time></trkpt><trkpt lat="41.2693167" lon="14.3097583"><ele>128.33333333333331</ele><time>2026-05-04T11:20:03.405Z</time></trkpt><trkpt lat="41.269375" lon="14.30982"><ele>127.0</ele><time>2026-05-04T11:20:04.406Z</time></trkpt><trkpt lat="41.2694383" lon="14.3098867"><ele>125.66666666666666</ele><time>2026-05-04T11:20:05.406Z</time></trkpt><trkpt lat="41.2694917" lon="14.3099567"><ele>124.33333333333333</ele><time>2026-05-04T11:20:06.406Z</time></trkpt><trkpt lat="41.26954" lon="14.310035"><ele>123.0</ele><time>2026-05-04T11:20:07.407Z</time></trkpt><trkpt lat="41.269595" lon="14.3101183"><ele>123.0</ele><time>2026-05-04T11:20:08.406Z</time></trkpt><trkpt lat="41.2696533" lon="14.3102033"><ele>123.0</ele><time>2026-05-04T11:20:09.406Z</time></trkpt><trkpt lat="41.2697117" lon="14.3102833"><ele>123.0</ele><time>2026-05-04T11:20:10.407Z</time></trkpt><trkpt lat="41.26977" lon="14.3103617"><ele>123.0</ele><time>2026-05-04T11:20:11.406Z</time></trkpt><trkpt lat="41.2698217" lon="14.3104417"><ele>123.0</ele><time>2026-05-04T11:20:12.406Z</time></trkpt><trkpt lat="41.2698817" lon="14.3105267"><ele>123.0</ele><time>2026-05-04T11:20:13.406Z</time></trkpt><trkpt lat="41.2699433" lon="14.3106167"><ele>122.2</ele><time>2026-05-04T11:20:14.404Z</time></trkpt><trkpt lat="41.26999" lon="14.3107033"><ele>121.4</ele><time>2026-05-04T11:20:15.405Z</time></trkpt><trkpt lat="41.2700367" lon="14.3107783"><ele>120.60000000000001</ele><time>2026-05-04T11:20:16.404Z</time></trkpt><trkpt lat="41.27012" lon="14.3109017"><ele>119.80000000000001</ele><time>2026-05-04T11:20:18.406Z</time></trkpt><trkpt lat="41.27019" lon="14.31101"><ele>119.0</ele><time>2026-05-04T11:20:20.406Z</time></trkpt><trkpt lat="41.2702367" lon="14.3110783"><ele>118.99999999999999</ele><time>2026-05-04T11:20:22.404Z</time></trkpt><trkpt lat="41.2703017" lon="14.3111267"><ele>119.0</ele><time>2026-05-04T11:20:41.406Z</time></trkpt><trkpt lat="41.270375" lon="14.31108"><ele>119.0</ele><time>2026-05-04T11:21:11.405Z</time></trkpt><trkpt lat="41.2704317" lon="14.311025"><ele>119.0</ele><time>2026-05-04T11:21:14.406Z</time></trkpt><trkpt lat="41.2704867" lon="14.3109567"><ele>118.99999999999999</ele><time>2026-05-04T11:21:17.407Z</time></trkpt><trkpt lat="41.2705533" lon="14.3108683"><ele>119.0</ele><time>2026-05-04T11:21:20.405Z</time></trkpt><trkpt lat="41.2706" lon="14.3107983"><ele>118.85714285714286</ele><time>2026-05-04T11:21:22.405Z</time></trkpt><trkpt lat="41.2706533" lon="14.3107233"><ele>118.71428571428572</ele><time>2026-05-04T11:21:24.405Z</time></trkpt><trkpt lat="41.2707033" lon="14.3106583"><ele>118.57142857142857</ele><time>2026-05-04T11:21:26.406Z</time></trkpt><trkpt lat="41.2707483" lon="14.31059"><ele>118.42857142857143</ele><time>2026-05-04T11:21:28.406Z</time></trkpt><trkpt lat="41.2707967" lon="14.3105117"><ele>118.28571428571429</ele><time>2026-05-04T11:21:30.405Z</time></trkpt><trkpt lat="41.27086" lon="14.31045"><ele>118.14285714285714</ele><time>2026-05-04T11:21:32.404Z</time></trkpt><trkpt lat="41.270915" lon="14.3103783"><ele>118.0</ele><time>2026-05-04T11:21:34.407Z</time></trkpt><trkpt lat="41.2709617" lon="14.310305"><ele>118.85714285714286</ele><time>2026-05-04T11:21:36.406Z</time></trkpt><trkpt lat="41.2710167" lon="14.31024"><ele>119.71428571428572</ele><time>2026-05-04T11:21:38.405Z</time></trkpt><trkpt lat="41.2710733" lon="14.3101883"><ele>120.57142857142858</ele><time>2026-05-04T11:21:40.403Z</time></trkpt><trkpt lat="41.271125" lon="14.3101333"><ele>121.42857142857143</ele><time>2026-05-04T11:21:42.404Z</time></trkpt><trkpt lat="41.27118" lon="14.3100767"><ele>122.2857142857143</ele><time>2026-05-04T11:21:44.405Z</time></trkpt><trkpt lat="41.2712417" lon="14.310005"><ele>123.14285714285715</ele><time>2026-05-04T11:21:46.405Z</time></trkpt><trkpt lat="41.2713033" lon="14.3099267"><ele>124.0</ele><time>2026-05-04T11:21:48.404Z</time></trkpt><trkpt lat="41.2713533" lon="14.3098267"><ele>123.4</ele><time>2026-05-04T11:21:50.405Z</time></trkpt><trkpt lat="41.271425" lon="14.3097317"><ele>122.80000000000001</ele><time>2026-05-04T11:21:52.405Z</time></trkpt><trkpt lat="41.2715133" lon="14.3096317"><ele>122.19999999999999</ele><time>2026-05-04T11:21:54.406Z</time></trkpt><trkpt lat="41.271595" lon="14.309535"><ele>121.6</ele><time>2026-05-04T11:21:56.406Z</time></trkpt><trkpt lat="41.2716733" lon="14.3094183"><ele>121.0</ele><time>2026-05-04T11:21:58.404Z</time></trkpt><trkpt lat="41.27176" lon="14.309305"><ele>121.0</ele><time>2026-05-04T11:22:00.405Z</time></trkpt><trkpt lat="41.271855" lon="14.3091883"><ele>121.0</ele><time>2026-05-04T11:22:02.405Z</time></trkpt><trkpt lat="41.2719483" lon="14.309075"><ele>121.0</ele><time>2026-05-04T11:22:04.403Z</time></trkpt><trkpt lat="41.272" lon="14.3090133"><ele>121.0</ele><time>2026-05-04T11:22:05.405Z</time></trkpt><trkpt lat="41.2720517" lon="14.3089533"><ele>121.0</ele><time>2026-05-04T11:22:06.405Z</time></trkpt><trkpt lat="41.2721033" lon="14.3088933"><ele>120.57142857142857</ele><time>2026-05-04T11:22:07.405Z</time></trkpt><trkpt lat="41.272155" lon="14.3088267"><ele>120.14285714285714</ele><time>2026-05-04T11:22:08.404Z</time></trkpt><trkpt lat="41.2722067" lon="14.30876"><ele>119.71428571428571</ele><time>2026-05-04T11:22:09.404Z</time></trkpt><trkpt lat="41.2722583" lon="14.30869"><ele>119.28571428571428</ele><time>2026-05-04T11:22:10.404Z</time></trkpt><trkpt lat="41.2723067" lon="14.308625"><ele>118.85714285714286</ele><time>2026-05-04T11:22:11.406Z</time></trkpt><trkpt lat="41.272355" lon="14.3085617"><ele>118.42857142857142</ele><time>2026-05-04T11:22:12.405Z</time></trkpt><trkpt lat="41.2724017" lon="14.3085017"><ele>118.0</ele><time>2026-05-04T11:22:13.407Z</time></trkpt><trkpt lat="41.2724483" lon="14.308445"><ele>118.00000000000001</ele><time>2026-05-04T11:22:14.403Z</time></trkpt><trkpt lat="41.2724933" lon="14.3083833"><ele>118.0</ele><time>2026-05-04T11:22:15.405Z</time></trkpt><trkpt lat="41.27254" lon="14.308325"><ele>118.0</ele><time>2026-05-04T11:22:16.404Z</time></trkpt><trkpt lat="41.2725867" lon="14.308265"><ele>118.0</ele><time>2026-05-04T11:22:17.405Z</time></trkpt><trkpt lat="41.2726717" lon="14.308155"><ele>118.00000000000001</ele><time>2026-05-04T11:22:19.405Z</time></trkpt><trkpt lat="41.2727583" lon="14.3080383"><ele>118.0</ele><time>2026-05-04T11:22:21.404Z</time></trkpt><trkpt lat="41.272845" lon="14.3079283"><ele>118.2</ele><time>2026-05-04T11:22:23.404Z</time></trkpt><trkpt lat="41.2729233" lon="14.307825"><ele>118.4</ele><time>2026-05-04T11:22:25.406Z</time></trkpt><trkpt lat="41.2730083" lon="14.3077233"><ele>118.60000000000001</ele><time>2026-05-04T11:22:27.406Z</time></trkpt><trkpt lat="41.2730933" lon="14.3076217"><ele>118.80000000000001</ele><time>2026-05-04T11:22:29.406Z</time></trkpt><trkpt lat="41.2731667" lon="14.307525"><ele>119.0</ele><time>2026-05-04T11:22:31.407Z</time></trkpt><trkpt lat="41.2732433" lon="14.3074367"><ele>119.33333333333333</ele><time>2026-05-04T11:22:33.406Z</time></trkpt><trkpt lat="41.27332" lon="14.3073417"><ele>119.66666666666666</ele><time>2026-05-04T11:22:35.405Z</time></trkpt><trkpt lat="41.27339" lon="14.3072517"><ele>120.0</ele><time>2026-05-04T11:22:37.405Z</time></trkpt><trkpt lat="41.2734533" lon="14.30717"><ele>120.33333333333334</ele><time>2026-05-04T11:22:39.406Z</time></trkpt><trkpt lat="41.2735167" lon="14.3070967"><ele>120.66666666666667</ele><time>2026-05-04T11:22:41.405Z</time></trkpt><trkpt lat="41.2735717" lon="14.3070317"><ele>121.0</ele><time>2026-05-04T11:22:43.406Z</time></trkpt><trkpt lat="41.2736317" lon="14.3069533"><ele>121.66666666666667</ele><time>2026-05-04T11:22:45.404Z</time></trkpt><trkpt lat="41.2736867" lon="14.306875"><ele>122.33333333333334</ele><time>2026-05-04T11:22:47.405Z</time></trkpt><trkpt lat="41.2737483" lon="14.3067983"><ele>123.0</ele><time>2026-05-04T11:22:49.405Z</time></trkpt><trkpt lat="41.273815" lon="14.306725"><ele>123.66666666666666</ele><time>2026-05-04T11:22:51.405Z</time></trkpt><trkpt lat="41.2738683" lon="14.306645"><ele>124.33333333333333</ele><time>2026-05-04T11:22:53.403Z</time></trkpt><trkpt lat="41.2739267" lon="14.306575"><ele>125.0</ele><time>2026-05-04T11:22:55.406Z</time></trkpt><trkpt lat="41.2739867" lon="14.3065083"><ele>124.99999999999999</ele><time>2026-05-04T11:22:57.405Z</time></trkpt><trkpt lat="41.274035" lon="14.3064283"><ele>125.0</ele><time>2026-05-04T11:22:59.404Z</time></trkpt><trkpt lat="41.274095" lon="14.30635"><ele>125.0</ele><time>2026-05-04T11:23:01.405Z</time></trkpt><trkpt lat="41.2741533" lon="14.3062683"><ele>125.0</ele><time>2026-05-04T11:23:03.404Z</time></trkpt><trkpt lat="41.2742117" lon="14.3061783"><ele>124.99999999999999</ele><time>2026-05-04T11:23:05.406Z</time></trkpt><trkpt lat="41.2742717" lon="14.3060767"><ele>125.0</ele><time>2026-05-04T11:23:07.404Z</time></trkpt><trkpt lat="41.2743183" lon="14.3059683"><ele>125.49999999999999</ele><time>2026-05-04T11:23:09.404Z</time></trkpt><trkpt lat="41.2743733" lon="14.3058417"><ele>126.0</ele><time>2026-05-04T11:23:11.404Z</time></trkpt><trkpt lat="41.2744283" lon="14.3057"><ele>126.5</ele><time>2026-05-04T11:23:13.405Z</time></trkpt><trkpt lat="41.27446" lon="14.3056217"><ele>127.0</ele><time>2026-05-04T11:23:14.406Z</time></trkpt><trkpt lat="41.2744917" lon="14.3055333"><ele>127.49999999999999</ele><time>2026-05-04T11:23:15.403Z</time></trkpt><trkpt lat="41.2745217" lon="14.3054417"><ele>128.0</ele><time>2026-05-04T11:23:16.406Z</time></trkpt><trkpt lat="41.27455" lon="14.305345"><ele>128.4</ele><time>2026-05-04T11:23:17.405Z</time></trkpt><trkpt lat="41.2745783" lon="14.3052467"><ele>128.8</ele><time>2026-05-04T11:23:18.406Z</time></trkpt><trkpt lat="41.2746133" lon="14.3051417"><ele>129.2</ele><time>2026-05-04T11:23:19.406Z</time></trkpt><trkpt lat="41.2746483" lon="14.3050283"><ele>129.6</ele><time>2026-05-04T11:23:20.405Z</time></trkpt><trkpt lat="41.274685" lon="14.3049117"><ele>130.0</ele><time>2026-05-04T11:23:21.404Z</time></trkpt><trkpt lat="41.2747283" lon="14.3047933"><ele>129.4</ele><time>2026-05-04T11:23:22.405Z</time></trkpt><trkpt lat="41.2747617" lon="14.3046767"><ele>128.8</ele><time>2026-05-04T11:23:23.405Z</time></trkpt><trkpt lat="41.2747967" lon="14.3045567"><ele>128.2</ele><time>2026-05-04T11:23:24.406Z</time></trkpt><trkpt lat="41.2748367" lon="14.304435"><ele>127.6</ele><time>2026-05-04T11:23:25.405Z</time></trkpt><trkpt lat="41.2748783" lon="14.3043117"><ele>127.0</ele><time>2026-05-04T11:23:26.405Z</time></trkpt><trkpt lat="41.2749217" lon="14.3041867"><ele>125.19999999999999</ele><time>2026-05-04T11:23:27.404Z</time></trkpt><trkpt lat="41.274965" lon="14.3040617"><ele>123.39999999999999</ele><time>2026-05-04T11:23:28.406Z</time></trkpt><trkpt lat="41.2750083" lon="14.303935"><ele>121.60000000000001</ele><time>2026-05-04T11:23:29.406Z</time></trkpt><trkpt lat="41.27505" lon="14.3038117"><ele>119.80000000000001</ele><time>2026-05-04T11:23:30.406Z</time></trkpt><trkpt lat="41.2750967" lon="14.3036867"><ele>118.0</ele><time>2026-05-04T11:23:31.406Z</time></trkpt><trkpt lat="41.2751317" lon="14.3035667"><ele>118.00000000000001</ele><time>2026-05-04T11:23:32.405Z</time></trkpt><trkpt lat="41.2751683" lon="14.303455"><ele>118.0</ele><time>2026-05-04T11:23:33.406Z</time></trkpt><trkpt lat="41.2752017" lon="14.3033417"><ele>118.0</ele><time>2026-05-04T11:23:34.405Z</time></trkpt><trkpt lat="41.2752333" lon="14.3032317"><ele>118.0</ele><time>2026-05-04T11:23:35.407Z</time></trkpt><trkpt lat="41.2752617" lon="14.30312"><ele>118.00000000000001</ele><time>2026-05-04T11:23:36.406Z</time></trkpt><trkpt lat="41.2752833" lon="14.3030167"><ele>118.0</ele><time>2026-05-04T11:23:37.406Z</time></trkpt><trkpt lat="41.275305" lon="14.3029183"><ele>118.50000000000001</ele><time>2026-05-04T11:23:38.406Z</time></trkpt><trkpt lat="41.2753333" lon="14.30283"><ele>119.0</ele><time>2026-05-04T11:23:39.406Z</time></trkpt><trkpt lat="41.27537" lon="14.3027567"><ele>119.5</ele><time>2026-05-04T11:23:40.407Z</time></trkpt><trkpt lat="41.2754567" lon="14.302685"><ele>120.0</ele><time>2026-05-04T11:23:42.405Z</time></trkpt><trkpt lat="41.2755317" lon="14.3026233"><ele>120.50000000000001</ele><time>2026-05-04T11:23:44.405Z</time></trkpt><trkpt lat="41.275565" lon="14.302545"><ele>121.0</ele><time>2026-05-04T11:23:46.406Z</time></trkpt><trkpt lat="41.275535" lon="14.3024317"><ele>121.0</ele><time>2026-05-04T11:23:49.406Z</time></trkpt><trkpt lat="41.2755167" lon="14.30234"><ele>121.0</ele><time>2026-05-04T11:23:51.404Z</time></trkpt><trkpt lat="41.2755367" lon="14.30223"><ele>121.0</ele><time>2026-05-04T11:23:53.404Z</time></trkpt><trkpt lat="41.2755717" lon="14.3021167"><ele>121.0</ele><time>2026-05-04T11:23:55.406Z</time></trkpt><trkpt lat="41.2756033" lon="14.3019867"><ele>121.0</ele><time>2026-05-04T11:23:57.405Z</time></trkpt><trkpt lat="41.2756317" lon="14.3018533"><ele>120.8</ele><time>2026-05-04T11:23:59.405Z</time></trkpt><trkpt lat="41.2756567" lon="14.3017167"><ele>120.6</ele><time>2026-05-04T11:24:01.406Z</time></trkpt><trkpt lat="41.275685" lon="14.3015833"><ele>120.4</ele><time>2026-05-04T11:24:03.406Z</time></trkpt><trkpt lat="41.2757233" lon="14.30146"><ele>120.2</ele><time>2026-05-04T11:24:05.407Z</time></trkpt><trkpt lat="41.2757683" lon="14.3013433"><ele>120.0</ele><time>2026-05-04T11:24:07.404Z</time></trkpt><trkpt lat="41.2758567" lon="14.30126"><ele>121.4</ele><time>2026-05-04T11:24:09.406Z</time></trkpt><trkpt lat="41.2759583" lon="14.3012317"><ele>122.8</ele><time>2026-05-04T11:24:11.405Z</time></trkpt><trkpt lat="41.276055" lon="14.3012117"><ele>124.19999999999999</ele><time>2026-05-04T11:24:13.407Z</time></trkpt><trkpt lat="41.2761417" lon="14.3011917"><ele>125.6</ele><time>2026-05-04T11:24:15.405Z</time></trkpt><trkpt lat="41.2762533" lon="14.3011817"><ele>127.0</ele><time>2026-05-04T11:24:17.407Z</time></trkpt><trkpt lat="41.2763533" lon="14.3011417"><ele>127.00000000000001</ele><time>2026-05-04T11:24:19.404Z</time></trkpt><trkpt lat="41.2764383" lon="14.3010967"><ele>127.0</ele><time>2026-05-04T11:24:21.405Z</time></trkpt><trkpt lat="41.27649" lon="14.3010383"><ele>127.0</ele><time>2026-05-04T11:24:23.406Z</time></trkpt><trkpt lat="41.276555" lon="14.3009517"><ele>127.0</ele><time>2026-05-04T11:24:26.405Z</time></trkpt><trkpt lat="41.276605" lon="14.3008867"><ele>127.00000000000001</ele><time>2026-05-04T11:24:28.405Z</time></trkpt><trkpt lat="41.2766467" lon="14.3008117"><ele>127.0</ele><time>2026-05-04T11:24:30.403Z</time></trkpt><trkpt lat="41.2766817" lon="14.300735"><ele>127.00000000000001</ele><time>2026-05-04T11:24:32.404Z</time></trkpt><trkpt lat="41.276705" lon="14.30065"><ele>127.0</ele><time>2026-05-04T11:24:34.403Z</time></trkpt><trkpt lat="41.27673" lon="14.3005533"><ele>127.0</ele><time>2026-05-04T11:24:36.405Z</time></trkpt><trkpt lat="41.2767467" lon="14.3004433"><ele>127.0</ele><time>2026-05-04T11:24:38.405Z</time></trkpt><trkpt lat="41.276755" lon="14.3003233"><ele>127.00000000000001</ele><time>2026-05-04T11:24:40.404Z</time></trkpt><trkpt lat="41.27677" lon="14.3001933"><ele>127.0</ele><time>2026-05-04T11:24:42.404Z</time></trkpt><trkpt lat="41.276765" lon="14.30006"><ele>127.6</ele><time>2026-05-04T11:24:44.405Z</time></trkpt><trkpt lat="41.2767517" lon="14.2999333"><ele>128.2</ele><time>2026-05-04T11:24:46.405Z</time></trkpt><trkpt lat="41.276745" lon="14.2998067"><ele>128.8</ele><time>2026-05-04T11:24:48.403Z</time></trkpt><trkpt lat="41.2767417" lon="14.29968"><ele>129.4</ele><time>2026-05-04T11:24:50.406Z</time></trkpt><trkpt lat="41.276735" lon="14.2995633"><ele>130.0</ele><time>2026-05-04T11:24:52.405Z</time></trkpt><trkpt lat="41.2767183" lon="14.2994433"><ele>130.0</ele><time>2026-05-04T11:24:54.405Z</time></trkpt><trkpt lat="41.2767067" lon="14.299325"><ele>130.0</ele><time>2026-05-04T11:24:56.405Z</time></trkpt><trkpt lat="41.2766933" lon="14.2992033"><ele>130.0</ele><time>2026-05-04T11:24:58.405Z</time></trkpt><trkpt lat="41.2766883" lon="14.2990783"><ele>130.0</ele><time>2026-05-04T11:25:00.404Z</time></trkpt><trkpt lat="41.2766783" lon="14.2989567"><ele>130.0</ele><time>2026-05-04T11:25:02.404Z</time></trkpt><trkpt lat="41.2766683" lon="14.2988317"><ele>129.83333333333334</ele><time>2026-05-04T11:25:04.403Z</time></trkpt><trkpt lat="41.27666" lon="14.2987083"><ele>129.66666666666669</ele><time>2026-05-04T11:25:06.403Z</time></trkpt><trkpt lat="41.2766533" lon="14.2985933"><ele>129.5</ele><time>2026-05-04T11:25:08.405Z</time></trkpt><trkpt lat="41.2766367" lon="14.2984767"><ele>129.33333333333334</ele><time>2026-05-04T11:25:10.405Z</time></trkpt><trkpt lat="41.27663" lon="14.2983683"><ele>129.16666666666666</ele><time>2026-05-04T11:25:12.403Z</time></trkpt><trkpt lat="41.2766267" lon="14.2982567"><ele>129.0</ele><time>2026-05-04T11:25:14.403Z</time></trkpt><trkpt lat="41.2766467" lon="14.29813"><ele>128.8</ele><time>2026-05-04T11:25:16.406Z</time></trkpt><trkpt lat="41.2766733" lon="14.2979967"><ele>128.60000000000002</ele><time>2026-05-04T11:25:18.403Z</time></trkpt><trkpt lat="41.2766967" lon="14.297855"><ele>128.4</ele><time>2026-05-04T11:25:20.405Z</time></trkpt><trkpt lat="41.2767317" lon="14.2977117"><ele>128.20000000000002</ele><time>2026-05-04T11:25:22.405Z</time></trkpt><trkpt lat="41.2767633" lon="14.29756"><ele>128.0</ele><time>2026-05-04T11:25:24.403Z</time></trkpt><trkpt lat="41.2768033" lon="14.2973983"><ele>127.99999999999999</ele><time>2026-05-04T11:25:26.402Z</time></trkpt><trkpt lat="41.27682" lon="14.297315"><ele>128.0</ele><time>2026-05-04T11:25:27.403Z</time></trkpt><trkpt lat="41.2768567" lon="14.2971583"><ele>128.0</ele><time>2026-05-04T11:25:29.404Z</time></trkpt><trkpt lat="41.276875" lon="14.2970767"><ele>128.0</ele><time>2026-05-04T11:25:30.403Z</time></trkpt><trkpt lat="41.2769117" lon="14.29692"><ele>127.99999999999999</ele><time>2026-05-04T11:25:32.402Z</time></trkpt><trkpt lat="41.2769317" lon="14.2968367"><ele>128.0</ele><time>2026-05-04T11:25:33.404Z</time></trkpt><trkpt lat="41.2769533" lon="14.29675"><ele>128.0</ele><time>2026-05-04T11:25:34.405Z</time></trkpt><trkpt lat="41.2769733" lon="14.29667"><ele>127.99999999999999</ele><time>2026-05-04T11:25:35.404Z</time></trkpt><trkpt lat="41.2769917" lon="14.2965867"><ele>128.0</ele><time>2026-05-04T11:25:36.404Z</time></trkpt><trkpt lat="41.27701" lon="14.2965"><ele>128.0</ele><time>2026-05-04T11:25:37.404Z</time></trkpt><trkpt lat="41.2770317" lon="14.2964133"><ele>127.99999999999999</ele><time>2026-05-04T11:25:38.405Z</time></trkpt><trkpt lat="41.277055" lon="14.296325"><ele>128.0</ele><time>2026-05-04T11:25:39.403Z</time></trkpt><trkpt lat="41.2770817" lon="14.2962367"><ele>128.0</ele><time>2026-05-04T11:25:40.405Z</time></trkpt><trkpt lat="41.27711" lon="14.2961517"><ele>128.0</ele><time>2026-05-04T11:25:41.405Z</time></trkpt><trkpt lat="41.27714" lon="14.296065"><ele>127.99999999999999</ele><time>2026-05-04T11:25:42.404Z</time></trkpt><trkpt lat="41.27717" lon="14.2959783"><ele>128.0</ele><time>2026-05-04T11:25:43.404Z</time></trkpt><trkpt lat="41.2772033" lon="14.2958967"><ele>128.0</ele><time>2026-05-04T11:25:44.404Z</time></trkpt><trkpt lat="41.2772383" lon="14.2958133"><ele>127.99999999999999</ele><time>2026-05-04T11:25:45.403Z</time></trkpt><trkpt lat="41.2772717" lon="14.29573"><ele>128.0</ele><time>2026-05-04T11:25:46.404Z</time></trkpt><trkpt lat="41.2773017" lon="14.2956483"><ele>128.0</ele><time>2026-05-04T11:25:47.405Z</time></trkpt><trkpt lat="41.2773333" lon="14.2955717"><ele>127.83333333333333</ele><time>2026-05-04T11:25:48.406Z</time></trkpt><trkpt lat="41.2773667" lon="14.2954983"><ele>127.66666666666666</ele><time>2026-05-04T11:25:49.405Z</time></trkpt><trkpt lat="41.277405" lon="14.2954283"><ele>127.5</ele><time>2026-05-04T11:25:50.403Z</time></trkpt><trkpt lat="41.2774717" lon="14.29531"><ele>127.33333333333334</ele><time>2026-05-04T11:25:52.404Z</time></trkpt><trkpt lat="41.2775367" lon="14.2952083"><ele>127.16666666666667</ele><time>2026-05-04T11:25:54.405Z</time></trkpt><trkpt lat="41.27759" lon="14.2951133"><ele>127.0</ele><time>2026-05-04T11:25:56.403Z</time></trkpt><trkpt lat="41.2776483" lon="14.2950083"><ele>127.0</ele><time>2026-05-04T11:25:58.403Z</time></trkpt><trkpt lat="41.2776867" lon="14.2949183"><ele>126.99999999999999</ele><time>2026-05-04T11:26:00.405Z</time></trkpt><trkpt lat="41.2777283" lon="14.2948217"><ele>126.99999999999999</ele><time>2026-05-04T11:26:02.404Z</time></trkpt><trkpt lat="41.2778083" lon="14.2947367"><ele>127.0</ele><time>2026-05-04T11:26:04.402Z</time></trkpt><trkpt lat="41.2778817" lon="14.2946383"><ele>127.0</ele><time>2026-05-04T11:26:06.409Z</time></trkpt><trkpt lat="41.27801" lon="14.2944617"><ele>127.00000000000001</ele><time>2026-05-04T11:26:09.407Z</time></trkpt><trkpt lat="41.2780583" lon="14.2943817"><ele>127.0</ele><time>2026-05-04T11:26:10.405Z</time></trkpt><trkpt lat="41.2781167" lon="14.29431"><ele>127.0</ele><time>2026-05-04T11:26:11.405Z</time></trkpt><trkpt lat="41.2781717" lon="14.2942317"><ele>127.0</ele><time>2026-05-04T11:26:12.402Z</time></trkpt><trkpt lat="41.27823" lon="14.2941583"><ele>127.00000000000001</ele><time>2026-05-04T11:26:13.406Z</time></trkpt><trkpt lat="41.2782933" lon="14.2940867"><ele>127.0</ele><time>2026-05-04T11:26:14.404Z</time></trkpt><trkpt lat="41.2783417" lon="14.294015"><ele>126.50000000000001</ele><time>2026-05-04T11:26:15.403Z</time></trkpt><trkpt lat="41.27841" lon="14.2939583"><ele>126.0</ele><time>2026-05-04T11:26:16.404Z</time></trkpt><trkpt lat="41.27847" lon="14.293895"><ele>125.5</ele><time>2026-05-04T11:26:17.405Z</time></trkpt><trkpt lat="41.2785317" lon="14.293835"><ele>125.0</ele><time>2026-05-04T11:26:18.404Z</time></trkpt><trkpt lat="41.2785983" lon="14.2937633"><ele>124.50000000000001</ele><time>2026-05-04T11:26:19.404Z</time></trkpt><trkpt lat="41.27867" lon="14.293705"><ele>124.0</ele><time>2026-05-04T11:26:20.404Z</time></trkpt><trkpt lat="41.278745" lon="14.2936533"><ele>123.66666666666667</ele><time>2026-05-04T11:26:21.402Z</time></trkpt><trkpt lat="41.278825" lon="14.2936083"><ele>123.33333333333334</ele><time>2026-05-04T11:26:22.404Z</time></trkpt><trkpt lat="41.2789017" lon="14.2935667"><ele>123.0</ele><time>2026-05-04T11:26:23.403Z</time></trkpt><trkpt lat="41.2789783" lon="14.2935217"><ele>122.66666666666666</ele><time>2026-05-04T11:26:24.405Z</time></trkpt><trkpt lat="41.279055" lon="14.293475"><ele>122.33333333333333</ele><time>2026-05-04T11:26:25.405Z</time></trkpt><trkpt lat="41.2791267" lon="14.2934283"><ele>122.0</ele><time>2026-05-04T11:26:26.403Z</time></trkpt><trkpt lat="41.2792033" lon="14.2933833"><ele>121.66666666666666</ele><time>2026-05-04T11:26:27.403Z</time></trkpt><trkpt lat="41.2792783" lon="14.2933367"><ele>121.33333333333333</ele><time>2026-05-04T11:26:28.403Z</time></trkpt><trkpt lat="41.279355" lon="14.29329"><ele>121.0</ele><time>2026-05-04T11:26:29.404Z</time></trkpt><trkpt lat="41.2794317" lon="14.2932417"><ele>120.66666666666666</ele><time>2026-05-04T11:26:30.405Z</time></trkpt><trkpt lat="41.2795133" lon="14.2931933"><ele>120.33333333333333</ele><time>2026-05-04T11:26:31.405Z</time></trkpt><trkpt lat="41.27959" lon="14.293145"><ele>120.0</ele><time>2026-05-04T11:26:32.405Z</time></trkpt><trkpt lat="41.2796683" lon="14.293095"><ele>119.66666666666667</ele><time>2026-05-04T11:26:33.403Z</time></trkpt><trkpt lat="41.2797467" lon="14.2930433"><ele>119.33333333333334</ele><time>2026-05-04T11:26:34.407Z</time></trkpt><trkpt lat="41.2798283" lon="14.2929967"><ele>119.0</ele><time>2026-05-04T11:26:35.405Z</time></trkpt><trkpt lat="41.27991" lon="14.292955"><ele>118.66666666666667</ele><time>2026-05-04T11:26:36.404Z</time></trkpt><trkpt lat="41.279995" lon="14.2929167"><ele>118.33333333333334</ele><time>2026-05-04T11:26:37.404Z</time></trkpt><trkpt lat="41.28008" lon="14.2928833"><ele>118.0</ele><time>2026-05-04T11:26:38.402Z</time></trkpt><trkpt lat="41.280165" lon="14.2928483"><ele>117.50000000000001</ele><time>2026-05-04T11:26:39.405Z</time></trkpt><trkpt lat="41.2802517" lon="14.2928167"><ele>117.0</ele><time>2026-05-04T11:26:40.407Z</time></trkpt><trkpt lat="41.2803383" lon="14.2927883"><ele>116.5</ele><time>2026-05-04T11:26:41.403Z</time></trkpt><trkpt lat="41.2804233" lon="14.2927617"><ele>116.0</ele><time>2026-05-04T11:26:42.404Z</time></trkpt><trkpt lat="41.280505" lon="14.2927367"><ele>115.50000000000001</ele><time>2026-05-04T11:26:43.403Z</time></trkpt><trkpt lat="41.2805883" lon="14.292705"><ele>115.0</ele><time>2026-05-04T11:26:44.402Z</time></trkpt><trkpt lat="41.28067" lon="14.292675"><ele>114.83333333333334</ele><time>2026-05-04T11:26:45.404Z</time></trkpt><trkpt lat="41.28075" lon="14.2926433"><ele>114.66666666666667</ele><time>2026-05-04T11:26:46.405Z</time></trkpt><trkpt lat="41.2808317" lon="14.2926133"><ele>114.5</ele><time>2026-05-04T11:26:47.404Z</time></trkpt><trkpt lat="41.2809117" lon="14.2925833"><ele>114.33333333333334</ele><time>2026-05-04T11:26:48.407Z</time></trkpt><trkpt lat="41.2809967" lon="14.292555"><ele>114.16666666666667</ele><time>2026-05-04T11:26:49.41Z</time></trkpt><trkpt lat="41.2810783" lon="14.2925283"><ele>114.0</ele><time>2026-05-04T11:26:50.405Z</time></trkpt><trkpt lat="41.2811617" lon="14.29251"><ele>114.0</ele><time>2026-05-04T11:26:51.401Z</time></trkpt><trkpt lat="41.281245" lon="14.29249"><ele>114.0</ele><time>2026-05-04T11:26:52.402Z</time></trkpt><trkpt lat="41.2813233" lon="14.292465"><ele>114.0</ele><time>2026-05-04T11:26:53.404Z</time></trkpt><trkpt lat="41.2814" lon="14.29243"><ele>114.0</ele><time>2026-05-04T11:26:54.404Z</time></trkpt><trkpt lat="41.28148" lon="14.292405"><ele>114.0</ele><time>2026-05-04T11:26:55.402Z</time></trkpt><trkpt lat="41.2815533" lon="14.29238"><ele>114.0</ele><time>2026-05-04T11:26:56.403Z</time></trkpt><trkpt lat="41.2816317" lon="14.2923567"><ele>113.5</ele><time>2026-05-04T11:26:57.404Z</time></trkpt><trkpt lat="41.2817117" lon="14.2923333"><ele>113.0</ele><time>2026-05-04T11:26:58.405Z</time></trkpt><trkpt lat="41.28179" lon="14.2923067"><ele>112.5</ele><time>2026-05-04T11:26:59.405Z</time></trkpt><trkpt lat="41.2818683" lon="14.2922867"><ele>112.0</ele><time>2026-05-04T11:27:00.402Z</time></trkpt><trkpt lat="41.2819417" lon="14.2922617"><ele>111.5</ele><time>2026-05-04T11:27:01.405Z</time></trkpt><trkpt lat="41.2820133" lon="14.292235"><ele>111.0</ele><time>2026-05-04T11:27:02.403Z</time></trkpt><trkpt lat="41.2820867" lon="14.2922067"><ele>111.0</ele><time>2026-05-04T11:27:03.405Z</time></trkpt><trkpt lat="41.2821633" lon="14.2921833"><ele>111.0</ele><time>2026-05-04T11:27:04.403Z</time></trkpt><trkpt lat="41.2822417" lon="14.2921583"><ele>111.0</ele><time>2026-05-04T11:27:05.406Z</time></trkpt><trkpt lat="41.2823117" lon="14.2921317"><ele>111.0</ele><time>2026-05-04T11:27:06.406Z</time></trkpt><trkpt lat="41.2823883" lon="14.2921067"><ele>111.0</ele><time>2026-05-04T11:27:07.406Z</time></trkpt><trkpt lat="41.2824633" lon="14.29208"><ele>111.0</ele><time>2026-05-04T11:27:08.406Z</time></trkpt><trkpt lat="41.2825433" lon="14.2920583"><ele>110.66666666666667</ele><time>2026-05-04T11:27:09.403Z</time></trkpt><trkpt lat="41.2826167" lon="14.2920283"><ele>110.33333333333334</ele><time>2026-05-04T11:27:10.405Z</time></trkpt><trkpt lat="41.2826917" lon="14.292"><ele>110.0</ele><time>2026-05-04T11:27:11.402Z</time></trkpt><trkpt lat="41.28277" lon="14.2919733"><ele>109.66666666666667</ele><time>2026-05-04T11:27:12.404Z</time></trkpt><trkpt lat="41.2828517" lon="14.2919483"><ele>109.33333333333334</ele><time>2026-05-04T11:27:13.403Z</time></trkpt><trkpt lat="41.28293" lon="14.2919233"><ele>109.0</ele><time>2026-05-04T11:27:14.402Z</time></trkpt><trkpt lat="41.2830017" lon="14.2918933"><ele>109.0</ele><time>2026-05-04T11:27:15.403Z</time></trkpt><trkpt lat="41.2830683" lon="14.291865"><ele>109.0</ele><time>2026-05-04T11:27:16.405Z</time></trkpt><trkpt lat="41.2831367" lon="14.2918383"><ele>109.0</ele><time>2026-05-04T11:27:17.401Z</time></trkpt><trkpt lat="41.2832083" lon="14.2918117"><ele>109.0</ele><time>2026-05-04T11:27:18.403Z</time></trkpt><trkpt lat="41.2832833" lon="14.291785"><ele>109.0</ele><time>2026-05-04T11:27:19.404Z</time></trkpt><trkpt lat="41.28336" lon="14.2917567"><ele>109.0</ele><time>2026-05-04T11:27:20.403Z</time></trkpt><trkpt lat="41.2834317" lon="14.29173"><ele>109.0</ele><time>2026-05-04T11:27:21.401Z</time></trkpt><trkpt lat="41.283505" lon="14.2917017"><ele>108.50000000000001</ele><time>2026-05-04T11:27:22.411Z</time></trkpt><trkpt lat="41.28358" lon="14.2916733"><ele>108.0</ele><time>2026-05-04T11:27:23.403Z</time></trkpt><trkpt lat="41.2836467" lon="14.29165"><ele>107.5</ele><time>2026-05-04T11:27:24.405Z</time></trkpt><trkpt lat="41.283715" lon="14.291625"><ele>107.0</ele><time>2026-05-04T11:27:25.404Z</time></trkpt><trkpt lat="41.2837883" lon="14.2915967"><ele>106.50000000000001</ele><time>2026-05-04T11:27:26.402Z</time></trkpt><trkpt lat="41.2838667" lon="14.2915817"><ele>106.0</ele><time>2026-05-04T11:27:27.402Z</time></trkpt><trkpt lat="41.283945" lon="14.2915667"><ele>105.50000000000001</ele><time>2026-05-04T11:27:28.403Z</time></trkpt><trkpt lat="41.2840167" lon="14.2915433"><ele>105.0</ele><time>2026-05-04T11:27:29.403Z</time></trkpt><trkpt lat="41.2840967" lon="14.2915117"><ele>104.5</ele><time>2026-05-04T11:27:30.404Z</time></trkpt><trkpt lat="41.2841783" lon="14.291485"><ele>104.0</ele><time>2026-05-04T11:27:31.403Z</time></trkpt><trkpt lat="41.2842583" lon="14.291455"><ele>103.50000000000001</ele><time>2026-05-04T11:27:32.403Z</time></trkpt><trkpt lat="41.2843433" lon="14.29143"><ele>103.0</ele><time>2026-05-04T11:27:33.406Z</time></trkpt><trkpt lat="41.2844267" lon="14.291405"><ele>103.00000000000001</ele><time>2026-05-04T11:27:34.403Z</time></trkpt><trkpt lat="41.2845083" lon="14.2913817"><ele>103.0</ele><time>2026-05-04T11:27:35.402Z</time></trkpt><trkpt lat="41.2845867" lon="14.2913567"><ele>103.0</ele><time>2026-05-04T11:27:36.402Z</time></trkpt><trkpt lat="41.284655" lon="14.2913333"><ele>103.0</ele><time>2026-05-04T11:27:37.402Z</time></trkpt><trkpt lat="41.28473" lon="14.29131"><ele>103.00000000000001</ele><time>2026-05-04T11:27:38.401Z</time></trkpt><trkpt lat="41.2847983" lon="14.2912833"><ele>103.0</ele><time>2026-05-04T11:27:39.403Z</time></trkpt><trkpt lat="41.284865" lon="14.291255"><ele>103.00000000000001</ele><time>2026-05-04T11:27:40.402Z</time></trkpt><trkpt lat="41.2849433" lon="14.2912283"><ele>103.0</ele><time>2026-05-04T11:27:41.403Z</time></trkpt><trkpt lat="41.2850167" lon="14.2912017"><ele>103.0</ele><time>2026-05-04T11:27:42.402Z</time></trkpt><trkpt lat="41.2850833" lon="14.29118"><ele>103.0</ele><time>2026-05-04T11:27:43.406Z</time></trkpt><trkpt lat="41.2851583" lon="14.291155"><ele>103.00000000000001</ele><time>2026-05-04T11:27:44.402Z</time></trkpt><trkpt lat="41.2852367" lon="14.291125"><ele>103.0</ele><time>2026-05-04T11:27:45.402Z</time></trkpt><trkpt lat="41.2853083" lon="14.2910933"><ele>103.00000000000001</ele><time>2026-05-04T11:27:46.403Z</time></trkpt><trkpt lat="41.28538" lon="14.2910617"><ele>103.0</ele><time>2026-05-04T11:27:47.402Z</time></trkpt><trkpt lat="41.2854483" lon="14.29103"><ele>103.0</ele><time>2026-05-04T11:27:48.401Z</time></trkpt><trkpt lat="41.2855233" lon="14.2910067"><ele>103.0</ele><time>2026-05-04T11:27:49.403Z</time></trkpt><trkpt lat="41.2855967" lon="14.2909783"><ele>103.00000000000001</ele><time>2026-05-04T11:27:50.402Z</time></trkpt><trkpt lat="41.285675" lon="14.2909517"><ele>103.0</ele><time>2026-05-04T11:27:51.402Z</time></trkpt><trkpt lat="41.2857583" lon="14.2909283"><ele>102.50000000000001</ele><time>2026-05-04T11:27:52.402Z</time></trkpt><trkpt lat="41.2858367" lon="14.2909033"><ele>102.0</ele><time>2026-05-04T11:27:53.403Z</time></trkpt><trkpt lat="41.2859117" lon="14.2908733"><ele>101.5</ele><time>2026-05-04T11:27:54.402Z</time></trkpt><trkpt lat="41.2859867" lon="14.2908433"><ele>101.0</ele><time>2026-05-04T11:27:55.402Z</time></trkpt><trkpt lat="41.2860583" lon="14.290815"><ele>100.50000000000001</ele><time>2026-05-04T11:27:56.401Z</time></trkpt><trkpt lat="41.28613" lon="14.290785"><ele>100.0</ele><time>2026-05-04T11:27:57.402Z</time></trkpt><trkpt lat="41.2862033" lon="14.2907567"><ele>100.00000000000001</ele><time>2026-05-04T11:27:58.403Z</time></trkpt><trkpt lat="41.28628" lon="14.2907233"><ele>100.0</ele><time>2026-05-04T11:27:59.403Z</time></trkpt><trkpt lat="41.286355" lon="14.2906867"><ele>100.0</ele><time>2026-05-04T11:28:00.403Z</time></trkpt><trkpt lat="41.2864267" lon="14.2906517"><ele>100.0</ele><time>2026-05-04T11:28:01.401Z</time></trkpt><trkpt lat="41.2865033" lon="14.2906083"><ele>100.00000000000001</ele><time>2026-05-04T11:28:02.403Z</time></trkpt><trkpt lat="41.2865883" lon="14.290575"><ele>100.0</ele><time>2026-05-04T11:28:03.402Z</time></trkpt><trkpt lat="41.2866617" lon="14.2905217"><ele>99.16666666666667</ele><time>2026-05-04T11:28:04.402Z</time></trkpt><trkpt lat="41.28673" lon="14.2904517"><ele>98.33333333333334</ele><time>2026-05-04T11:28:05.403Z</time></trkpt><trkpt lat="41.2867867" lon="14.2903767"><ele>97.5</ele><time>2026-05-04T11:28:06.402Z</time></trkpt><trkpt lat="41.2868483" lon="14.2902967"><ele>96.66666666666667</ele><time>2026-05-04T11:28:07.402Z</time></trkpt><trkpt lat="41.286915" lon="14.2902067"><ele>95.83333333333334</ele><time>2026-05-04T11:28:08.402Z</time></trkpt><trkpt lat="41.2869667" lon="14.290115"><ele>95.0</ele><time>2026-05-04T11:28:09.402Z</time></trkpt><trkpt lat="41.2870333" lon="14.2900317"><ele>95.0</ele><time>2026-05-04T11:28:10.402Z</time></trkpt><trkpt lat="41.287095" lon="14.2899467"><ele>95.0</ele><time>2026-05-04T11:28:11.403Z</time></trkpt><trkpt lat="41.287165" lon="14.289855"><ele>95.0</ele><time>2026-05-04T11:28:12.403Z</time></trkpt><trkpt lat="41.287235" lon="14.289765"><ele>95.0</ele><time>2026-05-04T11:28:13.403Z</time></trkpt><trkpt lat="41.2872967" lon="14.289665"><ele>95.0</ele><time>2026-05-04T11:28:14.403Z</time></trkpt><trkpt lat="41.287355" lon="14.2895617"><ele>94.5</ele><time>2026-05-04T11:28:15.401Z</time></trkpt><trkpt lat="41.2874083" lon="14.2894583"><ele>94.0</ele><time>2026-05-04T11:28:16.402Z</time></trkpt><trkpt lat="41.2874533" lon="14.2893533"><ele>93.5</ele><time>2026-05-04T11:28:17.403Z</time></trkpt><trkpt lat="41.2874833" lon="14.289245"><ele>93.0</ele><time>2026-05-04T11:28:18.403Z</time></trkpt><trkpt lat="41.287505" lon="14.2891367"><ele>92.5</ele><time>2026-05-04T11:28:19.402Z</time></trkpt><trkpt lat="41.2875183" lon="14.28903"><ele>92.0</ele><time>2026-05-04T11:28:20.402Z</time></trkpt><trkpt lat="41.2875267" lon="14.2889267"><ele>92.66666666666667</ele><time>2026-05-04T11:28:21.402Z</time></trkpt><trkpt lat="41.287535" lon="14.288825"><ele>93.33333333333334</ele><time>2026-05-04T11:28:22.402Z</time></trkpt><trkpt lat="41.2875433" lon="14.288725"><ele>94.0</ele><time>2026-05-04T11:28:23.402Z</time></trkpt><trkpt lat="41.28755" lon="14.2886317"><ele>94.66666666666667</ele><time>2026-05-04T11:28:24.403Z</time></trkpt><trkpt lat="41.28755" lon="14.2885467"><ele>95.33333333333333</ele><time>2026-05-04T11:28:25.404Z</time></trkpt><trkpt lat="41.2875483" lon="14.2884617"><ele>96.0</ele><time>2026-05-04T11:28:26.402Z</time></trkpt><trkpt lat="41.287555" lon="14.288295"><ele>96.0</ele><time>2026-05-04T11:28:28.406Z</time></trkpt><trkpt lat="41.2875533" lon="14.2881483"><ele>96.0</ele><time>2026-05-04T11:28:30.402Z</time></trkpt><trkpt lat="41.287555" lon="14.2880117"><ele>96.0</ele><time>2026-05-04T11:28:32.406Z</time></trkpt><trkpt lat="41.2875667" lon="14.2878867"><ele>96.0</ele><time>2026-05-04T11:28:34.404Z</time></trkpt><trkpt lat="41.2875917" lon="14.287765"><ele>96.0</ele><time>2026-05-04T11:28:36.586Z</time></trkpt><trkpt lat="41.287605" lon="14.287655"><ele>96.33333333333333</ele><time>2026-05-04T11:28:38.406Z</time></trkpt><trkpt lat="41.287625" lon="14.2875667"><ele>96.66666666666666</ele><time>2026-05-04T11:28:40.401Z</time></trkpt><trkpt lat="41.2876383" lon="14.2874767"><ele>97.0</ele><time>2026-05-04T11:28:42.405Z</time></trkpt><trkpt lat="41.28765" lon="14.28737"><ele>97.33333333333333</ele><time>2026-05-04T11:28:44.402Z</time></trkpt><trkpt lat="41.2876667" lon="14.2872617"><ele>97.66666666666666</ele><time>2026-05-04T11:28:46.402Z</time></trkpt><trkpt lat="41.2876883" lon="14.2871533"><ele>98.0</ele><time>2026-05-04T11:28:48.403Z</time></trkpt><trkpt lat="41.2877033" lon="14.2870433"><ele>98.33333333333333</ele><time>2026-05-04T11:28:50.403Z</time></trkpt><trkpt lat="41.2877117" lon="14.286925"><ele>98.66666666666666</ele><time>2026-05-04T11:28:52.402Z</time></trkpt><trkpt lat="41.2877233" lon="14.2868167"><ele>99.0</ele><time>2026-05-04T11:28:54.404Z</time></trkpt><trkpt lat="41.2877367" lon="14.28671"><ele>99.33333333333334</ele><time>2026-05-04T11:28:56.402Z</time></trkpt><trkpt lat="41.2877483" lon="14.286595"><ele>99.66666666666667</ele><time>2026-05-04T11:28:58.403Z</time></trkpt><trkpt lat="41.2877533" lon="14.2864783"><ele>100.0</ele><time>2026-05-04T11:29:00.403Z</time></trkpt><trkpt lat="41.2877667" lon="14.286365"><ele>100.00000000000001</ele><time>2026-05-04T11:29:02.403Z</time></trkpt><trkpt lat="41.2877767" lon="14.2862517"><ele>100.0</ele><time>2026-05-04T11:29:04.403Z</time></trkpt><trkpt lat="41.287795" lon="14.2861317"><ele>100.0</ele><time>2026-05-04T11:29:06.402Z</time></trkpt><trkpt lat="41.2878033" lon="14.28602"><ele>100.0</ele><time>2026-05-04T11:29:08.402Z</time></trkpt><trkpt lat="41.28781" lon="14.2859033"><ele>100.00000000000001</ele><time>2026-05-04T11:29:10.403Z</time></trkpt><trkpt lat="41.2878167" lon="14.2857817"><ele>100.0</ele><time>2026-05-04T11:29:12.412Z</time></trkpt><trkpt lat="41.2878183" lon="14.2856617"><ele>100.4</ele><time>2026-05-04T11:29:14.405Z</time></trkpt><trkpt lat="41.2878233" lon="14.28554"><ele>100.8</ele><time>2026-05-04T11:29:16.403Z</time></trkpt><trkpt lat="41.28784" lon="14.2854117"><ele>101.19999999999999</ele><time>2026-05-04T11:29:18.404Z</time></trkpt><trkpt lat="41.2878583" lon="14.2852833"><ele>101.6</ele><time>2026-05-04T11:29:20.404Z</time></trkpt><trkpt lat="41.2878733" lon="14.2851583"><ele>102.0</ele><time>2026-05-04T11:29:22.403Z</time></trkpt><trkpt lat="41.2878817" lon="14.2850283"><ele>102.0</ele><time>2026-05-04T11:29:24.404Z</time></trkpt><trkpt lat="41.2878917" lon="14.2848967"><ele>102.0</ele><time>2026-05-04T11:29:26.404Z</time></trkpt><trkpt lat="41.2878967" lon="14.284765"><ele>102.0</ele><time>2026-05-04T11:29:28.404Z</time></trkpt><trkpt lat="41.287905" lon="14.2846417"><ele>102.0</ele><time>2026-05-04T11:29:30.405Z</time></trkpt><trkpt lat="41.2879167" lon="14.28452"><ele>102.0</ele><time>2026-05-04T11:29:32.404Z</time></trkpt><trkpt lat="41.28792" lon="14.28439"><ele>102.39999999999999</ele><time>2026-05-04T11:29:34.403Z</time></trkpt><trkpt lat="41.2879133" lon="14.28426"><ele>102.8</ele><time>2026-05-04T11:29:36.404Z</time></trkpt><trkpt lat="41.2879" lon="14.2841333"><ele>103.2</ele><time>2026-05-04T11:29:38.404Z</time></trkpt><trkpt lat="41.2878833" lon="14.28401"><ele>103.6</ele><time>2026-05-04T11:29:40.404Z</time></trkpt><trkpt lat="41.2878667" lon="14.28389"><ele>104.0</ele><time>2026-05-04T11:29:42.404Z</time></trkpt><trkpt lat="41.28785" lon="14.2837683"><ele>104.0</ele><time>2026-05-04T11:29:44.404Z</time></trkpt><trkpt lat="41.2878317" lon="14.28364"><ele>104.0</ele><time>2026-05-04T11:29:46.404Z</time></trkpt><trkpt lat="41.2878167" lon="14.2835067"><ele>104.0</ele><time>2026-05-04T11:29:48.405Z</time></trkpt><trkpt lat="41.2878017" lon="14.28338"><ele>104.0</ele><time>2026-05-04T11:29:50.405Z</time></trkpt><trkpt lat="41.2877883" lon="14.283245"><ele>104.0</ele><time>2026-05-04T11:29:52.405Z</time></trkpt><trkpt lat="41.2877883" lon="14.28311"><ele>104.6</ele><time>2026-05-04T11:29:54.404Z</time></trkpt><trkpt lat="41.2877983" lon="14.2829783"><ele>105.2</ele><time>2026-05-04T11:29:56.404Z</time></trkpt><trkpt lat="41.2878083" lon="14.2828417"><ele>105.79999999999998</ele><time>2026-05-04T11:29:58.405Z</time></trkpt><trkpt lat="41.2878133" lon="14.2827033"><ele>106.39999999999999</ele><time>2026-05-04T11:30:00.404Z</time></trkpt><trkpt lat="41.2878233" lon="14.2825617"><ele>107.0</ele><time>2026-05-04T11:30:02.406Z</time></trkpt><trkpt lat="41.2878317" lon="14.282425"><ele>107.0</ele><time>2026-05-04T11:30:04.404Z</time></trkpt><trkpt lat="41.2878417" lon="14.2822867"><ele>106.99999999999999</ele><time>2026-05-04T11:30:06.406Z</time></trkpt><trkpt lat="41.2878433" lon="14.282155"><ele>106.99999999999999</ele><time>2026-05-04T11:30:08.406Z</time></trkpt><trkpt lat="41.2878417" lon="14.2820217"><ele>107.0</ele><time>2026-05-04T11:30:10.403Z</time></trkpt><trkpt lat="41.2878383" lon="14.281895"><ele>107.0</ele><time>2026-05-04T11:30:12.405Z</time></trkpt><trkpt lat="41.2878283" lon="14.2817717"><ele>106.8</ele><time>2026-05-04T11:30:14.405Z</time></trkpt><trkpt lat="41.2878167" lon="14.2816517"><ele>106.6</ele><time>2026-05-04T11:30:16.406Z</time></trkpt><trkpt lat="41.2878117" lon="14.2815283"><ele>106.39999999999999</ele><time>2026-05-04T11:30:18.405Z</time></trkpt><trkpt lat="41.287805" lon="14.2814"><ele>106.19999999999999</ele><time>2026-05-04T11:30:20.404Z</time></trkpt><trkpt lat="41.2877933" lon="14.2812617"><ele>106.0</ele><time>2026-05-04T11:30:22.404Z</time></trkpt><trkpt lat="41.28778" lon="14.2811167"><ele>106.0</ele><time>2026-05-04T11:30:24.405Z</time></trkpt><trkpt lat="41.287775" lon="14.280965"><ele>106.0</ele><time>2026-05-04T11:30:26.404Z</time></trkpt><trkpt lat="41.2877833" lon="14.2808117"><ele>106.0</ele><time>2026-05-04T11:30:28.404Z</time></trkpt><trkpt lat="41.2878117" lon="14.2806583"><ele>106.0</ele><time>2026-05-04T11:30:30.404Z</time></trkpt><trkpt lat="41.2878467" lon="14.2805167"><ele>106.0</ele><time>2026-05-04T11:30:32.404Z</time></trkpt><trkpt lat="41.2878983" lon="14.280395"><ele>106.0</ele><time>2026-05-04T11:30:34.404Z</time></trkpt><trkpt lat="41.2879567" lon="14.2802833"><ele>106.0</ele><time>2026-05-04T11:30:36.403Z</time></trkpt><trkpt lat="41.288015" lon="14.2801683"><ele>106.0</ele><time>2026-05-04T11:30:38.405Z</time></trkpt><trkpt lat="41.2880767" lon="14.2800517"><ele>106.0</ele><time>2026-05-04T11:30:40.406Z</time></trkpt><trkpt lat="41.2881433" lon="14.2799433"><ele>106.5</ele><time>2026-05-04T11:30:42.406Z</time></trkpt><trkpt lat="41.28822" lon="14.279825"><ele>107.0</ele><time>2026-05-04T11:30:44.404Z</time></trkpt><trkpt lat="41.2882817" lon="14.2796883"><ele>107.5</ele><time>2026-05-04T11:30:46.405Z</time></trkpt><trkpt lat="41.28834" lon="14.2795517"><ele>108.0</ele><time>2026-05-04T11:30:48.403Z</time></trkpt><trkpt lat="41.2884117" lon="14.27943"><ele>108.0</ele><time>2026-05-04T11:30:50.406Z</time></trkpt><trkpt lat="41.2884817" lon="14.279305"><ele>108.00000000000001</ele><time>2026-05-04T11:30:52.406Z</time></trkpt><trkpt lat="41.28855" lon="14.2791867"><ele>108.00000000000001</ele><time>2026-05-04T11:30:54.406Z</time></trkpt><trkpt lat="41.2886183" lon="14.2790783"><ele>108.0</ele><time>2026-05-04T11:30:56.405Z</time></trkpt><trkpt lat="41.2886833" lon="14.2789683"><ele>108.0</ele><time>2026-05-04T11:30:58.406Z</time></trkpt><trkpt lat="41.2887517" lon="14.2788717"><ele>108.4</ele><time>2026-05-04T11:31:00.405Z</time></trkpt><trkpt lat="41.2888267" lon="14.27878"><ele>108.80000000000001</ele><time>2026-05-04T11:31:02.404Z</time></trkpt><trkpt lat="41.2888933" lon="14.2786867"><ele>109.2</ele><time>2026-05-04T11:31:04.406Z</time></trkpt><trkpt lat="41.2889617" lon="14.2785917"><ele>109.6</ele><time>2026-05-04T11:31:06.406Z</time></trkpt><trkpt lat="41.2890283" lon="14.278495"><ele>110.0</ele><time>2026-05-04T11:31:08.406Z</time></trkpt><trkpt lat="41.2891017" lon="14.2784"><ele>110.4</ele><time>2026-05-04T11:31:10.406Z</time></trkpt><trkpt lat="41.289165" lon="14.2783017"><ele>110.8</ele><time>2026-05-04T11:31:12.405Z</time></trkpt><trkpt lat="41.2892233" lon="14.2782"><ele>111.19999999999999</ele><time>2026-05-04T11:31:14.406Z</time></trkpt><trkpt lat="41.2892817" lon="14.27809"><ele>111.6</ele><time>2026-05-04T11:31:16.403Z</time></trkpt><trkpt lat="41.2893267" lon="14.2779683"><ele>112.0</ele><time>2026-05-04T11:31:18.405Z</time></trkpt><trkpt lat="41.2893633" lon="14.27784"><ele>112.39999999999999</ele><time>2026-05-04T11:31:20.403Z</time></trkpt><trkpt lat="41.2893967" lon="14.2777117"><ele>112.79999999999998</ele><time>2026-05-04T11:31:22.404Z</time></trkpt><trkpt lat="41.2894183" lon="14.2775817"><ele>113.2</ele><time>2026-05-04T11:31:24.405Z</time></trkpt><trkpt lat="41.2894217" lon="14.277445"><ele>113.6</ele><time>2026-05-04T11:31:26.405Z</time></trkpt><trkpt lat="41.2893983" lon="14.27731"><ele>114.0</ele><time>2026-05-04T11:31:28.403Z</time></trkpt><trkpt lat="41.2893883" lon="14.277185"><ele>114.4</ele><time>2026-05-04T11:31:30.405Z</time></trkpt><trkpt lat="41.2893667" lon="14.27705"><ele>114.80000000000001</ele><time>2026-05-04T11:31:32.404Z</time></trkpt><trkpt lat="41.28934" lon="14.2769217"><ele>115.19999999999999</ele><time>2026-05-04T11:31:34.405Z</time></trkpt><trkpt lat="41.289305" lon="14.2767983"><ele>115.6</ele><time>2026-05-04T11:31:36.405Z</time></trkpt><trkpt lat="41.2892517" lon="14.2766833"><ele>116.0</ele><time>2026-05-04T11:31:38.406Z</time></trkpt><trkpt lat="41.28919" lon="14.2765783"><ele>116.0</ele><time>2026-05-04T11:31:40.404Z</time></trkpt><trkpt lat="41.289125" lon="14.2764717"><ele>116.0</ele><time>2026-05-04T11:31:42.404Z</time></trkpt><trkpt lat="41.2890567" lon="14.2763733"><ele>116.0</ele><time>2026-05-04T11:31:44.404Z</time></trkpt><trkpt lat="41.2889867" lon="14.2762817"><ele>116.0</ele><time>2026-05-04T11:31:46.405Z</time></trkpt><trkpt lat="41.2889217" lon="14.27619"><ele>116.0</ele><time>2026-05-04T11:31:48.405Z</time></trkpt><trkpt lat="41.288855" lon="14.27609"><ele>116.0</ele><time>2026-05-04T11:31:50.404Z</time></trkpt><trkpt lat="41.2887867" lon="14.2759817"><ele>116.0</ele><time>2026-05-04T11:31:52.404Z</time></trkpt><trkpt lat="41.2887183" lon="14.27587"><ele>116.0</ele><time>2026-05-04T11:31:54.404Z</time></trkpt><trkpt lat="41.2886517" lon="14.2757467"><ele>116.0</ele><time>2026-05-04T11:31:56.405Z</time></trkpt><trkpt lat="41.2885817" lon="14.275625"><ele>116.0</ele><time>2026-05-04T11:31:58.406Z</time></trkpt><trkpt lat="41.2885133" lon="14.27549"><ele>115.99999999999999</ele><time>2026-05-04T11:32:00.406Z</time></trkpt><trkpt lat="41.2884617" lon="14.275335"><ele>116.0</ele><time>2026-05-04T11:32:02.404Z</time></trkpt><trkpt lat="41.2884567" lon="14.275245"><ele>116.0</ele><time>2026-05-04T11:32:03.403Z</time></trkpt><trkpt lat="41.2884667" lon="14.2751517"><ele>116.0</ele><time>2026-05-04T11:32:04.405Z</time></trkpt><trkpt lat="41.288495" lon="14.275065"><ele>115.99999999999999</ele><time>2026-05-04T11:32:05.406Z</time></trkpt><trkpt lat="41.2885267" lon="14.27499"><ele>116.0</ele><time>2026-05-04T11:32:06.405Z</time></trkpt><trkpt lat="41.2885683" lon="14.274925"><ele>116.0</ele><time>2026-05-04T11:32:07.406Z</time></trkpt><trkpt lat="41.2886467" lon="14.2748117"><ele>116.0</ele><time>2026-05-04T11:32:09.407Z</time></trkpt><trkpt lat="41.2887217" lon="14.2747"><ele>116.0</ele><time>2026-05-04T11:32:11.405Z</time></trkpt><trkpt lat="41.28879" lon="14.274585"><ele>116.0</ele><time>2026-05-04T11:32:13.406Z</time></trkpt><trkpt lat="41.28885" lon="14.2744617"><ele>116.0</ele><time>2026-05-04T11:32:15.403Z</time></trkpt><trkpt lat="41.2889067" lon="14.2743383"><ele>116.6</ele><time>2026-05-04T11:32:17.406Z</time></trkpt><trkpt lat="41.28896" lon="14.2742117"><ele>117.19999999999999</ele><time>2026-05-04T11:32:19.406Z</time></trkpt><trkpt lat="41.2890133" lon="14.27408"><ele>117.80000000000001</ele><time>2026-05-04T11:32:21.405Z</time></trkpt><trkpt lat="41.2890583" lon="14.273945"><ele>118.4</ele><time>2026-05-04T11:32:23.407Z</time></trkpt><trkpt lat="41.2890983" lon="14.2738133"><ele>119.0</ele><time>2026-05-04T11:32:25.41Z</time></trkpt><trkpt lat="41.2891583" lon="14.27369"><ele>119.4</ele><time>2026-05-04T11:32:27.405Z</time></trkpt><trkpt lat="41.2892233" lon="14.2735733"><ele>119.80000000000001</ele><time>2026-05-04T11:32:29.405Z</time></trkpt><trkpt lat="41.289295" lon="14.2734783"><ele>120.19999999999999</ele><time>2026-05-04T11:32:31.405Z</time></trkpt><trkpt lat="41.2893833" lon="14.2734067"><ele>120.6</ele><time>2026-05-04T11:32:33.404Z</time></trkpt><trkpt lat="41.2894733" lon="14.2733217"><ele>121.0</ele><time>2026-05-04T11:32:35.405Z</time></trkpt><trkpt lat="41.2895683" lon="14.273235"><ele>121.0</ele><time>2026-05-04T11:32:37.407Z</time></trkpt><trkpt lat="41.289675" lon="14.27315"><ele>121.0</ele><time>2026-05-04T11:32:39.404Z</time></trkpt><trkpt lat="41.2897733" lon="14.2730583"><ele>121.0</ele><time>2026-05-04T11:32:41.407Z</time></trkpt><trkpt lat="41.2898717" lon="14.2729633"><ele>121.0</ele><time>2026-05-04T11:32:43.406Z</time></trkpt><trkpt lat="41.2899583" lon="14.2728533"><ele>120.8</ele><time>2026-05-04T11:32:45.407Z</time></trkpt><trkpt lat="41.2900033" lon="14.2727933"><ele>120.6</ele><time>2026-05-04T11:32:46.406Z</time></trkpt><trkpt lat="41.290085" lon="14.27268"><ele>120.4</ele><time>2026-05-04T11:32:48.406Z</time></trkpt><trkpt lat="41.290155" lon="14.2725617"><ele>120.2</ele><time>2026-05-04T11:32:50.407Z</time></trkpt><trkpt lat="41.2902183" lon="14.2724367"><ele>120.0</ele><time>2026-05-04T11:32:52.406Z</time></trkpt><trkpt lat="41.2902967" lon="14.2723283"><ele>120.4</ele><time>2026-05-04T11:32:54.408Z</time></trkpt><trkpt lat="41.290375" lon="14.2722333"><ele>120.8</ele><time>2026-05-04T11:32:56.407Z</time></trkpt><trkpt lat="41.2904417" lon="14.2721467"><ele>121.19999999999999</ele><time>2026-05-04T11:32:58.408Z</time></trkpt><trkpt lat="41.2905133" lon="14.2720467"><ele>121.6</ele><time>2026-05-04T11:33:00.406Z</time></trkpt><trkpt lat="41.2905967" lon="14.2719433"><ele>122.0</ele><time>2026-05-04T11:33:02.408Z</time></trkpt><trkpt lat="41.290645" lon="14.2718833"><ele>121.33333333333333</ele><time>2026-05-04T11:33:03.408Z</time></trkpt><trkpt lat="41.29074" lon="14.2717767"><ele>120.66666666666666</ele><time>2026-05-04T11:33:05.406Z</time></trkpt><trkpt lat="41.2907917" lon="14.2717133"><ele>120.0</ele><time>2026-05-04T11:33:06.406Z</time></trkpt><trkpt lat="41.2908467" lon="14.2716533"><ele>119.33333333333334</ele><time>2026-05-04T11:33:07.406Z</time></trkpt><trkpt lat="41.2909033" lon="14.27159"><ele>118.66666666666667</ele><time>2026-05-04T11:33:08.406Z</time></trkpt><trkpt lat="41.2909517" lon="14.27152"><ele>118.0</ele><time>2026-05-04T11:33:09.406Z</time></trkpt><trkpt lat="41.290995" lon="14.2714467"><ele>118.28571428571428</ele><time>2026-05-04T11:33:10.407Z</time></trkpt><trkpt lat="41.2910367" lon="14.2713717"><ele>118.57142857142858</ele><time>2026-05-04T11:33:11.408Z</time></trkpt><trkpt lat="41.2910767" lon="14.2713017"><ele>118.85714285714286</ele><time>2026-05-04T11:33:12.406Z</time></trkpt><trkpt lat="41.291115" lon="14.27123"><ele>119.14285714285714</ele><time>2026-05-04T11:33:13.406Z</time></trkpt><trkpt lat="41.2911567" lon="14.2711633"><ele>119.42857142857142</ele><time>2026-05-04T11:33:14.407Z</time></trkpt><trkpt lat="41.2911967" lon="14.2710933"><ele>119.71428571428572</ele><time>2026-05-04T11:33:15.407Z</time></trkpt><trkpt lat="41.291235" lon="14.271025"><ele>120.0</ele><time>2026-05-04T11:33:16.406Z</time></trkpt><trkpt lat="41.291315" lon="14.270895"><ele>120.0</ele><time>2026-05-04T11:33:18.408Z</time></trkpt><trkpt lat="41.2914" lon="14.2707783"><ele>120.0</ele><time>2026-05-04T11:33:20.407Z</time></trkpt><trkpt lat="41.2914867" lon="14.2706567"><ele>120.0</ele><time>2026-05-04T11:33:22.408Z</time></trkpt><trkpt lat="41.29157" lon="14.2705383"><ele>120.0</ele><time>2026-05-04T11:33:24.408Z</time></trkpt><trkpt lat="41.2916583" lon="14.2704333"><ele>119.75</ele><time>2026-05-04T11:33:26.407Z</time></trkpt><trkpt lat="41.29175" lon="14.270325"><ele>119.5</ele><time>2026-05-04T11:33:28.406Z</time></trkpt><trkpt lat="41.2918417" lon="14.270225"><ele>119.25</ele><time>2026-05-04T11:33:30.405Z</time></trkpt><trkpt lat="41.29193" lon="14.27012"><ele>119.0</ele><time>2026-05-04T11:33:32.405Z</time></trkpt><trkpt lat="41.29202" lon="14.27002"><ele>119.0</ele><time>2026-05-04T11:33:34.406Z</time></trkpt><trkpt lat="41.292105" lon="14.2699183"><ele>119.0</ele><time>2026-05-04T11:33:36.406Z</time></trkpt><trkpt lat="41.2921883" lon="14.26981"><ele>119.0</ele><time>2026-05-04T11:33:38.406Z</time></trkpt><trkpt lat="41.29227" lon="14.269705"><ele>119.0</ele><time>2026-05-04T11:33:40.406Z</time></trkpt><trkpt lat="41.2923583" lon="14.2695983"><ele>118.75</ele><time>2026-05-04T11:33:42.404Z</time></trkpt><trkpt lat="41.2924467" lon="14.2694867"><ele>118.5</ele><time>2026-05-04T11:33:44.404Z</time></trkpt><trkpt lat="41.2925417" lon="14.269385"><ele>118.25</ele><time>2026-05-04T11:33:46.406Z</time></trkpt><trkpt lat="41.2926317" lon="14.2692867"><ele>118.0</ele><time>2026-05-04T11:33:48.406Z</time></trkpt><trkpt lat="41.292715" lon="14.269185"><ele>118.0</ele><time>2026-05-04T11:33:50.404Z</time></trkpt><trkpt lat="41.2928033" lon="14.26909"><ele>118.00000000000001</ele><time>2026-05-04T11:33:52.406Z</time></trkpt><trkpt lat="41.2928917" lon="14.2689983"><ele>118.00000000000001</ele><time>2026-05-04T11:33:54.406Z</time></trkpt><trkpt lat="41.2929717" lon="14.2688967"><ele>118.0</ele><time>2026-05-04T11:33:56.404Z</time></trkpt><trkpt lat="41.2930567" lon="14.2688017"><ele>118.0</ele><time>2026-05-04T11:33:58.405Z</time></trkpt><trkpt lat="41.2931483" lon="14.2687067"><ele>117.66666666666667</ele><time>2026-05-04T11:34:00.405Z</time></trkpt><trkpt lat="41.2932367" lon="14.2686067"><ele>117.33333333333334</ele><time>2026-05-04T11:34:02.405Z</time></trkpt><trkpt lat="41.2933317" lon="14.2685"><ele>117.0</ele><time>2026-05-04T11:34:04.408Z</time></trkpt><trkpt lat="41.2933817" lon="14.2684483"><ele>116.66666666666666</ele><time>2026-05-04T11:34:05.405Z</time></trkpt><trkpt lat="41.293435" lon="14.2683917"><ele>116.33333333333333</ele><time>2026-05-04T11:34:06.405Z</time></trkpt><trkpt lat="41.2934933" lon="14.2683317"><ele>116.0</ele><time>2026-05-04T11:34:07.406Z</time></trkpt><trkpt lat="41.2935483" lon="14.26827"><ele>115.99999999999999</ele><time>2026-05-04T11:34:08.404Z</time></trkpt><trkpt lat="41.293605" lon="14.2682033"><ele>116.0</ele><time>2026-05-04T11:34:09.404Z</time></trkpt><trkpt lat="41.29366" lon="14.2681333"><ele>116.0</ele><time>2026-05-04T11:34:10.405Z</time></trkpt><trkpt lat="41.2937167" lon="14.2680617"><ele>116.0</ele><time>2026-05-04T11:34:11.404Z</time></trkpt><trkpt lat="41.2937733" lon="14.2679883"><ele>115.99999999999999</ele><time>2026-05-04T11:34:12.405Z</time></trkpt><trkpt lat="41.29383" lon="14.2679167"><ele>116.0</ele><time>2026-05-04T11:34:13.406Z</time></trkpt><trkpt lat="41.2938867" lon="14.267845"><ele>115.83333333333333</ele><time>2026-05-04T11:34:14.403Z</time></trkpt><trkpt lat="41.293945" lon="14.2677733"><ele>115.66666666666666</ele><time>2026-05-04T11:34:15.404Z</time></trkpt><trkpt lat="41.2940017" lon="14.2677"><ele>115.5</ele><time>2026-05-04T11:34:16.406Z</time></trkpt><trkpt lat="41.29406" lon="14.2676283"><ele>115.33333333333334</ele><time>2026-05-04T11:34:17.404Z</time></trkpt><trkpt lat="41.2941217" lon="14.2675583"><ele>115.16666666666667</ele><time>2026-05-04T11:34:18.405Z</time></trkpt><trkpt lat="41.2941833" lon="14.267485"><ele>115.0</ele><time>2026-05-04T11:34:19.406Z</time></trkpt><trkpt lat="41.2942417" lon="14.2674133"><ele>115.00000000000001</ele><time>2026-05-04T11:34:20.404Z</time></trkpt><trkpt lat="41.2943017" lon="14.26734"><ele>115.0</ele><time>2026-05-04T11:34:21.406Z</time></trkpt><trkpt lat="41.2943567" lon="14.2672667"><ele>115.0</ele><time>2026-05-04T11:34:22.404Z</time></trkpt><trkpt lat="41.294415" lon="14.2671917"><ele>115.0</ele><time>2026-05-04T11:34:23.407Z</time></trkpt><trkpt lat="41.29447" lon="14.2671167"><ele>115.00000000000001</ele><time>2026-05-04T11:34:24.404Z</time></trkpt><trkpt lat="41.2945267" lon="14.26704"><ele>115.0</ele><time>2026-05-04T11:34:25.406Z</time></trkpt><trkpt lat="41.294585" lon="14.266965"><ele>115.16666666666667</ele><time>2026-05-04T11:34:26.404Z</time></trkpt><trkpt lat="41.2946417" lon="14.2668883"><ele>115.33333333333334</ele><time>2026-05-04T11:34:27.403Z</time></trkpt><trkpt lat="41.2946983" lon="14.2668133"><ele>115.5</ele><time>2026-05-04T11:34:28.404Z</time></trkpt><trkpt lat="41.2947583" lon="14.26674"><ele>115.66666666666666</ele><time>2026-05-04T11:34:29.405Z</time></trkpt><trkpt lat="41.2948167" lon="14.2666667"><ele>115.83333333333333</ele><time>2026-05-04T11:34:30.405Z</time></trkpt><trkpt lat="41.2948733" lon="14.2665933"><ele>116.0</ele><time>2026-05-04T11:34:31.408Z</time></trkpt><trkpt lat="41.2949317" lon="14.266515"><ele>115.49999999999999</ele><time>2026-05-04T11:34:32.406Z</time></trkpt><trkpt lat="41.2949883" lon="14.2664383"><ele>115.0</ele><time>2026-05-04T11:34:33.405Z</time></trkpt><trkpt lat="41.2950467" lon="14.2663633"><ele>114.5</ele><time>2026-05-04T11:34:34.404Z</time></trkpt><trkpt lat="41.2951083" lon="14.2662917"><ele>114.0</ele><time>2026-05-04T11:34:35.403Z</time></trkpt><trkpt lat="41.29517" lon="14.2662217"><ele>113.49999999999999</ele><time>2026-05-04T11:34:36.404Z</time></trkpt><trkpt lat="41.2952283" lon="14.2661483"><ele>113.0</ele><time>2026-05-04T11:34:37.406Z</time></trkpt><trkpt lat="41.2952833" lon="14.2660717"><ele>112.99999999999999</ele><time>2026-05-04T11:34:38.405Z</time></trkpt><trkpt lat="41.2953367" lon="14.26599"><ele>113.0</ele><time>2026-05-04T11:34:39.404Z</time></trkpt><trkpt lat="41.295385" lon="14.2659017"><ele>113.0</ele><time>2026-05-04T11:34:40.406Z</time></trkpt><trkpt lat="41.2954317" lon="14.2658117"><ele>113.0</ele><time>2026-05-04T11:34:41.406Z</time></trkpt><trkpt lat="41.2954733" lon="14.2657117"><ele>112.99999999999999</ele><time>2026-05-04T11:34:42.405Z</time></trkpt><trkpt lat="41.2955117" lon="14.26561"><ele>113.0</ele><time>2026-05-04T11:34:43.406Z</time></trkpt><trkpt lat="41.29555" lon="14.2655067"><ele>112.49999999999999</ele><time>2026-05-04T11:34:44.406Z</time></trkpt><trkpt lat="41.2955967" lon="14.2654067"><ele>112.0</ele><time>2026-05-04T11:34:45.404Z</time></trkpt><trkpt lat="41.29564" lon="14.2653083"><ele>111.5</ele><time>2026-05-04T11:34:46.405Z</time></trkpt><trkpt lat="41.295685" lon="14.2652067"><ele>111.0</ele><time>2026-05-04T11:34:47.406Z</time></trkpt><trkpt lat="41.2957283" lon="14.2651017"><ele>110.49999999999999</ele><time>2026-05-04T11:34:48.404Z</time></trkpt><trkpt lat="41.2957767" lon="14.2649983"><ele>110.0</ele><time>2026-05-04T11:34:49.404Z</time></trkpt><trkpt lat="41.295825" lon="14.264895"><ele>109.99999999999999</ele><time>2026-05-04T11:34:50.405Z</time></trkpt><trkpt lat="41.2958717" lon="14.2647917"><ele>110.0</ele><time>2026-05-04T11:34:51.405Z</time></trkpt><trkpt lat="41.2959167" lon="14.26469"><ele>110.0</ele><time>2026-05-04T11:34:52.403Z</time></trkpt><trkpt lat="41.2959683" lon="14.26459"><ele>110.0</ele><time>2026-05-04T11:34:53.405Z</time></trkpt><trkpt lat="41.2960217" lon="14.2644933"><ele>109.99999999999999</ele><time>2026-05-04T11:34:54.404Z</time></trkpt><trkpt lat="41.29607" lon="14.264395"><ele>110.0</ele><time>2026-05-04T11:34:55.406Z</time></trkpt><trkpt lat="41.2961233" lon="14.2642983"><ele>109.66666666666666</ele><time>2026-05-04T11:34:56.405Z</time></trkpt><trkpt lat="41.2961783" lon="14.2642033"><ele>109.33333333333333</ele><time>2026-05-04T11:34:57.404Z</time></trkpt><trkpt lat="41.2962333" lon="14.26411"><ele>109.0</ele><time>2026-05-04T11:34:58.405Z</time></trkpt><trkpt lat="41.2962883" lon="14.264015"><ele>108.66666666666666</ele><time>2026-05-04T11:34:59.405Z</time></trkpt><trkpt lat="41.29634" lon="14.2639217"><ele>108.33333333333333</ele><time>2026-05-04T11:35:00.404Z</time></trkpt><trkpt lat="41.2963917" lon="14.263825"><ele>108.0</ele><time>2026-05-04T11:35:01.408Z</time></trkpt><trkpt lat="41.2964417" lon="14.26373"><ele>107.66666666666667</ele><time>2026-05-04T11:35:02.405Z</time></trkpt><trkpt lat="41.2964983" lon="14.26364"><ele>107.33333333333334</ele><time>2026-05-04T11:35:03.405Z</time></trkpt><trkpt lat="41.296555" lon="14.2635517"><ele>107.0</ele><time>2026-05-04T11:35:04.406Z</time></trkpt><trkpt lat="41.2966067" lon="14.26346"><ele>106.66666666666667</ele><time>2026-05-04T11:35:05.405Z</time></trkpt><trkpt lat="41.29666" lon="14.2633683"><ele>106.33333333333334</ele><time>2026-05-04T11:35:06.404Z</time></trkpt><trkpt lat="41.2967117" lon="14.263275"><ele>106.0</ele><time>2026-05-04T11:35:07.408Z</time></trkpt><trkpt lat="41.2967667" lon="14.263185"><ele>105.83333333333334</ele><time>2026-05-04T11:35:08.407Z</time></trkpt><trkpt lat="41.29682" lon="14.2630967"><ele>105.66666666666667</ele><time>2026-05-04T11:35:09.405Z</time></trkpt><trkpt lat="41.2968767" lon="14.26301"><ele>105.5</ele><time>2026-05-04T11:35:10.405Z</time></trkpt><trkpt lat="41.2969333" lon="14.2629217"><ele>105.33333333333334</ele><time>2026-05-04T11:35:11.405Z</time></trkpt><trkpt lat="41.29699" lon="14.2628367"><ele>105.16666666666667</ele><time>2026-05-04T11:35:12.405Z</time></trkpt><trkpt lat="41.2970467" lon="14.2627517"><ele>105.0</ele><time>2026-05-04T11:35:13.406Z</time></trkpt><trkpt lat="41.2971083" lon="14.2626683"><ele>105.0</ele><time>2026-05-04T11:35:14.404Z</time></trkpt><trkpt lat="41.2971717" lon="14.2625867"><ele>105.0</ele><time>2026-05-04T11:35:15.404Z</time></trkpt><trkpt lat="41.297235" lon="14.2625033"><ele>105.0</ele><time>2026-05-04T11:35:16.405Z</time></trkpt><trkpt lat="41.2972983" lon="14.2624183"><ele>105.0</ele><time>2026-05-04T11:35:17.404Z</time></trkpt><trkpt lat="41.2973583" lon="14.262335"><ele>105.0</ele><time>2026-05-04T11:35:18.404Z</time></trkpt><trkpt lat="41.2974183" lon="14.26225"><ele>105.0</ele><time>2026-05-04T11:35:19.405Z</time></trkpt><trkpt lat="41.2974783" lon="14.2621617"><ele>104.83333333333333</ele><time>2026-05-04T11:35:20.406Z</time></trkpt><trkpt lat="41.2975383" lon="14.26207"><ele>104.66666666666666</ele><time>2026-05-04T11:35:21.403Z</time></trkpt><trkpt lat="41.2975967" lon="14.2619817"><ele>104.5</ele><time>2026-05-04T11:35:22.406Z</time></trkpt><trkpt lat="41.2976583" lon="14.2618983"><ele>104.33333333333333</ele><time>2026-05-04T11:35:23.408Z</time></trkpt><trkpt lat="41.29772" lon="14.2618167"><ele>104.16666666666666</ele><time>2026-05-04T11:35:24.406Z</time></trkpt><trkpt lat="41.29778" lon="14.261735"><ele>104.0</ele><time>2026-05-04T11:35:25.406Z</time></trkpt><trkpt lat="41.29784" lon="14.26166"><ele>103.99999999999999</ele><time>2026-05-04T11:35:26.403Z</time></trkpt><trkpt lat="41.2979033" lon="14.2615883"><ele>104.0</ele><time>2026-05-04T11:35:27.404Z</time></trkpt><trkpt lat="41.2979667" lon="14.2615217"><ele>104.0</ele><time>2026-05-04T11:35:28.406Z</time></trkpt><trkpt lat="41.2980317" lon="14.2614583"><ele>104.0</ele><time>2026-05-04T11:35:29.405Z</time></trkpt><trkpt lat="41.298095" lon="14.2613933"><ele>103.99999999999999</ele><time>2026-05-04T11:35:30.407Z</time></trkpt><trkpt lat="41.298155" lon="14.2613267"><ele>104.0</ele><time>2026-05-04T11:35:31.406Z</time></trkpt><trkpt lat="41.29821" lon="14.2612633"><ele>104.33333333333333</ele><time>2026-05-04T11:35:32.404Z</time></trkpt><trkpt lat="41.2982683" lon="14.2612033"><ele>104.66666666666666</ele><time>2026-05-04T11:35:33.403Z</time></trkpt><trkpt lat="41.298325" lon="14.2611483"><ele>105.0</ele><time>2026-05-04T11:35:34.403Z</time></trkpt><trkpt lat="41.2983783" lon="14.2610983"><ele>105.33333333333334</ele><time>2026-05-04T11:35:35.408Z</time></trkpt><trkpt lat="41.29843" lon="14.2610467"><ele>105.66666666666667</ele><time>2026-05-04T11:35:36.406Z</time></trkpt><trkpt lat="41.2985233" lon="14.2609417"><ele>106.0</ele><time>2026-05-04T11:35:38.404Z</time></trkpt><trkpt lat="41.2985717" lon="14.2608867"><ele>106.0</ele><time>2026-05-04T11:35:39.406Z</time></trkpt><trkpt lat="41.2986217" lon="14.2608317"><ele>106.0</ele><time>2026-05-04T11:35:40.408Z</time></trkpt><trkpt lat="41.2986717" lon="14.2607767"><ele>106.0</ele><time>2026-05-04T11:35:41.404Z</time></trkpt><trkpt lat="41.2987233" lon="14.2607267"><ele>106.0</ele><time>2026-05-04T11:35:42.405Z</time></trkpt><trkpt lat="41.298775" lon="14.260675"><ele>106.0</ele><time>2026-05-04T11:35:43.406Z</time></trkpt><trkpt lat="41.2988683" lon="14.26057"><ele>106.0</ele><time>2026-05-04T11:35:45.404Z</time></trkpt><trkpt lat="41.2989183" lon="14.2605183"><ele>106.0</ele><time>2026-05-04T11:35:46.404Z</time></trkpt><trkpt lat="41.299015" lon="14.2604183"><ele>106.33333333333334</ele><time>2026-05-04T11:35:48.406Z</time></trkpt><trkpt lat="41.2991133" lon="14.2603183"><ele>106.66666666666667</ele><time>2026-05-04T11:35:50.405Z</time></trkpt><trkpt lat="41.299165" lon="14.2602667"><ele>107.0</ele><time>2026-05-04T11:35:51.405Z</time></trkpt><trkpt lat="41.299215" lon="14.2602117"><ele>107.33333333333334</ele><time>2026-05-04T11:35:52.405Z</time></trkpt><trkpt lat="41.2992667" lon="14.260155"><ele>107.66666666666667</ele><time>2026-05-04T11:35:53.406Z</time></trkpt><trkpt lat="41.2993183" lon="14.2600967"><ele>108.0</ele><time>2026-05-04T11:35:54.406Z</time></trkpt><trkpt lat="41.299365" lon="14.2600333"><ele>108.0</ele><time>2026-05-04T11:35:55.406Z</time></trkpt><trkpt lat="41.2994117" lon="14.2599683"><ele>108.0</ele><time>2026-05-04T11:35:56.405Z</time></trkpt><trkpt lat="41.299455" lon="14.2598967"><ele>108.0</ele><time>2026-05-04T11:35:57.406Z</time></trkpt><trkpt lat="41.2994933" lon="14.259825"><ele>108.0</ele><time>2026-05-04T11:35:58.406Z</time></trkpt><trkpt lat="41.2995317" lon="14.2597517"><ele>108.0</ele><time>2026-05-04T11:35:59.405Z</time></trkpt><trkpt lat="41.2995617" lon="14.25967"><ele>108.0</ele><time>2026-05-04T11:36:00.404Z</time></trkpt><trkpt lat="41.2995867" lon="14.259585"><ele>108.0</ele><time>2026-05-04T11:36:01.406Z</time></trkpt><trkpt lat="41.299605" lon="14.2594983"><ele>108.28571428571428</ele><time>2026-05-04T11:36:02.404Z</time></trkpt><trkpt lat="41.2996183" lon="14.25941"><ele>108.57142857142857</ele><time>2026-05-04T11:36:03.405Z</time></trkpt><trkpt lat="41.29963" lon="14.2593233"><ele>108.85714285714286</ele><time>2026-05-04T11:36:04.406Z</time></trkpt><trkpt lat="41.2996383" lon="14.259235"><ele>109.14285714285714</ele><time>2026-05-04T11:36:05.406Z</time></trkpt><trkpt lat="41.29965" lon="14.259145"><ele>109.42857142857143</ele><time>2026-05-04T11:36:06.406Z</time></trkpt><trkpt lat="41.2996617" lon="14.2590583"><ele>109.71428571428571</ele><time>2026-05-04T11:36:07.406Z</time></trkpt><trkpt lat="41.2996733" lon="14.2589717"><ele>110.0</ele><time>2026-05-04T11:36:08.405Z</time></trkpt><trkpt lat="41.2996833" lon="14.2588867"><ele>109.99999999999999</ele><time>2026-05-04T11:36:09.406Z</time></trkpt><trkpt lat="41.299695" lon="14.2588017"><ele>110.0</ele><time>2026-05-04T11:36:10.406Z</time></trkpt><trkpt lat="41.2997083" lon="14.2587183"><ele>110.0</ele><time>2026-05-04T11:36:11.405Z</time></trkpt><trkpt lat="41.2997267" lon="14.258635"><ele>110.0</ele><time>2026-05-04T11:36:12.406Z</time></trkpt><trkpt lat="41.29974" lon="14.25855"><ele>110.0</ele><time>2026-05-04T11:36:13.406Z</time></trkpt><trkpt lat="41.2997483" lon="14.2584667"><ele>109.99999999999999</ele><time>2026-05-04T11:36:14.405Z</time></trkpt><trkpt lat="41.2997583" lon="14.2583817"><ele>110.0</ele><time>2026-05-04T11:36:15.402Z</time></trkpt><trkpt lat="41.2997683" lon="14.2582967"><ele>110.25</ele><time>2026-05-04T11:36:16.406Z</time></trkpt><trkpt lat="41.2997883" lon="14.2581317"><ele>110.5</ele><time>2026-05-04T11:36:18.404Z</time></trkpt><trkpt lat="41.2998033" lon="14.25797"><ele>110.75</ele><time>2026-05-04T11:36:20.404Z</time></trkpt><trkpt lat="41.2998283" lon="14.25782"><ele>111.0</ele><time>2026-05-04T11:36:22.405Z</time></trkpt><trkpt lat="41.2998433" lon="14.2576617"><ele>111.0</ele><time>2026-05-04T11:36:24.406Z</time></trkpt><trkpt lat="41.29986" lon="14.2575133"><ele>111.0</ele><time>2026-05-04T11:36:26.406Z</time></trkpt><trkpt lat="41.2998767" lon="14.2573717"><ele>111.0</ele><time>2026-05-04T11:36:28.405Z</time></trkpt><trkpt lat="41.29989" lon="14.2572467"><ele>111.0</ele><time>2026-05-04T11:36:30.405Z</time></trkpt><trkpt lat="41.2999083" lon="14.2571383"><ele>111.0</ele><time>2026-05-04T11:36:32.405Z</time></trkpt><trkpt lat="41.29993" lon="14.2570283"><ele>111.16666666666667</ele><time>2026-05-04T11:36:34.404Z</time></trkpt><trkpt lat="41.2999483" lon="14.2569167"><ele>111.33333333333334</ele><time>2026-05-04T11:36:36.404Z</time></trkpt><trkpt lat="41.299965" lon="14.2568"><ele>111.5</ele><time>2026-05-04T11:36:38.404Z</time></trkpt><trkpt lat="41.299975" lon="14.256685"><ele>111.66666666666667</ele><time>2026-05-04T11:36:40.403Z</time></trkpt><trkpt lat="41.2999883" lon="14.2565667"><ele>111.83333333333334</ele><time>2026-05-04T11:36:42.405Z</time></trkpt><trkpt lat="41.3000033" lon="14.25645"><ele>112.0</ele><time>2026-05-04T11:36:44.406Z</time></trkpt><trkpt lat="41.3000183" lon="14.2563333"><ele>112.66666666666667</ele><time>2026-05-04T11:36:46.403Z</time></trkpt><trkpt lat="41.3000367" lon="14.25622"><ele>113.33333333333334</ele><time>2026-05-04T11:36:48.409Z</time></trkpt><trkpt lat="41.300045" lon="14.2561133"><ele>114.0</ele><time>2026-05-04T11:36:50.405Z</time></trkpt><trkpt lat="41.30006" lon="14.2560017"><ele>114.66666666666666</ele><time>2026-05-04T11:36:52.406Z</time></trkpt><trkpt lat="41.3000783" lon="14.2558983"><ele>115.33333333333333</ele><time>2026-05-04T11:36:54.405Z</time></trkpt><trkpt lat="41.3000917" lon="14.25579"><ele>116.0</ele><time>2026-05-04T11:36:56.405Z</time></trkpt><trkpt lat="41.3000983" lon="14.25568"><ele>116.33333333333333</ele><time>2026-05-04T11:36:58.405Z</time></trkpt><trkpt lat="41.3001033" lon="14.2555717"><ele>116.66666666666666</ele><time>2026-05-04T11:37:00.403Z</time></trkpt><trkpt lat="41.300105" lon="14.255475"><ele>117.0</ele><time>2026-05-04T11:37:02.405Z</time></trkpt><trkpt lat="41.300115" lon="14.2553867"><ele>117.33333333333334</ele><time>2026-05-04T11:37:04.405Z</time></trkpt><trkpt lat="41.3001333" lon="14.2552717"><ele>117.66666666666667</ele><time>2026-05-04T11:37:07.405Z</time></trkpt><trkpt lat="41.3001483" lon="14.25519"><ele>118.0</ele><time>2026-05-04T11:37:09.405Z</time></trkpt><trkpt lat="41.3001533" lon="14.2550817"><ele>118.00000000000001</ele><time>2026-05-04T11:37:12.403Z</time></trkpt><trkpt lat="41.3001183" lon="14.2549967"><ele>118.0</ele><time>2026-05-04T11:37:15.406Z</time></trkpt><trkpt lat="41.3000417" lon="14.2549883"><ele>118.0</ele><time>2026-05-04T11:37:18.406Z</time></trkpt><trkpt lat="41.2999783" lon="14.2549517"><ele>118.0</ele><time>2026-05-04T11:37:21.406Z</time></trkpt><trkpt lat="41.2999167" lon="14.2548567"><ele>118.00000000000001</ele><time>2026-05-04T11:37:24.405Z</time></trkpt><trkpt lat="41.29988" lon="14.2547717"><ele>118.0</ele><time>2026-05-04T11:37:26.403Z</time></trkpt><trkpt lat="41.2998417" lon="14.254675"><ele>118.50000000000001</ele><time>2026-05-04T11:37:28.403Z</time></trkpt><trkpt lat="41.2998117" lon="14.25457"><ele>119.0</ele><time>2026-05-04T11:37:30.404Z</time></trkpt><trkpt lat="41.2997817" lon="14.2544683"><ele>119.5</ele><time>2026-05-04T11:37:32.408Z</time></trkpt><trkpt lat="41.29975" lon="14.2543667"><ele>120.0</ele><time>2026-05-04T11:37:34.403Z</time></trkpt><trkpt lat="41.299715" lon="14.2542567"><ele>120.50000000000001</ele><time>2026-05-04T11:37:36.406Z</time></trkpt><trkpt lat="41.2996783" lon="14.2541533"><ele>121.0</ele><time>2026-05-04T11:37:38.407Z</time></trkpt><trkpt lat="41.2996467" lon="14.2540517"><ele>121.4</ele><time>2026-05-04T11:37:40.408Z</time></trkpt><trkpt lat="41.29961" lon="14.2539467"><ele>121.8</ele><time>2026-05-04T11:37:42.404Z</time></trkpt><trkpt lat="41.2995767" lon="14.2538433"><ele>122.20000000000002</ele><time>2026-05-04T11:37:44.407Z</time></trkpt><trkpt lat="41.29955" lon="14.2537267"><ele>122.60000000000001</ele><time>2026-05-04T11:37:46.407Z</time></trkpt><trkpt lat="41.2995117" lon="14.2536183"><ele>123.0</ele><time>2026-05-04T11:37:48.403Z</time></trkpt><trkpt lat="41.2994683" lon="14.2534917"><ele>123.0</ele><time>2026-05-04T11:37:50.404Z</time></trkpt><trkpt lat="41.2994167" lon="14.253345"><ele>123.0</ele><time>2026-05-04T11:37:52.405Z</time></trkpt><trkpt lat="41.299375" lon="14.2531967"><ele>123.0</ele><time>2026-05-04T11:37:54.408Z</time></trkpt><trkpt lat="41.29935" lon="14.25305"><ele>123.0</ele><time>2026-05-04T11:37:56.407Z</time></trkpt><trkpt lat="41.2993333" lon="14.2529017"><ele>123.2</ele><time>2026-05-04T11:37:58.405Z</time></trkpt><trkpt lat="41.2993383" lon="14.2527533"><ele>123.4</ele><time>2026-05-04T11:38:00.406Z</time></trkpt><trkpt lat="41.299355" lon="14.2526183"><ele>123.60000000000001</ele><time>2026-05-04T11:38:02.403Z</time></trkpt><trkpt lat="41.29938" lon="14.25249"><ele>123.80000000000001</ele><time>2026-05-04T11:38:04.403Z</time></trkpt><trkpt lat="41.2994117" lon="14.2523667"><ele>124.0</ele><time>2026-05-04T11:38:06.406Z</time></trkpt><trkpt lat="41.2994467" lon="14.2522483"><ele>124.4</ele><time>2026-05-04T11:38:08.406Z</time></trkpt><trkpt lat="41.29947" lon="14.252125"><ele>124.80000000000001</ele><time>2026-05-04T11:38:10.405Z</time></trkpt><trkpt lat="41.29946" lon="14.2519867"><ele>125.19999999999999</ele><time>2026-05-04T11:38:12.404Z</time></trkpt><trkpt lat="41.2994383" lon="14.2518433"><ele>125.6</ele><time>2026-05-04T11:38:14.406Z</time></trkpt><trkpt lat="41.29941" lon="14.251705"><ele>126.0</ele><time>2026-05-04T11:38:16.405Z</time></trkpt><trkpt lat="41.2993917" lon="14.2515567"><ele>126.0</ele><time>2026-05-04T11:38:18.406Z</time></trkpt><trkpt lat="41.299375" lon="14.251405"><ele>126.0</ele><time>2026-05-04T11:38:20.406Z</time></trkpt><trkpt lat="41.29936" lon="14.2512483"><ele>126.0</ele><time>2026-05-04T11:38:22.405Z</time></trkpt><trkpt lat="41.299345" lon="14.2510917"><ele>126.0</ele><time>2026-05-04T11:38:24.406Z</time></trkpt><trkpt lat="41.2993367" lon="14.2509367"><ele>126.0</ele><time>2026-05-04T11:38:26.406Z</time></trkpt><trkpt lat="41.2993217" lon="14.2507817"><ele>126.0</ele><time>2026-05-04T11:38:28.405Z</time></trkpt><trkpt lat="41.2993017" lon="14.2506283"><ele>126.0</ele><time>2026-05-04T11:38:30.407Z</time></trkpt><trkpt lat="41.2992917" lon="14.250475"><ele>126.0</ele><time>2026-05-04T11:38:32.406Z</time></trkpt><trkpt lat="41.2992917" lon="14.25032"><ele>125.25</ele><time>2026-05-04T11:38:34.405Z</time></trkpt><trkpt lat="41.2993" lon="14.2501667"><ele>124.5</ele><time>2026-05-04T11:38:36.402Z</time></trkpt><trkpt lat="41.2993117" lon="14.250015"><ele>123.75</ele><time>2026-05-04T11:38:38.405Z</time></trkpt><trkpt lat="41.2993283" lon="14.249855"><ele>123.0</ele><time>2026-05-04T11:38:40.405Z</time></trkpt><trkpt lat="41.2993433" lon="14.2497"><ele>123.0</ele><time>2026-05-04T11:38:42.403Z</time></trkpt><trkpt lat="41.2993517" lon="14.249545"><ele>123.0</ele><time>2026-05-04T11:38:44.405Z</time></trkpt><trkpt lat="41.2993617" lon="14.2493883"><ele>123.0</ele><time>2026-05-04T11:38:46.405Z</time></trkpt><trkpt lat="41.2993767" lon="14.2492317"><ele>123.0</ele><time>2026-05-04T11:38:48.403Z</time></trkpt><trkpt lat="41.2993983" lon="14.2490733"><ele>123.25</ele><time>2026-05-04T11:38:50.405Z</time></trkpt><trkpt lat="41.299415" lon="14.2489167"><ele>123.5</ele><time>2026-05-04T11:38:52.404Z</time></trkpt><trkpt lat="41.2994283" lon="14.248765"><ele>123.75</ele><time>2026-05-04T11:38:54.402Z</time></trkpt><trkpt lat="41.29944" lon="14.2486167"><ele>124.0</ele><time>2026-05-04T11:38:56.404Z</time></trkpt><trkpt lat="41.2994533" lon="14.248465"><ele>124.0</ele><time>2026-05-04T11:38:58.404Z</time></trkpt><trkpt lat="41.2994667" lon="14.24831"><ele>124.0</ele><time>2026-05-04T11:39:00.404Z</time></trkpt><trkpt lat="41.2994717" lon="14.2481633"><ele>124.0</ele><time>2026-05-04T11:39:02.405Z</time></trkpt><trkpt lat="41.2994767" lon="14.24802"><ele>124.0</ele><time>2026-05-04T11:39:04.405Z</time></trkpt><trkpt lat="41.29949" lon="14.2478767"><ele>124.0</ele><time>2026-05-04T11:39:06.404Z</time></trkpt><trkpt lat="41.2995017" lon="14.2477317"><ele>124.80000000000001</ele><time>2026-05-04T11:39:08.404Z</time></trkpt><trkpt lat="41.299515" lon="14.24759"><ele>125.60000000000001</ele><time>2026-05-04T11:39:10.403Z</time></trkpt><trkpt lat="41.2995267" lon="14.2474483"><ele>126.4</ele><time>2026-05-04T11:39:12.404Z</time></trkpt><trkpt lat="41.2995367" lon="14.24731"><ele>127.2</ele><time>2026-05-04T11:39:14.404Z</time></trkpt><trkpt lat="41.29955" lon="14.2471783"><ele>128.0</ele><time>2026-05-04T11:39:16.404Z</time></trkpt><trkpt lat="41.2995583" lon="14.2470467"><ele>129.20000000000002</ele><time>2026-05-04T11:39:18.404Z</time></trkpt><trkpt lat="41.29957" lon="14.2469117"><ele>130.4</ele><time>2026-05-04T11:39:20.405Z</time></trkpt><trkpt lat="41.29958" lon="14.2467783"><ele>131.60000000000002</ele><time>2026-05-04T11:39:22.404Z</time></trkpt><trkpt lat="41.2995867" lon="14.2466483"><ele>132.8</ele><time>2026-05-04T11:39:24.403Z</time></trkpt><trkpt lat="41.2996017" lon="14.2465167"><ele>134.0</ele><time>2026-05-04T11:39:26.403Z</time></trkpt><trkpt lat="41.299625" lon="14.24639"><ele>134.0</ele><time>2026-05-04T11:39:28.406Z</time></trkpt><trkpt lat="41.2996567" lon="14.2462733"><ele>134.0</ele><time>2026-05-04T11:39:30.405Z</time></trkpt><trkpt lat="41.2996917" lon="14.2461617"><ele>134.0</ele><time>2026-05-04T11:39:32.403Z</time></trkpt><trkpt lat="41.299735" lon="14.24606"><ele>134.0</ele><time>2026-05-04T11:39:34.405Z</time></trkpt><trkpt lat="41.299775" lon="14.2459667"><ele>134.0</ele><time>2026-05-04T11:39:36.405Z</time></trkpt><trkpt lat="41.2998267" lon="14.2458767"><ele>134.0</ele><time>2026-05-04T11:39:38.403Z</time></trkpt><trkpt lat="41.2998767" lon="14.2457933"><ele>134.0</ele><time>2026-05-04T11:39:40.405Z</time></trkpt><trkpt lat="41.29991" lon="14.2457017"><ele>134.0</ele><time>2026-05-04T11:39:42.403Z</time></trkpt><trkpt lat="41.2999467" lon="14.24562"><ele>134.0</ele><time>2026-05-04T11:39:44.404Z</time></trkpt><trkpt lat="41.2999817" lon="14.2455433"><ele>134.0</ele><time>2026-05-04T11:39:46.404Z</time></trkpt><trkpt lat="41.3000183" lon="14.2454733"><ele>134.0</ele><time>2026-05-04T11:39:48.404Z</time></trkpt><trkpt lat="41.3000667" lon="14.2453683"><ele>134.0</ele><time>2026-05-04T11:39:51.403Z</time></trkpt><trkpt lat="41.3001117" lon="14.24527"><ele>134.16666666666666</ele><time>2026-05-04T11:39:54.405Z</time></trkpt><trkpt lat="41.3001567" lon="14.2451883"><ele>134.33333333333331</ele><time>2026-05-04T11:39:57.405Z</time></trkpt><trkpt lat="41.3001867" lon="14.24509"><ele>134.5</ele><time>2026-05-04T11:40:00.405Z</time></trkpt><trkpt lat="41.3002067" lon="14.244985"><ele>134.66666666666666</ele><time>2026-05-04T11:40:03.407Z</time></trkpt><trkpt lat="41.3002183" lon="14.244875"><ele>134.83333333333334</ele><time>2026-05-04T11:40:06.404Z</time></trkpt><trkpt lat="41.3002367" lon="14.24476"><ele>135.0</ele><time>2026-05-04T11:40:09.404Z</time></trkpt><trkpt lat="41.3002533" lon="14.2446433"><ele>135.57142857142856</ele><time>2026-05-04T11:40:12.406Z</time></trkpt><trkpt lat="41.3002617" lon="14.2445533"><ele>136.14285714285714</ele><time>2026-05-04T11:40:14.405Z</time></trkpt><trkpt lat="41.3002717" lon="14.2444633"><ele>136.71428571428572</ele><time>2026-05-04T11:40:16.405Z</time></trkpt><trkpt lat="41.3002817" lon="14.2443767"><ele>137.28571428571428</ele><time>2026-05-04T11:40:18.404Z</time></trkpt><trkpt lat="41.30029" lon="14.2442883"><ele>137.85714285714286</ele><time>2026-05-04T11:40:20.404Z</time></trkpt><trkpt lat="41.3002983" lon="14.2442"><ele>138.42857142857142</ele><time>2026-05-04T11:40:22.404Z</time></trkpt><trkpt lat="41.3003083" lon="14.2441083"><ele>139.0</ele><time>2026-05-04T11:40:24.405Z</time></trkpt><trkpt lat="41.30033" lon="14.244015"><ele>139.33333333333334</ele><time>2026-05-04T11:40:26.405Z</time></trkpt><trkpt lat="41.3003483" lon="14.2439267"><ele>139.66666666666669</ele><time>2026-05-04T11:40:28.404Z</time></trkpt><trkpt lat="41.3003617" lon="14.2438083"><ele>140.0</ele><time>2026-05-04T11:40:31.405Z</time></trkpt><trkpt lat="41.3003817" lon="14.2436917"><ele>140.33333333333334</ele><time>2026-05-04T11:40:34.405Z</time></trkpt><trkpt lat="41.3004033" lon="14.24357"><ele>140.66666666666666</ele><time>2026-05-04T11:40:37.405Z</time></trkpt><trkpt lat="41.3004167" lon="14.2434867"><ele>141.0</ele><time>2026-05-04T11:40:39.404Z</time></trkpt><trkpt lat="41.30042" lon="14.2434"><ele>141.0</ele><time>2026-05-04T11:40:41.407Z</time></trkpt><trkpt lat="41.3004367" lon="14.2433083"><ele>141.0</ele><time>2026-05-04T11:40:43.408Z</time></trkpt><trkpt lat="41.3004483" lon="14.2432217"><ele>141.0</ele><time>2026-05-04T11:40:45.407Z</time></trkpt><trkpt lat="41.3004633" lon="14.2431317"><ele>141.0</ele><time>2026-05-04T11:40:47.407Z</time></trkpt><trkpt lat="41.3004783" lon="14.24305"><ele>141.0</ele><time>2026-05-04T11:40:49.406Z</time></trkpt><trkpt lat="41.3004917" lon="14.242935"><ele>141.0</ele><time>2026-05-04T11:40:52.406Z</time></trkpt><trkpt lat="41.3005067" lon="14.242825"><ele>141.0</ele><time>2026-05-04T11:40:55.406Z</time></trkpt><trkpt lat="41.300515" lon="14.2427017"><ele>141.66666666666666</ele><time>2026-05-04T11:40:58.406Z</time></trkpt><trkpt lat="41.300525" lon="14.2425817"><ele>142.33333333333334</ele><time>2026-05-04T11:41:01.405Z</time></trkpt><trkpt lat="41.3005317" lon="14.2424683"><ele>143.0</ele><time>2026-05-04T11:41:04.405Z</time></trkpt><trkpt lat="41.30053" lon="14.2423633"><ele>143.66666666666669</ele><time>2026-05-04T11:41:07.408Z</time></trkpt><trkpt lat="41.3005217" lon="14.2422567"><ele>144.33333333333334</ele><time>2026-05-04T11:41:10.406Z</time></trkpt><trkpt lat="41.30051" lon="14.242145"><ele>145.0</ele><time>2026-05-04T11:41:13.408Z</time></trkpt><trkpt lat="41.30051" lon="14.2420317"><ele>145.66666666666669</ele><time>2026-05-04T11:41:16.406Z</time></trkpt><trkpt lat="41.30049" lon="14.2419317"><ele>146.33333333333334</ele><time>2026-05-04T11:41:19.405Z</time></trkpt><trkpt lat="41.300465" lon="14.2418267"><ele>147.0</ele><time>2026-05-04T11:41:22.404Z</time></trkpt><trkpt lat="41.30045" lon="14.2417167"><ele>147.66666666666666</ele><time>2026-05-04T11:41:25.407Z</time></trkpt><trkpt lat="41.30044" lon="14.2416033"><ele>148.33333333333331</ele><time>2026-05-04T11:41:28.405Z</time></trkpt><trkpt lat="41.3004283" lon="14.241485"><ele>149.0</ele><time>2026-05-04T11:41:31.405Z</time></trkpt><trkpt lat="41.3004217" lon="14.2413633"><ele>149.71428571428572</ele><time>2026-05-04T11:41:34.406Z</time></trkpt><trkpt lat="41.30042" lon="14.241275"><ele>150.42857142857142</ele><time>2026-05-04T11:41:36.406Z</time></trkpt><trkpt lat="41.3004167" lon="14.24119"><ele>151.14285714285714</ele><time>2026-05-04T11:41:38.404Z</time></trkpt><trkpt lat="41.3004167" lon="14.24107"><ele>151.85714285714286</ele><time>2026-05-04T11:41:41.405Z</time></trkpt><trkpt lat="41.3004067" lon="14.24098"><ele>152.57142857142856</ele><time>2026-05-04T11:41:43.406Z</time></trkpt><trkpt lat="41.300395" lon="14.2408933"><ele>153.28571428571428</ele><time>2026-05-04T11:41:45.407Z</time></trkpt><trkpt lat="41.3003833" lon="14.2408067"><ele>154.0</ele><time>2026-05-04T11:41:47.405Z</time></trkpt><trkpt lat="41.3003783" lon="14.2407183"><ele>154.0</ele><time>2026-05-04T11:41:49.406Z</time></trkpt><trkpt lat="41.3003767" lon="14.2406333"><ele>154.0</ele><time>2026-05-04T11:41:51.404Z</time></trkpt><trkpt lat="41.3003833" lon="14.2405083"><ele>154.0</ele><time>2026-05-04T11:41:54.406Z</time></trkpt><trkpt lat="41.3003817" lon="14.2403833"><ele>154.0</ele><time>2026-05-04T11:41:57.405Z</time></trkpt><trkpt lat="41.3003867" lon="14.240295"><ele>154.0</ele><time>2026-05-04T11:41:59.405Z</time></trkpt><trkpt lat="41.3003917" lon="14.24021"><ele>154.0</ele><time>2026-05-04T11:42:01.405Z</time></trkpt><trkpt lat="41.3004033" lon="14.240095"><ele>154.66666666666669</ele><time>2026-05-04T11:42:04.404Z</time></trkpt><trkpt lat="41.3004167" lon="14.2400117"><ele>155.33333333333334</ele><time>2026-05-04T11:42:06.407Z</time></trkpt><trkpt lat="41.300425" lon="14.2398917"><ele>156.0</ele><time>2026-05-04T11:42:09.405Z</time></trkpt><trkpt lat="41.3004383" lon="14.2397733"><ele>156.66666666666666</ele><time>2026-05-04T11:42:12.405Z</time></trkpt><trkpt lat="41.300445" lon="14.2396667"><ele>157.33333333333331</ele><time>2026-05-04T11:42:15.404Z</time></trkpt><trkpt lat="41.30046" lon="14.23955"><ele>158.0</ele><time>2026-05-04T11:42:18.403Z</time></trkpt><trkpt lat="41.3004617" lon="14.2394283"><ele>158.5</ele><time>2026-05-04T11:42:21.403Z</time></trkpt><trkpt lat="41.30046" lon="14.239315"><ele>159.0</ele><time>2026-05-04T11:42:24.404Z</time></trkpt><trkpt lat="41.3004667" lon="14.239205"><ele>159.5</ele><time>2026-05-04T11:42:27.404Z</time></trkpt><trkpt lat="41.30047" lon="14.23909"><ele>160.0</ele><time>2026-05-04T11:42:30.407Z</time></trkpt><trkpt lat="41.3004783" lon="14.239005"><ele>160.5</ele><time>2026-05-04T11:42:32.405Z</time></trkpt><trkpt lat="41.3004933" lon="14.2388933"><ele>161.0</ele><time>2026-05-04T11:42:35.405Z</time></trkpt><trkpt lat="41.3005067" lon="14.2387767"><ele>162.0</ele><time>2026-05-04T11:42:38.404Z</time></trkpt><trkpt lat="41.3005233" lon="14.2386633"><ele>163.0</ele><time>2026-05-04T11:42:41.404Z</time></trkpt><trkpt lat="41.3005433" lon="14.2385567"><ele>164.0</ele><time>2026-05-04T11:42:44.405Z</time></trkpt><trkpt lat="41.3005533" lon="14.2384533"><ele>165.0</ele><time>2026-05-04T11:42:47.407Z</time></trkpt><trkpt lat="41.3005717" lon="14.2383533"><ele>166.0</ele><time>2026-05-04T11:42:50.406Z</time></trkpt><trkpt lat="41.30059" lon="14.2382467"><ele>167.0</ele><time>2026-05-04T11:42:53.406Z</time></trkpt><trkpt lat="41.3006" lon="14.2381417"><ele>169.33333333333331</ele><time>2026-05-04T11:42:56.404Z</time></trkpt><trkpt lat="41.3006133" lon="14.2380333"><ele>171.66666666666666</ele><time>2026-05-04T11:42:59.406Z</time></trkpt><trkpt lat="41.3006383" lon="14.2379167"><ele>174.0</ele><time>2026-05-04T11:43:02.406Z</time></trkpt><trkpt lat="41.30066" lon="14.23781"><ele>176.33333333333334</ele><time>2026-05-04T11:43:05.408Z</time></trkpt><trkpt lat="41.3006767" lon="14.2376917"><ele>178.66666666666669</ele><time>2026-05-04T11:43:08.405Z</time></trkpt><trkpt lat="41.3006933" lon="14.2375833"><ele>181.0</ele><time>2026-05-04T11:43:11.406Z</time></trkpt><trkpt lat="41.300725" lon="14.2374633"><ele>181.0</ele><time>2026-05-04T11:43:14.407Z</time></trkpt><trkpt lat="41.300735" lon="14.2373783"><ele>181.0</ele><time>2026-05-04T11:43:16.407Z</time></trkpt><trkpt lat="41.3007633" lon="14.237265"><ele>181.0</ele><time>2026-05-04T11:43:19.407Z</time></trkpt><trkpt lat="41.30078" lon="14.2371833"><ele>181.0</ele><time>2026-05-04T11:43:21.405Z</time></trkpt><trkpt lat="41.300795" lon="14.2371"><ele>181.0</ele><time>2026-05-04T11:43:23.406Z</time></trkpt><trkpt lat="41.3008083" lon="14.237015"><ele>181.0</ele><time>2026-05-04T11:43:25.407Z</time></trkpt><trkpt lat="41.3008333" lon="14.2368967"><ele>181.0</ele><time>2026-05-04T11:43:28.404Z</time></trkpt><trkpt lat="41.3008533" lon="14.2367833"><ele>181.33333333333334</ele><time>2026-05-04T11:43:31.407Z</time></trkpt><trkpt lat="41.3008717" lon="14.2366667"><ele>181.66666666666669</ele><time>2026-05-04T11:43:34.406Z</time></trkpt><trkpt lat="41.3008867" lon="14.2365833"><ele>182.0</ele><time>2026-05-04T11:43:36.405Z</time></trkpt><trkpt lat="41.300905" lon="14.2364733"><ele>182.33333333333334</ele><time>2026-05-04T11:43:39.405Z</time></trkpt><trkpt lat="41.3009267" lon="14.2363633"><ele>182.66666666666666</ele><time>2026-05-04T11:43:42.406Z</time></trkpt><trkpt lat="41.3009433" lon="14.2362567"><ele>183.0</ele><time>2026-05-04T11:43:45.405Z</time></trkpt><trkpt lat="41.3009533" lon="14.2361367"><ele>183.85714285714286</ele><time>2026-05-04T11:43:48.405Z</time></trkpt><trkpt lat="41.300945" lon="14.2360167"><ele>184.71428571428572</ele><time>2026-05-04T11:43:51.412Z</time></trkpt><trkpt lat="41.3009517" lon="14.23593"><ele>185.57142857142856</ele><time>2026-05-04T11:43:53.406Z</time></trkpt><trkpt lat="41.3009633" lon="14.235845"><ele>186.42857142857144</ele><time>2026-05-04T11:43:55.405Z</time></trkpt><trkpt lat="41.30097" lon="14.23572"><ele>187.28571428571428</ele><time>2026-05-04T11:43:58.405Z</time></trkpt><trkpt lat="41.3009733" lon="14.2356317"><ele>188.14285714285714</ele><time>2026-05-04T11:44:00.404Z</time></trkpt><trkpt lat="41.3009733" lon="14.235545"><ele>189.0</ele><time>2026-05-04T11:44:02.404Z</time></trkpt><trkpt lat="41.3009767" lon="14.2354233"><ele>189.66666666666666</ele><time>2026-05-04T11:44:05.406Z</time></trkpt><trkpt lat="41.3009767" lon="14.2352967"><ele>190.33333333333331</ele><time>2026-05-04T11:44:08.407Z</time></trkpt><trkpt lat="41.3009783" lon="14.23521"><ele>191.0</ele><time>2026-05-04T11:44:10.406Z</time></trkpt><trkpt lat="41.3009833" lon="14.2350883"><ele>191.66666666666666</ele><time>2026-05-04T11:44:13.406Z</time></trkpt><trkpt lat="41.3009683" lon="14.23497"><ele>192.33333333333331</ele><time>2026-05-04T11:44:16.405Z</time></trkpt><trkpt lat="41.3009617" lon="14.2348467"><ele>193.0</ele><time>2026-05-04T11:44:19.405Z</time></trkpt><trkpt lat="41.3009633" lon="14.2347617"><ele>193.85714285714286</ele><time>2026-05-04T11:44:21.407Z</time></trkpt><trkpt lat="41.3009667" lon="14.2346433"><ele>194.71428571428572</ele><time>2026-05-04T11:44:24.406Z</time></trkpt><trkpt lat="41.3009617" lon="14.23452"><ele>195.57142857142856</ele><time>2026-05-04T11:44:27.405Z</time></trkpt><trkpt lat="41.30096" lon="14.2344333"><ele>196.42857142857144</ele><time>2026-05-04T11:44:29.406Z</time></trkpt><trkpt lat="41.300955" lon="14.2343433"><ele>197.28571428571428</ele><time>2026-05-04T11:44:31.407Z</time></trkpt><trkpt lat="41.3009467" lon="14.2342567"><ele>198.14285714285714</ele><time>2026-05-04T11:44:33.406Z</time></trkpt><trkpt lat="41.3009333" lon="14.2341667"><ele>199.0</ele><time>2026-05-04T11:44:35.405Z</time></trkpt><trkpt lat="41.300925" lon="14.2340767"><ele>199.49999999999997</ele><time>2026-05-04T11:44:37.406Z</time></trkpt><trkpt lat="41.300915" lon="14.2339533"><ele>200.0</ele><time>2026-05-04T11:44:40.406Z</time></trkpt><trkpt lat="41.3008883" lon="14.2338383"><ele>200.5</ele><time>2026-05-04T11:44:43.406Z</time></trkpt><trkpt lat="41.3008633" lon="14.23373"><ele>201.0</ele><time>2026-05-04T11:44:46.404Z</time></trkpt><trkpt lat="41.3008367" lon="14.2336133"><ele>201.49999999999997</ele><time>2026-05-04T11:44:49.405Z</time></trkpt><trkpt lat="41.300815" lon="14.233505"><ele>202.0</ele><time>2026-05-04T11:44:52.404Z</time></trkpt><trkpt lat="41.3007983" lon="14.2333933"><ele>201.99999999999997</ele><time>2026-05-04T11:44:55.404Z</time></trkpt><trkpt lat="41.3007783" lon="14.2332933"><ele>202.0</ele><time>2026-05-04T11:44:58.405Z</time></trkpt><trkpt lat="41.3007617" lon="14.2331767"><ele>202.0</ele><time>2026-05-04T11:45:01.404Z</time></trkpt><trkpt lat="41.300755" lon="14.2330833"><ele>202.0</ele><time>2026-05-04T11:45:03.404Z</time></trkpt><trkpt lat="41.3007533" lon="14.23298"><ele>201.99999999999997</ele><time>2026-05-04T11:45:05.404Z</time></trkpt><trkpt lat="41.300755" lon="14.232865"><ele>202.0</ele><time>2026-05-04T11:45:07.406Z</time></trkpt><trkpt lat="41.3007467" lon="14.2327517"><ele>201.99999999999997</ele><time>2026-05-04T11:45:09.405Z</time></trkpt><trkpt lat="41.300745" lon="14.2326417"><ele>202.0</ele><time>2026-05-04T11:45:11.404Z</time></trkpt><trkpt lat="41.3007417" lon="14.2325317"><ele>202.0</ele><time>2026-05-04T11:45:13.403Z</time></trkpt><trkpt lat="41.30074" lon="14.2324217"><ele>202.0</ele><time>2026-05-04T11:45:15.403Z</time></trkpt><trkpt lat="41.3007233" lon="14.2323117"><ele>201.99999999999997</ele><time>2026-05-04T11:45:17.404Z</time></trkpt><trkpt lat="41.3007083" lon="14.2321933"><ele>202.0</ele><time>2026-05-04T11:45:19.408Z</time></trkpt><trkpt lat="41.3006967" lon="14.23207"><ele>201.83333333333331</ele><time>2026-05-04T11:45:21.404Z</time></trkpt><trkpt lat="41.3006917" lon="14.23195"><ele>201.66666666666666</ele><time>2026-05-04T11:45:23.405Z</time></trkpt><trkpt lat="41.30068" lon="14.2318333"><ele>201.5</ele><time>2026-05-04T11:45:25.404Z</time></trkpt><trkpt lat="41.3006667" lon="14.2317267"><ele>201.33333333333331</ele><time>2026-05-04T11:45:27.404Z</time></trkpt><trkpt lat="41.3006517" lon="14.2316133"><ele>201.16666666666666</ele><time>2026-05-04T11:45:29.406Z</time></trkpt><trkpt lat="41.3006533" lon="14.2314933"><ele>201.0</ele><time>2026-05-04T11:45:31.404Z</time></trkpt><trkpt lat="41.30066" lon="14.2313833"><ele>201.66666666666666</ele><time>2026-05-04T11:45:33.404Z</time></trkpt><trkpt lat="41.3006733" lon="14.231265"><ele>202.33333333333331</ele><time>2026-05-04T11:45:35.405Z</time></trkpt><trkpt lat="41.300695" lon="14.2311483"><ele>203.0</ele><time>2026-05-04T11:45:37.405Z</time></trkpt><trkpt lat="41.300715" lon="14.231035"><ele>203.66666666666666</ele><time>2026-05-04T11:45:39.404Z</time></trkpt><trkpt lat="41.30073" lon="14.2309283"><ele>204.33333333333331</ele><time>2026-05-04T11:45:41.404Z</time></trkpt><trkpt lat="41.300735" lon="14.2308183"><ele>205.0</ele><time>2026-05-04T11:45:43.407Z</time></trkpt><trkpt lat="41.3007417" lon="14.2307"><ele>204.83333333333331</ele><time>2026-05-04T11:45:45.403Z</time></trkpt><trkpt lat="41.3007583" lon="14.2305767"><ele>204.66666666666666</ele><time>2026-05-04T11:45:47.405Z</time></trkpt><trkpt lat="41.3007767" lon="14.2304533"><ele>204.5</ele><time>2026-05-04T11:45:49.405Z</time></trkpt><trkpt lat="41.3007967" lon="14.2303333"><ele>204.33333333333331</ele><time>2026-05-04T11:45:51.404Z</time></trkpt><trkpt lat="41.3008067" lon="14.2302233"><ele>204.16666666666666</ele><time>2026-05-04T11:45:53.408Z</time></trkpt><trkpt lat="41.3008167" lon="14.2301317"><ele>204.0</ele><time>2026-05-04T11:45:55.406Z</time></trkpt><trkpt lat="41.3008333" lon="14.230045"><ele>204.0</ele><time>2026-05-04T11:45:57.404Z</time></trkpt><trkpt lat="41.3008417" lon="14.2299583"><ele>204.0</ele><time>2026-05-04T11:45:59.403Z</time></trkpt><trkpt lat="41.30085" lon="14.229865"><ele>204.0</ele><time>2026-05-04T11:46:01.405Z</time></trkpt><trkpt lat="41.30087" lon="14.2297733"><ele>204.0</ele><time>2026-05-04T11:46:03.403Z</time></trkpt><trkpt lat="41.30089" lon="14.2296833"><ele>204.0</ele><time>2026-05-04T11:46:05.405Z</time></trkpt><trkpt lat="41.3009083" lon="14.229585"><ele>204.0</ele><time>2026-05-04T11:46:07.405Z</time></trkpt><trkpt lat="41.3009267" lon="14.2294833"><ele>204.0</ele><time>2026-05-04T11:46:09.404Z</time></trkpt><trkpt lat="41.3009367" lon="14.2293833"><ele>204.16666666666666</ele><time>2026-05-04T11:46:11.405Z</time></trkpt><trkpt lat="41.3009517" lon="14.2292733"><ele>204.33333333333331</ele><time>2026-05-04T11:46:13.406Z</time></trkpt><trkpt lat="41.300965" lon="14.2291667"><ele>204.5</ele><time>2026-05-04T11:46:15.404Z</time></trkpt><trkpt lat="41.3009733" lon="14.22906"><ele>204.66666666666666</ele><time>2026-05-04T11:46:17.406Z</time></trkpt><trkpt lat="41.3009917" lon="14.2289567"><ele>204.83333333333331</ele><time>2026-05-04T11:46:19.404Z</time></trkpt><trkpt lat="41.3010117" lon="14.22885"><ele>205.0</ele><time>2026-05-04T11:46:21.403Z</time></trkpt><trkpt lat="41.3010283" lon="14.2287433"><ele>205.16666666666666</ele><time>2026-05-04T11:46:23.406Z</time></trkpt><trkpt lat="41.3010417" lon="14.2286383"><ele>205.33333333333331</ele><time>2026-05-04T11:46:25.405Z</time></trkpt><trkpt lat="41.3010567" lon="14.2285317"><ele>205.5</ele><time>2026-05-04T11:46:27.405Z</time></trkpt><trkpt lat="41.30107" lon="14.22842"><ele>205.66666666666669</ele><time>2026-05-04T11:46:29.405Z</time></trkpt><trkpt lat="41.3010817" lon="14.2283067"><ele>205.83333333333334</ele><time>2026-05-04T11:46:31.404Z</time></trkpt><trkpt lat="41.301095" lon="14.2281967"><ele>206.0</ele><time>2026-05-04T11:46:33.405Z</time></trkpt><trkpt lat="41.3011067" lon="14.228085"><ele>205.66666666666669</ele><time>2026-05-04T11:46:35.403Z</time></trkpt><trkpt lat="41.3011167" lon="14.2279683"><ele>205.33333333333334</ele><time>2026-05-04T11:46:37.405Z</time></trkpt><trkpt lat="41.301125" lon="14.2278483"><ele>205.0</ele><time>2026-05-04T11:46:39.404Z</time></trkpt><trkpt lat="41.3011417" lon="14.2277333"><ele>204.66666666666669</ele><time>2026-05-04T11:46:41.403Z</time></trkpt><trkpt lat="41.3011633" lon="14.2276183"><ele>204.33333333333334</ele><time>2026-05-04T11:46:43.405Z</time></trkpt><trkpt lat="41.301175" lon="14.2275083"><ele>204.0</ele><time>2026-05-04T11:46:45.404Z</time></trkpt><trkpt lat="41.3011917" lon="14.2273967"><ele>204.0</ele><time>2026-05-04T11:46:47.403Z</time></trkpt><trkpt lat="41.3012017" lon="14.22728"><ele>204.0</ele><time>2026-05-04T11:46:49.404Z</time></trkpt><trkpt lat="41.30121" lon="14.2271667"><ele>204.0</ele><time>2026-05-04T11:46:51.404Z</time></trkpt><trkpt lat="41.30123" lon="14.2270483"><ele>204.0</ele><time>2026-05-04T11:46:53.405Z</time></trkpt><trkpt lat="41.30124" lon="14.2269267"><ele>204.0</ele><time>2026-05-04T11:46:55.406Z</time></trkpt><trkpt lat="41.3012567" lon="14.2267967"><ele>204.0</ele><time>2026-05-04T11:46:57.403Z</time></trkpt><trkpt lat="41.3012767" lon="14.2266567"><ele>204.0</ele><time>2026-05-04T11:46:59.404Z</time></trkpt><trkpt lat="41.3012967" lon="14.2265033"><ele>204.0</ele><time>2026-05-04T11:47:01.405Z</time></trkpt><trkpt lat="41.3013133" lon="14.2263417"><ele>204.0</ele><time>2026-05-04T11:47:03.404Z</time></trkpt><trkpt lat="41.3013233" lon="14.226255"><ele>204.0</ele><time>2026-05-04T11:47:04.402Z</time></trkpt><trkpt lat="41.3013317" lon="14.2261667"><ele>203.71428571428572</ele><time>2026-05-04T11:47:05.404Z</time></trkpt><trkpt lat="41.3013417" lon="14.22608"><ele>203.42857142857144</ele><time>2026-05-04T11:47:06.404Z</time></trkpt><trkpt lat="41.3013533" lon="14.2259917"><ele>203.14285714285714</ele><time>2026-05-04T11:47:07.404Z</time></trkpt><trkpt lat="41.3013667" lon="14.2259"><ele>202.85714285714286</ele><time>2026-05-04T11:47:08.404Z</time></trkpt><trkpt lat="41.30138" lon="14.22581"><ele>202.57142857142856</ele><time>2026-05-04T11:47:09.404Z</time></trkpt><trkpt lat="41.3013933" lon="14.2257233"><ele>202.28571428571428</ele><time>2026-05-04T11:47:10.405Z</time></trkpt><trkpt lat="41.3014083" lon="14.2256333"><ele>202.0</ele><time>2026-05-04T11:47:11.405Z</time></trkpt><trkpt lat="41.3014217" lon="14.2255433"><ele>202.85714285714286</ele><time>2026-05-04T11:47:12.403Z</time></trkpt><trkpt lat="41.3014333" lon="14.2254517"><ele>203.71428571428572</ele><time>2026-05-04T11:47:13.404Z</time></trkpt><trkpt lat="41.3014467" lon="14.2253633"><ele>204.57142857142856</ele><time>2026-05-04T11:47:14.404Z</time></trkpt><trkpt lat="41.3014583" lon="14.2252767"><ele>205.42857142857144</ele><time>2026-05-04T11:47:15.406Z</time></trkpt><trkpt lat="41.3014683" lon="14.22519"><ele>206.2857142857143</ele><time>2026-05-04T11:47:16.405Z</time></trkpt><trkpt lat="41.30148" lon="14.2251017"><ele>207.14285714285714</ele><time>2026-05-04T11:47:17.403Z</time></trkpt><trkpt lat="41.3014917" lon="14.225015"><ele>208.0</ele><time>2026-05-04T11:47:18.403Z</time></trkpt><trkpt lat="41.3015033" lon="14.224925"><ele>208.0</ele><time>2026-05-04T11:47:19.404Z</time></trkpt><trkpt lat="41.3015133" lon="14.2248317"><ele>208.0</ele><time>2026-05-04T11:47:20.404Z</time></trkpt><trkpt lat="41.301525" lon="14.2247383"><ele>208.0</ele><time>2026-05-04T11:47:21.405Z</time></trkpt><trkpt lat="41.3015383" lon="14.2246483"><ele>208.0</ele><time>2026-05-04T11:47:22.404Z</time></trkpt><trkpt lat="41.301555" lon="14.2245567"><ele>208.0</ele><time>2026-05-04T11:47:23.404Z</time></trkpt><trkpt lat="41.3015717" lon="14.2244633"><ele>208.0</ele><time>2026-05-04T11:47:24.404Z</time></trkpt><trkpt lat="41.301585" lon="14.2243683"><ele>208.0</ele><time>2026-05-04T11:47:25.403Z</time></trkpt><trkpt lat="41.3016" lon="14.2242683"><ele>207.49999999999997</ele><time>2026-05-04T11:47:26.404Z</time></trkpt><trkpt lat="41.301615" lon="14.22417"><ele>207.0</ele><time>2026-05-04T11:47:27.405Z</time></trkpt><trkpt lat="41.3016367" lon="14.2240683"><ele>206.5</ele><time>2026-05-04T11:47:28.404Z</time></trkpt><trkpt lat="41.3016533" lon="14.2239633"><ele>206.0</ele><time>2026-05-04T11:47:29.403Z</time></trkpt><trkpt lat="41.3016667" lon="14.22386"><ele>205.49999999999997</ele><time>2026-05-04T11:47:30.404Z</time></trkpt><trkpt lat="41.30168" lon="14.223755"><ele>205.0</ele><time>2026-05-04T11:47:31.403Z</time></trkpt><trkpt lat="41.3016967" lon="14.223655"><ele>204.66666666666666</ele><time>2026-05-04T11:47:32.404Z</time></trkpt><trkpt lat="41.3017117" lon="14.22355"><ele>204.33333333333331</ele><time>2026-05-04T11:47:33.404Z</time></trkpt><trkpt lat="41.301725" lon="14.223445"><ele>204.0</ele><time>2026-05-04T11:47:34.403Z</time></trkpt><trkpt lat="41.3017383" lon="14.2233417"><ele>203.66666666666669</ele><time>2026-05-04T11:47:35.403Z</time></trkpt><trkpt lat="41.3017533" lon="14.22324"><ele>203.33333333333334</ele><time>2026-05-04T11:47:36.41Z</time></trkpt><trkpt lat="41.30177" lon="14.2231383"><ele>203.0</ele><time>2026-05-04T11:47:37.404Z</time></trkpt><trkpt lat="41.3017817" lon="14.22303"><ele>201.83333333333334</ele><time>2026-05-04T11:47:38.403Z</time></trkpt><trkpt lat="41.301795" lon="14.22292"><ele>200.66666666666669</ele><time>2026-05-04T11:47:39.402Z</time></trkpt><trkpt lat="41.3018117" lon="14.2228083"><ele>199.5</ele><time>2026-05-04T11:47:40.404Z</time></trkpt><trkpt lat="41.3018267" lon="14.2226983"><ele>198.33333333333331</ele><time>2026-05-04T11:47:41.404Z</time></trkpt><trkpt lat="41.3018433" lon="14.2225883"><ele>197.16666666666666</ele><time>2026-05-04T11:47:42.404Z</time></trkpt><trkpt lat="41.3018583" lon="14.2224783"><ele>196.0</ele><time>2026-05-04T11:47:43.404Z</time></trkpt><trkpt lat="41.30187" lon="14.2223683"><ele>195.83333333333331</ele><time>2026-05-04T11:47:44.403Z</time></trkpt><trkpt lat="41.3018833" lon="14.2222633"><ele>195.66666666666666</ele><time>2026-05-04T11:47:45.402Z</time></trkpt><trkpt lat="41.3018967" lon="14.2221583"><ele>195.5</ele><time>2026-05-04T11:47:46.403Z</time></trkpt><trkpt lat="41.30191" lon="14.222055"><ele>195.33333333333331</ele><time>2026-05-04T11:47:47.404Z</time></trkpt><trkpt lat="41.3019267" lon="14.221955"><ele>195.16666666666666</ele><time>2026-05-04T11:47:48.404Z</time></trkpt><trkpt lat="41.3019383" lon="14.221855"><ele>195.0</ele><time>2026-05-04T11:47:49.403Z</time></trkpt><trkpt lat="41.301955" lon="14.2217567"><ele>195.0</ele><time>2026-05-04T11:47:50.403Z</time></trkpt><trkpt lat="41.30197" lon="14.2216567"><ele>195.0</ele><time>2026-05-04T11:47:51.403Z</time></trkpt><trkpt lat="41.3019833" lon="14.2215583"><ele>195.0</ele><time>2026-05-04T11:47:52.404Z</time></trkpt><trkpt lat="41.302" lon="14.221465"><ele>195.0</ele><time>2026-05-04T11:47:53.405Z</time></trkpt><trkpt lat="41.3020217" lon="14.2213733"><ele>195.0</ele><time>2026-05-04T11:47:54.404Z</time></trkpt><trkpt lat="41.3020467" lon="14.2212783"><ele>195.0</ele><time>2026-05-04T11:47:55.404Z</time></trkpt><trkpt lat="41.3020717" lon="14.221185"><ele>195.0</ele><time>2026-05-04T11:47:56.404Z</time></trkpt><trkpt lat="41.3020967" lon="14.2210933"><ele>194.28571428571428</ele><time>2026-05-04T11:47:57.404Z</time></trkpt><trkpt lat="41.3021217" lon="14.2210017"><ele>193.57142857142856</ele><time>2026-05-04T11:47:58.405Z</time></trkpt><trkpt lat="41.302145" lon="14.2209117"><ele>192.85714285714286</ele><time>2026-05-04T11:47:59.405Z</time></trkpt><trkpt lat="41.3021667" lon="14.2208233"><ele>192.14285714285714</ele><time>2026-05-04T11:48:00.402Z</time></trkpt><trkpt lat="41.3021883" lon="14.2207333"><ele>191.42857142857144</ele><time>2026-05-04T11:48:01.404Z</time></trkpt><trkpt lat="41.302205" lon="14.22064"><ele>190.71428571428572</ele><time>2026-05-04T11:48:02.403Z</time></trkpt><trkpt lat="41.3022133" lon="14.2205467"><ele>190.0</ele><time>2026-05-04T11:48:03.402Z</time></trkpt><trkpt lat="41.3022167" lon="14.22045"><ele>190.0</ele><time>2026-05-04T11:48:04.405Z</time></trkpt><trkpt lat="41.3022167" lon="14.2203533"><ele>190.0</ele><time>2026-05-04T11:48:05.404Z</time></trkpt><trkpt lat="41.3022117" lon="14.2202567"><ele>190.0</ele><time>2026-05-04T11:48:06.405Z</time></trkpt><trkpt lat="41.302205" lon="14.22016"><ele>190.0</ele><time>2026-05-04T11:48:07.404Z</time></trkpt><trkpt lat="41.3022017" lon="14.2200617"><ele>190.0</ele><time>2026-05-04T11:48:08.403Z</time></trkpt><trkpt lat="41.3021967" lon="14.219965"><ele>190.0</ele><time>2026-05-04T11:48:09.402Z</time></trkpt><trkpt lat="41.3021867" lon="14.2198667"><ele>190.0</ele><time>2026-05-04T11:48:10.404Z</time></trkpt><trkpt lat="41.302175" lon="14.21977"><ele>190.0</ele><time>2026-05-04T11:48:11.404Z</time></trkpt><trkpt lat="41.302165" lon="14.2196717"><ele>190.0</ele><time>2026-05-04T11:48:12.402Z</time></trkpt><trkpt lat="41.3021567" lon="14.219575"><ele>190.0</ele><time>2026-05-04T11:48:13.404Z</time></trkpt><trkpt lat="41.30215" lon="14.2194733"><ele>190.0</ele><time>2026-05-04T11:48:14.407Z</time></trkpt><trkpt lat="41.3021417" lon="14.2193717"><ele>190.0</ele><time>2026-05-04T11:48:15.403Z</time></trkpt><trkpt lat="41.302135" lon="14.2192733"><ele>190.0</ele><time>2026-05-04T11:48:16.404Z</time></trkpt><trkpt lat="41.3021283" lon="14.2191767"><ele>190.0</ele><time>2026-05-04T11:48:17.405Z</time></trkpt><trkpt lat="41.3021283" lon="14.21908"><ele>190.0</ele><time>2026-05-04T11:48:18.403Z</time></trkpt><trkpt lat="41.30213" lon="14.21899"><ele>190.0</ele><time>2026-05-04T11:48:19.402Z</time></trkpt><trkpt lat="41.3021367" lon="14.2189"><ele>190.0</ele><time>2026-05-04T11:48:20.403Z</time></trkpt><trkpt lat="41.3021467" lon="14.21881"><ele>190.0</ele><time>2026-05-04T11:48:21.405Z</time></trkpt><trkpt lat="41.3021617" lon="14.21872"><ele>190.0</ele><time>2026-05-04T11:48:22.403Z</time></trkpt><trkpt lat="41.30218" lon="14.2186317"><ele>190.0</ele><time>2026-05-04T11:48:23.404Z</time></trkpt><trkpt lat="41.3022017" lon="14.218545"><ele>190.0</ele><time>2026-05-04T11:48:24.404Z</time></trkpt><trkpt lat="41.302225" lon="14.2184633"><ele>189.57142857142858</ele><time>2026-05-04T11:48:25.403Z</time></trkpt><trkpt lat="41.30226" lon="14.2183867"><ele>189.14285714285717</ele><time>2026-05-04T11:48:26.402Z</time></trkpt><trkpt lat="41.3022967" lon="14.21831"><ele>188.71428571428572</ele><time>2026-05-04T11:48:27.404Z</time></trkpt><trkpt lat="41.30234" lon="14.2182367"><ele>188.28571428571428</ele><time>2026-05-04T11:48:28.404Z</time></trkpt><trkpt lat="41.3023883" lon="14.2181683"><ele>187.85714285714286</ele><time>2026-05-04T11:48:29.406Z</time></trkpt><trkpt lat="41.30244" lon="14.2181117"><ele>187.42857142857142</ele><time>2026-05-04T11:48:30.405Z</time></trkpt><trkpt lat="41.3024983" lon="14.21807"><ele>187.0</ele><time>2026-05-04T11:48:31.405Z</time></trkpt><trkpt lat="41.302565" lon="14.2180383"><ele>187.0</ele><time>2026-05-04T11:48:32.403Z</time></trkpt><trkpt lat="41.3026333" lon="14.218015"><ele>187.0</ele><time>2026-05-04T11:48:33.403Z</time></trkpt><trkpt lat="41.3027017" lon="14.217995"><ele>187.0</ele><time>2026-05-04T11:48:34.404Z</time></trkpt><trkpt lat="41.302765" lon="14.2179767"><ele>187.0</ele><time>2026-05-04T11:48:35.404Z</time></trkpt><trkpt lat="41.302835" lon="14.2179517"><ele>187.0</ele><time>2026-05-04T11:48:36.405Z</time></trkpt><trkpt lat="41.3029033" lon="14.2179217"><ele>187.0</ele><time>2026-05-04T11:48:37.403Z</time></trkpt><trkpt lat="41.3029633" lon="14.2178767"><ele>187.0</ele><time>2026-05-04T11:48:38.403Z</time></trkpt><trkpt lat="41.3030117" lon="14.2178117"><ele>187.0</ele><time>2026-05-04T11:48:39.403Z</time></trkpt><trkpt lat="41.30305" lon="14.2177367"><ele>187.0</ele><time>2026-05-04T11:48:40.403Z</time></trkpt><trkpt lat="41.3030767" lon="14.2176517"><ele>187.0</ele><time>2026-05-04T11:48:41.404Z</time></trkpt><trkpt lat="41.3031017" lon="14.2175717"><ele>187.0</ele><time>2026-05-04T11:48:42.405Z</time></trkpt><trkpt lat="41.303155" lon="14.2174217"><ele>187.0</ele><time>2026-05-04T11:48:44.404Z</time></trkpt><trkpt lat="41.3031933" lon="14.2173533"><ele>187.0</ele><time>2026-05-04T11:48:45.406Z</time></trkpt><trkpt lat="41.3032917" lon="14.217255"><ele>186.85714285714286</ele><time>2026-05-04T11:48:47.407Z</time></trkpt><trkpt lat="41.30335" lon="14.21721"><ele>186.71428571428572</ele><time>2026-05-04T11:48:48.404Z</time></trkpt><trkpt lat="41.3034067" lon="14.2171717"><ele>186.57142857142858</ele><time>2026-05-04T11:48:49.404Z</time></trkpt><trkpt lat="41.3034667" lon="14.2171433"><ele>186.42857142857144</ele><time>2026-05-04T11:48:50.408Z</time></trkpt><trkpt lat="41.3035283" lon="14.217115"><ele>186.28571428571428</ele><time>2026-05-04T11:48:51.404Z</time></trkpt><trkpt lat="41.3035883" lon="14.2170883"><ele>186.14285714285717</ele><time>2026-05-04T11:48:52.405Z</time></trkpt><trkpt lat="41.3036433" lon="14.2170383"><ele>186.0</ele><time>2026-05-04T11:48:53.405Z</time></trkpt><trkpt lat="41.3036967" lon="14.2169783"><ele>186.00000000000003</ele><time>2026-05-04T11:48:54.403Z</time></trkpt><trkpt lat="41.30374" lon="14.2169083"><ele>186.0</ele><time>2026-05-04T11:48:55.406Z</time></trkpt><trkpt lat="41.30378" lon="14.21683"><ele>186.0</ele><time>2026-05-04T11:48:56.406Z</time></trkpt><trkpt lat="41.303815" lon="14.2167483"><ele>186.0</ele><time>2026-05-04T11:48:57.405Z</time></trkpt><trkpt lat="41.3038417" lon="14.2166567"><ele>186.0</ele><time>2026-05-04T11:48:58.406Z</time></trkpt><trkpt lat="41.3038717" lon="14.21656"><ele>186.00000000000003</ele><time>2026-05-04T11:48:59.404Z</time></trkpt><trkpt lat="41.3039083" lon="14.2164667"><ele>186.0</ele><time>2026-05-04T11:49:00.405Z</time></trkpt><trkpt lat="41.30395" lon="14.2163783"><ele>186.66666666666666</ele><time>2026-05-04T11:49:01.406Z</time></trkpt><trkpt lat="41.3039983" lon="14.216295"><ele>187.33333333333334</ele><time>2026-05-04T11:49:02.405Z</time></trkpt><trkpt lat="41.3040567" lon="14.21622"><ele>188.0</ele><time>2026-05-04T11:49:03.404Z</time></trkpt><trkpt lat="41.3041167" lon="14.2161483"><ele>188.66666666666669</ele><time>2026-05-04T11:49:04.406Z</time></trkpt><trkpt lat="41.304175" lon="14.216075"><ele>189.33333333333334</ele><time>2026-05-04T11:49:05.406Z</time></trkpt><trkpt lat="41.3042283" lon="14.2159967"><ele>190.0</ele><time>2026-05-04T11:49:06.404Z</time></trkpt><trkpt lat="41.3042767" lon="14.2159117"><ele>190.0</ele><time>2026-05-04T11:49:07.402Z</time></trkpt><trkpt lat="41.3043183" lon="14.2158183"><ele>190.0</ele><time>2026-05-04T11:49:08.406Z</time></trkpt><trkpt lat="41.304355" lon="14.21572"><ele>190.0</ele><time>2026-05-04T11:49:09.404Z</time></trkpt><trkpt lat="41.3043933" lon="14.2156267"><ele>190.0</ele><time>2026-05-04T11:49:10.406Z</time></trkpt><trkpt lat="41.3044333" lon="14.215535"><ele>190.0</ele><time>2026-05-04T11:49:11.406Z</time></trkpt><trkpt lat="41.3044733" lon="14.2154433"><ele>190.0</ele><time>2026-05-04T11:49:12.405Z</time></trkpt><trkpt lat="41.30452" lon="14.21536"><ele>190.5</ele><time>2026-05-04T11:49:13.403Z</time></trkpt><trkpt lat="41.3045667" lon="14.215275"><ele>191.0</ele><time>2026-05-04T11:49:14.405Z</time></trkpt><trkpt lat="41.304615" lon="14.2151883"><ele>191.5</ele><time>2026-05-04T11:49:15.405Z</time></trkpt><trkpt lat="41.3046617" lon="14.2151"><ele>192.0</ele><time>2026-05-04T11:49:16.405Z</time></trkpt><trkpt lat="41.3047067" lon="14.2150083"><ele>192.49999999999997</ele><time>2026-05-04T11:49:17.405Z</time></trkpt><trkpt lat="41.3047483" lon="14.21491"><ele>193.0</ele><time>2026-05-04T11:49:18.404Z</time></trkpt><trkpt lat="41.30478" lon="14.214805"><ele>192.99999999999997</ele><time>2026-05-04T11:49:19.404Z</time></trkpt><trkpt lat="41.3048067" lon="14.214695"><ele>193.0</ele><time>2026-05-04T11:49:20.404Z</time></trkpt><trkpt lat="41.3048317" lon="14.2145833"><ele>193.0</ele><time>2026-05-04T11:49:21.404Z</time></trkpt><trkpt lat="41.304845" lon="14.2144767"><ele>193.0</ele><time>2026-05-04T11:49:22.405Z</time></trkpt><trkpt lat="41.3048267" lon="14.2143633"><ele>192.99999999999997</ele><time>2026-05-04T11:49:23.406Z</time></trkpt><trkpt lat="41.3048117" lon="14.21425"><ele>193.0</ele><time>2026-05-04T11:49:24.406Z</time></trkpt><trkpt lat="41.304805" lon="14.2141383"><ele>192.99999999999997</ele><time>2026-05-04T11:49:25.405Z</time></trkpt><trkpt lat="41.3048067" lon="14.2140233"><ele>193.0</ele><time>2026-05-04T11:49:26.406Z</time></trkpt><trkpt lat="41.304825" lon="14.2139133"><ele>193.0</ele><time>2026-05-04T11:49:27.405Z</time></trkpt><trkpt lat="41.3048567" lon="14.2138117"><ele>193.0</ele><time>2026-05-04T11:49:28.405Z</time></trkpt><trkpt lat="41.3048933" lon="14.2137133"><ele>192.99999999999997</ele><time>2026-05-04T11:49:29.405Z</time></trkpt><trkpt lat="41.3049333" lon="14.2136133"><ele>193.0</ele><time>2026-05-04T11:49:30.404Z</time></trkpt><trkpt lat="41.3049683" lon="14.2135133"><ele>192.49999999999997</ele><time>2026-05-04T11:49:31.405Z</time></trkpt><trkpt lat="41.304995" lon="14.21341"><ele>192.0</ele><time>2026-05-04T11:49:32.406Z</time></trkpt><trkpt lat="41.3050083" lon="14.2133"><ele>191.5</ele><time>2026-05-04T11:49:33.405Z</time></trkpt><trkpt lat="41.3050017" lon="14.21319"><ele>191.0</ele><time>2026-05-04T11:49:34.404Z</time></trkpt><trkpt lat="41.3049817" lon="14.2130817"><ele>190.5</ele><time>2026-05-04T11:49:35.404Z</time></trkpt><trkpt lat="41.3049517" lon="14.2129817"><ele>190.0</ele><time>2026-05-04T11:49:36.403Z</time></trkpt><trkpt lat="41.304915" lon="14.2128817"><ele>190.0</ele><time>2026-05-04T11:49:37.405Z</time></trkpt><trkpt lat="41.3048817" lon="14.21278"><ele>190.0</ele><time>2026-05-04T11:49:38.403Z</time></trkpt><trkpt lat="41.30485" lon="14.212675"><ele>190.0</ele><time>2026-05-04T11:49:39.403Z</time></trkpt><trkpt lat="41.3048217" lon="14.2125667"><ele>190.0</ele><time>2026-05-04T11:49:40.404Z</time></trkpt><trkpt lat="41.304795" lon="14.212455"><ele>190.0</ele><time>2026-05-04T11:49:41.404Z</time></trkpt><trkpt lat="41.3047717" lon="14.2123433"><ele>190.0</ele><time>2026-05-04T11:49:42.404Z</time></trkpt><trkpt lat="41.3047483" lon="14.21223"><ele>186.2</ele><time>2026-05-04T11:49:43.406Z</time></trkpt><trkpt lat="41.30472" lon="14.2121167"><ele>182.4</ele><time>2026-05-04T11:49:44.404Z</time></trkpt><trkpt lat="41.30469" lon="14.2120017"><ele>178.60000000000002</ele><time>2026-05-04T11:49:45.404Z</time></trkpt><trkpt lat="41.3046517" lon="14.211885"><ele>174.8</ele><time>2026-05-04T11:49:46.405Z</time></trkpt><trkpt lat="41.3046117" lon="14.21177"><ele>171.0</ele><time>2026-05-04T11:49:47.403Z</time></trkpt><trkpt lat="41.304565" lon="14.2116583"><ele>171.0</ele><time>2026-05-04T11:49:48.405Z</time></trkpt><trkpt lat="41.304515" lon="14.2115417"><ele>171.0</ele><time>2026-05-04T11:49:49.407Z</time></trkpt><trkpt lat="41.3044633" lon="14.2114217"><ele>171.0</ele><time>2026-05-04T11:49:50.402Z</time></trkpt><trkpt lat="41.3044133" lon="14.2113"><ele>171.0</ele><time>2026-05-04T11:49:51.402Z</time></trkpt><trkpt lat="41.3043667" lon="14.2111733"><ele>171.0</ele><time>2026-05-04T11:49:52.405Z</time></trkpt><trkpt lat="41.30432" lon="14.21105"><ele>171.60000000000002</ele><time>2026-05-04T11:49:53.405Z</time></trkpt><trkpt lat="41.3042717" lon="14.2109283"><ele>172.2</ele><time>2026-05-04T11:49:54.403Z</time></trkpt><trkpt lat="41.3042283" lon="14.2108"><ele>172.8</ele><time>2026-05-04T11:49:55.405Z</time></trkpt><trkpt lat="41.3041883" lon="14.2106683"><ele>173.39999999999998</ele><time>2026-05-04T11:49:56.405Z</time></trkpt><trkpt lat="41.3041517" lon="14.2105333"><ele>174.0</ele><time>2026-05-04T11:49:57.405Z</time></trkpt><trkpt lat="41.3041217" lon="14.2104"><ele>175.0</ele><time>2026-05-04T11:49:58.405Z</time></trkpt><trkpt lat="41.3040933" lon="14.2102633"><ele>176.0</ele><time>2026-05-04T11:49:59.405Z</time></trkpt><trkpt lat="41.30407" lon="14.2101283"><ele>177.0</ele><time>2026-05-04T11:50:00.404Z</time></trkpt><trkpt lat="41.3040483" lon="14.2099917"><ele>178.0</ele><time>2026-05-04T11:50:01.405Z</time></trkpt><trkpt lat="41.3040283" lon="14.209855"><ele>179.0</ele><time>2026-05-04T11:50:02.403Z</time></trkpt><trkpt lat="41.30401" lon="14.2097183"><ele>180.0</ele><time>2026-05-04T11:50:03.403Z</time></trkpt><trkpt lat="41.3039983" lon="14.2095817"><ele>181.0</ele><time>2026-05-04T11:50:04.405Z</time></trkpt><trkpt lat="41.30398" lon="14.2094467"><ele>182.0</ele><time>2026-05-04T11:50:05.403Z</time></trkpt><trkpt lat="41.3039667" lon="14.2093117"><ele>183.0</ele><time>2026-05-04T11:50:06.405Z</time></trkpt><trkpt lat="41.30395" lon="14.2091817"><ele>184.0</ele><time>2026-05-04T11:50:07.404Z</time></trkpt><trkpt lat="41.3039383" lon="14.2090467"><ele>184.79999999999998</ele><time>2026-05-04T11:50:08.404Z</time></trkpt><trkpt lat="41.303925" lon="14.2089133"><ele>185.6</ele><time>2026-05-04T11:50:09.401Z</time></trkpt><trkpt lat="41.3039133" lon="14.2087867"><ele>186.4</ele><time>2026-05-04T11:50:10.404Z</time></trkpt><trkpt lat="41.3039017" lon="14.2086583"><ele>187.2</ele><time>2026-05-04T11:50:11.405Z</time></trkpt><trkpt lat="41.3038883" lon="14.20853"><ele>188.0</ele><time>2026-05-04T11:50:12.405Z</time></trkpt><trkpt lat="41.3038767" lon="14.2084"><ele>183.60000000000002</ele><time>2026-05-04T11:50:13.404Z</time></trkpt><trkpt lat="41.3038667" lon="14.2082733"><ele>179.20000000000002</ele><time>2026-05-04T11:50:14.403Z</time></trkpt><trkpt lat="41.30385" lon="14.20815"><ele>174.8</ele><time>2026-05-04T11:50:15.403Z</time></trkpt><trkpt lat="41.3038267" lon="14.2080233"><ele>170.4</ele><time>2026-05-04T11:50:16.404Z</time></trkpt><trkpt lat="41.3038033" lon="14.2079017"><ele>166.0</ele><time>2026-05-04T11:50:17.405Z</time></trkpt><trkpt lat="41.3037633" lon="14.2077867"><ele>165.8</ele><time>2026-05-04T11:50:18.404Z</time></trkpt><trkpt lat="41.3037183" lon="14.2076717"><ele>165.60000000000002</ele><time>2026-05-04T11:50:19.405Z</time></trkpt><trkpt lat="41.30367" lon="14.20756"><ele>165.4</ele><time>2026-05-04T11:50:20.405Z</time></trkpt><trkpt lat="41.303615" lon="14.2074483"><ele>165.2</ele><time>2026-05-04T11:50:21.405Z</time></trkpt><trkpt lat="41.30356" lon="14.2073383"><ele>165.0</ele><time>2026-05-04T11:50:22.405Z</time></trkpt><trkpt lat="41.3035017" lon="14.2072333"><ele>166.6</ele><time>2026-05-04T11:50:23.404Z</time></trkpt><trkpt lat="41.30344" lon="14.20713"><ele>168.2</ele><time>2026-05-04T11:50:24.406Z</time></trkpt><trkpt lat="41.303375" lon="14.2070267"><ele>169.8</ele><time>2026-05-04T11:50:25.405Z</time></trkpt><trkpt lat="41.3033133" lon="14.2069267"><ele>171.4</ele><time>2026-05-04T11:50:26.405Z</time></trkpt><trkpt lat="41.3032533" lon="14.2068333"><ele>173.0</ele><time>2026-05-04T11:50:27.403Z</time></trkpt><trkpt lat="41.3031917" lon="14.2067367"><ele>173.0</ele><time>2026-05-04T11:50:28.407Z</time></trkpt><trkpt lat="41.30313" lon="14.2066417"><ele>173.0</ele><time>2026-05-04T11:50:29.404Z</time></trkpt><trkpt lat="41.3030667" lon="14.20655"><ele>173.0</ele><time>2026-05-04T11:50:30.405Z</time></trkpt><trkpt lat="41.3030017" lon="14.2064583"><ele>173.0</ele><time>2026-05-04T11:50:31.407Z</time></trkpt><trkpt lat="41.302935" lon="14.2063667"><ele>173.0</ele><time>2026-05-04T11:50:32.405Z</time></trkpt><trkpt lat="41.30287" lon="14.2062783"><ele>170.8</ele><time>2026-05-04T11:50:33.406Z</time></trkpt><trkpt lat="41.302805" lon="14.2061883"><ele>168.60000000000002</ele><time>2026-05-04T11:50:34.405Z</time></trkpt><trkpt lat="41.3027367" lon="14.2060983"><ele>166.39999999999998</ele><time>2026-05-04T11:50:35.404Z</time></trkpt><trkpt lat="41.3026667" lon="14.2060067"><ele>164.2</ele><time>2026-05-04T11:50:36.407Z</time></trkpt><trkpt lat="41.302595" lon="14.2059133"><ele>162.0</ele><time>2026-05-04T11:50:37.404Z</time></trkpt><trkpt lat="41.302525" lon="14.20582"><ele>162.0</ele><time>2026-05-04T11:50:38.401Z</time></trkpt><trkpt lat="41.302455" lon="14.205725"><ele>162.0</ele><time>2026-05-04T11:50:39.403Z</time></trkpt><trkpt lat="41.3023883" lon="14.2056333"><ele>162.0</ele><time>2026-05-04T11:50:40.403Z</time></trkpt><trkpt lat="41.30232" lon="14.2055417"><ele>162.0</ele><time>2026-05-04T11:50:41.403Z</time></trkpt><trkpt lat="41.30225" lon="14.2054483"><ele>162.0</ele><time>2026-05-04T11:50:42.403Z</time></trkpt><trkpt lat="41.3021783" lon="14.205355"><ele>161.4</ele><time>2026-05-04T11:50:43.404Z</time></trkpt><trkpt lat="41.3021067" lon="14.2052633"><ele>160.79999999999998</ele><time>2026-05-04T11:50:44.405Z</time></trkpt><trkpt lat="41.3020333" lon="14.20517"><ele>160.2</ele><time>2026-05-04T11:50:45.405Z</time></trkpt><trkpt lat="41.301955" lon="14.205085"><ele>159.6</ele><time>2026-05-04T11:50:46.405Z</time></trkpt><trkpt lat="41.3018767" lon="14.2049983"><ele>159.0</ele><time>2026-05-04T11:50:47.406Z</time></trkpt><trkpt lat="41.3017967" lon="14.2049133"><ele>159.0</ele><time>2026-05-04T11:50:48.404Z</time></trkpt><trkpt lat="41.301715" lon="14.2048317"><ele>159.0</ele><time>2026-05-04T11:50:49.404Z</time></trkpt><trkpt lat="41.30163" lon="14.204755"><ele>159.0</ele><time>2026-05-04T11:50:50.404Z</time></trkpt><trkpt lat="41.3015433" lon="14.20468"><ele>159.0</ele><time>2026-05-04T11:50:51.403Z</time></trkpt><trkpt lat="41.301455" lon="14.2046033"><ele>159.0</ele><time>2026-05-04T11:50:52.403Z</time></trkpt><trkpt lat="41.3013683" lon="14.2045317"><ele>157.8</ele><time>2026-05-04T11:50:53.404Z</time></trkpt><trkpt lat="41.30128" lon="14.20446"><ele>156.60000000000002</ele><time>2026-05-04T11:50:54.403Z</time></trkpt><trkpt lat="41.301195" lon="14.2043883"><ele>155.4</ele><time>2026-05-04T11:50:55.406Z</time></trkpt><trkpt lat="41.3011083" lon="14.20432"><ele>154.20000000000002</ele><time>2026-05-04T11:50:56.405Z</time></trkpt><trkpt lat="41.30102" lon="14.2042467"><ele>153.0</ele><time>2026-05-04T11:50:57.403Z</time></trkpt><trkpt lat="41.3009333" lon="14.2041717"><ele>153.0</ele><time>2026-05-04T11:50:58.404Z</time></trkpt><trkpt lat="41.3008483" lon="14.204095"><ele>153.0</ele><time>2026-05-04T11:50:59.404Z</time></trkpt><trkpt lat="41.3007583" lon="14.204015"><ele>153.0</ele><time>2026-05-04T11:51:00.406Z</time></trkpt><trkpt lat="41.3006717" lon="14.2039383"><ele>153.0</ele><time>2026-05-04T11:51:01.407Z</time></trkpt><trkpt lat="41.30059" lon="14.2038617"><ele>153.0</ele><time>2026-05-04T11:51:02.403Z</time></trkpt><trkpt lat="41.3005067" lon="14.2037833"><ele>152.0</ele><time>2026-05-04T11:51:03.403Z</time></trkpt><trkpt lat="41.3004217" lon="14.2037083"><ele>151.0</ele><time>2026-05-04T11:51:04.407Z</time></trkpt><trkpt lat="41.3003367" lon="14.2036333"><ele>150.0</ele><time>2026-05-04T11:51:05.403Z</time></trkpt><trkpt lat="41.30025" lon="14.2035583"><ele>149.0</ele><time>2026-05-04T11:51:06.404Z</time></trkpt><trkpt lat="41.3001617" lon="14.203485"><ele>148.0</ele><time>2026-05-04T11:51:07.404Z</time></trkpt><trkpt lat="41.300075" lon="14.20341"><ele>148.0</ele><time>2026-05-04T11:51:08.403Z</time></trkpt><trkpt lat="41.2999883" lon="14.2033367"><ele>148.0</ele><time>2026-05-04T11:51:09.404Z</time></trkpt><trkpt lat="41.2999067" lon="14.2032633"><ele>148.0</ele><time>2026-05-04T11:51:10.408Z</time></trkpt><trkpt lat="41.2998233" lon="14.20319"><ele>148.0</ele><time>2026-05-04T11:51:11.405Z</time></trkpt><trkpt lat="41.29974" lon="14.2031167"><ele>148.0</ele><time>2026-05-04T11:51:12.405Z</time></trkpt><trkpt lat="41.2996567" lon="14.2030467"><ele>148.0</ele><time>2026-05-04T11:51:13.403Z</time></trkpt><trkpt lat="41.29957" lon="14.202975"><ele>148.0</ele><time>2026-05-04T11:51:14.405Z</time></trkpt><trkpt lat="41.29949" lon="14.2029033"><ele>148.0</ele><time>2026-05-04T11:51:15.405Z</time></trkpt><trkpt lat="41.29941" lon="14.2028283"><ele>148.0</ele><time>2026-05-04T11:51:16.406Z</time></trkpt><trkpt lat="41.2993317" lon="14.202755"><ele>148.0</ele><time>2026-05-04T11:51:17.403Z</time></trkpt><trkpt lat="41.299255" lon="14.2026917"><ele>148.0</ele><time>2026-05-04T11:51:18.405Z</time></trkpt><trkpt lat="41.2991783" lon="14.2026383"><ele>148.0</ele><time>2026-05-04T11:51:19.405Z</time></trkpt><trkpt lat="41.299105" lon="14.2025833"><ele>148.0</ele><time>2026-05-04T11:51:20.404Z</time></trkpt><trkpt lat="41.2990333" lon="14.2025283"><ele>148.0</ele><time>2026-05-04T11:51:21.405Z</time></trkpt><trkpt lat="41.2989617" lon="14.2024733"><ele>148.0</ele><time>2026-05-04T11:51:22.405Z</time></trkpt><trkpt lat="41.2988917" lon="14.2024117"><ele>148.0</ele><time>2026-05-04T11:51:23.403Z</time></trkpt><trkpt lat="41.2988233" lon="14.2023517"><ele>147.66666666666669</ele><time>2026-05-04T11:51:24.404Z</time></trkpt><trkpt lat="41.2987583" lon="14.20229"><ele>147.33333333333334</ele><time>2026-05-04T11:51:25.404Z</time></trkpt><trkpt lat="41.298695" lon="14.20223"><ele>147.0</ele><time>2026-05-04T11:51:26.405Z</time></trkpt><trkpt lat="41.29863" lon="14.2021733"><ele>146.66666666666666</ele><time>2026-05-04T11:51:27.404Z</time></trkpt><trkpt lat="41.2985617" lon="14.202115"><ele>146.33333333333331</ele><time>2026-05-04T11:51:28.404Z</time></trkpt><trkpt lat="41.2984983" lon="14.2020583"><ele>146.0</ele><time>2026-05-04T11:51:29.405Z</time></trkpt><trkpt lat="41.298435" lon="14.202005"><ele>146.0</ele><time>2026-05-04T11:51:30.405Z</time></trkpt><trkpt lat="41.2983667" lon="14.201945"><ele>146.0</ele><time>2026-05-04T11:51:31.406Z</time></trkpt><trkpt lat="41.298305" lon="14.2018867"><ele>146.0</ele><time>2026-05-04T11:51:32.403Z</time></trkpt><trkpt lat="41.29824" lon="14.2018317"><ele>146.0</ele><time>2026-05-04T11:51:33.403Z</time></trkpt><trkpt lat="41.2981783" lon="14.2017767"><ele>146.0</ele><time>2026-05-04T11:51:34.405Z</time></trkpt><trkpt lat="41.2981167" lon="14.2017217"><ele>146.0</ele><time>2026-05-04T11:51:35.404Z</time></trkpt><trkpt lat="41.2980567" lon="14.2016683"><ele>145.85714285714286</ele><time>2026-05-04T11:51:36.405Z</time></trkpt><trkpt lat="41.2979967" lon="14.2016167"><ele>145.71428571428572</ele><time>2026-05-04T11:51:37.403Z</time></trkpt><trkpt lat="41.297935" lon="14.201565"><ele>145.57142857142858</ele><time>2026-05-04T11:51:38.406Z</time></trkpt><trkpt lat="41.2978733" lon="14.20151"><ele>145.42857142857144</ele><time>2026-05-04T11:51:39.402Z</time></trkpt><trkpt lat="41.29781" lon="14.2014583"><ele>145.2857142857143</ele><time>2026-05-04T11:51:40.405Z</time></trkpt><trkpt lat="41.2977483" lon="14.2014083"><ele>145.14285714285714</ele><time>2026-05-04T11:51:41.403Z</time></trkpt><trkpt lat="41.2976867" lon="14.2013567"><ele>145.0</ele><time>2026-05-04T11:51:42.403Z</time></trkpt><trkpt lat="41.2976267" lon="14.2013033"><ele>145.0</ele><time>2026-05-04T11:51:43.402Z</time></trkpt><trkpt lat="41.2975667" lon="14.2012467"><ele>145.0</ele><time>2026-05-04T11:51:44.404Z</time></trkpt><trkpt lat="41.2975067" lon="14.2011933"><ele>145.0</ele><time>2026-05-04T11:51:45.405Z</time></trkpt><trkpt lat="41.2974467" lon="14.20114"><ele>145.0</ele><time>2026-05-04T11:51:46.404Z</time></trkpt><trkpt lat="41.2973867" lon="14.2010867"><ele>145.0</ele><time>2026-05-04T11:51:47.404Z</time></trkpt><trkpt lat="41.297325" lon="14.2010317"><ele>145.0</ele><time>2026-05-04T11:51:48.404Z</time></trkpt><trkpt lat="41.2972633" lon="14.2009767"><ele>145.0</ele><time>2026-05-04T11:51:49.406Z</time></trkpt><trkpt lat="41.2972017" lon="14.2009217"><ele>145.0</ele><time>2026-05-04T11:51:50.405Z</time></trkpt><trkpt lat="41.29714" lon="14.20087"><ele>145.0</ele><time>2026-05-04T11:51:51.405Z</time></trkpt><trkpt lat="41.2970783" lon="14.2008183"><ele>145.0</ele><time>2026-05-04T11:51:52.404Z</time></trkpt><trkpt lat="41.297015" lon="14.200765"><ele>145.0</ele><time>2026-05-04T11:51:53.405Z</time></trkpt><trkpt lat="41.2969517" lon="14.20071"><ele>145.0</ele><time>2026-05-04T11:51:54.404Z</time></trkpt><trkpt lat="41.2968917" lon="14.200655"><ele>145.0</ele><time>2026-05-04T11:51:55.406Z</time></trkpt><trkpt lat="41.2968283" lon="14.2006"><ele>145.0</ele><time>2026-05-04T11:51:56.405Z</time></trkpt><trkpt lat="41.2967617" lon="14.200545"><ele>144.66666666666669</ele><time>2026-05-04T11:51:57.403Z</time></trkpt><trkpt lat="41.296695" lon="14.20049"><ele>144.33333333333334</ele><time>2026-05-04T11:51:58.405Z</time></trkpt><trkpt lat="41.2966233" lon="14.200435"><ele>144.0</ele><time>2026-05-04T11:51:59.405Z</time></trkpt><trkpt lat="41.296555" lon="14.200375"><ele>143.66666666666666</ele><time>2026-05-04T11:52:00.403Z</time></trkpt><trkpt lat="41.2964833" lon="14.200315"><ele>143.33333333333331</ele><time>2026-05-04T11:52:01.406Z</time></trkpt><trkpt lat="41.296415" lon="14.2002517"><ele>143.0</ele><time>2026-05-04T11:52:02.405Z</time></trkpt><trkpt lat="41.296345" lon="14.2001917"><ele>142.83333333333331</ele><time>2026-05-04T11:52:03.402Z</time></trkpt><trkpt lat="41.296275" lon="14.2001367"><ele>142.66666666666666</ele><time>2026-05-04T11:52:04.403Z</time></trkpt><trkpt lat="41.29621" lon="14.200085"><ele>142.5</ele><time>2026-05-04T11:52:05.405Z</time></trkpt><trkpt lat="41.296145" lon="14.2000317"><ele>142.33333333333334</ele><time>2026-05-04T11:52:06.406Z</time></trkpt><trkpt lat="41.296065" lon="14.1999733"><ele>142.16666666666669</ele><time>2026-05-04T11:52:07.404Z</time></trkpt><trkpt lat="41.2959867" lon="14.1999133"><ele>142.0</ele><time>2026-05-04T11:52:08.405Z</time></trkpt><trkpt lat="41.295915" lon="14.1998533"><ele>141.83333333333334</ele><time>2026-05-04T11:52:09.405Z</time></trkpt><trkpt lat="41.2958417" lon="14.19979"><ele>141.66666666666669</ele><time>2026-05-04T11:52:10.405Z</time></trkpt><trkpt lat="41.295775" lon="14.199725"><ele>141.5</ele><time>2026-05-04T11:52:11.404Z</time></trkpt><trkpt lat="41.29571" lon="14.1996583"><ele>141.33333333333334</ele><time>2026-05-04T11:52:12.404Z</time></trkpt><trkpt lat="41.295645" lon="14.1995933"><ele>141.16666666666666</ele><time>2026-05-04T11:52:13.405Z</time></trkpt><trkpt lat="41.2955767" lon="14.1995283"><ele>141.0</ele><time>2026-05-04T11:52:14.404Z</time></trkpt><trkpt lat="41.2955083" lon="14.1994667"><ele>141.0</ele><time>2026-05-04T11:52:15.404Z</time></trkpt><trkpt lat="41.2954367" lon="14.199405"><ele>141.0</ele><time>2026-05-04T11:52:16.403Z</time></trkpt><trkpt lat="41.2953667" lon="14.1993467"><ele>141.0</ele><time>2026-05-04T11:52:17.403Z</time></trkpt><trkpt lat="41.2952983" lon="14.1992867"><ele>141.0</ele><time>2026-05-04T11:52:18.405Z</time></trkpt><trkpt lat="41.2952283" lon="14.1992267"><ele>141.0</ele><time>2026-05-04T11:52:19.405Z</time></trkpt><trkpt lat="41.2951583" lon="14.1991683"><ele>141.0</ele><time>2026-05-04T11:52:20.405Z</time></trkpt><trkpt lat="41.2950867" lon="14.19911"><ele>141.0</ele><time>2026-05-04T11:52:21.405Z</time></trkpt><trkpt lat="41.2950183" lon="14.1990467"><ele>141.0</ele><time>2026-05-04T11:52:22.404Z</time></trkpt><trkpt lat="41.29495" lon="14.198985"><ele>141.0</ele><time>2026-05-04T11:52:23.405Z</time></trkpt><trkpt lat="41.29488" lon="14.1989233"><ele>141.0</ele><time>2026-05-04T11:52:24.405Z</time></trkpt><trkpt lat="41.2948067" lon="14.1988583"><ele>141.0</ele><time>2026-05-04T11:52:25.403Z</time></trkpt><trkpt lat="41.2947383" lon="14.1987933"><ele>141.0</ele><time>2026-05-04T11:52:26.404Z</time></trkpt><trkpt lat="41.2946683" lon="14.1987317"><ele>140.66666666666666</ele><time>2026-05-04T11:52:27.405Z</time></trkpt><trkpt lat="41.2945983" lon="14.19867"><ele>140.33333333333334</ele><time>2026-05-04T11:52:28.405Z</time></trkpt><trkpt lat="41.2945283" lon="14.198615"><ele>140.0</ele><time>2026-05-04T11:52:29.403Z</time></trkpt><trkpt lat="41.29446" lon="14.1985567"><ele>139.66666666666669</ele><time>2026-05-04T11:52:30.405Z</time></trkpt><trkpt lat="41.2943917" lon="14.1984983"><ele>139.33333333333334</ele><time>2026-05-04T11:52:31.405Z</time></trkpt><trkpt lat="41.2943233" lon="14.19844"><ele>139.0</ele><time>2026-05-04T11:52:32.404Z</time></trkpt><trkpt lat="41.2942567" lon="14.1983817"><ele>139.0</ele><time>2026-05-04T11:52:33.404Z</time></trkpt><trkpt lat="41.2941883" lon="14.198325"><ele>139.0</ele><time>2026-05-04T11:52:34.405Z</time></trkpt><trkpt lat="41.2941217" lon="14.1982667"><ele>139.0</ele><time>2026-05-04T11:52:35.405Z</time></trkpt><trkpt lat="41.2940533" lon="14.1982083"><ele>139.0</ele><time>2026-05-04T11:52:36.405Z</time></trkpt><trkpt lat="41.29399" lon="14.19815"><ele>139.0</ele><time>2026-05-04T11:52:37.403Z</time></trkpt><trkpt lat="41.2939267" lon="14.1980933"><ele>139.0</ele><time>2026-05-04T11:52:38.403Z</time></trkpt><trkpt lat="41.2938633" lon="14.1980333"><ele>138.83333333333334</ele><time>2026-05-04T11:52:39.405Z</time></trkpt><trkpt lat="41.2937983" lon="14.1979767"><ele>138.66666666666669</ele><time>2026-05-04T11:52:40.404Z</time></trkpt><trkpt lat="41.29373" lon="14.19792"><ele>138.5</ele><time>2026-05-04T11:52:41.406Z</time></trkpt><trkpt lat="41.2936617" lon="14.1978617"><ele>138.33333333333334</ele><time>2026-05-04T11:52:42.404Z</time></trkpt><trkpt lat="41.2935933" lon="14.1978033"><ele>138.16666666666666</ele><time>2026-05-04T11:52:43.405Z</time></trkpt><trkpt lat="41.2935267" lon="14.1977433"><ele>138.0</ele><time>2026-05-04T11:52:44.405Z</time></trkpt><trkpt lat="41.2934583" lon="14.1976833"><ele>138.0</ele><time>2026-05-04T11:52:45.404Z</time></trkpt><trkpt lat="41.2933917" lon="14.197625"><ele>138.0</ele><time>2026-05-04T11:52:46.404Z</time></trkpt><trkpt lat="41.2933233" lon="14.1975667"><ele>138.0</ele><time>2026-05-04T11:52:47.405Z</time></trkpt><trkpt lat="41.2932533" lon="14.19751"><ele>138.0</ele><time>2026-05-04T11:52:48.404Z</time></trkpt><trkpt lat="41.2931833" lon="14.1974517"><ele>138.0</ele><time>2026-05-04T11:52:49.405Z</time></trkpt><trkpt lat="41.2931133" lon="14.1973917"><ele>138.0</ele><time>2026-05-04T11:52:50.405Z</time></trkpt><trkpt lat="41.2930467" lon="14.19733"><ele>137.5</ele><time>2026-05-04T11:52:51.405Z</time></trkpt><trkpt lat="41.2929767" lon="14.19727"><ele>137.0</ele><time>2026-05-04T11:52:52.404Z</time></trkpt><trkpt lat="41.2929067" lon="14.197215"><ele>136.5</ele><time>2026-05-04T11:52:53.405Z</time></trkpt><trkpt lat="41.29284" lon="14.1971583"><ele>136.0</ele><time>2026-05-04T11:52:54.403Z</time></trkpt><trkpt lat="41.2927717" lon="14.1971017"><ele>135.5</ele><time>2026-05-04T11:52:55.405Z</time></trkpt><trkpt lat="41.292705" lon="14.197045"><ele>135.0</ele><time>2026-05-04T11:52:56.405Z</time></trkpt><trkpt lat="41.29264" lon="14.1969883"><ele>135.0</ele><time>2026-05-04T11:52:57.403Z</time></trkpt><trkpt lat="41.292575" lon="14.1969317"><ele>135.0</ele><time>2026-05-04T11:52:58.407Z</time></trkpt><trkpt lat="41.2925133" lon="14.1968717"><ele>135.0</ele><time>2026-05-04T11:52:59.405Z</time></trkpt><trkpt lat="41.29245" lon="14.196815"><ele>135.0</ele><time>2026-05-04T11:53:00.406Z</time></trkpt><trkpt lat="41.2923833" lon="14.1967633"><ele>135.0</ele><time>2026-05-04T11:53:01.406Z</time></trkpt><trkpt lat="41.2923183" lon="14.1967083"><ele>135.0</ele><time>2026-05-04T11:53:02.404Z</time></trkpt><trkpt lat="41.2922533" lon="14.1966533"><ele>134.83333333333334</ele><time>2026-05-04T11:53:03.404Z</time></trkpt><trkpt lat="41.292185" lon="14.1965983"><ele>134.66666666666666</ele><time>2026-05-04T11:53:04.403Z</time></trkpt><trkpt lat="41.2921233" lon="14.1965417"><ele>134.5</ele><time>2026-05-04T11:53:05.407Z</time></trkpt><trkpt lat="41.2920583" lon="14.196485"><ele>134.33333333333331</ele><time>2026-05-04T11:53:06.403Z</time></trkpt><trkpt lat="41.2919933" lon="14.19643"><ele>134.16666666666666</ele><time>2026-05-04T11:53:07.404Z</time></trkpt><trkpt lat="41.2919283" lon="14.196375"><ele>134.0</ele><time>2026-05-04T11:53:08.404Z</time></trkpt><trkpt lat="41.2918633" lon="14.1963167"><ele>134.0</ele><time>2026-05-04T11:53:09.402Z</time></trkpt><trkpt lat="41.2917983" lon="14.19626"><ele>134.0</ele><time>2026-05-04T11:53:10.405Z</time></trkpt><trkpt lat="41.2917333" lon="14.196205"><ele>134.0</ele><time>2026-05-04T11:53:11.405Z</time></trkpt><trkpt lat="41.2916667" lon="14.1961517"><ele>134.0</ele><time>2026-05-04T11:53:12.405Z</time></trkpt><trkpt lat="41.2916" lon="14.1960967"><ele>134.0</ele><time>2026-05-04T11:53:13.405Z</time></trkpt><trkpt lat="41.2915317" lon="14.19604"><ele>134.0</ele><time>2026-05-04T11:53:14.405Z</time></trkpt><trkpt lat="41.291465" lon="14.19598"><ele>134.0</ele><time>2026-05-04T11:53:15.404Z</time></trkpt><trkpt lat="41.2913983" lon="14.19592"><ele>134.0</ele><time>2026-05-04T11:53:16.406Z</time></trkpt><trkpt lat="41.291335" lon="14.1958617"><ele>134.0</ele><time>2026-05-04T11:53:17.403Z</time></trkpt><trkpt lat="41.2912733" lon="14.1958033"><ele>134.0</ele><time>2026-05-04T11:53:18.406Z</time></trkpt><trkpt lat="41.2912083" lon="14.1957533"><ele>134.0</ele><time>2026-05-04T11:53:19.405Z</time></trkpt><trkpt lat="41.2911433" lon="14.1957017"><ele>134.0</ele><time>2026-05-04T11:53:20.405Z</time></trkpt><trkpt lat="41.29108" lon="14.1956467"><ele>134.0</ele><time>2026-05-04T11:53:21.403Z</time></trkpt><trkpt lat="41.2910167" lon="14.19559"><ele>134.0</ele><time>2026-05-04T11:53:22.405Z</time></trkpt><trkpt lat="41.2909533" lon="14.1955317"><ele>134.0</ele><time>2026-05-04T11:53:23.405Z</time></trkpt><trkpt lat="41.2908883" lon="14.1954733"><ele>134.0</ele><time>2026-05-04T11:53:24.405Z</time></trkpt><trkpt lat="41.2908217" lon="14.1954167"><ele>134.0</ele><time>2026-05-04T11:53:25.405Z</time></trkpt><trkpt lat="41.2907583" lon="14.1953617"><ele>134.0</ele><time>2026-05-04T11:53:26.405Z</time></trkpt><trkpt lat="41.290695" lon="14.195305"><ele>134.0</ele><time>2026-05-04T11:53:27.402Z</time></trkpt><trkpt lat="41.2906317" lon="14.19525"><ele>134.0</ele><time>2026-05-04T11:53:28.404Z</time></trkpt><trkpt lat="41.2905683" lon="14.1951933"><ele>134.0</ele><time>2026-05-04T11:53:29.406Z</time></trkpt><trkpt lat="41.2905017" lon="14.195135"><ele>134.0</ele><time>2026-05-04T11:53:30.405Z</time></trkpt><trkpt lat="41.290435" lon="14.195075"><ele>134.0</ele><time>2026-05-04T11:53:31.405Z</time></trkpt><trkpt lat="41.290365" lon="14.19502"><ele>134.0</ele><time>2026-05-04T11:53:32.406Z</time></trkpt><trkpt lat="41.2902983" lon="14.194965"><ele>133.83333333333331</ele><time>2026-05-04T11:53:33.404Z</time></trkpt><trkpt lat="41.29023" lon="14.1949083"><ele>133.66666666666666</ele><time>2026-05-04T11:53:34.404Z</time></trkpt><trkpt lat="41.2901617" lon="14.1948517"><ele>133.5</ele><time>2026-05-04T11:53:35.403Z</time></trkpt><trkpt lat="41.2900967" lon="14.1947933"><ele>133.33333333333334</ele><time>2026-05-04T11:53:36.403Z</time></trkpt><trkpt lat="41.2900317" lon="14.194735"><ele>133.16666666666669</ele><time>2026-05-04T11:53:37.404Z</time></trkpt><trkpt lat="41.2899667" lon="14.194675"><ele>133.0</ele><time>2026-05-04T11:53:38.403Z</time></trkpt><trkpt lat="41.2899017" lon="14.1946183"><ele>133.0</ele><time>2026-05-04T11:53:39.403Z</time></trkpt><trkpt lat="41.2898333" lon="14.1945617"><ele>133.0</ele><time>2026-05-04T11:53:40.406Z</time></trkpt><trkpt lat="41.289765" lon="14.1945033"><ele>133.0</ele><time>2026-05-04T11:53:41.408Z</time></trkpt><trkpt lat="41.2897" lon="14.1944467"><ele>133.0</ele><time>2026-05-04T11:53:42.407Z</time></trkpt><trkpt lat="41.2896333" lon="14.19439"><ele>133.0</ele><time>2026-05-04T11:53:43.406Z</time></trkpt><trkpt lat="41.289565" lon="14.1943333"><ele>133.0</ele><time>2026-05-04T11:53:44.405Z</time></trkpt><trkpt lat="41.2895017" lon="14.1942817"><ele>132.83333333333334</ele><time>2026-05-04T11:53:45.405Z</time></trkpt><trkpt lat="41.2894417" lon="14.194235"><ele>132.66666666666669</ele><time>2026-05-04T11:53:46.405Z</time></trkpt><trkpt lat="41.28935" lon="14.1941683"><ele>132.5</ele><time>2026-05-04T11:53:48.404Z</time></trkpt><trkpt lat="41.2892833" lon="14.1941433"><ele>132.33333333333334</ele><time>2026-05-04T11:53:51.404Z</time></trkpt><trkpt lat="41.2893083" lon="14.194235"><ele>132.16666666666666</ele><time>2026-05-04T11:53:56.404Z</time></trkpt><trkpt lat="41.2892783" lon="14.1941333"><ele>132.0</ele><time>2026-05-04T11:55:09.404Z</time></trkpt><trkpt lat="41.2892233" lon="14.1940767"><ele>132.0</ele><time>2026-05-04T11:55:11.405Z</time></trkpt><trkpt lat="41.289165" lon="14.194015"><ele>132.0</ele><time>2026-05-04T11:55:13.403Z</time></trkpt><trkpt lat="41.2890983" lon="14.1939567"><ele>132.0</ele><time>2026-05-04T11:55:15.404Z</time></trkpt><trkpt lat="41.2890317" lon="14.193905"><ele>132.0</ele><time>2026-05-04T11:55:17.403Z</time></trkpt><trkpt lat="41.2889633" lon="14.19384"><ele>132.0</ele><time>2026-05-04T11:55:19.406Z</time></trkpt><trkpt lat="41.2888917" lon="14.193775"><ele>132.0</ele><time>2026-05-04T11:55:21.404Z</time></trkpt><trkpt lat="41.2888183" lon="14.1937067"><ele>130.79999999999998</ele><time>2026-05-04T11:55:23.404Z</time></trkpt><trkpt lat="41.2887383" lon="14.1936433"><ele>129.6</ele><time>2026-05-04T11:55:25.404Z</time></trkpt><trkpt lat="41.2886617" lon="14.19358"><ele>128.39999999999998</ele><time>2026-05-04T11:55:27.403Z</time></trkpt><trkpt lat="41.2885767" lon="14.1935117"><ele>127.19999999999999</ele><time>2026-05-04T11:55:29.406Z</time></trkpt><trkpt lat="41.2884817" lon="14.1934567"><ele>126.0</ele><time>2026-05-04T11:55:31.406Z</time></trkpt><trkpt lat="41.2883833" lon="14.1934117"><ele>126.0</ele><time>2026-05-04T11:55:33.405Z</time></trkpt><trkpt lat="41.2882717" lon="14.19338"><ele>126.0</ele><time>2026-05-04T11:55:35.406Z</time></trkpt><trkpt lat="41.2881583" lon="14.193375"><ele>126.0</ele><time>2026-05-04T11:55:37.406Z</time></trkpt><trkpt lat="41.2880383" lon="14.1933733"><ele>126.0</ele><time>2026-05-04T11:55:39.406Z</time></trkpt><trkpt lat="41.287975" lon="14.1933733"><ele>126.0</ele><time>2026-05-04T11:55:40.405Z</time></trkpt><trkpt lat="41.2879067" lon="14.1933733"><ele>126.0</ele><time>2026-05-04T11:55:41.405Z</time></trkpt><trkpt lat="41.2878433" lon="14.1933717"><ele>126.0</ele><time>2026-05-04T11:55:42.405Z</time></trkpt><trkpt lat="41.2877783" lon="14.19337"><ele>126.0</ele><time>2026-05-04T11:55:43.406Z</time></trkpt><trkpt lat="41.287655" lon="14.1933667"><ele>126.0</ele><time>2026-05-04T11:55:45.403Z</time></trkpt><trkpt lat="41.287535" lon="14.19337"><ele>126.0</ele><time>2026-05-04T11:55:47.405Z</time></trkpt><trkpt lat="41.2874233" lon="14.193375"><ele>126.0</ele><time>2026-05-04T11:55:49.404Z</time></trkpt><trkpt lat="41.28731" lon="14.1933867"><ele>126.0</ele><time>2026-05-04T11:55:51.404Z</time></trkpt><trkpt lat="41.2871967" lon="14.1933933"><ele>126.0</ele><time>2026-05-04T11:55:53.405Z</time></trkpt><trkpt lat="41.2870817" lon="14.1933983"><ele>126.0</ele><time>2026-05-04T11:55:55.405Z</time></trkpt><trkpt lat="41.286975" lon="14.1934067"><ele>126.0</ele><time>2026-05-04T11:55:57.404Z</time></trkpt><trkpt lat="41.2868717" lon="14.1934067"><ele>126.0</ele><time>2026-05-04T11:55:59.404Z</time></trkpt><trkpt lat="41.2867717" lon="14.193395"><ele>126.0</ele><time>2026-05-04T11:56:01.405Z</time></trkpt><trkpt lat="41.2866783" lon="14.1934017"><ele>126.0</ele><time>2026-05-04T11:56:03.403Z</time></trkpt><trkpt lat="41.2865917" lon="14.19342"><ele>126.0</ele><time>2026-05-04T11:56:05.404Z</time></trkpt><trkpt lat="41.2865083" lon="14.19345"><ele>126.0</ele><time>2026-05-04T11:56:07.404Z</time></trkpt><trkpt lat="41.2864183" lon="14.1934817"><ele>126.4</ele><time>2026-05-04T11:56:09.405Z</time></trkpt><trkpt lat="41.2863217" lon="14.193495"><ele>126.8</ele><time>2026-05-04T11:56:11.405Z</time></trkpt><trkpt lat="41.286215" lon="14.19351"><ele>127.20000000000002</ele><time>2026-05-04T11:56:13.407Z</time></trkpt><trkpt lat="41.2861" lon="14.1935117"><ele>127.60000000000001</ele><time>2026-05-04T11:56:15.403Z</time></trkpt><trkpt lat="41.285985" lon="14.1935083"><ele>128.0</ele><time>2026-05-04T11:56:17.403Z</time></trkpt><trkpt lat="41.285875" lon="14.1934933"><ele>128.0</ele><time>2026-05-04T11:56:19.406Z</time></trkpt><trkpt lat="41.285765" lon="14.1934783"><ele>128.0</ele><time>2026-05-04T11:56:21.402Z</time></trkpt><trkpt lat="41.2856617" lon="14.1934617"><ele>128.0</ele><time>2026-05-04T11:56:23.404Z</time></trkpt><trkpt lat="41.28556" lon="14.19343"><ele>128.0</ele><time>2026-05-04T11:56:25.406Z</time></trkpt><trkpt lat="41.2854517" lon="14.19339"><ele>128.0</ele><time>2026-05-04T11:56:27.404Z</time></trkpt><trkpt lat="41.2853483" lon="14.1933433"><ele>127.80000000000001</ele><time>2026-05-04T11:56:29.404Z</time></trkpt><trkpt lat="41.285255" lon="14.1932933"><ele>127.60000000000001</ele><time>2026-05-04T11:56:31.405Z</time></trkpt><trkpt lat="41.28516" lon="14.1932367"><ele>127.39999999999999</ele><time>2026-05-04T11:56:33.402Z</time></trkpt><trkpt lat="41.2850683" lon="14.1931783"><ele>127.19999999999999</ele><time>2026-05-04T11:56:35.404Z</time></trkpt><trkpt lat="41.2849767" lon="14.19313"><ele>127.0</ele><time>2026-05-04T11:56:37.403Z</time></trkpt><trkpt lat="41.284875" lon="14.1930817"><ele>126.83333333333334</ele><time>2026-05-04T11:56:39.404Z</time></trkpt><trkpt lat="41.2847583" lon="14.193045"><ele>126.66666666666667</ele><time>2026-05-04T11:56:41.408Z</time></trkpt><trkpt lat="41.2846333" lon="14.193025"><ele>126.5</ele><time>2026-05-04T11:56:43.406Z</time></trkpt><trkpt lat="41.28457" lon="14.193015"><ele>126.33333333333334</ele><time>2026-05-04T11:56:44.406Z</time></trkpt><trkpt lat="41.2845067" lon="14.1930033"><ele>126.16666666666667</ele><time>2026-05-04T11:56:45.404Z</time></trkpt><trkpt lat="41.2844433" lon="14.192995"><ele>126.0</ele><time>2026-05-04T11:56:46.406Z</time></trkpt><trkpt lat="41.2843783" lon="14.1929867"><ele>126.0</ele><time>2026-05-04T11:56:47.405Z</time></trkpt><trkpt lat="41.2843117" lon="14.1929767"><ele>126.0</ele><time>2026-05-04T11:56:48.407Z</time></trkpt><trkpt lat="41.2842417" lon="14.192965"><ele>126.0</ele><time>2026-05-04T11:56:49.408Z</time></trkpt><trkpt lat="41.28417" lon="14.1929533"><ele>126.0</ele><time>2026-05-04T11:56:50.407Z</time></trkpt><trkpt lat="41.284095" lon="14.1929433"><ele>126.0</ele><time>2026-05-04T11:56:51.406Z</time></trkpt><trkpt lat="41.28402" lon="14.192935"><ele>126.0</ele><time>2026-05-04T11:56:52.403Z</time></trkpt><trkpt lat="41.2839467" lon="14.192925"><ele>126.0</ele><time>2026-05-04T11:56:53.405Z</time></trkpt><trkpt lat="41.2838733" lon="14.192915"><ele>126.0</ele><time>2026-05-04T11:56:54.405Z</time></trkpt><trkpt lat="41.2838" lon="14.192905"><ele>126.0</ele><time>2026-05-04T11:56:55.406Z</time></trkpt><trkpt lat="41.2837233" lon="14.1928933"><ele>126.0</ele><time>2026-05-04T11:56:56.404Z</time></trkpt><trkpt lat="41.2836533" lon="14.1928817"><ele>126.0</ele><time>2026-05-04T11:56:57.406Z</time></trkpt><trkpt lat="41.2835817" lon="14.1928733"><ele>126.0</ele><time>2026-05-04T11:56:58.404Z</time></trkpt><trkpt lat="41.283515" lon="14.192865"><ele>126.0</ele><time>2026-05-04T11:56:59.405Z</time></trkpt><trkpt lat="41.28345" lon="14.1928533"><ele>126.0</ele><time>2026-05-04T11:57:00.406Z</time></trkpt><trkpt lat="41.2833867" lon="14.1928417"><ele>126.0</ele><time>2026-05-04T11:57:01.404Z</time></trkpt><trkpt lat="41.2833233" lon="14.1928333"><ele>126.0</ele><time>2026-05-04T11:57:02.405Z</time></trkpt><trkpt lat="41.2832033" lon="14.19282"><ele>126.0</ele><time>2026-05-04T11:57:04.404Z</time></trkpt><trkpt lat="41.2831383" lon="14.1928067"><ele>126.0</ele><time>2026-05-04T11:57:05.406Z</time></trkpt><trkpt lat="41.28301" lon="14.1927883"><ele>126.0</ele><time>2026-05-04T11:57:07.406Z</time></trkpt><trkpt lat="41.282945" lon="14.192775"><ele>126.0</ele><time>2026-05-04T11:57:08.404Z</time></trkpt><trkpt lat="41.2828817" lon="14.1927683"><ele>125.66666666666667</ele><time>2026-05-04T11:57:09.404Z</time></trkpt><trkpt lat="41.282815" lon="14.19276"><ele>125.33333333333334</ele><time>2026-05-04T11:57:10.405Z</time></trkpt><trkpt lat="41.2827483" lon="14.1927567"><ele>125.0</ele><time>2026-05-04T11:57:11.405Z</time></trkpt><trkpt lat="41.282685" lon="14.19275"><ele>124.66666666666667</ele><time>2026-05-04T11:57:12.403Z</time></trkpt><trkpt lat="41.2825583" lon="14.19273"><ele>124.33333333333334</ele><time>2026-05-04T11:57:14.403Z</time></trkpt><trkpt lat="41.2824917" lon="14.19272"><ele>124.0</ele><time>2026-05-04T11:57:15.405Z</time></trkpt><trkpt lat="41.2824283" lon="14.1927117"><ele>124.00000000000001</ele><time>2026-05-04T11:57:16.404Z</time></trkpt><trkpt lat="41.282305" lon="14.1927017"><ele>124.0</ele><time>2026-05-04T11:57:18.405Z</time></trkpt><trkpt lat="41.2822417" lon="14.19269"><ele>124.0</ele><time>2026-05-04T11:57:19.406Z</time></trkpt><trkpt lat="41.282175" lon="14.1926817"><ele>124.0</ele><time>2026-05-04T11:57:20.404Z</time></trkpt><trkpt lat="41.2820483" lon="14.192665"><ele>124.00000000000001</ele><time>2026-05-04T11:57:22.404Z</time></trkpt><trkpt lat="41.2819833" lon="14.1926567"><ele>124.0</ele><time>2026-05-04T11:57:23.406Z</time></trkpt><trkpt lat="41.2819167" lon="14.1926483"><ele>124.16666666666667</ele><time>2026-05-04T11:57:24.404Z</time></trkpt><trkpt lat="41.2818533" lon="14.1926417"><ele>124.33333333333334</ele><time>2026-05-04T11:57:25.404Z</time></trkpt><trkpt lat="41.2817883" lon="14.1926283"><ele>124.5</ele><time>2026-05-04T11:57:26.403Z</time></trkpt><trkpt lat="41.2817233" lon="14.1926133"><ele>124.66666666666666</ele><time>2026-05-04T11:57:27.405Z</time></trkpt><trkpt lat="41.2816567" lon="14.1926017"><ele>124.83333333333333</ele><time>2026-05-04T11:57:28.402Z</time></trkpt><trkpt lat="41.28159" lon="14.1925917"><ele>125.0</ele><time>2026-05-04T11:57:29.404Z</time></trkpt><trkpt lat="41.2814667" lon="14.1925783"><ele>125.4</ele><time>2026-05-04T11:57:31.406Z</time></trkpt><trkpt lat="41.2814033" lon="14.1925733"><ele>125.8</ele><time>2026-05-04T11:57:32.405Z</time></trkpt><trkpt lat="41.28128" lon="14.1925533"><ele>126.19999999999999</ele><time>2026-05-04T11:57:34.404Z</time></trkpt><trkpt lat="41.281155" lon="14.1925267"><ele>126.6</ele><time>2026-05-04T11:57:36.404Z</time></trkpt><trkpt lat="41.281035" lon="14.1925067"><ele>127.0</ele><time>2026-05-04T11:57:38.404Z</time></trkpt><trkpt lat="41.2809217" lon="14.192495"><ele>127.0</ele><time>2026-05-04T11:57:40.405Z</time></trkpt><trkpt lat="41.28081" lon="14.19249"><ele>127.0</ele><time>2026-05-04T11:57:42.405Z</time></trkpt><trkpt lat="41.2806933" lon="14.1924767"><ele>127.0</ele><time>2026-05-04T11:57:44.406Z</time></trkpt><trkpt lat="41.2805783" lon="14.1924633"><ele>127.0</ele><time>2026-05-04T11:57:46.406Z</time></trkpt><trkpt lat="41.2804733" lon="14.192445"><ele>127.6</ele><time>2026-05-04T11:57:48.405Z</time></trkpt><trkpt lat="41.2803733" lon="14.192425"><ele>128.2</ele><time>2026-05-04T11:57:50.405Z</time></trkpt><trkpt lat="41.2802817" lon="14.192415"><ele>128.8</ele><time>2026-05-04T11:57:52.406Z</time></trkpt><trkpt lat="41.2801883" lon="14.1924033"><ele>129.4</ele><time>2026-05-04T11:57:54.407Z</time></trkpt><trkpt lat="41.2801017" lon="14.1923833"><ele>130.0</ele><time>2026-05-04T11:57:56.406Z</time></trkpt><trkpt lat="41.2800133" lon="14.192365"><ele>130.0</ele><time>2026-05-04T11:57:58.404Z</time></trkpt><trkpt lat="41.2799267" lon="14.1923517"><ele>130.0</ele><time>2026-05-04T11:58:00.403Z</time></trkpt><trkpt lat="41.2798383" lon="14.192335"><ele>130.0</ele><time>2026-05-04T11:58:02.405Z</time></trkpt><trkpt lat="41.279745" lon="14.1923183"><ele>130.0</ele><time>2026-05-04T11:58:04.404Z</time></trkpt><trkpt lat="41.2796533" lon="14.1923083"><ele>130.0</ele><time>2026-05-04T11:58:06.403Z</time></trkpt><trkpt lat="41.2795533" lon="14.192295"><ele>130.4</ele><time>2026-05-04T11:58:08.406Z</time></trkpt><trkpt lat="41.2794567" lon="14.19229"><ele>130.8</ele><time>2026-05-04T11:58:10.404Z</time></trkpt><trkpt lat="41.2793583" lon="14.1922767"><ele>131.2</ele><time>2026-05-04T11:58:12.404Z</time></trkpt><trkpt lat="41.2792617" lon="14.1922667"><ele>131.6</ele><time>2026-05-04T11:58:14.404Z</time></trkpt><trkpt lat="41.27916" lon="14.1922633"><ele>132.0</ele><time>2026-05-04T11:58:16.405Z</time></trkpt><trkpt lat="41.27906" lon="14.1922533"><ele>132.0</ele><time>2026-05-04T11:58:18.405Z</time></trkpt><trkpt lat="41.278965" lon="14.1922283"><ele>132.0</ele><time>2026-05-04T11:58:20.406Z</time></trkpt><trkpt lat="41.2788733" lon="14.1922"><ele>132.0</ele><time>2026-05-04T11:58:22.404Z</time></trkpt><trkpt lat="41.2787817" lon="14.1921683"><ele>132.0</ele><time>2026-05-04T11:58:24.404Z</time></trkpt><trkpt lat="41.2786933" lon="14.1921367"><ele>132.0</ele><time>2026-05-04T11:58:26.404Z</time></trkpt><trkpt lat="41.2786083" lon="14.1921"><ele>131.83333333333334</ele><time>2026-05-04T11:58:28.406Z</time></trkpt><trkpt lat="41.2785233" lon="14.1920617"><ele>131.66666666666666</ele><time>2026-05-04T11:58:30.404Z</time></trkpt><trkpt lat="41.2784417" lon="14.19202"><ele>131.5</ele><time>2026-05-04T11:58:32.405Z</time></trkpt><trkpt lat="41.2783683" lon="14.1919783"><ele>131.33333333333331</ele><time>2026-05-04T11:58:34.403Z</time></trkpt><trkpt lat="41.2782967" lon="14.1919383"><ele>131.16666666666666</ele><time>2026-05-04T11:58:36.404Z</time></trkpt><trkpt lat="41.2782283" lon="14.19189"><ele>131.0</ele><time>2026-05-04T11:58:38.408Z</time></trkpt><trkpt lat="41.278165" lon="14.1918417"><ele>131.0</ele><time>2026-05-04T11:58:40.408Z</time></trkpt><trkpt lat="41.2781067" lon="14.1917967"><ele>131.0</ele><time>2026-05-04T11:58:42.404Z</time></trkpt><trkpt lat="41.2780467" lon="14.1917467"><ele>131.0</ele><time>2026-05-04T11:58:44.408Z</time></trkpt><trkpt lat="41.27798" lon="14.1916867"><ele>131.0</ele><time>2026-05-04T11:58:46.403Z</time></trkpt><trkpt lat="41.2779083" lon="14.1916233"><ele>131.0</ele><time>2026-05-04T11:58:48.403Z</time></trkpt><trkpt lat="41.2778433" lon="14.19156"><ele>131.0</ele><time>2026-05-04T11:58:50.408Z</time></trkpt><trkpt lat="41.2777917" lon="14.191485"><ele>131.16666666666666</ele><time>2026-05-04T11:58:52.406Z</time></trkpt><trkpt lat="41.27777" lon="14.1913833"><ele>131.33333333333331</ele><time>2026-05-04T11:58:55.407Z</time></trkpt><trkpt lat="41.2777" lon="14.1913617"><ele>131.5</ele><time>2026-05-04T11:59:42.405Z</time></trkpt><trkpt lat="41.277605" lon="14.191355"><ele>131.66666666666666</ele><time>2026-05-04T11:59:45.404Z</time></trkpt><trkpt lat="41.2775317" lon="14.1913167"><ele>131.83333333333334</ele><time>2026-05-04T11:59:47.404Z</time></trkpt><trkpt lat="41.2774583" lon="14.191255"><ele>132.0</ele><time>2026-05-04T11:59:49.405Z</time></trkpt><trkpt lat="41.2773783" lon="14.1911817"><ele>132.0</ele><time>2026-05-04T11:59:51.404Z</time></trkpt><trkpt lat="41.2773017" lon="14.1911017"><ele>132.0</ele><time>2026-05-04T11:59:53.404Z</time></trkpt><trkpt lat="41.27722" lon="14.191025"><ele>132.0</ele><time>2026-05-04T11:59:55.405Z</time></trkpt><trkpt lat="41.277135" lon="14.19095"><ele>132.0</ele><time>2026-05-04T11:59:57.405Z</time></trkpt><trkpt lat="41.2770533" lon="14.1908733"><ele>132.0</ele><time>2026-05-04T11:59:59.404Z</time></trkpt><trkpt lat="41.276965" lon="14.1908"><ele>132.25</ele><time>2026-05-04T12:00:01.402Z</time></trkpt><trkpt lat="41.2768733" lon="14.1907283"><ele>132.5</ele><time>2026-05-04T12:00:03.403Z</time></trkpt><trkpt lat="41.2767733" lon="14.190655"><ele>132.75</ele><time>2026-05-04T12:00:05.405Z</time></trkpt><trkpt lat="41.2766667" lon="14.19058"><ele>133.0</ele><time>2026-05-04T12:00:07.405Z</time></trkpt><trkpt lat="41.27656" lon="14.1904967"><ele>133.0</ele><time>2026-05-04T12:00:09.404Z</time></trkpt><trkpt lat="41.276455" lon="14.1904133"><ele>133.0</ele><time>2026-05-04T12:00:11.402Z</time></trkpt><trkpt lat="41.2763567" lon="14.190335"><ele>133.0</ele><time>2026-05-04T12:00:13.404Z</time></trkpt><trkpt lat="41.2762533" lon="14.1902533"><ele>133.0</ele><time>2026-05-04T12:00:15.402Z</time></trkpt><trkpt lat="41.2761483" lon="14.1901783"><ele>133.0</ele><time>2026-05-04T12:00:17.403Z</time></trkpt><trkpt lat="41.27604" lon="14.190115"><ele>133.0</ele><time>2026-05-04T12:00:19.405Z</time></trkpt><trkpt lat="41.27593" lon="14.1900533"><ele>133.0</ele><time>2026-05-04T12:00:21.404Z</time></trkpt><trkpt lat="41.2758183" lon="14.18999"><ele>133.0</ele><time>2026-05-04T12:00:23.404Z</time></trkpt><trkpt lat="41.27576" lon="14.1899567"><ele>133.0</ele><time>2026-05-04T12:00:24.405Z</time></trkpt><trkpt lat="41.2757017" lon="14.1899217"><ele>133.0</ele><time>2026-05-04T12:00:25.405Z</time></trkpt><trkpt lat="41.2756417" lon="14.18989"><ele>133.0</ele><time>2026-05-04T12:00:26.404Z</time></trkpt><trkpt lat="41.2755833" lon="14.1898567"><ele>133.0</ele><time>2026-05-04T12:00:27.404Z</time></trkpt><trkpt lat="41.2755233" lon="14.1898217"><ele>133.0</ele><time>2026-05-04T12:00:28.405Z</time></trkpt><trkpt lat="41.2754633" lon="14.189785"><ele>133.0</ele><time>2026-05-04T12:00:29.403Z</time></trkpt><trkpt lat="41.2754033" lon="14.1897517"><ele>133.0</ele><time>2026-05-04T12:00:30.404Z</time></trkpt><trkpt lat="41.2753433" lon="14.1897167"><ele>133.0</ele><time>2026-05-04T12:00:31.403Z</time></trkpt><trkpt lat="41.2752817" lon="14.1896833"><ele>133.0</ele><time>2026-05-04T12:00:32.402Z</time></trkpt><trkpt lat="41.2752217" lon="14.1896483"><ele>133.0</ele><time>2026-05-04T12:00:33.403Z</time></trkpt><trkpt lat="41.2751633" lon="14.1896117"><ele>133.0</ele><time>2026-05-04T12:00:34.404Z</time></trkpt><trkpt lat="41.275105" lon="14.18958"><ele>133.0</ele><time>2026-05-04T12:00:35.405Z</time></trkpt><trkpt lat="41.275045" lon="14.1895433"><ele>133.0</ele><time>2026-05-04T12:00:36.403Z</time></trkpt><trkpt lat="41.2749867" lon="14.1895033"><ele>133.0</ele><time>2026-05-04T12:00:37.402Z</time></trkpt><trkpt lat="41.274925" lon="14.1894683"><ele>133.0</ele><time>2026-05-04T12:00:38.403Z</time></trkpt><trkpt lat="41.2748667" lon="14.1894317"><ele>133.0</ele><time>2026-05-04T12:00:39.405Z</time></trkpt><trkpt lat="41.274805" lon="14.189395"><ele>133.0</ele><time>2026-05-04T12:00:40.407Z</time></trkpt><trkpt lat="41.27474" lon="14.1893617"><ele>133.0</ele><time>2026-05-04T12:00:41.406Z</time></trkpt><trkpt lat="41.2746783" lon="14.18933"><ele>133.0</ele><time>2026-05-04T12:00:42.404Z</time></trkpt><trkpt lat="41.274615" lon="14.1892883"><ele>133.0</ele><time>2026-05-04T12:00:43.406Z</time></trkpt><trkpt lat="41.27455" lon="14.18925"><ele>133.0</ele><time>2026-05-04T12:00:44.406Z</time></trkpt><trkpt lat="41.2744867" lon="14.1892117"><ele>133.0</ele><time>2026-05-04T12:00:45.403Z</time></trkpt><trkpt lat="41.274425" lon="14.1891767"><ele>133.0</ele><time>2026-05-04T12:00:46.403Z</time></trkpt><trkpt lat="41.274365" lon="14.18914"><ele>133.0</ele><time>2026-05-04T12:00:47.406Z</time></trkpt><trkpt lat="41.2743067" lon="14.189105"><ele>133.0</ele><time>2026-05-04T12:00:48.403Z</time></trkpt><trkpt lat="41.274195" lon="14.1890517"><ele>133.0</ele><time>2026-05-04T12:00:50.404Z</time></trkpt><trkpt lat="41.27409" lon="14.1889867"><ele>133.0</ele><time>2026-05-04T12:00:52.402Z</time></trkpt><trkpt lat="41.2739967" lon="14.1889233"><ele>132.8</ele><time>2026-05-04T12:00:54.405Z</time></trkpt><trkpt lat="41.27391" lon="14.18886"><ele>132.60000000000002</ele><time>2026-05-04T12:00:56.407Z</time></trkpt><trkpt lat="41.273825" lon="14.1887933"><ele>132.39999999999998</ele><time>2026-05-04T12:00:58.404Z</time></trkpt><trkpt lat="41.273745" lon="14.18871"><ele>132.2</ele><time>2026-05-04T12:01:00.404Z</time></trkpt><trkpt lat="41.27369" lon="14.1886317"><ele>132.0</ele><time>2026-05-04T12:01:02.404Z</time></trkpt><trkpt lat="41.2736367" lon="14.188555"><ele>132.0</ele><time>2026-05-04T12:01:04.404Z</time></trkpt><trkpt lat="41.2735817" lon="14.1884583"><ele>132.0</ele><time>2026-05-04T12:01:06.403Z</time></trkpt><trkpt lat="41.2735217" lon="14.1883467"><ele>132.0</ele><time>2026-05-04T12:01:08.404Z</time></trkpt><trkpt lat="41.2734467" lon="14.1882283"><ele>132.0</ele><time>2026-05-04T12:01:10.405Z</time></trkpt><trkpt lat="41.27336" lon="14.1881133"><ele>132.0</ele><time>2026-05-04T12:01:12.403Z</time></trkpt><trkpt lat="41.2733083" lon="14.188055"><ele>131.85714285714286</ele><time>2026-05-04T12:01:13.407Z</time></trkpt><trkpt lat="41.27326" lon="14.1879967"><ele>131.71428571428572</ele><time>2026-05-04T12:01:14.405Z</time></trkpt><trkpt lat="41.2732083" lon="14.1879383"><ele>131.57142857142858</ele><time>2026-05-04T12:01:15.407Z</time></trkpt><trkpt lat="41.2731583" lon="14.1878817"><ele>131.42857142857144</ele><time>2026-05-04T12:01:16.405Z</time></trkpt><trkpt lat="41.27311" lon="14.1878217"><ele>131.2857142857143</ele><time>2026-05-04T12:01:17.402Z</time></trkpt><trkpt lat="41.2730633" lon="14.18776"><ele>131.14285714285714</ele><time>2026-05-04T12:01:18.405Z</time></trkpt><trkpt lat="41.2730183" lon="14.1877"><ele>131.0</ele><time>2026-05-04T12:01:19.406Z</time></trkpt><trkpt lat="41.2729717" lon="14.1876433"><ele>131.42857142857144</ele><time>2026-05-04T12:01:20.404Z</time></trkpt><trkpt lat="41.272925" lon="14.1875833"><ele>131.85714285714286</ele><time>2026-05-04T12:01:21.404Z</time></trkpt><trkpt lat="41.2728783" lon="14.1875217"><ele>132.28571428571428</ele><time>2026-05-04T12:01:22.403Z</time></trkpt><trkpt lat="41.2728317" lon="14.187465"><ele>132.71428571428572</ele><time>2026-05-04T12:01:23.405Z</time></trkpt><trkpt lat="41.272785" lon="14.1874033"><ele>133.14285714285714</ele><time>2026-05-04T12:01:24.402Z</time></trkpt><trkpt lat="41.27274" lon="14.1873433"><ele>133.57142857142858</ele><time>2026-05-04T12:01:25.406Z</time></trkpt><trkpt lat="41.2726933" lon="14.1872867"><ele>134.0</ele><time>2026-05-04T12:01:26.403Z</time></trkpt><trkpt lat="41.2726017" lon="14.1871733"><ele>134.0</ele><time>2026-05-04T12:01:28.405Z</time></trkpt><trkpt lat="41.2725633" lon="14.1871067"><ele>134.0</ele><time>2026-05-04T12:01:29.405Z</time></trkpt><trkpt lat="41.2724733" lon="14.1870017"><ele>134.0</ele><time>2026-05-04T12:01:31.405Z</time></trkpt><trkpt lat="41.2723717" lon="14.18693"><ele>134.0</ele><time>2026-05-04T12:01:33.403Z</time></trkpt><trkpt lat="41.2722683" lon="14.1868683"><ele>134.0</ele><time>2026-05-04T12:01:35.404Z</time></trkpt><trkpt lat="41.27216" lon="14.1868217"><ele>135.0</ele><time>2026-05-04T12:01:37.406Z</time></trkpt><trkpt lat="41.2720467" lon="14.1867767"><ele>136.0</ele><time>2026-05-04T12:01:39.404Z</time></trkpt><trkpt lat="41.2719367" lon="14.1867267"><ele>137.0</ele><time>2026-05-04T12:01:41.405Z</time></trkpt><trkpt lat="41.2718333" lon="14.1866783"><ele>138.0</ele><time>2026-05-04T12:01:43.405Z</time></trkpt><trkpt lat="41.27173" lon="14.1866483"><ele>138.0</ele><time>2026-05-04T12:01:45.405Z</time></trkpt><trkpt lat="41.271625" lon="14.186615"><ele>138.0</ele><time>2026-05-04T12:01:47.404Z</time></trkpt><trkpt lat="41.2715317" lon="14.1866017"><ele>138.0</ele><time>2026-05-04T12:01:49.404Z</time></trkpt><trkpt lat="41.27144" lon="14.1865917"><ele>138.0</ele><time>2026-05-04T12:01:51.403Z</time></trkpt><trkpt lat="41.27137" lon="14.1865783"><ele>138.0</ele><time>2026-05-04T12:01:53.405Z</time></trkpt><trkpt lat="41.27129" lon="14.1865417"><ele>138.0</ele><time>2026-05-04T12:01:56.405Z</time></trkpt><trkpt lat="41.271235" lon="14.1865833"><ele>137.85714285714286</ele><time>2026-05-04T12:02:03.403Z</time></trkpt><trkpt lat="41.2711967" lon="14.18665"><ele>137.71428571428572</ele><time>2026-05-04T12:02:40.403Z</time></trkpt><trkpt lat="41.27123" lon="14.1867267"><ele>137.57142857142858</ele><time>2026-05-04T12:02:51.403Z</time></trkpt><trkpt lat="41.2711867" lon="14.1867917"><ele>137.42857142857144</ele><time>2026-05-04T12:02:56.404Z</time></trkpt><trkpt lat="41.2711017" lon="14.1868167"><ele>137.28571428571428</ele><time>2026-05-04T12:03:00.403Z</time></trkpt><trkpt lat="41.2710533" lon="14.1867417"><ele>137.14285714285717</ele><time>2026-05-04T12:03:47.405Z</time></trkpt><trkpt lat="41.271055" lon="14.1866517"><ele>137.0</ele><time>2026-05-04T12:03:50.404Z</time></trkpt><trkpt lat="41.2710133" lon="14.1867483"><ele>137.0</ele><time>2026-05-04T12:04:25.404Z</time></trkpt><trkpt lat="41.2710767" lon="14.1867733"><ele>137.0</ele><time>2026-05-04T12:05:11.404Z</time></trkpt><trkpt lat="41.2710633" lon="14.1868683"><ele>137.0</ele><time>2026-05-04T12:05:18.404Z</time></trkpt><trkpt lat="41.2710817" lon="14.1867467"><ele>137.0</ele><time>2026-05-04T12:06:38.404Z</time></trkpt><trkpt lat="41.271135" lon="14.186655"><ele>137.0</ele><time>2026-05-04T12:06:41.406Z</time></trkpt><trkpt lat="41.2711383" lon="14.18657"><ele>137.0</ele><time>2026-05-04T12:06:44.403Z</time></trkpt><trkpt lat="41.2711817" lon="14.1865"><ele>136.66666666666666</ele><time>2026-05-04T12:06:47.403Z</time></trkpt><trkpt lat="41.2712217" lon="14.1864283"><ele>136.33333333333331</ele><time>2026-05-04T12:06:50.406Z</time></trkpt><trkpt lat="41.271255" lon="14.1863167"><ele>136.0</ele><time>2026-05-04T12:06:53.403Z</time></trkpt><trkpt lat="41.271275" lon="14.1862117"><ele>135.66666666666666</ele><time>2026-05-04T12:06:55.405Z</time></trkpt><trkpt lat="41.2712967" lon="14.186085"><ele>135.33333333333334</ele><time>2026-05-04T12:06:57.406Z</time></trkpt><trkpt lat="41.27132" lon="14.1859533"><ele>135.0</ele><time>2026-05-04T12:06:59.405Z</time></trkpt><trkpt lat="41.27135" lon="14.1858133"><ele>135.0</ele><time>2026-05-04T12:07:01.406Z</time></trkpt><trkpt lat="41.271395" lon="14.185695"><ele>135.0</ele><time>2026-05-04T12:07:03.403Z</time></trkpt><trkpt lat="41.271505" lon="14.1856317"><ele>135.0</ele><time>2026-05-04T12:10:51.405Z</time></trkpt><trkpt lat="41.2715183" lon="14.185535"><ele>135.0</ele><time>2026-05-04T12:16:10.402Z</time></trkpt><trkpt lat="41.2715417" lon="14.1854067"><ele>135.0</ele><time>2026-05-04T12:16:13.403Z</time></trkpt><trkpt lat="41.2715733" lon="14.1853067"><ele>134.8</ele><time>2026-05-04T12:16:15.401Z</time></trkpt><trkpt lat="41.2715983" lon="14.1851967"><ele>134.6</ele><time>2026-05-04T12:16:17.402Z</time></trkpt><trkpt lat="41.2716317" lon="14.1850867"><ele>134.4</ele><time>2026-05-04T12:16:19.403Z</time></trkpt><trkpt lat="41.2716667" lon="14.18497"><ele>134.2</ele><time>2026-05-04T12:16:21.402Z</time></trkpt><trkpt lat="41.2717183" lon="14.184855"><ele>134.0</ele><time>2026-05-04T12:16:23.403Z</time></trkpt><trkpt lat="41.271765" lon="14.1847283"><ele>133.8</ele><time>2026-05-04T12:16:25.403Z</time></trkpt><trkpt lat="41.2718083" lon="14.18459"><ele>133.60000000000002</ele><time>2026-05-04T12:16:27.402Z</time></trkpt><trkpt lat="41.2718233" lon="14.1845067"><ele>133.4</ele><time>2026-05-04T12:16:28.402Z</time></trkpt><trkpt lat="41.27184" lon="14.1844217"><ele>133.20000000000002</ele><time>2026-05-04T12:16:29.402Z</time></trkpt><trkpt lat="41.2718733" lon="14.1842717"><ele>133.0</ele><time>2026-05-04T12:16:31.403Z</time></trkpt><trkpt lat="41.27192" lon="14.1841"><ele>132.85714285714286</ele><time>2026-05-04T12:16:33.402Z</time></trkpt><trkpt lat="41.2719383" lon="14.1840033"><ele>132.71428571428572</ele><time>2026-05-04T12:16:34.402Z</time></trkpt><trkpt lat="41.2719633" lon="14.183915"><ele>132.57142857142856</ele><time>2026-05-04T12:16:35.403Z</time></trkpt><trkpt lat="41.27199" lon="14.1838267"><ele>132.42857142857144</ele><time>2026-05-04T12:16:36.402Z</time></trkpt><trkpt lat="41.27201" lon="14.1837267"><ele>132.28571428571428</ele><time>2026-05-04T12:16:37.402Z</time></trkpt><trkpt lat="41.2720283" lon="14.1836383"><ele>132.14285714285714</ele><time>2026-05-04T12:16:38.401Z</time></trkpt><trkpt lat="41.27204" lon="14.1835533"><ele>132.0</ele><time>2026-05-04T12:16:39.403Z</time></trkpt><trkpt lat="41.2720617" lon="14.1834567"><ele>132.0</ele><time>2026-05-04T12:16:40.403Z</time></trkpt><trkpt lat="41.2720917" lon="14.1832983"><ele>132.0</ele><time>2026-05-04T12:16:42.402Z</time></trkpt><trkpt lat="41.2721067" lon="14.18321"><ele>132.0</ele><time>2026-05-04T12:16:43.403Z</time></trkpt><trkpt lat="41.2721567" lon="14.1830583"><ele>132.0</ele><time>2026-05-04T12:16:45.403Z</time></trkpt><trkpt lat="41.2721983" lon="14.182905"><ele>132.0</ele><time>2026-05-04T12:16:47.403Z</time></trkpt><trkpt lat="41.2722167" lon="14.1828233"><ele>131.75</ele><time>2026-05-04T12:16:48.403Z</time></trkpt><trkpt lat="41.27226" lon="14.1826717"><ele>131.5</ele><time>2026-05-04T12:16:50.401Z</time></trkpt><trkpt lat="41.2722967" lon="14.182515"><ele>131.25</ele><time>2026-05-04T12:16:52.403Z</time></trkpt><trkpt lat="41.2723417" lon="14.1823617"><ele>131.0</ele><time>2026-05-04T12:16:54.402Z</time></trkpt><trkpt lat="41.2723833" lon="14.1822083"><ele>130.66666666666666</ele><time>2026-05-04T12:16:56.401Z</time></trkpt><trkpt lat="41.2724217" lon="14.182055"><ele>130.33333333333331</ele><time>2026-05-04T12:16:58.402Z</time></trkpt><trkpt lat="41.2724633" lon="14.1819"><ele>130.0</ele><time>2026-05-04T12:17:00.402Z</time></trkpt><trkpt lat="41.2724833" lon="14.18182"><ele>129.66666666666666</ele><time>2026-05-04T12:17:01.403Z</time></trkpt><trkpt lat="41.2725017" lon="14.1817367"><ele>129.33333333333334</ele><time>2026-05-04T12:17:02.402Z</time></trkpt><trkpt lat="41.27252" lon="14.181655"><ele>129.0</ele><time>2026-05-04T12:17:03.403Z</time></trkpt><trkpt lat="41.2725383" lon="14.1815717"><ele>128.7142857142857</ele><time>2026-05-04T12:17:04.403Z</time></trkpt><trkpt lat="41.27256" lon="14.18149"><ele>128.42857142857142</ele><time>2026-05-04T12:17:05.403Z</time></trkpt><trkpt lat="41.2725817" lon="14.18141"><ele>128.14285714285714</ele><time>2026-05-04T12:17:06.401Z</time></trkpt><trkpt lat="41.2726" lon="14.1813267"><ele>127.85714285714285</ele><time>2026-05-04T12:17:07.403Z</time></trkpt><trkpt lat="41.2726183" lon="14.181245"><ele>127.57142857142856</ele><time>2026-05-04T12:17:08.403Z</time></trkpt><trkpt lat="41.27264" lon="14.1811617"><ele>127.28571428571429</ele><time>2026-05-04T12:17:09.402Z</time></trkpt><trkpt lat="41.2726633" lon="14.1810817"><ele>127.0</ele><time>2026-05-04T12:17:10.404Z</time></trkpt><trkpt lat="41.27272" lon="14.180925"><ele>127.00000000000001</ele><time>2026-05-04T12:17:12.403Z</time></trkpt><trkpt lat="41.272745" lon="14.180835"><ele>127.0</ele><time>2026-05-04T12:17:13.406Z</time></trkpt><trkpt lat="41.2727583" lon="14.180735"><ele>127.0</ele><time>2026-05-04T12:17:14.402Z</time></trkpt><trkpt lat="41.2727767" lon="14.1806333"><ele>127.0</ele><time>2026-05-04T12:17:15.402Z</time></trkpt><trkpt lat="41.2727917" lon="14.18053"><ele>127.00000000000001</ele><time>2026-05-04T12:17:16.403Z</time></trkpt><trkpt lat="41.2728167" lon="14.1804317"><ele>127.0</ele><time>2026-05-04T12:17:17.403Z</time></trkpt><trkpt lat="41.272845" lon="14.180335"><ele>127.00000000000001</ele><time>2026-05-04T12:17:18.402Z</time></trkpt><trkpt lat="41.2728683" lon="14.1802333"><ele>127.0</ele><time>2026-05-04T12:17:19.402Z</time></trkpt><trkpt lat="41.2728967" lon="14.1801283"><ele>127.0</ele><time>2026-05-04T12:17:20.403Z</time></trkpt><trkpt lat="41.2729283" lon="14.1800233"><ele>127.0</ele><time>2026-05-04T12:17:21.402Z</time></trkpt><trkpt lat="41.2729567" lon="14.179915"><ele>127.00000000000001</ele><time>2026-05-04T12:17:22.403Z</time></trkpt><trkpt lat="41.2729817" lon="14.1798083"><ele>127.0</ele><time>2026-05-04T12:17:23.401Z</time></trkpt><trkpt lat="41.2730033" lon="14.1797017"><ele>127.00000000000001</ele><time>2026-05-04T12:17:24.402Z</time></trkpt><trkpt lat="41.27303" lon="14.1795983"><ele>127.0</ele><time>2026-05-04T12:17:25.403Z</time></trkpt><trkpt lat="41.2730533" lon="14.179495"><ele>127.0</ele><time>2026-05-04T12:17:26.403Z</time></trkpt><trkpt lat="41.273075" lon="14.1793933"><ele>127.0</ele><time>2026-05-04T12:17:27.403Z</time></trkpt><trkpt lat="41.2731017" lon="14.1792933"><ele>127.00000000000001</ele><time>2026-05-04T12:17:28.403Z</time></trkpt><trkpt lat="41.27313" lon="14.1791917"><ele>127.0</ele><time>2026-05-04T12:17:29.403Z</time></trkpt><trkpt lat="41.273155" lon="14.1790967"><ele>126.66666666666667</ele><time>2026-05-04T12:17:30.403Z</time></trkpt><trkpt lat="41.2731783" lon="14.179"><ele>126.33333333333334</ele><time>2026-05-04T12:17:31.402Z</time></trkpt><trkpt lat="41.2732017" lon="14.17891"><ele>126.0</ele><time>2026-05-04T12:17:32.403Z</time></trkpt><trkpt lat="41.2732267" lon="14.178815"><ele>125.66666666666666</ele><time>2026-05-04T12:17:33.403Z</time></trkpt><trkpt lat="41.2732467" lon="14.17872"><ele>125.33333333333333</ele><time>2026-05-04T12:17:34.402Z</time></trkpt><trkpt lat="41.273275" lon="14.1786217"><ele>125.0</ele><time>2026-05-04T12:17:35.404Z</time></trkpt><trkpt lat="41.2733067" lon="14.17853"><ele>125.0</ele><time>2026-05-04T12:17:36.403Z</time></trkpt><trkpt lat="41.2733367" lon="14.1784383"><ele>125.0</ele><time>2026-05-04T12:17:37.402Z</time></trkpt><trkpt lat="41.2733617" lon="14.1783433"><ele>125.0</ele><time>2026-05-04T12:17:38.403Z</time></trkpt><trkpt lat="41.273385" lon="14.1782467"><ele>125.0</ele><time>2026-05-04T12:17:39.403Z</time></trkpt><trkpt lat="41.2734067" lon="14.1781567"><ele>125.0</ele><time>2026-05-04T12:17:40.401Z</time></trkpt><trkpt lat="41.2734267" lon="14.1780633"><ele>125.0</ele><time>2026-05-04T12:17:41.402Z</time></trkpt><trkpt lat="41.27345" lon="14.1779733"><ele>125.0</ele><time>2026-05-04T12:17:42.403Z</time></trkpt><trkpt lat="41.27347" lon="14.177885"><ele>124.85714285714286</ele><time>2026-05-04T12:17:43.402Z</time></trkpt><trkpt lat="41.2734883" lon="14.1777967"><ele>124.71428571428572</ele><time>2026-05-04T12:17:44.403Z</time></trkpt><trkpt lat="41.2735067" lon="14.1777067"><ele>124.57142857142858</ele><time>2026-05-04T12:17:45.403Z</time></trkpt><trkpt lat="41.2735283" lon="14.17762"><ele>124.42857142857143</ele><time>2026-05-04T12:17:46.403Z</time></trkpt><trkpt lat="41.2735517" lon="14.1775367"><ele>124.2857142857143</ele><time>2026-05-04T12:17:47.402Z</time></trkpt><trkpt lat="41.2735733" lon="14.1774533"><ele>124.14285714285715</ele><time>2026-05-04T12:17:48.402Z</time></trkpt><trkpt lat="41.273595" lon="14.1773683"><ele>124.0</ele><time>2026-05-04T12:17:49.403Z</time></trkpt><trkpt lat="41.273615" lon="14.17728"><ele>124.00000000000001</ele><time>2026-05-04T12:17:50.403Z</time></trkpt><trkpt lat="41.2736367" lon="14.1771917"><ele>124.0</ele><time>2026-05-04T12:17:51.403Z</time></trkpt><trkpt lat="41.27366" lon="14.1771067"><ele>124.0</ele><time>2026-05-04T12:17:52.402Z</time></trkpt><trkpt lat="41.2736817" lon="14.1770217"><ele>124.0</ele><time>2026-05-04T12:17:53.403Z</time></trkpt><trkpt lat="41.2737033" lon="14.1769367"><ele>124.00000000000001</ele><time>2026-05-04T12:17:54.403Z</time></trkpt><trkpt lat="41.2737283" lon="14.176855"><ele>124.0</ele><time>2026-05-04T12:17:55.403Z</time></trkpt><trkpt lat="41.2737717" lon="14.1766983"><ele>124.0</ele><time>2026-05-04T12:17:57.401Z</time></trkpt><trkpt lat="41.273795" lon="14.17662"><ele>124.0</ele><time>2026-05-04T12:17:58.403Z</time></trkpt><trkpt lat="41.2738183" lon="14.17654"><ele>124.0</ele><time>2026-05-04T12:17:59.403Z</time></trkpt><trkpt lat="41.273865" lon="14.1763883"><ele>124.0</ele><time>2026-05-04T12:18:01.403Z</time></trkpt><trkpt lat="41.273905" lon="14.17623"><ele>124.0</ele><time>2026-05-04T12:18:03.402Z</time></trkpt><trkpt lat="41.2739483" lon="14.1760817"><ele>124.5</ele><time>2026-05-04T12:18:05.403Z</time></trkpt><trkpt lat="41.273985" lon="14.17593"><ele>125.0</ele><time>2026-05-04T12:18:07.403Z</time></trkpt><trkpt lat="41.2740267" lon="14.1757717"><ele>125.5</ele><time>2026-05-04T12:18:09.402Z</time></trkpt><trkpt lat="41.2740683" lon="14.1756167"><ele>126.0</ele><time>2026-05-04T12:18:11.403Z</time></trkpt><trkpt lat="41.2741117" lon="14.17547"><ele>126.6</ele><time>2026-05-04T12:18:13.403Z</time></trkpt><trkpt lat="41.2741583" lon="14.1753267"><ele>127.19999999999999</ele><time>2026-05-04T12:18:15.402Z</time></trkpt><trkpt lat="41.274195" lon="14.1751883"><ele>127.80000000000001</ele><time>2026-05-04T12:18:17.403Z</time></trkpt><trkpt lat="41.274235" lon="14.1750567"><ele>128.4</ele><time>2026-05-04T12:18:19.404Z</time></trkpt><trkpt lat="41.2742717" lon="14.17493"><ele>129.0</ele><time>2026-05-04T12:18:21.403Z</time></trkpt><trkpt lat="41.2742933" lon="14.1748017"><ele>129.5</ele><time>2026-05-04T12:18:23.404Z</time></trkpt><trkpt lat="41.2742983" lon="14.1746733"><ele>130.0</ele><time>2026-05-04T12:18:25.403Z</time></trkpt><trkpt lat="41.27428" lon="14.1745433"><ele>130.5</ele><time>2026-05-04T12:18:27.403Z</time></trkpt><trkpt lat="41.2742517" lon="14.17443"><ele>131.0</ele><time>2026-05-04T12:18:29.403Z</time></trkpt><trkpt lat="41.2742167" lon="14.1743417"><ele>131.5</ele><time>2026-05-04T12:18:31.403Z</time></trkpt><trkpt lat="41.2741767" lon="14.1742733"><ele>132.0</ele><time>2026-05-04T12:18:33.402Z</time></trkpt><trkpt lat="41.2741167" lon="14.1741883"><ele>132.0</ele><time>2026-05-04T12:18:35.403Z</time></trkpt><trkpt lat="41.2740567" lon="14.1740967"><ele>132.0</ele><time>2026-05-04T12:18:37.402Z</time></trkpt><trkpt lat="41.2739967" lon="14.1740117"><ele>132.0</ele><time>2026-05-04T12:18:39.408Z</time></trkpt><trkpt lat="41.2739333" lon="14.1739233"><ele>132.0</ele><time>2026-05-04T12:18:41.403Z</time></trkpt><trkpt lat="41.27387" lon="14.1738333"><ele>132.0</ele><time>2026-05-04T12:18:43.405Z</time></trkpt><trkpt lat="41.2737983" lon="14.173735"><ele>132.0</ele><time>2026-05-04T12:18:45.403Z</time></trkpt><trkpt lat="41.273725" lon="14.1736267"><ele>132.0</ele><time>2026-05-04T12:18:47.403Z</time></trkpt><trkpt lat="41.27365" lon="14.17352"><ele>132.0</ele><time>2026-05-04T12:18:49.403Z</time></trkpt><trkpt lat="41.2735733" lon="14.173405"><ele>132.0</ele><time>2026-05-04T12:18:51.406Z</time></trkpt><trkpt lat="41.2735017" lon="14.1732933"><ele>132.0</ele><time>2026-05-04T12:18:53.402Z</time></trkpt><trkpt lat="41.2734267" lon="14.17319"><ele>132.2</ele><time>2026-05-04T12:18:55.404Z</time></trkpt><trkpt lat="41.2733517" lon="14.1730767"><ele>132.39999999999998</ele><time>2026-05-04T12:18:57.403Z</time></trkpt><trkpt lat="41.2732833" lon="14.1729617"><ele>132.60000000000002</ele><time>2026-05-04T12:18:59.402Z</time></trkpt><trkpt lat="41.2732167" lon="14.1728567"><ele>132.8</ele><time>2026-05-04T12:19:01.403Z</time></trkpt><trkpt lat="41.273145" lon="14.1727617"><ele>133.0</ele><time>2026-05-04T12:19:03.402Z</time></trkpt><trkpt lat="41.2730833" lon="14.1726683"><ele>133.0</ele><time>2026-05-04T12:19:05.402Z</time></trkpt><trkpt lat="41.2730217" lon="14.17257"><ele>133.0</ele><time>2026-05-04T12:19:07.403Z</time></trkpt><trkpt lat="41.2729567" lon="14.1724783"><ele>133.0</ele><time>2026-05-04T12:19:09.401Z</time></trkpt><trkpt lat="41.2728917" lon="14.1723767"><ele>133.0</ele><time>2026-05-04T12:19:11.402Z</time></trkpt><trkpt lat="41.2728367" lon="14.1722783"><ele>133.0</ele><time>2026-05-04T12:19:13.402Z</time></trkpt><trkpt lat="41.2727783" lon="14.1721967"><ele>133.4</ele><time>2026-05-04T12:19:15.402Z</time></trkpt><trkpt lat="41.272715" lon="14.172105"><ele>133.8</ele><time>2026-05-04T12:19:17.401Z</time></trkpt><trkpt lat="41.2726583" lon="14.1720183"><ele>134.2</ele><time>2026-05-04T12:19:19.402Z</time></trkpt><trkpt lat="41.272595" lon="14.1719267"><ele>134.6</ele><time>2026-05-04T12:19:21.401Z</time></trkpt><trkpt lat="41.2725333" lon="14.1718267"><ele>135.0</ele><time>2026-05-04T12:19:23.401Z</time></trkpt><trkpt lat="41.2724633" lon="14.1717167"><ele>135.0</ele><time>2026-05-04T12:19:25.404Z</time></trkpt><trkpt lat="41.2723883" lon="14.1716"><ele>135.0</ele><time>2026-05-04T12:19:27.405Z</time></trkpt><trkpt lat="41.2723117" lon="14.1714767"><ele>135.0</ele><time>2026-05-04T12:19:29.401Z</time></trkpt><trkpt lat="41.27223" lon="14.17135"><ele>135.0</ele><time>2026-05-04T12:19:31.402Z</time></trkpt><trkpt lat="41.2721883" lon="14.1712867"><ele>135.0</ele><time>2026-05-04T12:19:32.402Z</time></trkpt><trkpt lat="41.2721033" lon="14.1711633"><ele>135.0</ele><time>2026-05-04T12:19:34.402Z</time></trkpt><trkpt lat="41.2720617" lon="14.1710967"><ele>135.0</ele><time>2026-05-04T12:19:35.401Z</time></trkpt><trkpt lat="41.2720183" lon="14.171025"><ele>135.0</ele><time>2026-05-04T12:19:36.402Z</time></trkpt><trkpt lat="41.2719783" lon="14.17096"><ele>135.0</ele><time>2026-05-04T12:19:37.405Z</time></trkpt><trkpt lat="41.2718983" lon="14.1708283"><ele>135.0</ele><time>2026-05-04T12:19:39.401Z</time></trkpt><trkpt lat="41.2718267" lon="14.1707017"><ele>135.0</ele><time>2026-05-04T12:19:41.401Z</time></trkpt><trkpt lat="41.2717533" lon="14.1705817"><ele>135.0</ele><time>2026-05-04T12:19:43.401Z</time></trkpt><trkpt lat="41.27168" lon="14.170455"><ele>135.0</ele><time>2026-05-04T12:19:45.402Z</time></trkpt><trkpt lat="41.27161" lon="14.1703233"><ele>135.0</ele><time>2026-05-04T12:19:47.402Z</time></trkpt><trkpt lat="41.271535" lon="14.1702033"><ele>135.0</ele><time>2026-05-04T12:19:49.403Z</time></trkpt><trkpt lat="41.2714917" lon="14.1701417"><ele>135.0</ele><time>2026-05-04T12:19:50.402Z</time></trkpt><trkpt lat="41.2714217" lon="14.1700267"><ele>135.0</ele><time>2026-05-04T12:19:52.402Z</time></trkpt><trkpt lat="41.27138" lon="14.1699583"><ele>135.0</ele><time>2026-05-04T12:19:53.401Z</time></trkpt><trkpt lat="41.2713" lon="14.1698433"><ele>135.0</ele><time>2026-05-04T12:19:55.402Z</time></trkpt><trkpt lat="41.2712217" lon="14.1697217"><ele>135.0</ele><time>2026-05-04T12:19:57.401Z</time></trkpt><trkpt lat="41.2711417" lon="14.169605"><ele>135.0</ele><time>2026-05-04T12:19:59.403Z</time></trkpt><trkpt lat="41.2710733" lon="14.16948"><ele>135.5</ele><time>2026-05-04T12:20:01.402Z</time></trkpt><trkpt lat="41.2710033" lon="14.169355"><ele>136.0</ele><time>2026-05-04T12:20:03.402Z</time></trkpt><trkpt lat="41.2709267" lon="14.16924"><ele>136.5</ele><time>2026-05-04T12:20:05.402Z</time></trkpt><trkpt lat="41.2708567" lon="14.1691283"><ele>137.0</ele><time>2026-05-04T12:20:07.402Z</time></trkpt><trkpt lat="41.2707817" lon="14.16901"><ele>137.25</ele><time>2026-05-04T12:20:09.402Z</time></trkpt><trkpt lat="41.2707017" lon="14.1688867"><ele>137.5</ele><time>2026-05-04T12:20:11.402Z</time></trkpt><trkpt lat="41.27063" lon="14.1687567"><ele>137.75</ele><time>2026-05-04T12:20:13.402Z</time></trkpt><trkpt lat="41.27055" lon="14.168635"><ele>138.0</ele><time>2026-05-04T12:20:15.402Z</time></trkpt><trkpt lat="41.27047" lon="14.1685183"><ele>138.0</ele><time>2026-05-04T12:20:17.402Z</time></trkpt><trkpt lat="41.2703933" lon="14.1683933"><ele>138.0</ele><time>2026-05-04T12:20:19.401Z</time></trkpt><trkpt lat="41.270325" lon="14.1682717"><ele>138.0</ele><time>2026-05-04T12:20:21.402Z</time></trkpt><trkpt lat="41.2702617" lon="14.1681533"><ele>138.0</ele><time>2026-05-04T12:20:23.403Z</time></trkpt><trkpt lat="41.2701917" lon="14.1680333"><ele>138.5</ele><time>2026-05-04T12:20:25.402Z</time></trkpt><trkpt lat="41.270125" lon="14.16792"><ele>139.0</ele><time>2026-05-04T12:20:27.403Z</time></trkpt><trkpt lat="41.2700517" lon="14.1677983"><ele>139.5</ele><time>2026-05-04T12:20:29.402Z</time></trkpt><trkpt lat="41.2699817" lon="14.1676767"><ele>140.0</ele><time>2026-05-04T12:20:31.401Z</time></trkpt><trkpt lat="41.2699083" lon="14.1675583"><ele>140.0</ele><time>2026-05-04T12:20:33.402Z</time></trkpt><trkpt lat="41.2698417" lon="14.1674433"><ele>140.0</ele><time>2026-05-04T12:20:35.402Z</time></trkpt><trkpt lat="41.2697783" lon="14.1673367"><ele>140.0</ele><time>2026-05-04T12:20:37.402Z</time></trkpt><trkpt lat="41.2697083" lon="14.1672183"><ele>140.0</ele><time>2026-05-04T12:20:39.402Z</time></trkpt><trkpt lat="41.2696417" lon="14.1670983"><ele>140.0</ele><time>2026-05-04T12:20:41.402Z</time></trkpt><trkpt lat="41.2695783" lon="14.166985"><ele>139.8</ele><time>2026-05-04T12:20:43.402Z</time></trkpt><trkpt lat="41.2695117" lon="14.166865"><ele>139.6</ele><time>2026-05-04T12:20:45.401Z</time></trkpt><trkpt lat="41.2694483" lon="14.1667567"><ele>139.4</ele><time>2026-05-04T12:20:47.401Z</time></trkpt><trkpt lat="41.2693867" lon="14.1666433"><ele>139.2</ele><time>2026-05-04T12:20:49.402Z</time></trkpt><trkpt lat="41.26932" lon="14.1665283"><ele>139.0</ele><time>2026-05-04T12:20:51.403Z</time></trkpt><trkpt lat="41.2692433" lon="14.1664167"><ele>139.0</ele><time>2026-05-04T12:20:53.402Z</time></trkpt><trkpt lat="41.26917" lon="14.1663117"><ele>139.0</ele><time>2026-05-04T12:20:55.401Z</time></trkpt><trkpt lat="41.26909" lon="14.1662017"><ele>139.0</ele><time>2026-05-04T12:20:57.401Z</time></trkpt><trkpt lat="41.269045" lon="14.1661417"><ele>139.0</ele><time>2026-05-04T12:20:58.402Z</time></trkpt><trkpt lat="41.2689667" lon="14.1660217"><ele>139.0</ele><time>2026-05-04T12:21:00.402Z</time></trkpt><trkpt lat="41.268885" lon="14.1659"><ele>139.0</ele><time>2026-05-04T12:21:02.401Z</time></trkpt><trkpt lat="41.2688017" lon="14.1657767"><ele>139.0</ele><time>2026-05-04T12:21:04.402Z</time></trkpt><trkpt lat="41.268755" lon="14.1657133"><ele>139.0</ele><time>2026-05-04T12:21:05.402Z</time></trkpt><trkpt lat="41.2687083" lon="14.1656517"><ele>139.0</ele><time>2026-05-04T12:21:06.402Z</time></trkpt><trkpt lat="41.2686617" lon="14.1655917"><ele>139.0</ele><time>2026-05-04T12:21:07.402Z</time></trkpt><trkpt lat="41.268615" lon="14.165525"><ele>139.0</ele><time>2026-05-04T12:21:08.402Z</time></trkpt><trkpt lat="41.2685733" lon="14.1654567"><ele>139.0</ele><time>2026-05-04T12:21:09.402Z</time></trkpt><trkpt lat="41.268535" lon="14.1653883"><ele>139.0</ele><time>2026-05-04T12:21:10.403Z</time></trkpt><trkpt lat="41.2684967" lon="14.16532"><ele>139.0</ele><time>2026-05-04T12:21:11.406Z</time></trkpt><trkpt lat="41.2684533" lon="14.1652467"><ele>139.0</ele><time>2026-05-04T12:21:12.405Z</time></trkpt><trkpt lat="41.268405" lon="14.1651767"><ele>139.0</ele><time>2026-05-04T12:21:13.401Z</time></trkpt><trkpt lat="41.26836" lon="14.1651033"><ele>139.0</ele><time>2026-05-04T12:21:14.401Z</time></trkpt><trkpt lat="41.2683183" lon="14.1650283"><ele>139.0</ele><time>2026-05-04T12:21:15.403Z</time></trkpt><trkpt lat="41.2682783" lon="14.1649517"><ele>139.0</ele><time>2026-05-04T12:21:16.404Z</time></trkpt><trkpt lat="41.2682417" lon="14.1648733"><ele>139.0</ele><time>2026-05-04T12:21:17.401Z</time></trkpt><trkpt lat="41.2682" lon="14.1648017"><ele>139.0</ele><time>2026-05-04T12:21:18.403Z</time></trkpt><trkpt lat="41.26816" lon="14.1647283"><ele>139.0</ele><time>2026-05-04T12:21:19.402Z</time></trkpt><trkpt lat="41.26812" lon="14.1646583"><ele>139.0</ele><time>2026-05-04T12:21:20.402Z</time></trkpt><trkpt lat="41.26808" lon="14.1645867"><ele>139.0</ele><time>2026-05-04T12:21:21.402Z</time></trkpt><trkpt lat="41.26804" lon="14.164515"><ele>139.0</ele><time>2026-05-04T12:21:22.402Z</time></trkpt><trkpt lat="41.267995" lon="14.1644433"><ele>139.0</ele><time>2026-05-04T12:21:23.402Z</time></trkpt><trkpt lat="41.2679483" lon="14.16438"><ele>139.0</ele><time>2026-05-04T12:21:24.401Z</time></trkpt><trkpt lat="41.2679" lon="14.1643133"><ele>139.0</ele><time>2026-05-04T12:21:25.402Z</time></trkpt><trkpt lat="41.267855" lon="14.1642467"><ele>139.0</ele><time>2026-05-04T12:21:26.401Z</time></trkpt><trkpt lat="41.26781" lon="14.16418"><ele>139.0</ele><time>2026-05-04T12:21:27.402Z</time></trkpt><trkpt lat="41.2677667" lon="14.164115"><ele>139.0</ele><time>2026-05-04T12:21:28.405Z</time></trkpt><trkpt lat="41.2677233" lon="14.1640483"><ele>139.0</ele><time>2026-05-04T12:21:29.401Z</time></trkpt><trkpt lat="41.2676783" lon="14.1639817"><ele>139.28571428571428</ele><time>2026-05-04T12:21:30.401Z</time></trkpt><trkpt lat="41.2676333" lon="14.1639183"><ele>139.57142857142858</ele><time>2026-05-04T12:21:31.403Z</time></trkpt><trkpt lat="41.26758" lon="14.1638567"><ele>139.85714285714286</ele><time>2026-05-04T12:21:32.402Z</time></trkpt><trkpt lat="41.2675283" lon="14.163795"><ele>140.14285714285714</ele><time>2026-05-04T12:21:33.401Z</time></trkpt><trkpt lat="41.2674767" lon="14.1637317"><ele>140.42857142857142</ele><time>2026-05-04T12:21:34.402Z</time></trkpt><trkpt lat="41.2674283" lon="14.1636667"><ele>140.71428571428572</ele><time>2026-05-04T12:21:35.402Z</time></trkpt><trkpt lat="41.26738" lon="14.1636017"><ele>141.0</ele><time>2026-05-04T12:21:36.402Z</time></trkpt><trkpt lat="41.267335" lon="14.1635367"><ele>141.0</ele><time>2026-05-04T12:21:37.402Z</time></trkpt><trkpt lat="41.2672883" lon="14.16347"><ele>141.0</ele><time>2026-05-04T12:21:38.402Z</time></trkpt><trkpt lat="41.2672467" lon="14.1634017"><ele>141.0</ele><time>2026-05-04T12:21:39.401Z</time></trkpt><trkpt lat="41.267205" lon="14.1633367"><ele>141.0</ele><time>2026-05-04T12:21:40.403Z</time></trkpt><trkpt lat="41.267165" lon="14.1632667"><ele>141.0</ele><time>2026-05-04T12:21:41.401Z</time></trkpt><trkpt lat="41.26709" lon="14.16314"><ele>141.0</ele><time>2026-05-04T12:21:43.402Z</time></trkpt><trkpt lat="41.2670483" lon="14.1630717"><ele>140.71428571428572</ele><time>2026-05-04T12:21:44.402Z</time></trkpt><trkpt lat="41.267005" lon="14.1630017"><ele>140.42857142857142</ele><time>2026-05-04T12:21:45.402Z</time></trkpt><trkpt lat="41.2669617" lon="14.1629367"><ele>140.14285714285714</ele><time>2026-05-04T12:21:46.402Z</time></trkpt><trkpt lat="41.2669217" lon="14.1628717"><ele>139.85714285714286</ele><time>2026-05-04T12:21:47.403Z</time></trkpt><trkpt lat="41.2668733" lon="14.1628067"><ele>139.57142857142858</ele><time>2026-05-04T12:21:48.402Z</time></trkpt><trkpt lat="41.2668267" lon="14.16274"><ele>139.28571428571428</ele><time>2026-05-04T12:21:49.403Z</time></trkpt><trkpt lat="41.26678" lon="14.1626733"><ele>139.0</ele><time>2026-05-04T12:21:50.403Z</time></trkpt><trkpt lat="41.2667333" lon="14.1626067"><ele>139.0</ele><time>2026-05-04T12:21:51.401Z</time></trkpt><trkpt lat="41.266685" lon="14.1625367"><ele>139.0</ele><time>2026-05-04T12:21:52.402Z</time></trkpt><trkpt lat="41.26664" lon="14.1624667"><ele>139.0</ele><time>2026-05-04T12:21:53.403Z</time></trkpt><trkpt lat="41.266595" lon="14.1623933"><ele>139.0</ele><time>2026-05-04T12:21:54.401Z</time></trkpt><trkpt lat="41.26655" lon="14.162315"><ele>139.0</ele><time>2026-05-04T12:21:55.401Z</time></trkpt><trkpt lat="41.2665117" lon="14.1622333"><ele>139.0</ele><time>2026-05-04T12:21:56.403Z</time></trkpt><trkpt lat="41.266475" lon="14.1621517"><ele>139.0</ele><time>2026-05-04T12:21:57.401Z</time></trkpt><trkpt lat="41.26644" lon="14.1620717"><ele>138.57142857142856</ele><time>2026-05-04T12:21:58.402Z</time></trkpt><trkpt lat="41.2664083" lon="14.1619917"><ele>138.14285714285714</ele><time>2026-05-04T12:21:59.403Z</time></trkpt><trkpt lat="41.2663733" lon="14.1619133"><ele>137.71428571428572</ele><time>2026-05-04T12:22:00.402Z</time></trkpt><trkpt lat="41.2663417" lon="14.1618367"><ele>137.28571428571428</ele><time>2026-05-04T12:22:01.406Z</time></trkpt><trkpt lat="41.2663083" lon="14.1617583"><ele>136.85714285714286</ele><time>2026-05-04T12:22:02.402Z</time></trkpt><trkpt lat="41.2662767" lon="14.16168"><ele>136.42857142857142</ele><time>2026-05-04T12:22:03.402Z</time></trkpt><trkpt lat="41.2662467" lon="14.1615967"><ele>136.0</ele><time>2026-05-04T12:22:04.401Z</time></trkpt><trkpt lat="41.2662167" lon="14.1615167"><ele>135.99999999999997</ele><time>2026-05-04T12:22:05.402Z</time></trkpt><trkpt lat="41.266185" lon="14.1614367"><ele>136.0</ele><time>2026-05-04T12:22:06.401Z</time></trkpt><trkpt lat="41.2661533" lon="14.16136"><ele>136.0</ele><time>2026-05-04T12:22:07.401Z</time></trkpt><trkpt lat="41.26612" lon="14.1612833"><ele>136.0</ele><time>2026-05-04T12:22:08.402Z</time></trkpt><trkpt lat="41.2660917" lon="14.161205"><ele>136.0</ele><time>2026-05-04T12:22:09.403Z</time></trkpt><trkpt lat="41.2660633" lon="14.16112"><ele>135.99999999999997</ele><time>2026-05-04T12:22:10.402Z</time></trkpt><trkpt lat="41.266035" lon="14.1610367"><ele>136.0</ele><time>2026-05-04T12:22:11.402Z</time></trkpt><trkpt lat="41.2660083" lon="14.1609517"><ele>136.0</ele><time>2026-05-04T12:22:12.402Z</time></trkpt><trkpt lat="41.265985" lon="14.160865"><ele>136.0</ele><time>2026-05-04T12:22:13.402Z</time></trkpt><trkpt lat="41.2659633" lon="14.1607733"><ele>136.0</ele><time>2026-05-04T12:22:14.402Z</time></trkpt><trkpt lat="41.2659433" lon="14.1606817"><ele>136.0</ele><time>2026-05-04T12:22:15.402Z</time></trkpt><trkpt lat="41.26592" lon="14.1606017"><ele>136.0</ele><time>2026-05-04T12:22:16.402Z</time></trkpt><trkpt lat="41.265875" lon="14.160445"><ele>136.0</ele><time>2026-05-04T12:22:18.402Z</time></trkpt><trkpt lat="41.26585" lon="14.16036"><ele>135.99999999999997</ele><time>2026-05-04T12:22:19.402Z</time></trkpt><trkpt lat="41.26583" lon="14.16027"><ele>136.0</ele><time>2026-05-04T12:22:20.403Z</time></trkpt><trkpt lat="41.26581" lon="14.1601767"><ele>136.0</ele><time>2026-05-04T12:22:21.405Z</time></trkpt><trkpt lat="41.26579" lon="14.1600783"><ele>136.0</ele><time>2026-05-04T12:22:22.401Z</time></trkpt><trkpt lat="41.26577" lon="14.15998"><ele>136.0</ele><time>2026-05-04T12:22:23.402Z</time></trkpt><trkpt lat="41.2657517" lon="14.1598817"><ele>135.99999999999997</ele><time>2026-05-04T12:22:24.401Z</time></trkpt><trkpt lat="41.2657317" lon="14.159785"><ele>136.0</ele><time>2026-05-04T12:22:25.402Z</time></trkpt><trkpt lat="41.26571" lon="14.15969"><ele>135.99999999999997</ele><time>2026-05-04T12:22:26.402Z</time></trkpt><trkpt lat="41.26569" lon="14.159595"><ele>136.0</ele><time>2026-05-04T12:22:27.402Z</time></trkpt><trkpt lat="41.2656717" lon="14.1595"><ele>136.0</ele><time>2026-05-04T12:22:28.402Z</time></trkpt><trkpt lat="41.265655" lon="14.159405"><ele>136.0</ele><time>2026-05-04T12:22:29.403Z</time></trkpt><trkpt lat="41.265635" lon="14.1593067"><ele>136.0</ele><time>2026-05-04T12:22:30.402Z</time></trkpt><trkpt lat="41.2656167" lon="14.1592117"><ele>135.99999999999997</ele><time>2026-05-04T12:22:31.402Z</time></trkpt><trkpt lat="41.2656" lon="14.15912"><ele>136.0</ele><time>2026-05-04T12:22:32.403Z</time></trkpt><trkpt lat="41.2655817" lon="14.159035"><ele>135.8</ele><time>2026-05-04T12:22:33.402Z</time></trkpt><trkpt lat="41.2655483" lon="14.1588767"><ele>135.6</ele><time>2026-05-04T12:22:35.402Z</time></trkpt><trkpt lat="41.2655283" lon="14.158795"><ele>135.4</ele><time>2026-05-04T12:22:36.403Z</time></trkpt><trkpt lat="41.2654867" lon="14.15865"><ele>135.2</ele><time>2026-05-04T12:22:38.402Z</time></trkpt><trkpt lat="41.26544" lon="14.1585117"><ele>135.0</ele><time>2026-05-04T12:22:40.403Z</time></trkpt><trkpt lat="41.2654" lon="14.1583533"><ele>135.0</ele><time>2026-05-04T12:22:42.403Z</time></trkpt><trkpt lat="41.265375" lon="14.1582717"><ele>135.0</ele><time>2026-05-04T12:22:43.402Z</time></trkpt><trkpt lat="41.26535" lon="14.1581883"><ele>135.0</ele><time>2026-05-04T12:22:44.402Z</time></trkpt><trkpt lat="41.265325" lon="14.1581033"><ele>135.0</ele><time>2026-05-04T12:22:45.402Z</time></trkpt><trkpt lat="41.265305" lon="14.1580167"><ele>135.0</ele><time>2026-05-04T12:22:46.403Z</time></trkpt><trkpt lat="41.265285" lon="14.15793"><ele>135.0</ele><time>2026-05-04T12:22:47.403Z</time></trkpt><trkpt lat="41.2652633" lon="14.1578417"><ele>135.0</ele><time>2026-05-04T12:22:48.402Z</time></trkpt><trkpt lat="41.2652417" lon="14.157755"><ele>135.0</ele><time>2026-05-04T12:22:49.403Z</time></trkpt><trkpt lat="41.2652233" lon="14.15767"><ele>135.0</ele><time>2026-05-04T12:22:50.402Z</time></trkpt><trkpt lat="41.2652083" lon="14.1575817"><ele>135.0</ele><time>2026-05-04T12:22:51.402Z</time></trkpt><trkpt lat="41.265195" lon="14.1574933"><ele>135.0</ele><time>2026-05-04T12:22:52.401Z</time></trkpt><trkpt lat="41.2651833" lon="14.1574017"><ele>135.0</ele><time>2026-05-04T12:22:53.402Z</time></trkpt><trkpt lat="41.2651717" lon="14.1573067"><ele>135.0</ele><time>2026-05-04T12:22:54.401Z</time></trkpt><trkpt lat="41.2651633" lon="14.15721"><ele>135.0</ele><time>2026-05-04T12:22:55.403Z</time></trkpt><trkpt lat="41.2651567" lon="14.1571167"><ele>134.71428571428572</ele><time>2026-05-04T12:22:56.402Z</time></trkpt><trkpt lat="41.2651483" lon="14.157025"><ele>134.42857142857142</ele><time>2026-05-04T12:22:57.402Z</time></trkpt><trkpt lat="41.26514" lon="14.1569333"><ele>134.14285714285714</ele><time>2026-05-04T12:22:58.402Z</time></trkpt><trkpt lat="41.26513" lon="14.1568433"><ele>133.85714285714286</ele><time>2026-05-04T12:22:59.403Z</time></trkpt><trkpt lat="41.26512" lon="14.1567533"><ele>133.57142857142856</ele><time>2026-05-04T12:23:00.402Z</time></trkpt><trkpt lat="41.265115" lon="14.156665"><ele>133.28571428571428</ele><time>2026-05-04T12:23:01.402Z</time></trkpt><trkpt lat="41.2651083" lon="14.1565733"><ele>133.0</ele><time>2026-05-04T12:23:02.403Z</time></trkpt><trkpt lat="41.2651017" lon="14.1564833"><ele>133.0</ele><time>2026-05-04T12:23:03.403Z</time></trkpt><trkpt lat="41.2650933" lon="14.156395"><ele>133.0</ele><time>2026-05-04T12:23:04.403Z</time></trkpt><trkpt lat="41.2650833" lon="14.156305"><ele>133.0</ele><time>2026-05-04T12:23:05.402Z</time></trkpt><trkpt lat="41.265075" lon="14.156215"><ele>133.0</ele><time>2026-05-04T12:23:06.402Z</time></trkpt><trkpt lat="41.265065" lon="14.1561233"><ele>133.0</ele><time>2026-05-04T12:23:07.404Z</time></trkpt><trkpt lat="41.26506" lon="14.1560317"><ele>133.0</ele><time>2026-05-04T12:23:08.402Z</time></trkpt><trkpt lat="41.26505" lon="14.1559367"><ele>133.0</ele><time>2026-05-04T12:23:09.402Z</time></trkpt><trkpt lat="41.26504" lon="14.1558467"><ele>133.0</ele><time>2026-05-04T12:23:10.403Z</time></trkpt><trkpt lat="41.2650283" lon="14.1557567"><ele>133.0</ele><time>2026-05-04T12:23:11.403Z</time></trkpt><trkpt lat="41.2650167" lon="14.155665"><ele>133.0</ele><time>2026-05-04T12:23:12.402Z</time></trkpt><trkpt lat="41.2650083" lon="14.155575"><ele>133.0</ele><time>2026-05-04T12:23:13.403Z</time></trkpt><trkpt lat="41.2650017" lon="14.1554833"><ele>133.0</ele><time>2026-05-04T12:23:14.402Z</time></trkpt><trkpt lat="41.2649917" lon="14.1553917"><ele>133.0</ele><time>2026-05-04T12:23:15.402Z</time></trkpt><trkpt lat="41.26498" lon="14.1552967"><ele>133.0</ele><time>2026-05-04T12:23:16.403Z</time></trkpt><trkpt lat="41.2649717" lon="14.1552033"><ele>133.0</ele><time>2026-05-04T12:23:17.403Z</time></trkpt><trkpt lat="41.264965" lon="14.1551133"><ele>133.0</ele><time>2026-05-04T12:23:18.403Z</time></trkpt><trkpt lat="41.2649583" lon="14.1550217"><ele>133.0</ele><time>2026-05-04T12:23:19.401Z</time></trkpt><trkpt lat="41.26495" lon="14.1549283"><ele>133.0</ele><time>2026-05-04T12:23:20.401Z</time></trkpt><trkpt lat="41.2649383" lon="14.1548367"><ele>133.0</ele><time>2026-05-04T12:23:21.402Z</time></trkpt><trkpt lat="41.26493" lon="14.1547467"><ele>133.0</ele><time>2026-05-04T12:23:22.403Z</time></trkpt><trkpt lat="41.26492" lon="14.154655"><ele>133.0</ele><time>2026-05-04T12:23:23.403Z</time></trkpt><trkpt lat="41.2649033" lon="14.1545667"><ele>133.14285714285714</ele><time>2026-05-04T12:23:24.404Z</time></trkpt><trkpt lat="41.2648867" lon="14.1544783"><ele>133.28571428571428</ele><time>2026-05-04T12:23:25.403Z</time></trkpt><trkpt lat="41.264865" lon="14.1543883"><ele>133.42857142857144</ele><time>2026-05-04T12:23:26.402Z</time></trkpt><trkpt lat="41.26484" lon="14.1542983"><ele>133.57142857142856</ele><time>2026-05-04T12:23:27.403Z</time></trkpt><trkpt lat="41.26481" lon="14.1542083"><ele>133.71428571428572</ele><time>2026-05-04T12:23:28.402Z</time></trkpt><trkpt lat="41.2647733" lon="14.1541267"><ele>133.85714285714286</ele><time>2026-05-04T12:23:29.403Z</time></trkpt><trkpt lat="41.2647333" lon="14.154045"><ele>134.0</ele><time>2026-05-04T12:23:30.405Z</time></trkpt><trkpt lat="41.2646967" lon="14.153965"><ele>134.57142857142858</ele><time>2026-05-04T12:23:31.406Z</time></trkpt><trkpt lat="41.2646533" lon="14.15389"><ele>135.14285714285714</ele><time>2026-05-04T12:23:32.402Z</time></trkpt><trkpt lat="41.2646083" lon="14.1538167"><ele>135.71428571428572</ele><time>2026-05-04T12:23:33.402Z</time></trkpt><trkpt lat="41.264565" lon="14.1537483"><ele>136.28571428571428</ele><time>2026-05-04T12:23:34.402Z</time></trkpt><trkpt lat="41.2645233" lon="14.153685"><ele>136.85714285714286</ele><time>2026-05-04T12:23:35.401Z</time></trkpt><trkpt lat="41.2644783" lon="14.15362"><ele>137.42857142857144</ele><time>2026-05-04T12:23:36.402Z</time></trkpt><trkpt lat="41.2644317" lon="14.1535583"><ele>138.0</ele><time>2026-05-04T12:23:37.403Z</time></trkpt><trkpt lat="41.264385" lon="14.153495"><ele>138.0</ele><time>2026-05-04T12:23:38.402Z</time></trkpt><trkpt lat="41.2643367" lon="14.1534283"><ele>138.0</ele><time>2026-05-04T12:23:39.403Z</time></trkpt><trkpt lat="41.2642867" lon="14.1533667"><ele>138.0</ele><time>2026-05-04T12:23:40.403Z</time></trkpt><trkpt lat="41.26424" lon="14.1533"><ele>138.0</ele><time>2026-05-04T12:23:41.404Z</time></trkpt><trkpt lat="41.2641983" lon="14.15323"><ele>138.0</ele><time>2026-05-04T12:23:42.401Z</time></trkpt><trkpt lat="41.2641533" lon="14.1531617"><ele>138.0</ele><time>2026-05-04T12:23:43.403Z</time></trkpt><trkpt lat="41.26411" lon="14.1530933"><ele>138.0</ele><time>2026-05-04T12:23:44.402Z</time></trkpt><trkpt lat="41.26407" lon="14.1530233"><ele>137.5</ele><time>2026-05-04T12:23:45.404Z</time></trkpt><trkpt lat="41.2640283" lon="14.152955"><ele>137.0</ele><time>2026-05-04T12:23:46.402Z</time></trkpt><trkpt lat="41.2639867" lon="14.152885"><ele>136.5</ele><time>2026-05-04T12:23:47.403Z</time></trkpt><trkpt lat="41.263945" lon="14.1528167"><ele>136.0</ele><time>2026-05-04T12:23:48.403Z</time></trkpt><trkpt lat="41.2639017" lon="14.1527467"><ele>135.5</ele><time>2026-05-04T12:23:49.402Z</time></trkpt><trkpt lat="41.2638617" lon="14.1526767"><ele>135.0</ele><time>2026-05-04T12:23:50.404Z</time></trkpt><trkpt lat="41.2637817" lon="14.1525433"><ele>135.4</ele><time>2026-05-04T12:23:52.402Z</time></trkpt><trkpt lat="41.26374" lon="14.1524783"><ele>135.8</ele><time>2026-05-04T12:23:53.402Z</time></trkpt><trkpt lat="41.2636967" lon="14.1524083"><ele>136.2</ele><time>2026-05-04T12:23:54.401Z</time></trkpt><trkpt lat="41.2636167" lon="14.152285"><ele>136.6</ele><time>2026-05-04T12:23:56.402Z</time></trkpt><trkpt lat="41.2635467" lon="14.152155"><ele>137.0</ele><time>2026-05-04T12:23:58.403Z</time></trkpt><trkpt lat="41.2634967" lon="14.1520417"><ele>137.0</ele><time>2026-05-04T12:24:00.402Z</time></trkpt><trkpt lat="41.26343" lon="14.1519017"><ele>137.0</ele><time>2026-05-04T12:24:02.402Z</time></trkpt><trkpt lat="41.263395" lon="14.1518267"><ele>137.0</ele><time>2026-05-04T12:24:03.403Z</time></trkpt><trkpt lat="41.26336" lon="14.1517433"><ele>137.0</ele><time>2026-05-04T12:24:04.403Z</time></trkpt><trkpt lat="41.2633183" lon="14.1516683"><ele>137.0</ele><time>2026-05-04T12:24:05.403Z</time></trkpt><trkpt lat="41.263285" lon="14.1515933"><ele>137.0</ele><time>2026-05-04T12:24:06.402Z</time></trkpt><trkpt lat="41.2632483" lon="14.15152"><ele>136.85714285714286</ele><time>2026-05-04T12:24:07.403Z</time></trkpt><trkpt lat="41.263205" lon="14.1514433"><ele>136.71428571428572</ele><time>2026-05-04T12:24:08.403Z</time></trkpt><trkpt lat="41.2631617" lon="14.151365"><ele>136.57142857142856</ele><time>2026-05-04T12:24:09.402Z</time></trkpt><trkpt lat="41.2631167" lon="14.151285"><ele>136.42857142857144</ele><time>2026-05-04T12:24:10.403Z</time></trkpt><trkpt lat="41.263075" lon="14.151215"><ele>136.28571428571428</ele><time>2026-05-04T12:24:11.402Z</time></trkpt><trkpt lat="41.2630417" lon="14.1511317"><ele>136.14285714285714</ele><time>2026-05-04T12:24:12.405Z</time></trkpt><trkpt lat="41.263005" lon="14.151055"><ele>136.0</ele><time>2026-05-04T12:24:13.402Z</time></trkpt><trkpt lat="41.2629767" lon="14.1509733"><ele>136.0</ele><time>2026-05-04T12:24:14.403Z</time></trkpt><trkpt lat="41.262965" lon="14.1508583"><ele>136.0</ele><time>2026-05-04T12:24:15.403Z</time></trkpt><trkpt lat="41.2629283" lon="14.1507767"><ele>136.0</ele><time>2026-05-04T12:24:16.403Z</time></trkpt><trkpt lat="41.262885" lon="14.1506917"><ele>136.0</ele><time>2026-05-04T12:24:17.403Z</time></trkpt><trkpt lat="41.26285" lon="14.1506033"><ele>136.0</ele><time>2026-05-04T12:24:18.401Z</time></trkpt><trkpt lat="41.2628067" lon="14.1505133"><ele>136.0</ele><time>2026-05-04T12:24:19.403Z</time></trkpt><trkpt lat="41.2627617" lon="14.15042"><ele>135.66666666666669</ele><time>2026-05-04T12:24:20.403Z</time></trkpt><trkpt lat="41.26272" lon="14.15034"><ele>135.33333333333334</ele><time>2026-05-04T12:24:21.402Z</time></trkpt><trkpt lat="41.2626667" lon="14.1502617"><ele>135.0</ele><time>2026-05-04T12:24:22.401Z</time></trkpt><trkpt lat="41.2626167" lon="14.15019"><ele>134.66666666666666</ele><time>2026-05-04T12:24:23.403Z</time></trkpt><trkpt lat="41.2625683" lon="14.150125"><ele>134.33333333333331</ele><time>2026-05-04T12:24:24.403Z</time></trkpt><trkpt lat="41.2625167" lon="14.1500567"><ele>134.0</ele><time>2026-05-04T12:24:25.403Z</time></trkpt><trkpt lat="41.2624567" lon="14.1499617"><ele>134.0</ele><time>2026-05-04T12:24:26.402Z</time></trkpt><trkpt lat="41.262405" lon="14.149885"><ele>134.0</ele><time>2026-05-04T12:24:27.402Z</time></trkpt><trkpt lat="41.2623583" lon="14.149815"><ele>134.0</ele><time>2026-05-04T12:24:28.403Z</time></trkpt><trkpt lat="41.262315" lon="14.1497483"><ele>134.0</ele><time>2026-05-04T12:24:29.403Z</time></trkpt><trkpt lat="41.26224" lon="14.1496283"><ele>134.0</ele><time>2026-05-04T12:24:31.403Z</time></trkpt><trkpt lat="41.262155" lon="14.1495017"><ele>133.85714285714286</ele><time>2026-05-04T12:24:33.403Z</time></trkpt><trkpt lat="41.262115" lon="14.1494267"><ele>133.71428571428572</ele><time>2026-05-04T12:24:34.402Z</time></trkpt><trkpt lat="41.2620833" lon="14.1493417"><ele>133.57142857142856</ele><time>2026-05-04T12:24:35.403Z</time></trkpt><trkpt lat="41.26206" lon="14.1492533"><ele>133.42857142857144</ele><time>2026-05-04T12:24:36.403Z</time></trkpt><trkpt lat="41.2620367" lon="14.1491633"><ele>133.28571428571428</ele><time>2026-05-04T12:24:37.403Z</time></trkpt><trkpt lat="41.2620217" lon="14.1490783"><ele>133.14285714285714</ele><time>2026-05-04T12:24:38.402Z</time></trkpt><trkpt lat="41.262005" lon="14.14899"><ele>133.0</ele><time>2026-05-04T12:24:39.402Z</time></trkpt><trkpt lat="41.2619967" lon="14.148905"><ele>132.85714285714286</ele><time>2026-05-04T12:24:40.401Z</time></trkpt><trkpt lat="41.2619917" lon="14.148815"><ele>132.71428571428572</ele><time>2026-05-04T12:24:41.403Z</time></trkpt><trkpt lat="41.26199" lon="14.14872"><ele>132.57142857142856</ele><time>2026-05-04T12:24:42.403Z</time></trkpt><trkpt lat="41.2619867" lon="14.1486217"><ele>132.42857142857144</ele><time>2026-05-04T12:24:43.402Z</time></trkpt><trkpt lat="41.26198" lon="14.1485267"><ele>132.28571428571428</ele><time>2026-05-04T12:24:44.403Z</time></trkpt><trkpt lat="41.26197" lon="14.1484283"><ele>132.14285714285714</ele><time>2026-05-04T12:24:45.402Z</time></trkpt><trkpt lat="41.2619633" lon="14.1483317"><ele>132.0</ele><time>2026-05-04T12:24:46.403Z</time></trkpt><trkpt lat="41.261965" lon="14.1482383"><ele>131.83333333333334</ele><time>2026-05-04T12:24:47.402Z</time></trkpt><trkpt lat="41.2619633" lon="14.1481417"><ele>131.66666666666666</ele><time>2026-05-04T12:24:48.402Z</time></trkpt><trkpt lat="41.26196" lon="14.1480433"><ele>131.5</ele><time>2026-05-04T12:24:49.403Z</time></trkpt><trkpt lat="41.261955" lon="14.1479417"><ele>131.33333333333331</ele><time>2026-05-04T12:24:50.402Z</time></trkpt><trkpt lat="41.2619467" lon="14.14784"><ele>131.16666666666666</ele><time>2026-05-04T12:24:51.403Z</time></trkpt><trkpt lat="41.2619383" lon="14.14774"><ele>131.0</ele><time>2026-05-04T12:24:52.402Z</time></trkpt><trkpt lat="41.261925" lon="14.14764"><ele>131.0</ele><time>2026-05-04T12:24:53.403Z</time></trkpt><trkpt lat="41.26191" lon="14.1475433"><ele>131.0</ele><time>2026-05-04T12:24:54.403Z</time></trkpt><trkpt lat="41.26189" lon="14.1474483"><ele>131.0</ele><time>2026-05-04T12:24:55.402Z</time></trkpt><trkpt lat="41.2618633" lon="14.1473567"><ele>131.0</ele><time>2026-05-04T12:24:56.402Z</time></trkpt><trkpt lat="41.26184" lon="14.1472633"><ele>131.0</ele><time>2026-05-04T12:24:57.403Z</time></trkpt><trkpt lat="41.2618167" lon="14.14717"><ele>131.0</ele><time>2026-05-04T12:24:58.403Z</time></trkpt><trkpt lat="41.2617967" lon="14.147075"><ele>131.0</ele><time>2026-05-04T12:24:59.403Z</time></trkpt><trkpt lat="41.2617783" lon="14.1469833"><ele>130.85714285714286</ele><time>2026-05-04T12:25:00.403Z</time></trkpt><trkpt lat="41.261755" lon="14.1468983"><ele>130.71428571428572</ele><time>2026-05-04T12:25:01.404Z</time></trkpt><trkpt lat="41.2617367" lon="14.1468083"><ele>130.57142857142858</ele><time>2026-05-04T12:25:02.402Z</time></trkpt><trkpt lat="41.2617117" lon="14.146715"><ele>130.42857142857144</ele><time>2026-05-04T12:25:03.402Z</time></trkpt><trkpt lat="41.261685" lon="14.146625"><ele>130.28571428571428</ele><time>2026-05-04T12:25:04.405Z</time></trkpt><trkpt lat="41.26166" lon="14.1465333"><ele>130.14285714285717</ele><time>2026-05-04T12:25:05.404Z</time></trkpt><trkpt lat="41.2616383" lon="14.1464383"><ele>130.0</ele><time>2026-05-04T12:25:06.404Z</time></trkpt><trkpt lat="41.26162" lon="14.1463517"><ele>130.00000000000003</ele><time>2026-05-04T12:25:07.403Z</time></trkpt><trkpt lat="41.2615967" lon="14.1462633"><ele>130.0</ele><time>2026-05-04T12:25:08.403Z</time></trkpt><trkpt lat="41.2615767" lon="14.1461733"><ele>130.0</ele><time>2026-05-04T12:25:09.404Z</time></trkpt><trkpt lat="41.2615567" lon="14.146085"><ele>130.0</ele><time>2026-05-04T12:25:10.404Z</time></trkpt><trkpt lat="41.2615333" lon="14.1459917"><ele>130.0</ele><time>2026-05-04T12:25:11.404Z</time></trkpt><trkpt lat="41.2615017" lon="14.1458967"><ele>130.00000000000003</ele><time>2026-05-04T12:25:12.404Z</time></trkpt><trkpt lat="41.2614683" lon="14.1458017"><ele>130.0</ele><time>2026-05-04T12:25:13.404Z</time></trkpt><trkpt lat="41.2614367" lon="14.1457"><ele>130.16666666666669</ele><time>2026-05-04T12:25:14.403Z</time></trkpt><trkpt lat="41.2614017" lon="14.1456017"><ele>130.33333333333334</ele><time>2026-05-04T12:25:15.403Z</time></trkpt><trkpt lat="41.261365" lon="14.1455017"><ele>130.5</ele><time>2026-05-04T12:25:16.404Z</time></trkpt><trkpt lat="41.2613317" lon="14.1453983"><ele>130.66666666666666</ele><time>2026-05-04T12:25:17.405Z</time></trkpt><trkpt lat="41.261305" lon="14.1452983"><ele>130.83333333333331</ele><time>2026-05-04T12:25:18.405Z</time></trkpt><trkpt lat="41.261285" lon="14.1451967"><ele>131.0</ele><time>2026-05-04T12:25:19.406Z</time></trkpt><trkpt lat="41.261265" lon="14.145095"><ele>131.0</ele><time>2026-05-04T12:25:20.404Z</time></trkpt><trkpt lat="41.2612433" lon="14.1449883"><ele>131.0</ele><time>2026-05-04T12:25:21.403Z</time></trkpt><trkpt lat="41.2612217" lon="14.1448817"><ele>131.0</ele><time>2026-05-04T12:25:22.403Z</time></trkpt><trkpt lat="41.2612067" lon="14.1447783"><ele>131.0</ele><time>2026-05-04T12:25:23.404Z</time></trkpt><trkpt lat="41.2611933" lon="14.1446717"><ele>131.0</ele><time>2026-05-04T12:25:24.404Z</time></trkpt><trkpt lat="41.261175" lon="14.14456"><ele>131.0</ele><time>2026-05-04T12:25:25.404Z</time></trkpt><trkpt lat="41.261165" lon="14.1444583"><ele>130.83333333333331</ele><time>2026-05-04T12:25:26.404Z</time></trkpt><trkpt lat="41.2611517" lon="14.1443517"><ele>130.66666666666666</ele><time>2026-05-04T12:25:27.403Z</time></trkpt><trkpt lat="41.2611417" lon="14.1442483"><ele>130.5</ele><time>2026-05-04T12:25:28.403Z</time></trkpt><trkpt lat="41.2611333" lon="14.1441367"><ele>130.33333333333334</ele><time>2026-05-04T12:25:29.404Z</time></trkpt><trkpt lat="41.26113" lon="14.1440267"><ele>130.16666666666669</ele><time>2026-05-04T12:25:30.404Z</time></trkpt><trkpt lat="41.2611267" lon="14.143915"><ele>130.0</ele><time>2026-05-04T12:25:31.404Z</time></trkpt><trkpt lat="41.2611317" lon="14.1438067"><ele>129.66666666666669</ele><time>2026-05-04T12:25:32.405Z</time></trkpt><trkpt lat="41.261145" lon="14.1437"><ele>129.33333333333334</ele><time>2026-05-04T12:25:33.404Z</time></trkpt><trkpt lat="41.261155" lon="14.1435967"><ele>129.0</ele><time>2026-05-04T12:25:34.404Z</time></trkpt><trkpt lat="41.2611617" lon="14.1434967"><ele>128.66666666666666</ele><time>2026-05-04T12:25:35.403Z</time></trkpt><trkpt lat="41.2611683" lon="14.1433983"><ele>128.33333333333331</ele><time>2026-05-04T12:25:36.403Z</time></trkpt><trkpt lat="41.2611767" lon="14.1433017"><ele>128.0</ele><time>2026-05-04T12:25:37.406Z</time></trkpt><trkpt lat="41.26118" lon="14.1432033"><ele>128.0</ele><time>2026-05-04T12:25:38.403Z</time></trkpt><trkpt lat="41.261185" lon="14.1431033"><ele>127.99999999999999</ele><time>2026-05-04T12:25:39.404Z</time></trkpt><trkpt lat="41.261195" lon="14.1430067"><ele>128.0</ele><time>2026-05-04T12:25:40.403Z</time></trkpt><trkpt lat="41.2612033" lon="14.1429117"><ele>128.0</ele><time>2026-05-04T12:25:41.403Z</time></trkpt><trkpt lat="41.2612083" lon="14.1428167"><ele>127.99999999999999</ele><time>2026-05-04T12:25:42.402Z</time></trkpt><trkpt lat="41.2612083" lon="14.1427217"><ele>128.0</ele><time>2026-05-04T12:25:43.402Z</time></trkpt><trkpt lat="41.2612067" lon="14.14263"><ele>128.0</ele><time>2026-05-04T12:25:44.403Z</time></trkpt><trkpt lat="41.2611983" lon="14.142535"><ele>128.0</ele><time>2026-05-04T12:25:45.402Z</time></trkpt><trkpt lat="41.26119" lon="14.14244"><ele>127.99999999999999</ele><time>2026-05-04T12:25:46.403Z</time></trkpt><trkpt lat="41.2611783" lon="14.142345"><ele>128.0</ele><time>2026-05-04T12:25:47.403Z</time></trkpt><trkpt lat="41.2611633" lon="14.14225"><ele>128.0</ele><time>2026-05-04T12:25:48.403Z</time></trkpt><trkpt lat="41.261145" lon="14.142155"><ele>127.99999999999999</ele><time>2026-05-04T12:25:49.402Z</time></trkpt><trkpt lat="41.261125" lon="14.14206"><ele>128.0</ele><time>2026-05-04T12:25:50.402Z</time></trkpt><trkpt lat="41.2611083" lon="14.1419667"><ele>128.0</ele><time>2026-05-04T12:25:51.403Z</time></trkpt><trkpt lat="41.2610917" lon="14.1418767"><ele>128.14285714285714</ele><time>2026-05-04T12:25:52.402Z</time></trkpt><trkpt lat="41.261075" lon="14.141785"><ele>128.28571428571428</ele><time>2026-05-04T12:25:53.403Z</time></trkpt><trkpt lat="41.2610567" lon="14.1416933"><ele>128.42857142857142</ele><time>2026-05-04T12:25:54.403Z</time></trkpt><trkpt lat="41.2610367" lon="14.1416017"><ele>128.57142857142856</ele><time>2026-05-04T12:25:55.403Z</time></trkpt><trkpt lat="41.2610183" lon="14.1415017"><ele>128.71428571428572</ele><time>2026-05-04T12:25:56.403Z</time></trkpt><trkpt lat="41.261005" lon="14.141405"><ele>128.85714285714283</ele><time>2026-05-04T12:25:57.403Z</time></trkpt><trkpt lat="41.2609967" lon="14.1413133"><ele>129.0</ele><time>2026-05-04T12:25:58.403Z</time></trkpt><trkpt lat="41.2609883" lon="14.14122"><ele>128.99999999999997</ele><time>2026-05-04T12:25:59.403Z</time></trkpt><trkpt lat="41.26098" lon="14.1411233"><ele>129.0</ele><time>2026-05-04T12:26:00.403Z</time></trkpt><trkpt lat="41.2609717" lon="14.141025"><ele>129.0</ele><time>2026-05-04T12:26:01.402Z</time></trkpt><trkpt lat="41.2609733" lon="14.1409283"><ele>129.0</ele><time>2026-05-04T12:26:02.403Z</time></trkpt><trkpt lat="41.2609783" lon="14.1408283"><ele>129.0</ele><time>2026-05-04T12:26:03.403Z</time></trkpt><trkpt lat="41.2609867" lon="14.140735"><ele>128.99999999999997</ele><time>2026-05-04T12:26:04.403Z</time></trkpt><trkpt lat="41.2610033" lon="14.14064"><ele>129.0</ele><time>2026-05-04T12:26:05.403Z</time></trkpt><trkpt lat="41.261015" lon="14.1405467"><ele>128.85714285714283</ele><time>2026-05-04T12:26:06.403Z</time></trkpt><trkpt lat="41.2610317" lon="14.1404533"><ele>128.71428571428572</ele><time>2026-05-04T12:26:07.402Z</time></trkpt><trkpt lat="41.2610467" lon="14.14036"><ele>128.57142857142856</ele><time>2026-05-04T12:26:08.403Z</time></trkpt><trkpt lat="41.26107" lon="14.1402683"><ele>128.42857142857142</ele><time>2026-05-04T12:26:09.403Z</time></trkpt><trkpt lat="41.2610917" lon="14.1401783"><ele>128.28571428571428</ele><time>2026-05-04T12:26:10.403Z</time></trkpt><trkpt lat="41.261115" lon="14.1400883"><ele>128.14285714285714</ele><time>2026-05-04T12:26:11.403Z</time></trkpt><trkpt lat="41.2611333" lon="14.139995"><ele>128.0</ele><time>2026-05-04T12:26:12.404Z</time></trkpt><trkpt lat="41.261155" lon="14.1399067"><ele>127.85714285714285</ele><time>2026-05-04T12:26:13.402Z</time></trkpt><trkpt lat="41.2611767" lon="14.1398133"><ele>127.7142857142857</ele><time>2026-05-04T12:26:14.403Z</time></trkpt><trkpt lat="41.2611983" lon="14.13972"><ele>127.57142857142857</ele><time>2026-05-04T12:26:15.406Z</time></trkpt><trkpt lat="41.2612267" lon="14.13963"><ele>127.42857142857142</ele><time>2026-05-04T12:26:16.405Z</time></trkpt><trkpt lat="41.2612583" lon="14.1395417"><ele>127.28571428571428</ele><time>2026-05-04T12:26:17.403Z</time></trkpt><trkpt lat="41.26129" lon="14.139455"><ele>127.14285714285714</ele><time>2026-05-04T12:26:18.403Z</time></trkpt><trkpt lat="41.26132" lon="14.1393667"><ele>127.0</ele><time>2026-05-04T12:26:19.404Z</time></trkpt><trkpt lat="41.2613533" lon="14.1392767"><ele>127.00000000000001</ele><time>2026-05-04T12:26:20.404Z</time></trkpt><trkpt lat="41.26139" lon="14.1391867"><ele>127.0</ele><time>2026-05-04T12:26:21.404Z</time></trkpt><trkpt lat="41.261425" lon="14.1390983"><ele>127.0</ele><time>2026-05-04T12:26:22.403Z</time></trkpt><trkpt lat="41.2614583" lon="14.13901"><ele>127.0</ele><time>2026-05-04T12:26:23.402Z</time></trkpt><trkpt lat="41.26149" lon="14.13892"><ele>127.00000000000001</ele><time>2026-05-04T12:26:24.403Z</time></trkpt><trkpt lat="41.261525" lon="14.1388317"><ele>127.0</ele><time>2026-05-04T12:26:25.403Z</time></trkpt><trkpt lat="41.2615567" lon="14.13874"><ele>127.16666666666667</ele><time>2026-05-04T12:26:26.403Z</time></trkpt><trkpt lat="41.2615917" lon="14.1386467"><ele>127.33333333333334</ele><time>2026-05-04T12:26:27.404Z</time></trkpt><trkpt lat="41.261625" lon="14.1385533"><ele>127.5</ele><time>2026-05-04T12:26:28.405Z</time></trkpt><trkpt lat="41.2616583" lon="14.1384617"><ele>127.66666666666666</ele><time>2026-05-04T12:26:29.404Z</time></trkpt><trkpt lat="41.2616933" lon="14.13837"><ele>127.83333333333333</ele><time>2026-05-04T12:26:30.407Z</time></trkpt><trkpt lat="41.2617283" lon="14.13828"><ele>128.0</ele><time>2026-05-04T12:26:31.403Z</time></trkpt><trkpt lat="41.26176" lon="14.138185"><ele>127.99999999999999</ele><time>2026-05-04T12:26:32.403Z</time></trkpt><trkpt lat="41.2617817" lon="14.138085"><ele>128.0</ele><time>2026-05-04T12:26:33.403Z</time></trkpt><trkpt lat="41.261805" lon="14.1379867"><ele>128.0</ele><time>2026-05-04T12:26:34.402Z</time></trkpt><trkpt lat="41.261835" lon="14.13789"><ele>128.0</ele><time>2026-05-04T12:26:35.403Z</time></trkpt><trkpt lat="41.26186" lon="14.1377933"><ele>127.99999999999999</ele><time>2026-05-04T12:26:36.403Z</time></trkpt><trkpt lat="41.261885" lon="14.137695"><ele>128.0</ele><time>2026-05-04T12:26:37.403Z</time></trkpt><trkpt lat="41.2619117" lon="14.1376"><ele>127.99999999999999</ele><time>2026-05-04T12:26:38.403Z</time></trkpt><trkpt lat="41.26194" lon="14.1375033"><ele>128.0</ele><time>2026-05-04T12:26:39.403Z</time></trkpt><trkpt lat="41.2619667" lon="14.1374083"><ele>128.0</ele><time>2026-05-04T12:26:40.403Z</time></trkpt><trkpt lat="41.2619933" lon="14.1373117"><ele>128.0</ele><time>2026-05-04T12:26:41.403Z</time></trkpt><trkpt lat="41.2620167" lon="14.137215"><ele>127.99999999999999</ele><time>2026-05-04T12:26:42.403Z</time></trkpt><trkpt lat="41.2620417" lon="14.13712"><ele>128.0</ele><time>2026-05-04T12:26:43.404Z</time></trkpt><trkpt lat="41.2620683" lon="14.1370233"><ele>128.14285714285714</ele><time>2026-05-04T12:26:44.402Z</time></trkpt><trkpt lat="41.2620917" lon="14.13693"><ele>128.28571428571428</ele><time>2026-05-04T12:26:45.403Z</time></trkpt><trkpt lat="41.2621167" lon="14.1368367"><ele>128.42857142857142</ele><time>2026-05-04T12:26:46.403Z</time></trkpt><trkpt lat="41.26214" lon="14.1367433"><ele>128.57142857142856</ele><time>2026-05-04T12:26:47.402Z</time></trkpt><trkpt lat="41.262165" lon="14.1366483"><ele>128.71428571428572</ele><time>2026-05-04T12:26:48.403Z</time></trkpt><trkpt lat="41.26219" lon="14.136555"><ele>128.85714285714283</ele><time>2026-05-04T12:26:49.402Z</time></trkpt><trkpt lat="41.262215" lon="14.1364617"><ele>129.0</ele><time>2026-05-04T12:26:50.404Z</time></trkpt><trkpt lat="41.2622417" lon="14.13637"><ele>129.16666666666666</ele><time>2026-05-04T12:26:51.403Z</time></trkpt><trkpt lat="41.2622683" lon="14.1362783"><ele>129.33333333333334</ele><time>2026-05-04T12:26:52.402Z</time></trkpt><trkpt lat="41.2622933" lon="14.1361867"><ele>129.5</ele><time>2026-05-04T12:26:53.405Z</time></trkpt><trkpt lat="41.2623183" lon="14.1360917"><ele>129.66666666666669</ele><time>2026-05-04T12:26:54.402Z</time></trkpt><trkpt lat="41.2623467" lon="14.1359983"><ele>129.83333333333334</ele><time>2026-05-04T12:26:55.403Z</time></trkpt><trkpt lat="41.262375" lon="14.135905"><ele>130.0</ele><time>2026-05-04T12:26:56.403Z</time></trkpt><trkpt lat="41.2624033" lon="14.1358117"><ele>130.00000000000003</ele><time>2026-05-04T12:26:57.403Z</time></trkpt><trkpt lat="41.2624283" lon="14.1357217"><ele>130.0</ele><time>2026-05-04T12:26:58.402Z</time></trkpt><trkpt lat="41.262455" lon="14.1356317"><ele>130.0</ele><time>2026-05-04T12:26:59.402Z</time></trkpt><trkpt lat="41.2624817" lon="14.13554"><ele>130.0</ele><time>2026-05-04T12:27:00.403Z</time></trkpt><trkpt lat="41.26251" lon="14.1354517"><ele>130.0</ele><time>2026-05-04T12:27:01.404Z</time></trkpt><trkpt lat="41.262535" lon="14.1353683"><ele>130.00000000000003</ele><time>2026-05-04T12:27:02.403Z</time></trkpt><trkpt lat="41.262565" lon="14.1352867"><ele>130.0</ele><time>2026-05-04T12:27:03.403Z</time></trkpt><trkpt lat="41.2625917" lon="14.1352083"><ele>130.2</ele><time>2026-05-04T12:27:04.403Z</time></trkpt><trkpt lat="41.2626233" lon="14.1351333"><ele>130.4</ele><time>2026-05-04T12:27:05.404Z</time></trkpt><trkpt lat="41.2626567" lon="14.1350617"><ele>130.6</ele><time>2026-05-04T12:27:06.403Z</time></trkpt><trkpt lat="41.26272" lon="14.1349283"><ele>130.8</ele><time>2026-05-04T12:27:08.403Z</time></trkpt><trkpt lat="41.2627683" lon="14.1347967"><ele>131.0</ele><time>2026-05-04T12:27:10.403Z</time></trkpt><trkpt lat="41.2627867" lon="14.1346467"><ele>131.5</ele><time>2026-05-04T12:27:12.402Z</time></trkpt><trkpt lat="41.2628083" lon="14.134505"><ele>132.0</ele><time>2026-05-04T12:27:14.403Z</time></trkpt><trkpt lat="41.262855" lon="14.1343667"><ele>132.5</ele><time>2026-05-04T12:27:16.404Z</time></trkpt><trkpt lat="41.2628983" lon="14.1342267"><ele>133.0</ele><time>2026-05-04T12:27:18.403Z</time></trkpt><trkpt lat="41.262935" lon="14.134075"><ele>133.20000000000002</ele><time>2026-05-04T12:27:20.403Z</time></trkpt><trkpt lat="41.2629667" lon="14.13392"><ele>133.4</ele><time>2026-05-04T12:27:22.403Z</time></trkpt><trkpt lat="41.2630133" lon="14.1337767"><ele>133.60000000000002</ele><time>2026-05-04T12:27:24.403Z</time></trkpt><trkpt lat="41.2630533" lon="14.1336233"><ele>133.8</ele><time>2026-05-04T12:27:26.402Z</time></trkpt><trkpt lat="41.26307" lon="14.1335417"><ele>134.0</ele><time>2026-05-04T12:27:27.403Z</time></trkpt><trkpt lat="41.2631117" lon="14.1333783"><ele>133.83333333333331</ele><time>2026-05-04T12:27:29.403Z</time></trkpt><trkpt lat="41.2631317" lon="14.1332967"><ele>133.66666666666666</ele><time>2026-05-04T12:27:30.403Z</time></trkpt><trkpt lat="41.2631817" lon="14.1331433"><ele>133.5</ele><time>2026-05-04T12:27:32.403Z</time></trkpt><trkpt lat="41.263225" lon="14.1329867"><ele>133.33333333333334</ele><time>2026-05-04T12:27:34.403Z</time></trkpt><trkpt lat="41.2632483" lon="14.132905"><ele>133.16666666666669</ele><time>2026-05-04T12:27:35.403Z</time></trkpt><trkpt lat="41.2632717" lon="14.1328217"><ele>133.0</ele><time>2026-05-04T12:27:36.403Z</time></trkpt><trkpt lat="41.2632967" lon="14.1327417"><ele>133.0</ele><time>2026-05-04T12:27:37.403Z</time></trkpt><trkpt lat="41.2633217" lon="14.1326633"><ele>133.0</ele><time>2026-05-04T12:27:38.403Z</time></trkpt><trkpt lat="41.263365" lon="14.1325067"><ele>133.0</ele><time>2026-05-04T12:27:40.403Z</time></trkpt><trkpt lat="41.26341" lon="14.132355"><ele>133.0</ele><time>2026-05-04T12:27:42.404Z</time></trkpt><trkpt lat="41.263455" lon="14.1322067"><ele>133.0</ele><time>2026-05-04T12:27:44.403Z</time></trkpt><trkpt lat="41.2635033" lon="14.1320517"><ele>133.28571428571428</ele><time>2026-05-04T12:27:46.403Z</time></trkpt><trkpt lat="41.263525" lon="14.1319717"><ele>133.57142857142856</ele><time>2026-05-04T12:27:47.403Z</time></trkpt><trkpt lat="41.2635467" lon="14.1318867"><ele>133.85714285714286</ele><time>2026-05-04T12:27:48.405Z</time></trkpt><trkpt lat="41.2635683" lon="14.1318017"><ele>134.14285714285714</ele><time>2026-05-04T12:27:49.402Z</time></trkpt><trkpt lat="41.2635917" lon="14.131715"><ele>134.42857142857142</ele><time>2026-05-04T12:27:50.403Z</time></trkpt><trkpt lat="41.263615" lon="14.1316317"><ele>134.71428571428572</ele><time>2026-05-04T12:27:51.403Z</time></trkpt><trkpt lat="41.2636367" lon="14.1315467"><ele>135.0</ele><time>2026-05-04T12:27:52.403Z</time></trkpt><trkpt lat="41.26366" lon="14.1314617"><ele>135.57142857142856</ele><time>2026-05-04T12:27:53.402Z</time></trkpt><trkpt lat="41.2636817" lon="14.1313767"><ele>136.14285714285714</ele><time>2026-05-04T12:27:54.404Z</time></trkpt><trkpt lat="41.2637033" lon="14.131295"><ele>136.71428571428572</ele><time>2026-05-04T12:27:55.403Z</time></trkpt><trkpt lat="41.2637267" lon="14.1312117"><ele>137.28571428571428</ele><time>2026-05-04T12:27:56.402Z</time></trkpt><trkpt lat="41.2637533" lon="14.1311267"><ele>137.85714285714286</ele><time>2026-05-04T12:27:57.402Z</time></trkpt><trkpt lat="41.2637767" lon="14.1310367"><ele>138.42857142857142</ele><time>2026-05-04T12:27:58.403Z</time></trkpt><trkpt lat="41.2638033" lon="14.13095"><ele>139.0</ele><time>2026-05-04T12:27:59.403Z</time></trkpt><trkpt lat="41.263825" lon="14.1308617"><ele>139.0</ele><time>2026-05-04T12:28:00.403Z</time></trkpt><trkpt lat="41.2638467" lon="14.1307733"><ele>139.0</ele><time>2026-05-04T12:28:01.403Z</time></trkpt><trkpt lat="41.2638717" lon="14.1306883"><ele>139.0</ele><time>2026-05-04T12:28:02.402Z</time></trkpt><trkpt lat="41.263895" lon="14.1306017"><ele>139.0</ele><time>2026-05-04T12:28:03.403Z</time></trkpt><trkpt lat="41.26392" lon="14.1305167"><ele>139.0</ele><time>2026-05-04T12:28:04.403Z</time></trkpt><trkpt lat="41.263945" lon="14.1304367"><ele>139.0</ele><time>2026-05-04T12:28:05.403Z</time></trkpt><trkpt lat="41.2639667" lon="14.130345"><ele>139.0</ele><time>2026-05-04T12:28:06.403Z</time></trkpt><trkpt lat="41.2639917" lon="14.13025"><ele>138.57142857142856</ele><time>2026-05-04T12:28:07.403Z</time></trkpt><trkpt lat="41.264015" lon="14.1301533"><ele>138.14285714285714</ele><time>2026-05-04T12:28:08.403Z</time></trkpt><trkpt lat="41.2640383" lon="14.1300567"><ele>137.71428571428572</ele><time>2026-05-04T12:28:09.403Z</time></trkpt><trkpt lat="41.2640617" lon="14.12996"><ele>137.28571428571428</ele><time>2026-05-04T12:28:10.403Z</time></trkpt><trkpt lat="41.2640833" lon="14.1298667"><ele>136.85714285714286</ele><time>2026-05-04T12:28:11.403Z</time></trkpt><trkpt lat="41.2641067" lon="14.1297767"><ele>136.42857142857142</ele><time>2026-05-04T12:28:12.402Z</time></trkpt><trkpt lat="41.2641283" lon="14.12969"><ele>136.0</ele><time>2026-05-04T12:28:13.403Z</time></trkpt><trkpt lat="41.26415" lon="14.129605"><ele>136.0</ele><time>2026-05-04T12:28:14.403Z</time></trkpt><trkpt lat="41.2641683" lon="14.12952"><ele>136.0</ele><time>2026-05-04T12:28:15.403Z</time></trkpt><trkpt lat="41.2641883" lon="14.1294333"><ele>136.0</ele><time>2026-05-04T12:28:16.402Z</time></trkpt><trkpt lat="41.26421" lon="14.12934"><ele>136.0</ele><time>2026-05-04T12:28:17.403Z</time></trkpt><trkpt lat="41.2642283" lon="14.12924"><ele>136.0</ele><time>2026-05-04T12:28:18.403Z</time></trkpt><trkpt lat="41.264245" lon="14.12913"><ele>136.0</ele><time>2026-05-04T12:28:19.403Z</time></trkpt><trkpt lat="41.2642633" lon="14.1290267"><ele>136.0</ele><time>2026-05-04T12:28:20.402Z</time></trkpt><trkpt lat="41.2642783" lon="14.1289217"><ele>136.0</ele><time>2026-05-04T12:28:21.406Z</time></trkpt><trkpt lat="41.2642933" lon="14.12882"><ele>136.0</ele><time>2026-05-04T12:28:22.402Z</time></trkpt><trkpt lat="41.2643117" lon="14.1287167"><ele>136.0</ele><time>2026-05-04T12:28:23.404Z</time></trkpt><trkpt lat="41.264335" lon="14.1286183"><ele>136.0</ele><time>2026-05-04T12:28:24.403Z</time></trkpt><trkpt lat="41.2643517" lon="14.12852"><ele>136.0</ele><time>2026-05-04T12:28:25.403Z</time></trkpt><trkpt lat="41.2643683" lon="14.1284183"><ele>136.0</ele><time>2026-05-04T12:28:26.402Z</time></trkpt><trkpt lat="41.2643867" lon="14.1283183"><ele>136.0</ele><time>2026-05-04T12:28:27.403Z</time></trkpt><trkpt lat="41.2644" lon="14.128215"><ele>136.0</ele><time>2026-05-04T12:28:28.403Z</time></trkpt><trkpt lat="41.264405" lon="14.1281083"><ele>136.0</ele><time>2026-05-04T12:28:29.404Z</time></trkpt><trkpt lat="41.26441" lon="14.1279967"><ele>136.0</ele><time>2026-05-04T12:28:30.404Z</time></trkpt><trkpt lat="41.26442" lon="14.1278883"><ele>136.0</ele><time>2026-05-04T12:28:31.404Z</time></trkpt><trkpt lat="41.2644317" lon="14.1277783"><ele>135.83333333333334</ele><time>2026-05-04T12:28:32.402Z</time></trkpt><trkpt lat="41.264445" lon="14.1276683"><ele>135.66666666666669</ele><time>2026-05-04T12:28:33.403Z</time></trkpt><trkpt lat="41.2644567" lon="14.1275583"><ele>135.5</ele><time>2026-05-04T12:28:34.403Z</time></trkpt><trkpt lat="41.2644683" lon="14.1274583"><ele>135.33333333333334</ele><time>2026-05-04T12:28:35.403Z</time></trkpt><trkpt lat="41.2644767" lon="14.1273533"><ele>135.16666666666666</ele><time>2026-05-04T12:28:36.403Z</time></trkpt><trkpt lat="41.2644817" lon="14.12724"><ele>135.0</ele><time>2026-05-04T12:28:37.402Z</time></trkpt><trkpt lat="41.2644867" lon="14.1271267"><ele>135.0</ele><time>2026-05-04T12:28:38.406Z</time></trkpt><trkpt lat="41.2644883" lon="14.1270117"><ele>135.0</ele><time>2026-05-04T12:28:39.403Z</time></trkpt><trkpt lat="41.2644867" lon="14.1268967"><ele>135.0</ele><time>2026-05-04T12:28:40.404Z</time></trkpt><trkpt lat="41.2644833" lon="14.1267817"><ele>135.0</ele><time>2026-05-04T12:28:41.402Z</time></trkpt><trkpt lat="41.264475" lon="14.126665"><ele>135.0</ele><time>2026-05-04T12:28:42.403Z</time></trkpt><trkpt lat="41.26447" lon="14.12655"><ele>135.0</ele><time>2026-05-04T12:28:43.403Z</time></trkpt><trkpt lat="41.2644683" lon="14.1264367"><ele>134.83333333333334</ele><time>2026-05-04T12:28:44.402Z</time></trkpt><trkpt lat="41.2644683" lon="14.1263283"><ele>134.66666666666666</ele><time>2026-05-04T12:28:45.403Z</time></trkpt><trkpt lat="41.264465" lon="14.1262217"><ele>134.5</ele><time>2026-05-04T12:28:46.404Z</time></trkpt><trkpt lat="41.2644583" lon="14.126115"><ele>134.33333333333331</ele><time>2026-05-04T12:28:47.404Z</time></trkpt><trkpt lat="41.264455" lon="14.1260133"><ele>134.16666666666666</ele><time>2026-05-04T12:28:48.403Z</time></trkpt><trkpt lat="41.2644483" lon="14.1259083"><ele>134.0</ele><time>2026-05-04T12:28:49.403Z</time></trkpt><trkpt lat="41.264435" lon="14.1258067"><ele>133.83333333333331</ele><time>2026-05-04T12:28:50.402Z</time></trkpt><trkpt lat="41.26442" lon="14.125705"><ele>133.66666666666666</ele><time>2026-05-04T12:28:51.403Z</time></trkpt><trkpt lat="41.2644033" lon="14.1256033"><ele>133.5</ele><time>2026-05-04T12:28:52.403Z</time></trkpt><trkpt lat="41.2643883" lon="14.1255017"><ele>133.33333333333334</ele><time>2026-05-04T12:28:53.403Z</time></trkpt><trkpt lat="41.264375" lon="14.1254017"><ele>133.16666666666669</ele><time>2026-05-04T12:28:54.403Z</time></trkpt><trkpt lat="41.2643633" lon="14.125305"><ele>133.0</ele><time>2026-05-04T12:28:55.404Z</time></trkpt><trkpt lat="41.2643533" lon="14.12521"><ele>133.0</ele><time>2026-05-04T12:28:56.404Z</time></trkpt><trkpt lat="41.2643417" lon="14.1251133"><ele>133.0</ele><time>2026-05-04T12:28:57.403Z</time></trkpt><trkpt lat="41.2643317" lon="14.1250167"><ele>133.0</ele><time>2026-05-04T12:28:58.403Z</time></trkpt><trkpt lat="41.26433" lon="14.12492"><ele>133.0</ele><time>2026-05-04T12:28:59.402Z</time></trkpt><trkpt lat="41.2643283" lon="14.1248283"><ele>133.0</ele><time>2026-05-04T12:29:00.404Z</time></trkpt><trkpt lat="41.26433" lon="14.1247383"><ele>133.0</ele><time>2026-05-04T12:29:01.404Z</time></trkpt><trkpt lat="41.2643333" lon="14.12465"><ele>133.0</ele><time>2026-05-04T12:29:02.403Z</time></trkpt><trkpt lat="41.2643383" lon="14.1245617"><ele>132.8</ele><time>2026-05-04T12:29:03.403Z</time></trkpt><trkpt lat="41.2643467" lon="14.1243983"><ele>132.60000000000002</ele><time>2026-05-04T12:29:05.403Z</time></trkpt><trkpt lat="41.2643517" lon="14.1242317"><ele>132.39999999999998</ele><time>2026-05-04T12:29:07.403Z</time></trkpt><trkpt lat="41.2643617" lon="14.1241483"><ele>132.2</ele><time>2026-05-04T12:29:08.404Z</time></trkpt><trkpt lat="41.2643733" lon="14.1240567"><ele>132.0</ele><time>2026-05-04T12:29:09.404Z</time></trkpt><trkpt lat="41.26438" lon="14.1239583"><ele>132.0</ele><time>2026-05-04T12:29:10.403Z</time></trkpt><trkpt lat="41.2643983" lon="14.1238667"><ele>132.0</ele><time>2026-05-04T12:29:11.403Z</time></trkpt><trkpt lat="41.26442" lon="14.1237733"><ele>132.0</ele><time>2026-05-04T12:29:12.403Z</time></trkpt><trkpt lat="41.26444" lon="14.1236817"><ele>132.0</ele><time>2026-05-04T12:29:13.404Z</time></trkpt><trkpt lat="41.2644633" lon="14.1235917"><ele>132.0</ele><time>2026-05-04T12:29:14.403Z</time></trkpt><trkpt lat="41.264485" lon="14.1235017"><ele>132.0</ele><time>2026-05-04T12:29:15.403Z</time></trkpt><trkpt lat="41.26451" lon="14.1234133"><ele>132.0</ele><time>2026-05-04T12:29:16.402Z</time></trkpt><trkpt lat="41.264535" lon="14.1233217"><ele>132.0</ele><time>2026-05-04T12:29:17.403Z</time></trkpt><trkpt lat="41.264565" lon="14.1232333"><ele>132.0</ele><time>2026-05-04T12:29:18.403Z</time></trkpt><trkpt lat="41.264595" lon="14.1231467"><ele>132.0</ele><time>2026-05-04T12:29:19.403Z</time></trkpt><trkpt lat="41.2646183" lon="14.1230567"><ele>132.0</ele><time>2026-05-04T12:29:20.403Z</time></trkpt><trkpt lat="41.264645" lon="14.1229633"><ele>132.0</ele><time>2026-05-04T12:29:21.404Z</time></trkpt><trkpt lat="41.2646717" lon="14.1228717"><ele>132.0</ele><time>2026-05-04T12:29:22.402Z</time></trkpt><trkpt lat="41.2647017" lon="14.12278"><ele>132.0</ele><time>2026-05-04T12:29:23.402Z</time></trkpt><trkpt lat="41.26473" lon="14.122685"><ele>132.16666666666666</ele><time>2026-05-04T12:29:24.404Z</time></trkpt><trkpt lat="41.2647483" lon="14.1225867"><ele>132.33333333333334</ele><time>2026-05-04T12:29:25.404Z</time></trkpt><trkpt lat="41.2647683" lon="14.122485"><ele>132.5</ele><time>2026-05-04T12:29:26.403Z</time></trkpt><trkpt lat="41.264785" lon="14.1223833"><ele>132.66666666666669</ele><time>2026-05-04T12:29:27.403Z</time></trkpt><trkpt lat="41.2648033" lon="14.1222817"><ele>132.83333333333334</ele><time>2026-05-04T12:29:28.404Z</time></trkpt><trkpt lat="41.2648217" lon="14.12218"><ele>133.0</ele><time>2026-05-04T12:29:29.402Z</time></trkpt><trkpt lat="41.26484" lon="14.1220767"><ele>133.0</ele><time>2026-05-04T12:29:30.404Z</time></trkpt><trkpt lat="41.2648533" lon="14.1219767"><ele>133.0</ele><time>2026-05-04T12:29:31.403Z</time></trkpt><trkpt lat="41.2648683" lon="14.1218717"><ele>133.0</ele><time>2026-05-04T12:29:32.403Z</time></trkpt><trkpt lat="41.26488" lon="14.1217667"><ele>133.0</ele><time>2026-05-04T12:29:33.403Z</time></trkpt><trkpt lat="41.264895" lon="14.1216683"><ele>133.0</ele><time>2026-05-04T12:29:34.403Z</time></trkpt><trkpt lat="41.26491" lon="14.1215683"><ele>133.0</ele><time>2026-05-04T12:29:35.404Z</time></trkpt><trkpt lat="41.264925" lon="14.121465"><ele>133.0</ele><time>2026-05-04T12:29:36.402Z</time></trkpt><trkpt lat="41.26494" lon="14.12136"><ele>133.0</ele><time>2026-05-04T12:29:37.404Z</time></trkpt><trkpt lat="41.264955" lon="14.1212533"><ele>133.0</ele><time>2026-05-04T12:29:38.403Z</time></trkpt><trkpt lat="41.2649733" lon="14.121145"><ele>133.0</ele><time>2026-05-04T12:29:39.403Z</time></trkpt><trkpt lat="41.2649917" lon="14.12104"><ele>133.0</ele><time>2026-05-04T12:29:40.402Z</time></trkpt><trkpt lat="41.2650083" lon="14.1209283"><ele>133.0</ele><time>2026-05-04T12:29:41.403Z</time></trkpt><trkpt lat="41.2650267" lon="14.1208167"><ele>132.66666666666669</ele><time>2026-05-04T12:29:42.405Z</time></trkpt><trkpt lat="41.265045" lon="14.1207083"><ele>132.33333333333334</ele><time>2026-05-04T12:29:43.404Z</time></trkpt><trkpt lat="41.2650633" lon="14.1205983"><ele>132.0</ele><time>2026-05-04T12:29:44.402Z</time></trkpt><trkpt lat="41.26508" lon="14.1204883"><ele>131.66666666666666</ele><time>2026-05-04T12:29:45.405Z</time></trkpt><trkpt lat="41.2650967" lon="14.1203783"><ele>131.33333333333331</ele><time>2026-05-04T12:29:46.404Z</time></trkpt><trkpt lat="41.2651183" lon="14.12027"><ele>131.0</ele><time>2026-05-04T12:29:47.404Z</time></trkpt><trkpt lat="41.2651433" lon="14.1201667"><ele>131.0</ele><time>2026-05-04T12:29:48.402Z</time></trkpt><trkpt lat="41.2651617" lon="14.12006"><ele>131.0</ele><time>2026-05-04T12:29:49.404Z</time></trkpt><trkpt lat="41.2651767" lon="14.11995"><ele>131.0</ele><time>2026-05-04T12:29:50.404Z</time></trkpt><trkpt lat="41.26519" lon="14.119845"><ele>131.0</ele><time>2026-05-04T12:29:51.403Z</time></trkpt><trkpt lat="41.26521" lon="14.119745"><ele>131.0</ele><time>2026-05-04T12:29:52.404Z</time></trkpt><trkpt lat="41.2652233" lon="14.1196417"><ele>131.0</ele><time>2026-05-04T12:29:53.405Z</time></trkpt><trkpt lat="41.265235" lon="14.1195317"><ele>130.5</ele><time>2026-05-04T12:29:54.403Z</time></trkpt><trkpt lat="41.2652467" lon="14.1194217"><ele>130.0</ele><time>2026-05-04T12:29:55.404Z</time></trkpt><trkpt lat="41.265255" lon="14.1193117"><ele>129.5</ele><time>2026-05-04T12:29:56.404Z</time></trkpt><trkpt lat="41.2652683" lon="14.1192067"><ele>129.0</ele><time>2026-05-04T12:29:57.404Z</time></trkpt><trkpt lat="41.2652817" lon="14.1191017"><ele>128.5</ele><time>2026-05-04T12:29:58.403Z</time></trkpt><trkpt lat="41.2653067" lon="14.1190067"><ele>128.0</ele><time>2026-05-04T12:29:59.403Z</time></trkpt><trkpt lat="41.2653217" lon="14.1189033"><ele>127.99999999999999</ele><time>2026-05-04T12:30:00.403Z</time></trkpt><trkpt lat="41.2653383" lon="14.118805"><ele>128.0</ele><time>2026-05-04T12:30:01.403Z</time></trkpt><trkpt lat="41.265355" lon="14.118705"><ele>128.0</ele><time>2026-05-04T12:30:02.402Z</time></trkpt><trkpt lat="41.2653667" lon="14.1186033"><ele>128.0</ele><time>2026-05-04T12:30:03.404Z</time></trkpt><trkpt lat="41.26538" lon="14.1185"><ele>127.99999999999999</ele><time>2026-05-04T12:30:04.403Z</time></trkpt><trkpt lat="41.2654017" lon="14.118405"><ele>128.0</ele><time>2026-05-04T12:30:05.403Z</time></trkpt><trkpt lat="41.2654217" lon="14.1183017"><ele>128.16666666666666</ele><time>2026-05-04T12:30:06.403Z</time></trkpt><trkpt lat="41.2654383" lon="14.1181983"><ele>128.33333333333331</ele><time>2026-05-04T12:30:07.403Z</time></trkpt><trkpt lat="41.2654567" lon="14.1180933"><ele>128.5</ele><time>2026-05-04T12:30:08.403Z</time></trkpt><trkpt lat="41.2654733" lon="14.1179883"><ele>128.66666666666666</ele><time>2026-05-04T12:30:09.403Z</time></trkpt><trkpt lat="41.26549" lon="14.117885"><ele>128.83333333333334</ele><time>2026-05-04T12:30:10.404Z</time></trkpt><trkpt lat="41.265505" lon="14.11778"><ele>129.0</ele><time>2026-05-04T12:30:11.404Z</time></trkpt><trkpt lat="41.2655217" lon="14.1176817"><ele>129.0</ele><time>2026-05-04T12:30:12.404Z</time></trkpt><trkpt lat="41.2655367" lon="14.11758"><ele>129.0</ele><time>2026-05-04T12:30:13.403Z</time></trkpt><trkpt lat="41.2655533" lon="14.1174767"><ele>129.0</ele><time>2026-05-04T12:30:14.403Z</time></trkpt><trkpt lat="41.2655683" lon="14.117375"><ele>129.0</ele><time>2026-05-04T12:30:15.403Z</time></trkpt><trkpt lat="41.2655833" lon="14.1172733"><ele>129.0</ele><time>2026-05-04T12:30:16.403Z</time></trkpt><trkpt lat="41.2656" lon="14.1171733"><ele>129.0</ele><time>2026-05-04T12:30:17.405Z</time></trkpt><trkpt lat="41.2656233" lon="14.1170833"><ele>130.28571428571428</ele><time>2026-05-04T12:30:18.403Z</time></trkpt><trkpt lat="41.2656417" lon="14.117"><ele>131.57142857142856</ele><time>2026-05-04T12:30:19.403Z</time></trkpt><trkpt lat="41.2656567" lon="14.1169183"><ele>132.85714285714286</ele><time>2026-05-04T12:30:20.402Z</time></trkpt><trkpt lat="41.2656667" lon="14.1168333"><ele>134.14285714285714</ele><time>2026-05-04T12:30:21.403Z</time></trkpt><trkpt lat="41.265675" lon="14.1167483"><ele>135.42857142857144</ele><time>2026-05-04T12:30:22.403Z</time></trkpt><trkpt lat="41.2656867" lon="14.1166617"><ele>136.71428571428572</ele><time>2026-05-04T12:30:23.404Z</time></trkpt><trkpt lat="41.26571" lon="14.116505"><ele>138.0</ele><time>2026-05-04T12:30:25.404Z</time></trkpt><trkpt lat="41.265735" lon="14.116345"><ele>138.0</ele><time>2026-05-04T12:30:27.402Z</time></trkpt><trkpt lat="41.2657533" lon="14.1161933"><ele>138.0</ele><time>2026-05-04T12:30:29.403Z</time></trkpt><trkpt lat="41.26577" lon="14.1160367"><ele>138.0</ele><time>2026-05-04T12:30:31.402Z</time></trkpt><trkpt lat="41.2657917" lon="14.1158833"><ele>138.0</ele><time>2026-05-04T12:30:33.404Z</time></trkpt><trkpt lat="41.265805" lon="14.1157267"><ele>137.4</ele><time>2026-05-04T12:30:35.404Z</time></trkpt><trkpt lat="41.2658017" lon="14.1156"><ele>136.8</ele><time>2026-05-04T12:30:37.404Z</time></trkpt><trkpt lat="41.265765" lon="14.1155017"><ele>136.2</ele><time>2026-05-04T12:30:39.402Z</time></trkpt><trkpt lat="41.2656983" lon="14.115405"><ele>135.6</ele><time>2026-05-04T12:30:41.403Z</time></trkpt><trkpt lat="41.2656033" lon="14.1153133"><ele>135.0</ele><time>2026-05-04T12:30:43.404Z</time></trkpt><trkpt lat="41.2654883" lon="14.11525"><ele>134.33333333333334</ele><time>2026-05-04T12:30:45.403Z</time></trkpt><trkpt lat="41.2654183" lon="14.1152133"><ele>133.66666666666666</ele><time>2026-05-04T12:30:46.404Z</time></trkpt><trkpt lat="41.26535" lon="14.1151783"><ele>133.0</ele><time>2026-05-04T12:30:47.404Z</time></trkpt><trkpt lat="41.26528" lon="14.1151383"><ele>132.33333333333331</ele><time>2026-05-04T12:30:48.403Z</time></trkpt><trkpt lat="41.26521" lon="14.1150967"><ele>131.66666666666666</ele><time>2026-05-04T12:30:49.403Z</time></trkpt><trkpt lat="41.2651367" lon="14.11505"><ele>131.0</ele><time>2026-05-04T12:30:50.404Z</time></trkpt><trkpt lat="41.2650667" lon="14.1150117"><ele>131.0</ele><time>2026-05-04T12:30:51.406Z</time></trkpt><trkpt lat="41.2650033" lon="14.1149767"><ele>131.0</ele><time>2026-05-04T12:30:52.401Z</time></trkpt><trkpt lat="41.26494" lon="14.1149417"><ele>131.0</ele><time>2026-05-04T12:30:53.403Z</time></trkpt><trkpt lat="41.2648767" lon="14.1149067"><ele>131.0</ele><time>2026-05-04T12:30:54.402Z</time></trkpt><trkpt lat="41.2648133" lon="14.1148767"><ele>131.0</ele><time>2026-05-04T12:30:55.403Z</time></trkpt><trkpt lat="41.2646933" lon="14.114815"><ele>131.0</ele><time>2026-05-04T12:30:57.402Z</time></trkpt><trkpt lat="41.2646333" lon="14.1147833"><ele>131.4</ele><time>2026-05-04T12:30:58.403Z</time></trkpt><trkpt lat="41.2645717" lon="14.1147467"><ele>131.8</ele><time>2026-05-04T12:30:59.401Z</time></trkpt><trkpt lat="41.264455" lon="14.1146817"><ele>132.20000000000002</ele><time>2026-05-04T12:31:01.402Z</time></trkpt><trkpt lat="41.2643933" lon="14.1146517"><ele>132.6</ele><time>2026-05-04T12:31:02.401Z</time></trkpt><trkpt lat="41.26428" lon="14.11459"><ele>133.0</ele><time>2026-05-04T12:31:04.403Z</time></trkpt><trkpt lat="41.2641683" lon="14.11453"><ele>133.0</ele><time>2026-05-04T12:31:06.403Z</time></trkpt><trkpt lat="41.2640583" lon="14.1144683"><ele>133.0</ele><time>2026-05-04T12:31:08.403Z</time></trkpt><trkpt lat="41.2639517" lon="14.1144067"><ele>133.0</ele><time>2026-05-04T12:31:10.402Z</time></trkpt><trkpt lat="41.2638517" lon="14.1143517"><ele>133.0</ele><time>2026-05-04T12:31:12.403Z</time></trkpt><trkpt lat="41.2637517" lon="14.1143"><ele>133.4</ele><time>2026-05-04T12:31:14.403Z</time></trkpt><trkpt lat="41.2636567" lon="14.1142417"><ele>133.8</ele><time>2026-05-04T12:31:16.403Z</time></trkpt><trkpt lat="41.2635583" lon="14.1141867"><ele>134.2</ele><time>2026-05-04T12:31:18.402Z</time></trkpt><trkpt lat="41.2634617" lon="14.1141383"><ele>134.6</ele><time>2026-05-04T12:31:20.402Z</time></trkpt><trkpt lat="41.2633633" lon="14.1140833"><ele>135.0</ele><time>2026-05-04T12:31:22.403Z</time></trkpt><trkpt lat="41.26326" lon="14.11403"><ele>135.8</ele><time>2026-05-04T12:31:24.406Z</time></trkpt><trkpt lat="41.2631633" lon="14.11398"><ele>136.6</ele><time>2026-05-04T12:31:26.402Z</time></trkpt><trkpt lat="41.2630767" lon="14.113935"><ele>137.4</ele><time>2026-05-04T12:31:28.403Z</time></trkpt><trkpt lat="41.2629933" lon="14.1138867"><ele>138.2</ele><time>2026-05-04T12:31:30.403Z</time></trkpt><trkpt lat="41.2629083" lon="14.1138417"><ele>139.0</ele><time>2026-05-04T12:31:32.403Z</time></trkpt><trkpt lat="41.26281" lon="14.113795"><ele>139.2</ele><time>2026-05-04T12:31:34.403Z</time></trkpt><trkpt lat="41.2627183" lon="14.11375"><ele>139.4</ele><time>2026-05-04T12:31:36.403Z</time></trkpt><trkpt lat="41.262625" lon="14.1137083"><ele>139.6</ele><time>2026-05-04T12:31:38.403Z</time></trkpt><trkpt lat="41.2625333" lon="14.1136733"><ele>139.8</ele><time>2026-05-04T12:31:40.403Z</time></trkpt><trkpt lat="41.2624383" lon="14.11364"><ele>140.0</ele><time>2026-05-04T12:31:42.403Z</time></trkpt><trkpt lat="41.2623383" lon="14.1136183"><ele>140.4</ele><time>2026-05-04T12:31:44.403Z</time></trkpt><trkpt lat="41.26224" lon="14.1136017"><ele>140.8</ele><time>2026-05-04T12:31:46.404Z</time></trkpt><trkpt lat="41.262135" lon="14.1135783"><ele>141.2</ele><time>2026-05-04T12:31:48.404Z</time></trkpt><trkpt lat="41.2620233" lon="14.113565"><ele>141.6</ele><time>2026-05-04T12:31:50.403Z</time></trkpt><trkpt lat="41.2619117" lon="14.1135633"><ele>142.0</ele><time>2026-05-04T12:31:52.403Z</time></trkpt><trkpt lat="41.2617967" lon="14.1135667"><ele>142.0</ele><time>2026-05-04T12:31:54.403Z</time></trkpt><trkpt lat="41.2616783" lon="14.1135683"><ele>142.0</ele><time>2026-05-04T12:31:56.403Z</time></trkpt><trkpt lat="41.2615583" lon="14.1135783"><ele>142.0</ele><time>2026-05-04T12:31:58.403Z</time></trkpt><trkpt lat="41.2614383" lon="14.1135867"><ele>142.0</ele><time>2026-05-04T12:32:00.406Z</time></trkpt><trkpt lat="41.261315" lon="14.1135867"><ele>142.16666666666669</ele><time>2026-05-04T12:32:02.403Z</time></trkpt><trkpt lat="41.2612517" lon="14.1135867"><ele>142.33333333333334</ele><time>2026-05-04T12:32:03.403Z</time></trkpt><trkpt lat="41.2611267" lon="14.1135917"><ele>142.5</ele><time>2026-05-04T12:32:05.403Z</time></trkpt><trkpt lat="41.261" lon="14.1135983"><ele>142.66666666666666</ele><time>2026-05-04T12:32:07.403Z</time></trkpt><trkpt lat="41.2609333" lon="14.1136033"><ele>142.83333333333331</ele><time>2026-05-04T12:32:08.403Z</time></trkpt><trkpt lat="41.2608683" lon="14.113605"><ele>143.0</ele><time>2026-05-04T12:32:09.403Z</time></trkpt><trkpt lat="41.2608" lon="14.1136067"><ele>142.99999999999997</ele><time>2026-05-04T12:32:10.403Z</time></trkpt><trkpt lat="41.2607333" lon="14.11361"><ele>143.0</ele><time>2026-05-04T12:32:11.403Z</time></trkpt><trkpt lat="41.2606617" lon="14.11361"><ele>143.0</ele><time>2026-05-04T12:32:12.403Z</time></trkpt><trkpt lat="41.2605933" lon="14.1136133"><ele>143.0</ele><time>2026-05-04T12:32:13.403Z</time></trkpt><trkpt lat="41.2605233" lon="14.1136217"><ele>143.0</ele><time>2026-05-04T12:32:14.403Z</time></trkpt><trkpt lat="41.2604533" lon="14.1136267"><ele>142.99999999999997</ele><time>2026-05-04T12:32:15.403Z</time></trkpt><trkpt lat="41.26038" lon="14.11363"><ele>143.0</ele><time>2026-05-04T12:32:16.403Z</time></trkpt><trkpt lat="41.2603067" lon="14.1136317"><ele>142.33333333333331</ele><time>2026-05-04T12:32:17.403Z</time></trkpt><trkpt lat="41.2602317" lon="14.1136367"><ele>141.66666666666666</ele><time>2026-05-04T12:32:18.403Z</time></trkpt><trkpt lat="41.260155" lon="14.1136417"><ele>141.0</ele><time>2026-05-04T12:32:19.402Z</time></trkpt><trkpt lat="41.2600783" lon="14.1136467"><ele>140.33333333333334</ele><time>2026-05-04T12:32:20.403Z</time></trkpt><trkpt lat="41.26" lon="14.11365"><ele>139.66666666666669</ele><time>2026-05-04T12:32:21.403Z</time></trkpt><trkpt lat="41.2599217" lon="14.113655"><ele>139.0</ele><time>2026-05-04T12:32:22.403Z</time></trkpt><trkpt lat="41.2598433" lon="14.113655"><ele>138.5</ele><time>2026-05-04T12:32:23.403Z</time></trkpt><trkpt lat="41.2597633" lon="14.113655"><ele>138.0</ele><time>2026-05-04T12:32:24.404Z</time></trkpt><trkpt lat="41.25968" lon="14.1136517"><ele>137.5</ele><time>2026-05-04T12:32:25.402Z</time></trkpt><trkpt lat="41.2595983" lon="14.113655"><ele>137.0</ele><time>2026-05-04T12:32:26.403Z</time></trkpt><trkpt lat="41.2595133" lon="14.1136617"><ele>136.5</ele><time>2026-05-04T12:32:27.403Z</time></trkpt><trkpt lat="41.25943" lon="14.1136667"><ele>136.0</ele><time>2026-05-04T12:32:28.403Z</time></trkpt><trkpt lat="41.2593433" lon="14.1136683"><ele>136.0</ele><time>2026-05-04T12:32:29.403Z</time></trkpt><trkpt lat="41.2592533" lon="14.1136733"><ele>136.0</ele><time>2026-05-04T12:32:30.403Z</time></trkpt><trkpt lat="41.2591633" lon="14.1136767"><ele>136.0</ele><time>2026-05-04T12:32:31.403Z</time></trkpt><trkpt lat="41.2590717" lon="14.1136817"><ele>136.0</ele><time>2026-05-04T12:32:32.403Z</time></trkpt><trkpt lat="41.25898" lon="14.1136817"><ele>136.0</ele><time>2026-05-04T12:32:33.402Z</time></trkpt><trkpt lat="41.25889" lon="14.1136883"><ele>135.6</ele><time>2026-05-04T12:32:34.403Z</time></trkpt><trkpt lat="41.2588" lon="14.1136917"><ele>135.2</ele><time>2026-05-04T12:32:35.402Z</time></trkpt><trkpt lat="41.2587067" lon="14.1136983"><ele>134.8</ele><time>2026-05-04T12:32:36.403Z</time></trkpt><trkpt lat="41.2586183" lon="14.1137083"><ele>134.4</ele><time>2026-05-04T12:32:37.403Z</time></trkpt><trkpt lat="41.2585283" lon="14.1137183"><ele>134.0</ele><time>2026-05-04T12:32:38.404Z</time></trkpt><trkpt lat="41.25844" lon="14.11373"><ele>134.0</ele><time>2026-05-04T12:32:39.403Z</time></trkpt><trkpt lat="41.2583533" lon="14.1137383"><ele>134.0</ele><time>2026-05-04T12:32:40.403Z</time></trkpt><trkpt lat="41.2582633" lon="14.1137467"><ele>134.0</ele><time>2026-05-04T12:32:41.404Z</time></trkpt><trkpt lat="41.2581733" lon="14.1137517"><ele>134.0</ele><time>2026-05-04T12:32:42.403Z</time></trkpt><trkpt lat="41.258085" lon="14.11376"><ele>134.0</ele><time>2026-05-04T12:32:43.402Z</time></trkpt><trkpt lat="41.2579983" lon="14.1137683"><ele>134.0</ele><time>2026-05-04T12:32:44.403Z</time></trkpt><trkpt lat="41.2579117" lon="14.113775"><ele>133.83333333333331</ele><time>2026-05-04T12:32:45.402Z</time></trkpt><trkpt lat="41.2578233" lon="14.1137783"><ele>133.66666666666666</ele><time>2026-05-04T12:32:46.403Z</time></trkpt><trkpt lat="41.2577383" lon="14.1137817"><ele>133.5</ele><time>2026-05-04T12:32:47.402Z</time></trkpt><trkpt lat="41.257655" lon="14.1137883"><ele>133.33333333333334</ele><time>2026-05-04T12:32:48.402Z</time></trkpt><trkpt lat="41.25757" lon="14.1137933"><ele>133.16666666666669</ele><time>2026-05-04T12:32:49.403Z</time></trkpt><trkpt lat="41.257485" lon="14.1137983"><ele>133.0</ele><time>2026-05-04T12:32:50.403Z</time></trkpt><trkpt lat="41.2573967" lon="14.1137967"><ele>133.0</ele><time>2026-05-04T12:32:51.403Z</time></trkpt><trkpt lat="41.25731" lon="14.1137967"><ele>133.0</ele><time>2026-05-04T12:32:52.403Z</time></trkpt><trkpt lat="41.2572233" lon="14.1137983"><ele>133.0</ele><time>2026-05-04T12:32:53.402Z</time></trkpt><trkpt lat="41.25714" lon="14.1138"><ele>133.0</ele><time>2026-05-04T12:32:54.403Z</time></trkpt><trkpt lat="41.2570483" lon="14.1137817"><ele>133.0</ele><time>2026-05-04T12:32:55.404Z</time></trkpt><trkpt lat="41.2569617" lon="14.1137583"><ele>133.0</ele><time>2026-05-04T12:32:56.403Z</time></trkpt><trkpt lat="41.256875" lon="14.1137217"><ele>133.0</ele><time>2026-05-04T12:32:57.403Z</time></trkpt><trkpt lat="41.2567917" lon="14.1136783"><ele>133.0</ele><time>2026-05-04T12:32:58.403Z</time></trkpt><trkpt lat="41.2567083" lon="14.113635"><ele>133.0</ele><time>2026-05-04T12:32:59.403Z</time></trkpt><trkpt lat="41.2566217" lon="14.1135883"><ele>133.0</ele><time>2026-05-04T12:33:00.403Z</time></trkpt><trkpt lat="41.256535" lon="14.113545"><ele>133.0</ele><time>2026-05-04T12:33:01.404Z</time></trkpt><trkpt lat="41.2564467" lon="14.1134983"><ele>133.0</ele><time>2026-05-04T12:33:02.403Z</time></trkpt><trkpt lat="41.2563617" lon="14.113445"><ele>133.0</ele><time>2026-05-04T12:33:03.402Z</time></trkpt><trkpt lat="41.2562733" lon="14.1133933"><ele>133.0</ele><time>2026-05-04T12:33:04.402Z</time></trkpt><trkpt lat="41.256185" lon="14.1133467"><ele>133.0</ele><time>2026-05-04T12:33:05.404Z</time></trkpt><trkpt lat="41.2560933" lon="14.1132967"><ele>133.0</ele><time>2026-05-04T12:33:06.406Z</time></trkpt><trkpt lat="41.2560033" lon="14.113245"><ele>132.4</ele><time>2026-05-04T12:33:07.403Z</time></trkpt><trkpt lat="41.25591" lon="14.1131933"><ele>131.8</ele><time>2026-05-04T12:33:08.403Z</time></trkpt><trkpt lat="41.255815" lon="14.11314"><ele>131.2</ele><time>2026-05-04T12:33:09.402Z</time></trkpt><trkpt lat="41.2557183" lon="14.1130833"><ele>130.6</ele><time>2026-05-04T12:33:10.403Z</time></trkpt><trkpt lat="41.25562" lon="14.1130317"><ele>130.0</ele><time>2026-05-04T12:33:11.402Z</time></trkpt><trkpt lat="41.25552" lon="14.11298"><ele>130.0</ele><time>2026-05-04T12:33:12.403Z</time></trkpt><trkpt lat="41.25542" lon="14.1129283"><ele>130.0</ele><time>2026-05-04T12:33:13.402Z</time></trkpt><trkpt lat="41.2553217" lon="14.1128783"><ele>130.0</ele><time>2026-05-04T12:33:14.402Z</time></trkpt><trkpt lat="41.2552217" lon="14.11283"><ele>130.0</ele><time>2026-05-04T12:33:15.403Z</time></trkpt><trkpt lat="41.255125" lon="14.1127783"><ele>130.0</ele><time>2026-05-04T12:33:16.404Z</time></trkpt><trkpt lat="41.2550317" lon="14.1127233"><ele>130.0</ele><time>2026-05-04T12:33:17.402Z</time></trkpt><trkpt lat="41.2549383" lon="14.1126683"><ele>130.0</ele><time>2026-05-04T12:33:18.404Z</time></trkpt><trkpt lat="41.2548467" lon="14.1126183"><ele>130.0</ele><time>2026-05-04T12:33:19.403Z</time></trkpt><trkpt lat="41.25475" lon="14.1125683"><ele>130.0</ele><time>2026-05-04T12:33:20.403Z</time></trkpt><trkpt lat="41.25465" lon="14.1125217"><ele>130.0</ele><time>2026-05-04T12:33:21.403Z</time></trkpt><trkpt lat="41.2545533" lon="14.1124683"><ele>130.0</ele><time>2026-05-04T12:33:22.403Z</time></trkpt><trkpt lat="41.2544583" lon="14.1124133"><ele>130.0</ele><time>2026-05-04T12:33:23.403Z</time></trkpt><trkpt lat="41.2543617" lon="14.1123617"><ele>130.0</ele><time>2026-05-04T12:33:24.402Z</time></trkpt><trkpt lat="41.2542617" lon="14.1123133"><ele>130.0</ele><time>2026-05-04T12:33:25.403Z</time></trkpt><trkpt lat="41.2541617" lon="14.112265"><ele>130.0</ele><time>2026-05-04T12:33:26.403Z</time></trkpt><trkpt lat="41.2540633" lon="14.1122133"><ele>129.2</ele><time>2026-05-04T12:33:27.403Z</time></trkpt><trkpt lat="41.253965" lon="14.1121633"><ele>128.4</ele><time>2026-05-04T12:33:28.403Z</time></trkpt><trkpt lat="41.2538667" lon="14.1121133"><ele>127.6</ele><time>2026-05-04T12:33:29.404Z</time></trkpt><trkpt lat="41.25377" lon="14.1120617"><ele>126.8</ele><time>2026-05-04T12:33:30.403Z</time></trkpt><trkpt lat="41.2536733" lon="14.1120067"><ele>126.0</ele><time>2026-05-04T12:33:31.403Z</time></trkpt><trkpt lat="41.2535783" lon="14.111955"><ele>126.0</ele><time>2026-05-04T12:33:32.405Z</time></trkpt><trkpt lat="41.2534817" lon="14.1119067"><ele>126.0</ele><time>2026-05-04T12:33:33.403Z</time></trkpt><trkpt lat="41.2533883" lon="14.111855"><ele>126.0</ele><time>2026-05-04T12:33:34.403Z</time></trkpt><trkpt lat="41.2532933" lon="14.1118033"><ele>126.0</ele><time>2026-05-04T12:33:35.403Z</time></trkpt><trkpt lat="41.2531983" lon="14.1117517"><ele>126.0</ele><time>2026-05-04T12:33:36.403Z</time></trkpt><trkpt lat="41.2531017" lon="14.1117033"><ele>125.6</ele><time>2026-05-04T12:33:37.403Z</time></trkpt><trkpt lat="41.253005" lon="14.1116583"><ele>125.19999999999999</ele><time>2026-05-04T12:33:38.403Z</time></trkpt><trkpt lat="41.2529083" lon="14.1116117"><ele>124.80000000000001</ele><time>2026-05-04T12:33:39.403Z</time></trkpt><trkpt lat="41.2528117" lon="14.1115617"><ele>124.4</ele><time>2026-05-04T12:33:40.403Z</time></trkpt><trkpt lat="41.252715" lon="14.1115117"><ele>124.0</ele><time>2026-05-04T12:33:41.404Z</time></trkpt><trkpt lat="41.25262" lon="14.1114567"><ele>123.80000000000001</ele><time>2026-05-04T12:33:42.403Z</time></trkpt><trkpt lat="41.2525217" lon="14.1114"><ele>123.60000000000001</ele><time>2026-05-04T12:33:43.405Z</time></trkpt><trkpt lat="41.2524217" lon="14.1113433"><ele>123.4</ele><time>2026-05-04T12:33:44.403Z</time></trkpt><trkpt lat="41.25232" lon="14.1112883"><ele>123.2</ele><time>2026-05-04T12:33:45.402Z</time></trkpt><trkpt lat="41.2522183" lon="14.1112317"><ele>123.0</ele><time>2026-05-04T12:33:46.404Z</time></trkpt><trkpt lat="41.2521133" lon="14.11117"><ele>121.75</ele><time>2026-05-04T12:33:47.403Z</time></trkpt><trkpt lat="41.2520067" lon="14.1111067"><ele>120.5</ele><time>2026-05-04T12:33:48.402Z</time></trkpt><trkpt lat="41.2519017" lon="14.1110467"><ele>119.25</ele><time>2026-05-04T12:33:49.402Z</time></trkpt><trkpt lat="41.25179" lon="14.1109817"><ele>118.0</ele><time>2026-05-04T12:33:50.403Z</time></trkpt><trkpt lat="41.2516783" lon="14.1109117"><ele>118.0</ele><time>2026-05-04T12:33:51.403Z</time></trkpt><trkpt lat="41.25157" lon="14.1108383"><ele>118.0</ele><time>2026-05-04T12:33:52.403Z</time></trkpt><trkpt lat="41.25146" lon="14.1107683"><ele>118.0</ele><time>2026-05-04T12:33:53.403Z</time></trkpt><trkpt lat="41.25135" lon="14.1106967"><ele>118.0</ele><time>2026-05-04T12:33:54.403Z</time></trkpt><trkpt lat="41.2512433" lon="14.11063"><ele>116.25</ele><time>2026-05-04T12:33:55.406Z</time></trkpt><trkpt lat="41.2511367" lon="14.110565"><ele>114.5</ele><time>2026-05-04T12:33:56.403Z</time></trkpt><trkpt lat="41.25103" lon="14.1104967"><ele>112.75</ele><time>2026-05-04T12:33:57.402Z</time></trkpt><trkpt lat="41.250925" lon="14.1104283"><ele>111.0</ele><time>2026-05-04T12:33:58.402Z</time></trkpt><trkpt lat="41.2508167" lon="14.11036"><ele>111.0</ele><time>2026-05-04T12:33:59.403Z</time></trkpt><trkpt lat="41.2507083" lon="14.1102967"><ele>111.0</ele><time>2026-05-04T12:34:00.403Z</time></trkpt><trkpt lat="41.2506017" lon="14.1102317"><ele>111.0</ele><time>2026-05-04T12:34:01.403Z</time></trkpt><trkpt lat="41.250495" lon="14.1101683"><ele>111.0</ele><time>2026-05-04T12:34:02.403Z</time></trkpt><trkpt lat="41.2503833" lon="14.1100967"><ele>110.5</ele><time>2026-05-04T12:34:03.403Z</time></trkpt><trkpt lat="41.250275" lon="14.11003"><ele>110.0</ele><time>2026-05-04T12:34:04.402Z</time></trkpt><trkpt lat="41.2501667" lon="14.109965"><ele>109.5</ele><time>2026-05-04T12:34:05.403Z</time></trkpt><trkpt lat="41.2500617" lon="14.1099033"><ele>109.0</ele><time>2026-05-04T12:34:06.403Z</time></trkpt><trkpt lat="41.2499583" lon="14.1098433"><ele>108.4</ele><time>2026-05-04T12:34:07.403Z</time></trkpt><trkpt lat="41.2498567" lon="14.1097817"><ele>107.80000000000001</ele><time>2026-05-04T12:34:08.403Z</time></trkpt><trkpt lat="41.2497567" lon="14.10972"><ele>107.19999999999999</ele><time>2026-05-04T12:34:09.406Z</time></trkpt><trkpt lat="41.2496567" lon="14.1096617"><ele>106.6</ele><time>2026-05-04T12:34:10.402Z</time></trkpt><trkpt lat="41.2495583" lon="14.1096033"><ele>106.0</ele><time>2026-05-04T12:34:11.404Z</time></trkpt><trkpt lat="41.2494633" lon="14.10955"><ele>107.16666666666667</ele><time>2026-05-04T12:34:12.403Z</time></trkpt><trkpt lat="41.249375" lon="14.1094983"><ele>108.33333333333334</ele><time>2026-05-04T12:34:13.403Z</time></trkpt><trkpt lat="41.2492917" lon="14.109445"><ele>109.5</ele><time>2026-05-04T12:34:14.403Z</time></trkpt><trkpt lat="41.2492133" lon="14.1094"><ele>110.66666666666666</ele><time>2026-05-04T12:34:15.402Z</time></trkpt><trkpt lat="41.2491367" lon="14.10936"><ele>111.83333333333333</ele><time>2026-05-04T12:34:16.402Z</time></trkpt><trkpt lat="41.2490617" lon="14.1093233"><ele>113.0</ele><time>2026-05-04T12:34:17.403Z</time></trkpt><trkpt lat="41.2489883" lon="14.109285"><ele>113.28571428571429</ele><time>2026-05-04T12:34:18.403Z</time></trkpt><trkpt lat="41.2489167" lon="14.10924"><ele>113.57142857142856</ele><time>2026-05-04T12:34:19.403Z</time></trkpt><trkpt lat="41.24885" lon="14.109195"><ele>113.85714285714285</ele><time>2026-05-04T12:34:20.402Z</time></trkpt><trkpt lat="41.248785" lon="14.1091517"><ele>114.14285714285714</ele><time>2026-05-04T12:34:21.403Z</time></trkpt><trkpt lat="41.2487183" lon="14.10911"><ele>114.42857142857142</ele><time>2026-05-04T12:34:22.402Z</time></trkpt><trkpt lat="41.248655" lon="14.1090767"><ele>114.7142857142857</ele><time>2026-05-04T12:34:23.402Z</time></trkpt><trkpt lat="41.24859" lon="14.1090383"><ele>114.99999999999999</ele><time>2026-05-04T12:34:24.403Z</time></trkpt><trkpt lat="41.2485267" lon="14.109"><ele>114.99999999999999</ele><time>2026-05-04T12:34:25.404Z</time></trkpt><trkpt lat="41.248465" lon="14.1089633"><ele>115.0</ele><time>2026-05-04T12:34:26.405Z</time></trkpt><trkpt lat="41.2484033" lon="14.1089233"><ele>114.99999999999999</ele><time>2026-05-04T12:34:27.403Z</time></trkpt><trkpt lat="41.2483433" lon="14.1088767"><ele>114.99999999999999</ele><time>2026-05-04T12:34:28.403Z</time></trkpt><trkpt lat="41.2482833" lon="14.1088317"><ele>115.0</ele><time>2026-05-04T12:34:29.402Z</time></trkpt><trkpt lat="41.2482233" lon="14.108785"><ele>114.99999999999999</ele><time>2026-05-04T12:34:30.403Z</time></trkpt><trkpt lat="41.2481617" lon="14.1087383"><ele>114.99999999999999</ele><time>2026-05-04T12:34:31.406Z</time></trkpt><trkpt lat="41.2481" lon="14.1086917"><ele>115.42857142857142</ele><time>2026-05-04T12:34:32.402Z</time></trkpt><trkpt lat="41.2480383" lon="14.1086433"><ele>115.85714285714286</ele><time>2026-05-04T12:34:33.402Z</time></trkpt><trkpt lat="41.2479783" lon="14.1085983"><ele>116.28571428571428</ele><time>2026-05-04T12:34:34.403Z</time></trkpt><trkpt lat="41.24792" lon="14.108555"><ele>116.71428571428571</ele><time>2026-05-04T12:34:35.407Z</time></trkpt><trkpt lat="41.2478617" lon="14.10851"><ele>117.14285714285714</ele><time>2026-05-04T12:34:36.403Z</time></trkpt><trkpt lat="41.2478033" lon="14.1084683"><ele>117.57142857142857</ele><time>2026-05-04T12:34:37.402Z</time></trkpt><trkpt lat="41.247745" lon="14.1084267"><ele>118.0</ele><time>2026-05-04T12:34:38.403Z</time></trkpt><trkpt lat="41.2476333" lon="14.1083433"><ele>118.0</ele><time>2026-05-04T12:34:40.403Z</time></trkpt><trkpt lat="41.2475283" lon="14.1082583"><ele>118.0</ele><time>2026-05-04T12:34:42.401Z</time></trkpt><trkpt lat="41.24742" lon="14.10818"><ele>118.0</ele><time>2026-05-04T12:34:44.403Z</time></trkpt><trkpt lat="41.2473083" lon="14.10811"><ele>118.0</ele><time>2026-05-04T12:34:46.402Z</time></trkpt><trkpt lat="41.2472117" lon="14.1080367"><ele>118.80000000000001</ele><time>2026-05-04T12:34:48.402Z</time></trkpt><trkpt lat="41.24711" lon="14.1079733"><ele>119.60000000000001</ele><time>2026-05-04T12:34:50.402Z</time></trkpt><trkpt lat="41.2470183" lon="14.1079017"><ele>120.39999999999999</ele><time>2026-05-04T12:34:52.405Z</time></trkpt><trkpt lat="41.2469267" lon="14.107835"><ele>121.19999999999999</ele><time>2026-05-04T12:34:54.402Z</time></trkpt><trkpt lat="41.2468367" lon="14.1077683"><ele>122.0</ele><time>2026-05-04T12:34:56.401Z</time></trkpt><trkpt lat="41.24675" lon="14.1077017"><ele>122.0</ele><time>2026-05-04T12:34:58.402Z</time></trkpt><trkpt lat="41.2466567" lon="14.1076383"><ele>121.99999999999999</ele><time>2026-05-04T12:35:00.405Z</time></trkpt><trkpt lat="41.2465583" lon="14.1075683"><ele>121.99999999999999</ele><time>2026-05-04T12:35:02.402Z</time></trkpt><trkpt lat="41.2464617" lon="14.1074983"><ele>122.0</ele><time>2026-05-04T12:35:04.402Z</time></trkpt><trkpt lat="41.246365" lon="14.107425"><ele>122.0</ele><time>2026-05-04T12:35:06.402Z</time></trkpt><trkpt lat="41.2462767" lon="14.1073567"><ele>122.8</ele><time>2026-05-04T12:35:08.401Z</time></trkpt><trkpt lat="41.2461917" lon="14.1072917"><ele>123.6</ele><time>2026-05-04T12:35:10.402Z</time></trkpt><trkpt lat="41.246105" lon="14.107235"><ele>124.39999999999999</ele><time>2026-05-04T12:35:12.402Z</time></trkpt><trkpt lat="41.2460183" lon="14.1071783"><ele>125.19999999999999</ele><time>2026-05-04T12:35:14.402Z</time></trkpt><trkpt lat="41.245925" lon="14.107115"><ele>126.0</ele><time>2026-05-04T12:35:16.402Z</time></trkpt><trkpt lat="41.2458317" lon="14.1070667"><ele>126.0</ele><time>2026-05-04T12:35:18.402Z</time></trkpt><trkpt lat="41.2457483" lon="14.107005"><ele>126.0</ele><time>2026-05-04T12:35:20.402Z</time></trkpt><trkpt lat="41.2456617" lon="14.1069367"><ele>126.0</ele><time>2026-05-04T12:35:22.403Z</time></trkpt><trkpt lat="41.2455783" lon="14.1068783"><ele>126.0</ele><time>2026-05-04T12:35:24.402Z</time></trkpt><trkpt lat="41.2454933" lon="14.106805"><ele>126.0</ele><time>2026-05-04T12:35:26.402Z</time></trkpt><trkpt lat="41.2453983" lon="14.10673"><ele>126.0</ele><time>2026-05-04T12:35:28.403Z</time></trkpt><trkpt lat="41.2453033" lon="14.106665"><ele>126.0</ele><time>2026-05-04T12:35:30.403Z</time></trkpt><trkpt lat="41.2452067" lon="14.1066133"><ele>126.0</ele><time>2026-05-04T12:35:32.403Z</time></trkpt><trkpt lat="41.2451133" lon="14.1065667"><ele>126.0</ele><time>2026-05-04T12:35:34.401Z</time></trkpt><trkpt lat="41.2450133" lon="14.1065167"><ele>126.0</ele><time>2026-05-04T12:35:36.405Z</time></trkpt><trkpt lat="41.24491" lon="14.1064717"><ele>125.0</ele><time>2026-05-04T12:35:38.403Z</time></trkpt><trkpt lat="41.2447917" lon="14.1064317"><ele>124.0</ele><time>2026-05-04T12:35:40.401Z</time></trkpt><trkpt lat="41.24467" lon="14.1064067"><ele>123.0</ele><time>2026-05-04T12:35:42.402Z</time></trkpt><trkpt lat="41.2445483" lon="14.1063933"><ele>122.0</ele><time>2026-05-04T12:35:44.401Z</time></trkpt><trkpt lat="41.2444267" lon="14.1063817"><ele>121.99999999999999</ele><time>2026-05-04T12:35:46.406Z</time></trkpt><trkpt lat="41.2443033" lon="14.1063733"><ele>122.0</ele><time>2026-05-04T12:35:48.403Z</time></trkpt><trkpt lat="41.244175" lon="14.106375"><ele>122.0</ele><time>2026-05-04T12:35:50.402Z</time></trkpt><trkpt lat="41.2441117" lon="14.106375"><ele>122.0</ele><time>2026-05-04T12:35:51.402Z</time></trkpt><trkpt lat="41.2440467" lon="14.1063783"><ele>121.99999999999999</ele><time>2026-05-04T12:35:52.403Z</time></trkpt><trkpt lat="41.2439833" lon="14.1063783"><ele>122.0</ele><time>2026-05-04T12:35:53.401Z</time></trkpt><trkpt lat="41.24392" lon="14.1063767"><ele>121.57142857142856</ele><time>2026-05-04T12:35:54.402Z</time></trkpt><trkpt lat="41.2438567" lon="14.106375"><ele>121.14285714285714</ele><time>2026-05-04T12:35:55.402Z</time></trkpt><trkpt lat="41.2437917" lon="14.1063683"><ele>120.71428571428571</ele><time>2026-05-04T12:35:56.401Z</time></trkpt><trkpt lat="41.243725" lon="14.10636"><ele>120.28571428571428</ele><time>2026-05-04T12:35:57.402Z</time></trkpt><trkpt lat="41.2436583" lon="14.10635"><ele>119.85714285714286</ele><time>2026-05-04T12:35:58.402Z</time></trkpt><trkpt lat="41.243595" lon="14.1063467"><ele>119.42857142857143</ele><time>2026-05-04T12:35:59.402Z</time></trkpt><trkpt lat="41.2435317" lon="14.1063367"><ele>119.0</ele><time>2026-05-04T12:36:00.403Z</time></trkpt><trkpt lat="41.2434667" lon="14.1063267"><ele>119.0</ele><time>2026-05-04T12:36:01.401Z</time></trkpt><trkpt lat="41.2434017" lon="14.1063133"><ele>119.0</ele><time>2026-05-04T12:36:02.402Z</time></trkpt><trkpt lat="41.243335" lon="14.106305"><ele>119.0</ele><time>2026-05-04T12:36:03.402Z</time></trkpt><trkpt lat="41.2432667" lon="14.1062933"><ele>119.0</ele><time>2026-05-04T12:36:04.402Z</time></trkpt><trkpt lat="41.2432" lon="14.1062833"><ele>119.0</ele><time>2026-05-04T12:36:05.401Z</time></trkpt><trkpt lat="41.243135" lon="14.1062667"><ele>119.0</ele><time>2026-05-04T12:36:06.402Z</time></trkpt><trkpt lat="41.24307" lon="14.1062533"><ele>119.0</ele><time>2026-05-04T12:36:07.401Z</time></trkpt><trkpt lat="41.2430017" lon="14.106245"><ele>119.14285714285714</ele><time>2026-05-04T12:36:08.402Z</time></trkpt><trkpt lat="41.2429317" lon="14.1062317"><ele>119.28571428571428</ele><time>2026-05-04T12:36:09.403Z</time></trkpt><trkpt lat="41.2428617" lon="14.1062217"><ele>119.42857142857143</ele><time>2026-05-04T12:36:10.402Z</time></trkpt><trkpt lat="41.24279" lon="14.1062183"><ele>119.57142857142857</ele><time>2026-05-04T12:36:11.403Z</time></trkpt><trkpt lat="41.2427183" lon="14.10622"><ele>119.71428571428571</ele><time>2026-05-04T12:36:12.401Z</time></trkpt><trkpt lat="41.2426417" lon="14.1062183"><ele>119.85714285714286</ele><time>2026-05-04T12:36:13.403Z</time></trkpt><trkpt lat="41.2425617" lon="14.1062117"><ele>120.0</ele><time>2026-05-04T12:36:14.402Z</time></trkpt><trkpt lat="41.2424867" lon="14.1062033"><ele>120.0</ele><time>2026-05-04T12:36:15.402Z</time></trkpt><trkpt lat="41.24241" lon="14.1061933"><ele>120.0</ele><time>2026-05-04T12:36:16.402Z</time></trkpt><trkpt lat="41.242335" lon="14.106185"><ele>120.0</ele><time>2026-05-04T12:36:17.404Z</time></trkpt><trkpt lat="41.2422583" lon="14.1061767"><ele>120.0</ele><time>2026-05-04T12:36:18.402Z</time></trkpt><trkpt lat="41.2421817" lon="14.1061717"><ele>120.0</ele><time>2026-05-04T12:36:19.402Z</time></trkpt><trkpt lat="41.2421083" lon="14.106165"><ele>120.0</ele><time>2026-05-04T12:36:20.402Z</time></trkpt><trkpt lat="41.242035" lon="14.1061617"><ele>119.57142857142858</ele><time>2026-05-04T12:36:21.401Z</time></trkpt><trkpt lat="41.241965" lon="14.1061567"><ele>119.14285714285714</ele><time>2026-05-04T12:36:22.401Z</time></trkpt><trkpt lat="41.2418917" lon="14.1061517"><ele>118.71428571428572</ele><time>2026-05-04T12:36:23.403Z</time></trkpt><trkpt lat="41.241815" lon="14.1061383"><ele>118.28571428571429</ele><time>2026-05-04T12:36:24.402Z</time></trkpt><trkpt lat="41.24174" lon="14.1061267"><ele>117.85714285714286</ele><time>2026-05-04T12:36:25.403Z</time></trkpt><trkpt lat="41.2416667" lon="14.1061167"><ele>117.42857142857143</ele><time>2026-05-04T12:36:26.402Z</time></trkpt><trkpt lat="41.2415883" lon="14.10611"><ele>117.0</ele><time>2026-05-04T12:36:27.402Z</time></trkpt><trkpt lat="41.2415117" lon="14.1061"><ele>116.66666666666667</ele><time>2026-05-04T12:36:28.403Z</time></trkpt><trkpt lat="41.241435" lon="14.1060917"><ele>116.33333333333334</ele><time>2026-05-04T12:36:29.404Z</time></trkpt><trkpt lat="41.2413567" lon="14.1060833"><ele>116.0</ele><time>2026-05-04T12:36:30.402Z</time></trkpt><trkpt lat="41.2412767" lon="14.1060717"><ele>115.66666666666667</ele><time>2026-05-04T12:36:31.401Z</time></trkpt><trkpt lat="41.2411967" lon="14.1060667"><ele>115.33333333333334</ele><time>2026-05-04T12:36:32.403Z</time></trkpt><trkpt lat="41.24112" lon="14.1060567"><ele>115.0</ele><time>2026-05-04T12:36:33.402Z</time></trkpt><trkpt lat="41.24104" lon="14.10604"><ele>115.00000000000001</ele><time>2026-05-04T12:36:34.405Z</time></trkpt><trkpt lat="41.2409617" lon="14.10603"><ele>115.0</ele><time>2026-05-04T12:36:35.402Z</time></trkpt><trkpt lat="41.2408817" lon="14.1060233"><ele>115.0</ele><time>2026-05-04T12:36:36.401Z</time></trkpt><trkpt lat="41.2408" lon="14.1060183"><ele>115.0</ele><time>2026-05-04T12:36:37.401Z</time></trkpt><trkpt lat="41.24071" lon="14.106015"><ele>115.00000000000001</ele><time>2026-05-04T12:36:38.402Z</time></trkpt><trkpt lat="41.2406183" lon="14.106005"><ele>115.0</ele><time>2026-05-04T12:36:39.403Z</time></trkpt><trkpt lat="41.240525" lon="14.105995"><ele>114.8</ele><time>2026-05-04T12:36:40.403Z</time></trkpt><trkpt lat="41.2404333" lon="14.10599"><ele>114.6</ele><time>2026-05-04T12:36:41.403Z</time></trkpt><trkpt lat="41.2403383" lon="14.105985"><ele>114.4</ele><time>2026-05-04T12:36:42.402Z</time></trkpt><trkpt lat="41.24024" lon="14.1059767"><ele>114.2</ele><time>2026-05-04T12:36:43.402Z</time></trkpt><trkpt lat="41.2401383" lon="14.1059683"><ele>114.0</ele><time>2026-05-04T12:36:44.402Z</time></trkpt><trkpt lat="41.2400383" lon="14.1059633"><ele>114.0</ele><time>2026-05-04T12:36:45.402Z</time></trkpt><trkpt lat="41.239935" lon="14.1059567"><ele>114.0</ele><time>2026-05-04T12:36:46.402Z</time></trkpt><trkpt lat="41.239835" lon="14.10595"><ele>114.0</ele><time>2026-05-04T12:36:47.402Z</time></trkpt><trkpt lat="41.2397367" lon="14.1059483"><ele>114.0</ele><time>2026-05-04T12:36:48.403Z</time></trkpt><trkpt lat="41.239635" lon="14.1059417"><ele>114.0</ele><time>2026-05-04T12:36:49.402Z</time></trkpt><trkpt lat="41.2395333" lon="14.1059383"><ele>113.4</ele><time>2026-05-04T12:36:50.403Z</time></trkpt><trkpt lat="41.23943" lon="14.1059333"><ele>112.80000000000001</ele><time>2026-05-04T12:36:51.402Z</time></trkpt><trkpt lat="41.2393233" lon="14.1059283"><ele>112.19999999999999</ele><time>2026-05-04T12:36:52.401Z</time></trkpt><trkpt lat="41.2392133" lon="14.1059217"><ele>111.6</ele><time>2026-05-04T12:36:53.402Z</time></trkpt><trkpt lat="41.239105" lon="14.1059167"><ele>111.0</ele><time>2026-05-04T12:36:54.402Z</time></trkpt><trkpt lat="41.2389933" lon="14.1059117"><ele>110.4</ele><time>2026-05-04T12:36:55.403Z</time></trkpt><trkpt lat="41.238885" lon="14.1059017"><ele>109.8</ele><time>2026-05-04T12:36:56.402Z</time></trkpt><trkpt lat="41.2387783" lon="14.1058967"><ele>109.20000000000002</ele><time>2026-05-04T12:36:57.401Z</time></trkpt><trkpt lat="41.2386683" lon="14.1058883"><ele>108.60000000000001</ele><time>2026-05-04T12:36:58.402Z</time></trkpt><trkpt lat="41.23856" lon="14.1058783"><ele>108.0</ele><time>2026-05-04T12:36:59.404Z</time></trkpt><trkpt lat="41.2384517" lon="14.1058633"><ele>108.0</ele><time>2026-05-04T12:37:00.401Z</time></trkpt><trkpt lat="41.238345" lon="14.1058517"><ele>108.00000000000001</ele><time>2026-05-04T12:37:01.403Z</time></trkpt><trkpt lat="41.2382417" lon="14.105845"><ele>108.00000000000001</ele><time>2026-05-04T12:37:02.404Z</time></trkpt><trkpt lat="41.23814" lon="14.1058383"><ele>108.0</ele><time>2026-05-04T12:37:03.402Z</time></trkpt><trkpt lat="41.2380383" lon="14.1058283"><ele>108.0</ele><time>2026-05-04T12:37:04.405Z</time></trkpt><trkpt lat="41.2379383" lon="14.1058183"><ele>107.4</ele><time>2026-05-04T12:37:05.401Z</time></trkpt><trkpt lat="41.2378333" lon="14.105805"><ele>106.80000000000001</ele><time>2026-05-04T12:37:06.402Z</time></trkpt><trkpt lat="41.2377283" lon="14.10579"><ele>106.2</ele><time>2026-05-04T12:37:07.403Z</time></trkpt><trkpt lat="41.2376217" lon="14.105775"><ele>105.6</ele><time>2026-05-04T12:37:08.402Z</time></trkpt><trkpt lat="41.2375167" lon="14.1057617"><ele>105.0</ele><time>2026-05-04T12:37:09.402Z</time></trkpt><trkpt lat="41.23741" lon="14.1057483"><ele>104.4</ele><time>2026-05-04T12:37:10.403Z</time></trkpt><trkpt lat="41.2373" lon="14.1057367"><ele>103.8</ele><time>2026-05-04T12:37:11.403Z</time></trkpt><trkpt lat="41.23719" lon="14.1057283"><ele>103.19999999999999</ele><time>2026-05-04T12:37:12.403Z</time></trkpt><trkpt lat="41.23708" lon="14.1057183"><ele>102.6</ele><time>2026-05-04T12:37:13.402Z</time></trkpt><trkpt lat="41.23697" lon="14.1057083"><ele>102.0</ele><time>2026-05-04T12:37:14.402Z</time></trkpt><trkpt lat="41.2368583" lon="14.1056967"><ele>102.0</ele><time>2026-05-04T12:37:15.401Z</time></trkpt><trkpt lat="41.2367483" lon="14.1056867"><ele>102.0</ele><time>2026-05-04T12:37:16.402Z</time></trkpt><trkpt lat="41.23664" lon="14.1056783"><ele>102.0</ele><time>2026-05-04T12:37:17.402Z</time></trkpt><trkpt lat="41.2365283" lon="14.10567"><ele>102.0</ele><time>2026-05-04T12:37:18.402Z</time></trkpt><trkpt lat="41.2364217" lon="14.1056617"><ele>102.0</ele><time>2026-05-04T12:37:19.401Z</time></trkpt><trkpt lat="41.23632" lon="14.1056567"><ele>102.0</ele><time>2026-05-04T12:37:20.404Z</time></trkpt><trkpt lat="41.23622" lon="14.1056483"><ele>102.0</ele><time>2026-05-04T12:37:21.402Z</time></trkpt><trkpt lat="41.2361183" lon="14.10564"><ele>102.0</ele><time>2026-05-04T12:37:22.403Z</time></trkpt><trkpt lat="41.23602" lon="14.1056367"><ele>102.0</ele><time>2026-05-04T12:37:23.402Z</time></trkpt><trkpt lat="41.2359233" lon="14.10563"><ele>102.0</ele><time>2026-05-04T12:37:24.402Z</time></trkpt><trkpt lat="41.235825" lon="14.10563"><ele>102.0</ele><time>2026-05-04T12:37:25.403Z</time></trkpt><trkpt lat="41.2357233" lon="14.1056267"><ele>102.0</ele><time>2026-05-04T12:37:26.401Z</time></trkpt><trkpt lat="41.235625" lon="14.1056217"><ele>102.0</ele><time>2026-05-04T12:37:27.402Z</time></trkpt><trkpt lat="41.2355233" lon="14.1056133"><ele>102.0</ele><time>2026-05-04T12:37:28.402Z</time></trkpt><trkpt lat="41.2354233" lon="14.105605"><ele>102.0</ele><time>2026-05-04T12:37:29.402Z</time></trkpt><trkpt lat="41.235325" lon="14.1055967"><ele>102.19999999999999</ele><time>2026-05-04T12:37:30.403Z</time></trkpt><trkpt lat="41.2352283" lon="14.1055867"><ele>102.4</ele><time>2026-05-04T12:37:31.403Z</time></trkpt><trkpt lat="41.235135" lon="14.10558"><ele>102.6</ele><time>2026-05-04T12:37:32.401Z</time></trkpt><trkpt lat="41.2350383" lon="14.105575"><ele>102.80000000000001</ele><time>2026-05-04T12:37:33.402Z</time></trkpt><trkpt lat="41.2349417" lon="14.1055683"><ele>103.0</ele><time>2026-05-04T12:37:34.401Z</time></trkpt><trkpt lat="41.2348483" lon="14.1055583"><ele>102.80000000000001</ele><time>2026-05-04T12:37:35.402Z</time></trkpt><trkpt lat="41.2347533" lon="14.105545"><ele>102.6</ele><time>2026-05-04T12:37:36.402Z</time></trkpt><trkpt lat="41.23466" lon="14.1055367"><ele>102.4</ele><time>2026-05-04T12:37:37.403Z</time></trkpt><trkpt lat="41.2345683" lon="14.1055283"><ele>102.19999999999999</ele><time>2026-05-04T12:37:38.402Z</time></trkpt><trkpt lat="41.2344767" lon="14.1055183"><ele>102.0</ele><time>2026-05-04T12:37:39.402Z</time></trkpt><trkpt lat="41.234385" lon="14.10551"><ele>102.0</ele><time>2026-05-04T12:37:40.402Z</time></trkpt><trkpt lat="41.2342917" lon="14.1055017"><ele>102.0</ele><time>2026-05-04T12:37:41.403Z</time></trkpt><trkpt lat="41.2342017" lon="14.1054917"><ele>102.0</ele><time>2026-05-04T12:37:42.402Z</time></trkpt><trkpt lat="41.2341133" lon="14.1054867"><ele>102.0</ele><time>2026-05-04T12:37:43.403Z</time></trkpt><trkpt lat="41.234025" lon="14.1054783"><ele>102.0</ele><time>2026-05-04T12:37:44.403Z</time></trkpt><trkpt lat="41.2339367" lon="14.10547"><ele>102.0</ele><time>2026-05-04T12:37:45.402Z</time></trkpt><trkpt lat="41.2338483" lon="14.10546"><ele>101.66666666666667</ele><time>2026-05-04T12:37:46.402Z</time></trkpt><trkpt lat="41.23376" lon="14.105445"><ele>101.33333333333334</ele><time>2026-05-04T12:37:47.403Z</time></trkpt><trkpt lat="41.2336733" lon="14.1054367"><ele>101.0</ele><time>2026-05-04T12:37:48.402Z</time></trkpt><trkpt lat="41.23359" lon="14.1054317"><ele>100.66666666666667</ele><time>2026-05-04T12:37:49.403Z</time></trkpt><trkpt lat="41.233505" lon="14.1054233"><ele>100.33333333333334</ele><time>2026-05-04T12:37:50.401Z</time></trkpt><trkpt lat="41.23342" lon="14.1054167"><ele>100.0</ele><time>2026-05-04T12:37:51.402Z</time></trkpt><trkpt lat="41.2333367" lon="14.10541"><ele>100.00000000000001</ele><time>2026-05-04T12:37:52.403Z</time></trkpt><trkpt lat="41.23325" lon="14.1054017"><ele>100.0</ele><time>2026-05-04T12:37:53.406Z</time></trkpt><trkpt lat="41.2331633" lon="14.105395"><ele>100.0</ele><time>2026-05-04T12:37:54.401Z</time></trkpt><trkpt lat="41.2330767" lon="14.1053883"><ele>100.0</ele><time>2026-05-04T12:37:55.402Z</time></trkpt><trkpt lat="41.2329917" lon="14.1053817"><ele>100.00000000000001</ele><time>2026-05-04T12:37:56.404Z</time></trkpt><trkpt lat="41.232905" lon="14.105375"><ele>100.0</ele><time>2026-05-04T12:37:57.402Z</time></trkpt><trkpt lat="41.23282" lon="14.1053683"><ele>99.83333333333334</ele><time>2026-05-04T12:37:58.402Z</time></trkpt><trkpt lat="41.2327367" lon="14.105365"><ele>99.66666666666667</ele><time>2026-05-04T12:37:59.402Z</time></trkpt><trkpt lat="41.2326567" lon="14.1053633"><ele>99.5</ele><time>2026-05-04T12:38:00.402Z</time></trkpt><trkpt lat="41.2325767" lon="14.1053617"><ele>99.33333333333334</ele><time>2026-05-04T12:38:01.405Z</time></trkpt><trkpt lat="41.232495" lon="14.1053633"><ele>99.16666666666667</ele><time>2026-05-04T12:38:02.401Z</time></trkpt><trkpt lat="41.2324117" lon="14.1053633"><ele>99.0</ele><time>2026-05-04T12:38:03.403Z</time></trkpt><trkpt lat="41.23233" lon="14.1053567"><ele>98.66666666666667</ele><time>2026-05-04T12:38:04.402Z</time></trkpt><trkpt lat="41.23225" lon="14.105355"><ele>98.33333333333334</ele><time>2026-05-04T12:38:05.404Z</time></trkpt><trkpt lat="41.2321683" lon="14.1053433"><ele>98.0</ele><time>2026-05-04T12:38:06.403Z</time></trkpt><trkpt lat="41.2320867" lon="14.1053167"><ele>97.66666666666667</ele><time>2026-05-04T12:38:07.403Z</time></trkpt><trkpt lat="41.2320017" lon="14.1052917"><ele>97.33333333333334</ele><time>2026-05-04T12:38:08.405Z</time></trkpt><trkpt lat="41.2319117" lon="14.105275"><ele>97.0</ele><time>2026-05-04T12:38:09.404Z</time></trkpt><trkpt lat="41.23182" lon="14.1052667"><ele>97.0</ele><time>2026-05-04T12:38:10.407Z</time></trkpt><trkpt lat="41.23173" lon="14.1052583"><ele>97.0</ele><time>2026-05-04T12:38:11.404Z</time></trkpt><trkpt lat="41.2316417" lon="14.10525"><ele>97.0</ele><time>2026-05-04T12:38:12.402Z</time></trkpt><trkpt lat="41.2315517" lon="14.10524"><ele>97.0</ele><time>2026-05-04T12:38:13.403Z</time></trkpt><trkpt lat="41.2314583" lon="14.1052317"><ele>97.0</ele><time>2026-05-04T12:38:14.403Z</time></trkpt><trkpt lat="41.231365" lon="14.1052217"><ele>96.6</ele><time>2026-05-04T12:38:15.403Z</time></trkpt><trkpt lat="41.2312717" lon="14.1052167"><ele>96.19999999999999</ele><time>2026-05-04T12:38:16.403Z</time></trkpt><trkpt lat="41.23118" lon="14.10521"><ele>95.8</ele><time>2026-05-04T12:38:17.404Z</time></trkpt><trkpt lat="41.2310867" lon="14.1052033"><ele>95.4</ele><time>2026-05-04T12:38:18.404Z</time></trkpt><trkpt lat="41.2309917" lon="14.1051967"><ele>95.0</ele><time>2026-05-04T12:38:19.403Z</time></trkpt><trkpt lat="41.2308967" lon="14.1051933"><ele>95.0</ele><time>2026-05-04T12:38:20.403Z</time></trkpt><trkpt lat="41.2307983" lon="14.105185"><ele>95.0</ele><time>2026-05-04T12:38:21.403Z</time></trkpt><trkpt lat="41.2306967" lon="14.1051767"><ele>95.0</ele><time>2026-05-04T12:38:22.403Z</time></trkpt><trkpt lat="41.23059" lon="14.1051667"><ele>95.0</ele><time>2026-05-04T12:38:23.403Z</time></trkpt><trkpt lat="41.230485" lon="14.1051483"><ele>95.0</ele><time>2026-05-04T12:38:24.403Z</time></trkpt><trkpt lat="41.2303833" lon="14.105135"><ele>94.8</ele><time>2026-05-04T12:38:25.405Z</time></trkpt><trkpt lat="41.23028" lon="14.10512"><ele>94.6</ele><time>2026-05-04T12:38:26.404Z</time></trkpt><trkpt lat="41.2301717" lon="14.1051117"><ele>94.4</ele><time>2026-05-04T12:38:27.404Z</time></trkpt><trkpt lat="41.2300667" lon="14.105105"><ele>94.2</ele><time>2026-05-04T12:38:28.403Z</time></trkpt><trkpt lat="41.2299567" lon="14.1051067"><ele>94.0</ele><time>2026-05-04T12:38:29.404Z</time></trkpt><trkpt lat="41.2298467" lon="14.1051117"><ele>92.0</ele><time>2026-05-04T12:38:30.403Z</time></trkpt><trkpt lat="41.2297333" lon="14.1051267"><ele>90.0</ele><time>2026-05-04T12:38:31.405Z</time></trkpt><trkpt lat="41.2296167" lon="14.1051433"><ele>88.0</ele><time>2026-05-04T12:38:32.402Z</time></trkpt><trkpt lat="41.2294967" lon="14.1051667"><ele>86.0</ele><time>2026-05-04T12:38:33.403Z</time></trkpt><trkpt lat="41.2293783" lon="14.10519"><ele>86.0</ele><time>2026-05-04T12:38:34.401Z</time></trkpt><trkpt lat="41.2292583" lon="14.1052133"><ele>86.0</ele><time>2026-05-04T12:38:35.403Z</time></trkpt><trkpt lat="41.2291383" lon="14.105235"><ele>86.0</ele><time>2026-05-04T12:38:36.402Z</time></trkpt><trkpt lat="41.2290167" lon="14.105255"><ele>86.0</ele><time>2026-05-04T12:38:37.403Z</time></trkpt><trkpt lat="41.2288967" lon="14.105285"><ele>84.5</ele><time>2026-05-04T12:38:38.403Z</time></trkpt><trkpt lat="41.2287767" lon="14.1053117"><ele>83.0</ele><time>2026-05-04T12:38:39.402Z</time></trkpt><trkpt lat="41.2286583" lon="14.105345"><ele>81.5</ele><time>2026-05-04T12:38:40.403Z</time></trkpt><trkpt lat="41.2285417" lon="14.105375"><ele>80.0</ele><time>2026-05-04T12:38:41.404Z</time></trkpt><trkpt lat="41.2284217" lon="14.1053983"><ele>80.0</ele><time>2026-05-04T12:38:42.402Z</time></trkpt><trkpt lat="41.228305" lon="14.1054183"><ele>80.0</ele><time>2026-05-04T12:38:43.403Z</time></trkpt><trkpt lat="41.2281917" lon="14.105445"><ele>80.0</ele><time>2026-05-04T12:38:44.401Z</time></trkpt><trkpt lat="41.2280817" lon="14.1054767"><ele>80.0</ele><time>2026-05-04T12:38:45.402Z</time></trkpt><trkpt lat="41.2279733" lon="14.105505"><ele>80.0</ele><time>2026-05-04T12:38:46.401Z</time></trkpt><trkpt lat="41.2278633" lon="14.10554"><ele>80.0</ele><time>2026-05-04T12:38:47.403Z</time></trkpt><trkpt lat="41.22775" lon="14.105565"><ele>80.0</ele><time>2026-05-04T12:38:48.402Z</time></trkpt><trkpt lat="41.2276383" lon="14.1055917"><ele>80.0</ele><time>2026-05-04T12:38:49.402Z</time></trkpt><trkpt lat="41.227525" lon="14.1056167"><ele>80.0</ele><time>2026-05-04T12:38:50.403Z</time></trkpt><trkpt lat="41.2274133" lon="14.1056383"><ele>80.0</ele><time>2026-05-04T12:38:51.404Z</time></trkpt><trkpt lat="41.227305" lon="14.1056567"><ele>80.0</ele><time>2026-05-04T12:38:52.402Z</time></trkpt><trkpt lat="41.2271983" lon="14.10567"><ele>80.0</ele><time>2026-05-04T12:38:53.401Z</time></trkpt><trkpt lat="41.2270917" lon="14.1056633"><ele>80.0</ele><time>2026-05-04T12:38:54.403Z</time></trkpt><trkpt lat="41.2269883" lon="14.1056417"><ele>80.6</ele><time>2026-05-04T12:38:55.403Z</time></trkpt><trkpt lat="41.2268917" lon="14.1056133"><ele>81.2</ele><time>2026-05-04T12:38:56.403Z</time></trkpt><trkpt lat="41.2267967" lon="14.10558"><ele>81.80000000000001</ele><time>2026-05-04T12:38:57.403Z</time></trkpt><trkpt lat="41.2267017" lon="14.1055433"><ele>82.4</ele><time>2026-05-04T12:38:58.401Z</time></trkpt><trkpt lat="41.2266083" lon="14.105505"><ele>83.0</ele><time>2026-05-04T12:38:59.402Z</time></trkpt><trkpt lat="41.2265167" lon="14.1054683"><ele>82.66666666666667</ele><time>2026-05-04T12:39:00.403Z</time></trkpt><trkpt lat="41.22643" lon="14.1054417"><ele>82.33333333333334</ele><time>2026-05-04T12:39:01.402Z</time></trkpt><trkpt lat="41.2263467" lon="14.105415"><ele>82.0</ele><time>2026-05-04T12:39:02.402Z</time></trkpt><trkpt lat="41.2262783" lon="14.1053867"><ele>81.66666666666667</ele><time>2026-05-04T12:39:03.402Z</time></trkpt><trkpt lat="41.2262083" lon="14.1053667"><ele>81.33333333333333</ele><time>2026-05-04T12:39:04.402Z</time></trkpt><trkpt lat="41.2261317" lon="14.1053417"><ele>81.0</ele><time>2026-05-04T12:39:05.402Z</time></trkpt><trkpt lat="41.2260567" lon="14.1053183"><ele>81.0</ele><time>2026-05-04T12:39:06.403Z</time></trkpt><trkpt lat="41.2259867" lon="14.1052933"><ele>81.0</ele><time>2026-05-04T12:39:07.404Z</time></trkpt><trkpt lat="41.2259117" lon="14.105265"><ele>81.0</ele><time>2026-05-04T12:39:08.403Z</time></trkpt><trkpt lat="41.2258367" lon="14.1052333"><ele>81.0</ele><time>2026-05-04T12:39:09.403Z</time></trkpt><trkpt lat="41.2257583" lon="14.1052017"><ele>81.0</ele><time>2026-05-04T12:39:10.401Z</time></trkpt><trkpt lat="41.2256783" lon="14.1051733"><ele>81.0</ele><time>2026-05-04T12:39:11.403Z</time></trkpt><trkpt lat="41.225605" lon="14.1051517"><ele>81.6</ele><time>2026-05-04T12:39:12.405Z</time></trkpt><trkpt lat="41.2255367" lon="14.10513"><ele>82.19999999999999</ele><time>2026-05-04T12:39:13.404Z</time></trkpt><trkpt lat="41.22547" lon="14.1051067"><ele>82.80000000000001</ele><time>2026-05-04T12:39:14.401Z</time></trkpt><trkpt lat="41.2254" lon="14.10508"><ele>83.4</ele><time>2026-05-04T12:39:15.404Z</time></trkpt><trkpt lat="41.2252817" lon="14.10504"><ele>84.0</ele><time>2026-05-04T12:39:17.404Z</time></trkpt><trkpt lat="41.2251617" lon="14.1050033"><ele>84.0</ele><time>2026-05-04T12:39:19.402Z</time></trkpt><trkpt lat="41.2250483" lon="14.104965"><ele>84.0</ele><time>2026-05-04T12:39:21.402Z</time></trkpt><trkpt lat="41.2249383" lon="14.10493"><ele>84.0</ele><time>2026-05-04T12:39:23.404Z</time></trkpt><trkpt lat="41.2248317" lon="14.104895"><ele>84.0</ele><time>2026-05-04T12:39:25.403Z</time></trkpt><trkpt lat="41.22472" lon="14.1048633"><ele>84.5</ele><time>2026-05-04T12:39:27.401Z</time></trkpt><trkpt lat="41.224605" lon="14.1048283"><ele>85.0</ele><time>2026-05-04T12:39:29.403Z</time></trkpt><trkpt lat="41.22449" lon="14.1047917"><ele>85.5</ele><time>2026-05-04T12:39:31.403Z</time></trkpt><trkpt lat="41.2243783" lon="14.1047517"><ele>86.0</ele><time>2026-05-04T12:39:33.403Z</time></trkpt><trkpt lat="41.2242717" lon="14.1047083"><ele>86.0</ele><time>2026-05-04T12:39:35.403Z</time></trkpt><trkpt lat="41.2241583" lon="14.104665"><ele>86.0</ele><time>2026-05-04T12:39:37.402Z</time></trkpt><trkpt lat="41.2240433" lon="14.1046183"><ele>86.0</ele><time>2026-05-04T12:39:39.403Z</time></trkpt><trkpt lat="41.22394" lon="14.1045833"><ele>86.0</ele><time>2026-05-04T12:39:41.402Z</time></trkpt><trkpt lat="41.2238317" lon="14.10456"><ele>86.6</ele><time>2026-05-04T12:39:43.403Z</time></trkpt><trkpt lat="41.2237233" lon="14.1045267"><ele>87.19999999999999</ele><time>2026-05-04T12:39:45.402Z</time></trkpt><trkpt lat="41.22362" lon="14.1044817"><ele>87.80000000000001</ele><time>2026-05-04T12:39:47.402Z</time></trkpt><trkpt lat="41.2235233" lon="14.10443"><ele>88.4</ele><time>2026-05-04T12:39:49.404Z</time></trkpt><trkpt lat="41.2234433" lon="14.1043667"><ele>89.0</ele><time>2026-05-04T12:39:51.403Z</time></trkpt><trkpt lat="41.223375" lon="14.1042833"><ele>89.0</ele><time>2026-05-04T12:39:53.403Z</time></trkpt><trkpt lat="41.22331" lon="14.1041967"><ele>89.0</ele><time>2026-05-04T12:39:55.403Z</time></trkpt><trkpt lat="41.22324" lon="14.1041233"><ele>89.0</ele><time>2026-05-04T12:39:57.401Z</time></trkpt><trkpt lat="41.223155" lon="14.1040867"><ele>89.0</ele><time>2026-05-04T12:39:59.403Z</time></trkpt><trkpt lat="41.223055" lon="14.104105"><ele>89.0</ele><time>2026-05-04T12:40:01.404Z</time></trkpt><trkpt lat="41.222955" lon="14.104145"><ele>90.0</ele><time>2026-05-04T12:40:03.402Z</time></trkpt><trkpt lat="41.2228467" lon="14.1041817"><ele>91.0</ele><time>2026-05-04T12:40:05.403Z</time></trkpt><trkpt lat="41.2227433" lon="14.104175"><ele>92.0</ele><time>2026-05-04T12:40:07.403Z</time></trkpt><trkpt lat="41.22264" lon="14.1041417"><ele>93.0</ele><time>2026-05-04T12:40:09.402Z</time></trkpt><trkpt lat="41.22254" lon="14.1041167"><ele>94.0</ele><time>2026-05-04T12:40:11.402Z</time></trkpt><trkpt lat="41.22243" lon="14.1040967"><ele>94.0</ele><time>2026-05-04T12:40:13.402Z</time></trkpt><trkpt lat="41.2223183" lon="14.104085"><ele>94.0</ele><time>2026-05-04T12:40:15.402Z</time></trkpt><trkpt lat="41.2222017" lon="14.104095"><ele>94.0</ele><time>2026-05-04T12:40:17.403Z</time></trkpt><trkpt lat="41.2220917" lon="14.1041083"><ele>94.0</ele><time>2026-05-04T12:40:19.403Z</time></trkpt><trkpt lat="41.2219817" lon="14.1041317"><ele>93.75</ele><time>2026-05-04T12:40:21.401Z</time></trkpt><trkpt lat="41.221865" lon="14.1041383"><ele>93.5</ele><time>2026-05-04T12:40:23.402Z</time></trkpt><trkpt lat="41.2217533" lon="14.1041567"><ele>93.25</ele><time>2026-05-04T12:40:25.401Z</time></trkpt><trkpt lat="41.2216367" lon="14.1041867"><ele>93.0</ele><time>2026-05-04T12:40:27.403Z</time></trkpt><trkpt lat="41.221515" lon="14.104205"><ele>93.5</ele><time>2026-05-04T12:40:29.402Z</time></trkpt><trkpt lat="41.2214033" lon="14.1042233"><ele>94.0</ele><time>2026-05-04T12:40:31.403Z</time></trkpt><trkpt lat="41.221285" lon="14.1042317"><ele>94.5</ele><time>2026-05-04T12:40:33.404Z</time></trkpt><trkpt lat="41.2211667" lon="14.1041883"><ele>95.0</ele><time>2026-05-04T12:40:35.403Z</time></trkpt><trkpt lat="41.2210617" lon="14.1041033"><ele>95.0</ele><time>2026-05-04T12:40:37.402Z</time></trkpt><trkpt lat="41.22095" lon="14.104065"><ele>95.0</ele><time>2026-05-04T12:40:39.403Z</time></trkpt><trkpt lat="41.22083" lon="14.1041017"><ele>95.0</ele><time>2026-05-04T12:40:41.404Z</time></trkpt><trkpt lat="41.2207217" lon="14.1041833"><ele>95.0</ele><time>2026-05-04T12:40:43.404Z</time></trkpt><trkpt lat="41.220665" lon="14.10422"><ele>95.0</ele><time>2026-05-04T12:40:44.403Z</time></trkpt><trkpt lat="41.2206067" lon="14.104255"><ele>94.71428571428572</ele><time>2026-05-04T12:40:45.404Z</time></trkpt><trkpt lat="41.2205433" lon="14.1042817"><ele>94.42857142857143</ele><time>2026-05-04T12:40:46.403Z</time></trkpt><trkpt lat="41.220475" lon="14.1042983"><ele>94.14285714285714</ele><time>2026-05-04T12:40:47.404Z</time></trkpt><trkpt lat="41.22041" lon="14.1043067"><ele>93.85714285714286</ele><time>2026-05-04T12:40:48.402Z</time></trkpt><trkpt lat="41.2203433" lon="14.1043133"><ele>93.57142857142857</ele><time>2026-05-04T12:40:49.403Z</time></trkpt><trkpt lat="41.2202767" lon="14.10432"><ele>93.28571428571429</ele><time>2026-05-04T12:40:50.405Z</time></trkpt><trkpt lat="41.22021" lon="14.104325"><ele>93.0</ele><time>2026-05-04T12:40:51.403Z</time></trkpt><trkpt lat="41.2201417" lon="14.10433"><ele>93.0</ele><time>2026-05-04T12:40:52.403Z</time></trkpt><trkpt lat="41.2200717" lon="14.1043333"><ele>93.0</ele><time>2026-05-04T12:40:53.407Z</time></trkpt><trkpt lat="41.2199483" lon="14.1043483"><ele>93.0</ele><time>2026-05-04T12:40:55.403Z</time></trkpt><trkpt lat="41.2198817" lon="14.1043633"><ele>93.0</ele><time>2026-05-04T12:40:56.404Z</time></trkpt><trkpt lat="41.219815" lon="14.1043833"><ele>93.0</ele><time>2026-05-04T12:40:57.402Z</time></trkpt><trkpt lat="41.2197533" lon="14.1044067"><ele>93.0</ele><time>2026-05-04T12:40:58.403Z</time></trkpt><trkpt lat="41.2196867" lon="14.1044367"><ele>92.42857142857143</ele><time>2026-05-04T12:40:59.403Z</time></trkpt><trkpt lat="41.21962" lon="14.1044667"><ele>91.85714285714286</ele><time>2026-05-04T12:41:00.403Z</time></trkpt><trkpt lat="41.219555" lon="14.1044967"><ele>91.28571428571428</ele><time>2026-05-04T12:41:01.403Z</time></trkpt><trkpt lat="41.2194917" lon="14.1045317"><ele>90.71428571428572</ele><time>2026-05-04T12:41:02.403Z</time></trkpt><trkpt lat="41.2194283" lon="14.104565"><ele>90.14285714285714</ele><time>2026-05-04T12:41:03.403Z</time></trkpt><trkpt lat="41.219365" lon="14.1045983"><ele>89.57142857142857</ele><time>2026-05-04T12:41:04.403Z</time></trkpt><trkpt lat="41.2193033" lon="14.1046283"><ele>89.0</ele><time>2026-05-04T12:41:05.402Z</time></trkpt><trkpt lat="41.21918" lon="14.10468"><ele>89.0</ele><time>2026-05-04T12:41:07.403Z</time></trkpt><trkpt lat="41.2191167" lon="14.1047033"><ele>89.0</ele><time>2026-05-04T12:41:08.403Z</time></trkpt><trkpt lat="41.2190517" lon="14.104725"><ele>89.0</ele><time>2026-05-04T12:41:09.403Z</time></trkpt><trkpt lat="41.21899" lon="14.1047517"><ele>89.0</ele><time>2026-05-04T12:41:10.403Z</time></trkpt><trkpt lat="41.218865" lon="14.1048067"><ele>89.0</ele><time>2026-05-04T12:41:12.402Z</time></trkpt><trkpt lat="41.2187967" lon="14.1048267"><ele>89.0</ele><time>2026-05-04T12:41:13.403Z</time></trkpt><trkpt lat="41.21873" lon="14.1048467"><ele>89.42857142857142</ele><time>2026-05-04T12:41:14.403Z</time></trkpt><trkpt lat="41.2186633" lon="14.1048717"><ele>89.85714285714286</ele><time>2026-05-04T12:41:15.402Z</time></trkpt><trkpt lat="41.2185967" lon="14.1048967"><ele>90.28571428571428</ele><time>2026-05-04T12:41:16.402Z</time></trkpt><trkpt lat="41.2185317" lon="14.1049167"><ele>90.71428571428571</ele><time>2026-05-04T12:41:17.402Z</time></trkpt><trkpt lat="41.2184667" lon="14.1049367"><ele>91.14285714285714</ele><time>2026-05-04T12:41:18.402Z</time></trkpt><trkpt lat="41.2184017" lon="14.1049533"><ele>91.57142857142857</ele><time>2026-05-04T12:41:19.403Z</time></trkpt><trkpt lat="41.2183333" lon="14.1049733"><ele>92.0</ele><time>2026-05-04T12:41:20.403Z</time></trkpt><trkpt lat="41.2182667" lon="14.1050017"><ele>92.5</ele><time>2026-05-04T12:41:21.402Z</time></trkpt><trkpt lat="41.2182017" lon="14.1050233"><ele>93.0</ele><time>2026-05-04T12:41:22.403Z</time></trkpt><trkpt lat="41.2180733" lon="14.1050683"><ele>93.5</ele><time>2026-05-04T12:41:24.402Z</time></trkpt><trkpt lat="41.2180033" lon="14.1050933"><ele>94.0</ele><time>2026-05-04T12:41:25.403Z</time></trkpt><trkpt lat="41.2179367" lon="14.10511"><ele>94.5</ele><time>2026-05-04T12:41:26.403Z</time></trkpt><trkpt lat="41.2178733" lon="14.10513"><ele>95.0</ele><time>2026-05-04T12:41:27.402Z</time></trkpt><trkpt lat="41.2177483" lon="14.1051783"><ele>95.28571428571429</ele><time>2026-05-04T12:41:29.402Z</time></trkpt><trkpt lat="41.217685" lon="14.1052"><ele>95.57142857142858</ele><time>2026-05-04T12:41:30.403Z</time></trkpt><trkpt lat="41.2176233" lon="14.1052267"><ele>95.85714285714286</ele><time>2026-05-04T12:41:31.405Z</time></trkpt><trkpt lat="41.2175567" lon="14.1052517"><ele>96.14285714285714</ele><time>2026-05-04T12:41:32.402Z</time></trkpt><trkpt lat="41.2174833" lon="14.105275"><ele>96.42857142857143</ele><time>2026-05-04T12:41:33.403Z</time></trkpt><trkpt lat="41.217415" lon="14.1053"><ele>96.71428571428571</ele><time>2026-05-04T12:41:34.403Z</time></trkpt><trkpt lat="41.21735" lon="14.105335"><ele>97.0</ele><time>2026-05-04T12:41:35.405Z</time></trkpt><trkpt lat="41.2172883" lon="14.1053733"><ele>98.00000000000001</ele><time>2026-05-04T12:41:36.403Z</time></trkpt><trkpt lat="41.2171817" lon="14.1054517"><ele>99.0</ele><time>2026-05-04T12:41:38.403Z</time></trkpt><trkpt lat="41.2171233" lon="14.1055"><ele>100.0</ele><time>2026-05-04T12:41:39.407Z</time></trkpt><trkpt lat="41.217065" lon="14.1055467"><ele>101.0</ele><time>2026-05-04T12:41:40.404Z</time></trkpt><trkpt lat="41.2170117" lon="14.105605"><ele>102.00000000000001</ele><time>2026-05-04T12:41:41.403Z</time></trkpt><trkpt lat="41.21696" lon="14.1056617"><ele>103.0</ele><time>2026-05-04T12:41:42.404Z</time></trkpt><trkpt lat="41.2169117" lon="14.1057167"><ele>103.0</ele><time>2026-05-04T12:41:43.403Z</time></trkpt><trkpt lat="41.2168683" lon="14.10578"><ele>103.0</ele><time>2026-05-04T12:41:44.402Z</time></trkpt><trkpt lat="41.21677" lon="14.1058733"><ele>103.0</ele><time>2026-05-04T12:41:46.402Z</time></trkpt><trkpt lat="41.2166717" lon="14.1059583"><ele>103.0</ele><time>2026-05-04T12:41:48.403Z</time></trkpt><trkpt lat="41.2165717" lon="14.1060367"><ele>103.0</ele><time>2026-05-04T12:41:50.403Z</time></trkpt><trkpt lat="41.2164783" lon="14.1061317"><ele>101.75</ele><time>2026-05-04T12:41:52.404Z</time></trkpt><trkpt lat="41.2163933" lon="14.1062383"><ele>100.5</ele><time>2026-05-04T12:41:54.403Z</time></trkpt><trkpt lat="41.2163117" lon="14.1063483"><ele>99.25</ele><time>2026-05-04T12:41:56.403Z</time></trkpt><trkpt lat="41.21623" lon="14.1064533"><ele>98.0</ele><time>2026-05-04T12:41:58.403Z</time></trkpt><trkpt lat="41.2161467" lon="14.106575"><ele>98.60000000000001</ele><time>2026-05-04T12:42:00.404Z</time></trkpt><trkpt lat="41.2160617" lon="14.106685"><ele>99.2</ele><time>2026-05-04T12:42:02.404Z</time></trkpt><trkpt lat="41.215975" lon="14.1067767"><ele>99.8</ele><time>2026-05-04T12:42:04.403Z</time></trkpt><trkpt lat="41.2158867" lon="14.1068567"><ele>100.4</ele><time>2026-05-04T12:42:06.403Z</time></trkpt><trkpt lat="41.2158017" lon="14.1069533"><ele>101.0</ele><time>2026-05-04T12:42:08.405Z</time></trkpt><trkpt lat="41.2157117" lon="14.10704"><ele>102.0</ele><time>2026-05-04T12:42:10.403Z</time></trkpt><trkpt lat="41.21563" lon="14.1071233"><ele>103.0</ele><time>2026-05-04T12:42:12.402Z</time></trkpt><trkpt lat="41.2155483" lon="14.10722"><ele>104.0</ele><time>2026-05-04T12:42:14.402Z</time></trkpt><trkpt lat="41.215465" lon="14.1073067"><ele>105.0</ele><time>2026-05-04T12:42:16.402Z</time></trkpt><trkpt lat="41.21538" lon="14.1073933"><ele>106.0</ele><time>2026-05-04T12:42:18.403Z</time></trkpt><trkpt lat="41.215305" lon="14.1074817"><ele>106.19999999999999</ele><time>2026-05-04T12:42:20.402Z</time></trkpt><trkpt lat="41.2152333" lon="14.107565"><ele>106.39999999999999</ele><time>2026-05-04T12:42:22.402Z</time></trkpt><trkpt lat="41.2151617" lon="14.10764"><ele>106.6</ele><time>2026-05-04T12:42:24.403Z</time></trkpt><trkpt lat="41.215085" lon="14.107715"><ele>106.8</ele><time>2026-05-04T12:42:26.403Z</time></trkpt><trkpt lat="41.21501" lon="14.10779"><ele>107.0</ele><time>2026-05-04T12:42:28.404Z</time></trkpt><trkpt lat="41.21494" lon="14.1078867"><ele>107.0</ele><time>2026-05-04T12:42:30.404Z</time></trkpt><trkpt lat="41.2148683" lon="14.107995"><ele>106.99999999999999</ele><time>2026-05-04T12:42:32.404Z</time></trkpt><trkpt lat="41.21479" lon="14.108095"><ele>106.99999999999999</ele><time>2026-05-04T12:42:34.403Z</time></trkpt><trkpt lat="41.2147117" lon="14.1081817"><ele>107.0</ele><time>2026-05-04T12:42:36.403Z</time></trkpt><trkpt lat="41.21463" lon="14.10827"><ele>107.0</ele><time>2026-05-04T12:42:38.402Z</time></trkpt><trkpt lat="41.2145483" lon="14.1083567"><ele>107.39999999999999</ele><time>2026-05-04T12:42:40.403Z</time></trkpt><trkpt lat="41.2144633" lon="14.1084383"><ele>107.79999999999998</ele><time>2026-05-04T12:42:42.404Z</time></trkpt><trkpt lat="41.2143817" lon="14.108525"><ele>108.2</ele><time>2026-05-04T12:42:44.404Z</time></trkpt><trkpt lat="41.2143033" lon="14.10861"><ele>108.6</ele><time>2026-05-04T12:42:46.403Z</time></trkpt><trkpt lat="41.214225" lon="14.1086917"><ele>109.0</ele><time>2026-05-04T12:42:48.403Z</time></trkpt><trkpt lat="41.2141433" lon="14.1087733"><ele>109.0</ele><time>2026-05-04T12:42:50.403Z</time></trkpt><trkpt lat="41.2140617" lon="14.1088517"><ele>109.0</ele><time>2026-05-04T12:42:52.403Z</time></trkpt><trkpt lat="41.213975" lon="14.1089383"><ele>109.0</ele><time>2026-05-04T12:42:54.403Z</time></trkpt><trkpt lat="41.2138967" lon="14.109035"><ele>109.0</ele><time>2026-05-04T12:42:56.403Z</time></trkpt><trkpt lat="41.2138233" lon="14.1091217"><ele>109.0</ele><time>2026-05-04T12:42:58.403Z</time></trkpt><trkpt lat="41.2137533" lon="14.1092183"><ele>109.6</ele><time>2026-05-04T12:43:00.403Z</time></trkpt><trkpt lat="41.2136817" lon="14.10932"><ele>110.2</ele><time>2026-05-04T12:43:02.402Z</time></trkpt><trkpt lat="41.2136083" lon="14.1094217"><ele>110.79999999999998</ele><time>2026-05-04T12:43:04.404Z</time></trkpt><trkpt lat="41.21353" lon="14.10953"><ele>111.39999999999999</ele><time>2026-05-04T12:43:06.402Z</time></trkpt><trkpt lat="41.2134467" lon="14.1096517"><ele>112.0</ele><time>2026-05-04T12:43:08.404Z</time></trkpt><trkpt lat="41.2134033" lon="14.109715"><ele>112.0</ele><time>2026-05-04T12:43:09.403Z</time></trkpt><trkpt lat="41.2133567" lon="14.109785"><ele>112.0</ele><time>2026-05-04T12:43:10.405Z</time></trkpt><trkpt lat="41.2133083" lon="14.1098533"><ele>112.0</ele><time>2026-05-04T12:43:11.403Z</time></trkpt><trkpt lat="41.2132617" lon="14.1099217"><ele>112.0</ele><time>2026-05-04T12:43:12.402Z</time></trkpt><trkpt lat="41.213215" lon="14.1099933"><ele>112.0</ele><time>2026-05-04T12:43:13.405Z</time></trkpt><trkpt lat="41.213165" lon="14.1100617"><ele>112.0</ele><time>2026-05-04T12:43:14.404Z</time></trkpt><trkpt lat="41.2131167" lon="14.1101383"><ele>112.0</ele><time>2026-05-04T12:43:15.403Z</time></trkpt><trkpt lat="41.213065" lon="14.1102167"><ele>111.33333333333334</ele><time>2026-05-04T12:43:16.403Z</time></trkpt><trkpt lat="41.213015" lon="14.1102967"><ele>110.66666666666667</ele><time>2026-05-04T12:43:17.403Z</time></trkpt><trkpt lat="41.212965" lon="14.1103733"><ele>110.0</ele><time>2026-05-04T12:43:18.403Z</time></trkpt><trkpt lat="41.212915" lon="14.110455"><ele>109.33333333333334</ele><time>2026-05-04T12:43:19.402Z</time></trkpt><trkpt lat="41.2128683" lon="14.110535"><ele>108.66666666666667</ele><time>2026-05-04T12:43:20.403Z</time></trkpt><trkpt lat="41.21282" lon="14.110615"><ele>108.0</ele><time>2026-05-04T12:43:21.403Z</time></trkpt><trkpt lat="41.21277" lon="14.1106967"><ele>107.83333333333333</ele><time>2026-05-04T12:43:22.402Z</time></trkpt><trkpt lat="41.2127183" lon="14.1107867"><ele>107.66666666666666</ele><time>2026-05-04T12:43:23.403Z</time></trkpt><trkpt lat="41.2126683" lon="14.1108733"><ele>107.5</ele><time>2026-05-04T12:43:24.403Z</time></trkpt><trkpt lat="41.2126183" lon="14.1109617"><ele>107.33333333333333</ele><time>2026-05-04T12:43:25.403Z</time></trkpt><trkpt lat="41.212575" lon="14.111055"><ele>107.16666666666666</ele><time>2026-05-04T12:43:26.403Z</time></trkpt><trkpt lat="41.21253" lon="14.11115"><ele>107.0</ele><time>2026-05-04T12:43:27.402Z</time></trkpt><trkpt lat="41.2124833" lon="14.1112467"><ele>106.99999999999999</ele><time>2026-05-04T12:43:28.407Z</time></trkpt><trkpt lat="41.2124317" lon="14.11134"><ele>107.0</ele><time>2026-05-04T12:43:29.404Z</time></trkpt><trkpt lat="41.21238" lon="14.1114367"><ele>107.0</ele><time>2026-05-04T12:43:30.403Z</time></trkpt><trkpt lat="41.2123283" lon="14.111535"><ele>107.0</ele><time>2026-05-04T12:43:31.403Z</time></trkpt><trkpt lat="41.21228" lon="14.1116383"><ele>106.99999999999999</ele><time>2026-05-04T12:43:32.403Z</time></trkpt><trkpt lat="41.2122367" lon="14.1117433"><ele>107.0</ele><time>2026-05-04T12:43:33.403Z</time></trkpt><trkpt lat="41.212195" lon="14.1118467"><ele>106.8</ele><time>2026-05-04T12:43:34.403Z</time></trkpt><trkpt lat="41.21216" lon="14.1119583"><ele>106.6</ele><time>2026-05-04T12:43:35.403Z</time></trkpt><trkpt lat="41.2121317" lon="14.11207"><ele>106.39999999999999</ele><time>2026-05-04T12:43:36.403Z</time></trkpt><trkpt lat="41.2121067" lon="14.112185"><ele>106.19999999999999</ele><time>2026-05-04T12:43:37.402Z</time></trkpt><trkpt lat="41.2120883" lon="14.1123033"><ele>106.0</ele><time>2026-05-04T12:43:38.402Z</time></trkpt><trkpt lat="41.2120767" lon="14.1124267"><ele>106.0</ele><time>2026-05-04T12:43:39.403Z</time></trkpt><trkpt lat="41.2120667" lon="14.11255"><ele>106.0</ele><time>2026-05-04T12:43:40.403Z</time></trkpt><trkpt lat="41.21206" lon="14.1126717"><ele>106.0</ele><time>2026-05-04T12:43:41.402Z</time></trkpt><trkpt lat="41.2120467" lon="14.1127933"><ele>106.0</ele><time>2026-05-04T12:43:42.404Z</time></trkpt><trkpt lat="41.2120383" lon="14.1129133"><ele>106.0</ele><time>2026-05-04T12:43:43.404Z</time></trkpt><trkpt lat="41.2120333" lon="14.1130317"><ele>106.00000000000001</ele><time>2026-05-04T12:43:44.402Z</time></trkpt><trkpt lat="41.212025" lon="14.1131483"><ele>106.0</ele><time>2026-05-04T12:43:45.403Z</time></trkpt><trkpt lat="41.2120183" lon="14.1132633"><ele>106.0</ele><time>2026-05-04T12:43:46.402Z</time></trkpt><trkpt lat="41.2120067" lon="14.113375"><ele>106.0</ele><time>2026-05-04T12:43:47.404Z</time></trkpt><trkpt lat="41.211995" lon="14.1134867"><ele>106.00000000000001</ele><time>2026-05-04T12:43:48.403Z</time></trkpt><trkpt lat="41.2119817" lon="14.1135967"><ele>106.0</ele><time>2026-05-04T12:43:49.404Z</time></trkpt><trkpt lat="41.21197" lon="14.1137"><ele>105.66666666666667</ele><time>2026-05-04T12:43:50.403Z</time></trkpt><trkpt lat="41.211955" lon="14.1138"><ele>105.33333333333334</ele><time>2026-05-04T12:43:51.403Z</time></trkpt><trkpt lat="41.2119417" lon="14.1139117"><ele>105.0</ele><time>2026-05-04T12:43:52.402Z</time></trkpt><trkpt lat="41.21193" lon="14.1140283"><ele>104.66666666666666</ele><time>2026-05-04T12:43:53.404Z</time></trkpt><trkpt lat="41.2119133" lon="14.1141467"><ele>104.33333333333333</ele><time>2026-05-04T12:43:54.403Z</time></trkpt><trkpt lat="41.2119" lon="14.1142617"><ele>104.0</ele><time>2026-05-04T12:43:55.402Z</time></trkpt><trkpt lat="41.2118833" lon="14.114375"><ele>103.83333333333333</ele><time>2026-05-04T12:43:56.402Z</time></trkpt><trkpt lat="41.2118667" lon="14.114485"><ele>103.66666666666666</ele><time>2026-05-04T12:43:57.403Z</time></trkpt><trkpt lat="41.2118433" lon="14.1145933"><ele>103.5</ele><time>2026-05-04T12:43:58.402Z</time></trkpt><trkpt lat="41.2118217" lon="14.1147033"><ele>103.33333333333334</ele><time>2026-05-04T12:43:59.403Z</time></trkpt><trkpt lat="41.2117983" lon="14.1148117"><ele>103.16666666666667</ele><time>2026-05-04T12:44:00.404Z</time></trkpt><trkpt lat="41.2117667" lon="14.1149117"><ele>103.0</ele><time>2026-05-04T12:44:01.404Z</time></trkpt><trkpt lat="41.2117383" lon="14.1150183"><ele>102.83333333333334</ele><time>2026-05-04T12:44:02.402Z</time></trkpt><trkpt lat="41.2117167" lon="14.11513"><ele>102.66666666666667</ele><time>2026-05-04T12:44:03.403Z</time></trkpt><trkpt lat="41.21169" lon="14.1152383"><ele>102.5</ele><time>2026-05-04T12:44:04.402Z</time></trkpt><trkpt lat="41.21167" lon="14.1153483"><ele>102.33333333333334</ele><time>2026-05-04T12:44:05.403Z</time></trkpt><trkpt lat="41.2116483" lon="14.1154583"><ele>102.16666666666667</ele><time>2026-05-04T12:44:06.404Z</time></trkpt><trkpt lat="41.2116283" lon="14.115565"><ele>102.0</ele><time>2026-05-04T12:44:07.41Z</time></trkpt><trkpt lat="41.2116083" lon="14.1156783"><ele>102.16666666666667</ele><time>2026-05-04T12:44:08.409Z</time></trkpt><trkpt lat="41.2115867" lon="14.1157883"><ele>102.33333333333334</ele><time>2026-05-04T12:44:09.407Z</time></trkpt><trkpt lat="41.2115617" lon="14.1158983"><ele>102.5</ele><time>2026-05-04T12:44:10.408Z</time></trkpt><trkpt lat="41.2115417" lon="14.1160133"><ele>102.66666666666667</ele><time>2026-05-04T12:44:11.41Z</time></trkpt><trkpt lat="41.2115133" lon="14.1161183"><ele>102.83333333333334</ele><time>2026-05-04T12:44:12.405Z</time></trkpt><trkpt lat="41.211485" lon="14.1162267"><ele>103.0</ele><time>2026-05-04T12:44:13.405Z</time></trkpt><trkpt lat="41.21145" lon="14.1163333"><ele>103.16666666666667</ele><time>2026-05-04T12:44:14.404Z</time></trkpt><trkpt lat="41.211425" lon="14.1164433"><ele>103.33333333333334</ele><time>2026-05-04T12:44:15.404Z</time></trkpt><trkpt lat="41.2114" lon="14.1165533"><ele>103.5</ele><time>2026-05-04T12:44:16.404Z</time></trkpt><trkpt lat="41.2113667" lon="14.1166633"><ele>103.66666666666666</ele><time>2026-05-04T12:44:17.404Z</time></trkpt><trkpt lat="41.2113383" lon="14.116775"><ele>103.83333333333333</ele><time>2026-05-04T12:44:18.403Z</time></trkpt><trkpt lat="41.21131" lon="14.116885"><ele>104.0</ele><time>2026-05-04T12:44:19.403Z</time></trkpt><trkpt lat="41.21128" lon="14.1169917"><ele>103.99999999999999</ele><time>2026-05-04T12:44:20.405Z</time></trkpt><trkpt lat="41.2112467" lon="14.1170983"><ele>104.0</ele><time>2026-05-04T12:44:21.402Z</time></trkpt><trkpt lat="41.211215" lon="14.117205"><ele>104.0</ele><time>2026-05-04T12:44:22.403Z</time></trkpt><trkpt lat="41.2111833" lon="14.1173117"><ele>104.0</ele><time>2026-05-04T12:44:23.403Z</time></trkpt><trkpt lat="41.2111517" lon="14.1174217"><ele>103.99999999999999</ele><time>2026-05-04T12:44:24.403Z</time></trkpt><trkpt lat="41.2111167" lon="14.1175283"><ele>104.0</ele><time>2026-05-04T12:44:25.404Z</time></trkpt><trkpt lat="41.21108" lon="14.11763"><ele>103.49999999999999</ele><time>2026-05-04T12:44:26.402Z</time></trkpt><trkpt lat="41.2110417" lon="14.11773"><ele>103.0</ele><time>2026-05-04T12:44:27.404Z</time></trkpt><trkpt lat="41.2110017" lon="14.117835"><ele>102.5</ele><time>2026-05-04T12:44:28.403Z</time></trkpt><trkpt lat="41.210965" lon="14.1179417"><ele>102.0</ele><time>2026-05-04T12:44:29.403Z</time></trkpt><trkpt lat="41.21092" lon="14.1180433"><ele>101.49999999999999</ele><time>2026-05-04T12:44:30.402Z</time></trkpt><trkpt lat="41.2108767" lon="14.118145"><ele>101.0</ele><time>2026-05-04T12:44:31.404Z</time></trkpt><trkpt lat="41.2108283" lon="14.11825"><ele>101.4</ele><time>2026-05-04T12:44:32.402Z</time></trkpt><trkpt lat="41.2107867" lon="14.1183567"><ele>101.8</ele><time>2026-05-04T12:44:33.402Z</time></trkpt><trkpt lat="41.2107383" lon="14.11846"><ele>102.2</ele><time>2026-05-04T12:44:34.404Z</time></trkpt><trkpt lat="41.21069" lon="14.118565"><ele>102.60000000000001</ele><time>2026-05-04T12:44:35.403Z</time></trkpt><trkpt lat="41.21064" lon="14.11867"><ele>103.0</ele><time>2026-05-04T12:44:36.403Z</time></trkpt><trkpt lat="41.2105917" lon="14.1187783"><ele>103.0</ele><time>2026-05-04T12:44:37.403Z</time></trkpt><trkpt lat="41.210545" lon="14.1188867"><ele>103.0</ele><time>2026-05-04T12:44:38.402Z</time></trkpt><trkpt lat="41.2104983" lon="14.1189967"><ele>103.0</ele><time>2026-05-04T12:44:39.403Z</time></trkpt><trkpt lat="41.2104533" lon="14.1191033"><ele>103.0</ele><time>2026-05-04T12:44:40.402Z</time></trkpt><trkpt lat="41.2104067" lon="14.11921"><ele>103.0</ele><time>2026-05-04T12:44:41.403Z</time></trkpt><trkpt lat="41.2103583" lon="14.1193117"><ele>102.2</ele><time>2026-05-04T12:44:42.402Z</time></trkpt><trkpt lat="41.21031" lon="14.1194167"><ele>101.4</ele><time>2026-05-04T12:44:43.407Z</time></trkpt><trkpt lat="41.2102617" lon="14.1195233"><ele>100.60000000000001</ele><time>2026-05-04T12:44:44.402Z</time></trkpt><trkpt lat="41.210215" lon="14.1196333"><ele>99.80000000000001</ele><time>2026-05-04T12:44:45.402Z</time></trkpt><trkpt lat="41.21017" lon="14.11974"><ele>99.0</ele><time>2026-05-04T12:44:46.402Z</time></trkpt><trkpt lat="41.2101217" lon="14.1198517"><ele>98.0</ele><time>2026-05-04T12:44:47.403Z</time></trkpt><trkpt lat="41.2100717" lon="14.1199667"><ele>97.0</ele><time>2026-05-04T12:44:48.402Z</time></trkpt><trkpt lat="41.21002" lon="14.120075"><ele>96.0</ele><time>2026-05-04T12:44:49.404Z</time></trkpt><trkpt lat="41.209965" lon="14.1201867"><ele>95.0</ele><time>2026-05-04T12:44:50.401Z</time></trkpt><trkpt lat="41.2099067" lon="14.120295"><ele>94.0</ele><time>2026-05-04T12:44:51.402Z</time></trkpt><trkpt lat="41.20986" lon="14.120405"><ele>93.6</ele><time>2026-05-04T12:44:52.402Z</time></trkpt><trkpt lat="41.20981" lon="14.1205117"><ele>93.2</ele><time>2026-05-04T12:44:53.401Z</time></trkpt><trkpt lat="41.20976" lon="14.1206217"><ele>92.8</ele><time>2026-05-04T12:44:54.402Z</time></trkpt><trkpt lat="41.2097117" lon="14.1207333"><ele>92.39999999999999</ele><time>2026-05-04T12:44:55.403Z</time></trkpt><trkpt lat="41.2096617" lon="14.1208467"><ele>92.0</ele><time>2026-05-04T12:44:56.401Z</time></trkpt><trkpt lat="41.20961" lon="14.12096"><ele>92.0</ele><time>2026-05-04T12:44:57.402Z</time></trkpt><trkpt lat="41.2095583" lon="14.12107"><ele>92.0</ele><time>2026-05-04T12:44:58.403Z</time></trkpt><trkpt lat="41.209505" lon="14.121185"><ele>92.0</ele><time>2026-05-04T12:44:59.404Z</time></trkpt><trkpt lat="41.209455" lon="14.1213017"><ele>92.0</ele><time>2026-05-04T12:45:00.403Z</time></trkpt><trkpt lat="41.2094033" lon="14.1214183"><ele>92.0</ele><time>2026-05-04T12:45:01.402Z</time></trkpt><trkpt lat="41.2093483" lon="14.1215367"><ele>91.39999999999999</ele><time>2026-05-04T12:45:02.403Z</time></trkpt><trkpt lat="41.2092933" lon="14.121655"><ele>90.8</ele><time>2026-05-04T12:45:03.403Z</time></trkpt><trkpt lat="41.2092367" lon="14.1217767"><ele>90.2</ele><time>2026-05-04T12:45:04.404Z</time></trkpt><trkpt lat="41.20918" lon="14.121895"><ele>89.6</ele><time>2026-05-04T12:45:05.402Z</time></trkpt><trkpt lat="41.209125" lon="14.122015"><ele>89.0</ele><time>2026-05-04T12:45:06.402Z</time></trkpt><trkpt lat="41.20907" lon="14.1221333"><ele>89.0</ele><time>2026-05-04T12:45:07.402Z</time></trkpt><trkpt lat="41.2090133" lon="14.12225"><ele>89.0</ele><time>2026-05-04T12:45:08.401Z</time></trkpt><trkpt lat="41.208955" lon="14.122365"><ele>89.0</ele><time>2026-05-04T12:45:09.402Z</time></trkpt><trkpt lat="41.2088983" lon="14.12248"><ele>89.0</ele><time>2026-05-04T12:45:10.402Z</time></trkpt><trkpt lat="41.2088417" lon="14.1225967"><ele>89.0</ele><time>2026-05-04T12:45:11.402Z</time></trkpt><trkpt lat="41.208785" lon="14.1227117"><ele>89.2</ele><time>2026-05-04T12:45:12.402Z</time></trkpt><trkpt lat="41.2087283" lon="14.1228267"><ele>89.4</ele><time>2026-05-04T12:45:13.403Z</time></trkpt><trkpt lat="41.2086733" lon="14.1229417"><ele>89.6</ele><time>2026-05-04T12:45:14.402Z</time></trkpt><trkpt lat="41.2086183" lon="14.1230583"><ele>89.8</ele><time>2026-05-04T12:45:15.401Z</time></trkpt><trkpt lat="41.208565" lon="14.1231733"><ele>90.0</ele><time>2026-05-04T12:45:16.403Z</time></trkpt><trkpt lat="41.20851" lon="14.1232917"><ele>89.4</ele><time>2026-05-04T12:45:17.402Z</time></trkpt><trkpt lat="41.2084583" lon="14.1234117"><ele>88.8</ele><time>2026-05-04T12:45:18.402Z</time></trkpt><trkpt lat="41.20841" lon="14.1235283"><ele>88.19999999999999</ele><time>2026-05-04T12:45:19.402Z</time></trkpt><trkpt lat="41.208365" lon="14.123645"><ele>87.6</ele><time>2026-05-04T12:45:20.402Z</time></trkpt><trkpt lat="41.2083217" lon="14.1237583"><ele>87.0</ele><time>2026-05-04T12:45:21.402Z</time></trkpt><trkpt lat="41.2082833" lon="14.1238733"><ele>87.0</ele><time>2026-05-04T12:45:22.401Z</time></trkpt><trkpt lat="41.2082467" lon="14.1239883"><ele>87.0</ele><time>2026-05-04T12:45:23.403Z</time></trkpt><trkpt lat="41.2082133" lon="14.1241033"><ele>87.0</ele><time>2026-05-04T12:45:24.402Z</time></trkpt><trkpt lat="41.2081817" lon="14.1242183"><ele>87.0</ele><time>2026-05-04T12:45:25.403Z</time></trkpt><trkpt lat="41.2081517" lon="14.124335"><ele>87.0</ele><time>2026-05-04T12:45:26.402Z</time></trkpt><trkpt lat="41.20812" lon="14.1244467"><ele>87.6</ele><time>2026-05-04T12:45:27.403Z</time></trkpt><trkpt lat="41.20809" lon="14.12456"><ele>88.19999999999999</ele><time>2026-05-04T12:45:28.401Z</time></trkpt><trkpt lat="41.20806" lon="14.124675"><ele>88.8</ele><time>2026-05-04T12:45:29.403Z</time></trkpt><trkpt lat="41.20803" lon="14.1247867"><ele>89.4</ele><time>2026-05-04T12:45:30.401Z</time></trkpt><trkpt lat="41.2079967" lon="14.1248983"><ele>90.0</ele><time>2026-05-04T12:45:31.403Z</time></trkpt><trkpt lat="41.207965" lon="14.1250133"><ele>90.0</ele><time>2026-05-04T12:45:32.402Z</time></trkpt><trkpt lat="41.2079317" lon="14.1251233"><ele>90.0</ele><time>2026-05-04T12:45:33.403Z</time></trkpt><trkpt lat="41.2079017" lon="14.125235"><ele>90.0</ele><time>2026-05-04T12:45:34.401Z</time></trkpt><trkpt lat="41.20787" lon="14.1253467"><ele>90.0</ele><time>2026-05-04T12:45:35.402Z</time></trkpt><trkpt lat="41.2078417" lon="14.1254583"><ele>90.0</ele><time>2026-05-04T12:45:36.402Z</time></trkpt><trkpt lat="41.20781" lon="14.12557"><ele>90.0</ele><time>2026-05-04T12:45:37.402Z</time></trkpt><trkpt lat="41.207775" lon="14.1256833"><ele>89.66666666666667</ele><time>2026-05-04T12:45:38.402Z</time></trkpt><trkpt lat="41.2077367" lon="14.12579"><ele>89.33333333333333</ele><time>2026-05-04T12:45:39.401Z</time></trkpt><trkpt lat="41.2076933" lon="14.1258917"><ele>89.0</ele><time>2026-05-04T12:45:40.402Z</time></trkpt><trkpt lat="41.2076483" lon="14.1259917"><ele>88.66666666666666</ele><time>2026-05-04T12:45:41.403Z</time></trkpt><trkpt lat="41.2076017" lon="14.12609"><ele>88.33333333333333</ele><time>2026-05-04T12:45:42.402Z</time></trkpt><trkpt lat="41.2075567" lon="14.126185"><ele>88.0</ele><time>2026-05-04T12:45:43.402Z</time></trkpt><trkpt lat="41.2075067" lon="14.1262783"><ele>88.0</ele><time>2026-05-04T12:45:44.402Z</time></trkpt><trkpt lat="41.2074617" lon="14.12637"><ele>88.0</ele><time>2026-05-04T12:45:45.402Z</time></trkpt><trkpt lat="41.2074183" lon="14.126465"><ele>88.0</ele><time>2026-05-04T12:45:46.401Z</time></trkpt><trkpt lat="41.2073683" lon="14.1265533"><ele>88.0</ele><time>2026-05-04T12:45:47.403Z</time></trkpt><trkpt lat="41.2073217" lon="14.1266417"><ele>88.0</ele><time>2026-05-04T12:45:48.403Z</time></trkpt><trkpt lat="41.2072717" lon="14.1267233"><ele>88.0</ele><time>2026-05-04T12:45:49.402Z</time></trkpt><trkpt lat="41.2072233" lon="14.1268167"><ele>88.16666666666666</ele><time>2026-05-04T12:45:50.403Z</time></trkpt><trkpt lat="41.2071767" lon="14.1269117"><ele>88.33333333333333</ele><time>2026-05-04T12:45:51.402Z</time></trkpt><trkpt lat="41.2071333" lon="14.1270067"><ele>88.5</ele><time>2026-05-04T12:45:52.403Z</time></trkpt><trkpt lat="41.20709" lon="14.1271017"><ele>88.66666666666667</ele><time>2026-05-04T12:45:53.408Z</time></trkpt><trkpt lat="41.207045" lon="14.1272033"><ele>88.83333333333334</ele><time>2026-05-04T12:45:54.403Z</time></trkpt><trkpt lat="41.207" lon="14.1272983"><ele>89.0</ele><time>2026-05-04T12:45:55.403Z</time></trkpt><trkpt lat="41.206955" lon="14.1273967"><ele>88.5</ele><time>2026-05-04T12:45:56.402Z</time></trkpt><trkpt lat="41.2069117" lon="14.127495"><ele>88.0</ele><time>2026-05-04T12:45:57.402Z</time></trkpt><trkpt lat="41.20687" lon="14.1275967"><ele>87.5</ele><time>2026-05-04T12:45:58.402Z</time></trkpt><trkpt lat="41.2068267" lon="14.1277"><ele>87.0</ele><time>2026-05-04T12:45:59.403Z</time></trkpt><trkpt lat="41.206785" lon="14.1278017"><ele>86.5</ele><time>2026-05-04T12:46:00.403Z</time></trkpt><trkpt lat="41.20674" lon="14.1279083"><ele>86.0</ele><time>2026-05-04T12:46:01.402Z</time></trkpt><trkpt lat="41.206695" lon="14.128015"><ele>86.0</ele><time>2026-05-04T12:46:02.401Z</time></trkpt><trkpt lat="41.20665" lon="14.1281217"><ele>86.0</ele><time>2026-05-04T12:46:03.402Z</time></trkpt><trkpt lat="41.2066033" lon="14.128225"><ele>86.0</ele><time>2026-05-04T12:46:04.402Z</time></trkpt><trkpt lat="41.206555" lon="14.1283283"><ele>86.0</ele><time>2026-05-04T12:46:05.402Z</time></trkpt><trkpt lat="41.2065067" lon="14.1284233"><ele>86.0</ele><time>2026-05-04T12:46:06.401Z</time></trkpt><trkpt lat="41.2064583" lon="14.128515"><ele>86.0</ele><time>2026-05-04T12:46:07.401Z</time></trkpt><trkpt lat="41.20641" lon="14.128605"><ele>85.66666666666667</ele><time>2026-05-04T12:46:08.403Z</time></trkpt><trkpt lat="41.2063567" lon="14.12869"><ele>85.33333333333334</ele><time>2026-05-04T12:46:09.401Z</time></trkpt><trkpt lat="41.2063017" lon="14.1287733"><ele>85.0</ele><time>2026-05-04T12:46:10.402Z</time></trkpt><trkpt lat="41.2062483" lon="14.1288567"><ele>84.66666666666667</ele><time>2026-05-04T12:46:11.402Z</time></trkpt><trkpt lat="41.2061917" lon="14.1289367"><ele>84.33333333333333</ele><time>2026-05-04T12:46:12.402Z</time></trkpt><trkpt lat="41.206135" lon="14.1290183"><ele>84.0</ele><time>2026-05-04T12:46:13.403Z</time></trkpt><trkpt lat="41.206075" lon="14.1290933"><ele>84.0</ele><time>2026-05-04T12:46:14.403Z</time></trkpt><trkpt lat="41.2060217" lon="14.1291717"><ele>84.0</ele><time>2026-05-04T12:46:15.403Z</time></trkpt><trkpt lat="41.2059667" lon="14.129255"><ele>84.0</ele><time>2026-05-04T12:46:16.402Z</time></trkpt><trkpt lat="41.2059067" lon="14.12934"><ele>84.0</ele><time>2026-05-04T12:46:17.402Z</time></trkpt><trkpt lat="41.2058417" lon="14.1294183"><ele>84.0</ele><time>2026-05-04T12:46:18.402Z</time></trkpt><trkpt lat="41.2057783" lon="14.1295017"><ele>84.0</ele><time>2026-05-04T12:46:19.403Z</time></trkpt><trkpt lat="41.205715" lon="14.1295717"><ele>84.33333333333333</ele><time>2026-05-04T12:46:20.403Z</time></trkpt><trkpt lat="41.20565" lon="14.1296467"><ele>84.66666666666667</ele><time>2026-05-04T12:46:21.402Z</time></trkpt><trkpt lat="41.2055867" lon="14.1297283"><ele>85.0</ele><time>2026-05-04T12:46:22.403Z</time></trkpt><trkpt lat="41.2055283" lon="14.1298183"><ele>85.33333333333334</ele><time>2026-05-04T12:46:23.404Z</time></trkpt><trkpt lat="41.205465" lon="14.129905"><ele>85.66666666666667</ele><time>2026-05-04T12:46:24.404Z</time></trkpt><trkpt lat="41.205405" lon="14.1299917"><ele>86.0</ele><time>2026-05-04T12:46:25.404Z</time></trkpt><trkpt lat="41.2053483" lon="14.13007"><ele>86.0</ele><time>2026-05-04T12:46:26.403Z</time></trkpt><trkpt lat="41.2052883" lon="14.1301483"><ele>86.0</ele><time>2026-05-04T12:46:27.403Z</time></trkpt><trkpt lat="41.2052283" lon="14.13023"><ele>86.0</ele><time>2026-05-04T12:46:28.403Z</time></trkpt><trkpt lat="41.2051683" lon="14.1303067"><ele>86.0</ele><time>2026-05-04T12:46:29.404Z</time></trkpt><trkpt lat="41.2051033" lon="14.1303817"><ele>86.0</ele><time>2026-05-04T12:46:30.402Z</time></trkpt><trkpt lat="41.20504" lon="14.1304617"><ele>86.0</ele><time>2026-05-04T12:46:31.403Z</time></trkpt><trkpt lat="41.2049767" lon="14.1305433"><ele>86.0</ele><time>2026-05-04T12:46:32.402Z</time></trkpt><trkpt lat="41.2049133" lon="14.1306167"><ele>86.0</ele><time>2026-05-04T12:46:33.403Z</time></trkpt><trkpt lat="41.2048533" lon="14.1306967"><ele>86.0</ele><time>2026-05-04T12:46:34.404Z</time></trkpt><trkpt lat="41.2047867" lon="14.1307717"><ele>86.0</ele><time>2026-05-04T12:46:35.404Z</time></trkpt><trkpt lat="41.2047267" lon="14.1308583"><ele>86.0</ele><time>2026-05-04T12:46:36.404Z</time></trkpt><trkpt lat="41.204665" lon="14.1309483"><ele>86.0</ele><time>2026-05-04T12:46:37.403Z</time></trkpt><trkpt lat="41.20461" lon="14.131035"><ele>86.0</ele><time>2026-05-04T12:46:38.402Z</time></trkpt><trkpt lat="41.2045633" lon="14.13113"><ele>86.0</ele><time>2026-05-04T12:46:39.402Z</time></trkpt><trkpt lat="41.2045267" lon="14.1312333"><ele>86.0</ele><time>2026-05-04T12:46:40.404Z</time></trkpt><trkpt lat="41.204495" lon="14.1313383"><ele>86.0</ele><time>2026-05-04T12:46:41.402Z</time></trkpt><trkpt lat="41.20447" lon="14.1314467"><ele>86.0</ele><time>2026-05-04T12:46:42.403Z</time></trkpt><trkpt lat="41.2044517" lon="14.13156"><ele>86.0</ele><time>2026-05-04T12:46:43.402Z</time></trkpt><trkpt lat="41.204435" lon="14.1316717"><ele>85.0</ele><time>2026-05-04T12:46:44.403Z</time></trkpt><trkpt lat="41.2044167" lon="14.1317867"><ele>84.0</ele><time>2026-05-04T12:46:45.404Z</time></trkpt><trkpt lat="41.2043983" lon="14.1318983"><ele>83.0</ele><time>2026-05-04T12:46:46.401Z</time></trkpt><trkpt lat="41.2043817" lon="14.1320117"><ele>82.0</ele><time>2026-05-04T12:46:47.404Z</time></trkpt><trkpt lat="41.2043667" lon="14.1321233"><ele>81.0</ele><time>2026-05-04T12:46:48.402Z</time></trkpt><trkpt lat="41.2043483" lon="14.1322333"><ele>80.0</ele><time>2026-05-04T12:46:49.402Z</time></trkpt><trkpt lat="41.20433" lon="14.13234"><ele>80.16666666666667</ele><time>2026-05-04T12:46:50.402Z</time></trkpt><trkpt lat="41.2043133" lon="14.1324467"><ele>80.33333333333334</ele><time>2026-05-04T12:46:51.403Z</time></trkpt><trkpt lat="41.204295" lon="14.1325533"><ele>80.5</ele><time>2026-05-04T12:46:52.404Z</time></trkpt><trkpt lat="41.2042767" lon="14.1326633"><ele>80.66666666666667</ele><time>2026-05-04T12:46:53.403Z</time></trkpt><trkpt lat="41.204255" lon="14.1327717"><ele>80.83333333333333</ele><time>2026-05-04T12:46:54.402Z</time></trkpt><trkpt lat="41.2042333" lon="14.13287"><ele>81.0</ele><time>2026-05-04T12:46:55.403Z</time></trkpt><trkpt lat="41.204215" lon="14.1329733"><ele>81.0</ele><time>2026-05-04T12:46:56.402Z</time></trkpt><trkpt lat="41.2042017" lon="14.1330783"><ele>81.0</ele><time>2026-05-04T12:46:57.404Z</time></trkpt><trkpt lat="41.20418" lon="14.1331783"><ele>81.0</ele><time>2026-05-04T12:46:58.403Z</time></trkpt><trkpt lat="41.2041617" lon="14.1332733"><ele>81.0</ele><time>2026-05-04T12:46:59.403Z</time></trkpt><trkpt lat="41.2041417" lon="14.133375"><ele>81.0</ele><time>2026-05-04T12:47:00.403Z</time></trkpt><trkpt lat="41.20412" lon="14.1334767"><ele>81.0</ele><time>2026-05-04T12:47:01.405Z</time></trkpt><trkpt lat="41.2040983" lon="14.133575"><ele>81.5</ele><time>2026-05-04T12:47:02.401Z</time></trkpt><trkpt lat="41.2040817" lon="14.1336817"><ele>82.0</ele><time>2026-05-04T12:47:03.403Z</time></trkpt><trkpt lat="41.2040617" lon="14.1337883"><ele>82.5</ele><time>2026-05-04T12:47:04.403Z</time></trkpt><trkpt lat="41.20404" lon="14.1338933"><ele>83.0</ele><time>2026-05-04T12:47:05.403Z</time></trkpt><trkpt lat="41.20402" lon="14.133995"><ele>83.5</ele><time>2026-05-04T12:47:06.403Z</time></trkpt><trkpt lat="41.2040017" lon="14.1340933"><ele>84.0</ele><time>2026-05-04T12:47:07.404Z</time></trkpt><trkpt lat="41.2039833" lon="14.134195"><ele>84.33333333333333</ele><time>2026-05-04T12:47:08.401Z</time></trkpt><trkpt lat="41.2039617" lon="14.1342983"><ele>84.66666666666667</ele><time>2026-05-04T12:47:09.402Z</time></trkpt><trkpt lat="41.203945" lon="14.1344067"><ele>85.0</ele><time>2026-05-04T12:47:10.403Z</time></trkpt><trkpt lat="41.20393" lon="14.1345133"><ele>85.33333333333334</ele><time>2026-05-04T12:47:11.402Z</time></trkpt><trkpt lat="41.2039183" lon="14.1346217"><ele>85.66666666666667</ele><time>2026-05-04T12:47:12.403Z</time></trkpt><trkpt lat="41.2039017" lon="14.134725"><ele>86.0</ele><time>2026-05-04T12:47:13.402Z</time></trkpt><trkpt lat="41.2038867" lon="14.1348317"><ele>86.16666666666667</ele><time>2026-05-04T12:47:14.403Z</time></trkpt><trkpt lat="41.2038683" lon="14.13494"><ele>86.33333333333334</ele><time>2026-05-04T12:47:15.403Z</time></trkpt><trkpt lat="41.2038517" lon="14.13505"><ele>86.5</ele><time>2026-05-04T12:47:16.403Z</time></trkpt><trkpt lat="41.2038367" lon="14.1351533"><ele>86.66666666666667</ele><time>2026-05-04T12:47:17.402Z</time></trkpt><trkpt lat="41.2038167" lon="14.13526"><ele>86.83333333333333</ele><time>2026-05-04T12:47:18.405Z</time></trkpt><trkpt lat="41.2038033" lon="14.1353567"><ele>87.0</ele><time>2026-05-04T12:47:19.402Z</time></trkpt><trkpt lat="41.2037883" lon="14.1354633"><ele>87.0</ele><time>2026-05-04T12:47:20.405Z</time></trkpt><trkpt lat="41.2037733" lon="14.13557"><ele>87.0</ele><time>2026-05-04T12:47:21.402Z</time></trkpt><trkpt lat="41.2037617" lon="14.1356717"><ele>87.0</ele><time>2026-05-04T12:47:22.404Z</time></trkpt><trkpt lat="41.2037417" lon="14.135775"><ele>87.0</ele><time>2026-05-04T12:47:23.403Z</time></trkpt><trkpt lat="41.2037233" lon="14.1358767"><ele>87.0</ele><time>2026-05-04T12:47:24.403Z</time></trkpt><trkpt lat="41.203705" lon="14.1359783"><ele>87.0</ele><time>2026-05-04T12:47:25.403Z</time></trkpt><trkpt lat="41.2036817" lon="14.1360717"><ele>87.28571428571428</ele><time>2026-05-04T12:47:26.403Z</time></trkpt><trkpt lat="41.203655" lon="14.1361617"><ele>87.57142857142857</ele><time>2026-05-04T12:47:27.411Z</time></trkpt><trkpt lat="41.2036267" lon="14.13625"><ele>87.85714285714286</ele><time>2026-05-04T12:47:28.403Z</time></trkpt><trkpt lat="41.203595" lon="14.1363367"><ele>88.14285714285714</ele><time>2026-05-04T12:47:29.403Z</time></trkpt><trkpt lat="41.2035617" lon="14.1364183"><ele>88.42857142857143</ele><time>2026-05-04T12:47:30.403Z</time></trkpt><trkpt lat="41.20353" lon="14.1365"><ele>88.71428571428571</ele><time>2026-05-04T12:47:31.404Z</time></trkpt><trkpt lat="41.2034933" lon="14.1365817"><ele>89.0</ele><time>2026-05-04T12:47:32.404Z</time></trkpt><trkpt lat="41.203455" lon="14.1366583"><ele>89.14285714285714</ele><time>2026-05-04T12:47:33.404Z</time></trkpt><trkpt lat="41.2034183" lon="14.1367383"><ele>89.28571428571428</ele><time>2026-05-04T12:47:34.402Z</time></trkpt><trkpt lat="41.2033783" lon="14.1368167"><ele>89.42857142857142</ele><time>2026-05-04T12:47:35.403Z</time></trkpt><trkpt lat="41.203335" lon="14.1368917"><ele>89.57142857142857</ele><time>2026-05-04T12:47:36.401Z</time></trkpt><trkpt lat="41.20329" lon="14.1369683"><ele>89.71428571428572</ele><time>2026-05-04T12:47:37.403Z</time></trkpt><trkpt lat="41.203245" lon="14.13704"><ele>89.85714285714285</ele><time>2026-05-04T12:47:38.406Z</time></trkpt><trkpt lat="41.2032" lon="14.1371183"><ele>90.0</ele><time>2026-05-04T12:47:39.406Z</time></trkpt><trkpt lat="41.20315" lon="14.1371833"><ele>90.0</ele><time>2026-05-04T12:47:40.402Z</time></trkpt><trkpt lat="41.203095" lon="14.13724"><ele>90.0</ele><time>2026-05-04T12:47:41.404Z</time></trkpt><trkpt lat="41.2030483" lon="14.137305"><ele>90.0</ele><time>2026-05-04T12:47:42.403Z</time></trkpt><trkpt lat="41.2030067" lon="14.1373783"><ele>90.0</ele><time>2026-05-04T12:47:43.404Z</time></trkpt><trkpt lat="41.202965" lon="14.1374417"><ele>90.0</ele><time>2026-05-04T12:47:44.403Z</time></trkpt><trkpt lat="41.2028983" lon="14.1375633"><ele>90.0</ele><time>2026-05-04T12:47:46.402Z</time></trkpt><trkpt lat="41.202825" lon="14.1376883"><ele>90.0</ele><time>2026-05-04T12:47:48.404Z</time></trkpt><trkpt lat="41.202755" lon="14.13782"><ele>90.0</ele><time>2026-05-04T12:47:50.404Z</time></trkpt><trkpt lat="41.2026967" lon="14.1379633"><ele>90.0</ele><time>2026-05-04T12:47:52.404Z</time></trkpt><trkpt lat="41.2026667" lon="14.13804"><ele>90.0</ele><time>2026-05-04T12:47:53.404Z</time></trkpt><trkpt lat="41.2026317" lon="14.138115"><ele>90.0</ele><time>2026-05-04T12:47:54.404Z</time></trkpt><trkpt lat="41.2026017" lon="14.1381967"><ele>90.0</ele><time>2026-05-04T12:47:55.404Z</time></trkpt><trkpt lat="41.2025683" lon="14.1382817"><ele>89.5</ele><time>2026-05-04T12:47:56.404Z</time></trkpt><trkpt lat="41.2025367" lon="14.1383733"><ele>89.0</ele><time>2026-05-04T12:47:57.403Z</time></trkpt><trkpt lat="41.202505" lon="14.1384683"><ele>88.5</ele><time>2026-05-04T12:47:58.402Z</time></trkpt><trkpt lat="41.2024717" lon="14.138565"><ele>88.0</ele><time>2026-05-04T12:47:59.404Z</time></trkpt><trkpt lat="41.2024367" lon="14.13866"><ele>87.5</ele><time>2026-05-04T12:48:00.402Z</time></trkpt><trkpt lat="41.2024017" lon="14.1387567"><ele>87.0</ele><time>2026-05-04T12:48:01.404Z</time></trkpt><trkpt lat="41.20237" lon="14.1388567"><ele>87.0</ele><time>2026-05-04T12:48:02.402Z</time></trkpt><trkpt lat="41.202345" lon="14.1389633"><ele>87.0</ele><time>2026-05-04T12:48:03.402Z</time></trkpt><trkpt lat="41.202325" lon="14.139075"><ele>87.0</ele><time>2026-05-04T12:48:04.404Z</time></trkpt><trkpt lat="41.2023067" lon="14.1391883"><ele>87.0</ele><time>2026-05-04T12:48:05.403Z</time></trkpt><trkpt lat="41.2022917" lon="14.1393017"><ele>87.0</ele><time>2026-05-04T12:48:06.404Z</time></trkpt><trkpt lat="41.2022783" lon="14.1394183"><ele>87.0</ele><time>2026-05-04T12:48:07.403Z</time></trkpt><trkpt lat="41.20226" lon="14.1395367"><ele>84.8</ele><time>2026-05-04T12:48:08.404Z</time></trkpt><trkpt lat="41.2022433" lon="14.139655"><ele>82.6</ele><time>2026-05-04T12:48:09.403Z</time></trkpt><trkpt lat="41.2022283" lon="14.1397733"><ele>80.39999999999999</ele><time>2026-05-04T12:48:10.403Z</time></trkpt><trkpt lat="41.20221" lon="14.139895"><ele>78.19999999999999</ele><time>2026-05-04T12:48:11.404Z</time></trkpt><trkpt lat="41.20219" lon="14.140015"><ele>76.0</ele><time>2026-05-04T12:48:12.406Z</time></trkpt><trkpt lat="41.2021683" lon="14.140135"><ele>76.0</ele><time>2026-05-04T12:48:13.403Z</time></trkpt><trkpt lat="41.2021417" lon="14.14025"><ele>76.0</ele><time>2026-05-04T12:48:14.403Z</time></trkpt><trkpt lat="41.2021067" lon="14.1403583"><ele>76.0</ele><time>2026-05-04T12:48:15.405Z</time></trkpt><trkpt lat="41.2020633" lon="14.14046"><ele>76.0</ele><time>2026-05-04T12:48:16.402Z</time></trkpt><trkpt lat="41.2020133" lon="14.1405583"><ele>76.0</ele><time>2026-05-04T12:48:17.403Z</time></trkpt><trkpt lat="41.2019583" lon="14.1406483"><ele>76.0</ele><time>2026-05-04T12:48:18.403Z</time></trkpt><trkpt lat="41.2019" lon="14.1407333"><ele>77.0</ele><time>2026-05-04T12:48:19.403Z</time></trkpt><trkpt lat="41.2018317" lon="14.14081"><ele>78.0</ele><time>2026-05-04T12:48:20.402Z</time></trkpt><trkpt lat="41.2017583" lon="14.1408767"><ele>79.0</ele><time>2026-05-04T12:48:21.404Z</time></trkpt><trkpt lat="41.201685" lon="14.1409433"><ele>80.0</ele><time>2026-05-04T12:48:22.404Z</time></trkpt><trkpt lat="41.20161" lon="14.1410033"><ele>81.0</ele><time>2026-05-04T12:48:23.403Z</time></trkpt><trkpt lat="41.2015367" lon="14.1410633"><ele>82.0</ele><time>2026-05-04T12:48:24.402Z</time></trkpt><trkpt lat="41.2014583" lon="14.1411217"><ele>82.39999999999999</ele><time>2026-05-04T12:48:25.404Z</time></trkpt><trkpt lat="41.2013783" lon="14.1411767"><ele>82.8</ele><time>2026-05-04T12:48:26.404Z</time></trkpt><trkpt lat="41.2013" lon="14.1412367"><ele>83.2</ele><time>2026-05-04T12:48:27.404Z</time></trkpt><trkpt lat="41.2012167" lon="14.1412883"><ele>83.6</ele><time>2026-05-04T12:48:28.404Z</time></trkpt><trkpt lat="41.2011417" lon="14.1413467"><ele>84.0</ele><time>2026-05-04T12:48:29.404Z</time></trkpt><trkpt lat="41.2010617" lon="14.1414033"><ele>84.0</ele><time>2026-05-04T12:48:30.403Z</time></trkpt><trkpt lat="41.2009867" lon="14.14146"><ele>84.0</ele><time>2026-05-04T12:48:31.405Z</time></trkpt><trkpt lat="41.20091" lon="14.1415167"><ele>84.0</ele><time>2026-05-04T12:48:32.404Z</time></trkpt><trkpt lat="41.2008267" lon="14.14157"><ele>84.0</ele><time>2026-05-04T12:48:33.404Z</time></trkpt><trkpt lat="41.2007483" lon="14.1416283"><ele>84.0</ele><time>2026-05-04T12:48:34.402Z</time></trkpt><trkpt lat="41.20067" lon="14.141685"><ele>84.0</ele><time>2026-05-04T12:48:35.406Z</time></trkpt><trkpt lat="41.2005883" lon="14.1417433"><ele>84.16666666666667</ele><time>2026-05-04T12:48:36.403Z</time></trkpt><trkpt lat="41.2005067" lon="14.1417967"><ele>84.33333333333333</ele><time>2026-05-04T12:48:37.404Z</time></trkpt><trkpt lat="41.2004267" lon="14.1418483"><ele>84.5</ele><time>2026-05-04T12:48:38.404Z</time></trkpt><trkpt lat="41.2003467" lon="14.1419"><ele>84.66666666666666</ele><time>2026-05-04T12:48:39.403Z</time></trkpt><trkpt lat="41.200275" lon="14.1419617"><ele>84.83333333333333</ele><time>2026-05-04T12:48:40.404Z</time></trkpt><trkpt lat="41.2002017" lon="14.1420267"><ele>85.0</ele><time>2026-05-04T12:48:41.404Z</time></trkpt><trkpt lat="41.2001267" lon="14.142095"><ele>85.0</ele><time>2026-05-04T12:48:42.404Z</time></trkpt><trkpt lat="41.2000483" lon="14.1421583"><ele>85.0</ele><time>2026-05-04T12:48:43.403Z</time></trkpt><trkpt lat="41.19997" lon="14.1422233"><ele>85.0</ele><time>2026-05-04T12:48:44.405Z</time></trkpt><trkpt lat="41.1998917" lon="14.1422883"><ele>85.0</ele><time>2026-05-04T12:48:45.403Z</time></trkpt><trkpt lat="41.1998167" lon="14.14235"><ele>85.0</ele><time>2026-05-04T12:48:46.404Z</time></trkpt><trkpt lat="41.1997383" lon="14.1424133"><ele>84.66666666666666</ele><time>2026-05-04T12:48:47.403Z</time></trkpt><trkpt lat="41.1996583" lon="14.1424767"><ele>84.33333333333333</ele><time>2026-05-04T12:48:48.402Z</time></trkpt><trkpt lat="41.1995817" lon="14.1425383"><ele>84.0</ele><time>2026-05-04T12:48:49.403Z</time></trkpt><trkpt lat="41.199505" lon="14.1425983"><ele>83.66666666666667</ele><time>2026-05-04T12:48:50.403Z</time></trkpt><trkpt lat="41.1994283" lon="14.142655"><ele>83.33333333333334</ele><time>2026-05-04T12:48:51.401Z</time></trkpt><trkpt lat="41.1993517" lon="14.1427133"><ele>83.0</ele><time>2026-05-04T12:48:52.404Z</time></trkpt><trkpt lat="41.1992767" lon="14.1427733"><ele>83.0</ele><time>2026-05-04T12:48:53.404Z</time></trkpt><trkpt lat="41.199205" lon="14.142835"><ele>83.0</ele><time>2026-05-04T12:48:54.402Z</time></trkpt><trkpt lat="41.1991317" lon="14.142895"><ele>83.0</ele><time>2026-05-04T12:48:55.405Z</time></trkpt><trkpt lat="41.1990567" lon="14.1429517"><ele>83.0</ele><time>2026-05-04T12:48:56.403Z</time></trkpt><trkpt lat="41.1989817" lon="14.143005"><ele>83.0</ele><time>2026-05-04T12:48:57.403Z</time></trkpt><trkpt lat="41.1989083" lon="14.143065"><ele>83.0</ele><time>2026-05-04T12:48:58.403Z</time></trkpt><trkpt lat="41.1988367" lon="14.143115"><ele>83.0</ele><time>2026-05-04T12:48:59.402Z</time></trkpt><trkpt lat="41.1987617" lon="14.1431717"><ele>83.0</ele><time>2026-05-04T12:49:00.403Z</time></trkpt><trkpt lat="41.1986883" lon="14.14323"><ele>83.0</ele><time>2026-05-04T12:49:01.403Z</time></trkpt><trkpt lat="41.1986183" lon="14.1432867"><ele>83.0</ele><time>2026-05-04T12:49:02.403Z</time></trkpt><trkpt lat="41.1985467" lon="14.1433433"><ele>83.0</ele><time>2026-05-04T12:49:03.403Z</time></trkpt><trkpt lat="41.198475" lon="14.1433967"><ele>83.0</ele><time>2026-05-04T12:49:04.404Z</time></trkpt><trkpt lat="41.1984083" lon="14.1434467"><ele>83.0</ele><time>2026-05-04T12:49:05.403Z</time></trkpt><trkpt lat="41.19834" lon="14.1434967"><ele>83.0</ele><time>2026-05-04T12:49:06.405Z</time></trkpt><trkpt lat="41.19827" lon="14.1435467"><ele>83.0</ele><time>2026-05-04T12:49:07.403Z</time></trkpt><trkpt lat="41.1982" lon="14.1435983"><ele>83.0</ele><time>2026-05-04T12:49:08.404Z</time></trkpt><trkpt lat="41.19813" lon="14.1436483"><ele>83.0</ele><time>2026-05-04T12:49:09.403Z</time></trkpt><trkpt lat="41.19806" lon="14.1437017"><ele>83.0</ele><time>2026-05-04T12:49:10.404Z</time></trkpt><trkpt lat="41.1979883" lon="14.1437567"><ele>83.33333333333334</ele><time>2026-05-04T12:49:11.404Z</time></trkpt><trkpt lat="41.1979183" lon="14.14381"><ele>83.66666666666667</ele><time>2026-05-04T12:49:12.403Z</time></trkpt><trkpt lat="41.197845" lon="14.143865"><ele>84.0</ele><time>2026-05-04T12:49:13.404Z</time></trkpt><trkpt lat="41.1977717" lon="14.1439217"><ele>84.33333333333333</ele><time>2026-05-04T12:49:14.403Z</time></trkpt><trkpt lat="41.1977017" lon="14.14398"><ele>84.66666666666666</ele><time>2026-05-04T12:49:15.403Z</time></trkpt><trkpt lat="41.1976283" lon="14.1440367"><ele>85.0</ele><time>2026-05-04T12:49:16.403Z</time></trkpt><trkpt lat="41.1975533" lon="14.1440917"><ele>85.0</ele><time>2026-05-04T12:49:17.404Z</time></trkpt><trkpt lat="41.1974783" lon="14.1441467"><ele>85.0</ele><time>2026-05-04T12:49:18.403Z</time></trkpt><trkpt lat="41.1974017" lon="14.1442033"><ele>85.0</ele><time>2026-05-04T12:49:19.404Z</time></trkpt><trkpt lat="41.1973267" lon="14.1442617"><ele>85.0</ele><time>2026-05-04T12:49:20.402Z</time></trkpt><trkpt lat="41.1972483" lon="14.1443167"><ele>85.0</ele><time>2026-05-04T12:49:21.404Z</time></trkpt><trkpt lat="41.1971733" lon="14.14437"><ele>85.0</ele><time>2026-05-04T12:49:22.404Z</time></trkpt><trkpt lat="41.1970983" lon="14.14443"><ele>84.5</ele><time>2026-05-04T12:49:23.405Z</time></trkpt><trkpt lat="41.19702" lon="14.14449"><ele>84.0</ele><time>2026-05-04T12:49:24.403Z</time></trkpt><trkpt lat="41.196945" lon="14.1445517"><ele>83.5</ele><time>2026-05-04T12:49:25.404Z</time></trkpt><trkpt lat="41.1968667" lon="14.1446083"><ele>83.0</ele><time>2026-05-04T12:49:26.404Z</time></trkpt><trkpt lat="41.196785" lon="14.1446617"><ele>82.5</ele><time>2026-05-04T12:49:27.404Z</time></trkpt><trkpt lat="41.1967083" lon="14.14471"><ele>82.0</ele><time>2026-05-04T12:49:28.402Z</time></trkpt><trkpt lat="41.1966283" lon="14.1447617"><ele>82.0</ele><time>2026-05-04T12:49:29.404Z</time></trkpt><trkpt lat="41.1965483" lon="14.144815"><ele>82.0</ele><time>2026-05-04T12:49:30.403Z</time></trkpt><trkpt lat="41.1964633" lon="14.14487"><ele>82.0</ele><time>2026-05-04T12:49:31.404Z</time></trkpt><trkpt lat="41.1963867" lon="14.14494"><ele>82.0</ele><time>2026-05-04T12:49:32.405Z</time></trkpt><trkpt lat="41.19632" lon="14.1450133"><ele>82.0</ele><time>2026-05-04T12:49:33.403Z</time></trkpt><trkpt lat="41.19625" lon="14.1450883"><ele>82.0</ele><time>2026-05-04T12:49:34.404Z</time></trkpt><trkpt lat="41.1961817" lon="14.1451583"><ele>82.0</ele><time>2026-05-04T12:49:35.404Z</time></trkpt><trkpt lat="41.196115" lon="14.1452217"><ele>82.0</ele><time>2026-05-04T12:49:36.402Z</time></trkpt><trkpt lat="41.1960433" lon="14.1452917"><ele>82.0</ele><time>2026-05-04T12:49:37.403Z</time></trkpt><trkpt lat="41.1959717" lon="14.1453667"><ele>82.0</ele><time>2026-05-04T12:49:38.403Z</time></trkpt><trkpt lat="41.195895" lon="14.1454467"><ele>82.0</ele><time>2026-05-04T12:49:39.403Z</time></trkpt><trkpt lat="41.1957683" lon="14.1455383"><ele>82.0</ele><time>2026-05-04T12:49:40.403Z</time></trkpt><trkpt lat="41.195695" lon="14.1455883"><ele>82.0</ele><time>2026-05-04T12:49:41.402Z</time></trkpt><trkpt lat="41.1956167" lon="14.1456533"><ele>82.0</ele><time>2026-05-04T12:49:42.403Z</time></trkpt><trkpt lat="41.1955417" lon="14.1457117"><ele>82.0</ele><time>2026-05-04T12:49:43.403Z</time></trkpt><trkpt lat="41.1954633" lon="14.1457717"><ele>82.0</ele><time>2026-05-04T12:49:44.402Z</time></trkpt><trkpt lat="41.1953817" lon="14.1458333"><ele>82.0</ele><time>2026-05-04T12:49:45.402Z</time></trkpt><trkpt lat="41.1952967" lon="14.1458933"><ele>82.0</ele><time>2026-05-04T12:49:46.403Z</time></trkpt><trkpt lat="41.195205" lon="14.1459367"><ele>82.0</ele><time>2026-05-04T12:49:47.403Z</time></trkpt><trkpt lat="41.19512" lon="14.1459883"><ele>82.0</ele><time>2026-05-04T12:49:48.403Z</time></trkpt><trkpt lat="41.195035" lon="14.146055"><ele>82.0</ele><time>2026-05-04T12:49:49.403Z</time></trkpt><trkpt lat="41.1949517" lon="14.14613"><ele>82.0</ele><time>2026-05-04T12:49:50.404Z</time></trkpt><trkpt lat="41.194865" lon="14.1461933"><ele>81.19999999999999</ele><time>2026-05-04T12:49:51.406Z</time></trkpt><trkpt lat="41.19478" lon="14.1462617"><ele>80.39999999999999</ele><time>2026-05-04T12:49:52.404Z</time></trkpt><trkpt lat="41.194695" lon="14.1463283"><ele>79.6</ele><time>2026-05-04T12:49:53.403Z</time></trkpt><trkpt lat="41.1946133" lon="14.146385"><ele>78.8</ele><time>2026-05-04T12:49:54.403Z</time></trkpt><trkpt lat="41.1945283" lon="14.14644"><ele>78.0</ele><time>2026-05-04T12:49:55.402Z</time></trkpt><trkpt lat="41.1944433" lon="14.1464983"><ele>78.0</ele><time>2026-05-04T12:49:56.403Z</time></trkpt><trkpt lat="41.1943617" lon="14.1465567"><ele>78.0</ele><time>2026-05-04T12:49:57.405Z</time></trkpt><trkpt lat="41.1942733" lon="14.1466233"><ele>78.0</ele><time>2026-05-04T12:49:58.403Z</time></trkpt><trkpt lat="41.19419" lon="14.14669"><ele>78.0</ele><time>2026-05-04T12:49:59.404Z</time></trkpt><trkpt lat="41.1941117" lon="14.1467517"><ele>78.0</ele><time>2026-05-04T12:50:00.403Z</time></trkpt><trkpt lat="41.194035" lon="14.1468233"><ele>77.8</ele><time>2026-05-04T12:50:01.403Z</time></trkpt><trkpt lat="41.1939533" lon="14.1468883"><ele>77.6</ele><time>2026-05-04T12:50:02.403Z</time></trkpt><trkpt lat="41.1938717" lon="14.1469517"><ele>77.4</ele><time>2026-05-04T12:50:03.406Z</time></trkpt><trkpt lat="41.1937867" lon="14.147015"><ele>77.2</ele><time>2026-05-04T12:50:04.404Z</time></trkpt><trkpt lat="41.1937033" lon="14.147075"><ele>77.0</ele><time>2026-05-04T12:50:05.407Z</time></trkpt><trkpt lat="41.1936217" lon="14.147135"><ele>77.0</ele><time>2026-05-04T12:50:06.404Z</time></trkpt><trkpt lat="41.19354" lon="14.1472"><ele>77.0</ele><time>2026-05-04T12:50:07.404Z</time></trkpt><trkpt lat="41.193455" lon="14.147265"><ele>77.0</ele><time>2026-05-04T12:50:08.404Z</time></trkpt><trkpt lat="41.1933717" lon="14.1473283"><ele>77.0</ele><time>2026-05-04T12:50:09.403Z</time></trkpt><trkpt lat="41.1932917" lon="14.14739"><ele>77.0</ele><time>2026-05-04T12:50:10.403Z</time></trkpt><trkpt lat="41.1932083" lon="14.14745"><ele>76.8</ele><time>2026-05-04T12:50:11.404Z</time></trkpt><trkpt lat="41.1931267" lon="14.1475067"><ele>76.6</ele><time>2026-05-04T12:50:12.404Z</time></trkpt><trkpt lat="41.1930433" lon="14.1475633"><ele>76.39999999999999</ele><time>2026-05-04T12:50:13.404Z</time></trkpt><trkpt lat="41.1929667" lon="14.1476217"><ele>76.2</ele><time>2026-05-04T12:50:14.405Z</time></trkpt><trkpt lat="41.192885" lon="14.1476783"><ele>76.0</ele><time>2026-05-04T12:50:15.404Z</time></trkpt><trkpt lat="41.1928067" lon="14.1477367"><ele>76.0</ele><time>2026-05-04T12:50:16.405Z</time></trkpt><trkpt lat="41.1927283" lon="14.1477967"><ele>76.0</ele><time>2026-05-04T12:50:17.404Z</time></trkpt><trkpt lat="41.1926483" lon="14.14786"><ele>76.0</ele><time>2026-05-04T12:50:18.403Z</time></trkpt><trkpt lat="41.1925683" lon="14.1479267"><ele>76.0</ele><time>2026-05-04T12:50:19.404Z</time></trkpt><trkpt lat="41.1924883" lon="14.1479917"><ele>76.0</ele><time>2026-05-04T12:50:20.403Z</time></trkpt><trkpt lat="41.192405" lon="14.1480583"><ele>75.6</ele><time>2026-05-04T12:50:21.405Z</time></trkpt><trkpt lat="41.1923217" lon="14.1481233"><ele>75.19999999999999</ele><time>2026-05-04T12:50:22.407Z</time></trkpt><trkpt lat="41.1922367" lon="14.1481867"><ele>74.80000000000001</ele><time>2026-05-04T12:50:23.405Z</time></trkpt><trkpt lat="41.1921517" lon="14.1482483"><ele>74.4</ele><time>2026-05-04T12:50:24.403Z</time></trkpt><trkpt lat="41.1920683" lon="14.1483133"><ele>74.0</ele><time>2026-05-04T12:50:25.404Z</time></trkpt><trkpt lat="41.1919817" lon="14.1483767"><ele>74.0</ele><time>2026-05-04T12:50:26.404Z</time></trkpt><trkpt lat="41.1918967" lon="14.1484367"><ele>74.0</ele><time>2026-05-04T12:50:27.405Z</time></trkpt><trkpt lat="41.1918117" lon="14.1485017"><ele>74.0</ele><time>2026-05-04T12:50:28.403Z</time></trkpt><trkpt lat="41.1917317" lon="14.1485667"><ele>74.0</ele><time>2026-05-04T12:50:29.405Z</time></trkpt><trkpt lat="41.1916517" lon="14.1486367"><ele>74.0</ele><time>2026-05-04T12:50:30.404Z</time></trkpt><trkpt lat="41.1915733" lon="14.1487067"><ele>74.0</ele><time>2026-05-04T12:50:31.404Z</time></trkpt><trkpt lat="41.1914933" lon="14.1487717"><ele>74.0</ele><time>2026-05-04T12:50:32.404Z</time></trkpt><trkpt lat="41.1914133" lon="14.1488383"><ele>74.0</ele><time>2026-05-04T12:50:33.404Z</time></trkpt><trkpt lat="41.191335" lon="14.1489033"><ele>74.0</ele><time>2026-05-04T12:50:34.405Z</time></trkpt><trkpt lat="41.1912567" lon="14.1489733"><ele>74.0</ele><time>2026-05-04T12:50:35.404Z</time></trkpt><trkpt lat="41.1911783" lon="14.1490367"><ele>74.0</ele><time>2026-05-04T12:50:36.404Z</time></trkpt><trkpt lat="41.1910983" lon="14.1490983"><ele>74.0</ele><time>2026-05-04T12:50:37.404Z</time></trkpt><trkpt lat="41.1910233" lon="14.149165"><ele>74.0</ele><time>2026-05-04T12:50:38.403Z</time></trkpt><trkpt lat="41.1909433" lon="14.149225"><ele>74.0</ele><time>2026-05-04T12:50:39.403Z</time></trkpt><trkpt lat="41.1908667" lon="14.1492867"><ele>74.0</ele><time>2026-05-04T12:50:40.403Z</time></trkpt><trkpt lat="41.1907917" lon="14.14935"><ele>74.0</ele><time>2026-05-04T12:50:41.403Z</time></trkpt><trkpt lat="41.190715" lon="14.14941"><ele>74.0</ele><time>2026-05-04T12:50:42.405Z</time></trkpt><trkpt lat="41.19064" lon="14.1494667"><ele>74.0</ele><time>2026-05-04T12:50:43.404Z</time></trkpt><trkpt lat="41.190565" lon="14.1495267"><ele>74.0</ele><time>2026-05-04T12:50:44.403Z</time></trkpt><trkpt lat="41.1904917" lon="14.1495833"><ele>74.0</ele><time>2026-05-04T12:50:45.404Z</time></trkpt><trkpt lat="41.190415" lon="14.1496417"><ele>74.0</ele><time>2026-05-04T12:50:46.403Z</time></trkpt><trkpt lat="41.1903383" lon="14.1497033"><ele>74.0</ele><time>2026-05-04T12:50:47.403Z</time></trkpt><trkpt lat="41.1902567" lon="14.1497667"><ele>74.0</ele><time>2026-05-04T12:50:48.402Z</time></trkpt><trkpt lat="41.1901733" lon="14.1498317"><ele>74.0</ele><time>2026-05-04T12:50:49.403Z</time></trkpt><trkpt lat="41.19009" lon="14.1499017"><ele>74.0</ele><time>2026-05-04T12:50:50.404Z</time></trkpt><trkpt lat="41.1900083" lon="14.1499717"><ele>74.0</ele><time>2026-05-04T12:50:51.405Z</time></trkpt><trkpt lat="41.189925" lon="14.1500317"><ele>74.0</ele><time>2026-05-04T12:50:52.404Z</time></trkpt><trkpt lat="41.1898433" lon="14.1500933"><ele>74.0</ele><time>2026-05-04T12:50:53.403Z</time></trkpt><trkpt lat="41.1897633" lon="14.1501567"><ele>74.0</ele><time>2026-05-04T12:50:54.403Z</time></trkpt><trkpt lat="41.1896783" lon="14.150215"><ele>74.0</ele><time>2026-05-04T12:50:55.404Z</time></trkpt><trkpt lat="41.18959" lon="14.1502783"><ele>74.0</ele><time>2026-05-04T12:50:56.404Z</time></trkpt><trkpt lat="41.189505" lon="14.1503467"><ele>73.4</ele><time>2026-05-04T12:50:57.405Z</time></trkpt><trkpt lat="41.18942" lon="14.150415"><ele>72.80000000000001</ele><time>2026-05-04T12:50:58.404Z</time></trkpt><trkpt lat="41.189335" lon="14.1504817"><ele>72.19999999999999</ele><time>2026-05-04T12:50:59.404Z</time></trkpt><trkpt lat="41.18925" lon="14.1505467"><ele>71.6</ele><time>2026-05-04T12:51:00.404Z</time></trkpt><trkpt lat="41.1891633" lon="14.15062"><ele>71.0</ele><time>2026-05-04T12:51:01.406Z</time></trkpt><trkpt lat="41.1890783" lon="14.15069"><ele>70.8</ele><time>2026-05-04T12:51:02.404Z</time></trkpt><trkpt lat="41.188995" lon="14.1507583"><ele>70.6</ele><time>2026-05-04T12:51:03.403Z</time></trkpt><trkpt lat="41.18891" lon="14.1508233"><ele>70.4</ele><time>2026-05-04T12:51:04.404Z</time></trkpt><trkpt lat="41.1888217" lon="14.1508833"><ele>70.2</ele><time>2026-05-04T12:51:05.403Z</time></trkpt><trkpt lat="41.188735" lon="14.1509483"><ele>70.0</ele><time>2026-05-04T12:51:06.404Z</time></trkpt><trkpt lat="41.18865" lon="14.151015"><ele>70.0</ele><time>2026-05-04T12:51:07.406Z</time></trkpt><trkpt lat="41.1885667" lon="14.151075"><ele>70.0</ele><time>2026-05-04T12:51:08.403Z</time></trkpt><trkpt lat="41.1884783" lon="14.1511417"><ele>70.0</ele><time>2026-05-04T12:51:09.402Z</time></trkpt><trkpt lat="41.1883933" lon="14.1512117"><ele>70.0</ele><time>2026-05-04T12:51:10.402Z</time></trkpt><trkpt lat="41.1883067" lon="14.1512817"><ele>70.0</ele><time>2026-05-04T12:51:11.403Z</time></trkpt><trkpt lat="41.18822" lon="14.1513533"><ele>69.8</ele><time>2026-05-04T12:51:12.403Z</time></trkpt><trkpt lat="41.1881317" lon="14.1514183"><ele>69.6</ele><time>2026-05-04T12:51:13.402Z</time></trkpt><trkpt lat="41.1880433" lon="14.1514867"><ele>69.4</ele><time>2026-05-04T12:51:14.403Z</time></trkpt><trkpt lat="41.1879567" lon="14.1515517"><ele>69.2</ele><time>2026-05-04T12:51:15.402Z</time></trkpt><trkpt lat="41.1878617" lon="14.1516233"><ele>69.0</ele><time>2026-05-04T12:51:16.403Z</time></trkpt><trkpt lat="41.1877717" lon="14.1516967"><ele>69.0</ele><time>2026-05-04T12:51:17.403Z</time></trkpt><trkpt lat="41.1876817" lon="14.1517667"><ele>69.0</ele><time>2026-05-04T12:51:18.402Z</time></trkpt><trkpt lat="41.1875917" lon="14.1518367"><ele>69.0</ele><time>2026-05-04T12:51:19.405Z</time></trkpt><trkpt lat="41.1875" lon="14.1519067"><ele>69.0</ele><time>2026-05-04T12:51:20.403Z</time></trkpt><trkpt lat="41.1874083" lon="14.1519783"><ele>69.0</ele><time>2026-05-04T12:51:21.402Z</time></trkpt><trkpt lat="41.1873167" lon="14.15205"><ele>68.60000000000001</ele><time>2026-05-04T12:51:22.403Z</time></trkpt><trkpt lat="41.1872267" lon="14.1521217"><ele>68.2</ele><time>2026-05-04T12:51:23.403Z</time></trkpt><trkpt lat="41.1871367" lon="14.1521883"><ele>67.80000000000001</ele><time>2026-05-04T12:51:24.403Z</time></trkpt><trkpt lat="41.1870417" lon="14.1522617"><ele>67.4</ele><time>2026-05-04T12:51:25.402Z</time></trkpt><trkpt lat="41.1869467" lon="14.1523333"><ele>67.0</ele><time>2026-05-04T12:51:26.403Z</time></trkpt><trkpt lat="41.1868533" lon="14.1524067"><ele>66.6</ele><time>2026-05-04T12:51:27.402Z</time></trkpt><trkpt lat="41.1867617" lon="14.15248"><ele>66.2</ele><time>2026-05-04T12:51:28.403Z</time></trkpt><trkpt lat="41.18667" lon="14.1525533"><ele>65.8</ele><time>2026-05-04T12:51:29.404Z</time></trkpt><trkpt lat="41.1865767" lon="14.1526317"><ele>65.4</ele><time>2026-05-04T12:51:30.403Z</time></trkpt><trkpt lat="41.1864833" lon="14.152705"><ele>65.0</ele><time>2026-05-04T12:51:31.404Z</time></trkpt><trkpt lat="41.18639" lon="14.1527767"><ele>65.0</ele><time>2026-05-04T12:51:32.403Z</time></trkpt><trkpt lat="41.1862983" lon="14.15285"><ele>65.0</ele><time>2026-05-04T12:51:33.402Z</time></trkpt><trkpt lat="41.186205" lon="14.1529283"><ele>65.0</ele><time>2026-05-04T12:51:34.404Z</time></trkpt><trkpt lat="41.18611" lon="14.1530033"><ele>65.0</ele><time>2026-05-04T12:51:35.404Z</time></trkpt><trkpt lat="41.1860117" lon="14.1530767"><ele>65.0</ele><time>2026-05-04T12:51:36.403Z</time></trkpt><trkpt lat="41.1859133" lon="14.1531517"><ele>65.0</ele><time>2026-05-04T12:51:37.403Z</time></trkpt><trkpt lat="41.1858167" lon="14.15323"><ele>65.0</ele><time>2026-05-04T12:51:38.403Z</time></trkpt><trkpt lat="41.18572" lon="14.1533067"><ele>65.0</ele><time>2026-05-04T12:51:39.403Z</time></trkpt><trkpt lat="41.18562" lon="14.15338"><ele>65.0</ele><time>2026-05-04T12:51:40.402Z</time></trkpt><trkpt lat="41.1855233" lon="14.1534517"><ele>64.5</ele><time>2026-05-04T12:51:41.403Z</time></trkpt><trkpt lat="41.1854267" lon="14.1535283"><ele>64.0</ele><time>2026-05-04T12:51:42.402Z</time></trkpt><trkpt lat="41.1853283" lon="14.1536067"><ele>63.5</ele><time>2026-05-04T12:51:43.404Z</time></trkpt><trkpt lat="41.1852283" lon="14.153685"><ele>63.0</ele><time>2026-05-04T12:51:44.404Z</time></trkpt><trkpt lat="41.1851283" lon="14.1537617"><ele>63.0</ele><time>2026-05-04T12:51:45.403Z</time></trkpt><trkpt lat="41.185025" lon="14.1538417"><ele>63.0</ele><time>2026-05-04T12:51:46.404Z</time></trkpt><trkpt lat="41.184925" lon="14.1539233"><ele>63.0</ele><time>2026-05-04T12:51:47.406Z</time></trkpt><trkpt lat="41.1848267" lon="14.1540083"><ele>63.0</ele><time>2026-05-04T12:51:48.404Z</time></trkpt><trkpt lat="41.1847267" lon="14.1540933"><ele>62.25</ele><time>2026-05-04T12:51:49.403Z</time></trkpt><trkpt lat="41.1846233" lon="14.1541683"><ele>61.5</ele><time>2026-05-04T12:51:50.404Z</time></trkpt><trkpt lat="41.1845183" lon="14.1542433"><ele>60.75</ele><time>2026-05-04T12:51:51.402Z</time></trkpt><trkpt lat="41.1844117" lon="14.1543217"><ele>60.0</ele><time>2026-05-04T12:51:52.403Z</time></trkpt><trkpt lat="41.18431" lon="14.154405"><ele>60.0</ele><time>2026-05-04T12:51:53.404Z</time></trkpt><trkpt lat="41.1842083" lon="14.154485"><ele>60.0</ele><time>2026-05-04T12:51:54.404Z</time></trkpt><trkpt lat="41.184105" lon="14.1545617"><ele>60.0</ele><time>2026-05-04T12:51:55.404Z</time></trkpt><trkpt lat="41.1840017" lon="14.154635"><ele>60.0</ele><time>2026-05-04T12:51:56.402Z</time></trkpt><trkpt lat="41.1838983" lon="14.154705"><ele>60.25</ele><time>2026-05-04T12:51:57.402Z</time></trkpt><trkpt lat="41.1837967" lon="14.154775"><ele>60.5</ele><time>2026-05-04T12:51:58.402Z</time></trkpt><trkpt lat="41.183695" lon="14.1548433"><ele>60.75</ele><time>2026-05-04T12:51:59.403Z</time></trkpt><trkpt lat="41.1835917" lon="14.1549233"><ele>61.0</ele><time>2026-05-04T12:52:00.403Z</time></trkpt><trkpt lat="41.183485" lon="14.155"><ele>60.5</ele><time>2026-05-04T12:52:01.404Z</time></trkpt><trkpt lat="41.1833817" lon="14.1550783"><ele>60.0</ele><time>2026-05-04T12:52:02.403Z</time></trkpt><trkpt lat="41.18328" lon="14.1551533"><ele>59.5</ele><time>2026-05-04T12:52:03.403Z</time></trkpt><trkpt lat="41.1831733" lon="14.15523"><ele>59.0</ele><time>2026-05-04T12:52:04.403Z</time></trkpt><trkpt lat="41.1830683" lon="14.155305"><ele>58.5</ele><time>2026-05-04T12:52:05.402Z</time></trkpt><trkpt lat="41.18297" lon="14.1553867"><ele>58.0</ele><time>2026-05-04T12:52:06.403Z</time></trkpt><trkpt lat="41.1828733" lon="14.1554683"><ele>57.5</ele><time>2026-05-04T12:52:07.404Z</time></trkpt><trkpt lat="41.1827783" lon="14.1555467"><ele>57.0</ele><time>2026-05-04T12:52:08.403Z</time></trkpt><trkpt lat="41.1826767" lon="14.1556183"><ele>57.0</ele><time>2026-05-04T12:52:09.404Z</time></trkpt><trkpt lat="41.1825767" lon="14.1556917"><ele>57.0</ele><time>2026-05-04T12:52:10.403Z</time></trkpt><trkpt lat="41.1824767" lon="14.1557633"><ele>57.0</ele><time>2026-05-04T12:52:11.403Z</time></trkpt><trkpt lat="41.1823717" lon="14.1558317"><ele>57.0</ele><time>2026-05-04T12:52:12.403Z</time></trkpt><trkpt lat="41.18227" lon="14.1559"><ele>57.2</ele><time>2026-05-04T12:52:13.403Z</time></trkpt><trkpt lat="41.1821783" lon="14.155975"><ele>57.400000000000006</ele><time>2026-05-04T12:52:14.402Z</time></trkpt><trkpt lat="41.1820883" lon="14.15605"><ele>57.599999999999994</ele><time>2026-05-04T12:52:15.404Z</time></trkpt><trkpt lat="41.1819983" lon="14.1561233"><ele>57.8</ele><time>2026-05-04T12:52:16.403Z</time></trkpt><trkpt lat="41.18191" lon="14.1561983"><ele>58.0</ele><time>2026-05-04T12:52:17.403Z</time></trkpt><trkpt lat="41.1818183" lon="14.1562717"><ele>58.0</ele><time>2026-05-04T12:52:18.403Z</time></trkpt><trkpt lat="41.18172" lon="14.15634"><ele>58.0</ele><time>2026-05-04T12:52:19.404Z</time></trkpt><trkpt lat="41.1816283" lon="14.1564117"><ele>58.0</ele><time>2026-05-04T12:52:20.403Z</time></trkpt><trkpt lat="41.1815367" lon="14.1564867"><ele>58.0</ele><time>2026-05-04T12:52:21.403Z</time></trkpt><trkpt lat="41.1814533" lon="14.15656"><ele>58.0</ele><time>2026-05-04T12:52:22.403Z</time></trkpt><trkpt lat="41.18137" lon="14.1566283"><ele>57.599999999999994</ele><time>2026-05-04T12:52:23.403Z</time></trkpt><trkpt lat="41.1812867" lon="14.1566917"><ele>57.199999999999996</ele><time>2026-05-04T12:52:24.403Z</time></trkpt><trkpt lat="41.1812" lon="14.156755"><ele>56.8</ele><time>2026-05-04T12:52:25.404Z</time></trkpt><trkpt lat="41.1811167" lon="14.1568183"><ele>56.4</ele><time>2026-05-04T12:52:26.403Z</time></trkpt><trkpt lat="41.1810367" lon="14.1568717"><ele>56.0</ele><time>2026-05-04T12:52:27.403Z</time></trkpt><trkpt lat="41.180955" lon="14.1569133"><ele>56.00000000000001</ele><time>2026-05-04T12:52:28.404Z</time></trkpt><trkpt lat="41.18087" lon="14.1569283"><ele>56.0</ele><time>2026-05-04T12:52:29.404Z</time></trkpt><trkpt lat="41.1807883" lon="14.1569333"><ele>56.0</ele><time>2026-05-04T12:52:30.404Z</time></trkpt><trkpt lat="41.18071" lon="14.1569433"><ele>56.0</ele><time>2026-05-04T12:52:31.404Z</time></trkpt><trkpt lat="41.1806267" lon="14.15697"><ele>56.00000000000001</ele><time>2026-05-04T12:52:32.404Z</time></trkpt><trkpt lat="41.180545" lon="14.157015"><ele>56.0</ele><time>2026-05-04T12:52:33.403Z</time></trkpt><trkpt lat="41.180465" lon="14.157075"><ele>55.599999999999994</ele><time>2026-05-04T12:52:34.403Z</time></trkpt><trkpt lat="41.18039" lon="14.15714"><ele>55.199999999999996</ele><time>2026-05-04T12:52:35.403Z</time></trkpt><trkpt lat="41.1803167" lon="14.157225"><ele>54.800000000000004</ele><time>2026-05-04T12:52:36.402Z</time></trkpt><trkpt lat="41.1802517" lon="14.1573333"><ele>54.400000000000006</ele><time>2026-05-04T12:52:37.404Z</time></trkpt><trkpt lat="41.1801967" lon="14.1574367"><ele>54.0</ele><time>2026-05-04T12:52:38.403Z</time></trkpt><trkpt lat="41.18015" lon="14.157545"><ele>54.0</ele><time>2026-05-04T12:52:39.402Z</time></trkpt><trkpt lat="41.180095" lon="14.15765"><ele>54.00000000000001</ele><time>2026-05-04T12:52:40.403Z</time></trkpt><trkpt lat="41.1800283" lon="14.157735"><ele>54.00000000000001</ele><time>2026-05-04T12:52:41.402Z</time></trkpt><trkpt lat="41.17995" lon="14.1578067"><ele>54.0</ele><time>2026-05-04T12:52:42.404Z</time></trkpt><trkpt lat="41.1798633" lon="14.1578717"><ele>54.0</ele><time>2026-05-04T12:52:43.405Z</time></trkpt><trkpt lat="41.179775" lon="14.1579367"><ele>54.2</ele><time>2026-05-04T12:52:44.403Z</time></trkpt><trkpt lat="41.179685" lon="14.1580017"><ele>54.400000000000006</ele><time>2026-05-04T12:52:45.402Z</time></trkpt><trkpt lat="41.1795983" lon="14.15807"><ele>54.6</ele><time>2026-05-04T12:52:46.402Z</time></trkpt><trkpt lat="41.17951" lon="14.1581317"><ele>54.8</ele><time>2026-05-04T12:52:47.403Z</time></trkpt><trkpt lat="41.1794233" lon="14.1581933"><ele>55.0</ele><time>2026-05-04T12:52:48.408Z</time></trkpt><trkpt lat="41.1793383" lon="14.1582617"><ele>55.0</ele><time>2026-05-04T12:52:49.404Z</time></trkpt><trkpt lat="41.1792583" lon="14.1583333"><ele>55.0</ele><time>2026-05-04T12:52:50.405Z</time></trkpt><trkpt lat="41.1791783" lon="14.1583967"><ele>55.0</ele><time>2026-05-04T12:52:51.403Z</time></trkpt><trkpt lat="41.1791017" lon="14.1584583"><ele>55.0</ele><time>2026-05-04T12:52:52.404Z</time></trkpt><trkpt lat="41.1790183" lon="14.1585267"><ele>55.0</ele><time>2026-05-04T12:52:53.405Z</time></trkpt><trkpt lat="41.1789383" lon="14.1585967"><ele>55.0</ele><time>2026-05-04T12:52:54.405Z</time></trkpt><trkpt lat="41.178855" lon="14.1586583"><ele>55.0</ele><time>2026-05-04T12:52:55.402Z</time></trkpt><trkpt lat="41.1787683" lon="14.1587183"><ele>55.0</ele><time>2026-05-04T12:52:56.403Z</time></trkpt><trkpt lat="41.178685" lon="14.1587783"><ele>55.0</ele><time>2026-05-04T12:52:57.402Z</time></trkpt><trkpt lat="41.1786033" lon="14.1588433"><ele>55.0</ele><time>2026-05-04T12:52:58.404Z</time></trkpt><trkpt lat="41.17852" lon="14.1589083"><ele>55.0</ele><time>2026-05-04T12:52:59.404Z</time></trkpt><trkpt lat="41.178435" lon="14.1589733"><ele>55.0</ele><time>2026-05-04T12:53:00.403Z</time></trkpt><trkpt lat="41.17835" lon="14.1590417"><ele>55.0</ele><time>2026-05-04T12:53:01.403Z</time></trkpt><trkpt lat="41.1782667" lon="14.1591133"><ele>55.0</ele><time>2026-05-04T12:53:02.403Z</time></trkpt><trkpt lat="41.1781817" lon="14.1591783"><ele>55.0</ele><time>2026-05-04T12:53:03.404Z</time></trkpt><trkpt lat="41.1780917" lon="14.1592367"><ele>54.2</ele><time>2026-05-04T12:53:04.403Z</time></trkpt><trkpt lat="41.1780083" lon="14.1593"><ele>53.4</ele><time>2026-05-04T12:53:05.404Z</time></trkpt><trkpt lat="41.177925" lon="14.1593633"><ele>52.599999999999994</ele><time>2026-05-04T12:53:06.403Z</time></trkpt><trkpt lat="41.1778467" lon="14.15943"><ele>51.8</ele><time>2026-05-04T12:53:07.403Z</time></trkpt><trkpt lat="41.1777633" lon="14.1594967"><ele>51.0</ele><time>2026-05-04T12:53:08.404Z</time></trkpt><trkpt lat="41.1776833" lon="14.15956"><ele>51.0</ele><time>2026-05-04T12:53:09.402Z</time></trkpt><trkpt lat="41.1776017" lon="14.159625"><ele>51.0</ele><time>2026-05-04T12:53:10.403Z</time></trkpt><trkpt lat="41.1775267" lon="14.1596883"><ele>51.0</ele><time>2026-05-04T12:53:11.402Z</time></trkpt><trkpt lat="41.1774517" lon="14.1597517"><ele>51.0</ele><time>2026-05-04T12:53:12.403Z</time></trkpt><trkpt lat="41.1773733" lon="14.159805"><ele>51.0</ele><time>2026-05-04T12:53:13.402Z</time></trkpt><trkpt lat="41.1773017" lon="14.1598617"><ele>51.0</ele><time>2026-05-04T12:53:14.407Z</time></trkpt><trkpt lat="41.1772267" lon="14.1599217"><ele>51.333333333333336</ele><time>2026-05-04T12:53:15.403Z</time></trkpt><trkpt lat="41.1771533" lon="14.1599817"><ele>51.66666666666667</ele><time>2026-05-04T12:53:16.404Z</time></trkpt><trkpt lat="41.177085" lon="14.1600417"><ele>52.0</ele><time>2026-05-04T12:53:17.402Z</time></trkpt><trkpt lat="41.1770117" lon="14.1601"><ele>52.333333333333336</ele><time>2026-05-04T12:53:18.404Z</time></trkpt><trkpt lat="41.1769317" lon="14.1601517"><ele>52.66666666666667</ele><time>2026-05-04T12:53:19.404Z</time></trkpt><trkpt lat="41.176855" lon="14.1602083"><ele>53.0</ele><time>2026-05-04T12:53:20.403Z</time></trkpt><trkpt lat="41.1767767" lon="14.1602533"><ele>53.00000000000001</ele><time>2026-05-04T12:53:21.403Z</time></trkpt><trkpt lat="41.1767067" lon="14.16031"><ele>53.0</ele><time>2026-05-04T12:53:22.404Z</time></trkpt><trkpt lat="41.1766333" lon="14.1603667"><ele>53.0</ele><time>2026-05-04T12:53:23.405Z</time></trkpt><trkpt lat="41.17656" lon="14.1604233"><ele>53.0</ele><time>2026-05-04T12:53:24.404Z</time></trkpt><trkpt lat="41.17648" lon="14.1604767"><ele>53.00000000000001</ele><time>2026-05-04T12:53:25.403Z</time></trkpt><trkpt lat="41.1764033" lon="14.160535"><ele>53.0</ele><time>2026-05-04T12:53:26.402Z</time></trkpt><trkpt lat="41.17633" lon="14.160595"><ele>52.833333333333336</ele><time>2026-05-04T12:53:27.403Z</time></trkpt><trkpt lat="41.1762567" lon="14.160655"><ele>52.66666666666667</ele><time>2026-05-04T12:53:28.404Z</time></trkpt><trkpt lat="41.17618" lon="14.1607117"><ele>52.5</ele><time>2026-05-04T12:53:29.404Z</time></trkpt><trkpt lat="41.1761017" lon="14.1607667"><ele>52.33333333333333</ele><time>2026-05-04T12:53:30.403Z</time></trkpt><trkpt lat="41.1760217" lon="14.1608217"><ele>52.166666666666664</ele><time>2026-05-04T12:53:31.403Z</time></trkpt><trkpt lat="41.1759433" lon="14.1608767"><ele>52.0</ele><time>2026-05-04T12:53:32.404Z</time></trkpt><trkpt lat="41.1758633" lon="14.1609367"><ele>52.0</ele><time>2026-05-04T12:53:33.404Z</time></trkpt><trkpt lat="41.1757867" lon="14.1609983"><ele>52.0</ele><time>2026-05-04T12:53:34.403Z</time></trkpt><trkpt lat="41.17571" lon="14.16106"><ele>52.0</ele><time>2026-05-04T12:53:35.404Z</time></trkpt><trkpt lat="41.1756317" lon="14.1611217"><ele>52.0</ele><time>2026-05-04T12:53:36.404Z</time></trkpt><trkpt lat="41.17555" lon="14.161185"><ele>52.0</ele><time>2026-05-04T12:53:37.405Z</time></trkpt><trkpt lat="41.175465" lon="14.16125"><ele>52.0</ele><time>2026-05-04T12:53:38.404Z</time></trkpt><trkpt lat="41.1753833" lon="14.161315"><ele>52.0</ele><time>2026-05-04T12:53:39.404Z</time></trkpt><trkpt lat="41.1753033" lon="14.1613733"><ele>52.0</ele><time>2026-05-04T12:53:40.409Z</time></trkpt><trkpt lat="41.1752217" lon="14.16144"><ele>52.0</ele><time>2026-05-04T12:53:41.405Z</time></trkpt><trkpt lat="41.1751383" lon="14.1615033"><ele>52.0</ele><time>2026-05-04T12:53:42.405Z</time></trkpt><trkpt lat="41.175055" lon="14.1615717"><ele>51.6</ele><time>2026-05-04T12:53:43.405Z</time></trkpt><trkpt lat="41.1749667" lon="14.1616383"><ele>51.2</ele><time>2026-05-04T12:53:44.404Z</time></trkpt><trkpt lat="41.1748817" lon="14.1617083"><ele>50.8</ele><time>2026-05-04T12:53:45.404Z</time></trkpt><trkpt lat="41.1747983" lon="14.16178"><ele>50.4</ele><time>2026-05-04T12:53:46.405Z</time></trkpt><trkpt lat="41.174715" lon="14.16184"><ele>50.0</ele><time>2026-05-04T12:53:47.403Z</time></trkpt><trkpt lat="41.17463" lon="14.161905"><ele>50.0</ele><time>2026-05-04T12:53:48.404Z</time></trkpt><trkpt lat="41.1745467" lon="14.1619667"><ele>50.0</ele><time>2026-05-04T12:53:49.404Z</time></trkpt><trkpt lat="41.1744617" lon="14.1620267"><ele>50.0</ele><time>2026-05-04T12:53:50.405Z</time></trkpt><trkpt lat="41.1743783" lon="14.1620883"><ele>50.0</ele><time>2026-05-04T12:53:51.405Z</time></trkpt><trkpt lat="41.1742967" lon="14.16215"><ele>50.0</ele><time>2026-05-04T12:53:52.405Z</time></trkpt><trkpt lat="41.1742167" lon="14.162215"><ele>50.0</ele><time>2026-05-04T12:53:53.406Z</time></trkpt><trkpt lat="41.1741383" lon="14.16228"><ele>50.0</ele><time>2026-05-04T12:53:54.404Z</time></trkpt><trkpt lat="41.1740567" lon="14.1623417"><ele>50.0</ele><time>2026-05-04T12:53:55.408Z</time></trkpt><trkpt lat="41.1739733" lon="14.162405"><ele>50.0</ele><time>2026-05-04T12:53:56.404Z</time></trkpt><trkpt lat="41.1738933" lon="14.1624717"><ele>50.0</ele><time>2026-05-04T12:53:57.404Z</time></trkpt><trkpt lat="41.1738133" lon="14.1625333"><ele>49.6</ele><time>2026-05-04T12:53:58.404Z</time></trkpt><trkpt lat="41.1737333" lon="14.162595"><ele>49.2</ele><time>2026-05-04T12:53:59.404Z</time></trkpt><trkpt lat="41.1736567" lon="14.1626567"><ele>48.8</ele><time>2026-05-04T12:54:00.404Z</time></trkpt><trkpt lat="41.1735767" lon="14.162715"><ele>48.4</ele><time>2026-05-04T12:54:01.405Z</time></trkpt><trkpt lat="41.1734967" lon="14.1627817"><ele>48.0</ele><time>2026-05-04T12:54:02.405Z</time></trkpt><trkpt lat="41.1734183" lon="14.162845"><ele>48.0</ele><time>2026-05-04T12:54:03.404Z</time></trkpt><trkpt lat="41.1733433" lon="14.1629117"><ele>48.0</ele><time>2026-05-04T12:54:04.403Z</time></trkpt><trkpt lat="41.173265" lon="14.1629767"><ele>48.0</ele><time>2026-05-04T12:54:05.405Z</time></trkpt><trkpt lat="41.1731867" lon="14.1630467"><ele>48.0</ele><time>2026-05-04T12:54:06.404Z</time></trkpt><trkpt lat="41.1731083" lon="14.16311"><ele>48.0</ele><time>2026-05-04T12:54:07.405Z</time></trkpt><trkpt lat="41.17304" lon="14.1631717"><ele>48.166666666666664</ele><time>2026-05-04T12:54:08.405Z</time></trkpt><trkpt lat="41.1729683" lon="14.163225"><ele>48.33333333333333</ele><time>2026-05-04T12:54:09.404Z</time></trkpt><trkpt lat="41.1728967" lon="14.16328"><ele>48.5</ele><time>2026-05-04T12:54:10.403Z</time></trkpt><trkpt lat="41.1728233" lon="14.1633383"><ele>48.666666666666664</ele><time>2026-05-04T12:54:11.406Z</time></trkpt><trkpt lat="41.17275" lon="14.1633933"><ele>48.83333333333333</ele><time>2026-05-04T12:54:12.405Z</time></trkpt><trkpt lat="41.172675" lon="14.1634433"><ele>49.0</ele><time>2026-05-04T12:54:13.406Z</time></trkpt><trkpt lat="41.172605" lon="14.1635"><ele>48.99999999999999</ele><time>2026-05-04T12:54:14.405Z</time></trkpt><trkpt lat="41.17253" lon="14.163555"><ele>49.0</ele><time>2026-05-04T12:54:15.405Z</time></trkpt><trkpt lat="41.172455" lon="14.16361"><ele>49.0</ele><time>2026-05-04T12:54:16.405Z</time></trkpt><trkpt lat="41.1723817" lon="14.1636667"><ele>49.0</ele><time>2026-05-04T12:54:17.405Z</time></trkpt><trkpt lat="41.1723067" lon="14.1637233"><ele>48.99999999999999</ele><time>2026-05-04T12:54:18.405Z</time></trkpt><trkpt lat="41.172235" lon="14.1637817"><ele>49.0</ele><time>2026-05-04T12:54:19.405Z</time></trkpt><trkpt lat="41.1721633" lon="14.1638433"><ele>48.99999999999999</ele><time>2026-05-04T12:54:20.405Z</time></trkpt><trkpt lat="41.1720883" lon="14.1639067"><ele>49.0</ele><time>2026-05-04T12:54:21.404Z</time></trkpt><trkpt lat="41.1720117" lon="14.16396"><ele>49.0</ele><time>2026-05-04T12:54:22.404Z</time></trkpt><trkpt lat="41.1719367" lon="14.1640167"><ele>49.0</ele><time>2026-05-04T12:54:23.404Z</time></trkpt><trkpt lat="41.1718617" lon="14.1640733"><ele>48.99999999999999</ele><time>2026-05-04T12:54:24.404Z</time></trkpt><trkpt lat="41.171785" lon="14.16413"><ele>49.0</ele><time>2026-05-04T12:54:25.405Z</time></trkpt><trkpt lat="41.1717083" lon="14.16419"><ele>49.33333333333333</ele><time>2026-05-04T12:54:26.404Z</time></trkpt><trkpt lat="41.1716333" lon="14.164255"><ele>49.666666666666664</ele><time>2026-05-04T12:54:27.406Z</time></trkpt><trkpt lat="41.1715567" lon="14.1643167"><ele>50.0</ele><time>2026-05-04T12:54:28.406Z</time></trkpt><trkpt lat="41.1714817" lon="14.164375"><ele>50.33333333333333</ele><time>2026-05-04T12:54:29.404Z</time></trkpt><trkpt lat="41.171405" lon="14.1644317"><ele>50.666666666666664</ele><time>2026-05-04T12:54:30.403Z</time></trkpt><trkpt lat="41.1713283" lon="14.16449"><ele>51.0</ele><time>2026-05-04T12:54:31.404Z</time></trkpt><trkpt lat="41.1712517" lon="14.164555"><ele>51.166666666666664</ele><time>2026-05-04T12:54:32.404Z</time></trkpt><trkpt lat="41.1711767" lon="14.1646133"><ele>51.33333333333333</ele><time>2026-05-04T12:54:33.404Z</time></trkpt><trkpt lat="41.1711033" lon="14.16467"><ele>51.5</ele><time>2026-05-04T12:54:34.404Z</time></trkpt><trkpt lat="41.17103" lon="14.1647217"><ele>51.666666666666664</ele><time>2026-05-04T12:54:35.405Z</time></trkpt><trkpt lat="41.170955" lon="14.164775"><ele>51.83333333333333</ele><time>2026-05-04T12:54:36.404Z</time></trkpt><trkpt lat="41.1708833" lon="14.1648333"><ele>52.0</ele><time>2026-05-04T12:54:37.403Z</time></trkpt><trkpt lat="41.17081" lon="14.16489"><ele>51.99999999999999</ele><time>2026-05-04T12:54:38.403Z</time></trkpt><trkpt lat="41.1707383" lon="14.1649467"><ele>52.0</ele><time>2026-05-04T12:54:39.403Z</time></trkpt><trkpt lat="41.1706633" lon="14.165005"><ele>52.0</ele><time>2026-05-04T12:54:40.403Z</time></trkpt><trkpt lat="41.1705867" lon="14.1650617"><ele>52.0</ele><time>2026-05-04T12:54:41.402Z</time></trkpt><trkpt lat="41.1705117" lon="14.1651183"><ele>51.99999999999999</ele><time>2026-05-04T12:54:42.403Z</time></trkpt><trkpt lat="41.170435" lon="14.16518"><ele>52.0</ele><time>2026-05-04T12:54:43.403Z</time></trkpt><trkpt lat="41.1703567" lon="14.1652433"><ele>51.6</ele><time>2026-05-04T12:54:44.403Z</time></trkpt><trkpt lat="41.1702783" lon="14.1653067"><ele>51.2</ele><time>2026-05-04T12:54:45.402Z</time></trkpt><trkpt lat="41.1701967" lon="14.1653683"><ele>50.8</ele><time>2026-05-04T12:54:46.403Z</time></trkpt><trkpt lat="41.1701133" lon="14.1654317"><ele>50.4</ele><time>2026-05-04T12:54:47.404Z</time></trkpt><trkpt lat="41.1700317" lon="14.165495"><ele>50.0</ele><time>2026-05-04T12:54:48.403Z</time></trkpt><trkpt lat="41.169955" lon="14.1655567"><ele>50.00000000000001</ele><time>2026-05-04T12:54:49.402Z</time></trkpt><trkpt lat="41.1698783" lon="14.16561"><ele>50.0</ele><time>2026-05-04T12:54:50.404Z</time></trkpt><trkpt lat="41.1698" lon="14.165665"><ele>50.0</ele><time>2026-05-04T12:54:51.402Z</time></trkpt><trkpt lat="41.169725" lon="14.1657233"><ele>50.0</ele><time>2026-05-04T12:54:52.402Z</time></trkpt><trkpt lat="41.1696467" lon="14.16578"><ele>50.00000000000001</ele><time>2026-05-04T12:54:53.403Z</time></trkpt><trkpt lat="41.16957" lon="14.1658417"><ele>50.0</ele><time>2026-05-04T12:54:54.403Z</time></trkpt><trkpt lat="41.1694917" lon="14.165905"><ele>49.6</ele><time>2026-05-04T12:54:55.404Z</time></trkpt><trkpt lat="41.1694133" lon="14.1659683"><ele>49.2</ele><time>2026-05-04T12:54:56.403Z</time></trkpt><trkpt lat="41.169335" lon="14.1660317"><ele>48.8</ele><time>2026-05-04T12:54:57.403Z</time></trkpt><trkpt lat="41.169255" lon="14.1660917"><ele>48.4</ele><time>2026-05-04T12:54:58.402Z</time></trkpt><trkpt lat="41.1691767" lon="14.16615"><ele>48.0</ele><time>2026-05-04T12:54:59.403Z</time></trkpt><trkpt lat="41.1690983" lon="14.1662067"><ele>48.0</ele><time>2026-05-04T12:55:00.402Z</time></trkpt><trkpt lat="41.1690233" lon="14.1662717"><ele>48.0</ele><time>2026-05-04T12:55:01.402Z</time></trkpt><trkpt lat="41.1689467" lon="14.1663333"><ele>48.0</ele><time>2026-05-04T12:55:02.402Z</time></trkpt><trkpt lat="41.1688733" lon="14.1664017"><ele>48.0</ele><time>2026-05-04T12:55:03.403Z</time></trkpt><trkpt lat="41.1688" lon="14.16647"><ele>48.0</ele><time>2026-05-04T12:55:04.403Z</time></trkpt><trkpt lat="41.168725" lon="14.1665333"><ele>48.0</ele><time>2026-05-04T12:55:05.403Z</time></trkpt><trkpt lat="41.1686467" lon="14.16659"><ele>48.166666666666664</ele><time>2026-05-04T12:55:06.403Z</time></trkpt><trkpt lat="41.1685717" lon="14.16665"><ele>48.33333333333333</ele><time>2026-05-04T12:55:07.403Z</time></trkpt><trkpt lat="41.1684967" lon="14.1667083"><ele>48.5</ele><time>2026-05-04T12:55:08.403Z</time></trkpt><trkpt lat="41.168425" lon="14.1667667"><ele>48.666666666666664</ele><time>2026-05-04T12:55:09.405Z</time></trkpt><trkpt lat="41.168355" lon="14.1668283"><ele>48.83333333333333</ele><time>2026-05-04T12:55:10.404Z</time></trkpt><trkpt lat="41.1682833" lon="14.1668867"><ele>49.0</ele><time>2026-05-04T12:55:11.403Z</time></trkpt><trkpt lat="41.168215" lon="14.166945"><ele>48.83333333333333</ele><time>2026-05-04T12:55:12.403Z</time></trkpt><trkpt lat="41.1681433" lon="14.1670033"><ele>48.666666666666664</ele><time>2026-05-04T12:55:13.402Z</time></trkpt><trkpt lat="41.168065" lon="14.1670483"><ele>48.5</ele><time>2026-05-04T12:55:14.403Z</time></trkpt><trkpt lat="41.1679983" lon="14.1671033"><ele>48.33333333333333</ele><time>2026-05-04T12:55:15.403Z</time></trkpt><trkpt lat="41.16793" lon="14.1671533"><ele>48.166666666666664</ele><time>2026-05-04T12:55:16.402Z</time></trkpt><trkpt lat="41.167865" lon="14.1672067"><ele>48.0</ele><time>2026-05-04T12:55:17.404Z</time></trkpt><trkpt lat="41.1677967" lon="14.16726"><ele>48.0</ele><time>2026-05-04T12:55:18.403Z</time></trkpt><trkpt lat="41.1677283" lon="14.1673117"><ele>48.0</ele><time>2026-05-04T12:55:19.403Z</time></trkpt><trkpt lat="41.1676567" lon="14.1673683"><ele>48.0</ele><time>2026-05-04T12:55:20.404Z</time></trkpt><trkpt lat="41.1675833" lon="14.1674233"><ele>48.0</ele><time>2026-05-04T12:55:21.403Z</time></trkpt><trkpt lat="41.16751" lon="14.167475"><ele>48.0</ele><time>2026-05-04T12:55:22.403Z</time></trkpt><trkpt lat="41.1674367" lon="14.1675283"><ele>48.0</ele><time>2026-05-04T12:55:23.404Z</time></trkpt><trkpt lat="41.16736" lon="14.16758"><ele>48.333333333333336</ele><time>2026-05-04T12:55:24.403Z</time></trkpt><trkpt lat="41.1672867" lon="14.167635"><ele>48.66666666666667</ele><time>2026-05-04T12:55:25.402Z</time></trkpt><trkpt lat="41.1672117" lon="14.1676883"><ele>49.0</ele><time>2026-05-04T12:55:26.404Z</time></trkpt><trkpt lat="41.167135" lon="14.1677433"><ele>49.333333333333336</ele><time>2026-05-04T12:55:27.403Z</time></trkpt><trkpt lat="41.1670583" lon="14.167795"><ele>49.66666666666667</ele><time>2026-05-04T12:55:28.403Z</time></trkpt><trkpt lat="41.166985" lon="14.167855"><ele>50.0</ele><time>2026-05-04T12:55:29.404Z</time></trkpt><trkpt lat="41.16691" lon="14.1679117"><ele>50.0</ele><time>2026-05-04T12:55:30.404Z</time></trkpt><trkpt lat="41.1668333" lon="14.1679733"><ele>50.0</ele><time>2026-05-04T12:55:31.402Z</time></trkpt><trkpt lat="41.166755" lon="14.1680333"><ele>50.0</ele><time>2026-05-04T12:55:32.402Z</time></trkpt><trkpt lat="41.1666767" lon="14.1680967"><ele>50.0</ele><time>2026-05-04T12:55:33.404Z</time></trkpt><trkpt lat="41.166595" lon="14.168155"><ele>50.0</ele><time>2026-05-04T12:55:34.403Z</time></trkpt><trkpt lat="41.1665167" lon="14.1682183"><ele>49.8</ele><time>2026-05-04T12:55:35.405Z</time></trkpt><trkpt lat="41.1664367" lon="14.168275"><ele>49.6</ele><time>2026-05-04T12:55:36.405Z</time></trkpt><trkpt lat="41.1663583" lon="14.16834"><ele>49.400000000000006</ele><time>2026-05-04T12:55:37.403Z</time></trkpt><trkpt lat="41.1662783" lon="14.168405"><ele>49.2</ele><time>2026-05-04T12:55:38.404Z</time></trkpt><trkpt lat="41.1661967" lon="14.168465"><ele>49.0</ele><time>2026-05-04T12:55:39.403Z</time></trkpt><trkpt lat="41.1661133" lon="14.168525"><ele>49.0</ele><time>2026-05-04T12:55:40.403Z</time></trkpt><trkpt lat="41.1660283" lon="14.1685833"><ele>49.0</ele><time>2026-05-04T12:55:41.403Z</time></trkpt><trkpt lat="41.165945" lon="14.168645"><ele>49.0</ele><time>2026-05-04T12:55:42.403Z</time></trkpt><trkpt lat="41.1658617" lon="14.1687067"><ele>49.0</ele><time>2026-05-04T12:55:43.404Z</time></trkpt><trkpt lat="41.1657783" lon="14.1687583"><ele>49.0</ele><time>2026-05-04T12:55:44.402Z</time></trkpt><trkpt lat="41.165695" lon="14.16882"><ele>49.400000000000006</ele><time>2026-05-04T12:55:45.404Z</time></trkpt><trkpt lat="41.1656117" lon="14.16888"><ele>49.8</ele><time>2026-05-04T12:55:46.406Z</time></trkpt><trkpt lat="41.1655317" lon="14.1689433"><ele>50.2</ele><time>2026-05-04T12:55:47.404Z</time></trkpt><trkpt lat="41.1654517" lon="14.1690083"><ele>50.599999999999994</ele><time>2026-05-04T12:55:48.404Z</time></trkpt><trkpt lat="41.16537" lon="14.1690733"><ele>51.0</ele><time>2026-05-04T12:55:49.403Z</time></trkpt><trkpt lat="41.1652867" lon="14.1691383"><ele>50.199999999999996</ele><time>2026-05-04T12:55:50.403Z</time></trkpt><trkpt lat="41.165205" lon="14.1692"><ele>49.4</ele><time>2026-05-04T12:55:51.404Z</time></trkpt><trkpt lat="41.16512" lon="14.1692617"><ele>48.6</ele><time>2026-05-04T12:55:52.403Z</time></trkpt><trkpt lat="41.1650333" lon="14.16933"><ele>47.8</ele><time>2026-05-04T12:55:53.402Z</time></trkpt><trkpt lat="41.1649483" lon="14.1694017"><ele>47.0</ele><time>2026-05-04T12:55:54.402Z</time></trkpt><trkpt lat="41.1648633" lon="14.16947"><ele>46.400000000000006</ele><time>2026-05-04T12:55:55.403Z</time></trkpt><trkpt lat="41.1647833" lon="14.1695333"><ele>45.800000000000004</ele><time>2026-05-04T12:55:56.402Z</time></trkpt><trkpt lat="41.1647017" lon="14.169595"><ele>45.2</ele><time>2026-05-04T12:55:57.404Z</time></trkpt><trkpt lat="41.1646183" lon="14.1696567"><ele>44.6</ele><time>2026-05-04T12:55:58.404Z</time></trkpt><trkpt lat="41.1645333" lon="14.1697183"><ele>44.0</ele><time>2026-05-04T12:55:59.403Z</time></trkpt><trkpt lat="41.16445" lon="14.1697817"><ele>44.0</ele><time>2026-05-04T12:56:00.403Z</time></trkpt><trkpt lat="41.1643667" lon="14.169845"><ele>44.0</ele><time>2026-05-04T12:56:01.403Z</time></trkpt><trkpt lat="41.1642833" lon="14.1699083"><ele>44.0</ele><time>2026-05-04T12:56:02.403Z</time></trkpt><trkpt lat="41.1642" lon="14.1699683"><ele>44.0</ele><time>2026-05-04T12:56:03.404Z</time></trkpt><trkpt lat="41.1641167" lon="14.1700317"><ele>44.0</ele><time>2026-05-04T12:56:04.403Z</time></trkpt><trkpt lat="41.1640317" lon="14.1700933"><ele>44.0</ele><time>2026-05-04T12:56:05.403Z</time></trkpt><trkpt lat="41.1639467" lon="14.170155"><ele>44.0</ele><time>2026-05-04T12:56:06.403Z</time></trkpt><trkpt lat="41.1638633" lon="14.17022"><ele>44.0</ele><time>2026-05-04T12:56:07.404Z</time></trkpt><trkpt lat="41.16378" lon="14.1702867"><ele>44.0</ele><time>2026-05-04T12:56:08.403Z</time></trkpt><trkpt lat="41.1636983" lon="14.17035"><ele>44.0</ele><time>2026-05-04T12:56:09.402Z</time></trkpt><trkpt lat="41.1636167" lon="14.1704167"><ele>44.0</ele><time>2026-05-04T12:56:10.405Z</time></trkpt><trkpt lat="41.163535" lon="14.17048"><ele>44.0</ele><time>2026-05-04T12:56:11.405Z</time></trkpt><trkpt lat="41.1634483" lon="14.170545"><ele>44.0</ele><time>2026-05-04T12:56:12.404Z</time></trkpt><trkpt lat="41.1633617" lon="14.1706117"><ele>44.0</ele><time>2026-05-04T12:56:13.403Z</time></trkpt><trkpt lat="41.1632767" lon="14.1706817"><ele>44.0</ele><time>2026-05-04T12:56:14.403Z</time></trkpt><trkpt lat="41.1631933" lon="14.1707483"><ele>44.2</ele><time>2026-05-04T12:56:15.402Z</time></trkpt><trkpt lat="41.1631067" lon="14.170815"><ele>44.400000000000006</ele><time>2026-05-04T12:56:16.403Z</time></trkpt><trkpt lat="41.1630183" lon="14.1708783"><ele>44.6</ele><time>2026-05-04T12:56:17.405Z</time></trkpt><trkpt lat="41.16293" lon="14.170945"><ele>44.8</ele><time>2026-05-04T12:56:18.402Z</time></trkpt><trkpt lat="41.16284" lon="14.1709983"><ele>45.0</ele><time>2026-05-04T12:56:19.403Z</time></trkpt><trkpt lat="41.1627517" lon="14.1710617"><ele>45.0</ele><time>2026-05-04T12:56:20.404Z</time></trkpt><trkpt lat="41.162665" lon="14.171125"><ele>45.0</ele><time>2026-05-04T12:56:21.403Z</time></trkpt><trkpt lat="41.16258" lon="14.1711783"><ele>45.0</ele><time>2026-05-04T12:56:22.403Z</time></trkpt><trkpt lat="41.1624883" lon="14.1712283"><ele>45.0</ele><time>2026-05-04T12:56:23.404Z</time></trkpt><trkpt lat="41.1624033" lon="14.171275"><ele>45.0</ele><time>2026-05-04T12:56:24.402Z</time></trkpt><trkpt lat="41.1623183" lon="14.1713217"><ele>45.0</ele><time>2026-05-04T12:56:25.403Z</time></trkpt><trkpt lat="41.1622267" lon="14.17138"><ele>45.0</ele><time>2026-05-04T12:56:26.403Z</time></trkpt><trkpt lat="41.16213" lon="14.1715083"><ele>45.0</ele><time>2026-05-04T12:56:27.401Z</time></trkpt><trkpt lat="41.162045" lon="14.17159"><ele>45.0</ele><time>2026-05-04T12:56:28.404Z</time></trkpt><trkpt lat="41.1619617" lon="14.17167"><ele>45.0</ele><time>2026-05-04T12:56:29.403Z</time></trkpt><trkpt lat="41.161885" lon="14.17174"><ele>45.0</ele><time>2026-05-04T12:56:30.402Z</time></trkpt><trkpt lat="41.1618067" lon="14.1717983"><ele>45.0</ele><time>2026-05-04T12:56:31.402Z</time></trkpt><trkpt lat="41.161735" lon="14.1718533"><ele>45.0</ele><time>2026-05-04T12:56:32.403Z</time></trkpt><trkpt lat="41.16166" lon="14.1719183"><ele>45.0</ele><time>2026-05-04T12:56:33.402Z</time></trkpt><trkpt lat="41.16158" lon="14.1719733"><ele>45.0</ele><time>2026-05-04T12:56:34.402Z</time></trkpt><trkpt lat="41.161505" lon="14.17204"><ele>45.0</ele><time>2026-05-04T12:56:35.402Z</time></trkpt><trkpt lat="41.16143" lon="14.1720967"><ele>45.0</ele><time>2026-05-04T12:56:36.401Z</time></trkpt><trkpt lat="41.16136" lon="14.172165"><ele>45.0</ele><time>2026-05-04T12:56:37.402Z</time></trkpt><trkpt lat="41.1612867" lon="14.17223"><ele>45.0</ele><time>2026-05-04T12:56:38.404Z</time></trkpt><trkpt lat="41.1612117" lon="14.1723017"><ele>45.0</ele><time>2026-05-04T12:56:39.402Z</time></trkpt><trkpt lat="41.161135" lon="14.172365"><ele>45.0</ele><time>2026-05-04T12:56:40.402Z</time></trkpt><trkpt lat="41.161055" lon="14.172425"><ele>45.0</ele><time>2026-05-04T12:56:41.403Z</time></trkpt><trkpt lat="41.1609783" lon="14.1724917"><ele>45.0</ele><time>2026-05-04T12:56:42.402Z</time></trkpt><trkpt lat="41.160895" lon="14.1725533"><ele>45.0</ele><time>2026-05-04T12:56:43.403Z</time></trkpt><trkpt lat="41.1608117" lon="14.1726117"><ele>45.0</ele><time>2026-05-04T12:56:44.402Z</time></trkpt><trkpt lat="41.1607317" lon="14.1726683"><ele>45.0</ele><time>2026-05-04T12:56:45.402Z</time></trkpt><trkpt lat="41.160655" lon="14.17273"><ele>45.0</ele><time>2026-05-04T12:56:46.402Z</time></trkpt><trkpt lat="41.160585" lon="14.1727883"><ele>45.0</ele><time>2026-05-04T12:56:47.401Z</time></trkpt><trkpt lat="41.1605217" lon="14.1728433"><ele>45.0</ele><time>2026-05-04T12:56:48.402Z</time></trkpt><trkpt lat="41.16046" lon="14.172895"><ele>45.0</ele><time>2026-05-04T12:56:49.402Z</time></trkpt><trkpt lat="41.1604" lon="14.1729433"><ele>45.0</ele><time>2026-05-04T12:56:50.402Z</time></trkpt><trkpt lat="41.1603433" lon="14.172995"><ele>45.0</ele><time>2026-05-04T12:56:51.402Z</time></trkpt><trkpt lat="41.1602883" lon="14.17304"><ele>45.0</ele><time>2026-05-04T12:56:52.402Z</time></trkpt><trkpt lat="41.16023" lon="14.1730883"><ele>45.0</ele><time>2026-05-04T12:56:53.403Z</time></trkpt><trkpt lat="41.160165" lon="14.17313"><ele>45.0</ele><time>2026-05-04T12:56:54.402Z</time></trkpt><trkpt lat="41.1600967" lon="14.17318"><ele>45.0</ele><time>2026-05-04T12:56:55.404Z</time></trkpt><trkpt lat="41.1600317" lon="14.1732367"><ele>45.0</ele><time>2026-05-04T12:56:56.401Z</time></trkpt><trkpt lat="41.15997" lon="14.1732983"><ele>45.0</ele><time>2026-05-04T12:56:57.402Z</time></trkpt><trkpt lat="41.1599133" lon="14.17334"><ele>45.0</ele><time>2026-05-04T12:56:58.401Z</time></trkpt><trkpt lat="41.1598017" lon="14.17341"><ele>45.0</ele><time>2026-05-04T12:57:00.402Z</time></trkpt><trkpt lat="41.15974" lon="14.1734433"><ele>45.0</ele><time>2026-05-04T12:57:01.402Z</time></trkpt><trkpt lat="41.1596783" lon="14.1734917"><ele>45.0</ele><time>2026-05-04T12:57:02.402Z</time></trkpt><trkpt lat="41.1596117" lon="14.17354"><ele>45.0</ele><time>2026-05-04T12:57:03.402Z</time></trkpt><trkpt lat="41.1595433" lon="14.173595"><ele>45.0</ele><time>2026-05-04T12:57:04.403Z</time></trkpt><trkpt lat="41.15947" lon="14.173655"><ele>45.0</ele><time>2026-05-04T12:57:05.403Z</time></trkpt><trkpt lat="41.1593933" lon="14.17371"><ele>45.0</ele><time>2026-05-04T12:57:06.402Z</time></trkpt><trkpt lat="41.1593167" lon="14.1737717"><ele>45.0</ele><time>2026-05-04T12:57:07.402Z</time></trkpt><trkpt lat="41.1592417" lon="14.1738333"><ele>45.0</ele><time>2026-05-04T12:57:08.402Z</time></trkpt><trkpt lat="41.1591667" lon="14.173895"><ele>45.0</ele><time>2026-05-04T12:57:09.401Z</time></trkpt><trkpt lat="41.1590917" lon="14.1739567"><ele>45.0</ele><time>2026-05-04T12:57:10.402Z</time></trkpt><trkpt lat="41.1590167" lon="14.1740233"><ele>45.0</ele><time>2026-05-04T12:57:11.402Z</time></trkpt><trkpt lat="41.158935" lon="14.1740817"><ele>45.0</ele><time>2026-05-04T12:57:12.403Z</time></trkpt><trkpt lat="41.1588567" lon="14.1741367"><ele>45.0</ele><time>2026-05-04T12:57:13.401Z</time></trkpt><trkpt lat="41.15878" lon="14.174195"><ele>45.0</ele><time>2026-05-04T12:57:14.402Z</time></trkpt><trkpt lat="41.1587033" lon="14.174255"><ele>45.0</ele><time>2026-05-04T12:57:15.402Z</time></trkpt><trkpt lat="41.1586267" lon="14.174315"><ele>45.0</ele><time>2026-05-04T12:57:16.403Z</time></trkpt><trkpt lat="41.158555" lon="14.1743733"><ele>45.0</ele><time>2026-05-04T12:57:17.403Z</time></trkpt><trkpt lat="41.1584817" lon="14.17443"><ele>45.0</ele><time>2026-05-04T12:57:18.402Z</time></trkpt><trkpt lat="41.1584083" lon="14.1744883"><ele>45.0</ele><time>2026-05-04T12:57:19.402Z</time></trkpt><trkpt lat="41.1583317" lon="14.1745433"><ele>45.0</ele><time>2026-05-04T12:57:20.401Z</time></trkpt><trkpt lat="41.1582567" lon="14.17459"><ele>45.0</ele><time>2026-05-04T12:57:21.402Z</time></trkpt><trkpt lat="41.15819" lon="14.17464"><ele>45.0</ele><time>2026-05-04T12:57:22.404Z</time></trkpt><trkpt lat="41.15812" lon="14.1746917"><ele>45.0</ele><time>2026-05-04T12:57:23.404Z</time></trkpt><trkpt lat="41.1580533" lon="14.174745"><ele>45.0</ele><time>2026-05-04T12:57:24.402Z</time></trkpt><trkpt lat="41.1579783" lon="14.1748017"><ele>45.0</ele><time>2026-05-04T12:57:25.403Z</time></trkpt><trkpt lat="41.157905" lon="14.17486"><ele>45.0</ele><time>2026-05-04T12:57:26.402Z</time></trkpt><trkpt lat="41.1578267" lon="14.1749133"><ele>45.0</ele><time>2026-05-04T12:57:27.403Z</time></trkpt><trkpt lat="41.15775" lon="14.1749667"><ele>45.0</ele><time>2026-05-04T12:57:28.401Z</time></trkpt><trkpt lat="41.1576717" lon="14.1750217"><ele>45.0</ele><time>2026-05-04T12:57:29.402Z</time></trkpt><trkpt lat="41.1575983" lon="14.1750767"><ele>45.0</ele><time>2026-05-04T12:57:30.402Z</time></trkpt><trkpt lat="41.1575233" lon="14.1751333"><ele>45.0</ele><time>2026-05-04T12:57:31.402Z</time></trkpt><trkpt lat="41.1574517" lon="14.17519"><ele>45.0</ele><time>2026-05-04T12:57:32.402Z</time></trkpt><trkpt lat="41.1573783" lon="14.1752533"><ele>45.0</ele><time>2026-05-04T12:57:33.402Z</time></trkpt><trkpt lat="41.1573033" lon="14.1753183"><ele>45.0</ele><time>2026-05-04T12:57:34.402Z</time></trkpt><trkpt lat="41.15723" lon="14.1753833"><ele>45.0</ele><time>2026-05-04T12:57:35.402Z</time></trkpt><trkpt lat="41.1571517" lon="14.17545"><ele>44.8</ele><time>2026-05-04T12:57:36.401Z</time></trkpt><trkpt lat="41.15707" lon="14.1755183"><ele>44.6</ele><time>2026-05-04T12:57:37.402Z</time></trkpt><trkpt lat="41.1569883" lon="14.1755883"><ele>44.400000000000006</ele><time>2026-05-04T12:57:38.402Z</time></trkpt><trkpt lat="41.1569083" lon="14.1756583"><ele>44.2</ele><time>2026-05-04T12:57:39.402Z</time></trkpt><trkpt lat="41.1568267" lon="14.1757267"><ele>44.0</ele><time>2026-05-04T12:57:40.401Z</time></trkpt><trkpt lat="41.1567467" lon="14.1757933"><ele>44.0</ele><time>2026-05-04T12:57:41.403Z</time></trkpt><trkpt lat="41.156665" lon="14.175855"><ele>44.0</ele><time>2026-05-04T12:57:42.402Z</time></trkpt><trkpt lat="41.156585" lon="14.1759133"><ele>44.0</ele><time>2026-05-04T12:57:43.403Z</time></trkpt><trkpt lat="41.1565083" lon="14.17597"><ele>44.0</ele><time>2026-05-04T12:57:44.402Z</time></trkpt><trkpt lat="41.1564333" lon="14.1760283"><ele>44.0</ele><time>2026-05-04T12:57:45.405Z</time></trkpt><trkpt lat="41.156355" lon="14.1760867"><ele>43.800000000000004</ele><time>2026-05-04T12:57:46.401Z</time></trkpt><trkpt lat="41.1562783" lon="14.17615"><ele>43.6</ele><time>2026-05-04T12:57:47.403Z</time></trkpt><trkpt lat="41.1562" lon="14.1762117"><ele>43.4</ele><time>2026-05-04T12:57:48.401Z</time></trkpt><trkpt lat="41.15612" lon="14.1762733"><ele>43.2</ele><time>2026-05-04T12:57:49.404Z</time></trkpt><trkpt lat="41.1560417" lon="14.1763333"><ele>43.0</ele><time>2026-05-04T12:57:50.402Z</time></trkpt><trkpt lat="41.1559633" lon="14.176395"><ele>43.0</ele><time>2026-05-04T12:57:51.402Z</time></trkpt><trkpt lat="41.1558867" lon="14.1764567"><ele>43.0</ele><time>2026-05-04T12:57:52.403Z</time></trkpt><trkpt lat="41.1558083" lon="14.1765183"><ele>43.0</ele><time>2026-05-04T12:57:53.403Z</time></trkpt><trkpt lat="41.1557333" lon="14.1765767"><ele>43.0</ele><time>2026-05-04T12:57:54.404Z</time></trkpt><trkpt lat="41.1556567" lon="14.1766333"><ele>43.0</ele><time>2026-05-04T12:57:55.402Z</time></trkpt><trkpt lat="41.1555783" lon="14.1766867"><ele>43.0</ele><time>2026-05-04T12:57:56.403Z</time></trkpt><trkpt lat="41.1555033" lon="14.1767467"><ele>43.2</ele><time>2026-05-04T12:57:57.403Z</time></trkpt><trkpt lat="41.155425" lon="14.1768117"><ele>43.4</ele><time>2026-05-04T12:57:58.403Z</time></trkpt><trkpt lat="41.1553417" lon="14.1768783"><ele>43.6</ele><time>2026-05-04T12:57:59.403Z</time></trkpt><trkpt lat="41.1552583" lon="14.17694"><ele>43.800000000000004</ele><time>2026-05-04T12:58:00.402Z</time></trkpt><trkpt lat="41.1551767" lon="14.1769983"><ele>44.0</ele><time>2026-05-04T12:58:01.402Z</time></trkpt><trkpt lat="41.1550933" lon="14.1770567"><ele>44.0</ele><time>2026-05-04T12:58:02.403Z</time></trkpt><trkpt lat="41.1550133" lon="14.177115"><ele>44.0</ele><time>2026-05-04T12:58:03.402Z</time></trkpt><trkpt lat="41.1549333" lon="14.177175"><ele>44.0</ele><time>2026-05-04T12:58:04.403Z</time></trkpt><trkpt lat="41.1548533" lon="14.1772383"><ele>44.0</ele><time>2026-05-04T12:58:05.403Z</time></trkpt><trkpt lat="41.1547717" lon="14.1773033"><ele>44.0</ele><time>2026-05-04T12:58:06.403Z</time></trkpt><trkpt lat="41.1546917" lon="14.17737"><ele>43.6</ele><time>2026-05-04T12:58:07.401Z</time></trkpt><trkpt lat="41.1546117" lon="14.1774367"><ele>43.2</ele><time>2026-05-04T12:58:08.402Z</time></trkpt><trkpt lat="41.1545317" lon="14.177505"><ele>42.800000000000004</ele><time>2026-05-04T12:58:09.403Z</time></trkpt><trkpt lat="41.1544483" lon="14.1775733"><ele>42.400000000000006</ele><time>2026-05-04T12:58:10.401Z</time></trkpt><trkpt lat="41.1543617" lon="14.1776433"><ele>42.0</ele><time>2026-05-04T12:58:11.403Z</time></trkpt><trkpt lat="41.1542783" lon="14.1777133"><ele>42.0</ele><time>2026-05-04T12:58:12.403Z</time></trkpt><trkpt lat="41.1541917" lon="14.1777783"><ele>42.0</ele><time>2026-05-04T12:58:13.403Z</time></trkpt><trkpt lat="41.1541067" lon="14.177845"><ele>42.0</ele><time>2026-05-04T12:58:14.401Z</time></trkpt><trkpt lat="41.1540217" lon="14.177915"><ele>42.0</ele><time>2026-05-04T12:58:15.403Z</time></trkpt><trkpt lat="41.1539383" lon="14.1779867"><ele>42.0</ele><time>2026-05-04T12:58:16.403Z</time></trkpt><trkpt lat="41.1538517" lon="14.1780533"><ele>42.0</ele><time>2026-05-04T12:58:17.406Z</time></trkpt><trkpt lat="41.153765" lon="14.17812"><ele>42.0</ele><time>2026-05-04T12:58:18.402Z</time></trkpt><trkpt lat="41.1536783" lon="14.1781833"><ele>42.0</ele><time>2026-05-04T12:58:19.402Z</time></trkpt><trkpt lat="41.15359" lon="14.1782467"><ele>42.0</ele><time>2026-05-04T12:58:20.402Z</time></trkpt><trkpt lat="41.1535017" lon="14.1783117"><ele>42.0</ele><time>2026-05-04T12:58:21.402Z</time></trkpt><trkpt lat="41.15341" lon="14.1783733"><ele>42.0</ele><time>2026-05-04T12:58:22.403Z</time></trkpt><trkpt lat="41.1533217" lon="14.1784383"><ele>42.0</ele><time>2026-05-04T12:58:23.402Z</time></trkpt><trkpt lat="41.1532333" lon="14.1785067"><ele>42.0</ele><time>2026-05-04T12:58:24.402Z</time></trkpt><trkpt lat="41.153145" lon="14.178575"><ele>42.0</ele><time>2026-05-04T12:58:25.403Z</time></trkpt><trkpt lat="41.1530567" lon="14.17864"><ele>42.0</ele><time>2026-05-04T12:58:26.402Z</time></trkpt><trkpt lat="41.1529683" lon="14.17871"><ele>41.8</ele><time>2026-05-04T12:58:27.402Z</time></trkpt><trkpt lat="41.15288" lon="14.1787783"><ele>41.6</ele><time>2026-05-04T12:58:28.403Z</time></trkpt><trkpt lat="41.15279" lon="14.1788467"><ele>41.4</ele><time>2026-05-04T12:58:29.402Z</time></trkpt><trkpt lat="41.1527017" lon="14.17891"><ele>41.199999999999996</ele><time>2026-05-04T12:58:30.402Z</time></trkpt><trkpt lat="41.1526117" lon="14.1789783"><ele>41.0</ele><time>2026-05-04T12:58:31.403Z</time></trkpt><trkpt lat="41.1525233" lon="14.17905"><ele>41.0</ele><time>2026-05-04T12:58:32.403Z</time></trkpt><trkpt lat="41.1524333" lon="14.1791217"><ele>41.0</ele><time>2026-05-04T12:58:33.403Z</time></trkpt><trkpt lat="41.1523383" lon="14.1791933"><ele>41.0</ele><time>2026-05-04T12:58:34.402Z</time></trkpt><trkpt lat="41.1522433" lon="14.1792683"><ele>41.0</ele><time>2026-05-04T12:58:35.403Z</time></trkpt><trkpt lat="41.1521467" lon="14.17934"><ele>41.0</ele><time>2026-05-04T12:58:36.401Z</time></trkpt><trkpt lat="41.1520517" lon="14.1794083"><ele>40.5</ele><time>2026-05-04T12:58:37.402Z</time></trkpt><trkpt lat="41.1519533" lon="14.1794783"><ele>40.0</ele><time>2026-05-04T12:58:38.402Z</time></trkpt><trkpt lat="41.151855" lon="14.17955"><ele>39.5</ele><time>2026-05-04T12:58:39.403Z</time></trkpt><trkpt lat="41.15176" lon="14.17963"><ele>39.0</ele><time>2026-05-04T12:58:40.403Z</time></trkpt><trkpt lat="41.15166" lon="14.1797083"><ele>39.0</ele><time>2026-05-04T12:58:41.403Z</time></trkpt><trkpt lat="41.15156" lon="14.1797867"><ele>39.0</ele><time>2026-05-04T12:58:42.401Z</time></trkpt><trkpt lat="41.151455" lon="14.17986"><ele>39.0</ele><time>2026-05-04T12:58:43.404Z</time></trkpt><trkpt lat="41.15135" lon="14.1799317"><ele>39.0</ele><time>2026-05-04T12:58:44.403Z</time></trkpt><trkpt lat="41.15125" lon="14.1800117"><ele>39.0</ele><time>2026-05-04T12:58:45.402Z</time></trkpt><trkpt lat="41.1511533" lon="14.1800917"><ele>39.0</ele><time>2026-05-04T12:58:46.402Z</time></trkpt><trkpt lat="41.1510583" lon="14.1801717"><ele>39.0</ele><time>2026-05-04T12:58:47.403Z</time></trkpt><trkpt lat="41.1509583" lon="14.1802417"><ele>39.0</ele><time>2026-05-04T12:58:48.403Z</time></trkpt><trkpt lat="41.15086" lon="14.1803133"><ele>39.0</ele><time>2026-05-04T12:58:49.404Z</time></trkpt><trkpt lat="41.15076" lon="14.1803867"><ele>39.0</ele><time>2026-05-04T12:58:50.403Z</time></trkpt><trkpt lat="41.1506667" lon="14.1804533"><ele>39.0</ele><time>2026-05-04T12:58:51.402Z</time></trkpt><trkpt lat="41.150575" lon="14.1805217"><ele>39.0</ele><time>2026-05-04T12:58:52.403Z</time></trkpt><trkpt lat="41.1504883" lon="14.180595"><ele>39.0</ele><time>2026-05-04T12:58:53.404Z</time></trkpt><trkpt lat="41.1504" lon="14.1806633"><ele>38.8</ele><time>2026-05-04T12:58:54.403Z</time></trkpt><trkpt lat="41.1503117" lon="14.180735"><ele>38.599999999999994</ele><time>2026-05-04T12:58:55.404Z</time></trkpt><trkpt lat="41.1502217" lon="14.1808083"><ele>38.4</ele><time>2026-05-04T12:58:56.402Z</time></trkpt><trkpt lat="41.1501333" lon="14.180875"><ele>38.199999999999996</ele><time>2026-05-04T12:58:57.402Z</time></trkpt><trkpt lat="41.1500467" lon="14.1809467"><ele>38.0</ele><time>2026-05-04T12:58:58.402Z</time></trkpt><trkpt lat="41.14996" lon="14.18102"><ele>38.0</ele><time>2026-05-04T12:58:59.401Z</time></trkpt><trkpt lat="41.149875" lon="14.1810883"><ele>38.0</ele><time>2026-05-04T12:59:00.402Z</time></trkpt><trkpt lat="41.14979" lon="14.18116"><ele>38.0</ele><time>2026-05-04T12:59:01.403Z</time></trkpt><trkpt lat="41.1497067" lon="14.18123"><ele>38.0</ele><time>2026-05-04T12:59:02.403Z</time></trkpt><trkpt lat="41.149625" lon="14.1812967"><ele>38.0</ele><time>2026-05-04T12:59:03.401Z</time></trkpt><trkpt lat="41.14954" lon="14.1813617"><ele>38.0</ele><time>2026-05-04T12:59:04.403Z</time></trkpt><trkpt lat="41.1494583" lon="14.1814233"><ele>38.0</ele><time>2026-05-04T12:59:05.402Z</time></trkpt><trkpt lat="41.1493767" lon="14.1814883"><ele>38.0</ele><time>2026-05-04T12:59:06.403Z</time></trkpt><trkpt lat="41.1492967" lon="14.181555"><ele>38.0</ele><time>2026-05-04T12:59:07.402Z</time></trkpt><trkpt lat="41.149215" lon="14.1816183"><ele>38.0</ele><time>2026-05-04T12:59:08.402Z</time></trkpt><trkpt lat="41.1491333" lon="14.18168"><ele>37.6</ele><time>2026-05-04T12:59:09.402Z</time></trkpt><trkpt lat="41.1490517" lon="14.1817433"><ele>37.199999999999996</ele><time>2026-05-04T12:59:10.402Z</time></trkpt><trkpt lat="41.1489717" lon="14.181805"><ele>36.8</ele><time>2026-05-04T12:59:11.403Z</time></trkpt><trkpt lat="41.1488883" lon="14.1818683"><ele>36.4</ele><time>2026-05-04T12:59:12.403Z</time></trkpt><trkpt lat="41.14881" lon="14.1819367"><ele>36.0</ele><time>2026-05-04T12:59:13.402Z</time></trkpt><trkpt lat="41.1487267" lon="14.1819983"><ele>35.6</ele><time>2026-05-04T12:59:14.403Z</time></trkpt><trkpt lat="41.1486433" lon="14.182065"><ele>35.2</ele><time>2026-05-04T12:59:15.401Z</time></trkpt><trkpt lat="41.1485583" lon="14.1821267"><ele>34.8</ele><time>2026-05-04T12:59:16.403Z</time></trkpt><trkpt lat="41.1484717" lon="14.1821933"><ele>34.4</ele><time>2026-05-04T12:59:17.409Z</time></trkpt><trkpt lat="41.1483867" lon="14.1822617"><ele>34.0</ele><time>2026-05-04T12:59:18.403Z</time></trkpt><trkpt lat="41.1483" lon="14.1823283"><ele>34.0</ele><time>2026-05-04T12:59:19.403Z</time></trkpt><trkpt lat="41.148215" lon="14.182395"><ele>34.0</ele><time>2026-05-04T12:59:20.403Z</time></trkpt><trkpt lat="41.1481317" lon="14.1824667"><ele>34.0</ele><time>2026-05-04T12:59:21.402Z</time></trkpt><trkpt lat="41.1480483" lon="14.1825367"><ele>34.0</ele><time>2026-05-04T12:59:22.404Z</time></trkpt><trkpt lat="41.147965" lon="14.1826017"><ele>34.0</ele><time>2026-05-04T12:59:23.404Z</time></trkpt><trkpt lat="41.1478867" lon="14.18266"><ele>34.0</ele><time>2026-05-04T12:59:24.402Z</time></trkpt><trkpt lat="41.1478033" lon="14.182715"><ele>34.0</ele><time>2026-05-04T12:59:25.403Z</time></trkpt><trkpt lat="41.1477217" lon="14.1827767"><ele>34.0</ele><time>2026-05-04T12:59:26.401Z</time></trkpt><trkpt lat="41.1476367" lon="14.18284"><ele>34.0</ele><time>2026-05-04T12:59:27.403Z</time></trkpt><trkpt lat="41.1475517" lon="14.1829033"><ele>34.0</ele><time>2026-05-04T12:59:28.403Z</time></trkpt><trkpt lat="41.1474683" lon="14.1829617"><ele>34.0</ele><time>2026-05-04T12:59:29.403Z</time></trkpt><trkpt lat="41.1473867" lon="14.1830233"><ele>34.0</ele><time>2026-05-04T12:59:30.403Z</time></trkpt><trkpt lat="41.1473067" lon="14.1830917"><ele>34.0</ele><time>2026-05-04T12:59:31.403Z</time></trkpt><trkpt lat="41.1472233" lon="14.1831567"><ele>34.0</ele><time>2026-05-04T12:59:32.404Z</time></trkpt><trkpt lat="41.1471367" lon="14.1832217"><ele>34.0</ele><time>2026-05-04T12:59:33.402Z</time></trkpt><trkpt lat="41.1470517" lon="14.1832883"><ele>34.0</ele><time>2026-05-04T12:59:34.402Z</time></trkpt><trkpt lat="41.146965" lon="14.1833567"><ele>34.0</ele><time>2026-05-04T12:59:35.403Z</time></trkpt><trkpt lat="41.14688" lon="14.1834283"><ele>34.0</ele><time>2026-05-04T12:59:36.406Z</time></trkpt><trkpt lat="41.1467983" lon="14.1834967"><ele>34.0</ele><time>2026-05-04T12:59:37.402Z</time></trkpt><trkpt lat="41.14671" lon="14.18356"><ele>34.0</ele><time>2026-05-04T12:59:38.402Z</time></trkpt><trkpt lat="41.146625" lon="14.18363"><ele>33.8</ele><time>2026-05-04T12:59:39.403Z</time></trkpt><trkpt lat="41.1465367" lon="14.1836933"><ele>33.599999999999994</ele><time>2026-05-04T12:59:40.402Z</time></trkpt><trkpt lat="41.14645" lon="14.1837567"><ele>33.4</ele><time>2026-05-04T12:59:41.401Z</time></trkpt><trkpt lat="41.1463633" lon="14.18382"><ele>33.199999999999996</ele><time>2026-05-04T12:59:42.402Z</time></trkpt><trkpt lat="41.146275" lon="14.18389"><ele>33.0</ele><time>2026-05-04T12:59:43.403Z</time></trkpt><trkpt lat="41.1461867" lon="14.1839617"><ele>32.8</ele><time>2026-05-04T12:59:44.402Z</time></trkpt><trkpt lat="41.1460983" lon="14.1840283"><ele>32.599999999999994</ele><time>2026-05-04T12:59:45.404Z</time></trkpt><trkpt lat="41.14601" lon="14.1840933"><ele>32.400000000000006</ele><time>2026-05-04T12:59:46.404Z</time></trkpt><trkpt lat="41.1459217" lon="14.1841567"><ele>32.2</ele><time>2026-05-04T12:59:47.403Z</time></trkpt><trkpt lat="41.145835" lon="14.18422"><ele>32.0</ele><time>2026-05-04T12:59:48.403Z</time></trkpt><trkpt lat="41.14575" lon="14.1842883"><ele>32.0</ele><time>2026-05-04T12:59:49.403Z</time></trkpt><trkpt lat="41.145665" lon="14.184355"><ele>32.0</ele><time>2026-05-04T12:59:50.402Z</time></trkpt><trkpt lat="41.1455783" lon="14.1844217"><ele>32.0</ele><time>2026-05-04T12:59:51.403Z</time></trkpt><trkpt lat="41.1454917" lon="14.1844833"><ele>32.0</ele><time>2026-05-04T12:59:52.404Z</time></trkpt><trkpt lat="41.1454067" lon="14.1845533"><ele>32.0</ele><time>2026-05-04T12:59:53.402Z</time></trkpt><trkpt lat="41.1453233" lon="14.1846233"><ele>32.0</ele><time>2026-05-04T12:59:54.403Z</time></trkpt><trkpt lat="41.1452383" lon="14.184695"><ele>32.0</ele><time>2026-05-04T12:59:55.404Z</time></trkpt><trkpt lat="41.1451533" lon="14.18476"><ele>32.0</ele><time>2026-05-04T12:59:56.401Z</time></trkpt><trkpt lat="41.1450667" lon="14.1848217"><ele>32.0</ele><time>2026-05-04T12:59:57.403Z</time></trkpt><trkpt lat="41.1449833" lon="14.1848883"><ele>32.0</ele><time>2026-05-04T12:59:58.404Z</time></trkpt><trkpt lat="41.144895" lon="14.18495"><ele>32.2</ele><time>2026-05-04T12:59:59.402Z</time></trkpt><trkpt lat="41.144805" lon="14.1850117"><ele>32.400000000000006</ele><time>2026-05-04T13:00:00.402Z</time></trkpt><trkpt lat="41.1447167" lon="14.1850783"><ele>32.599999999999994</ele><time>2026-05-04T13:00:01.403Z</time></trkpt><trkpt lat="41.1446267" lon="14.1851467"><ele>32.8</ele><time>2026-05-04T13:00:02.403Z</time></trkpt><trkpt lat="41.1445333" lon="14.18521"><ele>33.0</ele><time>2026-05-04T13:00:03.403Z</time></trkpt><trkpt lat="41.1444417" lon="14.18527"><ele>33.0</ele><time>2026-05-04T13:00:04.403Z</time></trkpt><trkpt lat="41.1443583" lon="14.1853367"><ele>33.0</ele><time>2026-05-04T13:00:05.402Z</time></trkpt><trkpt lat="41.144275" lon="14.1854"><ele>33.0</ele><time>2026-05-04T13:00:06.402Z</time></trkpt><trkpt lat="41.14419" lon="14.1854617"><ele>33.0</ele><time>2026-05-04T13:00:07.402Z</time></trkpt><trkpt lat="41.1441083" lon="14.185525"><ele>33.0</ele><time>2026-05-04T13:00:08.402Z</time></trkpt><trkpt lat="41.1440317" lon="14.1855883"><ele>33.0</ele><time>2026-05-04T13:00:09.402Z</time></trkpt><trkpt lat="41.1439467" lon="14.1856467"><ele>33.0</ele><time>2026-05-04T13:00:10.403Z</time></trkpt><trkpt lat="41.143865" lon="14.1857117"><ele>33.0</ele><time>2026-05-04T13:00:11.402Z</time></trkpt><trkpt lat="41.1437883" lon="14.185775"><ele>33.0</ele><time>2026-05-04T13:00:12.402Z</time></trkpt><trkpt lat="41.143705" lon="14.185835"><ele>33.0</ele><time>2026-05-04T13:00:13.403Z</time></trkpt><trkpt lat="41.1436217" lon="14.1858933"><ele>33.0</ele><time>2026-05-04T13:00:14.403Z</time></trkpt><trkpt lat="41.1435433" lon="14.1859533"><ele>33.0</ele><time>2026-05-04T13:00:15.403Z</time></trkpt><trkpt lat="41.1434683" lon="14.1860133"><ele>33.0</ele><time>2026-05-04T13:00:16.402Z</time></trkpt><trkpt lat="41.1433917" lon="14.1860717"><ele>33.0</ele><time>2026-05-04T13:00:17.403Z</time></trkpt><trkpt lat="41.1433133" lon="14.1861333"><ele>33.0</ele><time>2026-05-04T13:00:18.402Z</time></trkpt><trkpt lat="41.143235" lon="14.1861933"><ele>33.0</ele><time>2026-05-04T13:00:19.403Z</time></trkpt><trkpt lat="41.14316" lon="14.1862483"><ele>32.833333333333336</ele><time>2026-05-04T13:00:20.403Z</time></trkpt><trkpt lat="41.143085" lon="14.18631"><ele>32.666666666666664</ele><time>2026-05-04T13:00:21.401Z</time></trkpt><trkpt lat="41.1430117" lon="14.186375"><ele>32.5</ele><time>2026-05-04T13:00:22.402Z</time></trkpt><trkpt lat="41.1429383" lon="14.1864417"><ele>32.33333333333333</ele><time>2026-05-04T13:00:23.402Z</time></trkpt><trkpt lat="41.142865" lon="14.186505"><ele>32.166666666666664</ele><time>2026-05-04T13:00:24.403Z</time></trkpt><trkpt lat="41.1427933" lon="14.1865583"><ele>32.0</ele><time>2026-05-04T13:00:25.403Z</time></trkpt><trkpt lat="41.1427167" lon="14.1866233"><ele>31.666666666666664</ele><time>2026-05-04T13:00:26.405Z</time></trkpt><trkpt lat="41.1426417" lon="14.186685"><ele>31.333333333333332</ele><time>2026-05-04T13:00:27.401Z</time></trkpt><trkpt lat="41.1425683" lon="14.186745"><ele>31.0</ele><time>2026-05-04T13:00:28.405Z</time></trkpt><trkpt lat="41.1424917" lon="14.1868033"><ele>30.666666666666664</ele><time>2026-05-04T13:00:29.402Z</time></trkpt><trkpt lat="41.1424183" lon="14.1868633"><ele>30.333333333333332</ele><time>2026-05-04T13:00:30.401Z</time></trkpt><trkpt lat="41.1423417" lon="14.1869233"><ele>30.0</ele><time>2026-05-04T13:00:31.402Z</time></trkpt><trkpt lat="41.1422683" lon="14.1869833"><ele>30.0</ele><time>2026-05-04T13:00:32.402Z</time></trkpt><trkpt lat="41.142195" lon="14.1870483"><ele>30.0</ele><time>2026-05-04T13:00:33.403Z</time></trkpt><trkpt lat="41.1421167" lon="14.1871083"><ele>30.0</ele><time>2026-05-04T13:00:34.402Z</time></trkpt><trkpt lat="41.14204" lon="14.1871667"><ele>30.0</ele><time>2026-05-04T13:00:35.403Z</time></trkpt><trkpt lat="41.1419633" lon="14.18723"><ele>30.0</ele><time>2026-05-04T13:00:36.402Z</time></trkpt><trkpt lat="41.14188" lon="14.1872933"><ele>30.0</ele><time>2026-05-04T13:00:37.403Z</time></trkpt><trkpt lat="41.1417933" lon="14.1873633"><ele>30.0</ele><time>2026-05-04T13:00:38.403Z</time></trkpt><trkpt lat="41.1417117" lon="14.1874267"><ele>30.0</ele><time>2026-05-04T13:00:39.401Z</time></trkpt><trkpt lat="41.14163" lon="14.187495"><ele>30.0</ele><time>2026-05-04T13:00:40.402Z</time></trkpt><trkpt lat="41.1415533" lon="14.1875633"><ele>30.0</ele><time>2026-05-04T13:00:41.403Z</time></trkpt><trkpt lat="41.141475" lon="14.1876283"><ele>30.4</ele><time>2026-05-04T13:00:42.402Z</time></trkpt><trkpt lat="41.1413967" lon="14.187685"><ele>30.8</ele><time>2026-05-04T13:00:43.403Z</time></trkpt><trkpt lat="41.1413183" lon="14.187755"><ele>31.200000000000003</ele><time>2026-05-04T13:00:44.402Z</time></trkpt><trkpt lat="41.1412367" lon="14.1878283"><ele>31.6</ele><time>2026-05-04T13:00:45.402Z</time></trkpt><trkpt lat="41.141155" lon="14.1879017"><ele>32.0</ele><time>2026-05-04T13:00:46.404Z</time></trkpt><trkpt lat="41.14107" lon="14.18797"><ele>32.0</ele><time>2026-05-04T13:00:47.403Z</time></trkpt><trkpt lat="41.1409833" lon="14.188035"><ele>32.0</ele><time>2026-05-04T13:00:48.402Z</time></trkpt><trkpt lat="41.1408933" lon="14.1881"><ele>32.0</ele><time>2026-05-04T13:00:49.402Z</time></trkpt><trkpt lat="41.1408067" lon="14.188165"><ele>32.0</ele><time>2026-05-04T13:00:50.402Z</time></trkpt><trkpt lat="41.14072" lon="14.1882283"><ele>32.0</ele><time>2026-05-04T13:00:51.402Z</time></trkpt><trkpt lat="41.1406333" lon="14.1882967"><ele>31.6</ele><time>2026-05-04T13:00:52.402Z</time></trkpt><trkpt lat="41.1405467" lon="14.188365"><ele>31.200000000000003</ele><time>2026-05-04T13:00:53.403Z</time></trkpt><trkpt lat="41.14046" lon="14.188435"><ele>30.8</ele><time>2026-05-04T13:00:54.402Z</time></trkpt><trkpt lat="41.1403733" lon="14.188505"><ele>30.4</ele><time>2026-05-04T13:00:55.403Z</time></trkpt><trkpt lat="41.1402867" lon="14.1885717"><ele>30.0</ele><time>2026-05-04T13:00:56.402Z</time></trkpt><trkpt lat="41.1401983" lon="14.1886367"><ele>30.0</ele><time>2026-05-04T13:00:57.401Z</time></trkpt><trkpt lat="41.1401117" lon="14.1887083"><ele>30.0</ele><time>2026-05-04T13:00:58.404Z</time></trkpt><trkpt lat="41.1400267" lon="14.18878"><ele>30.0</ele><time>2026-05-04T13:00:59.403Z</time></trkpt><trkpt lat="41.13994" lon="14.1888533"><ele>30.0</ele><time>2026-05-04T13:01:00.403Z</time></trkpt><trkpt lat="41.1398517" lon="14.1889283"><ele>30.0</ele><time>2026-05-04T13:01:01.402Z</time></trkpt><trkpt lat="41.1397633" lon="14.1889933"><ele>29.2</ele><time>2026-05-04T13:01:02.403Z</time></trkpt><trkpt lat="41.1396733" lon="14.1890633"><ele>28.4</ele><time>2026-05-04T13:01:03.403Z</time></trkpt><trkpt lat="41.1395867" lon="14.189135"><ele>27.6</ele><time>2026-05-04T13:01:04.405Z</time></trkpt><trkpt lat="41.139495" lon="14.1892033"><ele>26.8</ele><time>2026-05-04T13:01:05.403Z</time></trkpt><trkpt lat="41.139405" lon="14.1892733"><ele>26.0</ele><time>2026-05-04T13:01:06.402Z</time></trkpt><trkpt lat="41.1393167" lon="14.1893417"><ele>26.0</ele><time>2026-05-04T13:01:07.402Z</time></trkpt><trkpt lat="41.1392317" lon="14.1894083"><ele>26.0</ele><time>2026-05-04T13:01:08.403Z</time></trkpt><trkpt lat="41.1391467" lon="14.1894783"><ele>26.0</ele><time>2026-05-04T13:01:09.402Z</time></trkpt><trkpt lat="41.1390633" lon="14.1895467"><ele>26.0</ele><time>2026-05-04T13:01:10.403Z</time></trkpt><trkpt lat="41.1389783" lon="14.189615"><ele>26.0</ele><time>2026-05-04T13:01:11.404Z</time></trkpt><trkpt lat="41.1388933" lon="14.1896817"><ele>26.0</ele><time>2026-05-04T13:01:12.402Z</time></trkpt><trkpt lat="41.1388067" lon="14.1897533"><ele>26.0</ele><time>2026-05-04T13:01:13.402Z</time></trkpt><trkpt lat="41.1387167" lon="14.1898267"><ele>26.0</ele><time>2026-05-04T13:01:14.401Z</time></trkpt><trkpt lat="41.1386267" lon="14.1899017"><ele>26.0</ele><time>2026-05-04T13:01:15.401Z</time></trkpt><trkpt lat="41.1385383" lon="14.1899683"><ele>26.0</ele><time>2026-05-04T13:01:16.403Z</time></trkpt><trkpt lat="41.13845" lon="14.1900367"><ele>26.0</ele><time>2026-05-04T13:01:17.402Z</time></trkpt><trkpt lat="41.1383633" lon="14.190105"><ele>26.0</ele><time>2026-05-04T13:01:18.403Z</time></trkpt><trkpt lat="41.1382733" lon="14.1901783"><ele>26.0</ele><time>2026-05-04T13:01:19.403Z</time></trkpt><trkpt lat="41.138185" lon="14.1902467"><ele>26.0</ele><time>2026-05-04T13:01:20.402Z</time></trkpt><trkpt lat="41.1380983" lon="14.190315"><ele>26.0</ele><time>2026-05-04T13:01:21.402Z</time></trkpt><trkpt lat="41.1380117" lon="14.1903817"><ele>26.200000000000003</ele><time>2026-05-04T13:01:22.403Z</time></trkpt><trkpt lat="41.1379233" lon="14.1904483"><ele>26.400000000000002</ele><time>2026-05-04T13:01:23.402Z</time></trkpt><trkpt lat="41.1378367" lon="14.190515"><ele>26.6</ele><time>2026-05-04T13:01:24.402Z</time></trkpt><trkpt lat="41.1377517" lon="14.190575"><ele>26.8</ele><time>2026-05-04T13:01:25.404Z</time></trkpt><trkpt lat="41.13767" lon="14.1906383"><ele>27.0</ele><time>2026-05-04T13:01:26.404Z</time></trkpt><trkpt lat="41.1375883" lon="14.190705"><ele>27.0</ele><time>2026-05-04T13:01:27.403Z</time></trkpt><trkpt lat="41.1375083" lon="14.1907717"><ele>27.000000000000004</ele><time>2026-05-04T13:01:28.403Z</time></trkpt><trkpt lat="41.137425" lon="14.19084"><ele>27.000000000000004</ele><time>2026-05-04T13:01:29.403Z</time></trkpt><trkpt lat="41.1373417" lon="14.1909083"><ele>27.0</ele><time>2026-05-04T13:01:30.403Z</time></trkpt><trkpt lat="41.1372583" lon="14.1909733"><ele>27.0</ele><time>2026-05-04T13:01:31.404Z</time></trkpt><trkpt lat="41.1371767" lon="14.1910367"><ele>26.8</ele><time>2026-05-04T13:01:32.402Z</time></trkpt><trkpt lat="41.1370933" lon="14.191095"><ele>26.6</ele><time>2026-05-04T13:01:33.404Z</time></trkpt><trkpt lat="41.1370133" lon="14.1911567"><ele>26.400000000000002</ele><time>2026-05-04T13:01:34.403Z</time></trkpt><trkpt lat="41.1369317" lon="14.19122"><ele>26.200000000000003</ele><time>2026-05-04T13:01:35.402Z</time></trkpt><trkpt lat="41.1368517" lon="14.1912817"><ele>26.0</ele><time>2026-05-04T13:01:36.403Z</time></trkpt><trkpt lat="41.1367733" lon="14.1913433"><ele>25.999999999999996</ele><time>2026-05-04T13:01:37.403Z</time></trkpt><trkpt lat="41.1366983" lon="14.1914067"><ele>26.0</ele><time>2026-05-04T13:01:38.402Z</time></trkpt><trkpt lat="41.1366233" lon="14.1914733"><ele>26.0</ele><time>2026-05-04T13:01:39.403Z</time></trkpt><trkpt lat="41.1365483" lon="14.19153"><ele>26.0</ele><time>2026-05-04T13:01:40.403Z</time></trkpt><trkpt lat="41.1364717" lon="14.1915867"><ele>25.999999999999996</ele><time>2026-05-04T13:01:41.403Z</time></trkpt><trkpt lat="41.1363967" lon="14.1916433"><ele>26.0</ele><time>2026-05-04T13:01:42.403Z</time></trkpt><trkpt lat="41.1363217" lon="14.191695"><ele>25.999999999999996</ele><time>2026-05-04T13:01:43.402Z</time></trkpt><trkpt lat="41.1362483" lon="14.1917583"><ele>26.0</ele><time>2026-05-04T13:01:44.403Z</time></trkpt><trkpt lat="41.1361733" lon="14.1918183"><ele>26.0</ele><time>2026-05-04T13:01:45.404Z</time></trkpt><trkpt lat="41.1360933" lon="14.1918767"><ele>26.0</ele><time>2026-05-04T13:01:46.403Z</time></trkpt><trkpt lat="41.1360167" lon="14.1919383"><ele>25.999999999999996</ele><time>2026-05-04T13:01:47.403Z</time></trkpt><trkpt lat="41.1359383" lon="14.1919983"><ele>26.0</ele><time>2026-05-04T13:01:48.403Z</time></trkpt><trkpt lat="41.1358617" lon="14.19206"><ele>26.0</ele><time>2026-05-04T13:01:49.403Z</time></trkpt><trkpt lat="41.135785" lon="14.1921217"><ele>26.0</ele><time>2026-05-04T13:01:50.403Z</time></trkpt><trkpt lat="41.1357067" lon="14.1921817"><ele>26.0</ele><time>2026-05-04T13:01:51.402Z</time></trkpt><trkpt lat="41.1356283" lon="14.1922417"><ele>26.0</ele><time>2026-05-04T13:01:52.403Z</time></trkpt><trkpt lat="41.13555" lon="14.1923033"><ele>26.0</ele><time>2026-05-04T13:01:53.402Z</time></trkpt><trkpt lat="41.1354717" lon="14.1923667"><ele>26.0</ele><time>2026-05-04T13:01:54.402Z</time></trkpt><trkpt lat="41.13539" lon="14.1924283"><ele>26.0</ele><time>2026-05-04T13:01:55.403Z</time></trkpt><trkpt lat="41.13531" lon="14.1924883"><ele>26.0</ele><time>2026-05-04T13:01:56.402Z</time></trkpt><trkpt lat="41.13523" lon="14.1925517"><ele>26.0</ele><time>2026-05-04T13:01:57.402Z</time></trkpt><trkpt lat="41.1351483" lon="14.1926133"><ele>26.0</ele><time>2026-05-04T13:01:58.403Z</time></trkpt><trkpt lat="41.1350667" lon="14.1926817"><ele>26.0</ele><time>2026-05-04T13:01:59.402Z</time></trkpt><trkpt lat="41.1349833" lon="14.1927483"><ele>26.0</ele><time>2026-05-04T13:02:00.403Z</time></trkpt><trkpt lat="41.1349017" lon="14.1928167"><ele>26.0</ele><time>2026-05-04T13:02:01.403Z</time></trkpt><trkpt lat="41.1348217" lon="14.192885"><ele>26.0</ele><time>2026-05-04T13:02:02.403Z</time></trkpt><trkpt lat="41.1347383" lon="14.1929483"><ele>26.0</ele><time>2026-05-04T13:02:03.402Z</time></trkpt><trkpt lat="41.1346583" lon="14.1930133"><ele>25.8</ele><time>2026-05-04T13:02:04.403Z</time></trkpt><trkpt lat="41.134575" lon="14.19308"><ele>25.6</ele><time>2026-05-04T13:02:05.402Z</time></trkpt><trkpt lat="41.134495" lon="14.1931433"><ele>25.4</ele><time>2026-05-04T13:02:06.403Z</time></trkpt><trkpt lat="41.1344133" lon="14.1932033"><ele>25.2</ele><time>2026-05-04T13:02:07.403Z</time></trkpt><trkpt lat="41.1343267" lon="14.1932567"><ele>25.0</ele><time>2026-05-04T13:02:08.402Z</time></trkpt><trkpt lat="41.1342417" lon="14.1933133"><ele>25.0</ele><time>2026-05-04T13:02:09.401Z</time></trkpt><trkpt lat="41.1341583" lon="14.1933767"><ele>25.0</ele><time>2026-05-04T13:02:10.403Z</time></trkpt><trkpt lat="41.134075" lon="14.1934367"><ele>25.0</ele><time>2026-05-04T13:02:11.403Z</time></trkpt><trkpt lat="41.1339917" lon="14.1934983"><ele>25.0</ele><time>2026-05-04T13:02:12.403Z</time></trkpt><trkpt lat="41.1339067" lon="14.1935617"><ele>25.0</ele><time>2026-05-04T13:02:13.402Z</time></trkpt><trkpt lat="41.1338267" lon="14.19363"><ele>25.0</ele><time>2026-05-04T13:02:14.401Z</time></trkpt><trkpt lat="41.1337467" lon="14.19369"><ele>25.0</ele><time>2026-05-04T13:02:15.402Z</time></trkpt><trkpt lat="41.133665" lon="14.1937433"><ele>25.0</ele><time>2026-05-04T13:02:16.403Z</time></trkpt><trkpt lat="41.13358" lon="14.1937983"><ele>25.0</ele><time>2026-05-04T13:02:17.403Z</time></trkpt><trkpt lat="41.1334983" lon="14.1938583"><ele>25.0</ele><time>2026-05-04T13:02:18.403Z</time></trkpt><trkpt lat="41.1334167" lon="14.193925"><ele>25.0</ele><time>2026-05-04T13:02:19.403Z</time></trkpt><trkpt lat="41.133335" lon="14.1939867"><ele>25.0</ele><time>2026-05-04T13:02:20.403Z</time></trkpt><trkpt lat="41.1332533" lon="14.19405"><ele>25.0</ele><time>2026-05-04T13:02:21.402Z</time></trkpt><trkpt lat="41.13317" lon="14.1941167"><ele>25.0</ele><time>2026-05-04T13:02:22.402Z</time></trkpt><trkpt lat="41.1330867" lon="14.194185"><ele>25.0</ele><time>2026-05-04T13:02:23.403Z</time></trkpt><trkpt lat="41.1330017" lon="14.19426"><ele>24.6</ele><time>2026-05-04T13:02:24.403Z</time></trkpt><trkpt lat="41.1329217" lon="14.19433"><ele>24.2</ele><time>2026-05-04T13:02:25.403Z</time></trkpt><trkpt lat="41.1328367" lon="14.1944"><ele>23.799999999999997</ele><time>2026-05-04T13:02:26.403Z</time></trkpt><trkpt lat="41.1327517" lon="14.1944633"><ele>23.4</ele><time>2026-05-04T13:02:27.403Z</time></trkpt><trkpt lat="41.1326667" lon="14.194525"><ele>23.0</ele><time>2026-05-04T13:02:28.403Z</time></trkpt><trkpt lat="41.1325767" lon="14.194595"><ele>23.0</ele><time>2026-05-04T13:02:29.404Z</time></trkpt><trkpt lat="41.1324917" lon="14.1946617"><ele>23.0</ele><time>2026-05-04T13:02:30.404Z</time></trkpt><trkpt lat="41.132405" lon="14.1947267"><ele>23.0</ele><time>2026-05-04T13:02:31.403Z</time></trkpt><trkpt lat="41.1323217" lon="14.1947917"><ele>23.0</ele><time>2026-05-04T13:02:32.404Z</time></trkpt><trkpt lat="41.132235" lon="14.1948567"><ele>23.0</ele><time>2026-05-04T13:02:33.402Z</time></trkpt><trkpt lat="41.1321483" lon="14.1949217"><ele>23.0</ele><time>2026-05-04T13:02:34.403Z</time></trkpt><trkpt lat="41.1320633" lon="14.1949933"><ele>23.0</ele><time>2026-05-04T13:02:35.403Z</time></trkpt><trkpt lat="41.1319783" lon="14.1950633"><ele>23.0</ele><time>2026-05-04T13:02:36.403Z</time></trkpt><trkpt lat="41.1318933" lon="14.1951267"><ele>23.0</ele><time>2026-05-04T13:02:37.403Z</time></trkpt><trkpt lat="41.131805" lon="14.1951967"><ele>23.0</ele><time>2026-05-04T13:02:38.404Z</time></trkpt><trkpt lat="41.1317167" lon="14.195265"><ele>23.0</ele><time>2026-05-04T13:02:39.403Z</time></trkpt><trkpt lat="41.1316283" lon="14.19534"><ele>23.0</ele><time>2026-05-04T13:02:40.404Z</time></trkpt><trkpt lat="41.131545" lon="14.1954183"><ele>23.0</ele><time>2026-05-04T13:02:41.403Z</time></trkpt><trkpt lat="41.1314583" lon="14.1954983"><ele>23.0</ele><time>2026-05-04T13:02:42.402Z</time></trkpt><trkpt lat="41.1313683" lon="14.195575"><ele>23.0</ele><time>2026-05-04T13:02:43.402Z</time></trkpt><trkpt lat="41.131275" lon="14.19565"><ele>23.2</ele><time>2026-05-04T13:02:44.403Z</time></trkpt><trkpt lat="41.131185" lon="14.1957183"><ele>23.4</ele><time>2026-05-04T13:02:45.403Z</time></trkpt><trkpt lat="41.1310933" lon="14.195785"><ele>23.599999999999998</ele><time>2026-05-04T13:02:46.403Z</time></trkpt><trkpt lat="41.1310083" lon="14.195855"><ele>23.799999999999997</ele><time>2026-05-04T13:02:47.403Z</time></trkpt><trkpt lat="41.1309267" lon="14.1959233"><ele>24.0</ele><time>2026-05-04T13:02:48.402Z</time></trkpt><trkpt lat="41.130845" lon="14.1959867"><ele>24.0</ele><time>2026-05-04T13:02:49.403Z</time></trkpt><trkpt lat="41.1307633" lon="14.1960467"><ele>24.0</ele><time>2026-05-04T13:02:50.402Z</time></trkpt><trkpt lat="41.1306783" lon="14.1961017"><ele>24.0</ele><time>2026-05-04T13:02:51.403Z</time></trkpt><trkpt lat="41.1306017" lon="14.19616"><ele>24.0</ele><time>2026-05-04T13:02:52.403Z</time></trkpt><trkpt lat="41.1305267" lon="14.1962183"><ele>24.0</ele><time>2026-05-04T13:02:53.403Z</time></trkpt><trkpt lat="41.1304533" lon="14.196275"><ele>24.0</ele><time>2026-05-04T13:02:54.404Z</time></trkpt><trkpt lat="41.130375" lon="14.1963283"><ele>23.799999999999997</ele><time>2026-05-04T13:02:55.404Z</time></trkpt><trkpt lat="41.130295" lon="14.196375"><ele>23.599999999999998</ele><time>2026-05-04T13:02:56.404Z</time></trkpt><trkpt lat="41.1302133" lon="14.196415"><ele>23.4</ele><time>2026-05-04T13:02:57.403Z</time></trkpt><trkpt lat="41.1301217" lon="14.19644"><ele>23.2</ele><time>2026-05-04T13:02:58.402Z</time></trkpt><trkpt lat="41.13003" lon="14.1964667"><ele>23.0</ele><time>2026-05-04T13:02:59.403Z</time></trkpt><trkpt lat="41.12994" lon="14.1964883"><ele>23.0</ele><time>2026-05-04T13:03:00.403Z</time></trkpt><trkpt lat="41.1298483" lon="14.1965"><ele>23.0</ele><time>2026-05-04T13:03:01.404Z</time></trkpt><trkpt lat="41.12976" lon="14.1965133"><ele>23.0</ele><time>2026-05-04T13:03:02.403Z</time></trkpt><trkpt lat="41.1296733" lon="14.1965283"><ele>23.0</ele><time>2026-05-04T13:03:03.402Z</time></trkpt><trkpt lat="41.1295867" lon="14.19655"><ele>23.0</ele><time>2026-05-04T13:03:04.403Z</time></trkpt><trkpt lat="41.1295033" lon="14.1965667"><ele>23.0</ele><time>2026-05-04T13:03:05.402Z</time></trkpt><trkpt lat="41.1294183" lon="14.1965883"><ele>23.0</ele><time>2026-05-04T13:03:06.403Z</time></trkpt><trkpt lat="41.1293333" lon="14.196605"><ele>23.0</ele><time>2026-05-04T13:03:07.403Z</time></trkpt><trkpt lat="41.1292517" lon="14.196625"><ele>23.0</ele><time>2026-05-04T13:03:08.404Z</time></trkpt><trkpt lat="41.1291717" lon="14.19664"><ele>23.0</ele><time>2026-05-04T13:03:09.403Z</time></trkpt><trkpt lat="41.1290917" lon="14.196655"><ele>23.0</ele><time>2026-05-04T13:03:10.402Z</time></trkpt><trkpt lat="41.129015" lon="14.1966717"><ele>23.0</ele><time>2026-05-04T13:03:11.403Z</time></trkpt><trkpt lat="41.1289383" lon="14.1966883"><ele>23.166666666666668</ele><time>2026-05-04T13:03:12.403Z</time></trkpt><trkpt lat="41.1288633" lon="14.1967117"><ele>23.333333333333336</ele><time>2026-05-04T13:03:13.405Z</time></trkpt><trkpt lat="41.1287883" lon="14.1967333"><ele>23.5</ele><time>2026-05-04T13:03:14.402Z</time></trkpt><trkpt lat="41.1287117" lon="14.19676"><ele>23.666666666666668</ele><time>2026-05-04T13:03:15.403Z</time></trkpt><trkpt lat="41.1286367" lon="14.196785"><ele>23.833333333333332</ele><time>2026-05-04T13:03:16.402Z</time></trkpt><trkpt lat="41.1285617" lon="14.1968083"><ele>24.0</ele><time>2026-05-04T13:03:17.403Z</time></trkpt><trkpt lat="41.128485" lon="14.196825"><ele>24.0</ele><time>2026-05-04T13:03:18.402Z</time></trkpt><trkpt lat="41.12841" lon="14.1968433"><ele>24.0</ele><time>2026-05-04T13:03:19.403Z</time></trkpt><trkpt lat="41.1283367" lon="14.196865"><ele>24.0</ele><time>2026-05-04T13:03:20.403Z</time></trkpt><trkpt lat="41.1282617" lon="14.196885"><ele>24.0</ele><time>2026-05-04T13:03:21.402Z</time></trkpt><trkpt lat="41.12819" lon="14.19691"><ele>24.0</ele><time>2026-05-04T13:03:22.403Z</time></trkpt><trkpt lat="41.1281133" lon="14.19693"><ele>24.0</ele><time>2026-05-04T13:03:23.404Z</time></trkpt><trkpt lat="41.128035" lon="14.1969483"><ele>24.0</ele><time>2026-05-04T13:03:24.403Z</time></trkpt><trkpt lat="41.1279583" lon="14.1969633"><ele>24.0</ele><time>2026-05-04T13:03:25.403Z</time></trkpt><trkpt lat="41.1278833" lon="14.1969817"><ele>24.0</ele><time>2026-05-04T13:03:26.403Z</time></trkpt><trkpt lat="41.12781" lon="14.1970033"><ele>24.0</ele><time>2026-05-04T13:03:27.402Z</time></trkpt><trkpt lat="41.127735" lon="14.1970217"><ele>24.0</ele><time>2026-05-04T13:03:28.404Z</time></trkpt><trkpt lat="41.1276583" lon="14.1970383"><ele>24.0</ele><time>2026-05-04T13:03:29.402Z</time></trkpt><trkpt lat="41.1275833" lon="14.197055"><ele>24.0</ele><time>2026-05-04T13:03:30.403Z</time></trkpt><trkpt lat="41.1275083" lon="14.1970717"><ele>24.0</ele><time>2026-05-04T13:03:31.403Z</time></trkpt><trkpt lat="41.12743" lon="14.1970917"><ele>24.0</ele><time>2026-05-04T13:03:32.404Z</time></trkpt><trkpt lat="41.12735" lon="14.1971067"><ele>24.0</ele><time>2026-05-04T13:03:33.404Z</time></trkpt><trkpt lat="41.1272717" lon="14.1971233"><ele>24.0</ele><time>2026-05-04T13:03:34.402Z</time></trkpt><trkpt lat="41.1271933" lon="14.197145"><ele>24.0</ele><time>2026-05-04T13:03:35.403Z</time></trkpt><trkpt lat="41.1271167" lon="14.1971683"><ele>24.0</ele><time>2026-05-04T13:03:36.403Z</time></trkpt><trkpt lat="41.1270433" lon="14.197185"><ele>24.0</ele><time>2026-05-04T13:03:37.403Z</time></trkpt><trkpt lat="41.1269667" lon="14.1971983"><ele>24.0</ele><time>2026-05-04T13:03:38.402Z</time></trkpt><trkpt lat="41.126885" lon="14.1972167"><ele>24.0</ele><time>2026-05-04T13:03:39.402Z</time></trkpt><trkpt lat="41.1268083" lon="14.1972317"><ele>24.0</ele><time>2026-05-04T13:03:40.402Z</time></trkpt><trkpt lat="41.1267267" lon="14.1972467"><ele>24.0</ele><time>2026-05-04T13:03:41.402Z</time></trkpt><trkpt lat="41.1266483" lon="14.1972633"><ele>24.0</ele><time>2026-05-04T13:03:42.403Z</time></trkpt><trkpt lat="41.12657" lon="14.1972767"><ele>24.0</ele><time>2026-05-04T13:03:43.402Z</time></trkpt><trkpt lat="41.1264917" lon="14.1972883"><ele>24.0</ele><time>2026-05-04T13:03:44.403Z</time></trkpt><trkpt lat="41.1264133" lon="14.1973067"><ele>24.0</ele><time>2026-05-04T13:03:45.402Z</time></trkpt><trkpt lat="41.1263367" lon="14.19732"><ele>24.0</ele><time>2026-05-04T13:03:46.402Z</time></trkpt><trkpt lat="41.12626" lon="14.19734"><ele>24.0</ele><time>2026-05-04T13:03:47.403Z</time></trkpt><trkpt lat="41.1261833" lon="14.1973667"><ele>24.166666666666668</ele><time>2026-05-04T13:03:48.401Z</time></trkpt><trkpt lat="41.1261117" lon="14.1974033"><ele>24.333333333333336</ele><time>2026-05-04T13:03:49.401Z</time></trkpt><trkpt lat="41.12603" lon="14.1974217"><ele>24.5</ele><time>2026-05-04T13:03:50.402Z</time></trkpt><trkpt lat="41.12595" lon="14.1974367"><ele>24.666666666666668</ele><time>2026-05-04T13:03:51.402Z</time></trkpt><trkpt lat="41.125865" lon="14.1974533"><ele>24.833333333333336</ele><time>2026-05-04T13:03:52.402Z</time></trkpt><trkpt lat="41.1257833" lon="14.1974733"><ele>25.0</ele><time>2026-05-04T13:03:53.402Z</time></trkpt><trkpt lat="41.1257" lon="14.197495"><ele>25.166666666666668</ele><time>2026-05-04T13:03:54.402Z</time></trkpt><trkpt lat="41.12562" lon="14.197525"><ele>25.333333333333336</ele><time>2026-05-04T13:03:55.402Z</time></trkpt><trkpt lat="41.1255433" lon="14.1975567"><ele>25.5</ele><time>2026-05-04T13:03:56.402Z</time></trkpt><trkpt lat="41.1254717" lon="14.1975917"><ele>25.666666666666664</ele><time>2026-05-04T13:03:57.402Z</time></trkpt><trkpt lat="41.1254033" lon="14.1976317"><ele>25.833333333333332</ele><time>2026-05-04T13:03:58.402Z</time></trkpt><trkpt lat="41.1253333" lon="14.1976717"><ele>26.0</ele><time>2026-05-04T13:03:59.402Z</time></trkpt><trkpt lat="41.1252617" lon="14.1977117"><ele>25.999999999999996</ele><time>2026-05-04T13:04:00.402Z</time></trkpt><trkpt lat="41.1251917" lon="14.1977567"><ele>26.0</ele><time>2026-05-04T13:04:01.402Z</time></trkpt><trkpt lat="41.1251217" lon="14.1977983"><ele>26.0</ele><time>2026-05-04T13:04:02.402Z</time></trkpt><trkpt lat="41.125045" lon="14.1978333"><ele>26.0</ele><time>2026-05-04T13:04:03.402Z</time></trkpt><trkpt lat="41.1249717" lon="14.1978783"><ele>25.999999999999996</ele><time>2026-05-04T13:04:04.402Z</time></trkpt><trkpt lat="41.1249" lon="14.19793"><ele>26.0</ele><time>2026-05-04T13:04:05.403Z</time></trkpt><trkpt lat="41.12483" lon="14.197975"><ele>25.833333333333332</ele><time>2026-05-04T13:04:06.401Z</time></trkpt><trkpt lat="41.1247633" lon="14.1980133"><ele>25.666666666666664</ele><time>2026-05-04T13:04:07.402Z</time></trkpt><trkpt lat="41.124695" lon="14.1980517"><ele>25.5</ele><time>2026-05-04T13:04:08.402Z</time></trkpt><trkpt lat="41.124625" lon="14.1980917"><ele>25.333333333333336</ele><time>2026-05-04T13:04:09.404Z</time></trkpt><trkpt lat="41.1245567" lon="14.1981333"><ele>25.166666666666668</ele><time>2026-05-04T13:04:10.403Z</time></trkpt><trkpt lat="41.1244867" lon="14.198175"><ele>25.0</ele><time>2026-05-04T13:04:11.402Z</time></trkpt><trkpt lat="41.1244167" lon="14.1982167"><ele>25.000000000000004</ele><time>2026-05-04T13:04:12.402Z</time></trkpt><trkpt lat="41.1243467" lon="14.1982633"><ele>25.0</ele><time>2026-05-04T13:04:13.402Z</time></trkpt><trkpt lat="41.1242767" lon="14.1983117"><ele>25.0</ele><time>2026-05-04T13:04:14.401Z</time></trkpt><trkpt lat="41.124205" lon="14.1983617"><ele>25.0</ele><time>2026-05-04T13:04:15.404Z</time></trkpt><trkpt lat="41.1241333" lon="14.1984133"><ele>25.000000000000004</ele><time>2026-05-04T13:04:16.403Z</time></trkpt><trkpt lat="41.12406" lon="14.1984583"><ele>25.0</ele><time>2026-05-04T13:04:17.402Z</time></trkpt><trkpt lat="41.123985" lon="14.1985017"><ele>24.666666666666668</ele><time>2026-05-04T13:04:18.402Z</time></trkpt><trkpt lat="41.1239117" lon="14.1985517"><ele>24.333333333333336</ele><time>2026-05-04T13:04:19.402Z</time></trkpt><trkpt lat="41.123835" lon="14.198605"><ele>24.0</ele><time>2026-05-04T13:04:20.402Z</time></trkpt><trkpt lat="41.1237583" lon="14.1986617"><ele>23.666666666666668</ele><time>2026-05-04T13:04:21.402Z</time></trkpt><trkpt lat="41.1236817" lon="14.19872"><ele>23.333333333333336</ele><time>2026-05-04T13:04:22.402Z</time></trkpt><trkpt lat="41.1236033" lon="14.1987783"><ele>23.0</ele><time>2026-05-04T13:04:23.402Z</time></trkpt><trkpt lat="41.123525" lon="14.1988333"><ele>23.0</ele><time>2026-05-04T13:04:24.403Z</time></trkpt><trkpt lat="41.1234483" lon="14.1988833"><ele>23.0</ele><time>2026-05-04T13:04:25.402Z</time></trkpt><trkpt lat="41.12337" lon="14.198935"><ele>23.0</ele><time>2026-05-04T13:04:26.401Z</time></trkpt><trkpt lat="41.1232833" lon="14.1989833"><ele>23.0</ele><time>2026-05-04T13:04:27.4Z</time></trkpt><trkpt lat="41.1231933" lon="14.1990317"><ele>23.0</ele><time>2026-05-04T13:04:28.402Z</time></trkpt><trkpt lat="41.1231067" lon="14.1990833"><ele>23.2</ele><time>2026-05-04T13:04:29.402Z</time></trkpt><trkpt lat="41.1230217" lon="14.19913"><ele>23.4</ele><time>2026-05-04T13:04:30.402Z</time></trkpt><trkpt lat="41.1229367" lon="14.1991717"><ele>23.599999999999998</ele><time>2026-05-04T13:04:31.402Z</time></trkpt><trkpt lat="41.12285" lon="14.199215"><ele>23.799999999999997</ele><time>2026-05-04T13:04:32.402Z</time></trkpt><trkpt lat="41.1227633" lon="14.19926"><ele>24.0</ele><time>2026-05-04T13:04:33.401Z</time></trkpt><trkpt lat="41.1226817" lon="14.199315"><ele>24.0</ele><time>2026-05-04T13:04:34.402Z</time></trkpt><trkpt lat="41.1225983" lon="14.199365"><ele>24.0</ele><time>2026-05-04T13:04:35.401Z</time></trkpt><trkpt lat="41.122515" lon="14.1994133"><ele>24.0</ele><time>2026-05-04T13:04:36.402Z</time></trkpt><trkpt lat="41.1224267" lon="14.199455"><ele>24.0</ele><time>2026-05-04T13:04:37.402Z</time></trkpt><trkpt lat="41.1223367" lon="14.1995033"><ele>24.0</ele><time>2026-05-04T13:04:38.402Z</time></trkpt><trkpt lat="41.12225" lon="14.19955"><ele>23.6</ele><time>2026-05-04T13:04:39.402Z</time></trkpt><trkpt lat="41.122165" lon="14.1995917"><ele>23.2</ele><time>2026-05-04T13:04:40.402Z</time></trkpt><trkpt lat="41.1220783" lon="14.1996383"><ele>22.8</ele><time>2026-05-04T13:04:41.402Z</time></trkpt><trkpt lat="41.1219917" lon="14.199685"><ele>22.400000000000002</ele><time>2026-05-04T13:04:42.402Z</time></trkpt><trkpt lat="41.1219017" lon="14.199735"><ele>22.0</ele><time>2026-05-04T13:04:43.403Z</time></trkpt><trkpt lat="41.1218117" lon="14.19978"><ele>22.0</ele><time>2026-05-04T13:04:44.402Z</time></trkpt><trkpt lat="41.121725" lon="14.199825"><ele>22.0</ele><time>2026-05-04T13:04:45.402Z</time></trkpt><trkpt lat="41.121635" lon="14.1998717"><ele>22.0</ele><time>2026-05-04T13:04:46.402Z</time></trkpt><trkpt lat="41.1215433" lon="14.199915"><ele>22.0</ele><time>2026-05-04T13:04:47.402Z</time></trkpt><trkpt lat="41.121455" lon="14.19996"><ele>22.0</ele><time>2026-05-04T13:04:48.402Z</time></trkpt><trkpt lat="41.1213683" lon="14.200005"><ele>22.0</ele><time>2026-05-04T13:04:49.402Z</time></trkpt><trkpt lat="41.1212833" lon="14.2000517"><ele>22.0</ele><time>2026-05-04T13:04:50.402Z</time></trkpt><trkpt lat="41.1212" lon="14.2001017"><ele>22.0</ele><time>2026-05-04T13:04:51.402Z</time></trkpt><trkpt lat="41.1211167" lon="14.2001483"><ele>22.0</ele><time>2026-05-04T13:04:52.402Z</time></trkpt><trkpt lat="41.121035" lon="14.2001917"><ele>22.0</ele><time>2026-05-04T13:04:53.402Z</time></trkpt><trkpt lat="41.12095" lon="14.2002317"><ele>22.0</ele><time>2026-05-04T13:04:54.402Z</time></trkpt><trkpt lat="41.1208733" lon="14.20027"><ele>22.0</ele><time>2026-05-04T13:04:55.402Z</time></trkpt><trkpt lat="41.1207933" lon="14.2003017"><ele>22.0</ele><time>2026-05-04T13:04:56.402Z</time></trkpt><trkpt lat="41.1207183" lon="14.2003367"><ele>22.0</ele><time>2026-05-04T13:04:57.402Z</time></trkpt><trkpt lat="41.120645" lon="14.2003667"><ele>22.0</ele><time>2026-05-04T13:04:58.402Z</time></trkpt><trkpt lat="41.12057" lon="14.2003967"><ele>22.0</ele><time>2026-05-04T13:04:59.402Z</time></trkpt><trkpt lat="41.1204917" lon="14.2004267"><ele>22.0</ele><time>2026-05-04T13:05:00.401Z</time></trkpt><trkpt lat="41.1204117" lon="14.2004633"><ele>22.0</ele><time>2026-05-04T13:05:01.401Z</time></trkpt><trkpt lat="41.1203333" lon="14.2004883"><ele>22.0</ele><time>2026-05-04T13:05:02.401Z</time></trkpt><trkpt lat="41.120255" lon="14.200515"><ele>22.0</ele><time>2026-05-04T13:05:03.402Z</time></trkpt><trkpt lat="41.1201767" lon="14.20054"><ele>22.0</ele><time>2026-05-04T13:05:04.404Z</time></trkpt><trkpt lat="41.1201" lon="14.20056"><ele>22.0</ele><time>2026-05-04T13:05:05.402Z</time></trkpt><trkpt lat="41.120025" lon="14.2005833"><ele>22.0</ele><time>2026-05-04T13:05:06.402Z</time></trkpt><trkpt lat="41.1199567" lon="14.2006017"><ele>22.0</ele><time>2026-05-04T13:05:07.402Z</time></trkpt><trkpt lat="41.1198883" lon="14.2006183"><ele>22.0</ele><time>2026-05-04T13:05:08.402Z</time></trkpt><trkpt lat="41.1198133" lon="14.20062"><ele>22.0</ele><time>2026-05-04T13:05:09.401Z</time></trkpt><trkpt lat="41.119745" lon="14.200635"><ele>22.0</ele><time>2026-05-04T13:05:10.402Z</time></trkpt><trkpt lat="41.1196683" lon="14.2006467"><ele>22.0</ele><time>2026-05-04T13:05:11.401Z</time></trkpt><trkpt lat="41.1195933" lon="14.200665"><ele>22.0</ele><time>2026-05-04T13:05:12.402Z</time></trkpt><trkpt lat="41.11951" lon="14.200685"><ele>22.0</ele><time>2026-05-04T13:05:13.402Z</time></trkpt><trkpt lat="41.1194267" lon="14.2006983"><ele>22.0</ele><time>2026-05-04T13:05:14.401Z</time></trkpt><trkpt lat="41.1193417" lon="14.2007117"><ele>22.0</ele><time>2026-05-04T13:05:15.401Z</time></trkpt><trkpt lat="41.1192533" lon="14.2007233"><ele>22.0</ele><time>2026-05-04T13:05:16.401Z</time></trkpt><trkpt lat="41.11917" lon="14.2007383"><ele>22.0</ele><time>2026-05-04T13:05:17.402Z</time></trkpt><trkpt lat="41.1190817" lon="14.2007517"><ele>22.0</ele><time>2026-05-04T13:05:18.402Z</time></trkpt><trkpt lat="41.118995" lon="14.200765"><ele>22.0</ele><time>2026-05-04T13:05:19.402Z</time></trkpt><trkpt lat="41.1189067" lon="14.2007767"><ele>22.0</ele><time>2026-05-04T13:05:20.402Z</time></trkpt><trkpt lat="41.1188233" lon="14.2007967"><ele>22.0</ele><time>2026-05-04T13:05:21.401Z</time></trkpt><trkpt lat="41.1187417" lon="14.200815"><ele>22.0</ele><time>2026-05-04T13:05:22.402Z</time></trkpt><trkpt lat="41.1186533" lon="14.20083"><ele>22.0</ele><time>2026-05-04T13:05:23.402Z</time></trkpt><trkpt lat="41.1185683" lon="14.20084"><ele>22.0</ele><time>2026-05-04T13:05:24.401Z</time></trkpt><trkpt lat="41.11848" lon="14.20085"><ele>22.0</ele><time>2026-05-04T13:05:25.402Z</time></trkpt><trkpt lat="41.1183917" lon="14.2008633"><ele>22.0</ele><time>2026-05-04T13:05:26.402Z</time></trkpt><trkpt lat="41.1183017" lon="14.2008733"><ele>22.0</ele><time>2026-05-04T13:05:27.401Z</time></trkpt><trkpt lat="41.118205" lon="14.2008817"><ele>22.0</ele><time>2026-05-04T13:05:28.404Z</time></trkpt><trkpt lat="41.1181133" lon="14.200895"><ele>22.0</ele><time>2026-05-04T13:05:29.402Z</time></trkpt><trkpt lat="41.11802" lon="14.20091"><ele>22.0</ele><time>2026-05-04T13:05:30.402Z</time></trkpt><trkpt lat="41.1179283" lon="14.2009217"><ele>22.0</ele><time>2026-05-04T13:05:31.402Z</time></trkpt><trkpt lat="41.117835" lon="14.200935"><ele>22.0</ele><time>2026-05-04T13:05:32.402Z</time></trkpt><trkpt lat="41.117745" lon="14.20095"><ele>22.0</ele><time>2026-05-04T13:05:33.401Z</time></trkpt><trkpt lat="41.1176583" lon="14.2009683"><ele>22.0</ele><time>2026-05-04T13:05:34.402Z</time></trkpt><trkpt lat="41.1175733" lon="14.2009883"><ele>22.0</ele><time>2026-05-04T13:05:35.402Z</time></trkpt><trkpt lat="41.1174867" lon="14.2010083"><ele>22.0</ele><time>2026-05-04T13:05:36.401Z</time></trkpt><trkpt lat="41.1174067" lon="14.2010333"><ele>22.0</ele><time>2026-05-04T13:05:37.403Z</time></trkpt><trkpt lat="41.1173167" lon="14.2010467"><ele>22.0</ele><time>2026-05-04T13:05:38.402Z</time></trkpt><trkpt lat="41.1172317" lon="14.2010583"><ele>22.0</ele><time>2026-05-04T13:05:39.402Z</time></trkpt><trkpt lat="41.11715" lon="14.2010767"><ele>22.0</ele><time>2026-05-04T13:05:40.402Z</time></trkpt><trkpt lat="41.117065" lon="14.201085"><ele>22.5</ele><time>2026-05-04T13:05:41.402Z</time></trkpt><trkpt lat="41.1169833" lon="14.2010883"><ele>23.0</ele><time>2026-05-04T13:05:42.404Z</time></trkpt><trkpt lat="41.1169" lon="14.2010833"><ele>23.5</ele><time>2026-05-04T13:05:43.401Z</time></trkpt><trkpt lat="41.1168167" lon="14.201075"><ele>24.0</ele><time>2026-05-04T13:05:44.402Z</time></trkpt><trkpt lat="41.1167367" lon="14.2010783"><ele>24.500000000000004</ele><time>2026-05-04T13:05:45.401Z</time></trkpt><trkpt lat="41.1166517" lon="14.2010733"><ele>25.0</ele><time>2026-05-04T13:05:46.402Z</time></trkpt><trkpt lat="41.11657" lon="14.2010733"><ele>25.166666666666668</ele><time>2026-05-04T13:05:47.402Z</time></trkpt><trkpt lat="41.11649" lon="14.2010767"><ele>25.333333333333336</ele><time>2026-05-04T13:05:48.402Z</time></trkpt><trkpt lat="41.1164067" lon="14.201075"><ele>25.5</ele><time>2026-05-04T13:05:49.401Z</time></trkpt><trkpt lat="41.1163167" lon="14.2010733"><ele>25.666666666666664</ele><time>2026-05-04T13:05:50.401Z</time></trkpt><trkpt lat="41.1162267" lon="14.20107"><ele>25.833333333333332</ele><time>2026-05-04T13:05:51.401Z</time></trkpt><trkpt lat="41.1161367" lon="14.20107"><ele>26.0</ele><time>2026-05-04T13:05:52.402Z</time></trkpt><trkpt lat="41.1160483" lon="14.2010733"><ele>25.999999999999996</ele><time>2026-05-04T13:05:53.403Z</time></trkpt><trkpt lat="41.1159583" lon="14.2010733"><ele>26.0</ele><time>2026-05-04T13:05:54.405Z</time></trkpt><trkpt lat="41.11587" lon="14.2010717"><ele>26.0</ele><time>2026-05-04T13:05:55.403Z</time></trkpt><trkpt lat="41.1157833" lon="14.2010733"><ele>26.0</ele><time>2026-05-04T13:05:56.403Z</time></trkpt><trkpt lat="41.1156983" lon="14.201065"><ele>25.999999999999996</ele><time>2026-05-04T13:05:57.402Z</time></trkpt><trkpt lat="41.1156167" lon="14.2010633"><ele>26.0</ele><time>2026-05-04T13:05:58.402Z</time></trkpt><trkpt lat="41.115535" lon="14.2010583"><ele>25.499999999999996</ele><time>2026-05-04T13:05:59.402Z</time></trkpt><trkpt lat="41.1154533" lon="14.2010533"><ele>25.0</ele><time>2026-05-04T13:06:00.401Z</time></trkpt><trkpt lat="41.1153717" lon="14.2010533"><ele>24.5</ele><time>2026-05-04T13:06:01.402Z</time></trkpt><trkpt lat="41.1152867" lon="14.20105"><ele>24.0</ele><time>2026-05-04T13:06:02.402Z</time></trkpt><trkpt lat="41.1152" lon="14.201045"><ele>23.5</ele><time>2026-05-04T13:06:03.402Z</time></trkpt><trkpt lat="41.1151133" lon="14.2010383"><ele>23.0</ele><time>2026-05-04T13:06:04.401Z</time></trkpt><trkpt lat="41.1150283" lon="14.20103"><ele>23.0</ele><time>2026-05-04T13:06:05.403Z</time></trkpt><trkpt lat="41.11494" lon="14.2010183"><ele>23.0</ele><time>2026-05-04T13:06:06.402Z</time></trkpt><trkpt lat="41.11485" lon="14.2010083"><ele>23.0</ele><time>2026-05-04T13:06:07.402Z</time></trkpt><trkpt lat="41.11476" lon="14.2010083"><ele>23.0</ele><time>2026-05-04T13:06:08.401Z</time></trkpt><trkpt lat="41.1146683" lon="14.2010117"><ele>23.0</ele><time>2026-05-04T13:06:09.402Z</time></trkpt><trkpt lat="41.1145767" lon="14.2010117"><ele>23.4</ele><time>2026-05-04T13:06:10.401Z</time></trkpt><trkpt lat="41.114485" lon="14.2010133"><ele>23.799999999999997</ele><time>2026-05-04T13:06:11.403Z</time></trkpt><trkpt lat="41.1143867" lon="14.2010067"><ele>24.2</ele><time>2026-05-04T13:06:12.401Z</time></trkpt><trkpt lat="41.1142917" lon="14.2010017"><ele>24.6</ele><time>2026-05-04T13:06:13.402Z</time></trkpt><trkpt lat="41.1141967" lon="14.2010017"><ele>25.0</ele><time>2026-05-04T13:06:14.402Z</time></trkpt><trkpt lat="41.1141" lon="14.2010017"><ele>25.2</ele><time>2026-05-04T13:06:15.402Z</time></trkpt><trkpt lat="41.1139983" lon="14.200995"><ele>25.4</ele><time>2026-05-04T13:06:16.402Z</time></trkpt><trkpt lat="41.1139" lon="14.2009917"><ele>25.6</ele><time>2026-05-04T13:06:17.401Z</time></trkpt><trkpt lat="41.1138067" lon="14.2009883"><ele>25.8</ele><time>2026-05-04T13:06:18.402Z</time></trkpt><trkpt lat="41.1137117" lon="14.2009817"><ele>26.0</ele><time>2026-05-04T13:06:19.403Z</time></trkpt><trkpt lat="41.1136183" lon="14.2009767"><ele>25.999999999999996</ele><time>2026-05-04T13:06:20.404Z</time></trkpt><trkpt lat="41.11353" lon="14.2009783"><ele>26.0</ele><time>2026-05-04T13:06:21.402Z</time></trkpt><trkpt lat="41.11344" lon="14.2009817"><ele>26.0</ele><time>2026-05-04T13:06:22.402Z</time></trkpt><trkpt lat="41.1133483" lon="14.2009733"><ele>26.0</ele><time>2026-05-04T13:06:23.403Z</time></trkpt><trkpt lat="41.1132583" lon="14.2009633"><ele>25.999999999999996</ele><time>2026-05-04T13:06:24.403Z</time></trkpt><trkpt lat="41.1131717" lon="14.20095"><ele>26.0</ele><time>2026-05-04T13:06:25.402Z</time></trkpt><trkpt lat="41.11309" lon="14.2009383"><ele>26.0</ele><time>2026-05-04T13:06:26.403Z</time></trkpt><trkpt lat="41.1130217" lon="14.2009067"><ele>26.0</ele><time>2026-05-04T13:06:27.402Z</time></trkpt><trkpt lat="41.1129433" lon="14.2009117"><ele>26.0</ele><time>2026-05-04T13:06:28.402Z</time></trkpt><trkpt lat="41.1128733" lon="14.2009133"><ele>26.0</ele><time>2026-05-04T13:06:29.402Z</time></trkpt><trkpt lat="41.1128017" lon="14.2009067"><ele>26.0</ele><time>2026-05-04T13:06:30.402Z</time></trkpt><trkpt lat="41.11273" lon="14.2009017"><ele>26.0</ele><time>2026-05-04T13:06:31.402Z</time></trkpt><trkpt lat="41.112655" lon="14.2008933"><ele>26.0</ele><time>2026-05-04T13:06:32.403Z</time></trkpt><trkpt lat="41.1125867" lon="14.20089"><ele>26.0</ele><time>2026-05-04T13:06:33.401Z</time></trkpt><trkpt lat="41.11252" lon="14.200895"><ele>26.0</ele><time>2026-05-04T13:06:34.403Z</time></trkpt><trkpt lat="41.11245" lon="14.2008983"><ele>26.0</ele><time>2026-05-04T13:06:35.403Z</time></trkpt><trkpt lat="41.11238" lon="14.2009033"><ele>26.0</ele><time>2026-05-04T13:06:36.401Z</time></trkpt><trkpt lat="41.1123083" lon="14.2009183"><ele>26.0</ele><time>2026-05-04T13:06:37.402Z</time></trkpt><trkpt lat="41.112235" lon="14.2009483"><ele>26.0</ele><time>2026-05-04T13:06:38.401Z</time></trkpt><trkpt lat="41.1121633" lon="14.2009917"><ele>26.0</ele><time>2026-05-04T13:06:39.403Z</time></trkpt><trkpt lat="41.112095" lon="14.20105"><ele>25.999999999999996</ele><time>2026-05-04T13:06:40.403Z</time></trkpt><trkpt lat="41.112035" lon="14.20112"><ele>26.0</ele><time>2026-05-04T13:06:41.401Z</time></trkpt><trkpt lat="41.1119833" lon="14.2012033"><ele>26.0</ele><time>2026-05-04T13:06:42.402Z</time></trkpt><trkpt lat="41.11194" lon="14.2013"><ele>26.0</ele><time>2026-05-04T13:06:43.402Z</time></trkpt><trkpt lat="41.1119167" lon="14.2014167"><ele>25.999999999999996</ele><time>2026-05-04T13:06:44.402Z</time></trkpt><trkpt lat="41.1118883" lon="14.2015233"><ele>26.0</ele><time>2026-05-04T13:06:45.401Z</time></trkpt><trkpt lat="41.1118567" lon="14.2016217"><ele>26.166666666666664</ele><time>2026-05-04T13:06:46.402Z</time></trkpt><trkpt lat="41.11183" lon="14.201715"><ele>26.333333333333332</ele><time>2026-05-04T13:06:47.402Z</time></trkpt><trkpt lat="41.1118017" lon="14.201805"><ele>26.5</ele><time>2026-05-04T13:06:48.402Z</time></trkpt><trkpt lat="41.1117717" lon="14.20189"><ele>26.666666666666664</ele><time>2026-05-04T13:06:49.402Z</time></trkpt><trkpt lat="41.1117433" lon="14.20197"><ele>26.833333333333332</ele><time>2026-05-04T13:06:50.402Z</time></trkpt><trkpt lat="41.1117117" lon="14.20205"><ele>27.0</ele><time>2026-05-04T13:06:51.401Z</time></trkpt><trkpt lat="41.111655" lon="14.2021933"><ele>27.0</ele><time>2026-05-04T13:06:53.404Z</time></trkpt><trkpt lat="41.1116067" lon="14.2023267"><ele>27.0</ele><time>2026-05-04T13:06:55.402Z</time></trkpt><trkpt lat="41.1115583" lon="14.2024533"><ele>27.0</ele><time>2026-05-04T13:06:57.402Z</time></trkpt><trkpt lat="41.11152" lon="14.2026017"><ele>27.0</ele><time>2026-05-04T13:06:59.402Z</time></trkpt><trkpt lat="41.1114833" lon="14.2027467"><ele>27.0</ele><time>2026-05-04T13:07:01.403Z</time></trkpt><trkpt lat="41.1114517" lon="14.202875"><ele>27.000000000000004</ele><time>2026-05-04T13:07:03.402Z</time></trkpt><trkpt lat="41.1114133" lon="14.2030067"><ele>27.000000000000004</ele><time>2026-05-04T13:07:05.402Z</time></trkpt><trkpt lat="41.11137" lon="14.2031367"><ele>27.0</ele><time>2026-05-04T13:07:07.403Z</time></trkpt><trkpt lat="41.11132" lon="14.203275"><ele>27.0</ele><time>2026-05-04T13:07:09.401Z</time></trkpt><trkpt lat="41.1112683" lon="14.2034367"><ele>26.714285714285715</ele><time>2026-05-04T13:07:11.402Z</time></trkpt><trkpt lat="41.1112367" lon="14.2035183"><ele>26.428571428571427</ele><time>2026-05-04T13:07:12.401Z</time></trkpt><trkpt lat="41.1112083" lon="14.2035967"><ele>26.142857142857146</ele><time>2026-05-04T13:07:13.403Z</time></trkpt><trkpt lat="41.11118" lon="14.20368"><ele>25.857142857142858</ele><time>2026-05-04T13:07:14.402Z</time></trkpt><trkpt lat="41.1111433" lon="14.2037617"><ele>25.571428571428573</ele><time>2026-05-04T13:07:15.402Z</time></trkpt><trkpt lat="41.1111117" lon="14.203845"><ele>25.28571428571429</ele><time>2026-05-04T13:07:16.401Z</time></trkpt><trkpt lat="41.1110783" lon="14.2039317"><ele>25.0</ele><time>2026-05-04T13:07:17.402Z</time></trkpt><trkpt lat="41.111045" lon="14.204025"><ele>25.000000000000004</ele><time>2026-05-04T13:07:18.402Z</time></trkpt><trkpt lat="41.111015" lon="14.2041183"><ele>25.0</ele><time>2026-05-04T13:07:19.404Z</time></trkpt><trkpt lat="41.1109833" lon="14.2042"><ele>25.0</ele><time>2026-05-04T13:07:20.401Z</time></trkpt><trkpt lat="41.1109517" lon="14.2042867"><ele>25.0</ele><time>2026-05-04T13:07:21.402Z</time></trkpt><trkpt lat="41.11092" lon="14.2043667"><ele>25.000000000000004</ele><time>2026-05-04T13:07:22.403Z</time></trkpt><trkpt lat="41.11087" lon="14.2045067"><ele>25.0</ele><time>2026-05-04T13:07:24.403Z</time></trkpt><trkpt lat="41.110845" lon="14.204665"><ele>25.000000000000004</ele><time>2026-05-04T13:07:26.403Z</time></trkpt><trkpt lat="41.11083" lon="14.2047583"><ele>25.0</ele><time>2026-05-04T13:07:27.402Z</time></trkpt><trkpt lat="41.1108183" lon="14.2048517"><ele>25.0</ele><time>2026-05-04T13:07:28.403Z</time></trkpt><trkpt lat="41.110805" lon="14.20494"><ele>25.0</ele><time>2026-05-04T13:07:29.404Z</time></trkpt><trkpt lat="41.1107933" lon="14.2050333"><ele>25.000000000000004</ele><time>2026-05-04T13:07:30.403Z</time></trkpt><trkpt lat="41.1107783" lon="14.2051233"><ele>25.0</ele><time>2026-05-04T13:07:31.403Z</time></trkpt><trkpt lat="41.1107483" lon="14.205285"><ele>25.166666666666668</ele><time>2026-05-04T13:07:33.402Z</time></trkpt><trkpt lat="41.110735" lon="14.2053683"><ele>25.333333333333336</ele><time>2026-05-04T13:07:34.403Z</time></trkpt><trkpt lat="41.1107183" lon="14.2054633"><ele>25.5</ele><time>2026-05-04T13:07:35.403Z</time></trkpt><trkpt lat="41.1106867" lon="14.205615"><ele>25.666666666666664</ele><time>2026-05-04T13:07:37.403Z</time></trkpt><trkpt lat="41.11067" lon="14.2057067"><ele>25.833333333333332</ele><time>2026-05-04T13:07:38.402Z</time></trkpt><trkpt lat="41.110665" lon="14.2058117"><ele>26.0</ele><time>2026-05-04T13:07:39.402Z</time></trkpt><trkpt lat="41.110655" lon="14.2059117"><ele>26.0</ele><time>2026-05-04T13:07:40.403Z</time></trkpt><trkpt lat="41.110645" lon="14.2059967"><ele>26.0</ele><time>2026-05-04T13:07:41.404Z</time></trkpt><trkpt lat="41.1106267" lon="14.2060783"><ele>26.0</ele><time>2026-05-04T13:07:42.402Z</time></trkpt><trkpt lat="41.110615" lon="14.2061683"><ele>26.0</ele><time>2026-05-04T13:07:43.404Z</time></trkpt><trkpt lat="41.1106" lon="14.2062533"><ele>26.0</ele><time>2026-05-04T13:07:44.404Z</time></trkpt><trkpt lat="41.11058" lon="14.2063433"><ele>26.0</ele><time>2026-05-04T13:07:45.402Z</time></trkpt><trkpt lat="41.110555" lon="14.20643"><ele>26.0</ele><time>2026-05-04T13:07:46.403Z</time></trkpt><trkpt lat="41.1105367" lon="14.206525"><ele>26.285714285714285</ele><time>2026-05-04T13:07:47.403Z</time></trkpt><trkpt lat="41.1105283" lon="14.2066233"><ele>26.571428571428573</ele><time>2026-05-04T13:07:48.403Z</time></trkpt><trkpt lat="41.110525" lon="14.20672"><ele>26.857142857142858</ele><time>2026-05-04T13:07:49.404Z</time></trkpt><trkpt lat="41.1105183" lon="14.20682"><ele>27.142857142857142</ele><time>2026-05-04T13:07:50.403Z</time></trkpt><trkpt lat="41.1105133" lon="14.206915"><ele>27.42857142857143</ele><time>2026-05-04T13:07:51.403Z</time></trkpt><trkpt lat="41.110505" lon="14.20701"><ele>27.714285714285715</ele><time>2026-05-04T13:07:52.403Z</time></trkpt><trkpt lat="41.1104983" lon="14.2071"><ele>28.0</ele><time>2026-05-04T13:07:53.403Z</time></trkpt><trkpt lat="41.1104667" lon="14.20726"><ele>28.0</ele><time>2026-05-04T13:07:55.403Z</time></trkpt><trkpt lat="41.1104567" lon="14.2073433"><ele>27.999999999999996</ele><time>2026-05-04T13:07:56.403Z</time></trkpt><trkpt lat="41.110445" lon="14.20743"><ele>27.999999999999996</ele><time>2026-05-04T13:07:57.403Z</time></trkpt><trkpt lat="41.1104117" lon="14.2075867"><ele>28.0</ele><time>2026-05-04T13:07:59.403Z</time></trkpt><trkpt lat="41.1103583" lon="14.2077233"><ele>28.0</ele><time>2026-05-04T13:08:01.404Z</time></trkpt><trkpt lat="41.1102883" lon="14.2078433"><ele>28.000000000000004</ele><time>2026-05-04T13:08:03.403Z</time></trkpt><trkpt lat="41.110225" lon="14.207955"><ele>28.0</ele><time>2026-05-04T13:08:05.403Z</time></trkpt><trkpt lat="41.110175" lon="14.2080567"><ele>28.0</ele><time>2026-05-04T13:08:07.403Z</time></trkpt><trkpt lat="41.1101233" lon="14.2081333"><ele>28.0</ele><time>2026-05-04T13:08:09.403Z</time></trkpt><trkpt lat="41.11007" lon="14.2082017"><ele>28.000000000000004</ele><time>2026-05-04T13:08:11.404Z</time></trkpt><trkpt lat="41.1100083" lon="14.2082733"><ele>28.0</ele><time>2026-05-04T13:08:13.404Z</time></trkpt><trkpt lat="41.1099467" lon="14.208355"><ele>27.000000000000004</ele><time>2026-05-04T13:08:15.403Z</time></trkpt><trkpt lat="41.1098967" lon="14.2084267"><ele>26.0</ele><time>2026-05-04T13:08:17.402Z</time></trkpt><trkpt lat="41.10984" lon="14.2084933"><ele>25.0</ele><time>2026-05-04T13:08:19.403Z</time></trkpt><trkpt lat="41.10977" lon="14.2085433"><ele>24.0</ele><time>2026-05-04T13:08:21.403Z</time></trkpt><trkpt lat="41.1097017" lon="14.20863"><ele>23.0</ele><time>2026-05-04T13:08:23.403Z</time></trkpt><trkpt lat="41.1096483" lon="14.20872"><ele>22.0</ele><time>2026-05-04T13:08:25.404Z</time></trkpt><trkpt lat="41.1095983" lon="14.208795"><ele>22.0</ele><time>2026-05-04T13:08:27.403Z</time></trkpt><trkpt lat="41.1095517" lon="14.2088767"><ele>22.0</ele><time>2026-05-04T13:08:29.403Z</time></trkpt><trkpt lat="41.1094933" lon="14.2089467"><ele>22.0</ele><time>2026-05-04T13:08:31.403Z</time></trkpt><trkpt lat="41.1094367" lon="14.2090233"><ele>22.0</ele><time>2026-05-04T13:08:33.402Z</time></trkpt><trkpt lat="41.109375" lon="14.2091183"><ele>22.0</ele><time>2026-05-04T13:08:35.404Z</time></trkpt><trkpt lat="41.1093133" lon="14.2092117"><ele>22.0</ele><time>2026-05-04T13:08:37.403Z</time></trkpt><trkpt lat="41.1092483" lon="14.2093117"><ele>22.166666666666664</ele><time>2026-05-04T13:08:39.403Z</time></trkpt><trkpt lat="41.1091917" lon="14.2093967"><ele>22.333333333333332</ele><time>2026-05-04T13:08:41.403Z</time></trkpt><trkpt lat="41.1091333" lon="14.2094683"><ele>22.5</ele><time>2026-05-04T13:08:43.403Z</time></trkpt><trkpt lat="41.10907" lon="14.2095217"><ele>22.666666666666668</ele><time>2026-05-04T13:08:45.402Z</time></trkpt><trkpt lat="41.1089967" lon="14.2095233"><ele>22.833333333333336</ele><time>2026-05-04T13:08:47.402Z</time></trkpt><trkpt lat="41.1089283" lon="14.2094783"><ele>23.0</ele><time>2026-05-04T13:08:49.404Z</time></trkpt><trkpt lat="41.1088583" lon="14.209405"><ele>23.2</ele><time>2026-05-04T13:08:51.402Z</time></trkpt><trkpt lat="41.1087933" lon="14.2093133"><ele>23.4</ele><time>2026-05-04T13:08:53.403Z</time></trkpt><trkpt lat="41.1087133" lon="14.2092167"><ele>23.599999999999998</ele><time>2026-05-04T13:08:55.403Z</time></trkpt><trkpt lat="41.108635" lon="14.2091283"><ele>23.799999999999997</ele><time>2026-05-04T13:08:57.402Z</time></trkpt><trkpt lat="41.108555" lon="14.209025"><ele>24.0</ele><time>2026-05-04T13:08:59.404Z</time></trkpt><trkpt lat="41.1084783" lon="14.2089217"><ele>24.0</ele><time>2026-05-04T13:09:01.404Z</time></trkpt><trkpt lat="41.1083933" lon="14.20883"><ele>24.0</ele><time>2026-05-04T13:09:03.403Z</time></trkpt><trkpt lat="41.1083417" lon="14.2087317"><ele>24.0</ele><time>2026-05-04T13:09:05.402Z</time></trkpt><trkpt lat="41.10827" lon="14.2087183"><ele>24.0</ele><time>2026-05-04T13:09:35.402Z</time></trkpt><trkpt lat="41.108195" lon="14.20875"><ele>24.0</ele><time>2026-05-04T13:09:38.402Z</time></trkpt><trkpt lat="41.1081283" lon="14.2087417"><ele>24.0</ele><time>2026-05-04T13:09:40.402Z</time></trkpt><trkpt lat="41.1080633" lon="14.2087417"><ele>24.333333333333332</ele><time>2026-05-04T13:09:42.403Z</time></trkpt><trkpt lat="41.1079767" lon="14.2087533"><ele>24.666666666666664</ele><time>2026-05-04T13:09:45.403Z</time></trkpt><trkpt lat="41.1079" lon="14.2087683"><ele>25.0</ele><time>2026-05-04T13:09:47.402Z</time></trkpt><trkpt lat="41.1078317" lon="14.20881"><ele>25.333333333333332</ele><time>2026-05-04T13:09:49.403Z</time></trkpt><trkpt lat="41.10774" lon="14.2088217"><ele>25.666666666666664</ele><time>2026-05-04T13:09:51.401Z</time></trkpt><trkpt lat="41.1076383" lon="14.2088317"><ele>26.0</ele><time>2026-05-04T13:09:53.403Z</time></trkpt><trkpt lat="41.1075467" lon="14.2088533"><ele>26.0</ele><time>2026-05-04T13:09:55.405Z</time></trkpt><trkpt lat="41.107465" lon="14.208885"><ele>26.0</ele><time>2026-05-04T13:09:57.403Z</time></trkpt><trkpt lat="41.1073867" lon="14.2089417"><ele>26.0</ele><time>2026-05-04T13:09:59.402Z</time></trkpt><trkpt lat="41.1073217" lon="14.2090333"><ele>26.0</ele><time>2026-05-04T13:10:01.403Z</time></trkpt><trkpt lat="41.1072667" lon="14.20914"><ele>26.0</ele><time>2026-05-04T13:10:03.401Z</time></trkpt><trkpt lat="41.1072133" lon="14.2092383"><ele>25.833333333333332</ele><time>2026-05-04T13:10:05.403Z</time></trkpt><trkpt lat="41.1071583" lon="14.20933"><ele>25.666666666666664</ele><time>2026-05-04T13:10:07.403Z</time></trkpt><trkpt lat="41.107095" lon="14.2094"><ele>25.5</ele><time>2026-05-04T13:10:09.402Z</time></trkpt><trkpt lat="41.1070467" lon="14.20948"><ele>25.333333333333336</ele><time>2026-05-04T13:10:11.402Z</time></trkpt><trkpt lat="41.107" lon="14.2095533"><ele>25.166666666666668</ele><time>2026-05-04T13:10:13.403Z</time></trkpt><trkpt lat="41.106935" lon="14.2096167"><ele>25.0</ele><time>2026-05-04T13:10:15.402Z</time></trkpt><trkpt lat="41.1068733" lon="14.209695"><ele>25.000000000000004</ele><time>2026-05-04T13:10:17.402Z</time></trkpt><trkpt lat="41.1068183" lon="14.2097667"><ele>25.0</ele><time>2026-05-04T13:10:19.402Z</time></trkpt><trkpt lat="41.1067533" lon="14.20983"><ele>25.0</ele><time>2026-05-04T13:10:21.402Z</time></trkpt><trkpt lat="41.1066817" lon="14.2098933"><ele>25.0</ele><time>2026-05-04T13:10:23.402Z</time></trkpt><trkpt lat="41.1066267" lon="14.2099517"><ele>25.000000000000004</ele><time>2026-05-04T13:10:25.403Z</time></trkpt><trkpt lat="41.10656" lon="14.2099933"><ele>25.0</ele><time>2026-05-04T13:10:27.401Z</time></trkpt><trkpt lat="41.1065" lon="14.2100433"><ele>25.166666666666668</ele><time>2026-05-04T13:10:29.402Z</time></trkpt><trkpt lat="41.1064433" lon="14.2101033"><ele>25.333333333333336</ele><time>2026-05-04T13:10:31.402Z</time></trkpt><trkpt lat="41.1063767" lon="14.2101517"><ele>25.5</ele><time>2026-05-04T13:10:33.402Z</time></trkpt><trkpt lat="41.1063133" lon="14.2102083"><ele>25.666666666666664</ele><time>2026-05-04T13:10:35.403Z</time></trkpt><trkpt lat="41.106245" lon="14.2102767"><ele>25.833333333333332</ele><time>2026-05-04T13:10:37.402Z</time></trkpt><trkpt lat="41.1061717" lon="14.21034"><ele>26.0</ele><time>2026-05-04T13:10:39.402Z</time></trkpt><trkpt lat="41.1061067" lon="14.2104117"><ele>26.0</ele><time>2026-05-04T13:10:41.403Z</time></trkpt><trkpt lat="41.10604" lon="14.2104933"><ele>26.0</ele><time>2026-05-04T13:10:43.403Z</time></trkpt><trkpt lat="41.1059817" lon="14.2105767"><ele>26.0</ele><time>2026-05-04T13:10:45.401Z</time></trkpt><trkpt lat="41.1059183" lon="14.21065"><ele>26.0</ele><time>2026-05-04T13:10:47.403Z</time></trkpt><trkpt lat="41.10583" lon="14.2107267"><ele>26.0</ele><time>2026-05-04T13:10:49.403Z</time></trkpt><trkpt lat="41.1057283" lon="14.2107933"><ele>25.833333333333332</ele><time>2026-05-04T13:10:51.403Z</time></trkpt><trkpt lat="41.1056667" lon="14.2108217"><ele>25.666666666666664</ele><time>2026-05-04T13:10:52.403Z</time></trkpt><trkpt lat="41.10554" lon="14.2108767"><ele>25.5</ele><time>2026-05-04T13:10:54.403Z</time></trkpt><trkpt lat="41.1054733" lon="14.2109117"><ele>25.333333333333336</ele><time>2026-05-04T13:10:55.403Z</time></trkpt><trkpt lat="41.1054033" lon="14.210945"><ele>25.166666666666668</ele><time>2026-05-04T13:10:56.402Z</time></trkpt><trkpt lat="41.1053317" lon="14.2109733"><ele>25.0</ele><time>2026-05-04T13:10:57.403Z</time></trkpt><trkpt lat="41.10526" lon="14.2110067"><ele>25.000000000000004</ele><time>2026-05-04T13:10:58.403Z</time></trkpt><trkpt lat="41.105185" lon="14.2110367"><ele>25.0</ele><time>2026-05-04T13:10:59.403Z</time></trkpt><trkpt lat="41.1051067" lon="14.2110617"><ele>25.0</ele><time>2026-05-04T13:11:00.403Z</time></trkpt><trkpt lat="41.105035" lon="14.211095"><ele>25.0</ele><time>2026-05-04T13:11:01.403Z</time></trkpt><trkpt lat="41.104965" lon="14.2111333"><ele>25.000000000000004</ele><time>2026-05-04T13:11:02.403Z</time></trkpt><trkpt lat="41.1048967" lon="14.2111633"><ele>25.0</ele><time>2026-05-04T13:11:03.403Z</time></trkpt><trkpt lat="41.1048233" lon="14.2111967"><ele>24.833333333333336</ele><time>2026-05-04T13:11:04.404Z</time></trkpt><trkpt lat="41.104755" lon="14.21123"><ele>24.666666666666668</ele><time>2026-05-04T13:11:05.403Z</time></trkpt><trkpt lat="41.104695" lon="14.211265"><ele>24.5</ele><time>2026-05-04T13:11:06.402Z</time></trkpt><trkpt lat="41.1045933" lon="14.211315"><ele>24.333333333333336</ele><time>2026-05-04T13:11:08.402Z</time></trkpt><trkpt lat="41.1044867" lon="14.211335"><ele>24.166666666666668</ele><time>2026-05-04T13:11:10.402Z</time></trkpt><trkpt lat="41.1044067" lon="14.2113233"><ele>24.0</ele><time>2026-05-04T13:11:12.403Z</time></trkpt><trkpt lat="41.1043667" lon="14.2112583"><ele>24.0</ele><time>2026-05-04T13:11:27.403Z</time></trkpt><trkpt lat="41.10432" lon="14.2111667"><ele>24.0</ele><time>2026-05-04T13:11:49.404Z</time></trkpt><trkpt lat="41.1042917" lon="14.2110383"><ele>24.0</ele><time>2026-05-04T13:11:52.403Z</time></trkpt><trkpt lat="41.104285" lon="14.2109233"><ele>24.0</ele><time>2026-05-04T13:11:54.404Z</time></trkpt><trkpt lat="41.104265" lon="14.2108033"><ele>24.0</ele><time>2026-05-04T13:11:56.402Z</time></trkpt><trkpt lat="41.10426" lon="14.21069"><ele>24.0</ele><time>2026-05-04T13:11:58.402Z</time></trkpt><trkpt lat="41.1042433" lon="14.2105783"><ele>24.2</ele><time>2026-05-04T13:12:00.403Z</time></trkpt><trkpt lat="41.104205" lon="14.21046"><ele>24.4</ele><time>2026-05-04T13:12:02.402Z</time></trkpt><trkpt lat="41.104175" lon="14.210335"><ele>24.6</ele><time>2026-05-04T13:12:04.403Z</time></trkpt><trkpt lat="41.1041583" lon="14.2102217"><ele>24.8</ele><time>2026-05-04T13:12:06.403Z</time></trkpt><trkpt lat="41.1041333" lon="14.210105"><ele>25.0</ele><time>2026-05-04T13:12:08.402Z</time></trkpt><trkpt lat="41.1041" lon="14.2099767"><ele>24.75</ele><time>2026-05-04T13:12:10.404Z</time></trkpt><trkpt lat="41.10407" lon="14.2098267"><ele>24.5</ele><time>2026-05-04T13:12:12.401Z</time></trkpt><trkpt lat="41.104045" lon="14.2096917"><ele>24.25</ele><time>2026-05-04T13:12:14.402Z</time></trkpt><trkpt lat="41.1040183" lon="14.2095483"><ele>24.0</ele><time>2026-05-04T13:12:16.403Z</time></trkpt><trkpt lat="41.1039783" lon="14.2093983"><ele>23.999999999999996</ele><time>2026-05-04T13:12:18.402Z</time></trkpt><trkpt lat="41.1039483" lon="14.2093233"><ele>24.0</ele><time>2026-05-04T13:12:19.403Z</time></trkpt><trkpt lat="41.1039217" lon="14.2092417"><ele>24.0</ele><time>2026-05-04T13:12:20.404Z</time></trkpt><trkpt lat="41.103905" lon="14.2091417"><ele>24.0</ele><time>2026-05-04T13:12:21.408Z</time></trkpt><trkpt lat="41.1038867" lon="14.20906"><ele>24.0</ele><time>2026-05-04T13:12:22.405Z</time></trkpt><trkpt lat="41.1038667" lon="14.20897"><ele>23.999999999999996</ele><time>2026-05-04T13:12:23.405Z</time></trkpt><trkpt lat="41.1038483" lon="14.208885"><ele>24.0</ele><time>2026-05-04T13:12:24.403Z</time></trkpt><trkpt lat="41.1038317" lon="14.20879"><ele>24.285714285714285</ele><time>2026-05-04T13:12:25.404Z</time></trkpt><trkpt lat="41.1038233" lon="14.208705"><ele>24.57142857142857</ele><time>2026-05-04T13:12:26.403Z</time></trkpt><trkpt lat="41.1038183" lon="14.2086217"><ele>24.857142857142854</ele><time>2026-05-04T13:12:27.404Z</time></trkpt><trkpt lat="41.1038083" lon="14.2085367"><ele>25.142857142857142</ele><time>2026-05-04T13:12:28.403Z</time></trkpt><trkpt lat="41.1038" lon="14.2084483"><ele>25.42857142857143</ele><time>2026-05-04T13:12:29.404Z</time></trkpt><trkpt lat="41.1037917" lon="14.2083533"><ele>25.71428571428571</ele><time>2026-05-04T13:12:30.405Z</time></trkpt><trkpt lat="41.10378" lon="14.20826"><ele>26.0</ele><time>2026-05-04T13:12:31.403Z</time></trkpt><trkpt lat="41.1037733" lon="14.2081767"><ele>25.6</ele><time>2026-05-04T13:12:32.404Z</time></trkpt><trkpt lat="41.103765" lon="14.2080933"><ele>25.200000000000003</ele><time>2026-05-04T13:12:33.403Z</time></trkpt><trkpt lat="41.1037583" lon="14.2079233"><ele>24.799999999999997</ele><time>2026-05-04T13:12:35.404Z</time></trkpt><trkpt lat="41.1037583" lon="14.2077567"><ele>24.4</ele><time>2026-05-04T13:12:37.404Z</time></trkpt><trkpt lat="41.103765" lon="14.20767"><ele>24.0</ele><time>2026-05-04T13:12:38.403Z</time></trkpt><trkpt lat="41.1037683" lon="14.20758"><ele>24.0</ele><time>2026-05-04T13:12:39.404Z</time></trkpt><trkpt lat="41.1037733" lon="14.2074867"><ele>24.0</ele><time>2026-05-04T13:12:40.403Z</time></trkpt><trkpt lat="41.1037783" lon="14.2073917"><ele>24.0</ele><time>2026-05-04T13:12:41.404Z</time></trkpt><trkpt lat="41.1037833" lon="14.20729"><ele>24.0</ele><time>2026-05-04T13:12:42.403Z</time></trkpt><trkpt lat="41.1037867" lon="14.2071867"><ele>24.0</ele><time>2026-05-04T13:12:43.403Z</time></trkpt><trkpt lat="41.1037883" lon="14.2070767"><ele>24.0</ele><time>2026-05-04T13:12:44.402Z</time></trkpt><trkpt lat="41.10379" lon="14.2069633"><ele>23.799999999999997</ele><time>2026-05-04T13:12:45.403Z</time></trkpt><trkpt lat="41.1037817" lon="14.2068433"><ele>23.599999999999998</ele><time>2026-05-04T13:12:46.406Z</time></trkpt><trkpt lat="41.10377" lon="14.2067217"><ele>23.4</ele><time>2026-05-04T13:12:47.408Z</time></trkpt><trkpt lat="41.1037467" lon="14.2065967"><ele>23.2</ele><time>2026-05-04T13:12:48.403Z</time></trkpt><trkpt lat="41.1037183" lon="14.2064783"><ele>23.0</ele><time>2026-05-04T13:12:49.403Z</time></trkpt><trkpt lat="41.1036867" lon="14.2063517"><ele>22.799999999999997</ele><time>2026-05-04T13:12:50.402Z</time></trkpt><trkpt lat="41.103645" lon="14.206235"><ele>22.6</ele><time>2026-05-04T13:12:51.406Z</time></trkpt><trkpt lat="41.1036" lon="14.2061233"><ele>22.4</ele><time>2026-05-04T13:12:52.404Z</time></trkpt><trkpt lat="41.103555" lon="14.2060033"><ele>22.200000000000003</ele><time>2026-05-04T13:12:53.404Z</time></trkpt><trkpt lat="41.1035133" lon="14.205885"><ele>22.0</ele><time>2026-05-04T13:12:54.402Z</time></trkpt><trkpt lat="41.1034717" lon="14.2057683"><ele>22.0</ele><time>2026-05-04T13:12:55.404Z</time></trkpt><trkpt lat="41.1034283" lon="14.2056533"><ele>22.0</ele><time>2026-05-04T13:12:56.405Z</time></trkpt><trkpt lat="41.103385" lon="14.205555"><ele>22.0</ele><time>2026-05-04T13:12:57.405Z</time></trkpt><trkpt lat="41.103315" lon="14.2054917"><ele>22.0</ele><time>2026-05-04T13:12:58.404Z</time></trkpt><trkpt lat="41.103285" lon="14.205415"><ele>22.0</ele><time>2026-05-04T13:12:59.405Z</time></trkpt><trkpt lat="41.10326" lon="14.20532"><ele>22.0</ele><time>2026-05-04T13:13:00.404Z</time></trkpt><trkpt lat="41.1032283" lon="14.2052317"><ele>21.8</ele><time>2026-05-04T13:13:01.406Z</time></trkpt><trkpt lat="41.1031783" lon="14.2050933"><ele>21.6</ele><time>2026-05-04T13:13:03.403Z</time></trkpt><trkpt lat="41.10315" lon="14.2050167"><ele>21.400000000000002</ele><time>2026-05-04T13:13:04.404Z</time></trkpt><trkpt lat="41.1031167" lon="14.2048617"><ele>21.200000000000003</ele><time>2026-05-04T13:13:06.402Z</time></trkpt><trkpt lat="41.10309" lon="14.204725"><ele>21.0</ele><time>2026-05-04T13:13:08.403Z</time></trkpt><trkpt lat="41.103045" lon="14.2046117"><ele>21.4</ele><time>2026-05-04T13:13:10.403Z</time></trkpt><trkpt lat="41.1030017" lon="14.2045033"><ele>21.8</ele><time>2026-05-04T13:13:12.405Z</time></trkpt><trkpt lat="41.10296" lon="14.2043883"><ele>22.2</ele><time>2026-05-04T13:13:14.404Z</time></trkpt><trkpt lat="41.1029167" lon="14.20428"><ele>22.599999999999998</ele><time>2026-05-04T13:13:16.404Z</time></trkpt><trkpt lat="41.102875" lon="14.2041733"><ele>23.0</ele><time>2026-05-04T13:13:18.403Z</time></trkpt><trkpt lat="41.102835" lon="14.20406"><ele>22.799999999999997</ele><time>2026-05-04T13:13:20.401Z</time></trkpt><trkpt lat="41.1027917" lon="14.2039367"><ele>22.6</ele><time>2026-05-04T13:13:22.403Z</time></trkpt><trkpt lat="41.102745" lon="14.20381"><ele>22.4</ele><time>2026-05-04T13:13:24.403Z</time></trkpt><trkpt lat="41.1026983" lon="14.203675"><ele>22.200000000000003</ele><time>2026-05-04T13:13:26.403Z</time></trkpt><trkpt lat="41.10265" lon="14.203525"><ele>22.0</ele><time>2026-05-04T13:13:28.403Z</time></trkpt><trkpt lat="41.102625" lon="14.2034467"><ele>22.0</ele><time>2026-05-04T13:13:29.403Z</time></trkpt><trkpt lat="41.1026017" lon="14.2033667"><ele>22.0</ele><time>2026-05-04T13:13:30.403Z</time></trkpt><trkpt lat="41.1025633" lon="14.2032133"><ele>22.0</ele><time>2026-05-04T13:13:32.402Z</time></trkpt><trkpt lat="41.1025467" lon="14.2031283"><ele>22.0</ele><time>2026-05-04T13:13:33.403Z</time></trkpt><trkpt lat="41.1025283" lon="14.203045"><ele>22.0</ele><time>2026-05-04T13:13:34.404Z</time></trkpt><trkpt lat="41.1025117" lon="14.2029633"><ele>22.0</ele><time>2026-05-04T13:13:35.403Z</time></trkpt><trkpt lat="41.1024917" lon="14.202875"><ele>22.0</ele><time>2026-05-04T13:13:36.403Z</time></trkpt><trkpt lat="41.1024733" lon="14.20279"><ele>22.0</ele><time>2026-05-04T13:13:37.403Z</time></trkpt><trkpt lat="41.102455" lon="14.2026983"><ele>22.0</ele><time>2026-05-04T13:13:38.401Z</time></trkpt><trkpt lat="41.1024383" lon="14.20261"><ele>22.0</ele><time>2026-05-04T13:13:39.403Z</time></trkpt><trkpt lat="41.10242" lon="14.2025267"><ele>22.0</ele><time>2026-05-04T13:13:40.403Z</time></trkpt><trkpt lat="41.1024" lon="14.2024417"><ele>22.0</ele><time>2026-05-04T13:13:41.403Z</time></trkpt><trkpt lat="41.10236" lon="14.2022883"><ele>22.0</ele><time>2026-05-04T13:13:43.403Z</time></trkpt><trkpt lat="41.1023183" lon="14.20213"><ele>22.0</ele><time>2026-05-04T13:13:45.402Z</time></trkpt><trkpt lat="41.1022667" lon="14.2019833"><ele>22.0</ele><time>2026-05-04T13:13:47.403Z</time></trkpt><trkpt lat="41.10223" lon="14.2019083"><ele>22.0</ele><time>2026-05-04T13:13:48.404Z</time></trkpt><trkpt lat="41.1021883" lon="14.2018383"><ele>22.0</ele><time>2026-05-04T13:13:49.403Z</time></trkpt><trkpt lat="41.1021417" lon="14.2017717"><ele>22.0</ele><time>2026-05-04T13:13:50.403Z</time></trkpt><trkpt lat="41.1020933" lon="14.2017083"><ele>22.0</ele><time>2026-05-04T13:13:51.402Z</time></trkpt><trkpt lat="41.10204" lon="14.201645"><ele>22.0</ele><time>2026-05-04T13:13:52.402Z</time></trkpt><trkpt lat="41.1019867" lon="14.20159"><ele>22.0</ele><time>2026-05-04T13:13:53.402Z</time></trkpt><trkpt lat="41.10193" lon="14.2015367"><ele>22.0</ele><time>2026-05-04T13:13:54.402Z</time></trkpt><trkpt lat="41.1018733" lon="14.2014883"><ele>22.0</ele><time>2026-05-04T13:13:55.402Z</time></trkpt><trkpt lat="41.101815" lon="14.2014433"><ele>22.0</ele><time>2026-05-04T13:13:56.402Z</time></trkpt><trkpt lat="41.1017567" lon="14.201385"><ele>22.0</ele><time>2026-05-04T13:13:57.402Z</time></trkpt><trkpt lat="41.1017017" lon="14.2013333"><ele>22.0</ele><time>2026-05-04T13:13:58.401Z</time></trkpt><trkpt lat="41.101645" lon="14.2012817"><ele>22.0</ele><time>2026-05-04T13:13:59.404Z</time></trkpt><trkpt lat="41.1015883" lon="14.2012267"><ele>22.0</ele><time>2026-05-04T13:14:00.404Z</time></trkpt><trkpt lat="41.10153" lon="14.2011733"><ele>22.0</ele><time>2026-05-04T13:14:01.403Z</time></trkpt><trkpt lat="41.1014717" lon="14.2011183"><ele>22.0</ele><time>2026-05-04T13:14:02.403Z</time></trkpt><trkpt lat="41.10141" lon="14.201065"><ele>22.0</ele><time>2026-05-04T13:14:03.403Z</time></trkpt><trkpt lat="41.1013467" lon="14.2010067"><ele>22.142857142857142</ele><time>2026-05-04T13:14:04.403Z</time></trkpt><trkpt lat="41.1012833" lon="14.20095"><ele>22.285714285714285</ele><time>2026-05-04T13:14:05.403Z</time></trkpt><trkpt lat="41.10122" lon="14.200895"><ele>22.42857142857143</ele><time>2026-05-04T13:14:06.402Z</time></trkpt><trkpt lat="41.1011583" lon="14.2008467"><ele>22.57142857142857</ele><time>2026-05-04T13:14:07.403Z</time></trkpt><trkpt lat="41.1011" lon="14.200795"><ele>22.71428571428571</ele><time>2026-05-04T13:14:08.403Z</time></trkpt><trkpt lat="41.1010383" lon="14.2007417"><ele>22.857142857142858</ele><time>2026-05-04T13:14:09.403Z</time></trkpt><trkpt lat="41.1009767" lon="14.2006867"><ele>23.0</ele><time>2026-05-04T13:14:10.402Z</time></trkpt><trkpt lat="41.100915" lon="14.2006333"><ele>23.0</ele><time>2026-05-04T13:14:11.403Z</time></trkpt><trkpt lat="41.1008567" lon="14.2005817"><ele>23.0</ele><time>2026-05-04T13:14:12.403Z</time></trkpt><trkpt lat="41.1007933" lon="14.2005217"><ele>23.0</ele><time>2026-05-04T13:14:13.402Z</time></trkpt><trkpt lat="41.100735" lon="14.2004683"><ele>23.0</ele><time>2026-05-04T13:14:14.401Z</time></trkpt><trkpt lat="41.100675" lon="14.2004117"><ele>23.0</ele><time>2026-05-04T13:14:15.401Z</time></trkpt><trkpt lat="41.1006167" lon="14.2003567"><ele>23.0</ele><time>2026-05-04T13:14:16.401Z</time></trkpt><trkpt lat="41.10056" lon="14.2003017"><ele>23.0</ele><time>2026-05-04T13:14:17.402Z</time></trkpt><trkpt lat="41.1005033" lon="14.200245"><ele>23.0</ele><time>2026-05-04T13:14:18.401Z</time></trkpt><trkpt lat="41.1004417" lon="14.2001867"><ele>23.0</ele><time>2026-05-04T13:14:19.402Z</time></trkpt><trkpt lat="41.1003817" lon="14.2001283"><ele>23.0</ele><time>2026-05-04T13:14:20.401Z</time></trkpt><trkpt lat="41.10032" lon="14.20007"><ele>23.0</ele><time>2026-05-04T13:14:21.402Z</time></trkpt><trkpt lat="41.1002633" lon="14.2000133"><ele>23.0</ele><time>2026-05-04T13:14:22.401Z</time></trkpt><trkpt lat="41.1002067" lon="14.1999583"><ele>23.0</ele><time>2026-05-04T13:14:23.401Z</time></trkpt><trkpt lat="41.10015" lon="14.1999017"><ele>23.0</ele><time>2026-05-04T13:14:24.401Z</time></trkpt><trkpt lat="41.1000917" lon="14.1998483"><ele>22.857142857142858</ele><time>2026-05-04T13:14:25.403Z</time></trkpt><trkpt lat="41.1000317" lon="14.199795"><ele>22.71428571428571</ele><time>2026-05-04T13:14:26.401Z</time></trkpt><trkpt lat="41.0999733" lon="14.1997383"><ele>22.57142857142857</ele><time>2026-05-04T13:14:27.403Z</time></trkpt><trkpt lat="41.0999167" lon="14.1996883"><ele>22.42857142857143</ele><time>2026-05-04T13:14:28.401Z</time></trkpt><trkpt lat="41.09986" lon="14.1996333"><ele>22.285714285714285</ele><time>2026-05-04T13:14:29.401Z</time></trkpt><trkpt lat="41.0998" lon="14.199575"><ele>22.142857142857142</ele><time>2026-05-04T13:14:30.402Z</time></trkpt><trkpt lat="41.0997367" lon="14.1995167"><ele>22.0</ele><time>2026-05-04T13:14:31.402Z</time></trkpt><trkpt lat="41.0996767" lon="14.1994633"><ele>21.857142857142858</ele><time>2026-05-04T13:14:32.403Z</time></trkpt><trkpt lat="41.0996167" lon="14.19941"><ele>21.714285714285715</ele><time>2026-05-04T13:14:33.401Z</time></trkpt><trkpt lat="41.0995567" lon="14.1993533"><ele>21.57142857142857</ele><time>2026-05-04T13:14:34.403Z</time></trkpt><trkpt lat="41.0994967" lon="14.1992983"><ele>21.42857142857143</ele><time>2026-05-04T13:14:35.401Z</time></trkpt><trkpt lat="41.0994367" lon="14.1992417"><ele>21.285714285714285</ele><time>2026-05-04T13:14:36.402Z</time></trkpt><trkpt lat="41.0993783" lon="14.19919"><ele>21.142857142857142</ele><time>2026-05-04T13:14:37.402Z</time></trkpt><trkpt lat="41.09932" lon="14.19914"><ele>21.0</ele><time>2026-05-04T13:14:38.402Z</time></trkpt><trkpt lat="41.09926" lon="14.19909"><ele>21.0</ele><time>2026-05-04T13:14:39.402Z</time></trkpt><trkpt lat="41.0991967" lon="14.199035"><ele>21.0</ele><time>2026-05-04T13:14:40.401Z</time></trkpt><trkpt lat="41.0991367" lon="14.1989767"><ele>21.0</ele><time>2026-05-04T13:14:41.403Z</time></trkpt><trkpt lat="41.0990767" lon="14.19892"><ele>21.0</ele><time>2026-05-04T13:14:42.403Z</time></trkpt><trkpt lat="41.09902" lon="14.198865"><ele>21.0</ele><time>2026-05-04T13:14:43.402Z</time></trkpt><trkpt lat="41.0989617" lon="14.1988117"><ele>21.0</ele><time>2026-05-04T13:14:44.403Z</time></trkpt><trkpt lat="41.0989033" lon="14.198755"><ele>21.0</ele><time>2026-05-04T13:14:45.401Z</time></trkpt><trkpt lat="41.098845" lon="14.1987033"><ele>21.0</ele><time>2026-05-04T13:14:46.402Z</time></trkpt><trkpt lat="41.0987833" lon="14.19865"><ele>21.0</ele><time>2026-05-04T13:14:47.403Z</time></trkpt><trkpt lat="41.098725" lon="14.1985983"><ele>21.0</ele><time>2026-05-04T13:14:48.404Z</time></trkpt><trkpt lat="41.09867" lon="14.198545"><ele>21.0</ele><time>2026-05-04T13:14:49.402Z</time></trkpt><trkpt lat="41.0986117" lon="14.1984917"><ele>21.0</ele><time>2026-05-04T13:14:50.402Z</time></trkpt><trkpt lat="41.09855" lon="14.1984367"><ele>21.0</ele><time>2026-05-04T13:14:51.402Z</time></trkpt><trkpt lat="41.09849" lon="14.1983767"><ele>21.0</ele><time>2026-05-04T13:14:52.402Z</time></trkpt><trkpt lat="41.0984317" lon="14.19832"><ele>21.0</ele><time>2026-05-04T13:14:53.402Z</time></trkpt><trkpt lat="41.0983733" lon="14.198265"><ele>21.0</ele><time>2026-05-04T13:14:54.403Z</time></trkpt><trkpt lat="41.0983117" lon="14.19821"><ele>21.0</ele><time>2026-05-04T13:14:55.402Z</time></trkpt><trkpt lat="41.0982517" lon="14.198155"><ele>21.0</ele><time>2026-05-04T13:14:56.401Z</time></trkpt><trkpt lat="41.0981917" lon="14.1981"><ele>21.0</ele><time>2026-05-04T13:14:57.401Z</time></trkpt><trkpt lat="41.0981317" lon="14.1980433"><ele>21.0</ele><time>2026-05-04T13:14:58.401Z</time></trkpt><trkpt lat="41.0980717" lon="14.1979883"><ele>21.0</ele><time>2026-05-04T13:14:59.402Z</time></trkpt><trkpt lat="41.0980133" lon="14.19793"><ele>20.857142857142858</ele><time>2026-05-04T13:15:00.401Z</time></trkpt><trkpt lat="41.0979517" lon="14.1978717"><ele>20.714285714285715</ele><time>2026-05-04T13:15:01.401Z</time></trkpt><trkpt lat="41.09789" lon="14.197815"><ele>20.57142857142857</ele><time>2026-05-04T13:15:02.402Z</time></trkpt><trkpt lat="41.09783" lon="14.1977617"><ele>20.42857142857143</ele><time>2026-05-04T13:15:03.401Z</time></trkpt><trkpt lat="41.0977717" lon="14.1977067"><ele>20.285714285714285</ele><time>2026-05-04T13:15:04.402Z</time></trkpt><trkpt lat="41.0977133" lon="14.1976533"><ele>20.142857142857142</ele><time>2026-05-04T13:15:05.402Z</time></trkpt><trkpt lat="41.0976517" lon="14.1975967"><ele>20.0</ele><time>2026-05-04T13:15:06.401Z</time></trkpt><trkpt lat="41.0975933" lon="14.197545"><ele>20.0</ele><time>2026-05-04T13:15:07.402Z</time></trkpt><trkpt lat="41.0975333" lon="14.197495"><ele>20.0</ele><time>2026-05-04T13:15:08.402Z</time></trkpt><trkpt lat="41.0974717" lon="14.1974383"><ele>20.0</ele><time>2026-05-04T13:15:09.403Z</time></trkpt><trkpt lat="41.09741" lon="14.1973817"><ele>20.0</ele><time>2026-05-04T13:15:10.402Z</time></trkpt><trkpt lat="41.09735" lon="14.1973217"><ele>20.0</ele><time>2026-05-04T13:15:11.401Z</time></trkpt><trkpt lat="41.09729" lon="14.1972633"><ele>20.0</ele><time>2026-05-04T13:15:12.401Z</time></trkpt><trkpt lat="41.0972317" lon="14.1972067"><ele>20.0</ele><time>2026-05-04T13:15:13.403Z</time></trkpt><trkpt lat="41.0971717" lon="14.197145"><ele>19.714285714285715</ele><time>2026-05-04T13:15:14.402Z</time></trkpt><trkpt lat="41.0971117" lon="14.1970867"><ele>19.42857142857143</ele><time>2026-05-04T13:15:15.401Z</time></trkpt><trkpt lat="41.09705" lon="14.1970317"><ele>19.142857142857146</ele><time>2026-05-04T13:15:16.402Z</time></trkpt><trkpt lat="41.09699" lon="14.1969767"><ele>18.857142857142858</ele><time>2026-05-04T13:15:17.401Z</time></trkpt><trkpt lat="41.0969333" lon="14.19692"><ele>18.571428571428573</ele><time>2026-05-04T13:15:18.402Z</time></trkpt><trkpt lat="41.0968767" lon="14.196865"><ele>18.28571428571429</ele><time>2026-05-04T13:15:19.402Z</time></trkpt><trkpt lat="41.0968183" lon="14.19681"><ele>18.0</ele><time>2026-05-04T13:15:20.402Z</time></trkpt><trkpt lat="41.0967583" lon="14.1967517"><ele>18.000000000000004</ele><time>2026-05-04T13:15:21.403Z</time></trkpt><trkpt lat="41.0966983" lon="14.1966933"><ele>18.0</ele><time>2026-05-04T13:15:22.402Z</time></trkpt><trkpt lat="41.0966367" lon="14.19664"><ele>18.0</ele><time>2026-05-04T13:15:23.401Z</time></trkpt><trkpt lat="41.09658" lon="14.196585"><ele>18.0</ele><time>2026-05-04T13:15:24.403Z</time></trkpt><trkpt lat="41.09652" lon="14.1965283"><ele>18.0</ele><time>2026-05-04T13:15:25.402Z</time></trkpt><trkpt lat="41.0964617" lon="14.19647"><ele>18.000000000000004</ele><time>2026-05-04T13:15:26.404Z</time></trkpt><trkpt lat="41.0964017" lon="14.1964133"><ele>18.0</ele><time>2026-05-04T13:15:27.402Z</time></trkpt><trkpt lat="41.09634" lon="14.1963583"><ele>18.000000000000004</ele><time>2026-05-04T13:15:28.401Z</time></trkpt><trkpt lat="41.0962783" lon="14.1963033"><ele>18.0</ele><time>2026-05-04T13:15:29.401Z</time></trkpt><trkpt lat="41.09622" lon="14.1962517"><ele>18.0</ele><time>2026-05-04T13:15:30.4Z</time></trkpt><trkpt lat="41.09616" lon="14.1961933"><ele>18.0</ele><time>2026-05-04T13:15:31.402Z</time></trkpt><trkpt lat="41.0961033" lon="14.1961433"><ele>18.0</ele><time>2026-05-04T13:15:32.402Z</time></trkpt><trkpt lat="41.0960467" lon="14.1960917"><ele>18.000000000000004</ele><time>2026-05-04T13:15:33.402Z</time></trkpt><trkpt lat="41.095985" lon="14.1960333"><ele>18.0</ele><time>2026-05-04T13:15:34.403Z</time></trkpt><trkpt lat="41.095925" lon="14.19598"><ele>18.000000000000004</ele><time>2026-05-04T13:15:35.401Z</time></trkpt><trkpt lat="41.0958667" lon="14.1959233"><ele>18.0</ele><time>2026-05-04T13:15:36.402Z</time></trkpt><trkpt lat="41.0958083" lon="14.1958717"><ele>18.0</ele><time>2026-05-04T13:15:37.401Z</time></trkpt><trkpt lat="41.09575" lon="14.195815"><ele>18.0</ele><time>2026-05-04T13:15:38.402Z</time></trkpt><trkpt lat="41.0956917" lon="14.1957633"><ele>18.0</ele><time>2026-05-04T13:15:39.403Z</time></trkpt><trkpt lat="41.095635" lon="14.1957083"><ele>18.000000000000004</ele><time>2026-05-04T13:15:40.401Z</time></trkpt><trkpt lat="41.0955767" lon="14.1956533"><ele>18.0</ele><time>2026-05-04T13:15:41.402Z</time></trkpt><trkpt lat="41.09552" lon="14.1956"><ele>18.28571428571429</ele><time>2026-05-04T13:15:42.402Z</time></trkpt><trkpt lat="41.0954667" lon="14.195545"><ele>18.571428571428573</ele><time>2026-05-04T13:15:43.403Z</time></trkpt><trkpt lat="41.0954133" lon="14.1954867"><ele>18.857142857142858</ele><time>2026-05-04T13:15:44.402Z</time></trkpt><trkpt lat="41.09536" lon="14.1954267"><ele>19.142857142857146</ele><time>2026-05-04T13:15:45.401Z</time></trkpt><trkpt lat="41.095305" lon="14.1953617"><ele>19.42857142857143</ele><time>2026-05-04T13:15:46.402Z</time></trkpt><trkpt lat="41.0952517" lon="14.19529"><ele>19.714285714285715</ele><time>2026-05-04T13:15:47.401Z</time></trkpt><trkpt lat="41.0952017" lon="14.1952183"><ele>20.0</ele><time>2026-05-04T13:15:48.402Z</time></trkpt><trkpt lat="41.0951567" lon="14.1951417"><ele>20.0</ele><time>2026-05-04T13:15:49.402Z</time></trkpt><trkpt lat="41.0951117" lon="14.1950617"><ele>20.0</ele><time>2026-05-04T13:15:50.403Z</time></trkpt><trkpt lat="41.0950683" lon="14.1949817"><ele>20.0</ele><time>2026-05-04T13:15:51.402Z</time></trkpt><trkpt lat="41.0950317" lon="14.1949017"><ele>20.0</ele><time>2026-05-04T13:15:52.401Z</time></trkpt><trkpt lat="41.0949983" lon="14.1948167"><ele>20.0</ele><time>2026-05-04T13:15:53.401Z</time></trkpt><trkpt lat="41.094965" lon="14.1947367"><ele>20.0</ele><time>2026-05-04T13:15:54.402Z</time></trkpt><trkpt lat="41.094935" lon="14.1946567"><ele>20.0</ele><time>2026-05-04T13:15:55.402Z</time></trkpt><trkpt lat="41.0949033" lon="14.1945767"><ele>20.0</ele><time>2026-05-04T13:15:56.402Z</time></trkpt><trkpt lat="41.0948733" lon="14.194495"><ele>20.0</ele><time>2026-05-04T13:15:57.402Z</time></trkpt><trkpt lat="41.09484" lon="14.1944133"><ele>20.0</ele><time>2026-05-04T13:15:58.402Z</time></trkpt><trkpt lat="41.0948083" lon="14.1943317"><ele>20.0</ele><time>2026-05-04T13:15:59.401Z</time></trkpt><trkpt lat="41.0947767" lon="14.1942483"><ele>20.0</ele><time>2026-05-04T13:16:00.402Z</time></trkpt><trkpt lat="41.0947433" lon="14.1941683"><ele>20.0</ele><time>2026-05-04T13:16:01.403Z</time></trkpt><trkpt lat="41.0947117" lon="14.1940867"><ele>20.0</ele><time>2026-05-04T13:16:02.402Z</time></trkpt><trkpt lat="41.0946783" lon="14.1940017"><ele>20.0</ele><time>2026-05-04T13:16:03.401Z</time></trkpt><trkpt lat="41.094645" lon="14.1939167"><ele>20.0</ele><time>2026-05-04T13:16:04.401Z</time></trkpt><trkpt lat="41.0946117" lon="14.1938317"><ele>20.0</ele><time>2026-05-04T13:16:05.402Z</time></trkpt><trkpt lat="41.0945767" lon="14.1937467"><ele>20.0</ele><time>2026-05-04T13:16:06.401Z</time></trkpt><trkpt lat="41.094545" lon="14.1936633"><ele>20.0</ele><time>2026-05-04T13:16:07.402Z</time></trkpt><trkpt lat="41.0945133" lon="14.1935817"><ele>20.0</ele><time>2026-05-04T13:16:08.401Z</time></trkpt><trkpt lat="41.09448" lon="14.1934983"><ele>20.0</ele><time>2026-05-04T13:16:09.401Z</time></trkpt><trkpt lat="41.0944467" lon="14.1934167"><ele>20.0</ele><time>2026-05-04T13:16:10.401Z</time></trkpt><trkpt lat="41.0944133" lon="14.193335"><ele>20.0</ele><time>2026-05-04T13:16:11.401Z</time></trkpt><trkpt lat="41.09438" lon="14.1932567"><ele>20.0</ele><time>2026-05-04T13:16:12.402Z</time></trkpt><trkpt lat="41.0943483" lon="14.1931817"><ele>20.0</ele><time>2026-05-04T13:16:13.402Z</time></trkpt><trkpt lat="41.094315" lon="14.193105"><ele>20.0</ele><time>2026-05-04T13:16:14.402Z</time></trkpt><trkpt lat="41.0942833" lon="14.1930233"><ele>20.0</ele><time>2026-05-04T13:16:15.401Z</time></trkpt><trkpt lat="41.09425" lon="14.1929383"><ele>20.0</ele><time>2026-05-04T13:16:16.402Z</time></trkpt><trkpt lat="41.0942183" lon="14.192855"><ele>20.0</ele><time>2026-05-04T13:16:17.403Z</time></trkpt><trkpt lat="41.094185" lon="14.1927733"><ele>20.0</ele><time>2026-05-04T13:16:18.403Z</time></trkpt><trkpt lat="41.0941533" lon="14.1926933"><ele>20.0</ele><time>2026-05-04T13:16:19.403Z</time></trkpt><trkpt lat="41.09412" lon="14.192615"><ele>20.0</ele><time>2026-05-04T13:16:20.402Z</time></trkpt><trkpt lat="41.0940867" lon="14.192535"><ele>20.0</ele><time>2026-05-04T13:16:21.401Z</time></trkpt><trkpt lat="41.0940533" lon="14.1924583"><ele>20.0</ele><time>2026-05-04T13:16:22.402Z</time></trkpt><trkpt lat="41.09402" lon="14.1923833"><ele>20.0</ele><time>2026-05-04T13:16:23.402Z</time></trkpt><trkpt lat="41.0939867" lon="14.1923083"><ele>19.833333333333336</ele><time>2026-05-04T13:16:24.402Z</time></trkpt><trkpt lat="41.093955" lon="14.1922317"><ele>19.666666666666668</ele><time>2026-05-04T13:16:25.402Z</time></trkpt><trkpt lat="41.093925" lon="14.192155"><ele>19.5</ele><time>2026-05-04T13:16:26.402Z</time></trkpt><trkpt lat="41.093895" lon="14.1920767"><ele>19.333333333333332</ele><time>2026-05-04T13:16:27.402Z</time></trkpt><trkpt lat="41.0938667" lon="14.192"><ele>19.166666666666664</ele><time>2026-05-04T13:16:28.402Z</time></trkpt><trkpt lat="41.0938083" lon="14.191855"><ele>19.0</ele><time>2026-05-04T13:16:30.402Z</time></trkpt><trkpt lat="41.09375" lon="14.1916983"><ele>19.0</ele><time>2026-05-04T13:16:32.402Z</time></trkpt><trkpt lat="41.0937183" lon="14.19162"><ele>19.0</ele><time>2026-05-04T13:16:33.402Z</time></trkpt><trkpt lat="41.093685" lon="14.1915433"><ele>19.0</ele><time>2026-05-04T13:16:34.401Z</time></trkpt><trkpt lat="41.093655" lon="14.1914683"><ele>19.0</ele><time>2026-05-04T13:16:35.402Z</time></trkpt><trkpt lat="41.0936233" lon="14.1913933"><ele>19.0</ele><time>2026-05-04T13:16:36.401Z</time></trkpt><trkpt lat="41.0935933" lon="14.1913117"><ele>19.0</ele><time>2026-05-04T13:16:37.402Z</time></trkpt><trkpt lat="41.0935567" lon="14.1912283"><ele>19.0</ele><time>2026-05-04T13:16:38.402Z</time></trkpt><trkpt lat="41.0935217" lon="14.1911433"><ele>18.857142857142858</ele><time>2026-05-04T13:16:39.402Z</time></trkpt><trkpt lat="41.0934867" lon="14.1910617"><ele>18.714285714285715</ele><time>2026-05-04T13:16:40.402Z</time></trkpt><trkpt lat="41.093455" lon="14.19098"><ele>18.571428571428573</ele><time>2026-05-04T13:16:41.402Z</time></trkpt><trkpt lat="41.0934217" lon="14.190895"><ele>18.42857142857143</ele><time>2026-05-04T13:16:42.402Z</time></trkpt><trkpt lat="41.0933883" lon="14.19081"><ele>18.285714285714285</ele><time>2026-05-04T13:16:43.403Z</time></trkpt><trkpt lat="41.0933567" lon="14.190725"><ele>18.142857142857146</ele><time>2026-05-04T13:16:44.405Z</time></trkpt><trkpt lat="41.0933267" lon="14.1906417"><ele>18.0</ele><time>2026-05-04T13:16:45.401Z</time></trkpt><trkpt lat="41.0932933" lon="14.1905617"><ele>18.000000000000004</ele><time>2026-05-04T13:16:46.401Z</time></trkpt><trkpt lat="41.0932617" lon="14.1904783"><ele>18.0</ele><time>2026-05-04T13:16:47.403Z</time></trkpt><trkpt lat="41.09323" lon="14.1903917"><ele>18.0</ele><time>2026-05-04T13:16:48.402Z</time></trkpt><trkpt lat="41.093195" lon="14.190305"><ele>18.0</ele><time>2026-05-04T13:16:49.401Z</time></trkpt><trkpt lat="41.09316" lon="14.1902217"><ele>18.0</ele><time>2026-05-04T13:16:50.402Z</time></trkpt><trkpt lat="41.0931317" lon="14.1901383"><ele>18.000000000000004</ele><time>2026-05-04T13:16:51.402Z</time></trkpt><trkpt lat="41.0931" lon="14.190055"><ele>18.0</ele><time>2026-05-04T13:16:52.402Z</time></trkpt><trkpt lat="41.0930683" lon="14.1899717"><ele>18.0</ele><time>2026-05-04T13:16:53.402Z</time></trkpt><trkpt lat="41.0930367" lon="14.1898933"><ele>18.0</ele><time>2026-05-04T13:16:54.401Z</time></trkpt><trkpt lat="41.093005" lon="14.189815"><ele>18.0</ele><time>2026-05-04T13:16:55.401Z</time></trkpt><trkpt lat="41.0929767" lon="14.1897383"><ele>18.0</ele><time>2026-05-04T13:16:56.401Z</time></trkpt><trkpt lat="41.0929417" lon="14.1896633"><ele>18.0</ele><time>2026-05-04T13:16:57.401Z</time></trkpt><trkpt lat="41.0929067" lon="14.189585"><ele>18.0</ele><time>2026-05-04T13:16:58.403Z</time></trkpt><trkpt lat="41.0928467" lon="14.18944"><ele>18.000000000000004</ele><time>2026-05-04T13:17:00.403Z</time></trkpt><trkpt lat="41.0928133" lon="14.1893617"><ele>18.0</ele><time>2026-05-04T13:17:01.402Z</time></trkpt><trkpt lat="41.0927783" lon="14.1892817"><ele>18.0</ele><time>2026-05-04T13:17:02.401Z</time></trkpt><trkpt lat="41.092745" lon="14.1892033"><ele>18.0</ele><time>2026-05-04T13:17:03.402Z</time></trkpt><trkpt lat="41.0927167" lon="14.1891267"><ele>18.0</ele><time>2026-05-04T13:17:04.402Z</time></trkpt><trkpt lat="41.092685" lon="14.189045"><ele>18.000000000000004</ele><time>2026-05-04T13:17:05.401Z</time></trkpt><trkpt lat="41.0926533" lon="14.18896"><ele>18.0</ele><time>2026-05-04T13:17:06.402Z</time></trkpt><trkpt lat="41.0926183" lon="14.188875"><ele>18.000000000000004</ele><time>2026-05-04T13:17:07.402Z</time></trkpt><trkpt lat="41.0925833" lon="14.18879"><ele>18.0</ele><time>2026-05-04T13:17:08.402Z</time></trkpt><trkpt lat="41.09255" lon="14.188705"><ele>18.0</ele><time>2026-05-04T13:17:09.402Z</time></trkpt><trkpt lat="41.092515" lon="14.1886217"><ele>18.0</ele><time>2026-05-04T13:17:10.402Z</time></trkpt><trkpt lat="41.09248" lon="14.1885383"><ele>18.0</ele><time>2026-05-04T13:17:11.402Z</time></trkpt><trkpt lat="41.0924467" lon="14.1884533"><ele>18.000000000000004</ele><time>2026-05-04T13:17:12.402Z</time></trkpt><trkpt lat="41.0924117" lon="14.18837"><ele>18.0</ele><time>2026-05-04T13:17:13.401Z</time></trkpt><trkpt lat="41.0923767" lon="14.1882817"><ele>18.0</ele><time>2026-05-04T13:17:14.402Z</time></trkpt><trkpt lat="41.092345" lon="14.18819"><ele>18.0</ele><time>2026-05-04T13:17:15.401Z</time></trkpt><trkpt lat="41.09231" lon="14.1881017"><ele>18.0</ele><time>2026-05-04T13:17:16.402Z</time></trkpt><trkpt lat="41.0922733" lon="14.1880117"><ele>18.0</ele><time>2026-05-04T13:17:17.402Z</time></trkpt><trkpt lat="41.0922383" lon="14.18792"><ele>18.0</ele><time>2026-05-04T13:17:18.403Z</time></trkpt><trkpt lat="41.0921983" lon="14.1878367"><ele>18.0</ele><time>2026-05-04T13:17:19.402Z</time></trkpt><trkpt lat="41.0921633" lon="14.187755"><ele>18.000000000000004</ele><time>2026-05-04T13:17:20.402Z</time></trkpt><trkpt lat="41.0921283" lon="14.187675"><ele>18.0</ele><time>2026-05-04T13:17:21.402Z</time></trkpt><trkpt lat="41.092095" lon="14.187595"><ele>18.0</ele><time>2026-05-04T13:17:22.401Z</time></trkpt><trkpt lat="41.0920633" lon="14.1875083"><ele>18.0</ele><time>2026-05-04T13:17:23.402Z</time></trkpt><trkpt lat="41.0920283" lon="14.18742"><ele>18.0</ele><time>2026-05-04T13:17:24.402Z</time></trkpt><trkpt lat="41.091995" lon="14.1873317"><ele>18.000000000000004</ele><time>2026-05-04T13:17:25.403Z</time></trkpt><trkpt lat="41.09196" lon="14.18725"><ele>18.0</ele><time>2026-05-04T13:17:26.402Z</time></trkpt><trkpt lat="41.0919233" lon="14.1871617"><ele>18.000000000000004</ele><time>2026-05-04T13:17:27.402Z</time></trkpt><trkpt lat="41.0918917" lon="14.1870767"><ele>18.0</ele><time>2026-05-04T13:17:28.401Z</time></trkpt><trkpt lat="41.0918583" lon="14.1869933"><ele>18.0</ele><time>2026-05-04T13:17:29.402Z</time></trkpt><trkpt lat="41.0918233" lon="14.186905"><ele>18.0</ele><time>2026-05-04T13:17:30.402Z</time></trkpt><trkpt lat="41.0917883" lon="14.1868183"><ele>18.0</ele><time>2026-05-04T13:17:31.402Z</time></trkpt><trkpt lat="41.09175" lon="14.18673"><ele>18.000000000000004</ele><time>2026-05-04T13:17:32.402Z</time></trkpt><trkpt lat="41.0917117" lon="14.1866483"><ele>18.0</ele><time>2026-05-04T13:17:33.402Z</time></trkpt><trkpt lat="41.0916733" lon="14.1865617"><ele>18.142857142857146</ele><time>2026-05-04T13:17:34.402Z</time></trkpt><trkpt lat="41.091635" lon="14.1864767"><ele>18.285714285714285</ele><time>2026-05-04T13:17:35.406Z</time></trkpt><trkpt lat="41.0915983" lon="14.186385"><ele>18.42857142857143</ele><time>2026-05-04T13:17:36.401Z</time></trkpt><trkpt lat="41.0915633" lon="14.1862983"><ele>18.571428571428573</ele><time>2026-05-04T13:17:37.403Z</time></trkpt><trkpt lat="41.09153" lon="14.18621"><ele>18.714285714285715</ele><time>2026-05-04T13:17:38.401Z</time></trkpt><trkpt lat="41.0915033" lon="14.1861233"><ele>18.857142857142858</ele><time>2026-05-04T13:17:39.402Z</time></trkpt><trkpt lat="41.0914733" lon="14.1860383"><ele>19.0</ele><time>2026-05-04T13:17:40.405Z</time></trkpt><trkpt lat="41.09144" lon="14.1859517"><ele>18.833333333333332</ele><time>2026-05-04T13:17:41.402Z</time></trkpt><trkpt lat="41.091405" lon="14.1858633"><ele>18.666666666666664</ele><time>2026-05-04T13:17:42.402Z</time></trkpt><trkpt lat="41.09137" lon="14.185775"><ele>18.5</ele><time>2026-05-04T13:17:43.402Z</time></trkpt><trkpt lat="41.0913333" lon="14.1856883"><ele>18.333333333333332</ele><time>2026-05-04T13:17:44.401Z</time></trkpt><trkpt lat="41.0912983" lon="14.1855983"><ele>18.166666666666668</ele><time>2026-05-04T13:17:45.402Z</time></trkpt><trkpt lat="41.0912617" lon="14.18551"><ele>18.0</ele><time>2026-05-04T13:17:46.401Z</time></trkpt><trkpt lat="41.091225" lon="14.1854267"><ele>18.0</ele><time>2026-05-04T13:17:47.404Z</time></trkpt><trkpt lat="41.0911883" lon="14.1853383"><ele>18.0</ele><time>2026-05-04T13:17:48.403Z</time></trkpt><trkpt lat="41.0911533" lon="14.1852517"><ele>18.0</ele><time>2026-05-04T13:17:49.402Z</time></trkpt><trkpt lat="41.091115" lon="14.185165"><ele>18.0</ele><time>2026-05-04T13:17:50.402Z</time></trkpt><trkpt lat="41.09108" lon="14.1850733"><ele>18.0</ele><time>2026-05-04T13:17:51.403Z</time></trkpt><trkpt lat="41.0910483" lon="14.1849783"><ele>18.0</ele><time>2026-05-04T13:17:52.402Z</time></trkpt><trkpt lat="41.091015" lon="14.1848883"><ele>18.142857142857146</ele><time>2026-05-04T13:17:53.403Z</time></trkpt><trkpt lat="41.0909817" lon="14.1848"><ele>18.285714285714285</ele><time>2026-05-04T13:17:54.401Z</time></trkpt><trkpt lat="41.0909467" lon="14.1847133"><ele>18.42857142857143</ele><time>2026-05-04T13:17:55.402Z</time></trkpt><trkpt lat="41.0909133" lon="14.1846283"><ele>18.571428571428573</ele><time>2026-05-04T13:17:56.402Z</time></trkpt><trkpt lat="41.0908817" lon="14.1845433"><ele>18.714285714285715</ele><time>2026-05-04T13:17:57.403Z</time></trkpt><trkpt lat="41.0908517" lon="14.1844683"><ele>18.857142857142858</ele><time>2026-05-04T13:17:58.405Z</time></trkpt><trkpt lat="41.0908217" lon="14.1843917"><ele>19.0</ele><time>2026-05-04T13:17:59.403Z</time></trkpt><trkpt lat="41.090795" lon="14.184315"><ele>19.0</ele><time>2026-05-04T13:18:00.401Z</time></trkpt><trkpt lat="41.0907417" lon="14.18416"><ele>19.0</ele><time>2026-05-04T13:18:02.403Z</time></trkpt><trkpt lat="41.0906817" lon="14.1840217"><ele>19.0</ele><time>2026-05-04T13:18:04.407Z</time></trkpt><trkpt lat="41.0906483" lon="14.1839333"><ele>19.0</ele><time>2026-05-04T13:18:05.407Z</time></trkpt><trkpt lat="41.0906183" lon="14.1838517"><ele>19.0</ele><time>2026-05-04T13:18:06.406Z</time></trkpt><trkpt lat="41.09057" lon="14.1837117"><ele>19.0</ele><time>2026-05-04T13:18:08.404Z</time></trkpt><trkpt lat="41.0905183" lon="14.1835767"><ele>19.0</ele><time>2026-05-04T13:18:10.406Z</time></trkpt><trkpt lat="41.090465" lon="14.1834433"><ele>19.0</ele><time>2026-05-04T13:18:12.404Z</time></trkpt><trkpt lat="41.09041" lon="14.183315"><ele>19.0</ele><time>2026-05-04T13:18:14.406Z</time></trkpt><trkpt lat="41.0903617" lon="14.18319"><ele>19.0</ele><time>2026-05-04T13:18:16.407Z</time></trkpt><trkpt lat="41.0903117" lon="14.1830667"><ele>19.0</ele><time>2026-05-04T13:18:18.405Z</time></trkpt><trkpt lat="41.0902683" lon="14.1829567"><ele>19.0</ele><time>2026-05-04T13:18:20.404Z</time></trkpt><trkpt lat="41.0902233" lon="14.1828483"><ele>19.0</ele><time>2026-05-04T13:18:22.406Z</time></trkpt><trkpt lat="41.090185" lon="14.1827483"><ele>19.0</ele><time>2026-05-04T13:18:24.405Z</time></trkpt><trkpt lat="41.0901433" lon="14.1826583"><ele>19.0</ele><time>2026-05-04T13:18:26.405Z</time></trkpt><trkpt lat="41.0901117" lon="14.182575"><ele>19.0</ele><time>2026-05-04T13:18:28.404Z</time></trkpt><trkpt lat="41.0900883" lon="14.182495"><ele>19.0</ele><time>2026-05-04T13:18:30.406Z</time></trkpt><trkpt lat="41.090055" lon="14.1824133"><ele>19.0</ele><time>2026-05-04T13:18:32.406Z</time></trkpt><trkpt lat="41.090025" lon="14.1823333"><ele>19.0</ele><time>2026-05-04T13:18:34.406Z</time></trkpt><trkpt lat="41.0899933" lon="14.18225"><ele>19.0</ele><time>2026-05-04T13:18:36.405Z</time></trkpt><trkpt lat="41.0899583" lon="14.1821583"><ele>19.0</ele><time>2026-05-04T13:18:38.406Z</time></trkpt><trkpt lat="41.089925" lon="14.182065"><ele>19.0</ele><time>2026-05-04T13:18:40.404Z</time></trkpt><trkpt lat="41.0898917" lon="14.1819733"><ele>19.0</ele><time>2026-05-04T13:18:42.406Z</time></trkpt><trkpt lat="41.089855" lon="14.1818817"><ele>18.833333333333332</ele><time>2026-05-04T13:18:44.406Z</time></trkpt><trkpt lat="41.0898183" lon="14.18179"><ele>18.666666666666664</ele><time>2026-05-04T13:18:46.406Z</time></trkpt><trkpt lat="41.0897783" lon="14.1817"><ele>18.5</ele><time>2026-05-04T13:18:48.406Z</time></trkpt><trkpt lat="41.0897433" lon="14.181605"><ele>18.333333333333332</ele><time>2026-05-04T13:18:50.405Z</time></trkpt><trkpt lat="41.0897083" lon="14.181515"><ele>18.166666666666668</ele><time>2026-05-04T13:18:52.404Z</time></trkpt><trkpt lat="41.0896717" lon="14.1814267"><ele>18.0</ele><time>2026-05-04T13:18:54.405Z</time></trkpt><trkpt lat="41.0896367" lon="14.181335"><ele>18.0</ele><time>2026-05-04T13:18:56.407Z</time></trkpt><trkpt lat="41.0895983" lon="14.1812383"><ele>18.0</ele><time>2026-05-04T13:18:58.402Z</time></trkpt><trkpt lat="41.089565" lon="14.1811417"><ele>18.0</ele><time>2026-05-04T13:19:00.406Z</time></trkpt><trkpt lat="41.0895233" lon="14.18104"><ele>18.0</ele><time>2026-05-04T13:19:02.405Z</time></trkpt><trkpt lat="41.08948" lon="14.18093"><ele>18.0</ele><time>2026-05-04T13:19:04.407Z</time></trkpt><trkpt lat="41.0894333" lon="14.1808117"><ele>18.0</ele><time>2026-05-04T13:19:06.406Z</time></trkpt><trkpt lat="41.0893817" lon="14.1806867"><ele>18.25</ele><time>2026-05-04T13:19:08.406Z</time></trkpt><trkpt lat="41.089335" lon="14.180565"><ele>18.5</ele><time>2026-05-04T13:19:10.405Z</time></trkpt><trkpt lat="41.0892817" lon="14.1804367"><ele>18.75</ele><time>2026-05-04T13:19:12.405Z</time></trkpt><trkpt lat="41.0892283" lon="14.1802983"><ele>19.0</ele><time>2026-05-04T13:19:14.405Z</time></trkpt><trkpt lat="41.0891783" lon="14.18015"><ele>19.0</ele><time>2026-05-04T13:19:16.405Z</time></trkpt><trkpt lat="41.0891517" lon="14.18007"><ele>19.0</ele><time>2026-05-04T13:19:17.406Z</time></trkpt><trkpt lat="41.0891233" lon="14.1799933"><ele>19.0</ele><time>2026-05-04T13:19:18.406Z</time></trkpt><trkpt lat="41.0890667" lon="14.1798383"><ele>19.0</ele><time>2026-05-04T13:19:20.404Z</time></trkpt><trkpt lat="41.0890367" lon="14.17976"><ele>19.0</ele><time>2026-05-04T13:19:21.406Z</time></trkpt><trkpt lat="41.089005" lon="14.1796817"><ele>19.0</ele><time>2026-05-04T13:19:22.406Z</time></trkpt><trkpt lat="41.0889733" lon="14.1796017"><ele>19.0</ele><time>2026-05-04T13:19:23.405Z</time></trkpt><trkpt lat="41.0889417" lon="14.1795217"><ele>19.0</ele><time>2026-05-04T13:19:24.406Z</time></trkpt><trkpt lat="41.088905" lon="14.17944"><ele>19.0</ele><time>2026-05-04T13:19:25.407Z</time></trkpt><trkpt lat="41.08887" lon="14.1793533"><ele>19.0</ele><time>2026-05-04T13:19:26.405Z</time></trkpt><trkpt lat="41.0888317" lon="14.1792633"><ele>19.0</ele><time>2026-05-04T13:19:27.406Z</time></trkpt><trkpt lat="41.0887933" lon="14.17917"><ele>19.0</ele><time>2026-05-04T13:19:28.406Z</time></trkpt><trkpt lat="41.0887567" lon="14.17907"><ele>18.666666666666664</ele><time>2026-05-04T13:19:29.405Z</time></trkpt><trkpt lat="41.08872" lon="14.17897"><ele>18.333333333333332</ele><time>2026-05-04T13:19:30.406Z</time></trkpt><trkpt lat="41.08868" lon="14.1788683"><ele>18.0</ele><time>2026-05-04T13:19:31.405Z</time></trkpt><trkpt lat="41.0886383" lon="14.1787667"><ele>17.666666666666668</ele><time>2026-05-04T13:19:32.406Z</time></trkpt><trkpt lat="41.088595" lon="14.1786617"><ele>17.333333333333336</ele><time>2026-05-04T13:19:33.406Z</time></trkpt><trkpt lat="41.0885517" lon="14.178555"><ele>17.0</ele><time>2026-05-04T13:19:34.405Z</time></trkpt><trkpt lat="41.0885067" lon="14.178445"><ele>17.0</ele><time>2026-05-04T13:19:35.405Z</time></trkpt><trkpt lat="41.088465" lon="14.1783333"><ele>17.0</ele><time>2026-05-04T13:19:36.406Z</time></trkpt><trkpt lat="41.0884233" lon="14.1782233"><ele>17.0</ele><time>2026-05-04T13:19:37.407Z</time></trkpt><trkpt lat="41.08838" lon="14.178115"><ele>17.0</ele><time>2026-05-04T13:19:38.404Z</time></trkpt><trkpt lat="41.0883317" lon="14.1779983"><ele>17.0</ele><time>2026-05-04T13:19:39.406Z</time></trkpt><trkpt lat="41.0882867" lon="14.1778883"><ele>17.2</ele><time>2026-05-04T13:19:40.407Z</time></trkpt><trkpt lat="41.088245" lon="14.1777767"><ele>17.4</ele><time>2026-05-04T13:19:41.407Z</time></trkpt><trkpt lat="41.0882" lon="14.177665"><ele>17.6</ele><time>2026-05-04T13:19:42.407Z</time></trkpt><trkpt lat="41.0881583" lon="14.1775533"><ele>17.8</ele><time>2026-05-04T13:19:43.408Z</time></trkpt><trkpt lat="41.088115" lon="14.1774483"><ele>18.0</ele><time>2026-05-04T13:19:44.408Z</time></trkpt><trkpt lat="41.0880767" lon="14.1773467"><ele>18.0</ele><time>2026-05-04T13:19:45.406Z</time></trkpt><trkpt lat="41.08804" lon="14.17725"><ele>18.0</ele><time>2026-05-04T13:19:46.406Z</time></trkpt><trkpt lat="41.0880033" lon="14.1771567"><ele>18.0</ele><time>2026-05-04T13:19:47.404Z</time></trkpt><trkpt lat="41.087965" lon="14.1770633"><ele>18.0</ele><time>2026-05-04T13:19:48.405Z</time></trkpt><trkpt lat="41.08793" lon="14.1769733"><ele>18.0</ele><time>2026-05-04T13:19:49.407Z</time></trkpt><trkpt lat="41.0878967" lon="14.1768817"><ele>18.0</ele><time>2026-05-04T13:19:50.405Z</time></trkpt><trkpt lat="41.0878683" lon="14.176795"><ele>18.0</ele><time>2026-05-04T13:19:51.406Z</time></trkpt><trkpt lat="41.0878433" lon="14.17671"><ele>18.0</ele><time>2026-05-04T13:19:52.406Z</time></trkpt><trkpt lat="41.0878233" lon="14.176625"><ele>18.0</ele><time>2026-05-04T13:19:53.406Z</time></trkpt><trkpt lat="41.0878117" lon="14.176535"><ele>18.0</ele><time>2026-05-04T13:19:54.406Z</time></trkpt><trkpt lat="41.08781" lon="14.17637"><ele>18.0</ele><time>2026-05-04T13:19:56.404Z</time></trkpt><trkpt lat="41.0878067" lon="14.1762083"><ele>17.833333333333332</ele><time>2026-05-04T13:19:58.405Z</time></trkpt><trkpt lat="41.0878133" lon="14.1760483"><ele>17.666666666666668</ele><time>2026-05-04T13:20:00.406Z</time></trkpt><trkpt lat="41.0878267" lon="14.1759317"><ele>17.5</ele><time>2026-05-04T13:20:02.406Z</time></trkpt><trkpt lat="41.087795" lon="14.175835"><ele>17.333333333333336</ele><time>2026-05-04T13:20:06.406Z</time></trkpt><trkpt lat="41.087755" lon="14.175905"><ele>17.166666666666668</ele><time>2026-05-04T13:20:09.406Z</time></trkpt><trkpt lat="41.0877467" lon="14.1760233"><ele>17.0</ele><time>2026-05-04T13:20:12.403Z</time></trkpt><trkpt lat="41.08774" lon="14.1761067"><ele>17.0</ele><time>2026-05-04T13:20:28.403Z</time></trkpt><trkpt lat="41.0877867" lon="14.1760183"><ele>17.0</ele><time>2026-05-04T13:20:34.404Z</time></trkpt><trkpt lat="41.0878133" lon="14.1759333"><ele>17.0</ele><time>2026-05-04T13:20:36.404Z</time></trkpt><trkpt lat="41.087825" lon="14.1758317"><ele>17.0</ele><time>2026-05-04T13:20:38.403Z</time></trkpt><trkpt lat="41.0878333" lon="14.1757117"><ele>17.0</ele><time>2026-05-04T13:20:40.406Z</time></trkpt><trkpt lat="41.0878433" lon="14.1755783"><ele>17.0</ele><time>2026-05-04T13:20:42.407Z</time></trkpt><trkpt lat="41.0878517" lon="14.17543"><ele>17.0</ele><time>2026-05-04T13:20:44.407Z</time></trkpt><trkpt lat="41.087865" lon="14.1752717"><ele>17.0</ele><time>2026-05-04T13:20:46.404Z</time></trkpt><trkpt lat="41.0878817" lon="14.1751083"><ele>17.0</ele><time>2026-05-04T13:20:48.403Z</time></trkpt><trkpt lat="41.0878867" lon="14.1750217"><ele>17.0</ele><time>2026-05-04T13:20:49.404Z</time></trkpt><trkpt lat="41.0878933" lon="14.1749317"><ele>17.0</ele><time>2026-05-04T13:20:50.405Z</time></trkpt><trkpt lat="41.0879017" lon="14.1748433"><ele>17.0</ele><time>2026-05-04T13:20:51.405Z</time></trkpt><trkpt lat="41.087905" lon="14.174755"><ele>17.142857142857142</ele><time>2026-05-04T13:20:52.406Z</time></trkpt><trkpt lat="41.08791" lon="14.174665"><ele>17.285714285714285</ele><time>2026-05-04T13:20:53.403Z</time></trkpt><trkpt lat="41.0879183" lon="14.174575"><ele>17.42857142857143</ele><time>2026-05-04T13:20:54.403Z</time></trkpt><trkpt lat="41.087925" lon="14.1744833"><ele>17.57142857142857</ele><time>2026-05-04T13:20:55.403Z</time></trkpt><trkpt lat="41.0879317" lon="14.17439"><ele>17.714285714285715</ele><time>2026-05-04T13:20:56.404Z</time></trkpt><trkpt lat="41.0879433" lon="14.174295"><ele>17.857142857142858</ele><time>2026-05-04T13:20:57.406Z</time></trkpt><trkpt lat="41.0879567" lon="14.1741983"><ele>18.0</ele><time>2026-05-04T13:20:58.405Z</time></trkpt><trkpt lat="41.087965" lon="14.1741033"><ele>17.857142857142858</ele><time>2026-05-04T13:20:59.403Z</time></trkpt><trkpt lat="41.0879733" lon="14.1740083"><ele>17.714285714285715</ele><time>2026-05-04T13:21:00.403Z</time></trkpt><trkpt lat="41.0879817" lon="14.173915"><ele>17.57142857142857</ele><time>2026-05-04T13:21:01.403Z</time></trkpt><trkpt lat="41.0879883" lon="14.173825"><ele>17.42857142857143</ele><time>2026-05-04T13:21:02.407Z</time></trkpt><trkpt lat="41.088" lon="14.173735"><ele>17.285714285714285</ele><time>2026-05-04T13:21:03.407Z</time></trkpt><trkpt lat="41.0880117" lon="14.1736433"><ele>17.142857142857142</ele><time>2026-05-04T13:21:04.406Z</time></trkpt><trkpt lat="41.08802" lon="14.1735467"><ele>17.0</ele><time>2026-05-04T13:21:05.405Z</time></trkpt><trkpt lat="41.0880267" lon="14.1734567"><ele>16.999999999999996</ele><time>2026-05-04T13:21:06.407Z</time></trkpt><trkpt lat="41.0880333" lon="14.173365"><ele>17.0</ele><time>2026-05-04T13:21:07.407Z</time></trkpt><trkpt lat="41.08804" lon="14.1732733"><ele>17.0</ele><time>2026-05-04T13:21:08.407Z</time></trkpt><trkpt lat="41.08805" lon="14.1731833"><ele>17.0</ele><time>2026-05-04T13:21:09.406Z</time></trkpt><trkpt lat="41.0880617" lon="14.1730933"><ele>17.0</ele><time>2026-05-04T13:21:10.404Z</time></trkpt><trkpt lat="41.08807" lon="14.1730017"><ele>16.999999999999996</ele><time>2026-05-04T13:21:11.402Z</time></trkpt><trkpt lat="41.08808" lon="14.1729117"><ele>17.0</ele><time>2026-05-04T13:21:12.404Z</time></trkpt><trkpt lat="41.0880883" lon="14.1728183"><ele>17.142857142857142</ele><time>2026-05-04T13:21:13.408Z</time></trkpt><trkpt lat="41.0880967" lon="14.17273"><ele>17.285714285714285</ele><time>2026-05-04T13:21:14.405Z</time></trkpt><trkpt lat="41.0881067" lon="14.17264"><ele>17.42857142857143</ele><time>2026-05-04T13:21:15.405Z</time></trkpt><trkpt lat="41.0881167" lon="14.17255"><ele>17.57142857142857</ele><time>2026-05-04T13:21:16.406Z</time></trkpt><trkpt lat="41.088125" lon="14.17246"><ele>17.714285714285715</ele><time>2026-05-04T13:21:17.405Z</time></trkpt><trkpt lat="41.088135" lon="14.172365"><ele>17.857142857142858</ele><time>2026-05-04T13:21:18.404Z</time></trkpt><trkpt lat="41.0881467" lon="14.1722683"><ele>18.0</ele><time>2026-05-04T13:21:19.405Z</time></trkpt><trkpt lat="41.0881583" lon="14.17217"><ele>18.000000000000004</ele><time>2026-05-04T13:21:20.406Z</time></trkpt><trkpt lat="41.088165" lon="14.1720733"><ele>18.0</ele><time>2026-05-04T13:21:21.404Z</time></trkpt><trkpt lat="41.0881767" lon="14.1719767"><ele>18.0</ele><time>2026-05-04T13:21:22.405Z</time></trkpt><trkpt lat="41.0881867" lon="14.1718783"><ele>18.0</ele><time>2026-05-04T13:21:23.403Z</time></trkpt><trkpt lat="41.088195" lon="14.17178"><ele>18.0</ele><time>2026-05-04T13:21:24.405Z</time></trkpt><trkpt lat="41.088205" lon="14.1716883"><ele>18.000000000000004</ele><time>2026-05-04T13:21:25.406Z</time></trkpt><trkpt lat="41.08821" lon="14.171595"><ele>18.0</ele><time>2026-05-04T13:21:26.405Z</time></trkpt><trkpt lat="41.088215" lon="14.1715"><ele>17.714285714285715</ele><time>2026-05-04T13:21:27.405Z</time></trkpt><trkpt lat="41.0882233" lon="14.1714067"><ele>17.42857142857143</ele><time>2026-05-04T13:21:28.404Z</time></trkpt><trkpt lat="41.0882333" lon="14.1713167"><ele>17.142857142857142</ele><time>2026-05-04T13:21:29.405Z</time></trkpt><trkpt lat="41.0882417" lon="14.1712217"><ele>16.857142857142858</ele><time>2026-05-04T13:21:30.406Z</time></trkpt><trkpt lat="41.0882483" lon="14.1711267"><ele>16.57142857142857</ele><time>2026-05-04T13:21:31.405Z</time></trkpt><trkpt lat="41.0882567" lon="14.1710317"><ele>16.285714285714285</ele><time>2026-05-04T13:21:32.405Z</time></trkpt><trkpt lat="41.088265" lon="14.1709417"><ele>16.0</ele><time>2026-05-04T13:21:33.404Z</time></trkpt><trkpt lat="41.08827" lon="14.1708533"><ele>16.0</ele><time>2026-05-04T13:21:34.406Z</time></trkpt><trkpt lat="41.0882783" lon="14.1707667"><ele>15.999999999999998</ele><time>2026-05-04T13:21:35.405Z</time></trkpt><trkpt lat="41.0882883" lon="14.1706767"><ele>16.0</ele><time>2026-05-04T13:21:36.403Z</time></trkpt><trkpt lat="41.0882933" lon="14.1705867"><ele>16.0</ele><time>2026-05-04T13:21:37.405Z</time></trkpt><trkpt lat="41.088305" lon="14.1705"><ele>15.999999999999998</ele><time>2026-05-04T13:21:38.405Z</time></trkpt><trkpt lat="41.0883183" lon="14.17041"><ele>16.0</ele><time>2026-05-04T13:21:39.407Z</time></trkpt><trkpt lat="41.08833" lon="14.1703233"><ele>16.0</ele><time>2026-05-04T13:21:40.404Z</time></trkpt><trkpt lat="41.0883383" lon="14.1702317"><ele>16.0</ele><time>2026-05-04T13:21:41.409Z</time></trkpt><trkpt lat="41.0883433" lon="14.17014"><ele>15.999999999999998</ele><time>2026-05-04T13:21:42.408Z</time></trkpt><trkpt lat="41.08835" lon="14.1700483"><ele>16.0</ele><time>2026-05-04T13:21:43.408Z</time></trkpt><trkpt lat="41.08836" lon="14.1699583"><ele>16.0</ele><time>2026-05-04T13:21:44.407Z</time></trkpt><trkpt lat="41.0883683" lon="14.1698667"><ele>15.999999999999998</ele><time>2026-05-04T13:21:45.406Z</time></trkpt><trkpt lat="41.0883767" lon="14.16977"><ele>16.0</ele><time>2026-05-04T13:21:46.405Z</time></trkpt><trkpt lat="41.088385" lon="14.169675"><ele>16.0</ele><time>2026-05-04T13:21:47.406Z</time></trkpt><trkpt lat="41.088395" lon="14.1695833"><ele>16.142857142857142</ele><time>2026-05-04T13:21:48.406Z</time></trkpt><trkpt lat="41.088405" lon="14.1694883"><ele>16.285714285714285</ele><time>2026-05-04T13:21:49.407Z</time></trkpt><trkpt lat="41.0884133" lon="14.1693933"><ele>16.428571428571427</ele><time>2026-05-04T13:21:50.404Z</time></trkpt><trkpt lat="41.08842" lon="14.1693"><ele>16.57142857142857</ele><time>2026-05-04T13:21:51.404Z</time></trkpt><trkpt lat="41.088425" lon="14.169205"><ele>16.714285714285715</ele><time>2026-05-04T13:21:52.407Z</time></trkpt><trkpt lat="41.088435" lon="14.16911"><ele>16.857142857142854</ele><time>2026-05-04T13:21:53.407Z</time></trkpt><trkpt lat="41.0884433" lon="14.169015"><ele>17.0</ele><time>2026-05-04T13:21:54.406Z</time></trkpt><trkpt lat="41.0884517" lon="14.1689217"><ele>16.999999999999996</ele><time>2026-05-04T13:21:55.408Z</time></trkpt><trkpt lat="41.08846" lon="14.16883"><ele>17.0</ele><time>2026-05-04T13:21:56.405Z</time></trkpt><trkpt lat="41.0884667" lon="14.1687383"><ele>17.0</ele><time>2026-05-04T13:21:57.404Z</time></trkpt><trkpt lat="41.0884733" lon="14.16864"><ele>17.0</ele><time>2026-05-04T13:21:58.405Z</time></trkpt><trkpt lat="41.0884817" lon="14.168545"><ele>17.0</ele><time>2026-05-04T13:21:59.406Z</time></trkpt><trkpt lat="41.0884883" lon="14.16845"><ele>16.999999999999996</ele><time>2026-05-04T13:22:00.406Z</time></trkpt><trkpt lat="41.0884967" lon="14.1683533"><ele>17.0</ele><time>2026-05-04T13:22:01.406Z</time></trkpt><trkpt lat="41.088505" lon="14.1682533"><ele>17.0</ele><time>2026-05-04T13:22:02.405Z</time></trkpt><trkpt lat="41.0885133" lon="14.1681583"><ele>17.0</ele><time>2026-05-04T13:22:03.406Z</time></trkpt><trkpt lat="41.0885217" lon="14.168055"><ele>17.0</ele><time>2026-05-04T13:22:04.406Z</time></trkpt><trkpt lat="41.0885283" lon="14.167955"><ele>17.0</ele><time>2026-05-04T13:22:05.406Z</time></trkpt><trkpt lat="41.0885383" lon="14.1678567"><ele>17.0</ele><time>2026-05-04T13:22:06.407Z</time></trkpt><trkpt lat="41.08855" lon="14.16776"><ele>17.0</ele><time>2026-05-04T13:22:07.406Z</time></trkpt><trkpt lat="41.0885633" lon="14.1676617"><ele>17.0</ele><time>2026-05-04T13:22:08.406Z</time></trkpt><trkpt lat="41.0885717" lon="14.1675583"><ele>17.0</ele><time>2026-05-04T13:22:09.403Z</time></trkpt><trkpt lat="41.08858" lon="14.167455"><ele>17.0</ele><time>2026-05-04T13:22:10.404Z</time></trkpt><trkpt lat="41.0885883" lon="14.1673517"><ele>17.0</ele><time>2026-05-04T13:22:11.404Z</time></trkpt><trkpt lat="41.0885967" lon="14.16725"><ele>17.0</ele><time>2026-05-04T13:22:12.404Z</time></trkpt><trkpt lat="41.088605" lon="14.1671533"><ele>17.0</ele><time>2026-05-04T13:22:13.408Z</time></trkpt><trkpt lat="41.088615" lon="14.1670517"><ele>16.833333333333336</ele><time>2026-05-04T13:22:14.404Z</time></trkpt><trkpt lat="41.088625" lon="14.1669483"><ele>16.666666666666668</ele><time>2026-05-04T13:22:15.403Z</time></trkpt><trkpt lat="41.0886367" lon="14.166845"><ele>16.5</ele><time>2026-05-04T13:22:16.405Z</time></trkpt><trkpt lat="41.0886483" lon="14.166745"><ele>16.333333333333332</ele><time>2026-05-04T13:22:17.405Z</time></trkpt><trkpt lat="41.0886617" lon="14.166645"><ele>16.166666666666664</ele><time>2026-05-04T13:22:18.405Z</time></trkpt><trkpt lat="41.08867" lon="14.1665483"><ele>16.0</ele><time>2026-05-04T13:22:19.407Z</time></trkpt><trkpt lat="41.0886783" lon="14.1664517"><ele>15.999999999999998</ele><time>2026-05-04T13:22:20.405Z</time></trkpt><trkpt lat="41.0886867" lon="14.1663533"><ele>16.0</ele><time>2026-05-04T13:22:21.405Z</time></trkpt><trkpt lat="41.0886933" lon="14.1662533"><ele>16.0</ele><time>2026-05-04T13:22:22.406Z</time></trkpt><trkpt lat="41.0887033" lon="14.1661583"><ele>16.0</ele><time>2026-05-04T13:22:23.406Z</time></trkpt><trkpt lat="41.08871" lon="14.1660583"><ele>15.999999999999998</ele><time>2026-05-04T13:22:24.403Z</time></trkpt><trkpt lat="41.08872" lon="14.1659567"><ele>16.0</ele><time>2026-05-04T13:22:25.406Z</time></trkpt><trkpt lat="41.08873" lon="14.165855"><ele>15.999999999999998</ele><time>2026-05-04T13:22:26.408Z</time></trkpt><trkpt lat="41.0887417" lon="14.1657517"><ele>16.0</ele><time>2026-05-04T13:22:27.407Z</time></trkpt><trkpt lat="41.0887517" lon="14.16565"><ele>16.0</ele><time>2026-05-04T13:22:28.406Z</time></trkpt><trkpt lat="41.0887633" lon="14.165545"><ele>16.0</ele><time>2026-05-04T13:22:29.408Z</time></trkpt><trkpt lat="41.088775" lon="14.165445"><ele>15.999999999999998</ele><time>2026-05-04T13:22:30.405Z</time></trkpt><trkpt lat="41.0887883" lon="14.165345"><ele>16.0</ele><time>2026-05-04T13:22:31.406Z</time></trkpt><trkpt lat="41.088795" lon="14.1652417"><ele>16.166666666666664</ele><time>2026-05-04T13:22:32.407Z</time></trkpt><trkpt lat="41.088805" lon="14.1651383"><ele>16.333333333333332</ele><time>2026-05-04T13:22:33.403Z</time></trkpt><trkpt lat="41.088815" lon="14.1650417"><ele>16.5</ele><time>2026-05-04T13:22:34.408Z</time></trkpt><trkpt lat="41.0888267" lon="14.1649417"><ele>16.666666666666668</ele><time>2026-05-04T13:22:35.403Z</time></trkpt><trkpt lat="41.0888367" lon="14.1648433"><ele>16.833333333333336</ele><time>2026-05-04T13:22:36.408Z</time></trkpt><trkpt lat="41.0888467" lon="14.164745"><ele>17.0</ele><time>2026-05-04T13:22:37.406Z</time></trkpt><trkpt lat="41.0888567" lon="14.1646467"><ele>16.999999999999996</ele><time>2026-05-04T13:22:38.408Z</time></trkpt><trkpt lat="41.0888667" lon="14.164545"><ele>17.0</ele><time>2026-05-04T13:22:39.403Z</time></trkpt><trkpt lat="41.0888767" lon="14.164445"><ele>17.0</ele><time>2026-05-04T13:22:40.404Z</time></trkpt><trkpt lat="41.0888867" lon="14.1643483"><ele>17.0</ele><time>2026-05-04T13:22:41.408Z</time></trkpt><trkpt lat="41.088895" lon="14.16425"><ele>17.0</ele><time>2026-05-04T13:22:42.406Z</time></trkpt><trkpt lat="41.0889033" lon="14.1641533"><ele>16.999999999999996</ele><time>2026-05-04T13:22:43.408Z</time></trkpt><trkpt lat="41.0889117" lon="14.164055"><ele>17.0</ele><time>2026-05-04T13:22:44.408Z</time></trkpt><trkpt lat="41.0889183" lon="14.163955"><ele>17.142857142857142</ele><time>2026-05-04T13:22:45.408Z</time></trkpt><trkpt lat="41.0889233" lon="14.1638567"><ele>17.285714285714285</ele><time>2026-05-04T13:22:46.406Z</time></trkpt><trkpt lat="41.08893" lon="14.1637583"><ele>17.42857142857143</ele><time>2026-05-04T13:22:47.405Z</time></trkpt><trkpt lat="41.0889383" lon="14.1636633"><ele>17.57142857142857</ele><time>2026-05-04T13:22:48.404Z</time></trkpt><trkpt lat="41.088945" lon="14.16357"><ele>17.714285714285715</ele><time>2026-05-04T13:22:49.406Z</time></trkpt><trkpt lat="41.0889533" lon="14.1634767"><ele>17.857142857142858</ele><time>2026-05-04T13:22:50.405Z</time></trkpt><trkpt lat="41.0889617" lon="14.1633833"><ele>18.0</ele><time>2026-05-04T13:22:51.404Z</time></trkpt><trkpt lat="41.0889717" lon="14.1632917"><ele>18.000000000000004</ele><time>2026-05-04T13:22:52.406Z</time></trkpt><trkpt lat="41.0889767" lon="14.1631983"><ele>18.0</ele><time>2026-05-04T13:22:53.407Z</time></trkpt><trkpt lat="41.088985" lon="14.1631067"><ele>18.0</ele><time>2026-05-04T13:22:54.407Z</time></trkpt><trkpt lat="41.0889967" lon="14.1630217"><ele>18.0</ele><time>2026-05-04T13:22:55.408Z</time></trkpt><trkpt lat="41.0890083" lon="14.1629383"><ele>18.0</ele><time>2026-05-04T13:22:56.406Z</time></trkpt><trkpt lat="41.0890133" lon="14.1628483"><ele>18.000000000000004</ele><time>2026-05-04T13:22:57.407Z</time></trkpt><trkpt lat="41.0890217" lon="14.1627617"><ele>18.0</ele><time>2026-05-04T13:22:58.407Z</time></trkpt><trkpt lat="41.0890267" lon="14.1626767"><ele>18.000000000000004</ele><time>2026-05-04T13:22:59.408Z</time></trkpt><trkpt lat="41.0890317" lon="14.1625933"><ele>18.0</ele><time>2026-05-04T13:23:00.405Z</time></trkpt><trkpt lat="41.08904" lon="14.16251"><ele>18.0</ele><time>2026-05-04T13:23:01.406Z</time></trkpt><trkpt lat="41.0890483" lon="14.1624233"><ele>18.0</ele><time>2026-05-04T13:23:02.407Z</time></trkpt><trkpt lat="41.0890567" lon="14.1623367"><ele>18.0</ele><time>2026-05-04T13:23:03.406Z</time></trkpt><trkpt lat="41.0890633" lon="14.1622533"><ele>18.000000000000004</ele><time>2026-05-04T13:23:04.406Z</time></trkpt><trkpt lat="41.0890717" lon="14.1621683"><ele>18.0</ele><time>2026-05-04T13:23:05.407Z</time></trkpt><trkpt lat="41.08908" lon="14.1620833"><ele>18.000000000000004</ele><time>2026-05-04T13:23:06.404Z</time></trkpt><trkpt lat="41.08909" lon="14.162"><ele>18.0</ele><time>2026-05-04T13:23:07.405Z</time></trkpt><trkpt lat="41.0891067" lon="14.1618333"><ele>18.0</ele><time>2026-05-04T13:23:09.407Z</time></trkpt><trkpt lat="41.0891133" lon="14.16175"><ele>18.0</ele><time>2026-05-04T13:23:10.406Z</time></trkpt><trkpt lat="41.0891217" lon="14.161665"><ele>18.0</ele><time>2026-05-04T13:23:11.407Z</time></trkpt><trkpt lat="41.08913" lon="14.1615783"><ele>18.000000000000004</ele><time>2026-05-04T13:23:12.405Z</time></trkpt><trkpt lat="41.089135" lon="14.1614917"><ele>18.0</ele><time>2026-05-04T13:23:13.404Z</time></trkpt><trkpt lat="41.0891433" lon="14.1614083"><ele>18.000000000000004</ele><time>2026-05-04T13:23:14.405Z</time></trkpt><trkpt lat="41.08915" lon="14.161325"><ele>18.0</ele><time>2026-05-04T13:23:15.406Z</time></trkpt><trkpt lat="41.0891617" lon="14.16116"><ele>18.0</ele><time>2026-05-04T13:23:17.403Z</time></trkpt><trkpt lat="41.08917" lon="14.161075"><ele>18.0</ele><time>2026-05-04T13:23:18.405Z</time></trkpt><trkpt lat="41.0891767" lon="14.16099"><ele>18.0</ele><time>2026-05-04T13:23:19.404Z</time></trkpt><trkpt lat="41.0891833" lon="14.160905"><ele>18.000000000000004</ele><time>2026-05-04T13:23:20.403Z</time></trkpt><trkpt lat="41.0891883" lon="14.1608167"><ele>18.0</ele><time>2026-05-04T13:23:21.403Z</time></trkpt><trkpt lat="41.0891933" lon="14.1607283"><ele>17.857142857142858</ele><time>2026-05-04T13:23:22.404Z</time></trkpt><trkpt lat="41.0892017" lon="14.16064"><ele>17.714285714285715</ele><time>2026-05-04T13:23:23.407Z</time></trkpt><trkpt lat="41.0892067" lon="14.1605533"><ele>17.57142857142857</ele><time>2026-05-04T13:23:24.407Z</time></trkpt><trkpt lat="41.0892117" lon="14.160465"><ele>17.42857142857143</ele><time>2026-05-04T13:23:25.406Z</time></trkpt><trkpt lat="41.0892167" lon="14.1603767"><ele>17.285714285714285</ele><time>2026-05-04T13:23:26.407Z</time></trkpt><trkpt lat="41.0892217" lon="14.16029"><ele>17.142857142857142</ele><time>2026-05-04T13:23:27.404Z</time></trkpt><trkpt lat="41.08923" lon="14.1602"><ele>17.0</ele><time>2026-05-04T13:23:28.407Z</time></trkpt><trkpt lat="41.08924" lon="14.1601067"><ele>16.999999999999996</ele><time>2026-05-04T13:23:29.406Z</time></trkpt><trkpt lat="41.0892483" lon="14.160015"><ele>17.0</ele><time>2026-05-04T13:23:30.405Z</time></trkpt><trkpt lat="41.0892533" lon="14.15993"><ele>17.0</ele><time>2026-05-04T13:23:31.403Z</time></trkpt><trkpt lat="41.0892633" lon="14.1598417"><ele>17.0</ele><time>2026-05-04T13:23:32.407Z</time></trkpt><trkpt lat="41.0892733" lon="14.1597533"><ele>17.0</ele><time>2026-05-04T13:23:33.403Z</time></trkpt><trkpt lat="41.0892817" lon="14.159665"><ele>16.999999999999996</ele><time>2026-05-04T13:23:34.407Z</time></trkpt><trkpt lat="41.08929" lon="14.1595733"><ele>17.0</ele><time>2026-05-04T13:23:35.406Z</time></trkpt><trkpt lat="41.0892967" lon="14.1594833"><ele>16.857142857142854</ele><time>2026-05-04T13:23:36.407Z</time></trkpt><trkpt lat="41.089305" lon="14.15939"><ele>16.714285714285715</ele><time>2026-05-04T13:23:37.407Z</time></trkpt><trkpt lat="41.089315" lon="14.1593017"><ele>16.57142857142857</ele><time>2026-05-04T13:23:38.406Z</time></trkpt><trkpt lat="41.0893233" lon="14.15921"><ele>16.428571428571427</ele><time>2026-05-04T13:23:39.405Z</time></trkpt><trkpt lat="41.0893333" lon="14.1591183"><ele>16.285714285714285</ele><time>2026-05-04T13:23:40.406Z</time></trkpt><trkpt lat="41.0893433" lon="14.159025"><ele>16.142857142857142</ele><time>2026-05-04T13:23:41.405Z</time></trkpt><trkpt lat="41.0893517" lon="14.1589317"><ele>16.0</ele><time>2026-05-04T13:23:42.406Z</time></trkpt><trkpt lat="41.0893617" lon="14.15884"><ele>16.0</ele><time>2026-05-04T13:23:43.406Z</time></trkpt><trkpt lat="41.0893717" lon="14.15875"><ele>15.999999999999998</ele><time>2026-05-04T13:23:44.405Z</time></trkpt><trkpt lat="41.08938" lon="14.1586617"><ele>16.0</ele><time>2026-05-04T13:23:45.407Z</time></trkpt><trkpt lat="41.0893883" lon="14.1585717"><ele>16.0</ele><time>2026-05-04T13:23:46.402Z</time></trkpt><trkpt lat="41.0894" lon="14.1584767"><ele>15.999999999999998</ele><time>2026-05-04T13:23:47.403Z</time></trkpt><trkpt lat="41.0894083" lon="14.1583833"><ele>16.0</ele><time>2026-05-04T13:23:48.404Z</time></trkpt><trkpt lat="41.08942" lon="14.1582883"><ele>16.0</ele><time>2026-05-04T13:23:49.404Z</time></trkpt><trkpt lat="41.08943" lon="14.1581917"><ele>15.999999999999998</ele><time>2026-05-04T13:23:50.402Z</time></trkpt><trkpt lat="41.08944" lon="14.158095"><ele>16.0</ele><time>2026-05-04T13:23:51.404Z</time></trkpt><trkpt lat="41.08945" lon="14.1579967"><ele>16.0</ele><time>2026-05-04T13:23:52.404Z</time></trkpt><trkpt lat="41.08946" lon="14.1578967"><ele>16.0</ele><time>2026-05-04T13:23:53.407Z</time></trkpt><trkpt lat="41.0894717" lon="14.1577967"><ele>15.999999999999998</ele><time>2026-05-04T13:23:54.407Z</time></trkpt><trkpt lat="41.0894817" lon="14.157695"><ele>16.0</ele><time>2026-05-04T13:23:55.407Z</time></trkpt><trkpt lat="41.0894917" lon="14.1575917"><ele>15.999999999999998</ele><time>2026-05-04T13:23:56.406Z</time></trkpt><trkpt lat="41.0895" lon="14.1574883"><ele>16.0</ele><time>2026-05-04T13:23:57.404Z</time></trkpt><trkpt lat="41.0895083" lon="14.1573867"><ele>16.0</ele><time>2026-05-04T13:23:58.407Z</time></trkpt><trkpt lat="41.0895167" lon="14.1572833"><ele>16.0</ele><time>2026-05-04T13:23:59.404Z</time></trkpt><trkpt lat="41.0895283" lon="14.1571833"><ele>15.999999999999998</ele><time>2026-05-04T13:24:00.407Z</time></trkpt><trkpt lat="41.0895383" lon="14.1570833"><ele>16.0</ele><time>2026-05-04T13:24:01.403Z</time></trkpt><trkpt lat="41.0895467" lon="14.1569867"><ele>16.0</ele><time>2026-05-04T13:24:02.402Z</time></trkpt><trkpt lat="41.0895533" lon="14.15689"><ele>15.999999999999998</ele><time>2026-05-04T13:24:03.407Z</time></trkpt><trkpt lat="41.0895617" lon="14.156795"><ele>16.0</ele><time>2026-05-04T13:24:04.403Z</time></trkpt><trkpt lat="41.089575" lon="14.1567"><ele>16.0</ele><time>2026-05-04T13:24:05.406Z</time></trkpt><trkpt lat="41.089585" lon="14.1566033"><ele>15.999999999999998</ele><time>2026-05-04T13:24:06.407Z</time></trkpt><trkpt lat="41.08959" lon="14.1565033"><ele>16.0</ele><time>2026-05-04T13:24:07.407Z</time></trkpt><trkpt lat="41.0896" lon="14.1564033"><ele>16.0</ele><time>2026-05-04T13:24:08.403Z</time></trkpt><trkpt lat="41.0896083" lon="14.1563033"><ele>16.0</ele><time>2026-05-04T13:24:09.407Z</time></trkpt><trkpt lat="41.0896167" lon="14.1562033"><ele>15.999999999999998</ele><time>2026-05-04T13:24:10.406Z</time></trkpt><trkpt lat="41.089625" lon="14.1561067"><ele>16.0</ele><time>2026-05-04T13:24:11.402Z</time></trkpt><trkpt lat="41.0896333" lon="14.1560067"><ele>16.0</ele><time>2026-05-04T13:24:12.407Z</time></trkpt><trkpt lat="41.08964" lon="14.15591"><ele>15.999999999999998</ele><time>2026-05-04T13:24:13.405Z</time></trkpt><trkpt lat="41.08965" lon="14.15582"><ele>16.0</ele><time>2026-05-04T13:24:14.406Z</time></trkpt><trkpt lat="41.0896583" lon="14.1557267"><ele>16.0</ele><time>2026-05-04T13:24:15.406Z</time></trkpt><trkpt lat="41.089665" lon="14.15563"><ele>16.142857142857142</ele><time>2026-05-04T13:24:16.403Z</time></trkpt><trkpt lat="41.0896733" lon="14.1555367"><ele>16.285714285714285</ele><time>2026-05-04T13:24:17.405Z</time></trkpt><trkpt lat="41.0896867" lon="14.1554417"><ele>16.428571428571427</ele><time>2026-05-04T13:24:18.406Z</time></trkpt><trkpt lat="41.089695" lon="14.1553483"><ele>16.57142857142857</ele><time>2026-05-04T13:24:19.405Z</time></trkpt><trkpt lat="41.0897033" lon="14.155255"><ele>16.714285714285715</ele><time>2026-05-04T13:24:20.404Z</time></trkpt><trkpt lat="41.0897133" lon="14.15516"><ele>16.857142857142854</ele><time>2026-05-04T13:24:21.404Z</time></trkpt><trkpt lat="41.0897267" lon="14.1550667"><ele>17.0</ele><time>2026-05-04T13:24:22.403Z</time></trkpt><trkpt lat="41.0897367" lon="14.1549717"><ele>16.999999999999996</ele><time>2026-05-04T13:24:23.403Z</time></trkpt><trkpt lat="41.089745" lon="14.1548783"><ele>17.0</ele><time>2026-05-04T13:24:24.403Z</time></trkpt><trkpt lat="41.0897533" lon="14.1547817"><ele>17.0</ele><time>2026-05-04T13:24:25.407Z</time></trkpt><trkpt lat="41.0897583" lon="14.1546867"><ele>17.0</ele><time>2026-05-04T13:24:26.406Z</time></trkpt><trkpt lat="41.0897683" lon="14.1545917"><ele>17.0</ele><time>2026-05-04T13:24:27.406Z</time></trkpt><trkpt lat="41.0897767" lon="14.1544967"><ele>16.999999999999996</ele><time>2026-05-04T13:24:28.405Z</time></trkpt><trkpt lat="41.0897883" lon="14.154405"><ele>17.0</ele><time>2026-05-04T13:24:29.407Z</time></trkpt><trkpt lat="41.0897983" lon="14.1543117"><ele>16.999999999999996</ele><time>2026-05-04T13:24:30.407Z</time></trkpt><trkpt lat="41.0898083" lon="14.1542167"><ele>17.0</ele><time>2026-05-04T13:24:31.404Z</time></trkpt><trkpt lat="41.089815" lon="14.1541233"><ele>17.0</ele><time>2026-05-04T13:24:32.403Z</time></trkpt><trkpt lat="41.0898267" lon="14.1540317"><ele>17.0</ele><time>2026-05-04T13:24:33.407Z</time></trkpt><trkpt lat="41.089835" lon="14.1539383"><ele>17.0</ele><time>2026-05-04T13:24:34.404Z</time></trkpt><trkpt lat="41.0898433" lon="14.1538467"><ele>16.999999999999996</ele><time>2026-05-04T13:24:35.403Z</time></trkpt><trkpt lat="41.0898533" lon="14.153755"><ele>17.0</ele><time>2026-05-04T13:24:36.407Z</time></trkpt><trkpt lat="41.0898617" lon="14.1536633"><ele>16.857142857142854</ele><time>2026-05-04T13:24:37.406Z</time></trkpt><trkpt lat="41.0898717" lon="14.15357"><ele>16.714285714285715</ele><time>2026-05-04T13:24:38.406Z</time></trkpt><trkpt lat="41.08988" lon="14.1534767"><ele>16.57142857142857</ele><time>2026-05-04T13:24:39.407Z</time></trkpt><trkpt lat="41.08989" lon="14.153385"><ele>16.428571428571427</ele><time>2026-05-04T13:24:40.407Z</time></trkpt><trkpt lat="41.0898983" lon="14.153295"><ele>16.285714285714285</ele><time>2026-05-04T13:24:41.406Z</time></trkpt><trkpt lat="41.0899067" lon="14.153205"><ele>16.142857142857142</ele><time>2026-05-04T13:24:42.406Z</time></trkpt><trkpt lat="41.089915" lon="14.1531133"><ele>16.0</ele><time>2026-05-04T13:24:43.406Z</time></trkpt><trkpt lat="41.0899233" lon="14.1530233"><ele>16.428571428571427</ele><time>2026-05-04T13:24:44.406Z</time></trkpt><trkpt lat="41.0899317" lon="14.1529317"><ele>16.857142857142854</ele><time>2026-05-04T13:24:45.408Z</time></trkpt><trkpt lat="41.08994" lon="14.15284"><ele>17.285714285714285</ele><time>2026-05-04T13:24:46.404Z</time></trkpt><trkpt lat="41.08995" lon="14.1527483"><ele>17.714285714285715</ele><time>2026-05-04T13:24:47.404Z</time></trkpt><trkpt lat="41.0899583" lon="14.152655"><ele>18.142857142857146</ele><time>2026-05-04T13:24:48.404Z</time></trkpt><trkpt lat="41.0899667" lon="14.1525617"><ele>18.57142857142857</ele><time>2026-05-04T13:24:49.404Z</time></trkpt><trkpt lat="41.0899733" lon="14.15247"><ele>19.0</ele><time>2026-05-04T13:24:50.402Z</time></trkpt><trkpt lat="41.0899817" lon="14.1523767"><ele>18.71428571428571</ele><time>2026-05-04T13:24:51.403Z</time></trkpt><trkpt lat="41.08999" lon="14.1522833"><ele>18.42857142857143</ele><time>2026-05-04T13:24:52.404Z</time></trkpt><trkpt lat="41.0899983" lon="14.1521883"><ele>18.142857142857142</ele><time>2026-05-04T13:24:53.406Z</time></trkpt><trkpt lat="41.0900067" lon="14.1520967"><ele>17.857142857142854</ele><time>2026-05-04T13:24:54.406Z</time></trkpt><trkpt lat="41.0900133" lon="14.1520017"><ele>17.57142857142857</ele><time>2026-05-04T13:24:55.406Z</time></trkpt><trkpt lat="41.0900233" lon="14.15191"><ele>17.285714285714285</ele><time>2026-05-04T13:24:56.407Z</time></trkpt><trkpt lat="41.0900333" lon="14.1518217"><ele>17.0</ele><time>2026-05-04T13:24:57.407Z</time></trkpt><trkpt lat="41.0900433" lon="14.15173"><ele>16.999999999999996</ele><time>2026-05-04T13:24:58.405Z</time></trkpt><trkpt lat="41.0900533" lon="14.151635"><ele>17.0</ele><time>2026-05-04T13:24:59.407Z</time></trkpt><trkpt lat="41.0900617" lon="14.15154"><ele>17.0</ele><time>2026-05-04T13:25:00.405Z</time></trkpt><trkpt lat="41.09007" lon="14.1514433"><ele>17.0</ele><time>2026-05-04T13:25:01.406Z</time></trkpt><trkpt lat="41.0900783" lon="14.1513467"><ele>17.0</ele><time>2026-05-04T13:25:02.407Z</time></trkpt><trkpt lat="41.09009" lon="14.1512533"><ele>16.999999999999996</ele><time>2026-05-04T13:25:03.407Z</time></trkpt><trkpt lat="41.0900983" lon="14.1511567"><ele>17.0</ele><time>2026-05-04T13:25:04.407Z</time></trkpt><trkpt lat="41.090105" lon="14.15106"><ele>16.999999999999996</ele><time>2026-05-04T13:25:05.405Z</time></trkpt><trkpt lat="41.090115" lon="14.150965"><ele>17.0</ele><time>2026-05-04T13:25:06.407Z</time></trkpt><trkpt lat="41.0901233" lon="14.15087"><ele>17.0</ele><time>2026-05-04T13:25:07.406Z</time></trkpt><trkpt lat="41.09013" lon="14.1507783"><ele>17.0</ele><time>2026-05-04T13:25:08.406Z</time></trkpt><trkpt lat="41.0901383" lon="14.1506817"><ele>17.0</ele><time>2026-05-04T13:25:09.406Z</time></trkpt><trkpt lat="41.0901467" lon="14.1505883"><ele>16.999999999999996</ele><time>2026-05-04T13:25:10.407Z</time></trkpt><trkpt lat="41.090155" lon="14.1504933"><ele>17.0</ele><time>2026-05-04T13:25:11.406Z</time></trkpt><trkpt lat="41.0901633" lon="14.1504017"><ele>17.142857142857142</ele><time>2026-05-04T13:25:12.407Z</time></trkpt><trkpt lat="41.09017" lon="14.1503067"><ele>17.285714285714285</ele><time>2026-05-04T13:25:13.406Z</time></trkpt><trkpt lat="41.09018" lon="14.15021"><ele>17.42857142857143</ele><time>2026-05-04T13:25:14.406Z</time></trkpt><trkpt lat="41.09019" lon="14.1501167"><ele>17.57142857142857</ele><time>2026-05-04T13:25:15.407Z</time></trkpt><trkpt lat="41.0901983" lon="14.1500217"><ele>17.714285714285715</ele><time>2026-05-04T13:25:16.404Z</time></trkpt><trkpt lat="41.0902067" lon="14.1499283"><ele>17.857142857142858</ele><time>2026-05-04T13:25:17.404Z</time></trkpt><trkpt lat="41.0902133" lon="14.1498383"><ele>18.0</ele><time>2026-05-04T13:25:18.403Z</time></trkpt><trkpt lat="41.0902217" lon="14.14975"><ele>17.714285714285715</ele><time>2026-05-04T13:25:19.404Z</time></trkpt><trkpt lat="41.09023" lon="14.14966"><ele>17.42857142857143</ele><time>2026-05-04T13:25:20.403Z</time></trkpt><trkpt lat="41.09024" lon="14.14957"><ele>17.142857142857142</ele><time>2026-05-04T13:25:21.405Z</time></trkpt><trkpt lat="41.0902467" lon="14.1494783"><ele>16.857142857142858</ele><time>2026-05-04T13:25:22.403Z</time></trkpt><trkpt lat="41.0902567" lon="14.1493867"><ele>16.57142857142857</ele><time>2026-05-04T13:25:23.406Z</time></trkpt><trkpt lat="41.0902633" lon="14.149295"><ele>16.285714285714285</ele><time>2026-05-04T13:25:24.406Z</time></trkpt><trkpt lat="41.0902717" lon="14.1492033"><ele>16.0</ele><time>2026-05-04T13:25:25.407Z</time></trkpt><trkpt lat="41.09028" lon="14.149115"><ele>16.0</ele><time>2026-05-04T13:25:26.405Z</time></trkpt><trkpt lat="41.09029" lon="14.1490233"><ele>15.999999999999998</ele><time>2026-05-04T13:25:27.403Z</time></trkpt><trkpt lat="41.0902983" lon="14.1489317"><ele>16.0</ele><time>2026-05-04T13:25:28.406Z</time></trkpt><trkpt lat="41.090305" lon="14.14884"><ele>16.0</ele><time>2026-05-04T13:25:29.406Z</time></trkpt><trkpt lat="41.0903133" lon="14.1487483"><ele>15.999999999999998</ele><time>2026-05-04T13:25:30.407Z</time></trkpt><trkpt lat="41.09032" lon="14.148655"><ele>16.0</ele><time>2026-05-04T13:25:31.406Z</time></trkpt><trkpt lat="41.0903283" lon="14.1485617"><ele>16.0</ele><time>2026-05-04T13:25:32.406Z</time></trkpt><trkpt lat="41.090335" lon="14.1484717"><ele>16.0</ele><time>2026-05-04T13:25:33.406Z</time></trkpt><trkpt lat="41.0903433" lon="14.1483817"><ele>15.999999999999998</ele><time>2026-05-04T13:25:34.407Z</time></trkpt><trkpt lat="41.0903517" lon="14.1482933"><ele>16.0</ele><time>2026-05-04T13:25:35.406Z</time></trkpt><trkpt lat="41.0903583" lon="14.1482033"><ele>16.0</ele><time>2026-05-04T13:25:36.407Z</time></trkpt><trkpt lat="41.090365" lon="14.1481133"><ele>15.999999999999998</ele><time>2026-05-04T13:25:37.406Z</time></trkpt><trkpt lat="41.090375" lon="14.1480183"><ele>16.0</ele><time>2026-05-04T13:25:38.406Z</time></trkpt><trkpt lat="41.0903833" lon="14.1479233"><ele>16.0</ele><time>2026-05-04T13:25:39.406Z</time></trkpt><trkpt lat="41.0903917" lon="14.14783"><ele>16.0</ele><time>2026-05-04T13:25:40.407Z</time></trkpt><trkpt lat="41.0904" lon="14.147735"><ele>15.999999999999998</ele><time>2026-05-04T13:25:41.406Z</time></trkpt><trkpt lat="41.090405" lon="14.1476383"><ele>16.0</ele><time>2026-05-04T13:25:42.404Z</time></trkpt><trkpt lat="41.0904133" lon="14.1475433"><ele>16.0</ele><time>2026-05-04T13:25:43.404Z</time></trkpt><trkpt lat="41.090425" lon="14.14745"><ele>15.999999999999998</ele><time>2026-05-04T13:25:44.407Z</time></trkpt><trkpt lat="41.0904367" lon="14.1473567"><ele>16.0</ele><time>2026-05-04T13:25:45.403Z</time></trkpt><trkpt lat="41.0904467" lon="14.1472667"><ele>16.0</ele><time>2026-05-04T13:25:46.405Z</time></trkpt><trkpt lat="41.090455" lon="14.1471733"><ele>16.0</ele><time>2026-05-04T13:25:47.407Z</time></trkpt><trkpt lat="41.090465" lon="14.14708"><ele>15.999999999999998</ele><time>2026-05-04T13:25:48.407Z</time></trkpt><trkpt lat="41.090475" lon="14.1469883"><ele>16.0</ele><time>2026-05-04T13:25:49.406Z</time></trkpt><trkpt lat="41.0904833" lon="14.1468983"><ele>16.0</ele><time>2026-05-04T13:25:50.407Z</time></trkpt><trkpt lat="41.0904917" lon="14.1468033"><ele>15.999999999999998</ele><time>2026-05-04T13:25:51.407Z</time></trkpt><trkpt lat="41.0905017" lon="14.14671"><ele>16.0</ele><time>2026-05-04T13:25:52.402Z</time></trkpt><trkpt lat="41.09051" lon="14.1466183"><ele>16.0</ele><time>2026-05-04T13:25:53.406Z</time></trkpt><trkpt lat="41.09052" lon="14.1465267"><ele>16.0</ele><time>2026-05-04T13:25:54.405Z</time></trkpt><trkpt lat="41.0905283" lon="14.1464333"><ele>15.999999999999998</ele><time>2026-05-04T13:25:55.407Z</time></trkpt><trkpt lat="41.090535" lon="14.14634"><ele>16.0</ele><time>2026-05-04T13:25:56.403Z</time></trkpt><trkpt lat="41.0905433" lon="14.1462467"><ele>16.0</ele><time>2026-05-04T13:25:57.406Z</time></trkpt><trkpt lat="41.090555" lon="14.146155"><ele>15.999999999999998</ele><time>2026-05-04T13:25:58.406Z</time></trkpt><trkpt lat="41.0905667" lon="14.146065"><ele>16.0</ele><time>2026-05-04T13:25:59.407Z</time></trkpt><trkpt lat="41.0905783" lon="14.145975"><ele>16.0</ele><time>2026-05-04T13:26:00.405Z</time></trkpt><trkpt lat="41.090585" lon="14.1458833"><ele>16.0</ele><time>2026-05-04T13:26:01.406Z</time></trkpt><trkpt lat="41.0905883" lon="14.14579"><ele>15.999999999999998</ele><time>2026-05-04T13:26:02.406Z</time></trkpt><trkpt lat="41.0905917" lon="14.145695"><ele>16.0</ele><time>2026-05-04T13:26:03.406Z</time></trkpt><trkpt lat="41.0906" lon="14.1456"><ele>16.0</ele><time>2026-05-04T13:26:04.406Z</time></trkpt><trkpt lat="41.0906117" lon="14.1455067"><ele>15.999999999999998</ele><time>2026-05-04T13:26:05.406Z</time></trkpt><trkpt lat="41.0906217" lon="14.1454133"><ele>16.0</ele><time>2026-05-04T13:26:06.405Z</time></trkpt><trkpt lat="41.0906333" lon="14.145325"><ele>16.0</ele><time>2026-05-04T13:26:07.406Z</time></trkpt><trkpt lat="41.090645" lon="14.1452317"><ele>15.857142857142856</ele><time>2026-05-04T13:26:08.407Z</time></trkpt><trkpt lat="41.090655" lon="14.1451367"><ele>15.714285714285712</ele><time>2026-05-04T13:26:09.407Z</time></trkpt><trkpt lat="41.0906617" lon="14.1450433"><ele>15.571428571428571</ele><time>2026-05-04T13:26:10.407Z</time></trkpt><trkpt lat="41.0906667" lon="14.1449483"><ele>15.428571428571427</ele><time>2026-05-04T13:26:11.407Z</time></trkpt><trkpt lat="41.0906717" lon="14.144855"><ele>15.285714285714285</ele><time>2026-05-04T13:26:12.406Z</time></trkpt><trkpt lat="41.09068" lon="14.1447617"><ele>15.142857142857142</ele><time>2026-05-04T13:26:13.404Z</time></trkpt><trkpt lat="41.0906883" lon="14.14467"><ele>15.0</ele><time>2026-05-04T13:26:14.403Z</time></trkpt><trkpt lat="41.0906967" lon="14.144575"><ele>15.0</ele><time>2026-05-04T13:26:15.407Z</time></trkpt><trkpt lat="41.0907067" lon="14.1444817"><ele>15.0</ele><time>2026-05-04T13:26:16.403Z</time></trkpt><trkpt lat="41.090715" lon="14.1443883"><ele>15.0</ele><time>2026-05-04T13:26:17.406Z</time></trkpt><trkpt lat="41.0907267" lon="14.144295"><ele>15.0</ele><time>2026-05-04T13:26:18.405Z</time></trkpt><trkpt lat="41.090735" lon="14.1442033"><ele>15.0</ele><time>2026-05-04T13:26:19.404Z</time></trkpt><trkpt lat="41.0907433" lon="14.1441133"><ele>15.0</ele><time>2026-05-04T13:26:20.407Z</time></trkpt><trkpt lat="41.0907517" lon="14.1440267"><ele>15.0</ele><time>2026-05-04T13:26:21.404Z</time></trkpt><trkpt lat="41.0907583" lon="14.14394"><ele>15.333333333333334</ele><time>2026-05-04T13:26:22.404Z</time></trkpt><trkpt lat="41.0907683" lon="14.1437717"><ele>15.666666666666668</ele><time>2026-05-04T13:26:24.404Z</time></trkpt><trkpt lat="41.0907767" lon="14.143685"><ele>16.0</ele><time>2026-05-04T13:26:25.405Z</time></trkpt><trkpt lat="41.0907817" lon="14.1435933"><ele>16.333333333333336</ele><time>2026-05-04T13:26:26.407Z</time></trkpt><trkpt lat="41.0907883" lon="14.143505"><ele>16.666666666666668</ele><time>2026-05-04T13:26:27.403Z</time></trkpt><trkpt lat="41.0907967" lon="14.14342"><ele>17.0</ele><time>2026-05-04T13:26:28.407Z</time></trkpt><trkpt lat="41.0908017" lon="14.1433283"><ele>16.999999999999996</ele><time>2026-05-04T13:26:29.407Z</time></trkpt><trkpt lat="41.0908083" lon="14.1432383"><ele>17.0</ele><time>2026-05-04T13:26:30.406Z</time></trkpt><trkpt lat="41.0908183" lon="14.1431483"><ele>17.0</ele><time>2026-05-04T13:26:31.404Z</time></trkpt><trkpt lat="41.0908283" lon="14.1430567"><ele>17.0</ele><time>2026-05-04T13:26:32.406Z</time></trkpt><trkpt lat="41.0908383" lon="14.1429683"><ele>17.0</ele><time>2026-05-04T13:26:33.407Z</time></trkpt><trkpt lat="41.0908483" lon="14.1428817"><ele>16.999999999999996</ele><time>2026-05-04T13:26:34.407Z</time></trkpt><trkpt lat="41.090855" lon="14.1427967"><ele>17.0</ele><time>2026-05-04T13:26:35.404Z</time></trkpt><trkpt lat="41.0908633" lon="14.1427083"><ele>17.0</ele><time>2026-05-04T13:26:36.406Z</time></trkpt><trkpt lat="41.0908733" lon="14.1426233"><ele>17.0</ele><time>2026-05-04T13:26:37.407Z</time></trkpt><trkpt lat="41.0908817" lon="14.1425367"><ele>17.0</ele><time>2026-05-04T13:26:38.407Z</time></trkpt><trkpt lat="41.0908983" lon="14.1423683"><ele>17.0</ele><time>2026-05-04T13:26:40.406Z</time></trkpt><trkpt lat="41.0909067" lon="14.1422783"><ele>17.0</ele><time>2026-05-04T13:26:41.407Z</time></trkpt><trkpt lat="41.0909133" lon="14.1421867"><ele>17.0</ele><time>2026-05-04T13:26:42.406Z</time></trkpt><trkpt lat="41.0909233" lon="14.1421033"><ele>16.999999999999996</ele><time>2026-05-04T13:26:43.406Z</time></trkpt><trkpt lat="41.0909317" lon="14.142015"><ele>17.0</ele><time>2026-05-04T13:26:44.406Z</time></trkpt><trkpt lat="41.09094" lon="14.1419267"><ele>17.0</ele><time>2026-05-04T13:26:45.407Z</time></trkpt><trkpt lat="41.0909467" lon="14.1418367"><ele>17.0</ele><time>2026-05-04T13:26:46.406Z</time></trkpt><trkpt lat="41.0909583" lon="14.1417467"><ele>17.0</ele><time>2026-05-04T13:26:47.407Z</time></trkpt><trkpt lat="41.0909683" lon="14.14166"><ele>16.999999999999996</ele><time>2026-05-04T13:26:48.405Z</time></trkpt><trkpt lat="41.0909783" lon="14.1415717"><ele>17.0</ele><time>2026-05-04T13:26:49.408Z</time></trkpt><trkpt lat="41.0909883" lon="14.1414833"><ele>16.999999999999996</ele><time>2026-05-04T13:26:50.407Z</time></trkpt><trkpt lat="41.0909983" lon="14.1413933"><ele>17.0</ele><time>2026-05-04T13:26:51.407Z</time></trkpt><trkpt lat="41.091005" lon="14.1413067"><ele>17.0</ele><time>2026-05-04T13:26:52.407Z</time></trkpt><trkpt lat="41.0910133" lon="14.141215"><ele>17.0</ele><time>2026-05-04T13:26:53.407Z</time></trkpt><trkpt lat="41.0910233" lon="14.1411283"><ele>17.0</ele><time>2026-05-04T13:26:54.406Z</time></trkpt><trkpt lat="41.0910333" lon="14.1410367"><ele>16.999999999999996</ele><time>2026-05-04T13:26:55.405Z</time></trkpt><trkpt lat="41.0910417" lon="14.14094"><ele>17.0</ele><time>2026-05-04T13:26:56.404Z</time></trkpt><trkpt lat="41.0910517" lon="14.1408417"><ele>16.999999999999996</ele><time>2026-05-04T13:26:57.407Z</time></trkpt><trkpt lat="41.0910583" lon="14.14074"><ele>17.0</ele><time>2026-05-04T13:26:58.407Z</time></trkpt><trkpt lat="41.0910667" lon="14.140645"><ele>17.0</ele><time>2026-05-04T13:26:59.406Z</time></trkpt><trkpt lat="41.0910733" lon="14.1405517"><ele>17.0</ele><time>2026-05-04T13:27:00.404Z</time></trkpt><trkpt lat="41.0910783" lon="14.14046"><ele>17.0</ele><time>2026-05-04T13:27:01.404Z</time></trkpt><trkpt lat="41.09109" lon="14.1403667"><ele>16.999999999999996</ele><time>2026-05-04T13:27:02.407Z</time></trkpt><trkpt lat="41.0910983" lon="14.1402717"><ele>17.0</ele><time>2026-05-04T13:27:03.406Z</time></trkpt><trkpt lat="41.091105" lon="14.1401767"><ele>16.857142857142854</ele><time>2026-05-04T13:27:04.403Z</time></trkpt><trkpt lat="41.0911133" lon="14.1400867"><ele>16.714285714285715</ele><time>2026-05-04T13:27:05.407Z</time></trkpt><trkpt lat="41.0911233" lon="14.1399917"><ele>16.57142857142857</ele><time>2026-05-04T13:27:06.405Z</time></trkpt><trkpt lat="41.0911283" lon="14.1398933"><ele>16.428571428571427</ele><time>2026-05-04T13:27:07.406Z</time></trkpt><trkpt lat="41.091135" lon="14.1397967"><ele>16.285714285714285</ele><time>2026-05-04T13:27:08.402Z</time></trkpt><trkpt lat="41.091145" lon="14.1397033"><ele>16.142857142857142</ele><time>2026-05-04T13:27:09.406Z</time></trkpt><trkpt lat="41.091155" lon="14.1396083"><ele>16.0</ele><time>2026-05-04T13:27:10.403Z</time></trkpt><trkpt lat="41.0911633" lon="14.139515"><ele>16.0</ele><time>2026-05-04T13:27:11.407Z</time></trkpt><trkpt lat="41.0911733" lon="14.1394233"><ele>15.999999999999998</ele><time>2026-05-04T13:27:12.404Z</time></trkpt><trkpt lat="41.09118" lon="14.1393317"><ele>16.0</ele><time>2026-05-04T13:27:13.406Z</time></trkpt><trkpt lat="41.0911917" lon="14.139235"><ele>16.0</ele><time>2026-05-04T13:27:14.407Z</time></trkpt><trkpt lat="41.0912" lon="14.13914"><ele>15.999999999999998</ele><time>2026-05-04T13:27:15.406Z</time></trkpt><trkpt lat="41.09121" lon="14.1390483"><ele>16.0</ele><time>2026-05-04T13:27:16.407Z</time></trkpt><trkpt lat="41.0912167" lon="14.138955"><ele>16.0</ele><time>2026-05-04T13:27:17.402Z</time></trkpt><trkpt lat="41.0912233" lon="14.138865"><ele>16.0</ele><time>2026-05-04T13:27:18.404Z</time></trkpt><trkpt lat="41.0912283" lon="14.1387733"><ele>15.999999999999998</ele><time>2026-05-04T13:27:19.405Z</time></trkpt><trkpt lat="41.09123" lon="14.1386783"><ele>16.0</ele><time>2026-05-04T13:27:20.403Z</time></trkpt><trkpt lat="41.091235" lon="14.1385833"><ele>16.0</ele><time>2026-05-04T13:27:21.404Z</time></trkpt><trkpt lat="41.09124" lon="14.13849"><ele>15.999999999999998</ele><time>2026-05-04T13:27:22.404Z</time></trkpt><trkpt lat="41.0912483" lon="14.138395"><ele>16.0</ele><time>2026-05-04T13:27:23.404Z</time></trkpt><trkpt lat="41.0912567" lon="14.1383"><ele>16.0</ele><time>2026-05-04T13:27:24.403Z</time></trkpt><trkpt lat="41.091265" lon="14.1382033"><ele>16.142857142857142</ele><time>2026-05-04T13:27:25.404Z</time></trkpt><trkpt lat="41.0912717" lon="14.138105"><ele>16.285714285714285</ele><time>2026-05-04T13:27:26.403Z</time></trkpt><trkpt lat="41.09128" lon="14.1380067"><ele>16.428571428571427</ele><time>2026-05-04T13:27:27.404Z</time></trkpt><trkpt lat="41.09129" lon="14.1379117"><ele>16.57142857142857</ele><time>2026-05-04T13:27:28.406Z</time></trkpt><trkpt lat="41.0913" lon="14.1378167"><ele>16.714285714285715</ele><time>2026-05-04T13:27:29.405Z</time></trkpt><trkpt lat="41.0913083" lon="14.1377233"><ele>16.857142857142854</ele><time>2026-05-04T13:27:30.403Z</time></trkpt><trkpt lat="41.091315" lon="14.1376283"><ele>17.0</ele><time>2026-05-04T13:27:31.403Z</time></trkpt><trkpt lat="41.0913233" lon="14.1375367"><ele>16.999999999999996</ele><time>2026-05-04T13:27:32.406Z</time></trkpt><trkpt lat="41.0913317" lon="14.1374417"><ele>17.0</ele><time>2026-05-04T13:27:33.403Z</time></trkpt><trkpt lat="41.0913417" lon="14.1373483"><ele>17.0</ele><time>2026-05-04T13:27:34.407Z</time></trkpt><trkpt lat="41.09135" lon="14.1372567"><ele>17.0</ele><time>2026-05-04T13:27:35.406Z</time></trkpt><trkpt lat="41.09136" lon="14.1371583"><ele>17.0</ele><time>2026-05-04T13:27:36.408Z</time></trkpt><trkpt lat="41.0913683" lon="14.13706"><ele>16.999999999999996</ele><time>2026-05-04T13:27:37.406Z</time></trkpt><trkpt lat="41.0913767" lon="14.13696"><ele>17.0</ele><time>2026-05-04T13:27:38.406Z</time></trkpt><trkpt lat="41.091385" lon="14.1368633"><ele>16.999999999999996</ele><time>2026-05-04T13:27:39.406Z</time></trkpt><trkpt lat="41.09139" lon="14.1367683"><ele>17.0</ele><time>2026-05-04T13:27:40.404Z</time></trkpt><trkpt lat="41.0913967" lon="14.1366683"><ele>17.0</ele><time>2026-05-04T13:27:41.406Z</time></trkpt><trkpt lat="41.0914017" lon="14.1365683"><ele>17.0</ele><time>2026-05-04T13:27:42.407Z</time></trkpt><trkpt lat="41.09141" lon="14.1364717"><ele>17.0</ele><time>2026-05-04T13:27:43.405Z</time></trkpt><trkpt lat="41.0914183" lon="14.13638"><ele>16.999999999999996</ele><time>2026-05-04T13:27:44.402Z</time></trkpt><trkpt lat="41.0914283" lon="14.1362867"><ele>17.0</ele><time>2026-05-04T13:27:45.405Z</time></trkpt><trkpt lat="41.0914367" lon="14.136195"><ele>16.999999999999996</ele><time>2026-05-04T13:27:46.407Z</time></trkpt><trkpt lat="41.0914433" lon="14.1361"><ele>17.0</ele><time>2026-05-04T13:27:47.405Z</time></trkpt><trkpt lat="41.09145" lon="14.1360033"><ele>17.0</ele><time>2026-05-04T13:27:48.406Z</time></trkpt><trkpt lat="41.0914617" lon="14.1359117"><ele>17.0</ele><time>2026-05-04T13:27:49.404Z</time></trkpt><trkpt lat="41.09147" lon="14.1358183"><ele>17.0</ele><time>2026-05-04T13:27:50.404Z</time></trkpt><trkpt lat="41.09148" lon="14.1357233"><ele>16.999999999999996</ele><time>2026-05-04T13:27:51.403Z</time></trkpt><trkpt lat="41.0914917" lon="14.13563"><ele>17.0</ele><time>2026-05-04T13:27:52.404Z</time></trkpt><trkpt lat="41.0915017" lon="14.1355367"><ele>16.857142857142854</ele><time>2026-05-04T13:27:53.403Z</time></trkpt><trkpt lat="41.0915117" lon="14.1354417"><ele>16.714285714285715</ele><time>2026-05-04T13:27:54.404Z</time></trkpt><trkpt lat="41.0915233" lon="14.1353467"><ele>16.57142857142857</ele><time>2026-05-04T13:27:55.405Z</time></trkpt><trkpt lat="41.0915333" lon="14.13525"><ele>16.428571428571427</ele><time>2026-05-04T13:27:56.404Z</time></trkpt><trkpt lat="41.0915417" lon="14.135155"><ele>16.285714285714285</ele><time>2026-05-04T13:27:57.403Z</time></trkpt><trkpt lat="41.0915533" lon="14.1350583"><ele>16.142857142857142</ele><time>2026-05-04T13:27:58.406Z</time></trkpt><trkpt lat="41.091565" lon="14.1349583"><ele>16.0</ele><time>2026-05-04T13:27:59.407Z</time></trkpt><trkpt lat="41.0915783" lon="14.13486"><ele>15.999999999999998</ele><time>2026-05-04T13:28:00.405Z</time></trkpt><trkpt lat="41.0915883" lon="14.13476"><ele>16.0</ele><time>2026-05-04T13:28:01.406Z</time></trkpt><trkpt lat="41.0915933" lon="14.1346617"><ele>16.0</ele><time>2026-05-04T13:28:02.407Z</time></trkpt><trkpt lat="41.091595" lon="14.1345617"><ele>16.0</ele><time>2026-05-04T13:28:03.407Z</time></trkpt><trkpt lat="41.0916017" lon="14.1344633"><ele>15.999999999999998</ele><time>2026-05-04T13:28:04.406Z</time></trkpt><trkpt lat="41.0916117" lon="14.1343633"><ele>16.0</ele><time>2026-05-04T13:28:05.406Z</time></trkpt><trkpt lat="41.09162" lon="14.134265"><ele>16.142857142857142</ele><time>2026-05-04T13:28:06.406Z</time></trkpt><trkpt lat="41.0916233" lon="14.13417"><ele>16.285714285714285</ele><time>2026-05-04T13:28:07.408Z</time></trkpt><trkpt lat="41.0916317" lon="14.1340783"><ele>16.428571428571427</ele><time>2026-05-04T13:28:08.405Z</time></trkpt><trkpt lat="41.0916417" lon="14.1339933"><ele>16.57142857142857</ele><time>2026-05-04T13:28:09.407Z</time></trkpt><trkpt lat="41.0916533" lon="14.133905"><ele>16.714285714285715</ele><time>2026-05-04T13:28:10.408Z</time></trkpt><trkpt lat="41.091665" lon="14.1338167"><ele>16.857142857142854</ele><time>2026-05-04T13:28:11.407Z</time></trkpt><trkpt lat="41.0916783" lon="14.1337317"><ele>17.0</ele><time>2026-05-04T13:28:12.405Z</time></trkpt><trkpt lat="41.0916883" lon="14.133645"><ele>16.999999999999996</ele><time>2026-05-04T13:28:13.408Z</time></trkpt><trkpt lat="41.0916967" lon="14.133555"><ele>17.0</ele><time>2026-05-04T13:28:14.406Z</time></trkpt><trkpt lat="41.091705" lon="14.1334683"><ele>17.0</ele><time>2026-05-04T13:28:15.406Z</time></trkpt><trkpt lat="41.091715" lon="14.133375"><ele>17.0</ele><time>2026-05-04T13:28:16.406Z</time></trkpt><trkpt lat="41.0917233" lon="14.133285"><ele>17.0</ele><time>2026-05-04T13:28:17.404Z</time></trkpt><trkpt lat="41.09173" lon="14.1331967"><ele>16.999999999999996</ele><time>2026-05-04T13:28:18.405Z</time></trkpt><trkpt lat="41.0917383" lon="14.133105"><ele>17.0</ele><time>2026-05-04T13:28:19.405Z</time></trkpt><trkpt lat="41.0917467" lon="14.1330183"><ele>17.142857142857142</ele><time>2026-05-04T13:28:20.404Z</time></trkpt><trkpt lat="41.09175" lon="14.1329283"><ele>17.285714285714285</ele><time>2026-05-04T13:28:21.404Z</time></trkpt><trkpt lat="41.0917567" lon="14.1328417"><ele>17.42857142857143</ele><time>2026-05-04T13:28:22.405Z</time></trkpt><trkpt lat="41.091765" lon="14.1327517"><ele>17.57142857142857</ele><time>2026-05-04T13:28:23.404Z</time></trkpt><trkpt lat="41.091775" lon="14.132665"><ele>17.714285714285715</ele><time>2026-05-04T13:28:24.404Z</time></trkpt><trkpt lat="41.091785" lon="14.1325783"><ele>17.857142857142858</ele><time>2026-05-04T13:28:25.403Z</time></trkpt><trkpt lat="41.0917917" lon="14.1324867"><ele>18.0</ele><time>2026-05-04T13:28:26.405Z</time></trkpt><trkpt lat="41.0917983" lon="14.132395"><ele>18.142857142857146</ele><time>2026-05-04T13:28:27.402Z</time></trkpt><trkpt lat="41.0918033" lon="14.132305"><ele>18.285714285714285</ele><time>2026-05-04T13:28:28.405Z</time></trkpt><trkpt lat="41.0918083" lon="14.1322133"><ele>18.42857142857143</ele><time>2026-05-04T13:28:29.406Z</time></trkpt><trkpt lat="41.0918117" lon="14.1321233"><ele>18.571428571428573</ele><time>2026-05-04T13:28:30.403Z</time></trkpt><trkpt lat="41.0918217" lon="14.1320367"><ele>18.714285714285715</ele><time>2026-05-04T13:28:31.406Z</time></trkpt><trkpt lat="41.09183" lon="14.1319483"><ele>18.857142857142858</ele><time>2026-05-04T13:28:32.407Z</time></trkpt><trkpt lat="41.09184" lon="14.1318583"><ele>19.0</ele><time>2026-05-04T13:28:33.407Z</time></trkpt><trkpt lat="41.0918483" lon="14.13177"><ele>19.0</ele><time>2026-05-04T13:28:34.407Z</time></trkpt><trkpt lat="41.0918567" lon="14.1316833"><ele>19.0</ele><time>2026-05-04T13:28:35.404Z</time></trkpt><trkpt lat="41.0918683" lon="14.1315917"><ele>19.0</ele><time>2026-05-04T13:28:36.405Z</time></trkpt><trkpt lat="41.0918783" lon="14.1315033"><ele>19.0</ele><time>2026-05-04T13:28:37.408Z</time></trkpt><trkpt lat="41.091885" lon="14.1314167"><ele>19.0</ele><time>2026-05-04T13:28:38.405Z</time></trkpt><trkpt lat="41.09189" lon="14.13133"><ele>19.0</ele><time>2026-05-04T13:28:39.407Z</time></trkpt><trkpt lat="41.091895" lon="14.1312383"><ele>19.0</ele><time>2026-05-04T13:28:40.407Z</time></trkpt><trkpt lat="41.0919033" lon="14.1311467"><ele>18.857142857142858</ele><time>2026-05-04T13:28:41.406Z</time></trkpt><trkpt lat="41.09191" lon="14.1310533"><ele>18.714285714285715</ele><time>2026-05-04T13:28:42.406Z</time></trkpt><trkpt lat="41.09192" lon="14.13096"><ele>18.571428571428573</ele><time>2026-05-04T13:28:43.409Z</time></trkpt><trkpt lat="41.0919317" lon="14.13087"><ele>18.42857142857143</ele><time>2026-05-04T13:28:44.405Z</time></trkpt><trkpt lat="41.0919417" lon="14.13078"><ele>18.285714285714285</ele><time>2026-05-04T13:28:45.404Z</time></trkpt><trkpt lat="41.0919517" lon="14.1306883"><ele>18.142857142857146</ele><time>2026-05-04T13:28:46.405Z</time></trkpt><trkpt lat="41.0919583" lon="14.130595"><ele>18.0</ele><time>2026-05-04T13:28:47.405Z</time></trkpt><trkpt lat="41.0919667" lon="14.1305067"><ele>18.000000000000004</ele><time>2026-05-04T13:28:48.406Z</time></trkpt><trkpt lat="41.091975" lon="14.13042"><ele>18.0</ele><time>2026-05-04T13:28:49.409Z</time></trkpt><trkpt lat="41.0919817" lon="14.1303317"><ele>18.0</ele><time>2026-05-04T13:28:50.405Z</time></trkpt><trkpt lat="41.0919917" lon="14.130245"><ele>18.0</ele><time>2026-05-04T13:28:51.404Z</time></trkpt><trkpt lat="41.092" lon="14.130155"><ele>18.0</ele><time>2026-05-04T13:28:52.404Z</time></trkpt><trkpt lat="41.0920033" lon="14.1300633"><ele>18.000000000000004</ele><time>2026-05-04T13:28:53.406Z</time></trkpt><trkpt lat="41.0920083" lon="14.1299767"><ele>18.0</ele><time>2026-05-04T13:28:54.404Z</time></trkpt><trkpt lat="41.092015" lon="14.1298867"><ele>18.166666666666668</ele><time>2026-05-04T13:28:55.406Z</time></trkpt><trkpt lat="41.092025" lon="14.1298017"><ele>18.333333333333332</ele><time>2026-05-04T13:28:56.406Z</time></trkpt><trkpt lat="41.0920383" lon="14.129715"><ele>18.5</ele><time>2026-05-04T13:28:57.406Z</time></trkpt><trkpt lat="41.0920567" lon="14.1296333"><ele>18.666666666666664</ele><time>2026-05-04T13:28:58.404Z</time></trkpt><trkpt lat="41.0920933" lon="14.1294817"><ele>18.833333333333332</ele><time>2026-05-04T13:29:00.404Z</time></trkpt><trkpt lat="41.0921467" lon="14.1293317"><ele>19.0</ele><time>2026-05-04T13:29:02.407Z</time></trkpt><trkpt lat="41.0921833" lon="14.1291717"><ele>19.0</ele><time>2026-05-04T13:29:04.404Z</time></trkpt><trkpt lat="41.092185" lon="14.129085"><ele>19.0</ele><time>2026-05-04T13:29:05.409Z</time></trkpt><trkpt lat="41.0921767" lon="14.129"><ele>19.0</ele><time>2026-05-04T13:29:06.405Z</time></trkpt><trkpt lat="41.0921667" lon="14.1289117"><ele>19.0</ele><time>2026-05-04T13:29:07.406Z</time></trkpt><trkpt lat="41.0921533" lon="14.1288267"><ele>19.0</ele><time>2026-05-04T13:29:08.407Z</time></trkpt><trkpt lat="41.0921433" lon="14.1287433"><ele>19.0</ele><time>2026-05-04T13:29:09.405Z</time></trkpt><trkpt lat="41.0921183" lon="14.1285733"><ele>19.0</ele><time>2026-05-04T13:29:11.405Z</time></trkpt><trkpt lat="41.09211" lon="14.1284817"><ele>19.0</ele><time>2026-05-04T13:29:12.406Z</time></trkpt><trkpt lat="41.092095" lon="14.1283933"><ele>19.0</ele><time>2026-05-04T13:29:13.406Z</time></trkpt><trkpt lat="41.0920833" lon="14.1283017"><ele>19.0</ele><time>2026-05-04T13:29:14.404Z</time></trkpt><trkpt lat="41.0920733" lon="14.1282117"><ele>19.0</ele><time>2026-05-04T13:29:15.406Z</time></trkpt><trkpt lat="41.0920617" lon="14.128125"><ele>19.0</ele><time>2026-05-04T13:29:16.405Z</time></trkpt><trkpt lat="41.0920483" lon="14.12804"><ele>19.0</ele><time>2026-05-04T13:29:17.405Z</time></trkpt><trkpt lat="41.092035" lon="14.1279517"><ele>18.71428571428571</ele><time>2026-05-04T13:29:18.406Z</time></trkpt><trkpt lat="41.0920167" lon="14.1278633"><ele>18.42857142857143</ele><time>2026-05-04T13:29:19.405Z</time></trkpt><trkpt lat="41.0920033" lon="14.127775"><ele>18.142857142857142</ele><time>2026-05-04T13:29:20.406Z</time></trkpt><trkpt lat="41.091995" lon="14.1276867"><ele>17.857142857142854</ele><time>2026-05-04T13:29:21.405Z</time></trkpt><trkpt lat="41.091985" lon="14.1275983"><ele>17.57142857142857</ele><time>2026-05-04T13:29:22.405Z</time></trkpt><trkpt lat="41.0919733" lon="14.1275117"><ele>17.285714285714285</ele><time>2026-05-04T13:29:23.405Z</time></trkpt><trkpt lat="41.09196" lon="14.1274283"><ele>17.0</ele><time>2026-05-04T13:29:24.403Z</time></trkpt><trkpt lat="41.0919467" lon="14.127345"><ele>16.999999999999996</ele><time>2026-05-04T13:29:25.406Z</time></trkpt><trkpt lat="41.09193" lon="14.12726"><ele>17.0</ele><time>2026-05-04T13:29:26.405Z</time></trkpt><trkpt lat="41.0919167" lon="14.1271767"><ele>17.0</ele><time>2026-05-04T13:29:27.404Z</time></trkpt><trkpt lat="41.0919" lon="14.1270933"><ele>17.0</ele><time>2026-05-04T13:29:28.405Z</time></trkpt><trkpt lat="41.0918883" lon="14.1270067"><ele>17.0</ele><time>2026-05-04T13:29:29.406Z</time></trkpt><trkpt lat="41.091875" lon="14.1269233"><ele>16.999999999999996</ele><time>2026-05-04T13:29:30.404Z</time></trkpt><trkpt lat="41.0918617" lon="14.1268367"><ele>17.0</ele><time>2026-05-04T13:29:31.406Z</time></trkpt><trkpt lat="41.091845" lon="14.1267533"><ele>17.0</ele><time>2026-05-04T13:29:32.403Z</time></trkpt><trkpt lat="41.0918283" lon="14.12667"><ele>17.0</ele><time>2026-05-04T13:29:33.404Z</time></trkpt><trkpt lat="41.0918083" lon="14.1265067"><ele>17.0</ele><time>2026-05-04T13:29:35.406Z</time></trkpt><trkpt lat="41.091785" lon="14.126345"><ele>17.0</ele><time>2026-05-04T13:29:37.406Z</time></trkpt><trkpt lat="41.09176" lon="14.12619"><ele>17.0</ele><time>2026-05-04T13:29:39.404Z</time></trkpt><trkpt lat="41.0917417" lon="14.1260417"><ele>17.0</ele><time>2026-05-04T13:29:41.405Z</time></trkpt><trkpt lat="41.0917283" lon="14.12591"><ele>17.0</ele><time>2026-05-04T13:29:43.405Z</time></trkpt><trkpt lat="41.09171" lon="14.12578"><ele>17.0</ele><time>2026-05-04T13:29:45.405Z</time></trkpt><trkpt lat="41.0916933" lon="14.1256583"><ele>17.0</ele><time>2026-05-04T13:29:47.406Z</time></trkpt><trkpt lat="41.0916783" lon="14.1255417"><ele>17.0</ele><time>2026-05-04T13:29:49.406Z</time></trkpt><trkpt lat="41.091665" lon="14.125435"><ele>17.0</ele><time>2026-05-04T13:29:51.406Z</time></trkpt><trkpt lat="41.091655" lon="14.1253283"><ele>17.0</ele><time>2026-05-04T13:29:53.404Z</time></trkpt><trkpt lat="41.091635" lon="14.1252083"><ele>17.0</ele><time>2026-05-04T13:29:55.406Z</time></trkpt><trkpt lat="41.09161" lon="14.1250767"><ele>17.0</ele><time>2026-05-04T13:29:57.404Z</time></trkpt><trkpt lat="41.0915933" lon="14.1249333"><ele>17.0</ele><time>2026-05-04T13:29:59.405Z</time></trkpt><trkpt lat="41.09159" lon="14.1247733"><ele>17.0</ele><time>2026-05-04T13:30:01.404Z</time></trkpt><trkpt lat="41.0915817" lon="14.1246117"><ele>17.0</ele><time>2026-05-04T13:30:03.404Z</time></trkpt><trkpt lat="41.0915817" lon="14.1244483"><ele>17.0</ele><time>2026-05-04T13:30:05.405Z</time></trkpt><trkpt lat="41.0915767" lon="14.124365"><ele>17.0</ele><time>2026-05-04T13:30:06.404Z</time></trkpt><trkpt lat="41.0915717" lon="14.1242"><ele>17.0</ele><time>2026-05-04T13:30:08.405Z</time></trkpt><trkpt lat="41.0915683" lon="14.124115"><ele>16.857142857142854</ele><time>2026-05-04T13:30:09.405Z</time></trkpt><trkpt lat="41.0915617" lon="14.12403"><ele>16.714285714285715</ele><time>2026-05-04T13:30:10.406Z</time></trkpt><trkpt lat="41.091555" lon="14.1239467"><ele>16.57142857142857</ele><time>2026-05-04T13:30:11.403Z</time></trkpt><trkpt lat="41.0915517" lon="14.1238617"><ele>16.428571428571427</ele><time>2026-05-04T13:30:12.404Z</time></trkpt><trkpt lat="41.0915483" lon="14.1236933"><ele>16.285714285714285</ele><time>2026-05-04T13:30:14.404Z</time></trkpt><trkpt lat="41.091545" lon="14.1236083"><ele>16.142857142857142</ele><time>2026-05-04T13:30:15.407Z</time></trkpt><trkpt lat="41.09154" lon="14.123525"><ele>16.0</ele><time>2026-05-04T13:30:16.407Z</time></trkpt><trkpt lat="41.0915317" lon="14.12336"><ele>15.600000000000001</ele><time>2026-05-04T13:30:18.407Z</time></trkpt><trkpt lat="41.091525" lon="14.1231967"><ele>15.200000000000001</ele><time>2026-05-04T13:30:20.408Z</time></trkpt><trkpt lat="41.091525" lon="14.12303"><ele>14.799999999999999</ele><time>2026-05-04T13:30:22.404Z</time></trkpt><trkpt lat="41.0915183" lon="14.1228667"><ele>14.399999999999999</ele><time>2026-05-04T13:30:24.407Z</time></trkpt><trkpt lat="41.091515" lon="14.12278"><ele>14.0</ele><time>2026-05-04T13:30:25.407Z</time></trkpt><trkpt lat="41.0915117" lon="14.122695"><ele>14.0</ele><time>2026-05-04T13:30:26.406Z</time></trkpt><trkpt lat="41.09151" lon="14.1226083"><ele>13.999999999999998</ele><time>2026-05-04T13:30:27.404Z</time></trkpt><trkpt lat="41.09151" lon="14.1225233"><ele>13.999999999999998</ele><time>2026-05-04T13:30:28.404Z</time></trkpt><trkpt lat="41.0915083" lon="14.1223583"><ele>14.0</ele><time>2026-05-04T13:30:30.404Z</time></trkpt><trkpt lat="41.0915" lon="14.1221917"><ele>14.0</ele><time>2026-05-04T13:30:32.404Z</time></trkpt><trkpt lat="41.0914933" lon="14.122025"><ele>14.166666666666668</ele><time>2026-05-04T13:30:34.406Z</time></trkpt><trkpt lat="41.0914933" lon="14.1219383"><ele>14.333333333333334</ele><time>2026-05-04T13:30:35.405Z</time></trkpt><trkpt lat="41.0914883" lon="14.1217717"><ele>14.5</ele><time>2026-05-04T13:30:37.404Z</time></trkpt><trkpt lat="41.091485" lon="14.121605"><ele>14.666666666666668</ele><time>2026-05-04T13:30:39.407Z</time></trkpt><trkpt lat="41.091485" lon="14.12152"><ele>14.833333333333334</ele><time>2026-05-04T13:30:40.406Z</time></trkpt><trkpt lat="41.09148" lon="14.121435"><ele>15.0</ele><time>2026-05-04T13:30:41.407Z</time></trkpt><trkpt lat="41.091475" lon="14.1213517"><ele>15.25</ele><time>2026-05-04T13:30:42.405Z</time></trkpt><trkpt lat="41.0914683" lon="14.12119"><ele>15.5</ele><time>2026-05-04T13:30:44.407Z</time></trkpt><trkpt lat="41.091465" lon="14.1210333"><ele>15.75</ele><time>2026-05-04T13:30:46.404Z</time></trkpt><trkpt lat="41.0914617" lon="14.1208883"><ele>16.0</ele><time>2026-05-04T13:30:48.406Z</time></trkpt><trkpt lat="41.0914633" lon="14.1207467"><ele>15.8</ele><time>2026-05-04T13:30:50.404Z</time></trkpt><trkpt lat="41.09146" lon="14.120605"><ele>15.600000000000001</ele><time>2026-05-04T13:30:52.404Z</time></trkpt><trkpt lat="41.091445" lon="14.1204617"><ele>15.4</ele><time>2026-05-04T13:30:54.408Z</time></trkpt><trkpt lat="41.0914333" lon="14.1203133"><ele>15.2</ele><time>2026-05-04T13:30:56.405Z</time></trkpt><trkpt lat="41.0914383" lon="14.1201583"><ele>15.0</ele><time>2026-05-04T13:30:58.407Z</time></trkpt><trkpt lat="41.0914433" lon="14.1199983"><ele>15.0</ele><time>2026-05-04T13:31:00.406Z</time></trkpt><trkpt lat="41.0914417" lon="14.1199117"><ele>15.0</ele><time>2026-05-04T13:31:01.406Z</time></trkpt><trkpt lat="41.091435" lon="14.1197483"><ele>15.0</ele><time>2026-05-04T13:31:03.403Z</time></trkpt><trkpt lat="41.0914267" lon="14.1195883"><ele>15.0</ele><time>2026-05-04T13:31:05.406Z</time></trkpt><trkpt lat="41.09142" lon="14.1194267"><ele>15.0</ele><time>2026-05-04T13:31:07.407Z</time></trkpt><trkpt lat="41.0914133" lon="14.1192683"><ele>15.0</ele><time>2026-05-04T13:31:09.403Z</time></trkpt><trkpt lat="41.091405" lon="14.1191133"><ele>15.0</ele><time>2026-05-04T13:31:11.407Z</time></trkpt><trkpt lat="41.0913967" lon="14.1189583"><ele>15.0</ele><time>2026-05-04T13:31:13.406Z</time></trkpt><trkpt lat="41.0913883" lon="14.1187983"><ele>15.0</ele><time>2026-05-04T13:31:15.406Z</time></trkpt><trkpt lat="41.0913767" lon="14.1186467"><ele>15.0</ele><time>2026-05-04T13:31:17.408Z</time></trkpt><trkpt lat="41.0913717" lon="14.1184983"><ele>15.0</ele><time>2026-05-04T13:31:19.406Z</time></trkpt><trkpt lat="41.091375" lon="14.1183383"><ele>15.0</ele><time>2026-05-04T13:31:21.405Z</time></trkpt><trkpt lat="41.09137" lon="14.1181783"><ele>15.0</ele><time>2026-05-04T13:31:23.408Z</time></trkpt><trkpt lat="41.0913667" lon="14.11802"><ele>14.5</ele><time>2026-05-04T13:31:25.408Z</time></trkpt><trkpt lat="41.09136" lon="14.1178583"><ele>14.0</ele><time>2026-05-04T13:31:27.407Z</time></trkpt><trkpt lat="41.0913583" lon="14.117695"><ele>13.5</ele><time>2026-05-04T13:31:29.406Z</time></trkpt><trkpt lat="41.0913517" lon="14.1175367"><ele>13.0</ele><time>2026-05-04T13:31:31.406Z</time></trkpt><trkpt lat="41.091345" lon="14.1173717"><ele>12.8</ele><time>2026-05-04T13:31:33.407Z</time></trkpt><trkpt lat="41.0913433" lon="14.117205"><ele>12.600000000000001</ele><time>2026-05-04T13:31:35.407Z</time></trkpt><trkpt lat="41.09134" lon="14.1171183"><ele>12.399999999999999</ele><time>2026-05-04T13:31:36.406Z</time></trkpt><trkpt lat="41.0913317" lon="14.116955"><ele>12.2</ele><time>2026-05-04T13:31:38.405Z</time></trkpt><trkpt lat="41.0913233" lon="14.1167983"><ele>12.0</ele><time>2026-05-04T13:31:40.406Z</time></trkpt><trkpt lat="41.091315" lon="14.116635"><ele>12.333333333333334</ele><time>2026-05-04T13:31:42.404Z</time></trkpt><trkpt lat="41.09131" lon="14.1164717"><ele>12.666666666666668</ele><time>2026-05-04T13:31:44.406Z</time></trkpt><trkpt lat="41.091305" lon="14.1163067"><ele>13.0</ele><time>2026-05-04T13:31:46.407Z</time></trkpt><trkpt lat="41.0913" lon="14.1162233"><ele>13.333333333333334</ele><time>2026-05-04T13:31:47.407Z</time></trkpt><trkpt lat="41.0912933" lon="14.11614"><ele>13.666666666666668</ele><time>2026-05-04T13:31:48.407Z</time></trkpt><trkpt lat="41.091285" lon="14.1160533"><ele>14.0</ele><time>2026-05-04T13:31:49.408Z</time></trkpt><trkpt lat="41.091285" lon="14.1159683"><ele>14.000000000000002</ele><time>2026-05-04T13:31:50.407Z</time></trkpt><trkpt lat="41.0912917" lon="14.115885"><ele>14.0</ele><time>2026-05-04T13:31:51.406Z</time></trkpt><trkpt lat="41.091295" lon="14.1158"><ele>14.0</ele><time>2026-05-04T13:31:52.407Z</time></trkpt><trkpt lat="41.0912933" lon="14.115715"><ele>14.0</ele><time>2026-05-04T13:31:53.407Z</time></trkpt><trkpt lat="41.0912867" lon="14.1155517"><ele>14.000000000000002</ele><time>2026-05-04T13:31:55.409Z</time></trkpt><trkpt lat="41.09128" lon="14.115385"><ele>14.0</ele><time>2026-05-04T13:31:57.407Z</time></trkpt><trkpt lat="41.09128" lon="14.1153"><ele>14.0</ele><time>2026-05-04T13:31:58.408Z</time></trkpt><trkpt lat="41.091275" lon="14.115135"><ele>14.0</ele><time>2026-05-04T13:32:00.408Z</time></trkpt><trkpt lat="41.0912717" lon="14.1149667"><ele>14.0</ele><time>2026-05-04T13:32:02.407Z</time></trkpt><trkpt lat="41.0912667" lon="14.1148017"><ele>14.0</ele><time>2026-05-04T13:32:04.407Z</time></trkpt><trkpt lat="41.09126" lon="14.1146367"><ele>14.000000000000002</ele><time>2026-05-04T13:32:06.408Z</time></trkpt><trkpt lat="41.091255" lon="14.11447"><ele>14.0</ele><time>2026-05-04T13:32:08.407Z</time></trkpt><trkpt lat="41.0912533" lon="14.114385"><ele>14.0</ele><time>2026-05-04T13:32:09.407Z</time></trkpt><trkpt lat="41.0912483" lon="14.1142983"><ele>14.0</ele><time>2026-05-04T13:32:10.408Z</time></trkpt><trkpt lat="41.091245" lon="14.1142133"><ele>14.000000000000002</ele><time>2026-05-04T13:32:11.408Z</time></trkpt><trkpt lat="41.0912433" lon="14.1141267"><ele>14.0</ele><time>2026-05-04T13:32:12.408Z</time></trkpt><trkpt lat="41.091235" lon="14.11396"><ele>14.0</ele><time>2026-05-04T13:32:14.407Z</time></trkpt><trkpt lat="41.0912333" lon="14.113875"><ele>14.0</ele><time>2026-05-04T13:32:15.408Z</time></trkpt><trkpt lat="41.0912333" lon="14.1137883"><ele>14.0</ele><time>2026-05-04T13:32:16.407Z</time></trkpt><trkpt lat="41.09123" lon="14.1137"><ele>14.0</ele><time>2026-05-04T13:32:17.408Z</time></trkpt><trkpt lat="41.0912267" lon="14.113615"><ele>14.0</ele><time>2026-05-04T13:32:18.406Z</time></trkpt><trkpt lat="41.0912233" lon="14.113525"><ele>14.0</ele><time>2026-05-04T13:32:19.408Z</time></trkpt><trkpt lat="41.0912233" lon="14.113435"><ele>14.0</ele><time>2026-05-04T13:32:20.408Z</time></trkpt><trkpt lat="41.0912217" lon="14.1133417"><ele>14.0</ele><time>2026-05-04T13:32:21.407Z</time></trkpt><trkpt lat="41.0912183" lon="14.11325"><ele>14.0</ele><time>2026-05-04T13:32:22.407Z</time></trkpt><trkpt lat="41.0912167" lon="14.1131617"><ele>14.0</ele><time>2026-05-04T13:32:23.404Z</time></trkpt><trkpt lat="41.0912133" lon="14.11307"><ele>14.0</ele><time>2026-05-04T13:32:24.406Z</time></trkpt><trkpt lat="41.0912083" lon="14.1129817"><ele>14.0</ele><time>2026-05-04T13:32:25.408Z</time></trkpt><trkpt lat="41.0912033" lon="14.1128917"><ele>14.0</ele><time>2026-05-04T13:32:26.406Z</time></trkpt><trkpt lat="41.0912017" lon="14.112805"><ele>14.0</ele><time>2026-05-04T13:32:27.404Z</time></trkpt><trkpt lat="41.0911983" lon="14.1127133"><ele>14.142857142857142</ele><time>2026-05-04T13:32:28.403Z</time></trkpt><trkpt lat="41.0911933" lon="14.1126217"><ele>14.285714285714285</ele><time>2026-05-04T13:32:29.406Z</time></trkpt><trkpt lat="41.0911883" lon="14.1125333"><ele>14.428571428571429</ele><time>2026-05-04T13:32:30.408Z</time></trkpt><trkpt lat="41.0911833" lon="14.1124433"><ele>14.571428571428571</ele><time>2026-05-04T13:32:31.407Z</time></trkpt><trkpt lat="41.0911783" lon="14.1123567"><ele>14.714285714285714</ele><time>2026-05-04T13:32:32.408Z</time></trkpt><trkpt lat="41.0911717" lon="14.1122683"><ele>14.857142857142858</ele><time>2026-05-04T13:32:33.406Z</time></trkpt><trkpt lat="41.0911683" lon="14.1121817"><ele>15.0</ele><time>2026-05-04T13:32:34.407Z</time></trkpt><trkpt lat="41.0911667" lon="14.1120917"><ele>14.714285714285715</ele><time>2026-05-04T13:32:35.403Z</time></trkpt><trkpt lat="41.09116" lon="14.112"><ele>14.428571428571427</ele><time>2026-05-04T13:32:36.407Z</time></trkpt><trkpt lat="41.0911533" lon="14.11191"><ele>14.142857142857142</ele><time>2026-05-04T13:32:37.408Z</time></trkpt><trkpt lat="41.0911517" lon="14.11182"><ele>13.857142857142858</ele><time>2026-05-04T13:32:38.407Z</time></trkpt><trkpt lat="41.0911517" lon="14.111735"><ele>13.571428571428573</ele><time>2026-05-04T13:32:39.405Z</time></trkpt><trkpt lat="41.0911517" lon="14.1116483"><ele>13.285714285714285</ele><time>2026-05-04T13:32:40.407Z</time></trkpt><trkpt lat="41.0911483" lon="14.11156"><ele>13.0</ele><time>2026-05-04T13:32:41.406Z</time></trkpt><trkpt lat="41.091145" lon="14.11147"><ele>12.999999999999998</ele><time>2026-05-04T13:32:42.405Z</time></trkpt><trkpt lat="41.0911433" lon="14.11138"><ele>13.0</ele><time>2026-05-04T13:32:43.405Z</time></trkpt><trkpt lat="41.0911417" lon="14.1112933"><ele>13.0</ele><time>2026-05-04T13:32:44.407Z</time></trkpt><trkpt lat="41.0911383" lon="14.1111317"><ele>13.0</ele><time>2026-05-04T13:32:46.407Z</time></trkpt><trkpt lat="41.0911367" lon="14.1109733"><ele>12.999999999999998</ele><time>2026-05-04T13:32:48.406Z</time></trkpt><trkpt lat="41.0911333" lon="14.1108883"><ele>13.0</ele><time>2026-05-04T13:32:49.408Z</time></trkpt><trkpt lat="41.0911267" lon="14.1108017"><ele>13.285714285714285</ele><time>2026-05-04T13:32:50.407Z</time></trkpt><trkpt lat="41.091125" lon="14.1107133"><ele>13.571428571428573</ele><time>2026-05-04T13:32:51.407Z</time></trkpt><trkpt lat="41.09112" lon="14.1106217"><ele>13.857142857142858</ele><time>2026-05-04T13:32:52.407Z</time></trkpt><trkpt lat="41.0911167" lon="14.11053"><ele>14.142857142857142</ele><time>2026-05-04T13:32:53.407Z</time></trkpt><trkpt lat="41.0911133" lon="14.1104367"><ele>14.428571428571427</ele><time>2026-05-04T13:32:54.406Z</time></trkpt><trkpt lat="41.09111" lon="14.1103433"><ele>14.714285714285715</ele><time>2026-05-04T13:32:55.408Z</time></trkpt><trkpt lat="41.091105" lon="14.11025"><ele>15.0</ele><time>2026-05-04T13:32:56.405Z</time></trkpt><trkpt lat="41.0911017" lon="14.1101617"><ele>15.0</ele><time>2026-05-04T13:32:57.407Z</time></trkpt><trkpt lat="41.0911017" lon="14.110075"><ele>15.0</ele><time>2026-05-04T13:32:58.406Z</time></trkpt><trkpt lat="41.0911" lon="14.1099883"><ele>15.0</ele><time>2026-05-04T13:32:59.406Z</time></trkpt><trkpt lat="41.0910983" lon="14.1099033"><ele>15.0</ele><time>2026-05-04T13:33:00.406Z</time></trkpt><trkpt lat="41.0910967" lon="14.1098167"><ele>15.0</ele><time>2026-05-04T13:33:01.407Z</time></trkpt><trkpt lat="41.0910883" lon="14.1097267"><ele>15.0</ele><time>2026-05-04T13:33:02.407Z</time></trkpt><trkpt lat="41.0910833" lon="14.1096433"><ele>15.0</ele><time>2026-05-04T13:33:03.405Z</time></trkpt><trkpt lat="41.0910783" lon="14.1095517"><ele>15.0</ele><time>2026-05-04T13:33:04.407Z</time></trkpt><trkpt lat="41.0910767" lon="14.1094617"><ele>15.0</ele><time>2026-05-04T13:33:05.403Z</time></trkpt><trkpt lat="41.0910733" lon="14.1093717"><ele>15.0</ele><time>2026-05-04T13:33:06.406Z</time></trkpt><trkpt lat="41.0910717" lon="14.1092783"><ele>15.0</ele><time>2026-05-04T13:33:07.407Z</time></trkpt><trkpt lat="41.09107" lon="14.1091867"><ele>15.0</ele><time>2026-05-04T13:33:08.407Z</time></trkpt><trkpt lat="41.091065" lon="14.109095"><ele>15.0</ele><time>2026-05-04T13:33:09.407Z</time></trkpt><trkpt lat="41.0910567" lon="14.1090033"><ele>15.0</ele><time>2026-05-04T13:33:10.405Z</time></trkpt><trkpt lat="41.0910467" lon="14.1089133"><ele>15.0</ele><time>2026-05-04T13:33:11.407Z</time></trkpt><trkpt lat="41.0910417" lon="14.1088183"><ele>15.0</ele><time>2026-05-04T13:33:12.405Z</time></trkpt><trkpt lat="41.0910433" lon="14.1087233"><ele>15.0</ele><time>2026-05-04T13:33:13.407Z</time></trkpt><trkpt lat="41.091045" lon="14.1086283"><ele>15.0</ele><time>2026-05-04T13:33:14.405Z</time></trkpt><trkpt lat="41.0910433" lon="14.108535"><ele>15.0</ele><time>2026-05-04T13:33:15.404Z</time></trkpt><trkpt lat="41.0910383" lon="14.1084417"><ele>15.0</ele><time>2026-05-04T13:33:16.406Z</time></trkpt><trkpt lat="41.0910333" lon="14.1083483"><ele>15.0</ele><time>2026-05-04T13:33:17.406Z</time></trkpt><trkpt lat="41.091025" lon="14.108255"><ele>15.0</ele><time>2026-05-04T13:33:18.407Z</time></trkpt><trkpt lat="41.0910217" lon="14.1081633"><ele>15.0</ele><time>2026-05-04T13:33:19.404Z</time></trkpt><trkpt lat="41.0910167" lon="14.1080683"><ele>15.0</ele><time>2026-05-04T13:33:20.408Z</time></trkpt><trkpt lat="41.09101" lon="14.1079733"><ele>15.0</ele><time>2026-05-04T13:33:21.407Z</time></trkpt><trkpt lat="41.091005" lon="14.1078767"><ele>15.0</ele><time>2026-05-04T13:33:22.407Z</time></trkpt><trkpt lat="41.0910033" lon="14.1077833"><ele>15.0</ele><time>2026-05-04T13:33:23.404Z</time></trkpt><trkpt lat="41.091" lon="14.1076867"><ele>15.0</ele><time>2026-05-04T13:33:24.406Z</time></trkpt><trkpt lat="41.091" lon="14.1075983"><ele>15.0</ele><time>2026-05-04T13:33:25.407Z</time></trkpt><trkpt lat="41.091" lon="14.10751"><ele>15.0</ele><time>2026-05-04T13:33:26.407Z</time></trkpt><trkpt lat="41.0909967" lon="14.10742"><ele>15.0</ele><time>2026-05-04T13:33:27.407Z</time></trkpt><trkpt lat="41.090995" lon="14.1073333"><ele>15.0</ele><time>2026-05-04T13:33:28.407Z</time></trkpt><trkpt lat="41.0909917" lon="14.1072467"><ele>15.0</ele><time>2026-05-04T13:33:29.403Z</time></trkpt><trkpt lat="41.0909883" lon="14.1070817"><ele>15.0</ele><time>2026-05-04T13:33:31.407Z</time></trkpt><trkpt lat="41.0909833" lon="14.1069917"><ele>15.0</ele><time>2026-05-04T13:33:32.407Z</time></trkpt><trkpt lat="41.090985" lon="14.1069"><ele>15.0</ele><time>2026-05-04T13:33:33.407Z</time></trkpt><trkpt lat="41.0909833" lon="14.1068117"><ele>15.0</ele><time>2026-05-04T13:33:34.406Z</time></trkpt><trkpt lat="41.0909817" lon="14.1067233"><ele>15.0</ele><time>2026-05-04T13:33:35.406Z</time></trkpt><trkpt lat="41.09098" lon="14.1066333"><ele>15.0</ele><time>2026-05-04T13:33:36.409Z</time></trkpt><trkpt lat="41.09098" lon="14.1065417"><ele>15.0</ele><time>2026-05-04T13:33:37.408Z</time></trkpt><trkpt lat="41.0909783" lon="14.1064517"><ele>15.0</ele><time>2026-05-04T13:33:38.403Z</time></trkpt><trkpt lat="41.0909733" lon="14.10636"><ele>15.0</ele><time>2026-05-04T13:33:39.403Z</time></trkpt><trkpt lat="41.0909733" lon="14.1062683"><ele>15.0</ele><time>2026-05-04T13:33:40.404Z</time></trkpt><trkpt lat="41.0909683" lon="14.1061783"><ele>15.0</ele><time>2026-05-04T13:33:41.404Z</time></trkpt><trkpt lat="41.090965" lon="14.106085"><ele>15.0</ele><time>2026-05-04T13:33:42.405Z</time></trkpt><trkpt lat="41.0909633" lon="14.105995"><ele>15.0</ele><time>2026-05-04T13:33:43.405Z</time></trkpt><trkpt lat="41.09096" lon="14.105905"><ele>15.0</ele><time>2026-05-04T13:33:44.407Z</time></trkpt><trkpt lat="41.0909567" lon="14.1058133"><ele>15.0</ele><time>2026-05-04T13:33:45.404Z</time></trkpt><trkpt lat="41.0909517" lon="14.1057283"><ele>15.0</ele><time>2026-05-04T13:33:46.404Z</time></trkpt><trkpt lat="41.0909483" lon="14.1056433"><ele>15.0</ele><time>2026-05-04T13:33:47.404Z</time></trkpt><trkpt lat="41.0909467" lon="14.105555"><ele>15.0</ele><time>2026-05-04T13:33:48.403Z</time></trkpt><trkpt lat="41.0909417" lon="14.1054683"><ele>15.0</ele><time>2026-05-04T13:33:49.405Z</time></trkpt><trkpt lat="41.09094" lon="14.1053833"><ele>15.0</ele><time>2026-05-04T13:33:50.406Z</time></trkpt><trkpt lat="41.090935" lon="14.105295"><ele>15.0</ele><time>2026-05-04T13:33:51.404Z</time></trkpt><trkpt lat="41.0909333" lon="14.10521"><ele>15.0</ele><time>2026-05-04T13:33:52.404Z</time></trkpt><trkpt lat="41.0909283" lon="14.1051267"><ele>15.0</ele><time>2026-05-04T13:33:53.405Z</time></trkpt><trkpt lat="41.0909267" lon="14.10504"><ele>15.0</ele><time>2026-05-04T13:33:54.406Z</time></trkpt><trkpt lat="41.090925" lon="14.1049533"><ele>15.0</ele><time>2026-05-04T13:33:55.406Z</time></trkpt><trkpt lat="41.09092" lon="14.10487"><ele>15.0</ele><time>2026-05-04T13:33:56.406Z</time></trkpt><trkpt lat="41.0909083" lon="14.1047117"><ele>15.0</ele><time>2026-05-04T13:33:58.407Z</time></trkpt><trkpt lat="41.0909117" lon="14.1045567"><ele>15.0</ele><time>2026-05-04T13:34:00.406Z</time></trkpt><trkpt lat="41.0909083" lon="14.1043983"><ele>15.25</ele><time>2026-05-04T13:34:02.407Z</time></trkpt><trkpt lat="41.0909033" lon="14.104235"><ele>15.5</ele><time>2026-05-04T13:34:04.407Z</time></trkpt><trkpt lat="41.090905" lon="14.104085"><ele>15.75</ele><time>2026-05-04T13:34:06.406Z</time></trkpt><trkpt lat="41.0909033" lon="14.1039383"><ele>16.0</ele><time>2026-05-04T13:34:08.408Z</time></trkpt><trkpt lat="41.0909" lon="14.10378"><ele>16.0</ele><time>2026-05-04T13:34:10.404Z</time></trkpt><trkpt lat="41.0908967" lon="14.103695"><ele>15.999999999999998</ele><time>2026-05-04T13:34:11.405Z</time></trkpt><trkpt lat="41.0908933" lon="14.10361"><ele>16.0</ele><time>2026-05-04T13:34:12.404Z</time></trkpt><trkpt lat="41.09089" lon="14.1035233"><ele>16.0</ele><time>2026-05-04T13:34:13.406Z</time></trkpt><trkpt lat="41.090885" lon="14.1034333"><ele>15.999999999999998</ele><time>2026-05-04T13:34:14.405Z</time></trkpt><trkpt lat="41.0908833" lon="14.103345"><ele>16.0</ele><time>2026-05-04T13:34:15.404Z</time></trkpt><trkpt lat="41.0908783" lon="14.1032583"><ele>16.0</ele><time>2026-05-04T13:34:16.406Z</time></trkpt><trkpt lat="41.0908733" lon="14.103175"><ele>16.0</ele><time>2026-05-04T13:34:17.406Z</time></trkpt><trkpt lat="41.09087" lon="14.10309"><ele>16.0</ele><time>2026-05-04T13:34:18.403Z</time></trkpt><trkpt lat="41.09086" lon="14.1029367"><ele>16.0</ele><time>2026-05-04T13:34:20.405Z</time></trkpt><trkpt lat="41.0908483" lon="14.102785"><ele>16.0</ele><time>2026-05-04T13:34:22.406Z</time></trkpt><trkpt lat="41.0907933" lon="14.1026617"><ele>16.0</ele><time>2026-05-04T13:34:24.407Z</time></trkpt><trkpt lat="41.0907283" lon="14.1025267"><ele>16.0</ele><time>2026-05-04T13:34:26.406Z</time></trkpt><trkpt lat="41.090695" lon="14.1024517"><ele>15.999999999999998</ele><time>2026-05-04T13:34:27.408Z</time></trkpt><trkpt lat="41.09066" lon="14.1023733"><ele>16.0</ele><time>2026-05-04T13:34:28.408Z</time></trkpt><trkpt lat="41.0906267" lon="14.1022933"><ele>16.0</ele><time>2026-05-04T13:34:29.408Z</time></trkpt><trkpt lat="41.0905917" lon="14.1022133"><ele>15.999999999999998</ele><time>2026-05-04T13:34:30.406Z</time></trkpt><trkpt lat="41.0905533" lon="14.102135"><ele>16.0</ele><time>2026-05-04T13:34:31.409Z</time></trkpt><trkpt lat="41.0905167" lon="14.1020567"><ele>16.0</ele><time>2026-05-04T13:34:32.405Z</time></trkpt><trkpt lat="41.0904833" lon="14.1019767"><ele>15.857142857142856</ele><time>2026-05-04T13:34:33.404Z</time></trkpt><trkpt lat="41.0904517" lon="14.101895"><ele>15.714285714285712</ele><time>2026-05-04T13:34:34.404Z</time></trkpt><trkpt lat="41.0904167" lon="14.1018167"><ele>15.571428571428571</ele><time>2026-05-04T13:34:35.406Z</time></trkpt><trkpt lat="41.090385" lon="14.1017367"><ele>15.428571428571427</ele><time>2026-05-04T13:34:36.405Z</time></trkpt><trkpt lat="41.0903533" lon="14.10166"><ele>15.285714285714285</ele><time>2026-05-04T13:34:37.407Z</time></trkpt><trkpt lat="41.0903217" lon="14.1015833"><ele>15.142857142857142</ele><time>2026-05-04T13:34:38.405Z</time></trkpt><trkpt lat="41.0902917" lon="14.1015067"><ele>15.0</ele><time>2026-05-04T13:34:39.406Z</time></trkpt><trkpt lat="41.0902617" lon="14.101425"><ele>15.0</ele><time>2026-05-04T13:34:40.408Z</time></trkpt><trkpt lat="41.09023" lon="14.1013483"><ele>15.0</ele><time>2026-05-04T13:34:41.403Z</time></trkpt><trkpt lat="41.0902017" lon="14.10127"><ele>15.0</ele><time>2026-05-04T13:34:42.403Z</time></trkpt><trkpt lat="41.0901717" lon="14.1011917"><ele>15.0</ele><time>2026-05-04T13:34:43.407Z</time></trkpt><trkpt lat="41.0901383" lon="14.1011117"><ele>15.0</ele><time>2026-05-04T13:34:44.407Z</time></trkpt><trkpt lat="41.0901033" lon="14.1010333"><ele>15.0</ele><time>2026-05-04T13:34:45.408Z</time></trkpt><trkpt lat="41.0900683" lon="14.1009567"><ele>15.0</ele><time>2026-05-04T13:34:46.407Z</time></trkpt><trkpt lat="41.0900333" lon="14.1008817"><ele>15.0</ele><time>2026-05-04T13:34:47.403Z</time></trkpt><trkpt lat="41.09" lon="14.1008017"><ele>15.0</ele><time>2026-05-04T13:34:48.406Z</time></trkpt><trkpt lat="41.0899633" lon="14.100725"><ele>15.0</ele><time>2026-05-04T13:34:49.406Z</time></trkpt><trkpt lat="41.0899283" lon="14.1006467"><ele>15.0</ele><time>2026-05-04T13:34:50.406Z</time></trkpt><trkpt lat="41.089895" lon="14.1005667"><ele>15.0</ele><time>2026-05-04T13:34:51.404Z</time></trkpt><trkpt lat="41.0898583" lon="14.100485"><ele>15.0</ele><time>2026-05-04T13:34:52.406Z</time></trkpt><trkpt lat="41.0898233" lon="14.1004067"><ele>15.0</ele><time>2026-05-04T13:34:53.408Z</time></trkpt><trkpt lat="41.08979" lon="14.1003283"><ele>15.0</ele><time>2026-05-04T13:34:54.403Z</time></trkpt><trkpt lat="41.089755" lon="14.1002567"><ele>15.0</ele><time>2026-05-04T13:34:55.407Z</time></trkpt><trkpt lat="41.0896933" lon="14.1001083"><ele>15.0</ele><time>2026-05-04T13:34:57.406Z</time></trkpt><trkpt lat="41.0896633" lon="14.10003"><ele>15.0</ele><time>2026-05-04T13:34:58.408Z</time></trkpt><trkpt lat="41.0896317" lon="14.0999517"><ele>15.0</ele><time>2026-05-04T13:34:59.405Z</time></trkpt><trkpt lat="41.0896" lon="14.0998767"><ele>15.0</ele><time>2026-05-04T13:35:00.405Z</time></trkpt><trkpt lat="41.0895633" lon="14.0998083"><ele>14.714285714285715</ele><time>2026-05-04T13:35:01.404Z</time></trkpt><trkpt lat="41.0895233" lon="14.09974"><ele>14.428571428571427</ele><time>2026-05-04T13:35:02.407Z</time></trkpt><trkpt lat="41.089485" lon="14.0996717"><ele>14.142857142857142</ele><time>2026-05-04T13:35:03.403Z</time></trkpt><trkpt lat="41.0894533" lon="14.099595"><ele>13.857142857142858</ele><time>2026-05-04T13:35:04.408Z</time></trkpt><trkpt lat="41.08943" lon="14.0995133"><ele>13.571428571428573</ele><time>2026-05-04T13:35:05.406Z</time></trkpt><trkpt lat="41.089405" lon="14.0994333"><ele>13.285714285714285</ele><time>2026-05-04T13:35:06.404Z</time></trkpt><trkpt lat="41.0893783" lon="14.0993533"><ele>13.0</ele><time>2026-05-04T13:35:07.404Z</time></trkpt><trkpt lat="41.0893483" lon="14.0992767"><ele>13.0</ele><time>2026-05-04T13:35:08.403Z</time></trkpt><trkpt lat="41.0893183" lon="14.0991967"><ele>13.0</ele><time>2026-05-04T13:35:09.408Z</time></trkpt><trkpt lat="41.0892867" lon="14.0991217"><ele>13.0</ele><time>2026-05-04T13:35:10.404Z</time></trkpt><trkpt lat="41.089255" lon="14.0990417"><ele>13.0</ele><time>2026-05-04T13:35:11.408Z</time></trkpt><trkpt lat="41.0892233" lon="14.0989633"><ele>13.0</ele><time>2026-05-04T13:35:12.406Z</time></trkpt><trkpt lat="41.0891883" lon="14.0988867"><ele>13.0</ele><time>2026-05-04T13:35:13.406Z</time></trkpt><trkpt lat="41.0891517" lon="14.09881"><ele>13.0</ele><time>2026-05-04T13:35:14.403Z</time></trkpt><trkpt lat="41.0891167" lon="14.0987333"><ele>13.0</ele><time>2026-05-04T13:35:15.406Z</time></trkpt><trkpt lat="41.089085" lon="14.0986567"><ele>13.0</ele><time>2026-05-04T13:35:16.406Z</time></trkpt><trkpt lat="41.0890533" lon="14.0985817"><ele>13.0</ele><time>2026-05-04T13:35:17.406Z</time></trkpt><trkpt lat="41.088995" lon="14.0984383"><ele>13.0</ele><time>2026-05-04T13:35:19.405Z</time></trkpt><trkpt lat="41.0889383" lon="14.098305"><ele>13.0</ele><time>2026-05-04T13:35:21.404Z</time></trkpt><trkpt lat="41.0888833" lon="14.0981833"><ele>13.0</ele><time>2026-05-04T13:35:23.408Z</time></trkpt><trkpt lat="41.08883" lon="14.0980733"><ele>13.0</ele><time>2026-05-04T13:35:25.408Z</time></trkpt><trkpt lat="41.088785" lon="14.097955"><ele>13.0</ele><time>2026-05-04T13:35:27.403Z</time></trkpt><trkpt lat="41.0887367" lon="14.09785"><ele>13.0</ele><time>2026-05-04T13:35:29.403Z</time></trkpt><trkpt lat="41.0886933" lon="14.0977383"><ele>13.0</ele><time>2026-05-04T13:35:31.406Z</time></trkpt><trkpt lat="41.088645" lon="14.09762"><ele>12.999999999999998</ele><time>2026-05-04T13:35:33.404Z</time></trkpt><trkpt lat="41.0886067" lon="14.097505"><ele>13.0</ele><time>2026-05-04T13:35:35.405Z</time></trkpt><trkpt lat="41.0885667" lon="14.0974"><ele>13.0</ele><time>2026-05-04T13:35:37.406Z</time></trkpt><trkpt lat="41.08852" lon="14.0973117"><ele>13.0</ele><time>2026-05-04T13:35:39.404Z</time></trkpt><trkpt lat="41.0884783" lon="14.09722"><ele>12.999999999999998</ele><time>2026-05-04T13:35:41.407Z</time></trkpt><trkpt lat="41.0884333" lon="14.0971183"><ele>13.0</ele><time>2026-05-04T13:35:43.407Z</time></trkpt><trkpt lat="41.0883883" lon="14.0970067"><ele>13.0</ele><time>2026-05-04T13:35:45.406Z</time></trkpt><trkpt lat="41.0883383" lon="14.0968867"><ele>13.0</ele><time>2026-05-04T13:35:47.404Z</time></trkpt><trkpt lat="41.08828" lon="14.0967667"><ele>13.0</ele><time>2026-05-04T13:35:49.405Z</time></trkpt><trkpt lat="41.0882233" lon="14.0966383"><ele>13.0</ele><time>2026-05-04T13:35:51.403Z</time></trkpt><trkpt lat="41.0881633" lon="14.0965083"><ele>13.0</ele><time>2026-05-04T13:35:53.406Z</time></trkpt><trkpt lat="41.0881" lon="14.09638"><ele>12.8</ele><time>2026-05-04T13:35:55.408Z</time></trkpt><trkpt lat="41.0880467" lon="14.0962567"><ele>12.600000000000001</ele><time>2026-05-04T13:35:57.407Z</time></trkpt><trkpt lat="41.0879967" lon="14.0961267"><ele>12.399999999999999</ele><time>2026-05-04T13:35:59.408Z</time></trkpt><trkpt lat="41.08794" lon="14.095995"><ele>12.2</ele><time>2026-05-04T13:36:01.408Z</time></trkpt><trkpt lat="41.0878833" lon="14.0958617"><ele>12.0</ele><time>2026-05-04T13:36:03.407Z</time></trkpt><trkpt lat="41.087825" lon="14.0957267"><ele>12.0</ele><time>2026-05-04T13:36:05.406Z</time></trkpt><trkpt lat="41.0877683" lon="14.0955917"><ele>12.0</ele><time>2026-05-04T13:36:07.408Z</time></trkpt><trkpt lat="41.087715" lon="14.0954567"><ele>12.0</ele><time>2026-05-04T13:36:09.407Z</time></trkpt><trkpt lat="41.0876617" lon="14.095325"><ele>12.0</ele><time>2026-05-04T13:36:11.407Z</time></trkpt><trkpt lat="41.0876033" lon="14.09519"><ele>12.0</ele><time>2026-05-04T13:36:13.407Z</time></trkpt><trkpt lat="41.0875467" lon="14.0950617"><ele>12.0</ele><time>2026-05-04T13:36:15.406Z</time></trkpt><trkpt lat="41.0874867" lon="14.0949367"><ele>12.0</ele><time>2026-05-04T13:36:17.406Z</time></trkpt><trkpt lat="41.0874283" lon="14.09481"><ele>12.0</ele><time>2026-05-04T13:36:19.406Z</time></trkpt><trkpt lat="41.08737" lon="14.094675"><ele>12.0</ele><time>2026-05-04T13:36:21.403Z</time></trkpt><trkpt lat="41.08731" lon="14.0945333"><ele>12.0</ele><time>2026-05-04T13:36:23.407Z</time></trkpt><trkpt lat="41.0872533" lon="14.0943933"><ele>12.0</ele><time>2026-05-04T13:36:25.408Z</time></trkpt><trkpt lat="41.0871967" lon="14.09426"><ele>12.0</ele><time>2026-05-04T13:36:27.408Z</time></trkpt><trkpt lat="41.0871383" lon="14.094125"><ele>11.75</ele><time>2026-05-04T13:36:29.406Z</time></trkpt><trkpt lat="41.08708" lon="14.093995"><ele>11.5</ele><time>2026-05-04T13:36:31.407Z</time></trkpt><trkpt lat="41.0870183" lon="14.0938633"><ele>11.25</ele><time>2026-05-04T13:36:33.403Z</time></trkpt><trkpt lat="41.0869583" lon="14.09373"><ele>11.0</ele><time>2026-05-04T13:36:35.404Z</time></trkpt><trkpt lat="41.0868983" lon="14.0935917"><ele>11.0</ele><time>2026-05-04T13:36:37.406Z</time></trkpt><trkpt lat="41.0868367" lon="14.09345"><ele>11.0</ele><time>2026-05-04T13:36:39.404Z</time></trkpt><trkpt lat="41.08678" lon="14.0933117"><ele>11.0</ele><time>2026-05-04T13:36:41.406Z</time></trkpt><trkpt lat="41.08672" lon="14.0931717"><ele>11.0</ele><time>2026-05-04T13:36:43.407Z</time></trkpt><trkpt lat="41.0866583" lon="14.09303"><ele>11.25</ele><time>2026-05-04T13:36:45.406Z</time></trkpt><trkpt lat="41.0865983" lon="14.0928933"><ele>11.5</ele><time>2026-05-04T13:36:47.404Z</time></trkpt><trkpt lat="41.0865383" lon="14.0927533"><ele>11.75</ele><time>2026-05-04T13:36:49.405Z</time></trkpt><trkpt lat="41.08648" lon="14.09261"><ele>12.0</ele><time>2026-05-04T13:36:51.401Z</time></trkpt><trkpt lat="41.0864167" lon="14.09247"><ele>11.8</ele><time>2026-05-04T13:36:53.406Z</time></trkpt><trkpt lat="41.086355" lon="14.09233"><ele>11.6</ele><time>2026-05-04T13:36:55.406Z</time></trkpt><trkpt lat="41.0862933" lon="14.092185"><ele>11.4</ele><time>2026-05-04T13:36:57.406Z</time></trkpt><trkpt lat="41.0862633" lon="14.09211"><ele>11.200000000000001</ele><time>2026-05-04T13:36:58.407Z</time></trkpt><trkpt lat="41.0862017" lon="14.0919717"><ele>11.0</ele><time>2026-05-04T13:37:00.405Z</time></trkpt><trkpt lat="41.0861367" lon="14.0918283"><ele>11.0</ele><time>2026-05-04T13:37:02.404Z</time></trkpt><trkpt lat="41.0860733" lon="14.0916867"><ele>11.0</ele><time>2026-05-04T13:37:04.405Z</time></trkpt><trkpt lat="41.0860167" lon="14.09155"><ele>11.0</ele><time>2026-05-04T13:37:06.404Z</time></trkpt><trkpt lat="41.0859583" lon="14.091415"><ele>11.0</ele><time>2026-05-04T13:37:08.404Z</time></trkpt><trkpt lat="41.0859" lon="14.09127"><ele>11.0</ele><time>2026-05-04T13:37:10.406Z</time></trkpt><trkpt lat="41.08584" lon="14.0911317"><ele>11.0</ele><time>2026-05-04T13:37:12.406Z</time></trkpt><trkpt lat="41.0857783" lon="14.0909883"><ele>11.0</ele><time>2026-05-04T13:37:14.405Z</time></trkpt><trkpt lat="41.0857217" lon="14.0908467"><ele>11.0</ele><time>2026-05-04T13:37:16.403Z</time></trkpt><trkpt lat="41.0856633" lon="14.0907067"><ele>11.0</ele><time>2026-05-04T13:37:18.404Z</time></trkpt><trkpt lat="41.0855983" lon="14.090565"><ele>11.0</ele><time>2026-05-04T13:37:20.403Z</time></trkpt><trkpt lat="41.0855367" lon="14.0904233"><ele>11.0</ele><time>2026-05-04T13:37:22.404Z</time></trkpt><trkpt lat="41.08548" lon="14.0902833"><ele>11.0</ele><time>2026-05-04T13:37:24.406Z</time></trkpt><trkpt lat="41.08542" lon="14.0901483"><ele>11.0</ele><time>2026-05-04T13:37:26.406Z</time></trkpt><trkpt lat="41.08536" lon="14.0900217"><ele>11.0</ele><time>2026-05-04T13:37:28.402Z</time></trkpt><trkpt lat="41.085305" lon="14.08989"><ele>11.0</ele><time>2026-05-04T13:37:30.402Z</time></trkpt><trkpt lat="41.08525" lon="14.089755"><ele>11.0</ele><time>2026-05-04T13:37:32.404Z</time></trkpt><trkpt lat="41.0851933" lon="14.0896217"><ele>10.833333333333332</ele><time>2026-05-04T13:37:34.406Z</time></trkpt><trkpt lat="41.0851333" lon="14.0894783"><ele>10.666666666666666</ele><time>2026-05-04T13:37:36.405Z</time></trkpt><trkpt lat="41.0850717" lon="14.089335"><ele>10.5</ele><time>2026-05-04T13:37:38.403Z</time></trkpt><trkpt lat="41.08504" lon="14.08926"><ele>10.333333333333334</ele><time>2026-05-04T13:37:39.403Z</time></trkpt><trkpt lat="41.08501" lon="14.089185"><ele>10.166666666666668</ele><time>2026-05-04T13:37:40.406Z</time></trkpt><trkpt lat="41.0849783" lon="14.08911"><ele>10.0</ele><time>2026-05-04T13:37:41.405Z</time></trkpt><trkpt lat="41.0849433" lon="14.0890333"><ele>10.166666666666668</ele><time>2026-05-04T13:37:42.404Z</time></trkpt><trkpt lat="41.0849117" lon="14.0889567"><ele>10.333333333333334</ele><time>2026-05-04T13:37:43.405Z</time></trkpt><trkpt lat="41.0848833" lon="14.0888817"><ele>10.5</ele><time>2026-05-04T13:37:44.405Z</time></trkpt><trkpt lat="41.0848283" lon="14.0887383"><ele>10.666666666666666</ele><time>2026-05-04T13:37:46.405Z</time></trkpt><trkpt lat="41.0847683" lon="14.08859"><ele>10.833333333333332</ele><time>2026-05-04T13:37:48.407Z</time></trkpt><trkpt lat="41.0847317" lon="14.0885183"><ele>11.0</ele><time>2026-05-04T13:37:49.407Z</time></trkpt><trkpt lat="41.0846983" lon="14.088445"><ele>11.0</ele><time>2026-05-04T13:37:50.407Z</time></trkpt><trkpt lat="41.084665" lon="14.0883717"><ele>11.0</ele><time>2026-05-04T13:37:51.405Z</time></trkpt><trkpt lat="41.0845983" lon="14.0882367"><ele>11.0</ele><time>2026-05-04T13:37:53.405Z</time></trkpt><trkpt lat="41.0845367" lon="14.0880883"><ele>11.0</ele><time>2026-05-04T13:37:55.406Z</time></trkpt><trkpt lat="41.0845017" lon="14.08801"><ele>11.0</ele><time>2026-05-04T13:37:56.406Z</time></trkpt><trkpt lat="41.08447" lon="14.087935"><ele>11.0</ele><time>2026-05-04T13:37:57.406Z</time></trkpt><trkpt lat="41.084435" lon="14.0878583"><ele>10.857142857142858</ele><time>2026-05-04T13:37:58.406Z</time></trkpt><trkpt lat="41.0843967" lon="14.0877817"><ele>10.714285714285714</ele><time>2026-05-04T13:37:59.407Z</time></trkpt><trkpt lat="41.084365" lon="14.0877033"><ele>10.571428571428571</ele><time>2026-05-04T13:38:00.407Z</time></trkpt><trkpt lat="41.0843317" lon="14.0876217"><ele>10.428571428571429</ele><time>2026-05-04T13:38:01.403Z</time></trkpt><trkpt lat="41.0842983" lon="14.0875417"><ele>10.285714285714286</ele><time>2026-05-04T13:38:02.403Z</time></trkpt><trkpt lat="41.0842667" lon="14.0874633"><ele>10.142857142857142</ele><time>2026-05-04T13:38:03.403Z</time></trkpt><trkpt lat="41.0842317" lon="14.0873833"><ele>10.0</ele><time>2026-05-04T13:38:04.406Z</time></trkpt><trkpt lat="41.0841983" lon="14.0873067"><ele>10.0</ele><time>2026-05-04T13:38:05.406Z</time></trkpt><trkpt lat="41.084165" lon="14.08723"><ele>10.0</ele><time>2026-05-04T13:38:06.405Z</time></trkpt><trkpt lat="41.08413" lon="14.0871517"><ele>10.0</ele><time>2026-05-04T13:38:07.406Z</time></trkpt><trkpt lat="41.0840933" lon="14.0870733"><ele>10.0</ele><time>2026-05-04T13:38:08.403Z</time></trkpt><trkpt lat="41.0840583" lon="14.0869983"><ele>10.0</ele><time>2026-05-04T13:38:09.401Z</time></trkpt><trkpt lat="41.0840233" lon="14.0869217"><ele>10.0</ele><time>2026-05-04T13:38:10.407Z</time></trkpt><trkpt lat="41.0839917" lon="14.0868433"><ele>10.0</ele><time>2026-05-04T13:38:11.407Z</time></trkpt><trkpt lat="41.0839617" lon="14.0867633"><ele>9.857142857142858</ele><time>2026-05-04T13:38:12.406Z</time></trkpt><trkpt lat="41.08393" lon="14.086685"><ele>9.714285714285715</ele><time>2026-05-04T13:38:13.406Z</time></trkpt><trkpt lat="41.0839017" lon="14.0866083"><ele>9.571428571428573</ele><time>2026-05-04T13:38:14.406Z</time></trkpt><trkpt lat="41.0838717" lon="14.08653"><ele>9.428571428571429</ele><time>2026-05-04T13:38:15.405Z</time></trkpt><trkpt lat="41.0838417" lon="14.0864533"><ele>9.285714285714286</ele><time>2026-05-04T13:38:16.407Z</time></trkpt><trkpt lat="41.0838083" lon="14.086375"><ele>9.142857142857144</ele><time>2026-05-04T13:38:17.407Z</time></trkpt><trkpt lat="41.0837767" lon="14.0862967"><ele>9.0</ele><time>2026-05-04T13:38:18.407Z</time></trkpt><trkpt lat="41.0837417" lon="14.0862217"><ele>9.000000000000002</ele><time>2026-05-04T13:38:19.406Z</time></trkpt><trkpt lat="41.0837067" lon="14.0861467"><ele>9.0</ele><time>2026-05-04T13:38:20.407Z</time></trkpt><trkpt lat="41.08367" lon="14.0860733"><ele>9.0</ele><time>2026-05-04T13:38:21.406Z</time></trkpt><trkpt lat="41.0836333" lon="14.0859983"><ele>9.0</ele><time>2026-05-04T13:38:22.406Z</time></trkpt><trkpt lat="41.0836" lon="14.0859217"><ele>9.0</ele><time>2026-05-04T13:38:23.405Z</time></trkpt><trkpt lat="41.0835667" lon="14.0858417"><ele>9.000000000000002</ele><time>2026-05-04T13:38:24.406Z</time></trkpt><trkpt lat="41.0835367" lon="14.08576"><ele>9.0</ele><time>2026-05-04T13:38:25.407Z</time></trkpt><trkpt lat="41.083505" lon="14.0856783"><ele>9.000000000000002</ele><time>2026-05-04T13:38:26.406Z</time></trkpt><trkpt lat="41.0834717" lon="14.0855967"><ele>9.0</ele><time>2026-05-04T13:38:27.405Z</time></trkpt><trkpt lat="41.0834367" lon="14.0855167"><ele>9.0</ele><time>2026-05-04T13:38:28.403Z</time></trkpt><trkpt lat="41.0834017" lon="14.0854383"><ele>9.0</ele><time>2026-05-04T13:38:29.406Z</time></trkpt><trkpt lat="41.0833683" lon="14.08536"><ele>9.0</ele><time>2026-05-04T13:38:30.405Z</time></trkpt><trkpt lat="41.0833383" lon="14.085285"><ele>9.000000000000002</ele><time>2026-05-04T13:38:31.407Z</time></trkpt><trkpt lat="41.083305" lon="14.08521"><ele>9.0</ele><time>2026-05-04T13:38:32.403Z</time></trkpt><trkpt lat="41.08327" lon="14.085135"><ele>9.000000000000002</ele><time>2026-05-04T13:38:33.403Z</time></trkpt><trkpt lat="41.0832383" lon="14.0850617"><ele>9.0</ele><time>2026-05-04T13:38:34.402Z</time></trkpt><trkpt lat="41.0832083" lon="14.0849867"><ele>9.0</ele><time>2026-05-04T13:38:35.404Z</time></trkpt><trkpt lat="41.0831733" lon="14.0849133"><ele>9.0</ele><time>2026-05-04T13:38:36.404Z</time></trkpt><trkpt lat="41.0831417" lon="14.0848383"><ele>9.0</ele><time>2026-05-04T13:38:37.404Z</time></trkpt><trkpt lat="41.0831083" lon="14.084765"><ele>9.000000000000002</ele><time>2026-05-04T13:38:38.404Z</time></trkpt><trkpt lat="41.083075" lon="14.0846917"><ele>9.0</ele><time>2026-05-04T13:38:39.402Z</time></trkpt><trkpt lat="41.0830433" lon="14.0846183"><ele>9.2</ele><time>2026-05-04T13:38:40.404Z</time></trkpt><trkpt lat="41.08301" lon="14.0845417"><ele>9.4</ele><time>2026-05-04T13:38:41.405Z</time></trkpt><trkpt lat="41.08295" lon="14.0843967"><ele>9.6</ele><time>2026-05-04T13:38:43.406Z</time></trkpt><trkpt lat="41.0828867" lon="14.0842583"><ele>9.8</ele><time>2026-05-04T13:38:45.406Z</time></trkpt><trkpt lat="41.0828217" lon="14.0841167"><ele>10.0</ele><time>2026-05-04T13:38:47.406Z</time></trkpt><trkpt lat="41.08276" lon="14.08397"><ele>10.0</ele><time>2026-05-04T13:38:49.406Z</time></trkpt><trkpt lat="41.0827267" lon="14.0838933"><ele>10.0</ele><time>2026-05-04T13:38:50.402Z</time></trkpt><trkpt lat="41.082695" lon="14.0838167"><ele>10.0</ele><time>2026-05-04T13:38:51.403Z</time></trkpt><trkpt lat="41.0826633" lon="14.0837433"><ele>10.0</ele><time>2026-05-04T13:38:52.403Z</time></trkpt><trkpt lat="41.0826017" lon="14.083605"><ele>10.0</ele><time>2026-05-04T13:38:54.404Z</time></trkpt><trkpt lat="41.0825417" lon="14.0834567"><ele>10.0</ele><time>2026-05-04T13:38:56.403Z</time></trkpt><trkpt lat="41.0825133" lon="14.0833817"><ele>10.0</ele><time>2026-05-04T13:38:57.406Z</time></trkpt><trkpt lat="41.0824517" lon="14.083235"><ele>10.0</ele><time>2026-05-04T13:38:59.407Z</time></trkpt><trkpt lat="41.0824183" lon="14.0831617"><ele>10.0</ele><time>2026-05-04T13:39:00.407Z</time></trkpt><trkpt lat="41.082385" lon="14.0830867"><ele>10.0</ele><time>2026-05-04T13:39:01.405Z</time></trkpt><trkpt lat="41.08235" lon="14.0830133"><ele>10.0</ele><time>2026-05-04T13:39:02.407Z</time></trkpt><trkpt lat="41.0823167" lon="14.0829417"><ele>10.0</ele><time>2026-05-04T13:39:03.403Z</time></trkpt><trkpt lat="41.0822833" lon="14.0828667"><ele>10.0</ele><time>2026-05-04T13:39:04.406Z</time></trkpt><trkpt lat="41.0822483" lon="14.08279"><ele>10.0</ele><time>2026-05-04T13:39:05.405Z</time></trkpt><trkpt lat="41.082215" lon="14.0827133"><ele>10.0</ele><time>2026-05-04T13:39:06.405Z</time></trkpt><trkpt lat="41.0821817" lon="14.0826367"><ele>10.0</ele><time>2026-05-04T13:39:07.408Z</time></trkpt><trkpt lat="41.0821483" lon="14.08256"><ele>10.0</ele><time>2026-05-04T13:39:08.405Z</time></trkpt><trkpt lat="41.082115" lon="14.0824833"><ele>10.0</ele><time>2026-05-04T13:39:09.406Z</time></trkpt><trkpt lat="41.0820817" lon="14.0824067"><ele>10.0</ele><time>2026-05-04T13:39:10.405Z</time></trkpt><trkpt lat="41.08205" lon="14.0823317"><ele>10.0</ele><time>2026-05-04T13:39:11.405Z</time></trkpt><trkpt lat="41.0820167" lon="14.082255"><ele>10.0</ele><time>2026-05-04T13:39:12.406Z</time></trkpt><trkpt lat="41.081985" lon="14.0821783"><ele>10.0</ele><time>2026-05-04T13:39:13.403Z</time></trkpt><trkpt lat="41.081955" lon="14.0821033"><ele>10.0</ele><time>2026-05-04T13:39:14.407Z</time></trkpt><trkpt lat="41.081925" lon="14.0820283"><ele>10.0</ele><time>2026-05-04T13:39:15.405Z</time></trkpt><trkpt lat="41.0818967" lon="14.0819517"><ele>10.0</ele><time>2026-05-04T13:39:16.406Z</time></trkpt><trkpt lat="41.0818667" lon="14.081875"><ele>10.0</ele><time>2026-05-04T13:39:17.403Z</time></trkpt><trkpt lat="41.081835" lon="14.0818"><ele>10.0</ele><time>2026-05-04T13:39:18.402Z</time></trkpt><trkpt lat="41.0818033" lon="14.0817217"><ele>10.0</ele><time>2026-05-04T13:39:19.405Z</time></trkpt><trkpt lat="41.08177" lon="14.081645"><ele>10.0</ele><time>2026-05-04T13:39:20.403Z</time></trkpt><trkpt lat="41.08174" lon="14.08157"><ele>10.0</ele><time>2026-05-04T13:39:21.404Z</time></trkpt><trkpt lat="41.0817067" lon="14.0814917"><ele>10.0</ele><time>2026-05-04T13:39:22.403Z</time></trkpt><trkpt lat="41.081675" lon="14.081415"><ele>10.0</ele><time>2026-05-04T13:39:23.404Z</time></trkpt><trkpt lat="41.0816433" lon="14.08134"><ele>10.0</ele><time>2026-05-04T13:39:24.405Z</time></trkpt><trkpt lat="41.0816117" lon="14.081265"><ele>9.714285714285714</ele><time>2026-05-04T13:39:25.404Z</time></trkpt><trkpt lat="41.0815817" lon="14.0811883"><ele>9.428571428571429</ele><time>2026-05-04T13:39:26.404Z</time></trkpt><trkpt lat="41.0815517" lon="14.08111"><ele>9.142857142857142</ele><time>2026-05-04T13:39:27.404Z</time></trkpt><trkpt lat="41.0815167" lon="14.0810317"><ele>8.857142857142858</ele><time>2026-05-04T13:39:28.405Z</time></trkpt><trkpt lat="41.0814833" lon="14.08095"><ele>8.571428571428571</ele><time>2026-05-04T13:39:29.407Z</time></trkpt><trkpt lat="41.0814517" lon="14.0808733"><ele>8.285714285714285</ele><time>2026-05-04T13:39:30.406Z</time></trkpt><trkpt lat="41.0814167" lon="14.080795"><ele>8.0</ele><time>2026-05-04T13:39:31.406Z</time></trkpt><trkpt lat="41.08138" lon="14.0807167"><ele>7.857142857142857</ele><time>2026-05-04T13:39:32.403Z</time></trkpt><trkpt lat="41.081345" lon="14.08064"><ele>7.7142857142857135</ele><time>2026-05-04T13:39:33.407Z</time></trkpt><trkpt lat="41.0813067" lon="14.080565"><ele>7.571428571428571</ele><time>2026-05-04T13:39:34.406Z</time></trkpt><trkpt lat="41.08127" lon="14.080485"><ele>7.428571428571429</ele><time>2026-05-04T13:39:35.406Z</time></trkpt><trkpt lat="41.0812333" lon="14.0804117"><ele>7.285714285714286</ele><time>2026-05-04T13:39:36.403Z</time></trkpt><trkpt lat="41.0811983" lon="14.0803383"><ele>7.142857142857142</ele><time>2026-05-04T13:39:37.404Z</time></trkpt><trkpt lat="41.081165" lon="14.08026"><ele>7.0</ele><time>2026-05-04T13:39:38.404Z</time></trkpt><trkpt lat="41.08113" lon="14.08018"><ele>7.0</ele><time>2026-05-04T13:39:39.404Z</time></trkpt><trkpt lat="41.081095" lon="14.0801"><ele>7.0</ele><time>2026-05-04T13:39:40.405Z</time></trkpt><trkpt lat="41.0810633" lon="14.0800217"><ele>7.0</ele><time>2026-05-04T13:39:41.407Z</time></trkpt><trkpt lat="41.08103" lon="14.079945"><ele>7.0</ele><time>2026-05-04T13:39:42.406Z</time></trkpt><trkpt lat="41.0809983" lon="14.0798633"><ele>7.0</ele><time>2026-05-04T13:39:43.407Z</time></trkpt><trkpt lat="41.080965" lon="14.079785"><ele>7.0</ele><time>2026-05-04T13:39:44.407Z</time></trkpt><trkpt lat="41.08093" lon="14.079705"><ele>7.0</ele><time>2026-05-04T13:39:45.406Z</time></trkpt><trkpt lat="41.0808917" lon="14.079625"><ele>7.0</ele><time>2026-05-04T13:39:46.406Z</time></trkpt><trkpt lat="41.0808567" lon="14.0795467"><ele>7.0</ele><time>2026-05-04T13:39:47.404Z</time></trkpt><trkpt lat="41.0808233" lon="14.07947"><ele>7.0</ele><time>2026-05-04T13:39:48.402Z</time></trkpt><trkpt lat="41.08079" lon="14.0793967"><ele>7.0</ele><time>2026-05-04T13:39:49.405Z</time></trkpt><trkpt lat="41.0807567" lon="14.0793183"><ele>7.0</ele><time>2026-05-04T13:39:50.403Z</time></trkpt><trkpt lat="41.0807267" lon="14.0792433"><ele>7.0</ele><time>2026-05-04T13:39:51.405Z</time></trkpt><trkpt lat="41.0806933" lon="14.07917"><ele>7.0</ele><time>2026-05-04T13:39:52.404Z</time></trkpt><trkpt lat="41.0806583" lon="14.0790933"><ele>7.142857142857142</ele><time>2026-05-04T13:39:53.405Z</time></trkpt><trkpt lat="41.0806267" lon="14.07902"><ele>7.285714285714286</ele><time>2026-05-04T13:39:54.405Z</time></trkpt><trkpt lat="41.0805917" lon="14.0789417"><ele>7.428571428571429</ele><time>2026-05-04T13:39:55.404Z</time></trkpt><trkpt lat="41.080555" lon="14.0788633"><ele>7.571428571428571</ele><time>2026-05-04T13:39:56.405Z</time></trkpt><trkpt lat="41.08052" lon="14.078785"><ele>7.7142857142857135</ele><time>2026-05-04T13:39:57.403Z</time></trkpt><trkpt lat="41.080485" lon="14.078705"><ele>7.857142857142857</ele><time>2026-05-04T13:39:58.404Z</time></trkpt><trkpt lat="41.08045" lon="14.0786283"><ele>8.0</ele><time>2026-05-04T13:39:59.405Z</time></trkpt><trkpt lat="41.0804183" lon="14.0785533"><ele>7.999999999999999</ele><time>2026-05-04T13:40:00.404Z</time></trkpt><trkpt lat="41.080355" lon="14.0784"><ele>8.0</ele><time>2026-05-04T13:40:02.404Z</time></trkpt><trkpt lat="41.080325" lon="14.078325"><ele>8.0</ele><time>2026-05-04T13:40:03.406Z</time></trkpt><trkpt lat="41.0802933" lon="14.0782467"><ele>8.0</ele><time>2026-05-04T13:40:04.406Z</time></trkpt><trkpt lat="41.0802583" lon="14.07817"><ele>7.999999999999999</ele><time>2026-05-04T13:40:05.406Z</time></trkpt><trkpt lat="41.0802233" lon="14.0780933"><ele>8.0</ele><time>2026-05-04T13:40:06.405Z</time></trkpt><trkpt lat="41.08019" lon="14.0780133"><ele>8.142857142857142</ele><time>2026-05-04T13:40:07.407Z</time></trkpt><trkpt lat="41.080155" lon="14.0779333"><ele>8.285714285714285</ele><time>2026-05-04T13:40:08.407Z</time></trkpt><trkpt lat="41.08012" lon="14.0778567"><ele>8.428571428571429</ele><time>2026-05-04T13:40:09.406Z</time></trkpt><trkpt lat="41.0800867" lon="14.07778"><ele>8.571428571428571</ele><time>2026-05-04T13:40:10.405Z</time></trkpt><trkpt lat="41.0800567" lon="14.0776983"><ele>8.714285714285715</ele><time>2026-05-04T13:40:11.406Z</time></trkpt><trkpt lat="41.0800233" lon="14.0776183"><ele>8.857142857142858</ele><time>2026-05-04T13:40:12.403Z</time></trkpt><trkpt lat="41.0799933" lon="14.0775417"><ele>9.0</ele><time>2026-05-04T13:40:13.408Z</time></trkpt><trkpt lat="41.0799583" lon="14.077465"><ele>8.857142857142858</ele><time>2026-05-04T13:40:14.406Z</time></trkpt><trkpt lat="41.079925" lon="14.0773883"><ele>8.714285714285715</ele><time>2026-05-04T13:40:15.406Z</time></trkpt><trkpt lat="41.07989" lon="14.0773133"><ele>8.571428571428571</ele><time>2026-05-04T13:40:16.406Z</time></trkpt><trkpt lat="41.079855" lon="14.0772367"><ele>8.428571428571429</ele><time>2026-05-04T13:40:17.403Z</time></trkpt><trkpt lat="41.07982" lon="14.0771583"><ele>8.285714285714285</ele><time>2026-05-04T13:40:18.403Z</time></trkpt><trkpt lat="41.079785" lon="14.07708"><ele>8.142857142857142</ele><time>2026-05-04T13:40:19.405Z</time></trkpt><trkpt lat="41.0797467" lon="14.077"><ele>8.0</ele><time>2026-05-04T13:40:20.405Z</time></trkpt><trkpt lat="41.07971" lon="14.0769183"><ele>8.0</ele><time>2026-05-04T13:40:21.405Z</time></trkpt><trkpt lat="41.0796767" lon="14.0768417"><ele>7.999999999999999</ele><time>2026-05-04T13:40:22.403Z</time></trkpt><trkpt lat="41.0796433" lon="14.0767667"><ele>8.0</ele><time>2026-05-04T13:40:23.404Z</time></trkpt><trkpt lat="41.0796117" lon="14.07669"><ele>8.0</ele><time>2026-05-04T13:40:24.404Z</time></trkpt><trkpt lat="41.07958" lon="14.0766083"><ele>7.999999999999999</ele><time>2026-05-04T13:40:25.403Z</time></trkpt><trkpt lat="41.0795533" lon="14.076525"><ele>8.0</ele><time>2026-05-04T13:40:26.404Z</time></trkpt><trkpt lat="41.07952" lon="14.076445"><ele>8.0</ele><time>2026-05-04T13:40:27.403Z</time></trkpt><trkpt lat="41.0794833" lon="14.0763683"><ele>7.999999999999999</ele><time>2026-05-04T13:40:28.406Z</time></trkpt><trkpt lat="41.0794483" lon="14.0762917"><ele>8.0</ele><time>2026-05-04T13:40:29.405Z</time></trkpt><trkpt lat="41.0794117" lon="14.0762117"><ele>8.0</ele><time>2026-05-04T13:40:30.405Z</time></trkpt><trkpt lat="41.0793783" lon="14.0761367"><ele>8.0</ele><time>2026-05-04T13:40:31.406Z</time></trkpt><trkpt lat="41.0793467" lon="14.0760617"><ele>7.999999999999999</ele><time>2026-05-04T13:40:32.406Z</time></trkpt><trkpt lat="41.0792867" lon="14.0759133"><ele>8.0</ele><time>2026-05-04T13:40:34.404Z</time></trkpt><trkpt lat="41.0792533" lon="14.0758333"><ele>8.0</ele><time>2026-05-04T13:40:35.405Z</time></trkpt><trkpt lat="41.0792183" lon="14.0757533"><ele>7.999999999999999</ele><time>2026-05-04T13:40:36.404Z</time></trkpt><trkpt lat="41.0791833" lon="14.075675"><ele>8.0</ele><time>2026-05-04T13:40:37.405Z</time></trkpt><trkpt lat="41.07915" lon="14.07559"><ele>8.0</ele><time>2026-05-04T13:40:38.406Z</time></trkpt><trkpt lat="41.0791133" lon="14.07551"><ele>7.999999999999999</ele><time>2026-05-04T13:40:39.404Z</time></trkpt><trkpt lat="41.0790833" lon="14.0754317"><ele>8.0</ele><time>2026-05-04T13:40:40.406Z</time></trkpt><trkpt lat="41.07905" lon="14.075355"><ele>8.0</ele><time>2026-05-04T13:40:41.406Z</time></trkpt><trkpt lat="41.079015" lon="14.0752733"><ele>7.857142857142857</ele><time>2026-05-04T13:40:42.406Z</time></trkpt><trkpt lat="41.0789817" lon="14.07519"><ele>7.7142857142857135</ele><time>2026-05-04T13:40:43.407Z</time></trkpt><trkpt lat="41.078945" lon="14.0751067"><ele>7.571428571428571</ele><time>2026-05-04T13:40:44.405Z</time></trkpt><trkpt lat="41.07891" lon="14.0750267"><ele>7.428571428571429</ele><time>2026-05-04T13:40:45.403Z</time></trkpt><trkpt lat="41.078875" lon="14.0749467"><ele>7.285714285714286</ele><time>2026-05-04T13:40:46.403Z</time></trkpt><trkpt lat="41.0788433" lon="14.074865"><ele>7.142857142857142</ele><time>2026-05-04T13:40:47.403Z</time></trkpt><trkpt lat="41.07881" lon="14.0747867"><ele>7.0</ele><time>2026-05-04T13:40:48.404Z</time></trkpt><trkpt lat="41.078775" lon="14.0747083"><ele>7.0</ele><time>2026-05-04T13:40:49.404Z</time></trkpt><trkpt lat="41.0787383" lon="14.07463"><ele>7.0</ele><time>2026-05-04T13:40:50.403Z</time></trkpt><trkpt lat="41.0787033" lon="14.0745483"><ele>7.0</ele><time>2026-05-04T13:40:51.402Z</time></trkpt><trkpt lat="41.0786683" lon="14.0744667"><ele>7.0</ele><time>2026-05-04T13:40:52.404Z</time></trkpt><trkpt lat="41.0786367" lon="14.0743867"><ele>7.0</ele><time>2026-05-04T13:40:53.404Z</time></trkpt><trkpt lat="41.0786017" lon="14.07431"><ele>7.0</ele><time>2026-05-04T13:40:54.404Z</time></trkpt><trkpt lat="41.0785683" lon="14.0742317"><ele>7.0</ele><time>2026-05-04T13:40:55.404Z</time></trkpt><trkpt lat="41.0785333" lon="14.0741517"><ele>7.0</ele><time>2026-05-04T13:40:56.403Z</time></trkpt><trkpt lat="41.0784967" lon="14.0740683"><ele>7.0</ele><time>2026-05-04T13:40:57.404Z</time></trkpt><trkpt lat="41.07846" lon="14.0739867"><ele>7.0</ele><time>2026-05-04T13:40:58.404Z</time></trkpt><trkpt lat="41.0784233" lon="14.073905"><ele>7.0</ele><time>2026-05-04T13:40:59.406Z</time></trkpt><trkpt lat="41.0783867" lon="14.073825"><ele>7.0</ele><time>2026-05-04T13:41:00.406Z</time></trkpt><trkpt lat="41.0783533" lon="14.0737483"><ele>7.0</ele><time>2026-05-04T13:41:01.406Z</time></trkpt><trkpt lat="41.0783217" lon="14.07367"><ele>7.0</ele><time>2026-05-04T13:41:02.406Z</time></trkpt><trkpt lat="41.0782883" lon="14.07359"><ele>6.857142857142857</ele><time>2026-05-04T13:41:03.405Z</time></trkpt><trkpt lat="41.0782583" lon="14.0735067"><ele>6.714285714285714</ele><time>2026-05-04T13:41:04.406Z</time></trkpt><trkpt lat="41.078225" lon="14.073425"><ele>6.571428571428571</ele><time>2026-05-04T13:41:05.405Z</time></trkpt><trkpt lat="41.078195" lon="14.0733467"><ele>6.428571428571429</ele><time>2026-05-04T13:41:06.405Z</time></trkpt><trkpt lat="41.0781617" lon="14.07327"><ele>6.285714285714286</ele><time>2026-05-04T13:41:07.406Z</time></trkpt><trkpt lat="41.0781283" lon="14.0731883"><ele>6.142857142857142</ele><time>2026-05-04T13:41:08.404Z</time></trkpt><trkpt lat="41.0780917" lon="14.073105"><ele>6.0</ele><time>2026-05-04T13:41:09.405Z</time></trkpt><trkpt lat="41.0780583" lon="14.0730217"><ele>5.999999999999999</ele><time>2026-05-04T13:41:10.406Z</time></trkpt><trkpt lat="41.0780233" lon="14.0729433"><ele>6.0</ele><time>2026-05-04T13:41:11.405Z</time></trkpt><trkpt lat="41.07799" lon="14.0728617"><ele>6.0</ele><time>2026-05-04T13:41:12.405Z</time></trkpt><trkpt lat="41.0779567" lon="14.0727817"><ele>6.0</ele><time>2026-05-04T13:41:13.407Z</time></trkpt><trkpt lat="41.0779217" lon="14.0727033"><ele>6.0</ele><time>2026-05-04T13:41:14.405Z</time></trkpt><trkpt lat="41.077885" lon="14.0726217"><ele>5.999999999999999</ele><time>2026-05-04T13:41:15.405Z</time></trkpt><trkpt lat="41.07785" lon="14.0725417"><ele>6.0</ele><time>2026-05-04T13:41:16.404Z</time></trkpt><trkpt lat="41.0778167" lon="14.0724633"><ele>6.142857142857142</ele><time>2026-05-04T13:41:17.404Z</time></trkpt><trkpt lat="41.0777817" lon="14.0723817"><ele>6.285714285714286</ele><time>2026-05-04T13:41:18.403Z</time></trkpt><trkpt lat="41.0777483" lon="14.0722967"><ele>6.428571428571429</ele><time>2026-05-04T13:41:19.403Z</time></trkpt><trkpt lat="41.077715" lon="14.07221"><ele>6.571428571428571</ele><time>2026-05-04T13:41:20.405Z</time></trkpt><trkpt lat="41.07768" lon="14.0721267"><ele>6.714285714285714</ele><time>2026-05-04T13:41:21.403Z</time></trkpt><trkpt lat="41.0776433" lon="14.0720433"><ele>6.857142857142857</ele><time>2026-05-04T13:41:22.406Z</time></trkpt><trkpt lat="41.0776067" lon="14.0719617"><ele>7.0</ele><time>2026-05-04T13:41:23.407Z</time></trkpt><trkpt lat="41.0775717" lon="14.0718817"><ele>7.0</ele><time>2026-05-04T13:41:24.406Z</time></trkpt><trkpt lat="41.0775333" lon="14.0717967"><ele>7.0</ele><time>2026-05-04T13:41:25.406Z</time></trkpt><trkpt lat="41.0774983" lon="14.071715"><ele>7.0</ele><time>2026-05-04T13:41:26.407Z</time></trkpt><trkpt lat="41.0774617" lon="14.0716317"><ele>7.0</ele><time>2026-05-04T13:41:27.407Z</time></trkpt><trkpt lat="41.077425" lon="14.0715483"><ele>7.0</ele><time>2026-05-04T13:41:28.405Z</time></trkpt><trkpt lat="41.0773917" lon="14.071465"><ele>7.0</ele><time>2026-05-04T13:41:29.407Z</time></trkpt><trkpt lat="41.0773567" lon="14.0713833"><ele>7.0</ele><time>2026-05-04T13:41:30.404Z</time></trkpt><trkpt lat="41.0773267" lon="14.0712983"><ele>7.0</ele><time>2026-05-04T13:41:31.406Z</time></trkpt><trkpt lat="41.077295" lon="14.071215"><ele>7.0</ele><time>2026-05-04T13:41:32.405Z</time></trkpt><trkpt lat="41.0772567" lon="14.0711333"><ele>7.0</ele><time>2026-05-04T13:41:33.406Z</time></trkpt><trkpt lat="41.0772167" lon="14.071055"><ele>7.0</ele><time>2026-05-04T13:41:34.406Z</time></trkpt><trkpt lat="41.07718" lon="14.0709767"><ele>7.0</ele><time>2026-05-04T13:41:35.404Z</time></trkpt><trkpt lat="41.0771467" lon="14.0709017"><ele>7.0</ele><time>2026-05-04T13:41:36.407Z</time></trkpt><trkpt lat="41.0771133" lon="14.0708217"><ele>7.0</ele><time>2026-05-04T13:41:37.407Z</time></trkpt><trkpt lat="41.07705" lon="14.070675"><ele>7.0</ele><time>2026-05-04T13:41:39.407Z</time></trkpt><trkpt lat="41.0769933" lon="14.0705317"><ele>6.999999999999999</ele><time>2026-05-04T13:41:41.406Z</time></trkpt><trkpt lat="41.076935" lon="14.0704017"><ele>6.999999999999999</ele><time>2026-05-04T13:41:43.406Z</time></trkpt><trkpt lat="41.0769" lon="14.0703317"><ele>7.0</ele><time>2026-05-04T13:41:44.406Z</time></trkpt><trkpt lat="41.0768383" lon="14.0701883"><ele>7.0</ele><time>2026-05-04T13:41:46.403Z</time></trkpt><trkpt lat="41.0767733" lon="14.0700467"><ele>7.0</ele><time>2026-05-04T13:41:48.402Z</time></trkpt><trkpt lat="41.0767133" lon="14.0699017"><ele>6.999999999999999</ele><time>2026-05-04T13:41:50.405Z</time></trkpt><trkpt lat="41.076655" lon="14.0697567"><ele>6.999999999999999</ele><time>2026-05-04T13:41:52.405Z</time></trkpt><trkpt lat="41.0766267" lon="14.0696817"><ele>7.0</ele><time>2026-05-04T13:41:53.408Z</time></trkpt><trkpt lat="41.0765683" lon="14.0695383"><ele>7.0</ele><time>2026-05-04T13:41:55.407Z</time></trkpt><trkpt lat="41.0765133" lon="14.069395"><ele>7.0</ele><time>2026-05-04T13:41:57.403Z</time></trkpt><trkpt lat="41.0764533" lon="14.06925"><ele>7.0</ele><time>2026-05-04T13:41:59.405Z</time></trkpt><trkpt lat="41.076395" lon="14.06911"><ele>7.0</ele><time>2026-05-04T13:42:01.406Z</time></trkpt><trkpt lat="41.0763333" lon="14.06897"><ele>7.0</ele><time>2026-05-04T13:42:03.404Z</time></trkpt><trkpt lat="41.076275" lon="14.0688367"><ele>7.0</ele><time>2026-05-04T13:42:05.404Z</time></trkpt><trkpt lat="41.0762217" lon="14.0687067"><ele>6.999999999999999</ele><time>2026-05-04T13:42:07.405Z</time></trkpt><trkpt lat="41.0761717" lon="14.068585"><ele>6.999999999999999</ele><time>2026-05-04T13:42:09.404Z</time></trkpt><trkpt lat="41.07612" lon="14.0684617"><ele>7.0</ele><time>2026-05-04T13:42:11.405Z</time></trkpt><trkpt lat="41.0760617" lon="14.06834"><ele>7.0</ele><time>2026-05-04T13:42:13.406Z</time></trkpt><trkpt lat="41.076005" lon="14.0682133"><ele>7.0</ele><time>2026-05-04T13:42:15.407Z</time></trkpt><trkpt lat="41.0759533" lon="14.06809"><ele>6.999999999999999</ele><time>2026-05-04T13:42:17.407Z</time></trkpt><trkpt lat="41.0759033" lon="14.06798"><ele>6.999999999999999</ele><time>2026-05-04T13:42:19.408Z</time></trkpt><trkpt lat="41.07585" lon="14.0678633"><ele>7.0</ele><time>2026-05-04T13:42:21.407Z</time></trkpt><trkpt lat="41.0757983" lon="14.067745"><ele>7.0</ele><time>2026-05-04T13:42:23.407Z</time></trkpt><trkpt lat="41.0757417" lon="14.067625"><ele>7.0</ele><time>2026-05-04T13:42:25.404Z</time></trkpt><trkpt lat="41.0756883" lon="14.0674967"><ele>7.0</ele><time>2026-05-04T13:42:27.406Z</time></trkpt><trkpt lat="41.0756283" lon="14.0673583"><ele>7.0</ele><time>2026-05-04T13:42:29.403Z</time></trkpt><trkpt lat="41.0755667" lon="14.0672233"><ele>7.0</ele><time>2026-05-04T13:42:31.406Z</time></trkpt><trkpt lat="41.07551" lon="14.067085"><ele>7.000000000000001</ele><time>2026-05-04T13:42:33.404Z</time></trkpt><trkpt lat="41.0754517" lon="14.06694"><ele>7.0</ele><time>2026-05-04T13:42:35.407Z</time></trkpt><trkpt lat="41.0754167" lon="14.0668683"><ele>7.0</ele><time>2026-05-04T13:42:36.407Z</time></trkpt><trkpt lat="41.0753817" lon="14.0667983"><ele>7.0</ele><time>2026-05-04T13:42:37.408Z</time></trkpt><trkpt lat="41.0753483" lon="14.0667267"><ele>7.000000000000001</ele><time>2026-05-04T13:42:38.403Z</time></trkpt><trkpt lat="41.0753167" lon="14.0666517"><ele>7.0</ele><time>2026-05-04T13:42:39.406Z</time></trkpt><trkpt lat="41.0752533" lon="14.06651"><ele>6.8</ele><time>2026-05-04T13:42:41.405Z</time></trkpt><trkpt lat="41.0751917" lon="14.066375"><ele>6.6</ele><time>2026-05-04T13:42:43.407Z</time></trkpt><trkpt lat="41.07516" lon="14.0663017"><ele>6.3999999999999995</ele><time>2026-05-04T13:42:44.407Z</time></trkpt><trkpt lat="41.0750983" lon="14.06616"><ele>6.199999999999999</ele><time>2026-05-04T13:42:46.407Z</time></trkpt><trkpt lat="41.075035" lon="14.0660167"><ele>6.0</ele><time>2026-05-04T13:42:48.405Z</time></trkpt><trkpt lat="41.074975" lon="14.0658717"><ele>5.8</ele><time>2026-05-04T13:42:50.406Z</time></trkpt><trkpt lat="41.074915" lon="14.0657383"><ele>5.6</ele><time>2026-05-04T13:42:52.404Z</time></trkpt><trkpt lat="41.07486" lon="14.0656133"><ele>5.4</ele><time>2026-05-04T13:42:54.407Z</time></trkpt><trkpt lat="41.0748083" lon="14.0654883"><ele>5.2</ele><time>2026-05-04T13:42:56.407Z</time></trkpt><trkpt lat="41.0747583" lon="14.065365"><ele>5.0</ele><time>2026-05-04T13:42:58.407Z</time></trkpt><trkpt lat="41.0747167" lon="14.06525"><ele>5.0</ele><time>2026-05-04T13:43:00.405Z</time></trkpt><trkpt lat="41.0747033" lon="14.0651283"><ele>5.0</ele><time>2026-05-04T13:43:02.406Z</time></trkpt><trkpt lat="41.0746917" lon="14.065"><ele>5.0</ele><time>2026-05-04T13:43:04.403Z</time></trkpt><trkpt lat="41.07465" lon="14.0648817"><ele>5.0</ele><time>2026-05-04T13:43:06.404Z</time></trkpt><trkpt lat="41.0745767" lon="14.06478"><ele>5.0</ele><time>2026-05-04T13:43:08.406Z</time></trkpt><trkpt lat="41.0744983" lon="14.0646983"><ele>5.2</ele><time>2026-05-04T13:43:10.406Z</time></trkpt><trkpt lat="41.07443" lon="14.0646083"><ele>5.4</ele><time>2026-05-04T13:43:12.404Z</time></trkpt><trkpt lat="41.0743817" lon="14.0644967"><ele>5.6</ele><time>2026-05-04T13:43:14.405Z</time></trkpt><trkpt lat="41.0743383" lon="14.064375"><ele>5.8</ele><time>2026-05-04T13:43:16.403Z</time></trkpt><trkpt lat="41.07429" lon="14.0642517"><ele>6.0</ele><time>2026-05-04T13:43:18.405Z</time></trkpt><trkpt lat="41.0742333" lon="14.0641233"><ele>6.0</ele><time>2026-05-04T13:43:20.407Z</time></trkpt><trkpt lat="41.0741733" lon="14.06399"><ele>6.0</ele><time>2026-05-04T13:43:22.407Z</time></trkpt><trkpt lat="41.074115" lon="14.0638533"><ele>6.0</ele><time>2026-05-04T13:43:24.407Z</time></trkpt><trkpt lat="41.0740583" lon="14.06371"><ele>6.0</ele><time>2026-05-04T13:43:26.404Z</time></trkpt><trkpt lat="41.0739983" lon="14.063585"><ele>6.0</ele><time>2026-05-04T13:43:28.405Z</time></trkpt><trkpt lat="41.07394" lon="14.0634667"><ele>6.0</ele><time>2026-05-04T13:43:30.407Z</time></trkpt><trkpt lat="41.0738833" lon="14.0633433"><ele>6.0</ele><time>2026-05-04T13:43:32.402Z</time></trkpt><trkpt lat="41.0738267" lon="14.0632217"><ele>6.0</ele><time>2026-05-04T13:43:34.404Z</time></trkpt><trkpt lat="41.0737667" lon="14.063095"><ele>6.0</ele><time>2026-05-04T13:43:36.405Z</time></trkpt><trkpt lat="41.0737067" lon="14.0629667"><ele>6.0</ele><time>2026-05-04T13:43:38.407Z</time></trkpt><trkpt lat="41.073655" lon="14.0628383"><ele>6.0</ele><time>2026-05-04T13:43:40.403Z</time></trkpt><trkpt lat="41.073605" lon="14.0627067"><ele>6.0</ele><time>2026-05-04T13:43:42.405Z</time></trkpt><trkpt lat="41.0735533" lon="14.0625833"><ele>6.0</ele><time>2026-05-04T13:43:44.407Z</time></trkpt><trkpt lat="41.0734967" lon="14.0624617"><ele>6.0</ele><time>2026-05-04T13:43:46.403Z</time></trkpt><trkpt lat="41.07344" lon="14.0623383"><ele>6.0</ele><time>2026-05-04T13:43:48.407Z</time></trkpt><trkpt lat="41.07338" lon="14.0622033"><ele>6.0</ele><time>2026-05-04T13:43:50.407Z</time></trkpt><trkpt lat="41.0733233" lon="14.062065"><ele>6.0</ele><time>2026-05-04T13:43:52.405Z</time></trkpt><trkpt lat="41.0732667" lon="14.0619283"><ele>6.0</ele><time>2026-05-04T13:43:54.406Z</time></trkpt><trkpt lat="41.0732083" lon="14.0617883"><ele>6.0</ele><time>2026-05-04T13:43:56.406Z</time></trkpt><trkpt lat="41.073145" lon="14.061645"><ele>6.0</ele><time>2026-05-04T13:43:58.407Z</time></trkpt><trkpt lat="41.073085" lon="14.0615017"><ele>6.0</ele><time>2026-05-04T13:44:00.407Z</time></trkpt><trkpt lat="41.0730217" lon="14.0613583"><ele>6.0</ele><time>2026-05-04T13:44:02.407Z</time></trkpt><trkpt lat="41.072965" lon="14.0612183"><ele>6.4</ele><time>2026-05-04T13:44:04.406Z</time></trkpt><trkpt lat="41.07291" lon="14.06109"><ele>6.8</ele><time>2026-05-04T13:44:06.405Z</time></trkpt><trkpt lat="41.072855" lon="14.0609683"><ele>7.200000000000001</ele><time>2026-05-04T13:44:08.404Z</time></trkpt><trkpt lat="41.0728017" lon="14.0608483"><ele>7.6000000000000005</ele><time>2026-05-04T13:44:10.404Z</time></trkpt><trkpt lat="41.072745" lon="14.0607317"><ele>8.0</ele><time>2026-05-04T13:44:12.406Z</time></trkpt><trkpt lat="41.0726917" lon="14.06061"><ele>8.25</ele><time>2026-05-04T13:44:14.405Z</time></trkpt><trkpt lat="41.0726367" lon="14.0604817"><ele>8.5</ele><time>2026-05-04T13:44:16.407Z</time></trkpt><trkpt lat="41.0725883" lon="14.0603517"><ele>8.75</ele><time>2026-05-04T13:44:18.406Z</time></trkpt><trkpt lat="41.0725367" lon="14.0602217"><ele>9.0</ele><time>2026-05-04T13:44:20.406Z</time></trkpt><trkpt lat="41.0724767" lon="14.06008"><ele>8.5</ele><time>2026-05-04T13:44:22.404Z</time></trkpt><trkpt lat="41.0724133" lon="14.0599383"><ele>8.0</ele><time>2026-05-04T13:44:24.406Z</time></trkpt><trkpt lat="41.07238" lon="14.0598667"><ele>7.5</ele><time>2026-05-04T13:44:25.404Z</time></trkpt><trkpt lat="41.0723467" lon="14.0597917"><ele>7.0</ele><time>2026-05-04T13:44:26.406Z</time></trkpt><trkpt lat="41.07231" lon="14.059715"><ele>6.5</ele><time>2026-05-04T13:44:27.407Z</time></trkpt><trkpt lat="41.0722767" lon="14.0596383"><ele>6.0</ele><time>2026-05-04T13:44:28.406Z</time></trkpt><trkpt lat="41.0722417" lon="14.0595617"><ele>6.0</ele><time>2026-05-04T13:44:29.403Z</time></trkpt><trkpt lat="41.0722067" lon="14.0594883"><ele>6.0</ele><time>2026-05-04T13:44:30.407Z</time></trkpt><trkpt lat="41.0721783" lon="14.0594117"><ele>6.0</ele><time>2026-05-04T13:44:31.405Z</time></trkpt><trkpt lat="41.0721483" lon="14.059335"><ele>6.0</ele><time>2026-05-04T13:44:32.405Z</time></trkpt><trkpt lat="41.0720917" lon="14.0591867"><ele>6.0</ele><time>2026-05-04T13:44:34.405Z</time></trkpt><trkpt lat="41.07206" lon="14.05911"><ele>6.0</ele><time>2026-05-04T13:44:35.404Z</time></trkpt><trkpt lat="41.0720283" lon="14.0590333"><ele>6.0</ele><time>2026-05-04T13:44:36.405Z</time></trkpt><trkpt lat="41.0719717" lon="14.0588883"><ele>6.0</ele><time>2026-05-04T13:44:38.407Z</time></trkpt><trkpt lat="41.0719133" lon="14.058745"><ele>6.0</ele><time>2026-05-04T13:44:40.405Z</time></trkpt><trkpt lat="41.0718467" lon="14.0586067"><ele>6.0</ele><time>2026-05-04T13:44:42.406Z</time></trkpt><trkpt lat="41.0717883" lon="14.0584633"><ele>6.0</ele><time>2026-05-04T13:44:44.407Z</time></trkpt><trkpt lat="41.071735" lon="14.0583183"><ele>6.0</ele><time>2026-05-04T13:44:46.403Z</time></trkpt><trkpt lat="41.0716733" lon="14.05818"><ele>6.0</ele><time>2026-05-04T13:44:48.407Z</time></trkpt><trkpt lat="41.07161" lon="14.058035"><ele>6.0</ele><time>2026-05-04T13:44:50.406Z</time></trkpt><trkpt lat="41.07158" lon="14.05796"><ele>6.0</ele><time>2026-05-04T13:44:51.403Z</time></trkpt><trkpt lat="41.071545" lon="14.057885"><ele>6.166666666666667</ele><time>2026-05-04T13:44:52.407Z</time></trkpt><trkpt lat="41.0715117" lon="14.05781"><ele>6.333333333333334</ele><time>2026-05-04T13:44:53.407Z</time></trkpt><trkpt lat="41.07148" lon="14.0577333"><ele>6.5</ele><time>2026-05-04T13:44:54.407Z</time></trkpt><trkpt lat="41.0714467" lon="14.0576583"><ele>6.666666666666667</ele><time>2026-05-04T13:44:55.406Z</time></trkpt><trkpt lat="41.0714133" lon="14.057585"><ele>6.833333333333334</ele><time>2026-05-04T13:44:56.407Z</time></trkpt><trkpt lat="41.07138" lon="14.05751"><ele>7.0</ele><time>2026-05-04T13:44:57.406Z</time></trkpt><trkpt lat="41.0713217" lon="14.0573633"><ele>7.000000000000001</ele><time>2026-05-04T13:44:59.404Z</time></trkpt><trkpt lat="41.07129" lon="14.0572883"><ele>7.0</ele><time>2026-05-04T13:45:00.407Z</time></trkpt><trkpt lat="41.071255" lon="14.057215"><ele>7.0</ele><time>2026-05-04T13:45:01.407Z</time></trkpt><trkpt lat="41.0712217" lon="14.0571417"><ele>7.0</ele><time>2026-05-04T13:45:02.406Z</time></trkpt><trkpt lat="41.071155" lon="14.0569967"><ele>7.000000000000001</ele><time>2026-05-04T13:45:04.407Z</time></trkpt><trkpt lat="41.071125" lon="14.0569217"><ele>7.0</ele><time>2026-05-04T13:45:05.405Z</time></trkpt><trkpt lat="41.0710917" lon="14.056845"><ele>7.0</ele><time>2026-05-04T13:45:06.407Z</time></trkpt><trkpt lat="41.07106" lon="14.0567683"><ele>7.0</ele><time>2026-05-04T13:45:07.407Z</time></trkpt><trkpt lat="41.07103" lon="14.05669"><ele>7.0</ele><time>2026-05-04T13:45:08.406Z</time></trkpt><trkpt lat="41.0709967" lon="14.0566133"><ele>7.0</ele><time>2026-05-04T13:45:09.406Z</time></trkpt><trkpt lat="41.070965" lon="14.0565383"><ele>7.0</ele><time>2026-05-04T13:45:10.406Z</time></trkpt><trkpt lat="41.070935" lon="14.0564633"><ele>7.0</ele><time>2026-05-04T13:45:11.406Z</time></trkpt><trkpt lat="41.0709033" lon="14.0563883"><ele>7.0</ele><time>2026-05-04T13:45:12.405Z</time></trkpt><trkpt lat="41.07087" lon="14.0563117"><ele>7.0</ele><time>2026-05-04T13:45:13.408Z</time></trkpt><trkpt lat="41.070835" lon="14.056235"><ele>7.0</ele><time>2026-05-04T13:45:14.407Z</time></trkpt><trkpt lat="41.0708017" lon="14.0561583"><ele>7.0</ele><time>2026-05-04T13:45:15.406Z</time></trkpt><trkpt lat="41.0707683" lon="14.05608"><ele>7.0</ele><time>2026-05-04T13:45:16.407Z</time></trkpt><trkpt lat="41.0707367" lon="14.0560017"><ele>7.0</ele><time>2026-05-04T13:45:17.406Z</time></trkpt><trkpt lat="41.070705" lon="14.055925"><ele>7.0</ele><time>2026-05-04T13:45:18.407Z</time></trkpt><trkpt lat="41.07067" lon="14.0558467"><ele>7.0</ele><time>2026-05-04T13:45:19.408Z</time></trkpt><trkpt lat="41.070635" lon="14.0557717"><ele>7.0</ele><time>2026-05-04T13:45:20.403Z</time></trkpt><trkpt lat="41.0706017" lon="14.0556967"><ele>7.0</ele><time>2026-05-04T13:45:21.405Z</time></trkpt><trkpt lat="41.0705683" lon="14.0556233"><ele>7.0</ele><time>2026-05-04T13:45:22.406Z</time></trkpt><trkpt lat="41.070535" lon="14.0555483"><ele>7.0</ele><time>2026-05-04T13:45:23.404Z</time></trkpt><trkpt lat="41.070505" lon="14.0554733"><ele>7.0</ele><time>2026-05-04T13:45:24.407Z</time></trkpt><trkpt lat="41.0704717" lon="14.0553967"><ele>7.0</ele><time>2026-05-04T13:45:25.407Z</time></trkpt><trkpt lat="41.0704383" lon="14.0553183"><ele>7.0</ele><time>2026-05-04T13:45:26.406Z</time></trkpt><trkpt lat="41.0704067" lon="14.0552433"><ele>7.0</ele><time>2026-05-04T13:45:27.403Z</time></trkpt><trkpt lat="41.0703733" lon="14.0551683"><ele>7.0</ele><time>2026-05-04T13:45:28.406Z</time></trkpt><trkpt lat="41.07034" lon="14.0550917"><ele>7.0</ele><time>2026-05-04T13:45:29.407Z</time></trkpt><trkpt lat="41.070305" lon="14.055015"><ele>7.0</ele><time>2026-05-04T13:45:30.403Z</time></trkpt><trkpt lat="41.0702717" lon="14.0549367"><ele>7.0</ele><time>2026-05-04T13:45:31.406Z</time></trkpt><trkpt lat="41.0702367" lon="14.0548633"><ele>7.0</ele><time>2026-05-04T13:45:32.407Z</time></trkpt><trkpt lat="41.0702033" lon="14.0547833"><ele>7.0</ele><time>2026-05-04T13:45:33.405Z</time></trkpt><trkpt lat="41.07017" lon="14.054705"><ele>7.0</ele><time>2026-05-04T13:45:34.407Z</time></trkpt><trkpt lat="41.0701367" lon="14.05463"><ele>7.0</ele><time>2026-05-04T13:45:35.407Z</time></trkpt><trkpt lat="41.070105" lon="14.0545567"><ele>7.0</ele><time>2026-05-04T13:45:36.407Z</time></trkpt><trkpt lat="41.07007" lon="14.0544817"><ele>7.0</ele><time>2026-05-04T13:45:37.407Z</time></trkpt><trkpt lat="41.0700333" lon="14.0544083"><ele>7.0</ele><time>2026-05-04T13:45:38.407Z</time></trkpt><trkpt lat="41.0700017" lon="14.0543333"><ele>7.0</ele><time>2026-05-04T13:45:39.407Z</time></trkpt><trkpt lat="41.0699433" lon="14.0541967"><ele>7.0</ele><time>2026-05-04T13:45:41.405Z</time></trkpt><trkpt lat="41.06988" lon="14.0540517"><ele>6.857142857142857</ele><time>2026-05-04T13:45:43.406Z</time></trkpt><trkpt lat="41.0698483" lon="14.0539767"><ele>6.714285714285714</ele><time>2026-05-04T13:45:44.407Z</time></trkpt><trkpt lat="41.0698167" lon="14.0539"><ele>6.571428571428571</ele><time>2026-05-04T13:45:45.407Z</time></trkpt><trkpt lat="41.0697833" lon="14.05382"><ele>6.428571428571429</ele><time>2026-05-04T13:45:46.406Z</time></trkpt><trkpt lat="41.06975" lon="14.0537433"><ele>6.285714285714286</ele><time>2026-05-04T13:45:47.403Z</time></trkpt><trkpt lat="41.0697133" lon="14.0536667"><ele>6.142857142857142</ele><time>2026-05-04T13:45:48.406Z</time></trkpt><trkpt lat="41.069685" lon="14.0535917"><ele>6.0</ele><time>2026-05-04T13:45:49.405Z</time></trkpt><trkpt lat="41.0696533" lon="14.0535167"><ele>5.999999999999999</ele><time>2026-05-04T13:45:50.405Z</time></trkpt><trkpt lat="41.06962" lon="14.053435"><ele>6.0</ele><time>2026-05-04T13:45:51.404Z</time></trkpt><trkpt lat="41.069585" lon="14.053355"><ele>6.0</ele><time>2026-05-04T13:45:52.405Z</time></trkpt><trkpt lat="41.0695517" lon="14.0532733"><ele>6.0</ele><time>2026-05-04T13:45:53.407Z</time></trkpt><trkpt lat="41.0695167" lon="14.0531917"><ele>6.0</ele><time>2026-05-04T13:45:54.404Z</time></trkpt><trkpt lat="41.06948" lon="14.0531133"><ele>5.999999999999999</ele><time>2026-05-04T13:45:55.408Z</time></trkpt><trkpt lat="41.06945" lon="14.0530367"><ele>6.0</ele><time>2026-05-04T13:45:56.407Z</time></trkpt><trkpt lat="41.06942" lon="14.05296"><ele>5.833333333333333</ele><time>2026-05-04T13:45:57.403Z</time></trkpt><trkpt lat="41.0693867" lon="14.052885"><ele>5.666666666666667</ele><time>2026-05-04T13:45:58.405Z</time></trkpt><trkpt lat="41.0693233" lon="14.05274"><ele>5.5</ele><time>2026-05-04T13:46:00.405Z</time></trkpt><trkpt lat="41.06929" lon="14.052665"><ele>5.333333333333334</ele><time>2026-05-04T13:46:01.404Z</time></trkpt><trkpt lat="41.069255" lon="14.05259"><ele>5.166666666666667</ele><time>2026-05-04T13:46:02.404Z</time></trkpt><trkpt lat="41.06922" lon="14.0525117"><ele>5.0</ele><time>2026-05-04T13:46:03.407Z</time></trkpt><trkpt lat="41.0691883" lon="14.052435"><ele>5.0</ele><time>2026-05-04T13:46:04.406Z</time></trkpt><trkpt lat="41.0691567" lon="14.0523583"><ele>5.0</ele><time>2026-05-04T13:46:05.407Z</time></trkpt><trkpt lat="41.0691283" lon="14.0522817"><ele>5.0</ele><time>2026-05-04T13:46:06.405Z</time></trkpt><trkpt lat="41.0690983" lon="14.052205"><ele>5.0</ele><time>2026-05-04T13:46:07.407Z</time></trkpt><trkpt lat="41.0690683" lon="14.0521283"><ele>5.0</ele><time>2026-05-04T13:46:08.408Z</time></trkpt><trkpt lat="41.0690083" lon="14.0519783"><ele>5.0</ele><time>2026-05-04T13:46:10.406Z</time></trkpt><trkpt lat="41.0689467" lon="14.051835"><ele>5.0</ele><time>2026-05-04T13:46:12.406Z</time></trkpt><trkpt lat="41.0689133" lon="14.0517617"><ele>5.0</ele><time>2026-05-04T13:46:13.405Z</time></trkpt><trkpt lat="41.0688817" lon="14.051685"><ele>5.0</ele><time>2026-05-04T13:46:14.405Z</time></trkpt><trkpt lat="41.0688467" lon="14.0516133"><ele>5.0</ele><time>2026-05-04T13:46:15.405Z</time></trkpt><trkpt lat="41.0688117" lon="14.0515367"><ele>5.0</ele><time>2026-05-04T13:46:16.404Z</time></trkpt><trkpt lat="41.0687783" lon="14.0514583"><ele>5.0</ele><time>2026-05-04T13:46:17.405Z</time></trkpt><trkpt lat="41.068745" lon="14.0513817"><ele>5.0</ele><time>2026-05-04T13:46:18.406Z</time></trkpt><trkpt lat="41.06871" lon="14.0513017"><ele>5.0</ele><time>2026-05-04T13:46:19.405Z</time></trkpt><trkpt lat="41.0686767" lon="14.0512233"><ele>5.0</ele><time>2026-05-04T13:46:20.404Z</time></trkpt><trkpt lat="41.0686417" lon="14.0511467"><ele>5.0</ele><time>2026-05-04T13:46:21.403Z</time></trkpt><trkpt lat="41.0686083" lon="14.0510683"><ele>5.0</ele><time>2026-05-04T13:46:22.406Z</time></trkpt><trkpt lat="41.068575" lon="14.0509883"><ele>5.0</ele><time>2026-05-04T13:46:23.407Z</time></trkpt><trkpt lat="41.0685417" lon="14.0509117"><ele>5.0</ele><time>2026-05-04T13:46:24.404Z</time></trkpt><trkpt lat="41.06851" lon="14.0508367"><ele>5.0</ele><time>2026-05-04T13:46:25.408Z</time></trkpt><trkpt lat="41.06848" lon="14.0507617"><ele>5.0</ele><time>2026-05-04T13:46:26.407Z</time></trkpt><trkpt lat="41.0684467" lon="14.0506833"><ele>5.0</ele><time>2026-05-04T13:46:27.406Z</time></trkpt><trkpt lat="41.0684133" lon="14.0506083"><ele>5.0</ele><time>2026-05-04T13:46:28.407Z</time></trkpt><trkpt lat="41.0683783" lon="14.0505317"><ele>5.0</ele><time>2026-05-04T13:46:29.404Z</time></trkpt><trkpt lat="41.068345" lon="14.0504583"><ele>5.0</ele><time>2026-05-04T13:46:30.405Z</time></trkpt><trkpt lat="41.06831" lon="14.0503833"><ele>5.0</ele><time>2026-05-04T13:46:31.407Z</time></trkpt><trkpt lat="41.0682767" lon="14.0503067"><ele>5.0</ele><time>2026-05-04T13:46:32.402Z</time></trkpt><trkpt lat="41.0682417" lon="14.05023"><ele>4.857142857142857</ele><time>2026-05-04T13:46:33.407Z</time></trkpt><trkpt lat="41.068205" lon="14.0501533"><ele>4.714285714285714</ele><time>2026-05-04T13:46:34.407Z</time></trkpt><trkpt lat="41.0681683" lon="14.0500767"><ele>4.571428571428571</ele><time>2026-05-04T13:46:35.404Z</time></trkpt><trkpt lat="41.068135" lon="14.05"><ele>4.428571428571429</ele><time>2026-05-04T13:46:36.407Z</time></trkpt><trkpt lat="41.0681033" lon="14.0499233"><ele>4.285714285714286</ele><time>2026-05-04T13:46:37.406Z</time></trkpt><trkpt lat="41.06807" lon="14.0498483"><ele>4.142857142857142</ele><time>2026-05-04T13:46:38.407Z</time></trkpt><trkpt lat="41.0680383" lon="14.0497717"><ele>4.0</ele><time>2026-05-04T13:46:39.407Z</time></trkpt><trkpt lat="41.0680033" lon="14.0496967"><ele>4.285714285714286</ele><time>2026-05-04T13:46:40.407Z</time></trkpt><trkpt lat="41.0679717" lon="14.04962"><ele>4.571428571428571</ele><time>2026-05-04T13:46:41.406Z</time></trkpt><trkpt lat="41.06794" lon="14.0495383"><ele>4.857142857142857</ele><time>2026-05-04T13:46:42.404Z</time></trkpt><trkpt lat="41.0679067" lon="14.049455"><ele>5.142857142857142</ele><time>2026-05-04T13:46:43.408Z</time></trkpt><trkpt lat="41.067875" lon="14.049375"><ele>5.428571428571429</ele><time>2026-05-04T13:46:44.404Z</time></trkpt><trkpt lat="41.0678417" lon="14.049295"><ele>5.7142857142857135</ele><time>2026-05-04T13:46:45.407Z</time></trkpt><trkpt lat="41.0678067" lon="14.04922"><ele>6.0</ele><time>2026-05-04T13:46:46.405Z</time></trkpt><trkpt lat="41.0677717" lon="14.0491483"><ele>5.999999999999999</ele><time>2026-05-04T13:46:47.404Z</time></trkpt><trkpt lat="41.0677383" lon="14.049075"><ele>6.0</ele><time>2026-05-04T13:46:48.406Z</time></trkpt><trkpt lat="41.067705" lon="14.0489983"><ele>6.0</ele><time>2026-05-04T13:46:49.405Z</time></trkpt><trkpt lat="41.0676683" lon="14.0489217"><ele>6.0</ele><time>2026-05-04T13:46:50.405Z</time></trkpt><trkpt lat="41.0676317" lon="14.048845"><ele>6.0</ele><time>2026-05-04T13:46:51.405Z</time></trkpt><trkpt lat="41.067595" lon="14.0487717"><ele>5.999999999999999</ele><time>2026-05-04T13:46:52.406Z</time></trkpt><trkpt lat="41.0675633" lon="14.048695"><ele>6.0</ele><time>2026-05-04T13:46:53.407Z</time></trkpt><trkpt lat="41.06753" lon="14.0486183"><ele>5.999999999999999</ele><time>2026-05-04T13:46:54.406Z</time></trkpt><trkpt lat="41.0674967" lon="14.0485417"><ele>6.0</ele><time>2026-05-04T13:46:55.404Z</time></trkpt><trkpt lat="41.067465" lon="14.0484633"><ele>6.0</ele><time>2026-05-04T13:46:56.405Z</time></trkpt><trkpt lat="41.0674317" lon="14.0483867"><ele>6.0</ele><time>2026-05-04T13:46:57.406Z</time></trkpt><trkpt lat="41.0674" lon="14.0483067"><ele>6.0</ele><time>2026-05-04T13:46:58.407Z</time></trkpt><trkpt lat="41.0673667" lon="14.048225"><ele>5.999999999999999</ele><time>2026-05-04T13:46:59.407Z</time></trkpt><trkpt lat="41.0673317" lon="14.0481467"><ele>6.0</ele><time>2026-05-04T13:47:00.406Z</time></trkpt><trkpt lat="41.0672983" lon="14.0480717"><ele>5.857142857142857</ele><time>2026-05-04T13:47:01.406Z</time></trkpt><trkpt lat="41.0672633" lon="14.0479983"><ele>5.714285714285714</ele><time>2026-05-04T13:47:02.407Z</time></trkpt><trkpt lat="41.0672283" lon="14.0479217"><ele>5.571428571428571</ele><time>2026-05-04T13:47:03.405Z</time></trkpt><trkpt lat="41.0671933" lon="14.047845"><ele>5.428571428571429</ele><time>2026-05-04T13:47:04.407Z</time></trkpt><trkpt lat="41.0671617" lon="14.047765"><ele>5.285714285714286</ele><time>2026-05-04T13:47:05.406Z</time></trkpt><trkpt lat="41.0671317" lon="14.0476867"><ele>5.142857142857142</ele><time>2026-05-04T13:47:06.406Z</time></trkpt><trkpt lat="41.0671" lon="14.0476067"><ele>5.0</ele><time>2026-05-04T13:47:07.405Z</time></trkpt><trkpt lat="41.0670683" lon="14.0475283"><ele>5.0</ele><time>2026-05-04T13:47:08.407Z</time></trkpt><trkpt lat="41.067035" lon="14.0474517"><ele>5.0</ele><time>2026-05-04T13:47:09.406Z</time></trkpt><trkpt lat="41.067005" lon="14.0473733"><ele>5.0</ele><time>2026-05-04T13:47:10.404Z</time></trkpt><trkpt lat="41.0669733" lon="14.0472933"><ele>5.0</ele><time>2026-05-04T13:47:11.408Z</time></trkpt><trkpt lat="41.06694" lon="14.0472167"><ele>5.0</ele><time>2026-05-04T13:47:12.407Z</time></trkpt><trkpt lat="41.066905" lon="14.047145"><ele>5.0</ele><time>2026-05-04T13:47:13.408Z</time></trkpt><trkpt lat="41.06687" lon="14.0470667"><ele>5.0</ele><time>2026-05-04T13:47:14.404Z</time></trkpt><trkpt lat="41.06684" lon="14.0469917"><ele>5.0</ele><time>2026-05-04T13:47:15.406Z</time></trkpt><trkpt lat="41.0668083" lon="14.0469167"><ele>5.0</ele><time>2026-05-04T13:47:16.404Z</time></trkpt><trkpt lat="41.066775" lon="14.0468433"><ele>5.0</ele><time>2026-05-04T13:47:17.406Z</time></trkpt><trkpt lat="41.0667417" lon="14.046765"><ele>5.0</ele><time>2026-05-04T13:47:18.404Z</time></trkpt><trkpt lat="41.06671" lon="14.0466867"><ele>5.0</ele><time>2026-05-04T13:47:19.406Z</time></trkpt><trkpt lat="41.0666783" lon="14.04661"><ele>5.0</ele><time>2026-05-04T13:47:20.405Z</time></trkpt><trkpt lat="41.0666467" lon="14.0465317"><ele>5.0</ele><time>2026-05-04T13:47:21.405Z</time></trkpt><trkpt lat="41.0666117" lon="14.0464517"><ele>4.714285714285714</ele><time>2026-05-04T13:47:22.405Z</time></trkpt><trkpt lat="41.066575" lon="14.0463767"><ele>4.428571428571429</ele><time>2026-05-04T13:47:23.405Z</time></trkpt><trkpt lat="41.06654" lon="14.0463017"><ele>4.142857142857142</ele><time>2026-05-04T13:47:24.407Z</time></trkpt><trkpt lat="41.066505" lon="14.046225"><ele>3.8571428571428568</ele><time>2026-05-04T13:47:25.407Z</time></trkpt><trkpt lat="41.0664717" lon="14.0461483"><ele>3.571428571428571</ele><time>2026-05-04T13:47:26.407Z</time></trkpt><trkpt lat="41.0664383" lon="14.0460733"><ele>3.2857142857142856</ele><time>2026-05-04T13:47:27.407Z</time></trkpt><trkpt lat="41.066405" lon="14.0459967"><ele>3.0</ele><time>2026-05-04T13:47:28.406Z</time></trkpt><trkpt lat="41.0663717" lon="14.0459183"><ele>3.0</ele><time>2026-05-04T13:47:29.407Z</time></trkpt><trkpt lat="41.06634" lon="14.0458433"><ele>3.0</ele><time>2026-05-04T13:47:30.405Z</time></trkpt><trkpt lat="41.0663083" lon="14.0457667"><ele>3.0</ele><time>2026-05-04T13:47:31.408Z</time></trkpt><trkpt lat="41.0662783" lon="14.0456917"><ele>3.0</ele><time>2026-05-04T13:47:32.406Z</time></trkpt><trkpt lat="41.0662467" lon="14.0456167"><ele>3.0</ele><time>2026-05-04T13:47:33.407Z</time></trkpt><trkpt lat="41.0661833" lon="14.0454683"><ele>3.0</ele><time>2026-05-04T13:47:35.406Z</time></trkpt><trkpt lat="41.06615" lon="14.04539"><ele>3.3333333333333335</ele><time>2026-05-04T13:47:36.406Z</time></trkpt><trkpt lat="41.0661183" lon="14.04531"><ele>3.666666666666667</ele><time>2026-05-04T13:47:37.408Z</time></trkpt><trkpt lat="41.0660817" lon="14.0452333"><ele>4.0</ele><time>2026-05-04T13:47:38.407Z</time></trkpt><trkpt lat="41.0660483" lon="14.0451567"><ele>4.333333333333334</ele><time>2026-05-04T13:47:39.408Z</time></trkpt><trkpt lat="41.065985" lon="14.0450083"><ele>4.666666666666667</ele><time>2026-05-04T13:47:41.406Z</time></trkpt><trkpt lat="41.0659533" lon="14.0449333"><ele>5.0</ele><time>2026-05-04T13:47:42.405Z</time></trkpt><trkpt lat="41.0658883" lon="14.044785"><ele>5.166666666666667</ele><time>2026-05-04T13:47:44.406Z</time></trkpt><trkpt lat="41.065855" lon="14.04471"><ele>5.333333333333334</ele><time>2026-05-04T13:47:45.406Z</time></trkpt><trkpt lat="41.0657917" lon="14.0445617"><ele>5.5</ele><time>2026-05-04T13:47:47.405Z</time></trkpt><trkpt lat="41.06576" lon="14.0444867"><ele>5.666666666666667</ele><time>2026-05-04T13:47:48.405Z</time></trkpt><trkpt lat="41.0657267" lon="14.0444133"><ele>5.833333333333333</ele><time>2026-05-04T13:47:49.406Z</time></trkpt><trkpt lat="41.065695" lon="14.0443383"><ele>6.0</ele><time>2026-05-04T13:47:50.404Z</time></trkpt><trkpt lat="41.0656633" lon="14.0442633"><ele>5.833333333333333</ele><time>2026-05-04T13:47:51.405Z</time></trkpt><trkpt lat="41.0656017" lon="14.0441183"><ele>5.666666666666667</ele><time>2026-05-04T13:47:53.407Z</time></trkpt><trkpt lat="41.0655717" lon="14.0440433"><ele>5.5</ele><time>2026-05-04T13:47:54.406Z</time></trkpt><trkpt lat="41.0655067" lon="14.0439033"><ele>5.333333333333334</ele><time>2026-05-04T13:47:56.403Z</time></trkpt><trkpt lat="41.0654733" lon="14.04383"><ele>5.166666666666667</ele><time>2026-05-04T13:47:57.408Z</time></trkpt><trkpt lat="41.06544" lon="14.0437517"><ele>5.0</ele><time>2026-05-04T13:47:58.407Z</time></trkpt><trkpt lat="41.065405" lon="14.0436767"><ele>5.0</ele><time>2026-05-04T13:47:59.403Z</time></trkpt><trkpt lat="41.0653667" lon="14.0436067"><ele>5.0</ele><time>2026-05-04T13:48:00.403Z</time></trkpt><trkpt lat="41.0653317" lon="14.04353"><ele>5.0</ele><time>2026-05-04T13:48:01.405Z</time></trkpt><trkpt lat="41.0653" lon="14.04345"><ele>5.0</ele><time>2026-05-04T13:48:02.406Z</time></trkpt><trkpt lat="41.0652633" lon="14.0433717"><ele>5.0</ele><time>2026-05-04T13:48:03.407Z</time></trkpt><trkpt lat="41.0652283" lon="14.043295"><ele>5.0</ele><time>2026-05-04T13:48:04.404Z</time></trkpt><trkpt lat="41.065195" lon="14.0432167"><ele>5.0</ele><time>2026-05-04T13:48:05.407Z</time></trkpt><trkpt lat="41.0651633" lon="14.0431417"><ele>5.0</ele><time>2026-05-04T13:48:06.406Z</time></trkpt><trkpt lat="41.0651317" lon="14.0430667"><ele>5.0</ele><time>2026-05-04T13:48:07.405Z</time></trkpt><trkpt lat="41.0651" lon="14.04299"><ele>5.0</ele><time>2026-05-04T13:48:08.405Z</time></trkpt><trkpt lat="41.0650683" lon="14.0429117"><ele>5.0</ele><time>2026-05-04T13:48:09.406Z</time></trkpt><trkpt lat="41.0650417" lon="14.04283"><ele>5.0</ele><time>2026-05-04T13:48:10.406Z</time></trkpt><trkpt lat="41.06501" lon="14.0427517"><ele>5.0</ele><time>2026-05-04T13:48:11.407Z</time></trkpt><trkpt lat="41.064975" lon="14.0426767"><ele>5.0</ele><time>2026-05-04T13:48:12.405Z</time></trkpt><trkpt lat="41.0649433" lon="14.0426"><ele>5.2</ele><time>2026-05-04T13:48:13.408Z</time></trkpt><trkpt lat="41.0648833" lon="14.0424583"><ele>5.4</ele><time>2026-05-04T13:48:15.408Z</time></trkpt><trkpt lat="41.0648317" lon="14.0423283"><ele>5.6</ele><time>2026-05-04T13:48:17.405Z</time></trkpt><trkpt lat="41.0647783" lon="14.0422083"><ele>5.8</ele><time>2026-05-04T13:48:19.405Z</time></trkpt><trkpt lat="41.06473" lon="14.042105"><ele>6.0</ele><time>2026-05-04T13:48:21.404Z</time></trkpt><trkpt lat="41.0646917" lon="14.0420067"><ele>6.0</ele><time>2026-05-04T13:48:23.408Z</time></trkpt><trkpt lat="41.0646567" lon="14.0418983"><ele>6.0</ele><time>2026-05-04T13:48:25.408Z</time></trkpt><trkpt lat="41.0646117" lon="14.0418017"><ele>6.0</ele><time>2026-05-04T13:48:27.404Z</time></trkpt><trkpt lat="41.0645617" lon="14.0417"><ele>6.0</ele><time>2026-05-04T13:48:29.407Z</time></trkpt><trkpt lat="41.0645283" lon="14.0415933"><ele>6.0</ele><time>2026-05-04T13:48:31.406Z</time></trkpt><trkpt lat="41.06448" lon="14.0414917"><ele>6.0</ele><time>2026-05-04T13:48:33.403Z</time></trkpt><trkpt lat="41.0644283" lon="14.0413917"><ele>5.833333333333333</ele><time>2026-05-04T13:48:35.408Z</time></trkpt><trkpt lat="41.0643817" lon="14.0412933"><ele>5.666666666666667</ele><time>2026-05-04T13:48:37.408Z</time></trkpt><trkpt lat="41.0643433" lon="14.041195"><ele>5.5</ele><time>2026-05-04T13:48:39.403Z</time></trkpt><trkpt lat="41.0642983" lon="14.0411017"><ele>5.333333333333334</ele><time>2026-05-04T13:48:41.407Z</time></trkpt><trkpt lat="41.0642583" lon="14.0410017"><ele>5.166666666666667</ele><time>2026-05-04T13:48:43.406Z</time></trkpt><trkpt lat="41.0642167" lon="14.040905"><ele>5.0</ele><time>2026-05-04T13:48:45.403Z</time></trkpt><trkpt lat="41.0641767" lon="14.0408083"><ele>4.833333333333334</ele><time>2026-05-04T13:48:47.406Z</time></trkpt><trkpt lat="41.064135" lon="14.040705"><ele>4.666666666666667</ele><time>2026-05-04T13:48:49.406Z</time></trkpt><trkpt lat="41.0640917" lon="14.0406017"><ele>4.5</ele><time>2026-05-04T13:48:51.404Z</time></trkpt><trkpt lat="41.06405" lon="14.0405017"><ele>4.333333333333333</ele><time>2026-05-04T13:48:53.406Z</time></trkpt><trkpt lat="41.064005" lon="14.0404"><ele>4.166666666666666</ele><time>2026-05-04T13:48:55.408Z</time></trkpt><trkpt lat="41.063955" lon="14.0402917"><ele>4.0</ele><time>2026-05-04T13:48:57.407Z</time></trkpt><trkpt lat="41.0639067" lon="14.0401933"><ele>4.4</ele><time>2026-05-04T13:48:59.408Z</time></trkpt><trkpt lat="41.0638583" lon="14.0400817"><ele>4.800000000000001</ele><time>2026-05-04T13:49:01.407Z</time></trkpt><trkpt lat="41.0638133" lon="14.0399667"><ele>5.199999999999999</ele><time>2026-05-04T13:49:03.407Z</time></trkpt><trkpt lat="41.0637667" lon="14.0398533"><ele>5.6</ele><time>2026-05-04T13:49:05.406Z</time></trkpt><trkpt lat="41.0637233" lon="14.0397517"><ele>6.0</ele><time>2026-05-04T13:49:07.408Z</time></trkpt><trkpt lat="41.06368" lon="14.0396517"><ele>6.199999999999999</ele><time>2026-05-04T13:49:09.406Z</time></trkpt><trkpt lat="41.0636383" lon="14.0395467"><ele>6.3999999999999995</ele><time>2026-05-04T13:49:11.404Z</time></trkpt><trkpt lat="41.0635917" lon="14.0394217"><ele>6.6</ele><time>2026-05-04T13:49:13.406Z</time></trkpt><trkpt lat="41.063535" lon="14.0393017"><ele>6.8</ele><time>2026-05-04T13:49:15.408Z</time></trkpt><trkpt lat="41.063485" lon="14.0391767"><ele>7.0</ele><time>2026-05-04T13:49:17.403Z</time></trkpt><trkpt lat="41.06343" lon="14.0390483"><ele>7.0</ele><time>2026-05-04T13:49:19.406Z</time></trkpt><trkpt lat="41.0633733" lon="14.0389167"><ele>7.0</ele><time>2026-05-04T13:49:21.405Z</time></trkpt><trkpt lat="41.0633083" lon="14.0387833"><ele>7.0</ele><time>2026-05-04T13:49:23.408Z</time></trkpt><trkpt lat="41.063245" lon="14.038645"><ele>7.0</ele><time>2026-05-04T13:49:25.409Z</time></trkpt><trkpt lat="41.0631817" lon="14.0385"><ele>7.0</ele><time>2026-05-04T13:49:27.406Z</time></trkpt><trkpt lat="41.063145" lon="14.038425"><ele>7.0</ele><time>2026-05-04T13:49:28.406Z</time></trkpt><trkpt lat="41.06311" lon="14.0383517"><ele>7.0</ele><time>2026-05-04T13:49:29.408Z</time></trkpt><trkpt lat="41.0630767" lon="14.0382783"><ele>7.0</ele><time>2026-05-04T13:49:30.408Z</time></trkpt><trkpt lat="41.06304" lon="14.0381983"><ele>7.0</ele><time>2026-05-04T13:49:31.409Z</time></trkpt><trkpt lat="41.063005" lon="14.0381133"><ele>7.0</ele><time>2026-05-04T13:49:32.407Z</time></trkpt><trkpt lat="41.0629667" lon="14.0380283"><ele>7.0</ele><time>2026-05-04T13:49:33.405Z</time></trkpt><trkpt lat="41.0629267" lon="14.0379367"><ele>7.000000000000001</ele><time>2026-05-04T13:49:34.407Z</time></trkpt><trkpt lat="41.0628867" lon="14.037845"><ele>7.0</ele><time>2026-05-04T13:49:35.406Z</time></trkpt><trkpt lat="41.062845" lon="14.03775"><ele>7.0</ele><time>2026-05-04T13:49:36.407Z</time></trkpt><trkpt lat="41.0628017" lon="14.0376517"><ele>7.0</ele><time>2026-05-04T13:49:37.408Z</time></trkpt><trkpt lat="41.06276" lon="14.0375533"><ele>7.000000000000001</ele><time>2026-05-04T13:49:38.407Z</time></trkpt><trkpt lat="41.0627167" lon="14.0374567"><ele>7.0</ele><time>2026-05-04T13:49:39.403Z</time></trkpt><trkpt lat="41.062675" lon="14.0373567"><ele>6.833333333333334</ele><time>2026-05-04T13:49:40.407Z</time></trkpt><trkpt lat="41.0626367" lon="14.037255"><ele>6.666666666666667</ele><time>2026-05-04T13:49:41.406Z</time></trkpt><trkpt lat="41.062595" lon="14.037155"><ele>6.5</ele><time>2026-05-04T13:49:42.406Z</time></trkpt><trkpt lat="41.0625517" lon="14.0370617"><ele>6.333333333333334</ele><time>2026-05-04T13:49:43.408Z</time></trkpt><trkpt lat="41.0625133" lon="14.0369683"><ele>6.166666666666667</ele><time>2026-05-04T13:49:44.407Z</time></trkpt><trkpt lat="41.0624733" lon="14.036875"><ele>6.0</ele><time>2026-05-04T13:49:45.404Z</time></trkpt><trkpt lat="41.0624333" lon="14.0367767"><ele>6.0</ele><time>2026-05-04T13:49:46.407Z</time></trkpt><trkpt lat="41.062395" lon="14.0366817"><ele>6.0</ele><time>2026-05-04T13:49:47.407Z</time></trkpt><trkpt lat="41.0623583" lon="14.0365867"><ele>6.0</ele><time>2026-05-04T13:49:48.408Z</time></trkpt><trkpt lat="41.06232" lon="14.0364917"><ele>6.0</ele><time>2026-05-04T13:49:49.407Z</time></trkpt><trkpt lat="41.0622817" lon="14.0363983"><ele>6.0</ele><time>2026-05-04T13:49:50.406Z</time></trkpt><trkpt lat="41.0622433" lon="14.0363067"><ele>6.0</ele><time>2026-05-04T13:49:51.404Z</time></trkpt><trkpt lat="41.062205" lon="14.036215"><ele>6.0</ele><time>2026-05-04T13:49:52.405Z</time></trkpt><trkpt lat="41.062165" lon="14.036125"><ele>6.0</ele><time>2026-05-04T13:49:53.404Z</time></trkpt><trkpt lat="41.0621267" lon="14.03604"><ele>6.0</ele><time>2026-05-04T13:49:54.404Z</time></trkpt><trkpt lat="41.0620883" lon="14.0359533"><ele>6.0</ele><time>2026-05-04T13:49:55.406Z</time></trkpt><trkpt lat="41.06205" lon="14.0358667"><ele>6.0</ele><time>2026-05-04T13:49:56.405Z</time></trkpt><trkpt lat="41.0620117" lon="14.03578"><ele>6.0</ele><time>2026-05-04T13:49:57.406Z</time></trkpt><trkpt lat="41.061975" lon="14.0356967"><ele>6.0</ele><time>2026-05-04T13:49:58.405Z</time></trkpt><trkpt lat="41.0619367" lon="14.0356067"><ele>6.0</ele><time>2026-05-04T13:49:59.406Z</time></trkpt><trkpt lat="41.0619033" lon="14.03552"><ele>6.0</ele><time>2026-05-04T13:50:00.406Z</time></trkpt><trkpt lat="41.0618667" lon="14.0354333"><ele>6.0</ele><time>2026-05-04T13:50:01.408Z</time></trkpt><trkpt lat="41.0618283" lon="14.0353467"><ele>6.0</ele><time>2026-05-04T13:50:02.403Z</time></trkpt><trkpt lat="41.06179" lon="14.03526"><ele>6.0</ele><time>2026-05-04T13:50:03.406Z</time></trkpt><trkpt lat="41.0617533" lon="14.035175"><ele>6.0</ele><time>2026-05-04T13:50:04.407Z</time></trkpt><trkpt lat="41.061715" lon="14.0350883"><ele>6.0</ele><time>2026-05-04T13:50:05.407Z</time></trkpt><trkpt lat="41.0616767" lon="14.035005"><ele>6.0</ele><time>2026-05-04T13:50:06.406Z</time></trkpt><trkpt lat="41.06164" lon="14.0349167"><ele>6.0</ele><time>2026-05-04T13:50:07.407Z</time></trkpt><trkpt lat="41.0616" lon="14.03483"><ele>6.0</ele><time>2026-05-04T13:50:08.407Z</time></trkpt><trkpt lat="41.0615583" lon="14.0347417"><ele>6.0</ele><time>2026-05-04T13:50:09.407Z</time></trkpt><trkpt lat="41.061515" lon="14.03465"><ele>5.833333333333333</ele><time>2026-05-04T13:50:10.407Z</time></trkpt><trkpt lat="41.0614733" lon="14.0345617"><ele>5.666666666666667</ele><time>2026-05-04T13:50:11.406Z</time></trkpt><trkpt lat="41.0614333" lon="14.0344767"><ele>5.5</ele><time>2026-05-04T13:50:12.406Z</time></trkpt><trkpt lat="41.0613917" lon="14.0343933"><ele>5.333333333333334</ele><time>2026-05-04T13:50:13.407Z</time></trkpt><trkpt lat="41.061355" lon="14.0343067"><ele>5.166666666666667</ele><time>2026-05-04T13:50:14.407Z</time></trkpt><trkpt lat="41.0613183" lon="14.0342167"><ele>5.0</ele><time>2026-05-04T13:50:15.407Z</time></trkpt><trkpt lat="41.0612833" lon="14.0341267"><ele>5.0</ele><time>2026-05-04T13:50:16.406Z</time></trkpt><trkpt lat="41.0612467" lon="14.0340317"><ele>5.0</ele><time>2026-05-04T13:50:17.408Z</time></trkpt><trkpt lat="41.0612083" lon="14.0339417"><ele>5.0</ele><time>2026-05-04T13:50:18.407Z</time></trkpt><trkpt lat="41.0611683" lon="14.0338533"><ele>5.0</ele><time>2026-05-04T13:50:19.405Z</time></trkpt><trkpt lat="41.0611317" lon="14.03376"><ele>5.0</ele><time>2026-05-04T13:50:20.408Z</time></trkpt><trkpt lat="41.0610917" lon="14.0336683"><ele>5.0</ele><time>2026-05-04T13:50:21.408Z</time></trkpt><trkpt lat="41.0610533" lon="14.0335783"><ele>5.0</ele><time>2026-05-04T13:50:22.406Z</time></trkpt><trkpt lat="41.0610133" lon="14.0334883"><ele>5.0</ele><time>2026-05-04T13:50:23.405Z</time></trkpt><trkpt lat="41.0609767" lon="14.0334"><ele>5.0</ele><time>2026-05-04T13:50:24.408Z</time></trkpt><trkpt lat="41.0609383" lon="14.0333083"><ele>5.0</ele><time>2026-05-04T13:50:25.408Z</time></trkpt><trkpt lat="41.0609" lon="14.0332183"><ele>5.0</ele><time>2026-05-04T13:50:26.406Z</time></trkpt><trkpt lat="41.0608617" lon="14.0331233"><ele>5.0</ele><time>2026-05-04T13:50:27.407Z</time></trkpt><trkpt lat="41.0608217" lon="14.0330317"><ele>5.166666666666667</ele><time>2026-05-04T13:50:28.408Z</time></trkpt><trkpt lat="41.06078" lon="14.0329383"><ele>5.333333333333334</ele><time>2026-05-04T13:50:29.408Z</time></trkpt><trkpt lat="41.06074" lon="14.0328467"><ele>5.5</ele><time>2026-05-04T13:50:30.407Z</time></trkpt><trkpt lat="41.0607017" lon="14.0327567"><ele>5.666666666666667</ele><time>2026-05-04T13:50:31.405Z</time></trkpt><trkpt lat="41.060665" lon="14.03267"><ele>5.833333333333333</ele><time>2026-05-04T13:50:32.408Z</time></trkpt><trkpt lat="41.0606283" lon="14.0325867"><ele>6.0</ele><time>2026-05-04T13:50:33.406Z</time></trkpt><trkpt lat="41.0605917" lon="14.032505"><ele>6.166666666666667</ele><time>2026-05-04T13:50:34.406Z</time></trkpt><trkpt lat="41.0605533" lon="14.0324217"><ele>6.333333333333334</ele><time>2026-05-04T13:50:35.404Z</time></trkpt><trkpt lat="41.0605167" lon="14.0323333"><ele>6.5</ele><time>2026-05-04T13:50:36.405Z</time></trkpt><trkpt lat="41.0604817" lon="14.0322433"><ele>6.666666666666667</ele><time>2026-05-04T13:50:37.407Z</time></trkpt><trkpt lat="41.0604417" lon="14.0321517"><ele>6.833333333333334</ele><time>2026-05-04T13:50:38.408Z</time></trkpt><trkpt lat="41.0604033" lon="14.0320583"><ele>7.0</ele><time>2026-05-04T13:50:39.407Z</time></trkpt><trkpt lat="41.0603667" lon="14.0319717"><ele>7.000000000000001</ele><time>2026-05-04T13:50:40.406Z</time></trkpt><trkpt lat="41.06033" lon="14.03188"><ele>7.0</ele><time>2026-05-04T13:50:41.407Z</time></trkpt><trkpt lat="41.060295" lon="14.0317883"><ele>7.0</ele><time>2026-05-04T13:50:42.408Z</time></trkpt><trkpt lat="41.06026" lon="14.0317033"><ele>7.0</ele><time>2026-05-04T13:50:43.406Z</time></trkpt><trkpt lat="41.0602233" lon="14.0316217"><ele>7.000000000000001</ele><time>2026-05-04T13:50:44.408Z</time></trkpt><trkpt lat="41.060185" lon="14.0315367"><ele>7.0</ele><time>2026-05-04T13:50:45.405Z</time></trkpt><trkpt lat="41.0601467" lon="14.0314467"><ele>7.142857142857142</ele><time>2026-05-04T13:50:46.407Z</time></trkpt><trkpt lat="41.06011" lon="14.0313583"><ele>7.285714285714286</ele><time>2026-05-04T13:50:47.403Z</time></trkpt><trkpt lat="41.060075" lon="14.0312733"><ele>7.428571428571429</ele><time>2026-05-04T13:50:48.404Z</time></trkpt><trkpt lat="41.060035" lon="14.0311833"><ele>7.571428571428571</ele><time>2026-05-04T13:50:49.405Z</time></trkpt><trkpt lat="41.0599933" lon="14.0311033"><ele>7.7142857142857135</ele><time>2026-05-04T13:50:50.405Z</time></trkpt><trkpt lat="41.0599583" lon="14.031025"><ele>7.857142857142857</ele><time>2026-05-04T13:50:51.406Z</time></trkpt><trkpt lat="41.0599217" lon="14.0309433"><ele>8.0</ele><time>2026-05-04T13:50:52.404Z</time></trkpt><trkpt lat="41.0598867" lon="14.03086"><ele>7.857142857142857</ele><time>2026-05-04T13:50:53.405Z</time></trkpt><trkpt lat="41.059855" lon="14.03078"><ele>7.7142857142857135</ele><time>2026-05-04T13:50:54.407Z</time></trkpt><trkpt lat="41.0598217" lon="14.0307033"><ele>7.571428571428571</ele><time>2026-05-04T13:50:55.407Z</time></trkpt><trkpt lat="41.0597883" lon="14.0306217"><ele>7.428571428571429</ele><time>2026-05-04T13:50:56.403Z</time></trkpt><trkpt lat="41.0597533" lon="14.030545"><ele>7.285714285714286</ele><time>2026-05-04T13:50:57.407Z</time></trkpt><trkpt lat="41.05972" lon="14.03047"><ele>7.142857142857142</ele><time>2026-05-04T13:50:58.407Z</time></trkpt><trkpt lat="41.0596833" lon="14.030395"><ele>7.0</ele><time>2026-05-04T13:50:59.403Z</time></trkpt><trkpt lat="41.05965" lon="14.0303183"><ele>7.0</ele><time>2026-05-04T13:51:00.407Z</time></trkpt><trkpt lat="41.0596167" lon="14.0302383"><ele>7.0</ele><time>2026-05-04T13:51:01.408Z</time></trkpt><trkpt lat="41.05958" lon="14.030155"><ele>7.0</ele><time>2026-05-04T13:51:02.406Z</time></trkpt><trkpt lat="41.0595417" lon="14.0300683"><ele>7.0</ele><time>2026-05-04T13:51:03.407Z</time></trkpt><trkpt lat="41.059505" lon="14.0299867"><ele>7.0</ele><time>2026-05-04T13:51:04.405Z</time></trkpt><trkpt lat="41.0594683" lon="14.0299033"><ele>7.0</ele><time>2026-05-04T13:51:05.408Z</time></trkpt><trkpt lat="41.0594317" lon="14.0298217"><ele>7.0</ele><time>2026-05-04T13:51:06.405Z</time></trkpt><trkpt lat="41.0593967" lon="14.02974"><ele>7.0</ele><time>2026-05-04T13:51:07.406Z</time></trkpt><trkpt lat="41.0593583" lon="14.0296583"><ele>7.0</ele><time>2026-05-04T13:51:08.408Z</time></trkpt><trkpt lat="41.0593267" lon="14.0295783"><ele>7.0</ele><time>2026-05-04T13:51:09.404Z</time></trkpt><trkpt lat="41.05929" lon="14.0294967"><ele>7.0</ele><time>2026-05-04T13:51:10.407Z</time></trkpt><trkpt lat="41.05926" lon="14.0294183"><ele>7.0</ele><time>2026-05-04T13:51:11.406Z</time></trkpt><trkpt lat="41.0592317" lon="14.02934"><ele>7.0</ele><time>2026-05-04T13:51:12.406Z</time></trkpt><trkpt lat="41.0592017" lon="14.0292617"><ele>7.0</ele><time>2026-05-04T13:51:13.406Z</time></trkpt><trkpt lat="41.0591683" lon="14.0291817"><ele>7.000000000000001</ele><time>2026-05-04T13:51:14.406Z</time></trkpt><trkpt lat="41.0591367" lon="14.029105"><ele>7.0</ele><time>2026-05-04T13:51:15.406Z</time></trkpt><trkpt lat="41.0590717" lon="14.02896"><ele>7.0</ele><time>2026-05-04T13:51:17.404Z</time></trkpt><trkpt lat="41.0590383" lon="14.028885"><ele>7.0</ele><time>2026-05-04T13:51:18.406Z</time></trkpt><trkpt lat="41.0590067" lon="14.0288083"><ele>7.000000000000001</ele><time>2026-05-04T13:51:19.405Z</time></trkpt><trkpt lat="41.0589733" lon="14.028735"><ele>7.0</ele><time>2026-05-04T13:51:20.404Z</time></trkpt><trkpt lat="41.0589383" lon="14.02866"><ele>6.857142857142857</ele><time>2026-05-04T13:51:21.405Z</time></trkpt><trkpt lat="41.0589067" lon="14.02858"><ele>6.714285714285714</ele><time>2026-05-04T13:51:22.405Z</time></trkpt><trkpt lat="41.0588733" lon="14.0285"><ele>6.571428571428571</ele><time>2026-05-04T13:51:23.404Z</time></trkpt><trkpt lat="41.0588383" lon="14.0284217"><ele>6.428571428571429</ele><time>2026-05-04T13:51:24.405Z</time></trkpt><trkpt lat="41.0588017" lon="14.0283433"><ele>6.285714285714286</ele><time>2026-05-04T13:51:25.405Z</time></trkpt><trkpt lat="41.058765" lon="14.0282667"><ele>6.142857142857142</ele><time>2026-05-04T13:51:26.406Z</time></trkpt><trkpt lat="41.05873" lon="14.0281883"><ele>6.0</ele><time>2026-05-04T13:51:27.401Z</time></trkpt><trkpt lat="41.0586933" lon="14.02811"><ele>5.999999999999999</ele><time>2026-05-04T13:51:28.407Z</time></trkpt><trkpt lat="41.0586567" lon="14.02803"><ele>6.0</ele><time>2026-05-04T13:51:29.406Z</time></trkpt><trkpt lat="41.0586217" lon="14.0279467"><ele>6.0</ele><time>2026-05-04T13:51:30.407Z</time></trkpt><trkpt lat="41.0585867" lon="14.027865"><ele>6.0</ele><time>2026-05-04T13:51:31.404Z</time></trkpt><trkpt lat="41.05855" lon="14.0277833"><ele>6.0</ele><time>2026-05-04T13:51:32.404Z</time></trkpt><trkpt lat="41.058515" lon="14.0276983"><ele>5.999999999999999</ele><time>2026-05-04T13:51:33.406Z</time></trkpt><trkpt lat="41.05848" lon="14.0276133"><ele>6.0</ele><time>2026-05-04T13:51:34.405Z</time></trkpt><trkpt lat="41.0584433" lon="14.02753"><ele>5.999999999999999</ele><time>2026-05-04T13:51:35.408Z</time></trkpt><trkpt lat="41.0584083" lon="14.02745"><ele>6.0</ele><time>2026-05-04T13:51:36.405Z</time></trkpt><trkpt lat="41.058375" lon="14.0273717"><ele>6.0</ele><time>2026-05-04T13:51:37.407Z</time></trkpt><trkpt lat="41.0583433" lon="14.0272883"><ele>6.0</ele><time>2026-05-04T13:51:38.406Z</time></trkpt><trkpt lat="41.05831" lon="14.0272067"><ele>6.0</ele><time>2026-05-04T13:51:39.408Z</time></trkpt><trkpt lat="41.0582717" lon="14.02713"><ele>5.999999999999999</ele><time>2026-05-04T13:51:40.408Z</time></trkpt><trkpt lat="41.05824" lon="14.0270533"><ele>6.0</ele><time>2026-05-04T13:51:41.407Z</time></trkpt><trkpt lat="41.0582067" lon="14.0269733"><ele>5.857142857142857</ele><time>2026-05-04T13:51:42.404Z</time></trkpt><trkpt lat="41.0581783" lon="14.026895"><ele>5.714285714285714</ele><time>2026-05-04T13:51:43.404Z</time></trkpt><trkpt lat="41.058145" lon="14.026815"><ele>5.571428571428571</ele><time>2026-05-04T13:51:44.408Z</time></trkpt><trkpt lat="41.0581083" lon="14.026735"><ele>5.428571428571429</ele><time>2026-05-04T13:51:45.403Z</time></trkpt><trkpt lat="41.058075" lon="14.026655"><ele>5.285714285714286</ele><time>2026-05-04T13:51:46.406Z</time></trkpt><trkpt lat="41.0580417" lon="14.0265783"><ele>5.142857142857142</ele><time>2026-05-04T13:51:47.405Z</time></trkpt><trkpt lat="41.058005" lon="14.0264983"><ele>5.0</ele><time>2026-05-04T13:51:48.405Z</time></trkpt><trkpt lat="41.05797" lon="14.0264167"><ele>5.0</ele><time>2026-05-04T13:51:49.405Z</time></trkpt><trkpt lat="41.057935" lon="14.0263367"><ele>5.0</ele><time>2026-05-04T13:51:50.404Z</time></trkpt><trkpt lat="41.0578983" lon="14.0262567"><ele>5.0</ele><time>2026-05-04T13:51:51.404Z</time></trkpt><trkpt lat="41.0578633" lon="14.0261733"><ele>5.0</ele><time>2026-05-04T13:51:52.406Z</time></trkpt><trkpt lat="41.0578267" lon="14.0260933"><ele>5.0</ele><time>2026-05-04T13:51:53.404Z</time></trkpt><trkpt lat="41.05779" lon="14.0260083"><ele>5.0</ele><time>2026-05-04T13:51:54.406Z</time></trkpt><trkpt lat="41.0577533" lon="14.0259283"><ele>5.0</ele><time>2026-05-04T13:51:55.406Z</time></trkpt><trkpt lat="41.0577133" lon="14.02585"><ele>5.0</ele><time>2026-05-04T13:51:56.406Z</time></trkpt><trkpt lat="41.05768" lon="14.0257667"><ele>5.0</ele><time>2026-05-04T13:51:57.404Z</time></trkpt><trkpt lat="41.0576467" lon="14.025685"><ele>5.0</ele><time>2026-05-04T13:51:58.405Z</time></trkpt><trkpt lat="41.0576167" lon="14.0256067"><ele>5.0</ele><time>2026-05-04T13:51:59.408Z</time></trkpt><trkpt lat="41.0575833" lon="14.0255267"><ele>5.0</ele><time>2026-05-04T13:52:00.405Z</time></trkpt><trkpt lat="41.0575483" lon="14.0254433"><ele>5.0</ele><time>2026-05-04T13:52:01.409Z</time></trkpt><trkpt lat="41.0575133" lon="14.025365"><ele>5.0</ele><time>2026-05-04T13:52:02.407Z</time></trkpt><trkpt lat="41.0574767" lon="14.0252817"><ele>5.0</ele><time>2026-05-04T13:52:03.406Z</time></trkpt><trkpt lat="41.05744" lon="14.0252033"><ele>5.0</ele><time>2026-05-04T13:52:04.406Z</time></trkpt><trkpt lat="41.0574083" lon="14.0251233"><ele>5.0</ele><time>2026-05-04T13:52:05.407Z</time></trkpt><trkpt lat="41.0573783" lon="14.0250433"><ele>5.0</ele><time>2026-05-04T13:52:06.403Z</time></trkpt><trkpt lat="41.057345" lon="14.024965"><ele>5.0</ele><time>2026-05-04T13:52:07.408Z</time></trkpt><trkpt lat="41.05731" lon="14.0248883"><ele>5.0</ele><time>2026-05-04T13:52:08.404Z</time></trkpt><trkpt lat="41.0572767" lon="14.0248133"><ele>5.0</ele><time>2026-05-04T13:52:09.406Z</time></trkpt><trkpt lat="41.0572433" lon="14.024735"><ele>5.285714285714286</ele><time>2026-05-04T13:52:10.406Z</time></trkpt><trkpt lat="41.0572083" lon="14.0246583"><ele>5.571428571428571</ele><time>2026-05-04T13:52:11.406Z</time></trkpt><trkpt lat="41.0571733" lon="14.024585"><ele>5.857142857142858</ele><time>2026-05-04T13:52:12.404Z</time></trkpt><trkpt lat="41.0571417" lon="14.024505"><ele>6.142857142857142</ele><time>2026-05-04T13:52:13.406Z</time></trkpt><trkpt lat="41.0571067" lon="14.02442"><ele>6.428571428571429</ele><time>2026-05-04T13:52:14.407Z</time></trkpt><trkpt lat="41.05707" lon="14.0243383"><ele>6.714285714285714</ele><time>2026-05-04T13:52:15.404Z</time></trkpt><trkpt lat="41.05703" lon="14.0242583"><ele>7.0</ele><time>2026-05-04T13:52:16.406Z</time></trkpt><trkpt lat="41.0569867" lon="14.02418"><ele>6.714285714285714</ele><time>2026-05-04T13:52:17.404Z</time></trkpt><trkpt lat="41.056945" lon="14.0241"><ele>6.428571428571429</ele><time>2026-05-04T13:52:18.404Z</time></trkpt><trkpt lat="41.05691" lon="14.0240183"><ele>6.142857142857142</ele><time>2026-05-04T13:52:19.405Z</time></trkpt><trkpt lat="41.0568733" lon="14.0239383"><ele>5.857142857142858</ele><time>2026-05-04T13:52:20.404Z</time></trkpt><trkpt lat="41.0568383" lon="14.023855"><ele>5.571428571428571</ele><time>2026-05-04T13:52:21.404Z</time></trkpt><trkpt lat="41.056805" lon="14.0237733"><ele>5.285714285714286</ele><time>2026-05-04T13:52:22.406Z</time></trkpt><trkpt lat="41.05677" lon="14.023695"><ele>5.0</ele><time>2026-05-04T13:52:23.406Z</time></trkpt><trkpt lat="41.0567367" lon="14.0236167"><ele>5.0</ele><time>2026-05-04T13:52:24.406Z</time></trkpt><trkpt lat="41.056705" lon="14.0235367"><ele>5.0</ele><time>2026-05-04T13:52:25.406Z</time></trkpt><trkpt lat="41.0566717" lon="14.0234567"><ele>5.0</ele><time>2026-05-04T13:52:26.406Z</time></trkpt><trkpt lat="41.0566367" lon="14.023375"><ele>5.0</ele><time>2026-05-04T13:52:27.404Z</time></trkpt><trkpt lat="41.0566" lon="14.02329"><ele>5.0</ele><time>2026-05-04T13:52:28.404Z</time></trkpt><trkpt lat="41.056565" lon="14.0232033"><ele>5.0</ele><time>2026-05-04T13:52:29.404Z</time></trkpt><trkpt lat="41.0565333" lon="14.0231217"><ele>5.0</ele><time>2026-05-04T13:52:30.404Z</time></trkpt><trkpt lat="41.056495" lon="14.023035"><ele>5.142857142857142</ele><time>2026-05-04T13:52:31.403Z</time></trkpt><trkpt lat="41.0564583" lon="14.02295"><ele>5.285714285714286</ele><time>2026-05-04T13:52:32.404Z</time></trkpt><trkpt lat="41.0564233" lon="14.022865"><ele>5.428571428571429</ele><time>2026-05-04T13:52:33.403Z</time></trkpt><trkpt lat="41.0563917" lon="14.02278"><ele>5.571428571428571</ele><time>2026-05-04T13:52:34.403Z</time></trkpt><trkpt lat="41.05636" lon="14.022695"><ele>5.714285714285714</ele><time>2026-05-04T13:52:35.402Z</time></trkpt><trkpt lat="41.056325" lon="14.0226117"><ele>5.857142857142857</ele><time>2026-05-04T13:52:36.405Z</time></trkpt><trkpt lat="41.0562867" lon="14.0225267"><ele>6.0</ele><time>2026-05-04T13:52:37.407Z</time></trkpt><trkpt lat="41.05625" lon="14.0224383"><ele>5.999999999999999</ele><time>2026-05-04T13:52:38.408Z</time></trkpt><trkpt lat="41.056215" lon="14.0223567"><ele>6.0</ele><time>2026-05-04T13:52:39.404Z</time></trkpt><trkpt lat="41.0561833" lon="14.022275"><ele>6.0</ele><time>2026-05-04T13:52:40.407Z</time></trkpt><trkpt lat="41.0561467" lon="14.022195"><ele>6.0</ele><time>2026-05-04T13:52:41.405Z</time></trkpt><trkpt lat="41.056115" lon="14.0221167"><ele>6.0</ele><time>2026-05-04T13:52:42.408Z</time></trkpt><trkpt lat="41.0560783" lon="14.022035"><ele>5.999999999999999</ele><time>2026-05-04T13:52:43.408Z</time></trkpt><trkpt lat="41.0560417" lon="14.0219517"><ele>6.0</ele><time>2026-05-04T13:52:44.406Z</time></trkpt><trkpt lat="41.056005" lon="14.021865"><ele>5.999999999999999</ele><time>2026-05-04T13:52:45.407Z</time></trkpt><trkpt lat="41.05597" lon="14.0217783"><ele>6.0</ele><time>2026-05-04T13:52:46.404Z</time></trkpt><trkpt lat="41.0559317" lon="14.021695"><ele>6.0</ele><time>2026-05-04T13:52:47.405Z</time></trkpt><trkpt lat="41.055895" lon="14.02161"><ele>6.0</ele><time>2026-05-04T13:52:48.405Z</time></trkpt><trkpt lat="41.0558567" lon="14.0215267"><ele>6.0</ele><time>2026-05-04T13:52:49.405Z</time></trkpt><trkpt lat="41.0558167" lon="14.0214433"><ele>5.999999999999999</ele><time>2026-05-04T13:52:50.406Z</time></trkpt><trkpt lat="41.055775" lon="14.0213583"><ele>6.0</ele><time>2026-05-04T13:52:51.404Z</time></trkpt><trkpt lat="41.0557367" lon="14.02127"><ele>5.999999999999999</ele><time>2026-05-04T13:52:52.405Z</time></trkpt><trkpt lat="41.0556983" lon="14.021185"><ele>6.0</ele><time>2026-05-04T13:52:53.405Z</time></trkpt><trkpt lat="41.0556617" lon="14.0211"><ele>6.0</ele><time>2026-05-04T13:52:54.406Z</time></trkpt><trkpt lat="41.0556267" lon="14.0210133"><ele>6.0</ele><time>2026-05-04T13:52:55.405Z</time></trkpt><trkpt lat="41.0555933" lon="14.0209317"><ele>6.0</ele><time>2026-05-04T13:52:56.404Z</time></trkpt><trkpt lat="41.0555567" lon="14.0208533"><ele>5.999999999999999</ele><time>2026-05-04T13:52:57.406Z</time></trkpt><trkpt lat="41.0555217" lon="14.0207733"><ele>6.0</ele><time>2026-05-04T13:52:58.408Z</time></trkpt><trkpt lat="41.0554883" lon="14.0206933"><ele>5.999999999999999</ele><time>2026-05-04T13:52:59.403Z</time></trkpt><trkpt lat="41.0554567" lon="14.020615"><ele>6.0</ele><time>2026-05-04T13:53:00.405Z</time></trkpt><trkpt lat="41.0554233" lon="14.0205317"><ele>6.0</ele><time>2026-05-04T13:53:01.406Z</time></trkpt><trkpt lat="41.0553883" lon="14.02045"><ele>6.0</ele><time>2026-05-04T13:53:02.406Z</time></trkpt><trkpt lat="41.0553517" lon="14.0203683"><ele>6.0</ele><time>2026-05-04T13:53:03.407Z</time></trkpt><trkpt lat="41.0553167" lon="14.0202867"><ele>5.999999999999999</ele><time>2026-05-04T13:53:04.407Z</time></trkpt><trkpt lat="41.0552817" lon="14.020205"><ele>6.0</ele><time>2026-05-04T13:53:05.406Z</time></trkpt><trkpt lat="41.0552433" lon="14.0201217"><ele>5.999999999999999</ele><time>2026-05-04T13:53:06.407Z</time></trkpt><trkpt lat="41.0552033" lon="14.0200367"><ele>6.0</ele><time>2026-05-04T13:53:07.408Z</time></trkpt><trkpt lat="41.055165" lon="14.0199567"><ele>6.0</ele><time>2026-05-04T13:53:08.407Z</time></trkpt><trkpt lat="41.055125" lon="14.0198733"><ele>6.0</ele><time>2026-05-04T13:53:09.406Z</time></trkpt><trkpt lat="41.0550883" lon="14.01979"><ele>6.0</ele><time>2026-05-04T13:53:10.407Z</time></trkpt><trkpt lat="41.05505" lon="14.019705"><ele>5.999999999999999</ele><time>2026-05-04T13:53:11.407Z</time></trkpt><trkpt lat="41.05501" lon="14.01962"><ele>6.0</ele><time>2026-05-04T13:53:12.407Z</time></trkpt><trkpt lat="41.0549717" lon="14.0195333"><ele>6.0</ele><time>2026-05-04T13:53:13.408Z</time></trkpt><trkpt lat="41.054935" lon="14.0194433"><ele>6.0</ele><time>2026-05-04T13:53:14.408Z</time></trkpt><trkpt lat="41.0548967" lon="14.0193567"><ele>6.0</ele><time>2026-05-04T13:53:15.404Z</time></trkpt><trkpt lat="41.0548617" lon="14.0192717"><ele>6.0</ele><time>2026-05-04T13:53:16.405Z</time></trkpt><trkpt lat="41.0548267" lon="14.0191867"><ele>6.0</ele><time>2026-05-04T13:53:17.406Z</time></trkpt><trkpt lat="41.0547917" lon="14.0191017"><ele>6.0</ele><time>2026-05-04T13:53:18.406Z</time></trkpt><trkpt lat="41.054755" lon="14.01901"><ele>5.999999999999999</ele><time>2026-05-04T13:53:19.404Z</time></trkpt><trkpt lat="41.05472" lon="14.018925"><ele>6.0</ele><time>2026-05-04T13:53:20.403Z</time></trkpt><trkpt lat="41.0546817" lon="14.0188383"><ele>6.0</ele><time>2026-05-04T13:53:21.404Z</time></trkpt><trkpt lat="41.0546467" lon="14.0187533"><ele>6.0</ele><time>2026-05-04T13:53:22.406Z</time></trkpt><trkpt lat="41.05461" lon="14.01867"><ele>6.0</ele><time>2026-05-04T13:53:23.408Z</time></trkpt><trkpt lat="41.0545767" lon="14.0185883"><ele>5.999999999999999</ele><time>2026-05-04T13:53:24.407Z</time></trkpt><trkpt lat="41.0545433" lon="14.018505"><ele>6.0</ele><time>2026-05-04T13:53:25.407Z</time></trkpt><trkpt lat="41.0545117" lon="14.0184183"><ele>5.999999999999999</ele><time>2026-05-04T13:53:26.406Z</time></trkpt><trkpt lat="41.054475" lon="14.01833"><ele>6.0</ele><time>2026-05-04T13:53:27.404Z</time></trkpt><trkpt lat="41.0544367" lon="14.0182433"><ele>6.0</ele><time>2026-05-04T13:53:28.406Z</time></trkpt><trkpt lat="41.0544017" lon="14.0181583"><ele>6.0</ele><time>2026-05-04T13:53:29.406Z</time></trkpt><trkpt lat="41.0543667" lon="14.0180767"><ele>6.0</ele><time>2026-05-04T13:53:30.404Z</time></trkpt><trkpt lat="41.0543283" lon="14.017995"><ele>5.999999999999999</ele><time>2026-05-04T13:53:31.407Z</time></trkpt><trkpt lat="41.05429" lon="14.017915"><ele>6.0</ele><time>2026-05-04T13:53:32.405Z</time></trkpt><trkpt lat="41.054255" lon="14.017835"><ele>5.999999999999999</ele><time>2026-05-04T13:53:33.406Z</time></trkpt><trkpt lat="41.05422" lon="14.0177483"><ele>6.0</ele><time>2026-05-04T13:53:34.406Z</time></trkpt><trkpt lat="41.0541867" lon="14.0176633"><ele>6.0</ele><time>2026-05-04T13:53:35.407Z</time></trkpt><trkpt lat="41.0541517" lon="14.0175767"><ele>6.0</ele><time>2026-05-04T13:53:36.406Z</time></trkpt><trkpt lat="41.054115" lon="14.0174917"><ele>6.0</ele><time>2026-05-04T13:53:37.406Z</time></trkpt><trkpt lat="41.0540817" lon="14.0174083"><ele>5.999999999999999</ele><time>2026-05-04T13:53:38.407Z</time></trkpt><trkpt lat="41.0540467" lon="14.017325"><ele>6.0</ele><time>2026-05-04T13:53:39.403Z</time></trkpt><trkpt lat="41.05401" lon="14.017245"><ele>5.666666666666667</ele><time>2026-05-04T13:53:40.405Z</time></trkpt><trkpt lat="41.0539717" lon="14.0171633"><ele>5.333333333333333</ele><time>2026-05-04T13:53:41.403Z</time></trkpt><trkpt lat="41.0539367" lon="14.017075"><ele>5.0</ele><time>2026-05-04T13:53:42.406Z</time></trkpt><trkpt lat="41.0539017" lon="14.0169883"><ele>4.666666666666666</ele><time>2026-05-04T13:53:43.407Z</time></trkpt><trkpt lat="41.0538633" lon="14.0169"><ele>4.333333333333333</ele><time>2026-05-04T13:53:44.403Z</time></trkpt><trkpt lat="41.0538267" lon="14.01681"><ele>4.0</ele><time>2026-05-04T13:53:45.404Z</time></trkpt><trkpt lat="41.0537883" lon="14.0167183"><ele>4.142857142857142</ele><time>2026-05-04T13:53:46.403Z</time></trkpt><trkpt lat="41.0537517" lon="14.0166283"><ele>4.285714285714286</ele><time>2026-05-04T13:53:47.405Z</time></trkpt><trkpt lat="41.0537133" lon="14.0165433"><ele>4.428571428571429</ele><time>2026-05-04T13:53:48.405Z</time></trkpt><trkpt lat="41.0536767" lon="14.0164583"><ele>4.571428571428571</ele><time>2026-05-04T13:53:49.405Z</time></trkpt><trkpt lat="41.0536433" lon="14.016375"><ele>4.714285714285714</ele><time>2026-05-04T13:53:50.404Z</time></trkpt><trkpt lat="41.05361" lon="14.0162917"><ele>4.857142857142857</ele><time>2026-05-04T13:53:51.403Z</time></trkpt><trkpt lat="41.0535733" lon="14.01621"><ele>5.0</ele><time>2026-05-04T13:53:52.403Z</time></trkpt><trkpt lat="41.0535367" lon="14.016125"><ele>5.0</ele><time>2026-05-04T13:53:53.407Z</time></trkpt><trkpt lat="41.0535017" lon="14.0160383"><ele>5.0</ele><time>2026-05-04T13:53:54.406Z</time></trkpt><trkpt lat="41.053465" lon="14.0159533"><ele>5.0</ele><time>2026-05-04T13:53:55.407Z</time></trkpt><trkpt lat="41.0534283" lon="14.01587"><ele>5.0</ele><time>2026-05-04T13:53:56.406Z</time></trkpt><trkpt lat="41.05339" lon="14.01578"><ele>5.0</ele><time>2026-05-04T13:53:57.405Z</time></trkpt><trkpt lat="41.0533517" lon="14.015695"><ele>5.0</ele><time>2026-05-04T13:53:58.406Z</time></trkpt><trkpt lat="41.053315" lon="14.01561"><ele>5.0</ele><time>2026-05-04T13:53:59.405Z</time></trkpt><trkpt lat="41.05328" lon="14.0155267"><ele>5.166666666666667</ele><time>2026-05-04T13:54:00.405Z</time></trkpt><trkpt lat="41.0532433" lon="14.01544"><ele>5.333333333333334</ele><time>2026-05-04T13:54:01.405Z</time></trkpt><trkpt lat="41.0532067" lon="14.0153533"><ele>5.5</ele><time>2026-05-04T13:54:02.405Z</time></trkpt><trkpt lat="41.0531717" lon="14.0152667"><ele>5.666666666666667</ele><time>2026-05-04T13:54:03.403Z</time></trkpt><trkpt lat="41.0531367" lon="14.01518"><ele>5.833333333333333</ele><time>2026-05-04T13:54:04.405Z</time></trkpt><trkpt lat="41.0531017" lon="14.0150933"><ele>6.0</ele><time>2026-05-04T13:54:05.405Z</time></trkpt><trkpt lat="41.0530617" lon="14.0150017"><ele>5.833333333333333</ele><time>2026-05-04T13:54:06.406Z</time></trkpt><trkpt lat="41.053025" lon="14.0149133"><ele>5.666666666666667</ele><time>2026-05-04T13:54:07.405Z</time></trkpt><trkpt lat="41.052985" lon="14.0148267"><ele>5.5</ele><time>2026-05-04T13:54:08.404Z</time></trkpt><trkpt lat="41.0529433" lon="14.0147383"><ele>5.333333333333334</ele><time>2026-05-04T13:54:09.405Z</time></trkpt><trkpt lat="41.052905" lon="14.0146483"><ele>5.166666666666667</ele><time>2026-05-04T13:54:10.406Z</time></trkpt><trkpt lat="41.0528667" lon="14.014565"><ele>5.0</ele><time>2026-05-04T13:54:11.405Z</time></trkpt><trkpt lat="41.0528317" lon="14.0144733"><ele>5.0</ele><time>2026-05-04T13:54:12.407Z</time></trkpt><trkpt lat="41.0527967" lon="14.0143867"><ele>5.0</ele><time>2026-05-04T13:54:13.405Z</time></trkpt><trkpt lat="41.0527617" lon="14.014295"><ele>5.0</ele><time>2026-05-04T13:54:14.403Z</time></trkpt><trkpt lat="41.0527217" lon="14.0142067"><ele>5.0</ele><time>2026-05-04T13:54:15.403Z</time></trkpt><trkpt lat="41.0526817" lon="14.0141167"><ele>5.0</ele><time>2026-05-04T13:54:16.406Z</time></trkpt><trkpt lat="41.0526433" lon="14.0140267"><ele>5.0</ele><time>2026-05-04T13:54:17.403Z</time></trkpt><trkpt lat="41.05261" lon="14.0139333"><ele>5.0</ele><time>2026-05-04T13:54:18.406Z</time></trkpt><trkpt lat="41.052575" lon="14.0138467"><ele>5.0</ele><time>2026-05-04T13:54:19.407Z</time></trkpt><trkpt lat="41.0525383" lon="14.0137583"><ele>5.0</ele><time>2026-05-04T13:54:20.405Z</time></trkpt><trkpt lat="41.0525" lon="14.0136717"><ele>5.0</ele><time>2026-05-04T13:54:21.405Z</time></trkpt><trkpt lat="41.05246" lon="14.013585"><ele>5.0</ele><time>2026-05-04T13:54:22.405Z</time></trkpt><trkpt lat="41.0524183" lon="14.0134983"><ele>5.0</ele><time>2026-05-04T13:54:23.406Z</time></trkpt><trkpt lat="41.0523767" lon="14.0134067"><ele>4.833333333333334</ele><time>2026-05-04T13:54:24.404Z</time></trkpt><trkpt lat="41.0523367" lon="14.013315"><ele>4.666666666666667</ele><time>2026-05-04T13:54:25.404Z</time></trkpt><trkpt lat="41.052295" lon="14.013225"><ele>4.5</ele><time>2026-05-04T13:54:26.407Z</time></trkpt><trkpt lat="41.052255" lon="14.013135"><ele>4.333333333333333</ele><time>2026-05-04T13:54:27.403Z</time></trkpt><trkpt lat="41.052215" lon="14.013045"><ele>4.166666666666666</ele><time>2026-05-04T13:54:28.404Z</time></trkpt><trkpt lat="41.052175" lon="14.0129567"><ele>4.0</ele><time>2026-05-04T13:54:29.404Z</time></trkpt><trkpt lat="41.0521383" lon="14.01287"><ele>4.0</ele><time>2026-05-04T13:54:30.405Z</time></trkpt><trkpt lat="41.0521" lon="14.0127833"><ele>3.9999999999999996</ele><time>2026-05-04T13:54:31.405Z</time></trkpt><trkpt lat="41.0520633" lon="14.0126967"><ele>4.0</ele><time>2026-05-04T13:54:32.404Z</time></trkpt><trkpt lat="41.0520283" lon="14.01261"><ele>4.0</ele><time>2026-05-04T13:54:33.402Z</time></trkpt><trkpt lat="41.0519917" lon="14.0125233"><ele>3.9999999999999996</ele><time>2026-05-04T13:54:34.405Z</time></trkpt><trkpt lat="41.051955" lon="14.01244"><ele>4.0</ele><time>2026-05-04T13:54:35.405Z</time></trkpt><trkpt lat="41.0519183" lon="14.012355"><ele>4.0</ele><time>2026-05-04T13:54:36.405Z</time></trkpt><trkpt lat="41.05188" lon="14.0122683"><ele>3.9999999999999996</ele><time>2026-05-04T13:54:37.406Z</time></trkpt><trkpt lat="41.0518433" lon="14.0121817"><ele>4.0</ele><time>2026-05-04T13:54:38.404Z</time></trkpt><trkpt lat="41.0518067" lon="14.012095"><ele>4.0</ele><time>2026-05-04T13:54:39.405Z</time></trkpt><trkpt lat="41.0517667" lon="14.0120067"><ele>4.0</ele><time>2026-05-04T13:54:40.402Z</time></trkpt><trkpt lat="41.0517267" lon="14.01192"><ele>3.9999999999999996</ele><time>2026-05-04T13:54:41.405Z</time></trkpt><trkpt lat="41.051685" lon="14.0118317"><ele>4.0</ele><time>2026-05-04T13:54:42.405Z</time></trkpt><trkpt lat="41.0516483" lon="14.0117433"><ele>4.166666666666666</ele><time>2026-05-04T13:54:43.406Z</time></trkpt><trkpt lat="41.05161" lon="14.0116517"><ele>4.333333333333333</ele><time>2026-05-04T13:54:44.404Z</time></trkpt><trkpt lat="41.0515733" lon="14.0115617"><ele>4.5</ele><time>2026-05-04T13:54:45.403Z</time></trkpt><trkpt lat="41.0515367" lon="14.0114717"><ele>4.666666666666667</ele><time>2026-05-04T13:54:46.405Z</time></trkpt><trkpt lat="41.0515" lon="14.01138"><ele>4.833333333333334</ele><time>2026-05-04T13:54:47.404Z</time></trkpt><trkpt lat="41.0514617" lon="14.01129"><ele>5.0</ele><time>2026-05-04T13:54:48.406Z</time></trkpt><trkpt lat="41.0514233" lon="14.0112"><ele>5.0</ele><time>2026-05-04T13:54:49.405Z</time></trkpt><trkpt lat="41.0513817" lon="14.01111"><ele>5.0</ele><time>2026-05-04T13:54:50.405Z</time></trkpt><trkpt lat="41.0513417" lon="14.01102"><ele>5.0</ele><time>2026-05-04T13:54:51.406Z</time></trkpt><trkpt lat="41.0513" lon="14.01093"><ele>5.0</ele><time>2026-05-04T13:54:52.404Z</time></trkpt><trkpt lat="41.0512617" lon="14.0108433"><ele>5.0</ele><time>2026-05-04T13:54:53.405Z</time></trkpt><trkpt lat="41.0512233" lon="14.010755"><ele>5.0</ele><time>2026-05-04T13:54:54.406Z</time></trkpt><trkpt lat="41.0511833" lon="14.01067"><ele>5.0</ele><time>2026-05-04T13:54:55.407Z</time></trkpt><trkpt lat="41.0511467" lon="14.0105817"><ele>5.0</ele><time>2026-05-04T13:54:56.406Z</time></trkpt><trkpt lat="41.0511083" lon="14.0104933"><ele>5.0</ele><time>2026-05-04T13:54:57.403Z</time></trkpt><trkpt lat="41.0510733" lon="14.0104017"><ele>5.0</ele><time>2026-05-04T13:54:58.407Z</time></trkpt><trkpt lat="41.0510367" lon="14.0103133"><ele>5.0</ele><time>2026-05-04T13:54:59.405Z</time></trkpt><trkpt lat="41.0509983" lon="14.010225"><ele>5.0</ele><time>2026-05-04T13:55:00.406Z</time></trkpt><trkpt lat="41.0509617" lon="14.0101367"><ele>5.0</ele><time>2026-05-04T13:55:01.407Z</time></trkpt><trkpt lat="41.050925" lon="14.0100433"><ele>5.0</ele><time>2026-05-04T13:55:02.406Z</time></trkpt><trkpt lat="41.0508883" lon="14.0099567"><ele>5.0</ele><time>2026-05-04T13:55:03.406Z</time></trkpt><trkpt lat="41.05085" lon="14.0098683"><ele>5.0</ele><time>2026-05-04T13:55:04.404Z</time></trkpt><trkpt lat="41.0508117" lon="14.0097833"><ele>5.0</ele><time>2026-05-04T13:55:05.403Z</time></trkpt><trkpt lat="41.0507733" lon="14.0096967"><ele>5.0</ele><time>2026-05-04T13:55:06.403Z</time></trkpt><trkpt lat="41.0507383" lon="14.0096167"><ele>5.0</ele><time>2026-05-04T13:55:07.408Z</time></trkpt><trkpt lat="41.0507" lon="14.0095333"><ele>5.0</ele><time>2026-05-04T13:55:08.403Z</time></trkpt><trkpt lat="41.0506633" lon="14.0094517"><ele>5.0</ele><time>2026-05-04T13:55:09.405Z</time></trkpt><trkpt lat="41.0506267" lon="14.009365"><ele>5.0</ele><time>2026-05-04T13:55:10.403Z</time></trkpt><trkpt lat="41.0505917" lon="14.0092783"><ele>5.0</ele><time>2026-05-04T13:55:11.407Z</time></trkpt><trkpt lat="41.050555" lon="14.00919"><ele>5.0</ele><time>2026-05-04T13:55:12.406Z</time></trkpt><trkpt lat="41.0505183" lon="14.0091017"><ele>5.0</ele><time>2026-05-04T13:55:13.407Z</time></trkpt><trkpt lat="41.05048" lon="14.0090083"><ele>5.0</ele><time>2026-05-04T13:55:14.406Z</time></trkpt><trkpt lat="41.0504417" lon="14.0089167"><ele>5.0</ele><time>2026-05-04T13:55:15.405Z</time></trkpt><trkpt lat="41.0504067" lon="14.0088283"><ele>5.0</ele><time>2026-05-04T13:55:16.407Z</time></trkpt><trkpt lat="41.05037" lon="14.00874"><ele>5.0</ele><time>2026-05-04T13:55:17.405Z</time></trkpt><trkpt lat="41.050335" lon="14.008655"><ele>5.0</ele><time>2026-05-04T13:55:18.406Z</time></trkpt><trkpt lat="41.0502983" lon="14.008565"><ele>5.0</ele><time>2026-05-04T13:55:19.406Z</time></trkpt><trkpt lat="41.050265" lon="14.0084767"><ele>5.0</ele><time>2026-05-04T13:55:20.406Z</time></trkpt><trkpt lat="41.0502283" lon="14.0083917"><ele>5.0</ele><time>2026-05-04T13:55:21.406Z</time></trkpt><trkpt lat="41.050195" lon="14.0083133"><ele>5.0</ele><time>2026-05-04T13:55:22.405Z</time></trkpt><trkpt lat="41.05016" lon="14.00823"><ele>5.0</ele><time>2026-05-04T13:55:23.405Z</time></trkpt><trkpt lat="41.0501233" lon="14.008145"><ele>5.0</ele><time>2026-05-04T13:55:24.406Z</time></trkpt><trkpt lat="41.05009" lon="14.008065"><ele>5.0</ele><time>2026-05-04T13:55:25.408Z</time></trkpt><trkpt lat="41.050055" lon="14.0079867"><ele>5.0</ele><time>2026-05-04T13:55:26.405Z</time></trkpt><trkpt lat="41.05002" lon="14.0079083"><ele>5.142857142857142</ele><time>2026-05-04T13:55:27.405Z</time></trkpt><trkpt lat="41.0499867" lon="14.0078267"><ele>5.285714285714286</ele><time>2026-05-04T13:55:28.405Z</time></trkpt><trkpt lat="41.0499533" lon="14.00775"><ele>5.428571428571429</ele><time>2026-05-04T13:55:29.407Z</time></trkpt><trkpt lat="41.0499183" lon="14.0076717"><ele>5.571428571428571</ele><time>2026-05-04T13:55:30.404Z</time></trkpt><trkpt lat="41.0498817" lon="14.0075883"><ele>5.714285714285714</ele><time>2026-05-04T13:55:31.406Z</time></trkpt><trkpt lat="41.0498433" lon="14.0075083"><ele>5.857142857142857</ele><time>2026-05-04T13:55:32.406Z</time></trkpt><trkpt lat="41.0498033" lon="14.0074233"><ele>6.0</ele><time>2026-05-04T13:55:33.406Z</time></trkpt><trkpt lat="41.0497667" lon="14.0073417"><ele>5.571428571428571</ele><time>2026-05-04T13:55:34.406Z</time></trkpt><trkpt lat="41.0497333" lon="14.0072583"><ele>5.142857142857142</ele><time>2026-05-04T13:55:35.407Z</time></trkpt><trkpt lat="41.0496967" lon="14.0071733"><ele>4.7142857142857135</ele><time>2026-05-04T13:55:36.406Z</time></trkpt><trkpt lat="41.0496583" lon="14.007085"><ele>4.285714285714286</ele><time>2026-05-04T13:55:37.408Z</time></trkpt><trkpt lat="41.04962" lon="14.007"><ele>3.8571428571428568</ele><time>2026-05-04T13:55:38.406Z</time></trkpt><trkpt lat="41.0495817" lon="14.0069183"><ele>3.4285714285714284</ele><time>2026-05-04T13:55:39.407Z</time></trkpt><trkpt lat="41.049545" lon="14.006835"><ele>3.0</ele><time>2026-05-04T13:55:40.407Z</time></trkpt><trkpt lat="41.0495117" lon="14.0067533"><ele>2.9999999999999996</ele><time>2026-05-04T13:55:41.406Z</time></trkpt><trkpt lat="41.0494767" lon="14.00667"><ele>3.0</ele><time>2026-05-04T13:55:42.406Z</time></trkpt><trkpt lat="41.049445" lon="14.00659"><ele>3.0</ele><time>2026-05-04T13:55:43.407Z</time></trkpt><trkpt lat="41.0494117" lon="14.0065083"><ele>3.0</ele><time>2026-05-04T13:55:44.406Z</time></trkpt><trkpt lat="41.0493767" lon="14.006425"><ele>3.0</ele><time>2026-05-04T13:55:45.404Z</time></trkpt><trkpt lat="41.0493417" lon="14.0063433"><ele>2.9999999999999996</ele><time>2026-05-04T13:55:46.406Z</time></trkpt><trkpt lat="41.0493067" lon="14.0062617"><ele>3.0</ele><time>2026-05-04T13:55:47.405Z</time></trkpt><trkpt lat="41.0492733" lon="14.0061783"><ele>2.9999999999999996</ele><time>2026-05-04T13:55:48.407Z</time></trkpt><trkpt lat="41.0492417" lon="14.0061"><ele>3.0</ele><time>2026-05-04T13:55:49.408Z</time></trkpt><trkpt lat="41.0492067" lon="14.0060183"><ele>3.0</ele><time>2026-05-04T13:55:50.407Z</time></trkpt><trkpt lat="41.0491733" lon="14.0059367"><ele>3.0</ele><time>2026-05-04T13:55:51.406Z</time></trkpt><trkpt lat="41.0491383" lon="14.0058567"><ele>3.0</ele><time>2026-05-04T13:55:52.405Z</time></trkpt><trkpt lat="41.0491067" lon="14.0057767"><ele>2.9999999999999996</ele><time>2026-05-04T13:55:53.407Z</time></trkpt><trkpt lat="41.0490733" lon="14.0056917"><ele>3.0</ele><time>2026-05-04T13:55:54.406Z</time></trkpt><trkpt lat="41.049035" lon="14.005605"><ele>3.1428571428571423</ele><time>2026-05-04T13:55:55.407Z</time></trkpt><trkpt lat="41.0489967" lon="14.00552"><ele>3.2857142857142856</ele><time>2026-05-04T13:55:56.407Z</time></trkpt><trkpt lat="41.0489583" lon="14.0054333"><ele>3.4285714285714284</ele><time>2026-05-04T13:55:57.405Z</time></trkpt><trkpt lat="41.0489217" lon="14.0053517"><ele>3.571428571428571</ele><time>2026-05-04T13:55:58.405Z</time></trkpt><trkpt lat="41.0488833" lon="14.00527"><ele>3.714285714285714</ele><time>2026-05-04T13:55:59.406Z</time></trkpt><trkpt lat="41.0488467" lon="14.0051883"><ele>3.8571428571428568</ele><time>2026-05-04T13:56:00.403Z</time></trkpt><trkpt lat="41.0488083" lon="14.0051067"><ele>4.0</ele><time>2026-05-04T13:56:01.406Z</time></trkpt><trkpt lat="41.0487683" lon="14.005025"><ele>3.714285714285714</ele><time>2026-05-04T13:56:02.406Z</time></trkpt><trkpt lat="41.0487317" lon="14.00494"><ele>3.428571428571428</ele><time>2026-05-04T13:56:03.406Z</time></trkpt><trkpt lat="41.0486967" lon="14.0048567"><ele>3.142857142857143</ele><time>2026-05-04T13:56:04.407Z</time></trkpt><trkpt lat="41.04866" lon="14.0047733"><ele>2.8571428571428568</ele><time>2026-05-04T13:56:05.406Z</time></trkpt><trkpt lat="41.0486233" lon="14.0046917"><ele>2.571428571428571</ele><time>2026-05-04T13:56:06.404Z</time></trkpt><trkpt lat="41.048585" lon="14.0046083"><ele>2.2857142857142856</ele><time>2026-05-04T13:56:07.408Z</time></trkpt><trkpt lat="41.048545" lon="14.0045217"><ele>2.0</ele><time>2026-05-04T13:56:08.405Z</time></trkpt><trkpt lat="41.0485067" lon="14.0044383"><ele>2.0</ele><time>2026-05-04T13:56:09.407Z</time></trkpt><trkpt lat="41.0484683" lon="14.004355"><ele>1.9999999999999998</ele><time>2026-05-04T13:56:10.404Z</time></trkpt><trkpt lat="41.04843" lon="14.00427"><ele>2.0</ele><time>2026-05-04T13:56:11.408Z</time></trkpt><trkpt lat="41.0483933" lon="14.0041883"><ele>2.0</ele><time>2026-05-04T13:56:12.405Z</time></trkpt><trkpt lat="41.0483633" lon="14.0041067"><ele>1.9999999999999998</ele><time>2026-05-04T13:56:13.405Z</time></trkpt><trkpt lat="41.0483267" lon="14.00402"><ele>2.0</ele><time>2026-05-04T13:56:14.407Z</time></trkpt><trkpt lat="41.04829" lon="14.0039367"><ele>2.0</ele><time>2026-05-04T13:56:15.407Z</time></trkpt><trkpt lat="41.0482533" lon="14.0038483"><ele>1.9999999999999998</ele><time>2026-05-04T13:56:16.407Z</time></trkpt><trkpt lat="41.0482167" lon="14.0037617"><ele>2.0</ele><time>2026-05-04T13:56:17.404Z</time></trkpt><trkpt lat="41.0481783" lon="14.0036783"><ele>2.0</ele><time>2026-05-04T13:56:18.405Z</time></trkpt><trkpt lat="41.0481383" lon="14.0035917"><ele>2.0</ele><time>2026-05-04T13:56:19.406Z</time></trkpt><trkpt lat="41.0480967" lon="14.0035033"><ele>1.9999999999999998</ele><time>2026-05-04T13:56:20.404Z</time></trkpt><trkpt lat="41.048055" lon="14.003415"><ele>2.0</ele><time>2026-05-04T13:56:21.403Z</time></trkpt><trkpt lat="41.0480183" lon="14.0033283"><ele>2.1666666666666665</ele><time>2026-05-04T13:56:22.405Z</time></trkpt><trkpt lat="41.0479817" lon="14.00324"><ele>2.333333333333333</ele><time>2026-05-04T13:56:23.407Z</time></trkpt><trkpt lat="41.0479433" lon="14.0031517"><ele>2.5</ele><time>2026-05-04T13:56:24.407Z</time></trkpt><trkpt lat="41.0479017" lon="14.0030617"><ele>2.6666666666666665</ele><time>2026-05-04T13:56:25.408Z</time></trkpt><trkpt lat="41.0478667" lon="14.0029733"><ele>2.8333333333333335</ele><time>2026-05-04T13:56:26.406Z</time></trkpt><trkpt lat="41.0478317" lon="14.0028783"><ele>3.0</ele><time>2026-05-04T13:56:27.404Z</time></trkpt><trkpt lat="41.0477933" lon="14.0027833"><ele>3.0</ele><time>2026-05-04T13:56:28.407Z</time></trkpt><trkpt lat="41.0477533" lon="14.0026933"><ele>3.0</ele><time>2026-05-04T13:56:29.407Z</time></trkpt><trkpt lat="41.0477167" lon="14.0026"><ele>3.0</ele><time>2026-05-04T13:56:30.406Z</time></trkpt><trkpt lat="41.04768" lon="14.0025083"><ele>3.0</ele><time>2026-05-04T13:56:31.408Z</time></trkpt><trkpt lat="41.0476433" lon="14.0024183"><ele>3.0</ele><time>2026-05-04T13:56:32.406Z</time></trkpt><trkpt lat="41.047605" lon="14.0023283"><ele>3.0</ele><time>2026-05-04T13:56:33.406Z</time></trkpt><trkpt lat="41.047565" lon="14.0022383"><ele>2.9999999999999996</ele><time>2026-05-04T13:56:34.407Z</time></trkpt><trkpt lat="41.0475283" lon="14.002155"><ele>3.0</ele><time>2026-05-04T13:56:35.403Z</time></trkpt><trkpt lat="41.0474917" lon="14.00207"><ele>3.0</ele><time>2026-05-04T13:56:36.403Z</time></trkpt><trkpt lat="41.0474567" lon="14.0019883"><ele>3.0</ele><time>2026-05-04T13:56:37.407Z</time></trkpt><trkpt lat="41.047425" lon="14.0019033"><ele>3.0</ele><time>2026-05-04T13:56:38.406Z</time></trkpt><trkpt lat="41.0473883" lon="14.0018133"><ele>2.9999999999999996</ele><time>2026-05-04T13:56:39.405Z</time></trkpt><trkpt lat="41.0473567" lon="14.0017233"><ele>3.0</ele><time>2026-05-04T13:56:40.405Z</time></trkpt><trkpt lat="41.0473233" lon="14.001635"><ele>3.1428571428571423</ele><time>2026-05-04T13:56:41.407Z</time></trkpt><trkpt lat="41.0472917" lon="14.0015467"><ele>3.2857142857142856</ele><time>2026-05-04T13:56:42.404Z</time></trkpt><trkpt lat="41.04726" lon="14.0014567"><ele>3.4285714285714284</ele><time>2026-05-04T13:56:43.406Z</time></trkpt><trkpt lat="41.0472283" lon="14.0013667"><ele>3.571428571428571</ele><time>2026-05-04T13:56:44.406Z</time></trkpt><trkpt lat="41.0471967" lon="14.001275"><ele>3.714285714285714</ele><time>2026-05-04T13:56:45.406Z</time></trkpt><trkpt lat="41.047165" lon="14.0011867"><ele>3.8571428571428568</ele><time>2026-05-04T13:56:46.407Z</time></trkpt><trkpt lat="41.0471333" lon="14.0010983"><ele>4.0</ele><time>2026-05-04T13:56:47.404Z</time></trkpt><trkpt lat="41.0471" lon="14.0010133"><ele>4.0</ele><time>2026-05-04T13:56:48.404Z</time></trkpt><trkpt lat="41.0470683" lon="14.0009267"><ele>3.9999999999999996</ele><time>2026-05-04T13:56:49.409Z</time></trkpt><trkpt lat="41.04704" lon="14.0008433"><ele>4.0</ele><time>2026-05-04T13:56:50.405Z</time></trkpt><trkpt lat="41.0470117" lon="14.00076"><ele>4.0</ele><time>2026-05-04T13:56:51.405Z</time></trkpt><trkpt lat="41.04698" lon="14.0006767"><ele>3.9999999999999996</ele><time>2026-05-04T13:56:52.406Z</time></trkpt><trkpt lat="41.0469483" lon="14.00059"><ele>4.0</ele><time>2026-05-04T13:56:53.407Z</time></trkpt><trkpt lat="41.04692" lon="14.0005083"><ele>4.0</ele><time>2026-05-04T13:56:54.406Z</time></trkpt><trkpt lat="41.04689" lon="14.0004233"><ele>4.0</ele><time>2026-05-04T13:56:55.408Z</time></trkpt><trkpt lat="41.04686" lon="14.0003367"><ele>3.9999999999999996</ele><time>2026-05-04T13:56:56.407Z</time></trkpt><trkpt lat="41.04683" lon="14.0002517"><ele>4.0</ele><time>2026-05-04T13:56:57.406Z</time></trkpt><trkpt lat="41.0468033" lon="14.00017"><ele>4.0</ele><time>2026-05-04T13:56:58.406Z</time></trkpt><trkpt lat="41.046775" lon="14.000085"><ele>3.9999999999999996</ele><time>2026-05-04T13:56:59.407Z</time></trkpt><trkpt lat="41.0467467" lon="13.9999967"><ele>4.0</ele><time>2026-05-04T13:57:00.404Z</time></trkpt><trkpt lat="41.04672" lon="13.9999083"><ele>4.0</ele><time>2026-05-04T13:57:01.408Z</time></trkpt><trkpt lat="41.04669" lon="13.9998217"><ele>4.0</ele><time>2026-05-04T13:57:02.407Z</time></trkpt><trkpt lat="41.0466633" lon="13.9997383"><ele>3.9999999999999996</ele><time>2026-05-04T13:57:03.406Z</time></trkpt><trkpt lat="41.0466367" lon="13.9996567"><ele>4.0</ele><time>2026-05-04T13:57:04.407Z</time></trkpt><trkpt lat="41.0466083" lon="13.9995733"><ele>4.0</ele><time>2026-05-04T13:57:05.407Z</time></trkpt><trkpt lat="41.04658" lon="13.9994867"><ele>3.9999999999999996</ele><time>2026-05-04T13:57:06.405Z</time></trkpt><trkpt lat="41.0465533" lon="13.9994"><ele>4.0</ele><time>2026-05-04T13:57:07.408Z</time></trkpt><trkpt lat="41.04653" lon="13.9993133"><ele>4.0</ele><time>2026-05-04T13:57:08.406Z</time></trkpt><trkpt lat="41.0465067" lon="13.999225"><ele>3.8571428571428568</ele><time>2026-05-04T13:57:09.407Z</time></trkpt><trkpt lat="41.0464817" lon="13.9991367"><ele>3.714285714285714</ele><time>2026-05-04T13:57:10.404Z</time></trkpt><trkpt lat="41.0464583" lon="13.9990517"><ele>3.571428571428571</ele><time>2026-05-04T13:57:11.407Z</time></trkpt><trkpt lat="41.0464333" lon="13.9989633"><ele>3.4285714285714284</ele><time>2026-05-04T13:57:12.407Z</time></trkpt><trkpt lat="41.04641" lon="13.9988733"><ele>3.2857142857142856</ele><time>2026-05-04T13:57:13.407Z</time></trkpt><trkpt lat="41.046385" lon="13.9987833"><ele>3.1428571428571423</ele><time>2026-05-04T13:57:14.407Z</time></trkpt><trkpt lat="41.04636" lon="13.9986983"><ele>3.0</ele><time>2026-05-04T13:57:15.402Z</time></trkpt><trkpt lat="41.046335" lon="13.9986117"><ele>2.9999999999999996</ele><time>2026-05-04T13:57:16.403Z</time></trkpt><trkpt lat="41.0463083" lon="13.9985233"><ele>3.0</ele><time>2026-05-04T13:57:17.404Z</time></trkpt><trkpt lat="41.04628" lon="13.998435"><ele>3.0</ele><time>2026-05-04T13:57:18.406Z</time></trkpt><trkpt lat="41.0462533" lon="13.9983483"><ele>3.0</ele><time>2026-05-04T13:57:19.408Z</time></trkpt><trkpt lat="41.04623" lon="13.9982583"><ele>3.0</ele><time>2026-05-04T13:57:20.407Z</time></trkpt><trkpt lat="41.0462083" lon="13.9981683"><ele>2.9999999999999996</ele><time>2026-05-04T13:57:21.405Z</time></trkpt><trkpt lat="41.046185" lon="13.9980783"><ele>3.0</ele><time>2026-05-04T13:57:22.405Z</time></trkpt><trkpt lat="41.0461633" lon="13.9979917"><ele>2.8571428571428568</ele><time>2026-05-04T13:57:23.407Z</time></trkpt><trkpt lat="41.0461417" lon="13.9979067"><ele>2.7142857142857144</ele><time>2026-05-04T13:57:24.406Z</time></trkpt><trkpt lat="41.0461167" lon="13.9978217"><ele>2.571428571428571</ele><time>2026-05-04T13:57:25.407Z</time></trkpt><trkpt lat="41.0460933" lon="13.9977333"><ele>2.4285714285714284</ele><time>2026-05-04T13:57:26.405Z</time></trkpt><trkpt lat="41.0460733" lon="13.99765"><ele>2.2857142857142856</ele><time>2026-05-04T13:57:27.404Z</time></trkpt><trkpt lat="41.0460533" lon="13.997565"><ele>2.142857142857143</ele><time>2026-05-04T13:57:28.404Z</time></trkpt><trkpt lat="41.04603" lon="13.99748"><ele>2.0</ele><time>2026-05-04T13:57:29.405Z</time></trkpt><trkpt lat="41.0460083" lon="13.997395"><ele>2.0</ele><time>2026-05-04T13:57:30.407Z</time></trkpt><trkpt lat="41.04599" lon="13.9973017"><ele>1.9999999999999998</ele><time>2026-05-04T13:57:31.407Z</time></trkpt><trkpt lat="41.0459683" lon="13.9972083"><ele>2.0</ele><time>2026-05-04T13:57:32.407Z</time></trkpt><trkpt lat="41.04595" lon="13.9971083"><ele>2.0</ele><time>2026-05-04T13:57:33.406Z</time></trkpt><trkpt lat="41.0459283" lon="13.997015"><ele>1.9999999999999998</ele><time>2026-05-04T13:57:34.407Z</time></trkpt><trkpt lat="41.045905" lon="13.9969217"><ele>2.0</ele><time>2026-05-04T13:57:35.405Z</time></trkpt><trkpt lat="41.045885" lon="13.9968267"><ele>2.0</ele><time>2026-05-04T13:57:36.406Z</time></trkpt><trkpt lat="41.045865" lon="13.9967367"><ele>2.0</ele><time>2026-05-04T13:57:37.407Z</time></trkpt><trkpt lat="41.0458433" lon="13.99665"><ele>1.9999999999999998</ele><time>2026-05-04T13:57:38.406Z</time></trkpt><trkpt lat="41.045825" lon="13.99656"><ele>2.0</ele><time>2026-05-04T13:57:39.405Z</time></trkpt><trkpt lat="41.0458067" lon="13.9964733"><ele>2.0</ele><time>2026-05-04T13:57:40.406Z</time></trkpt><trkpt lat="41.0457867" lon="13.9963867"><ele>1.9999999999999998</ele><time>2026-05-04T13:57:41.407Z</time></trkpt><trkpt lat="41.04577" lon="13.9963"><ele>2.0</ele><time>2026-05-04T13:57:42.406Z</time></trkpt><trkpt lat="41.0457533" lon="13.9962083"><ele>2.0</ele><time>2026-05-04T13:57:43.408Z</time></trkpt><trkpt lat="41.045735" lon="13.996115"><ele>1.857142857142857</ele><time>2026-05-04T13:57:44.407Z</time></trkpt><trkpt lat="41.0457217" lon="13.9960217"><ele>1.714285714285714</ele><time>2026-05-04T13:57:45.405Z</time></trkpt><trkpt lat="41.0457033" lon="13.99593"><ele>1.5714285714285714</ele><time>2026-05-04T13:57:46.404Z</time></trkpt><trkpt lat="41.045685" lon="13.9958383"><ele>1.4285714285714284</ele><time>2026-05-04T13:57:47.404Z</time></trkpt><trkpt lat="41.0456667" lon="13.99575"><ele>1.2857142857142856</ele><time>2026-05-04T13:57:48.403Z</time></trkpt><trkpt lat="41.0456517" lon="13.9956667"><ele>1.1428571428571428</ele><time>2026-05-04T13:57:49.404Z</time></trkpt><trkpt lat="41.0456333" lon="13.995585"><ele>1.0</ele><time>2026-05-04T13:57:50.405Z</time></trkpt><trkpt lat="41.0456017" lon="13.9954317"><ele>1.2000000000000002</ele><time>2026-05-04T13:57:52.406Z</time></trkpt><trkpt lat="41.0455717" lon="13.995285"><ele>1.4000000000000001</ele><time>2026-05-04T13:57:54.405Z</time></trkpt><trkpt lat="41.0455417" lon="13.9951483"><ele>1.6</ele><time>2026-05-04T13:57:56.406Z</time></trkpt><trkpt lat="41.045515" lon="13.9950217"><ele>1.8</ele><time>2026-05-04T13:57:58.405Z</time></trkpt><trkpt lat="41.0454933" lon="13.9948883"><ele>2.0</ele><time>2026-05-04T13:58:00.405Z</time></trkpt><trkpt lat="41.0454667" lon="13.9947367"><ele>2.0</ele><time>2026-05-04T13:58:02.406Z</time></trkpt><trkpt lat="41.0454533" lon="13.994655"><ele>1.9999999999999998</ele><time>2026-05-04T13:58:03.406Z</time></trkpt><trkpt lat="41.0454383" lon="13.9945733"><ele>2.0</ele><time>2026-05-04T13:58:04.407Z</time></trkpt><trkpt lat="41.04542" lon="13.994485"><ele>2.0</ele><time>2026-05-04T13:58:05.405Z</time></trkpt><trkpt lat="41.0454033" lon="13.9944017"><ele>1.9999999999999998</ele><time>2026-05-04T13:58:06.405Z</time></trkpt><trkpt lat="41.0453867" lon="13.9943167"><ele>2.0</ele><time>2026-05-04T13:58:07.407Z</time></trkpt><trkpt lat="41.0453717" lon="13.9942283"><ele>2.0</ele><time>2026-05-04T13:58:08.405Z</time></trkpt><trkpt lat="41.0453567" lon="13.9941417"><ele>2.0</ele><time>2026-05-04T13:58:09.406Z</time></trkpt><trkpt lat="41.04534" lon="13.9940517"><ele>1.9999999999999998</ele><time>2026-05-04T13:58:10.407Z</time></trkpt><trkpt lat="41.0453217" lon="13.99396"><ele>2.0</ele><time>2026-05-04T13:58:11.407Z</time></trkpt><trkpt lat="41.0453067" lon="13.9938717"><ele>2.0</ele><time>2026-05-04T13:58:12.407Z</time></trkpt><trkpt lat="41.04529" lon="13.993785"><ele>1.9999999999999998</ele><time>2026-05-04T13:58:13.408Z</time></trkpt><trkpt lat="41.0452717" lon="13.9936933"><ele>2.0</ele><time>2026-05-04T13:58:14.406Z</time></trkpt><trkpt lat="41.0452533" lon="13.9936067"><ele>2.0</ele><time>2026-05-04T13:58:15.407Z</time></trkpt><trkpt lat="41.045235" lon="13.99352"><ele>2.0</ele><time>2026-05-04T13:58:16.404Z</time></trkpt><trkpt lat="41.0452167" lon="13.9934317"><ele>1.9999999999999998</ele><time>2026-05-04T13:58:17.404Z</time></trkpt><trkpt lat="41.0451967" lon="13.99334"><ele>2.0</ele><time>2026-05-04T13:58:18.405Z</time></trkpt><trkpt lat="41.04518" lon="13.99325"><ele>2.0</ele><time>2026-05-04T13:58:19.405Z</time></trkpt><trkpt lat="41.0451633" lon="13.993165"><ele>1.9999999999999998</ele><time>2026-05-04T13:58:20.404Z</time></trkpt><trkpt lat="41.045145" lon="13.9930817"><ele>2.0</ele><time>2026-05-04T13:58:21.402Z</time></trkpt><trkpt lat="41.0451267" lon="13.9929983"><ele>2.0</ele><time>2026-05-04T13:58:22.404Z</time></trkpt><trkpt lat="41.0451117" lon="13.992915"><ele>2.0</ele><time>2026-05-04T13:58:23.405Z</time></trkpt><trkpt lat="41.045095" lon="13.9928317"><ele>1.9999999999999998</ele><time>2026-05-04T13:58:24.407Z</time></trkpt><trkpt lat="41.0450783" lon="13.99274"><ele>2.0</ele><time>2026-05-04T13:58:25.407Z</time></trkpt><trkpt lat="41.0450633" lon="13.99265"><ele>2.0</ele><time>2026-05-04T13:58:26.404Z</time></trkpt><trkpt lat="41.0450483" lon="13.9925583"><ele>1.9999999999999998</ele><time>2026-05-04T13:58:27.407Z</time></trkpt><trkpt lat="41.0450283" lon="13.9924683"><ele>2.0</ele><time>2026-05-04T13:58:28.406Z</time></trkpt><trkpt lat="41.0450133" lon="13.99238"><ele>2.0</ele><time>2026-05-04T13:58:29.406Z</time></trkpt><trkpt lat="41.0449933" lon="13.9922933"><ele>2.0</ele><time>2026-05-04T13:58:30.406Z</time></trkpt><trkpt lat="41.0449733" lon="13.992205"><ele>1.9999999999999998</ele><time>2026-05-04T13:58:31.407Z</time></trkpt><trkpt lat="41.044955" lon="13.9921167"><ele>2.0</ele><time>2026-05-04T13:58:32.404Z</time></trkpt><trkpt lat="41.0449383" lon="13.9920317"><ele>2.0</ele><time>2026-05-04T13:58:33.405Z</time></trkpt><trkpt lat="41.0449217" lon="13.9919483"><ele>1.9999999999999998</ele><time>2026-05-04T13:58:34.406Z</time></trkpt><trkpt lat="41.044905" lon="13.9918667"><ele>2.0</ele><time>2026-05-04T13:58:35.406Z</time></trkpt><trkpt lat="41.04489" lon="13.9917833"><ele>2.0</ele><time>2026-05-04T13:58:36.406Z</time></trkpt><trkpt lat="41.044875" lon="13.9917017"><ele>1.9999999999999998</ele><time>2026-05-04T13:58:37.405Z</time></trkpt><trkpt lat="41.0448417" lon="13.9915367"><ele>2.0</ele><time>2026-05-04T13:58:39.403Z</time></trkpt><trkpt lat="41.044825" lon="13.9914533"><ele>2.0</ele><time>2026-05-04T13:58:40.405Z</time></trkpt><trkpt lat="41.0448067" lon="13.9913683"><ele>2.0</ele><time>2026-05-04T13:58:41.405Z</time></trkpt><trkpt lat="41.0447883" lon="13.9912817"><ele>1.9999999999999998</ele><time>2026-05-04T13:58:42.407Z</time></trkpt><trkpt lat="41.0447717" lon="13.9911917"><ele>2.0</ele><time>2026-05-04T13:58:43.408Z</time></trkpt><trkpt lat="41.0447517" lon="13.991095"><ele>2.0</ele><time>2026-05-04T13:58:44.406Z</time></trkpt><trkpt lat="41.044735" lon="13.9910033"><ele>1.9999999999999998</ele><time>2026-05-04T13:58:45.406Z</time></trkpt><trkpt lat="41.0447183" lon="13.990915"><ele>2.0</ele><time>2026-05-04T13:58:46.405Z</time></trkpt><trkpt lat="41.0446983" lon="13.99083"><ele>2.0</ele><time>2026-05-04T13:58:47.404Z</time></trkpt><trkpt lat="41.04468" lon="13.9907417"><ele>1.9999999999999998</ele><time>2026-05-04T13:58:48.405Z</time></trkpt><trkpt lat="41.0446617" lon="13.9906517"><ele>2.0</ele><time>2026-05-04T13:58:49.405Z</time></trkpt><trkpt lat="41.0446417" lon="13.9905633"><ele>2.0</ele><time>2026-05-04T13:58:50.405Z</time></trkpt><trkpt lat="41.0446217" lon="13.9904767"><ele>2.0</ele><time>2026-05-04T13:58:51.403Z</time></trkpt><trkpt lat="41.0446033" lon="13.9903883"><ele>1.9999999999999998</ele><time>2026-05-04T13:58:52.403Z</time></trkpt><trkpt lat="41.044585" lon="13.9902983"><ele>2.0</ele><time>2026-05-04T13:58:53.407Z</time></trkpt><trkpt lat="41.0445683" lon="13.9902117"><ele>2.0</ele><time>2026-05-04T13:58:54.407Z</time></trkpt><trkpt lat="41.04455" lon="13.990125"><ele>1.9999999999999998</ele><time>2026-05-04T13:58:55.407Z</time></trkpt><trkpt lat="41.0445317" lon="13.990035"><ele>2.0</ele><time>2026-05-04T13:58:56.407Z</time></trkpt><trkpt lat="41.044515" lon="13.9899433"><ele>2.0</ele><time>2026-05-04T13:58:57.406Z</time></trkpt><trkpt lat="41.0444983" lon="13.9898533"><ele>1.7142857142857142</ele><time>2026-05-04T13:58:58.406Z</time></trkpt><trkpt lat="41.0444817" lon="13.9897633"><ele>1.4285714285714284</ele><time>2026-05-04T13:58:59.407Z</time></trkpt><trkpt lat="41.0444667" lon="13.989675"><ele>1.1428571428571428</ele><time>2026-05-04T13:59:00.403Z</time></trkpt><trkpt lat="41.0444483" lon="13.9895867"><ele>0.8571428571428571</ele><time>2026-05-04T13:59:01.407Z</time></trkpt><trkpt lat="41.04443" lon="13.9895"><ele>0.5714285714285714</ele><time>2026-05-04T13:59:02.405Z</time></trkpt><trkpt lat="41.0444117" lon="13.98941"><ele>0.2857142857142857</ele><time>2026-05-04T13:59:03.406Z</time></trkpt><trkpt lat="41.0443917" lon="13.9893217"><ele>0.0</ele><time>2026-05-04T13:59:04.407Z</time></trkpt><trkpt lat="41.044375" lon="13.9892333"><ele>0.14285714285714285</ele><time>2026-05-04T13:59:05.405Z</time></trkpt><trkpt lat="41.0443583" lon="13.989145"><ele>0.2857142857142857</ele><time>2026-05-04T13:59:06.407Z</time></trkpt><trkpt lat="41.0443433" lon="13.9890567"><ele>0.42857142857142855</ele><time>2026-05-04T13:59:07.406Z</time></trkpt><trkpt lat="41.044325" lon="13.9889683"><ele>0.5714285714285714</ele><time>2026-05-04T13:59:08.406Z</time></trkpt><trkpt lat="41.0443067" lon="13.9888833"><ele>0.7142857142857142</ele><time>2026-05-04T13:59:09.405Z</time></trkpt><trkpt lat="41.0442867" lon="13.9887967"><ele>0.8571428571428571</ele><time>2026-05-04T13:59:10.407Z</time></trkpt><trkpt lat="41.0442667" lon="13.9887083"><ele>1.0</ele><time>2026-05-04T13:59:11.405Z</time></trkpt><trkpt lat="41.0442483" lon="13.9886183"><ele>1.0</ele><time>2026-05-04T13:59:12.402Z</time></trkpt><trkpt lat="41.0442317" lon="13.9885283"><ele>0.9999999999999999</ele><time>2026-05-04T13:59:13.407Z</time></trkpt><trkpt lat="41.0442117" lon="13.9884367"><ele>1.0</ele><time>2026-05-04T13:59:14.407Z</time></trkpt><trkpt lat="41.0441933" lon="13.9883467"><ele>1.0</ele><time>2026-05-04T13:59:15.407Z</time></trkpt><trkpt lat="41.0441767" lon="13.9882583"><ele>0.9999999999999999</ele><time>2026-05-04T13:59:16.403Z</time></trkpt><trkpt lat="41.0441567" lon="13.98817"><ele>1.0</ele><time>2026-05-04T13:59:17.406Z</time></trkpt><trkpt lat="41.0441383" lon="13.98808"><ele>1.0</ele><time>2026-05-04T13:59:18.405Z</time></trkpt><trkpt lat="41.0441183" lon="13.9879933"><ele>1.0</ele><time>2026-05-04T13:59:19.406Z</time></trkpt><trkpt lat="41.0440967" lon="13.987905"><ele>0.9999999999999999</ele><time>2026-05-04T13:59:20.405Z</time></trkpt><trkpt lat="41.0440783" lon="13.987815"><ele>1.0</ele><time>2026-05-04T13:59:21.405Z</time></trkpt><trkpt lat="41.04406" lon="13.9877217"><ele>1.0</ele><time>2026-05-04T13:59:22.405Z</time></trkpt><trkpt lat="41.04404" lon="13.9876333"><ele>0.9999999999999999</ele><time>2026-05-04T13:59:23.407Z</time></trkpt><trkpt lat="41.0440217" lon="13.987545"><ele>1.0</ele><time>2026-05-04T13:59:24.405Z</time></trkpt><trkpt lat="41.0440017" lon="13.9874567"><ele>1.0</ele><time>2026-05-04T13:59:25.404Z</time></trkpt><trkpt lat="41.0439817" lon="13.9873683"><ele>1.0</ele><time>2026-05-04T13:59:26.404Z</time></trkpt><trkpt lat="41.0439617" lon="13.9872733"><ele>0.9999999999999999</ele><time>2026-05-04T13:59:27.407Z</time></trkpt><trkpt lat="41.043945" lon="13.9871783"><ele>1.0</ele><time>2026-05-04T13:59:28.405Z</time></trkpt><trkpt lat="41.0439267" lon="13.9870867"><ele>1.0</ele><time>2026-05-04T13:59:29.406Z</time></trkpt><trkpt lat="41.0439083" lon="13.9869967"><ele>0.9999999999999999</ele><time>2026-05-04T13:59:30.404Z</time></trkpt><trkpt lat="41.0438933" lon="13.9869033"><ele>1.0</ele><time>2026-05-04T13:59:31.408Z</time></trkpt><trkpt lat="41.043875" lon="13.9868083"><ele>1.0</ele><time>2026-05-04T13:59:32.405Z</time></trkpt><trkpt lat="41.043855" lon="13.9867133"><ele>1.1428571428571428</ele><time>2026-05-04T13:59:33.405Z</time></trkpt><trkpt lat="41.0438383" lon="13.9866167"><ele>1.2857142857142856</ele><time>2026-05-04T13:59:34.406Z</time></trkpt><trkpt lat="41.0438183" lon="13.986525"><ele>1.4285714285714284</ele><time>2026-05-04T13:59:35.406Z</time></trkpt><trkpt lat="41.0437983" lon="13.9864367"><ele>1.5714285714285714</ele><time>2026-05-04T13:59:36.407Z</time></trkpt><trkpt lat="41.0437767" lon="13.9863483"><ele>1.714285714285714</ele><time>2026-05-04T13:59:37.406Z</time></trkpt><trkpt lat="41.0437567" lon="13.9862583"><ele>1.857142857142857</ele><time>2026-05-04T13:59:38.405Z</time></trkpt><trkpt lat="41.0437367" lon="13.9861667"><ele>2.0</ele><time>2026-05-04T13:59:39.406Z</time></trkpt><trkpt lat="41.043715" lon="13.9860767"><ele>2.0</ele><time>2026-05-04T13:59:40.405Z</time></trkpt><trkpt lat="41.0436967" lon="13.9859867"><ele>1.9999999999999998</ele><time>2026-05-04T13:59:41.406Z</time></trkpt><trkpt lat="41.0436767" lon="13.9858967"><ele>2.0</ele><time>2026-05-04T13:59:42.403Z</time></trkpt><trkpt lat="41.0436583" lon="13.9858117"><ele>2.0</ele><time>2026-05-04T13:59:43.406Z</time></trkpt><trkpt lat="41.04364" lon="13.9857217"><ele>1.9999999999999998</ele><time>2026-05-04T13:59:44.406Z</time></trkpt><trkpt lat="41.0436233" lon="13.9856333"><ele>2.0</ele><time>2026-05-04T13:59:45.406Z</time></trkpt><trkpt lat="41.043605" lon="13.98555"><ele>2.0</ele><time>2026-05-04T13:59:46.403Z</time></trkpt><trkpt lat="41.0435867" lon="13.9854633"><ele>2.0</ele><time>2026-05-04T13:59:47.404Z</time></trkpt><trkpt lat="41.04357" lon="13.9853783"><ele>1.9999999999999998</ele><time>2026-05-04T13:59:48.404Z</time></trkpt><trkpt lat="41.0435517" lon="13.9852883"><ele>2.0</ele><time>2026-05-04T13:59:49.403Z</time></trkpt><trkpt lat="41.0435317" lon="13.9852017"><ele>2.0</ele><time>2026-05-04T13:59:50.405Z</time></trkpt><trkpt lat="41.043515" lon="13.9851167"><ele>1.9999999999999998</ele><time>2026-05-04T13:59:51.402Z</time></trkpt><trkpt lat="41.0434967" lon="13.9850283"><ele>2.0</ele><time>2026-05-04T13:59:52.402Z</time></trkpt><trkpt lat="41.04348" lon="13.9849383"><ele>2.0</ele><time>2026-05-04T13:59:53.408Z</time></trkpt><trkpt lat="41.0434617" lon="13.9848483"><ele>2.0</ele><time>2026-05-04T13:59:54.406Z</time></trkpt><trkpt lat="41.0434433" lon="13.9847583"><ele>1.9999999999999998</ele><time>2026-05-04T13:59:55.407Z</time></trkpt><trkpt lat="41.04343" lon="13.9846733"><ele>2.0</ele><time>2026-05-04T13:59:56.407Z</time></trkpt><trkpt lat="41.043415" lon="13.9845917"><ele>2.0</ele><time>2026-05-04T13:59:57.403Z</time></trkpt><trkpt lat="41.0433967" lon="13.98451"><ele>1.9999999999999998</ele><time>2026-05-04T13:59:58.403Z</time></trkpt><trkpt lat="41.0433783" lon="13.9844267"><ele>2.0</ele><time>2026-05-04T13:59:59.403Z</time></trkpt><trkpt lat="41.0433617" lon="13.9843433"><ele>2.0</ele><time>2026-05-04T14:00:00.405Z</time></trkpt><trkpt lat="41.0433467" lon="13.98426"><ele>2.0</ele><time>2026-05-04T14:00:01.403Z</time></trkpt><trkpt lat="41.0433317" lon="13.9841783"><ele>1.9999999999999998</ele><time>2026-05-04T14:00:02.403Z</time></trkpt><trkpt lat="41.0433167" lon="13.984095"><ele>2.0</ele><time>2026-05-04T14:00:03.404Z</time></trkpt><trkpt lat="41.0433017" lon="13.9840117"><ele>2.0</ele><time>2026-05-04T14:00:04.404Z</time></trkpt><trkpt lat="41.043285" lon="13.983925"><ele>1.9999999999999998</ele><time>2026-05-04T14:00:05.403Z</time></trkpt><trkpt lat="41.0432683" lon="13.98384"><ele>2.0</ele><time>2026-05-04T14:00:06.405Z</time></trkpt><trkpt lat="41.04325" lon="13.9837483"><ele>2.0</ele><time>2026-05-04T14:00:07.404Z</time></trkpt><trkpt lat="41.0432333" lon="13.98366"><ele>1.857142857142857</ele><time>2026-05-04T14:00:08.403Z</time></trkpt><trkpt lat="41.043215" lon="13.9835683"><ele>1.714285714285714</ele><time>2026-05-04T14:00:09.402Z</time></trkpt><trkpt lat="41.0432017" lon="13.9834817"><ele>1.5714285714285714</ele><time>2026-05-04T14:00:10.407Z</time></trkpt><trkpt lat="41.0431833" lon="13.9833967"><ele>1.4285714285714284</ele><time>2026-05-04T14:00:11.406Z</time></trkpt><trkpt lat="41.043165" lon="13.9833117"><ele>1.2857142857142856</ele><time>2026-05-04T14:00:12.406Z</time></trkpt><trkpt lat="41.043145" lon="13.9832217"><ele>1.1428571428571428</ele><time>2026-05-04T14:00:13.409Z</time></trkpt><trkpt lat="41.0431267" lon="13.9831317"><ele>1.0</ele><time>2026-05-04T14:00:14.403Z</time></trkpt><trkpt lat="41.04311" lon="13.9830433"><ele>1.0</ele><time>2026-05-04T14:00:15.407Z</time></trkpt><trkpt lat="41.0430917" lon="13.9829583"><ele>0.9999999999999999</ele><time>2026-05-04T14:00:16.404Z</time></trkpt><trkpt lat="41.0430733" lon="13.9828733"><ele>1.0</ele><time>2026-05-04T14:00:17.407Z</time></trkpt><trkpt lat="41.043055" lon="13.982785"><ele>1.0</ele><time>2026-05-04T14:00:18.404Z</time></trkpt><trkpt lat="41.0430367" lon="13.9826983"><ele>0.9999999999999999</ele><time>2026-05-04T14:00:19.404Z</time></trkpt><trkpt lat="41.0430183" lon="13.9826083"><ele>1.0</ele><time>2026-05-04T14:00:20.404Z</time></trkpt><trkpt lat="41.0429983" lon="13.9825167"><ele>1.0</ele><time>2026-05-04T14:00:21.402Z</time></trkpt><trkpt lat="41.04298" lon="13.982425"><ele>1.0</ele><time>2026-05-04T14:00:22.403Z</time></trkpt><trkpt lat="41.04296" lon="13.982335"><ele>0.9999999999999999</ele><time>2026-05-04T14:00:23.405Z</time></trkpt><trkpt lat="41.0429417" lon="13.9822433"><ele>1.0</ele><time>2026-05-04T14:00:24.403Z</time></trkpt><trkpt lat="41.0429217" lon="13.9821517"><ele>1.0</ele><time>2026-05-04T14:00:25.404Z</time></trkpt><trkpt lat="41.042905" lon="13.9820617"><ele>0.9999999999999999</ele><time>2026-05-04T14:00:26.405Z</time></trkpt><trkpt lat="41.0428833" lon="13.98197"><ele>1.0</ele><time>2026-05-04T14:00:27.404Z</time></trkpt><trkpt lat="41.0428633" lon="13.9818767"><ele>1.0</ele><time>2026-05-04T14:00:28.404Z</time></trkpt><trkpt lat="41.0428417" lon="13.981785"><ele>1.0</ele><time>2026-05-04T14:00:29.405Z</time></trkpt><trkpt lat="41.0428233" lon="13.9816933"><ele>0.9999999999999999</ele><time>2026-05-04T14:00:30.406Z</time></trkpt><trkpt lat="41.0428033" lon="13.9816"><ele>1.0</ele><time>2026-05-04T14:00:31.405Z</time></trkpt><trkpt lat="41.0427833" lon="13.9815117"><ele>1.0</ele><time>2026-05-04T14:00:32.405Z</time></trkpt><trkpt lat="41.0427617" lon="13.9814217"><ele>0.9999999999999999</ele><time>2026-05-04T14:00:33.405Z</time></trkpt><trkpt lat="41.04274" lon="13.9813383"><ele>1.0</ele><time>2026-05-04T14:00:34.406Z</time></trkpt><trkpt lat="41.0427183" lon="13.98125"><ele>1.0</ele><time>2026-05-04T14:00:35.409Z</time></trkpt><trkpt lat="41.0426967" lon="13.9811617"><ele>1.1428571428571428</ele><time>2026-05-04T14:00:36.405Z</time></trkpt><trkpt lat="41.0426767" lon="13.9810717"><ele>1.2857142857142856</ele><time>2026-05-04T14:00:37.405Z</time></trkpt><trkpt lat="41.0426583" lon="13.98098"><ele>1.4285714285714284</ele><time>2026-05-04T14:00:38.406Z</time></trkpt><trkpt lat="41.04264" lon="13.98089"><ele>1.5714285714285714</ele><time>2026-05-04T14:00:39.404Z</time></trkpt><trkpt lat="41.042625" lon="13.980795"><ele>1.714285714285714</ele><time>2026-05-04T14:00:40.404Z</time></trkpt><trkpt lat="41.0426083" lon="13.9806983"><ele>1.857142857142857</ele><time>2026-05-04T14:00:41.406Z</time></trkpt><trkpt lat="41.0425917" lon="13.9806033"><ele>2.0</ele><time>2026-05-04T14:00:42.407Z</time></trkpt><trkpt lat="41.0425733" lon="13.98051"><ele>2.0</ele><time>2026-05-04T14:00:43.407Z</time></trkpt><trkpt lat="41.042555" lon="13.980415"><ele>1.9999999999999998</ele><time>2026-05-04T14:00:44.407Z</time></trkpt><trkpt lat="41.0425367" lon="13.9803217"><ele>2.0</ele><time>2026-05-04T14:00:45.406Z</time></trkpt><trkpt lat="41.0425183" lon="13.9802283"><ele>2.0</ele><time>2026-05-04T14:00:46.404Z</time></trkpt><trkpt lat="41.0425017" lon="13.980135"><ele>1.9999999999999998</ele><time>2026-05-04T14:00:47.404Z</time></trkpt><trkpt lat="41.0424833" lon="13.98004"><ele>2.0</ele><time>2026-05-04T14:00:48.404Z</time></trkpt><trkpt lat="41.042465" lon="13.9799467"><ele>2.0</ele><time>2026-05-04T14:00:49.405Z</time></trkpt><trkpt lat="41.0424467" lon="13.9798583"><ele>1.857142857142857</ele><time>2026-05-04T14:00:50.404Z</time></trkpt><trkpt lat="41.04243" lon="13.9797683"><ele>1.714285714285714</ele><time>2026-05-04T14:00:51.404Z</time></trkpt><trkpt lat="41.0424117" lon="13.9796783"><ele>1.5714285714285714</ele><time>2026-05-04T14:00:52.404Z</time></trkpt><trkpt lat="41.0423933" lon="13.9795833"><ele>1.4285714285714284</ele><time>2026-05-04T14:00:53.408Z</time></trkpt><trkpt lat="41.042375" lon="13.9794867"><ele>1.2857142857142856</ele><time>2026-05-04T14:00:54.406Z</time></trkpt><trkpt lat="41.0423533" lon="13.979385"><ele>1.1428571428571428</ele><time>2026-05-04T14:00:55.408Z</time></trkpt><trkpt lat="41.0423333" lon="13.9792817"><ele>1.0</ele><time>2026-05-04T14:00:56.406Z</time></trkpt><trkpt lat="41.0423133" lon="13.9791817"><ele>0.9999999999999999</ele><time>2026-05-04T14:00:57.407Z</time></trkpt><trkpt lat="41.0422917" lon="13.9790833"><ele>1.0</ele><time>2026-05-04T14:00:58.407Z</time></trkpt><trkpt lat="41.0422717" lon="13.9789883"><ele>1.0</ele><time>2026-05-04T14:00:59.405Z</time></trkpt><trkpt lat="41.0422517" lon="13.9788933"><ele>1.0</ele><time>2026-05-04T14:01:00.404Z</time></trkpt><trkpt lat="41.0422317" lon="13.9787983"><ele>0.9999999999999999</ele><time>2026-05-04T14:01:01.406Z</time></trkpt><trkpt lat="41.04221" lon="13.978705"><ele>1.0</ele><time>2026-05-04T14:01:02.406Z</time></trkpt><trkpt lat="41.04219" lon="13.9786067"><ele>0.9999999999999999</ele><time>2026-05-04T14:01:03.404Z</time></trkpt><trkpt lat="41.04217" lon="13.9785067"><ele>1.0</ele><time>2026-05-04T14:01:04.407Z</time></trkpt><trkpt lat="41.04215" lon="13.9784067"><ele>1.0</ele><time>2026-05-04T14:01:05.405Z</time></trkpt><trkpt lat="41.0421317" lon="13.97831"><ele>1.0</ele><time>2026-05-04T14:01:06.406Z</time></trkpt><trkpt lat="41.042115" lon="13.97821"><ele>0.9999999999999999</ele><time>2026-05-04T14:01:07.407Z</time></trkpt><trkpt lat="41.0421" lon="13.9781117"><ele>1.0</ele><time>2026-05-04T14:01:08.407Z</time></trkpt><trkpt lat="41.0420817" lon="13.978015"><ele>0.9999999999999999</ele><time>2026-05-04T14:01:09.404Z</time></trkpt><trkpt lat="41.0420617" lon="13.977915"><ele>1.0</ele><time>2026-05-04T14:01:10.404Z</time></trkpt><trkpt lat="41.0420417" lon="13.977815"><ele>1.0</ele><time>2026-05-04T14:01:11.408Z</time></trkpt><trkpt lat="41.0420217" lon="13.9777167"><ele>1.0</ele><time>2026-05-04T14:01:12.404Z</time></trkpt><trkpt lat="41.0420033" lon="13.9776183"><ele>0.9999999999999999</ele><time>2026-05-04T14:01:13.408Z</time></trkpt><trkpt lat="41.0419817" lon="13.97752"><ele>1.0</ele><time>2026-05-04T14:01:14.404Z</time></trkpt><trkpt lat="41.0419617" lon="13.977425"><ele>1.1666666666666665</ele><time>2026-05-04T14:01:15.406Z</time></trkpt><trkpt lat="41.04194" lon="13.977325"><ele>1.3333333333333333</ele><time>2026-05-04T14:01:16.403Z</time></trkpt><trkpt lat="41.0419183" lon="13.9772267"><ele>1.5</ele><time>2026-05-04T14:01:17.406Z</time></trkpt><trkpt lat="41.0418967" lon="13.97713"><ele>1.6666666666666665</ele><time>2026-05-04T14:01:18.405Z</time></trkpt><trkpt lat="41.0418783" lon="13.9770317"><ele>1.8333333333333333</ele><time>2026-05-04T14:01:19.405Z</time></trkpt><trkpt lat="41.0418583" lon="13.9769367"><ele>2.0</ele><time>2026-05-04T14:01:20.405Z</time></trkpt><trkpt lat="41.04184" lon="13.97684"><ele>2.0</ele><time>2026-05-04T14:01:21.406Z</time></trkpt><trkpt lat="41.0418183" lon="13.9767467"><ele>1.9999999999999998</ele><time>2026-05-04T14:01:22.405Z</time></trkpt><trkpt lat="41.0417983" lon="13.976655"><ele>2.0</ele><time>2026-05-04T14:01:23.408Z</time></trkpt><trkpt lat="41.0417783" lon="13.9765567"><ele>2.0</ele><time>2026-05-04T14:01:24.405Z</time></trkpt><trkpt lat="41.04176" lon="13.9764617"><ele>1.9999999999999998</ele><time>2026-05-04T14:01:25.406Z</time></trkpt><trkpt lat="41.0417417" lon="13.9763667"><ele>2.0</ele><time>2026-05-04T14:01:26.406Z</time></trkpt><trkpt lat="41.0417217" lon="13.9762717"><ele>2.0</ele><time>2026-05-04T14:01:27.404Z</time></trkpt><trkpt lat="41.0417017" lon="13.976175"><ele>1.857142857142857</ele><time>2026-05-04T14:01:28.405Z</time></trkpt><trkpt lat="41.0416833" lon="13.9760783"><ele>1.714285714285714</ele><time>2026-05-04T14:01:29.403Z</time></trkpt><trkpt lat="41.041665" lon="13.975985"><ele>1.5714285714285714</ele><time>2026-05-04T14:01:30.406Z</time></trkpt><trkpt lat="41.0416483" lon="13.9758917"><ele>1.4285714285714284</ele><time>2026-05-04T14:01:31.406Z</time></trkpt><trkpt lat="41.0416283" lon="13.9758017"><ele>1.2857142857142856</ele><time>2026-05-04T14:01:32.406Z</time></trkpt><trkpt lat="41.0416067" lon="13.9757117"><ele>1.1428571428571428</ele><time>2026-05-04T14:01:33.406Z</time></trkpt><trkpt lat="41.0415883" lon="13.9756167"><ele>1.0</ele><time>2026-05-04T14:01:34.406Z</time></trkpt><trkpt lat="41.0415683" lon="13.975525"><ele>1.2857142857142856</ele><time>2026-05-04T14:01:35.407Z</time></trkpt><trkpt lat="41.04155" lon="13.975435"><ele>1.5714285714285712</ele><time>2026-05-04T14:01:36.403Z</time></trkpt><trkpt lat="41.0415317" lon="13.9753467"><ele>1.857142857142857</ele><time>2026-05-04T14:01:37.407Z</time></trkpt><trkpt lat="41.0415117" lon="13.975255"><ele>2.142857142857143</ele><time>2026-05-04T14:01:38.406Z</time></trkpt><trkpt lat="41.04149" lon="13.975165"><ele>2.4285714285714284</ele><time>2026-05-04T14:01:39.404Z</time></trkpt><trkpt lat="41.04147" lon="13.9750733"><ele>2.714285714285714</ele><time>2026-05-04T14:01:40.405Z</time></trkpt><trkpt lat="41.0414533" lon="13.9749783"><ele>3.0</ele><time>2026-05-04T14:01:41.404Z</time></trkpt><trkpt lat="41.0414367" lon="13.9748833"><ele>2.9999999999999996</ele><time>2026-05-04T14:01:42.404Z</time></trkpt><trkpt lat="41.0414217" lon="13.9747867"><ele>3.0</ele><time>2026-05-04T14:01:43.407Z</time></trkpt><trkpt lat="41.0414033" lon="13.97469"><ele>3.0</ele><time>2026-05-04T14:01:44.405Z</time></trkpt><trkpt lat="41.0413867" lon="13.9746017"><ele>3.0</ele><time>2026-05-04T14:01:45.408Z</time></trkpt><trkpt lat="41.04137" lon="13.9745133"><ele>3.0</ele><time>2026-05-04T14:01:46.407Z</time></trkpt><trkpt lat="41.04135" lon="13.9744217"><ele>2.9999999999999996</ele><time>2026-05-04T14:01:47.406Z</time></trkpt><trkpt lat="41.0413317" lon="13.9743333"><ele>3.0</ele><time>2026-05-04T14:01:48.406Z</time></trkpt><trkpt lat="41.0413133" lon="13.97424"><ele>2.9999999999999996</ele><time>2026-05-04T14:01:49.407Z</time></trkpt><trkpt lat="41.0412967" lon="13.9741517"><ele>3.0</ele><time>2026-05-04T14:01:50.407Z</time></trkpt><trkpt lat="41.0412783" lon="13.9740617"><ele>3.0</ele><time>2026-05-04T14:01:51.407Z</time></trkpt><trkpt lat="41.0412583" lon="13.97397"><ele>3.0</ele><time>2026-05-04T14:01:52.406Z</time></trkpt><trkpt lat="41.0412433" lon="13.97388"><ele>3.0</ele><time>2026-05-04T14:01:53.408Z</time></trkpt><trkpt lat="41.041225" lon="13.9737917"><ele>2.9999999999999996</ele><time>2026-05-04T14:01:54.408Z</time></trkpt><trkpt lat="41.0412083" lon="13.9737017"><ele>3.0</ele><time>2026-05-04T14:01:55.404Z</time></trkpt><trkpt lat="41.04119" lon="13.9736133"><ele>2.9999999999999996</ele><time>2026-05-04T14:01:56.405Z</time></trkpt><trkpt lat="41.04117" lon="13.97352"><ele>3.0</ele><time>2026-05-04T14:01:57.403Z</time></trkpt><trkpt lat="41.0411517" lon="13.9734267"><ele>3.0</ele><time>2026-05-04T14:01:58.404Z</time></trkpt><trkpt lat="41.0411317" lon="13.973335"><ele>3.0</ele><time>2026-05-04T14:01:59.406Z</time></trkpt><trkpt lat="41.04111" lon="13.973245"><ele>3.0</ele><time>2026-05-04T14:02:00.407Z</time></trkpt><trkpt lat="41.04109" lon="13.9731533"><ele>2.9999999999999996</ele><time>2026-05-04T14:02:01.407Z</time></trkpt><trkpt lat="41.0410683" lon="13.9730633"><ele>3.0</ele><time>2026-05-04T14:02:02.407Z</time></trkpt><trkpt lat="41.0410483" lon="13.9729717"><ele>2.714285714285714</ele><time>2026-05-04T14:02:03.407Z</time></trkpt><trkpt lat="41.04103" lon="13.9728783"><ele>2.4285714285714284</ele><time>2026-05-04T14:02:04.406Z</time></trkpt><trkpt lat="41.0410117" lon="13.9727833"><ele>2.142857142857143</ele><time>2026-05-04T14:02:05.406Z</time></trkpt><trkpt lat="41.0409917" lon="13.9726883"><ele>1.857142857142857</ele><time>2026-05-04T14:02:06.407Z</time></trkpt><trkpt lat="41.0409733" lon="13.972595"><ele>1.5714285714285712</ele><time>2026-05-04T14:02:07.405Z</time></trkpt><trkpt lat="41.040955" lon="13.9725033"><ele>1.2857142857142856</ele><time>2026-05-04T14:02:08.407Z</time></trkpt><trkpt lat="41.0409367" lon="13.97241"><ele>1.0</ele><time>2026-05-04T14:02:09.405Z</time></trkpt><trkpt lat="41.04092" lon="13.97232"><ele>1.0</ele><time>2026-05-04T14:02:10.404Z</time></trkpt><trkpt lat="41.0409033" lon="13.9722333"><ele>0.9999999999999999</ele><time>2026-05-04T14:02:11.404Z</time></trkpt><trkpt lat="41.0408867" lon="13.9721467"><ele>1.0</ele><time>2026-05-04T14:02:12.404Z</time></trkpt><trkpt lat="41.04087" lon="13.9720533"><ele>1.0</ele><time>2026-05-04T14:02:13.406Z</time></trkpt><trkpt lat="41.0408533" lon="13.97196"><ele>0.9999999999999999</ele><time>2026-05-04T14:02:14.405Z</time></trkpt><trkpt lat="41.04084" lon="13.97187"><ele>1.0</ele><time>2026-05-04T14:02:15.407Z</time></trkpt><trkpt lat="41.0408233" lon="13.97178"><ele>1.0</ele><time>2026-05-04T14:02:16.406Z</time></trkpt><trkpt lat="41.040805" lon="13.9716933"><ele>1.1428571428571428</ele><time>2026-05-04T14:02:17.404Z</time></trkpt><trkpt lat="41.0407867" lon="13.9716083"><ele>1.2857142857142856</ele><time>2026-05-04T14:02:18.406Z</time></trkpt><trkpt lat="41.04077" lon="13.9715233"><ele>1.4285714285714284</ele><time>2026-05-04T14:02:19.406Z</time></trkpt><trkpt lat="41.04075" lon="13.9714383"><ele>1.5714285714285714</ele><time>2026-05-04T14:02:20.404Z</time></trkpt><trkpt lat="41.0407317" lon="13.9713533"><ele>1.714285714285714</ele><time>2026-05-04T14:02:21.407Z</time></trkpt><trkpt lat="41.0407117" lon="13.9712667"><ele>1.857142857142857</ele><time>2026-05-04T14:02:22.404Z</time></trkpt><trkpt lat="41.0406933" lon="13.9711833"><ele>2.0</ele><time>2026-05-04T14:02:23.405Z</time></trkpt><trkpt lat="41.0406767" lon="13.971095"><ele>2.0</ele><time>2026-05-04T14:02:24.406Z</time></trkpt><trkpt lat="41.04066" lon="13.9710083"><ele>1.9999999999999998</ele><time>2026-05-04T14:02:25.408Z</time></trkpt><trkpt lat="41.04064" lon="13.9709217"><ele>2.0</ele><time>2026-05-04T14:02:26.405Z</time></trkpt><trkpt lat="41.0406183" lon="13.9708367"><ele>2.0</ele><time>2026-05-04T14:02:27.407Z</time></trkpt><trkpt lat="41.0405983" lon="13.9707517"><ele>1.9999999999999998</ele><time>2026-05-04T14:02:28.406Z</time></trkpt><trkpt lat="41.0405767" lon="13.9706617"><ele>2.0</ele><time>2026-05-04T14:02:29.406Z</time></trkpt><trkpt lat="41.0405567" lon="13.9705717"><ele>2.0</ele><time>2026-05-04T14:02:30.408Z</time></trkpt><trkpt lat="41.0405367" lon="13.9704833"><ele>2.0</ele><time>2026-05-04T14:02:31.407Z</time></trkpt><trkpt lat="41.04052" lon="13.9703917"><ele>1.9999999999999998</ele><time>2026-05-04T14:02:32.407Z</time></trkpt><trkpt lat="41.0405017" lon="13.9703017"><ele>2.0</ele><time>2026-05-04T14:02:33.406Z</time></trkpt><trkpt lat="41.0404817" lon="13.9702067"><ele>2.0</ele><time>2026-05-04T14:02:34.407Z</time></trkpt><trkpt lat="41.040465" lon="13.970115"><ele>1.9999999999999998</ele><time>2026-05-04T14:02:35.406Z</time></trkpt><trkpt lat="41.040445" lon="13.9700217"><ele>2.0</ele><time>2026-05-04T14:02:36.403Z</time></trkpt><trkpt lat="41.0404267" lon="13.969925"><ele>2.0</ele><time>2026-05-04T14:02:37.406Z</time></trkpt><trkpt lat="41.0404067" lon="13.9698317"><ele>2.0</ele><time>2026-05-04T14:02:38.406Z</time></trkpt><trkpt lat="41.0403867" lon="13.96974"><ele>1.9999999999999998</ele><time>2026-05-04T14:02:39.406Z</time></trkpt><trkpt lat="41.0403683" lon="13.9696483"><ele>2.0</ele><time>2026-05-04T14:02:40.403Z</time></trkpt><trkpt lat="41.04035" lon="13.9695583"><ele>2.0</ele><time>2026-05-04T14:02:41.406Z</time></trkpt><trkpt lat="41.0403317" lon="13.9694667"><ele>1.9999999999999998</ele><time>2026-05-04T14:02:42.407Z</time></trkpt><trkpt lat="41.040315" lon="13.9693733"><ele>2.0</ele><time>2026-05-04T14:02:43.406Z</time></trkpt><trkpt lat="41.0403" lon="13.9692817"><ele>2.0</ele><time>2026-05-04T14:02:44.404Z</time></trkpt><trkpt lat="41.0402817" lon="13.9691917"><ele>2.0</ele><time>2026-05-04T14:02:45.404Z</time></trkpt><trkpt lat="41.0402633" lon="13.969105"><ele>1.9999999999999998</ele><time>2026-05-04T14:02:46.406Z</time></trkpt><trkpt lat="41.0402467" lon="13.969015"><ele>2.0</ele><time>2026-05-04T14:02:47.403Z</time></trkpt><trkpt lat="41.04023" lon="13.9689283"><ele>2.0</ele><time>2026-05-04T14:02:48.406Z</time></trkpt><trkpt lat="41.04021" lon="13.9688417"><ele>1.9999999999999998</ele><time>2026-05-04T14:02:49.404Z</time></trkpt><trkpt lat="41.0401917" lon="13.968755"><ele>2.0</ele><time>2026-05-04T14:02:50.406Z</time></trkpt><trkpt lat="41.0401733" lon="13.9686667"><ele>2.0</ele><time>2026-05-04T14:02:51.403Z</time></trkpt><trkpt lat="41.0401533" lon="13.9685767"><ele>2.0</ele><time>2026-05-04T14:02:52.406Z</time></trkpt><trkpt lat="41.0401367" lon="13.968485"><ele>1.9999999999999998</ele><time>2026-05-04T14:02:53.405Z</time></trkpt><trkpt lat="41.04012" lon="13.9683933"><ele>2.0</ele><time>2026-05-04T14:02:54.406Z</time></trkpt><trkpt lat="41.0401033" lon="13.968305"><ele>2.0</ele><time>2026-05-04T14:02:55.404Z</time></trkpt><trkpt lat="41.040085" lon="13.968215"><ele>1.9999999999999998</ele><time>2026-05-04T14:02:56.405Z</time></trkpt><trkpt lat="41.0400667" lon="13.968125"><ele>2.0</ele><time>2026-05-04T14:02:57.404Z</time></trkpt><trkpt lat="41.0400517" lon="13.96803"><ele>2.0</ele><time>2026-05-04T14:02:58.406Z</time></trkpt><trkpt lat="41.0400317" lon="13.9679367"><ele>1.857142857142857</ele><time>2026-05-04T14:02:59.403Z</time></trkpt><trkpt lat="41.0400167" lon="13.967845"><ele>1.714285714285714</ele><time>2026-05-04T14:03:00.406Z</time></trkpt><trkpt lat="41.0399967" lon="13.967755"><ele>1.5714285714285714</ele><time>2026-05-04T14:03:01.405Z</time></trkpt><trkpt lat="41.03998" lon="13.9676617"><ele>1.4285714285714284</ele><time>2026-05-04T14:03:02.404Z</time></trkpt><trkpt lat="41.0399633" lon="13.9675717"><ele>1.2857142857142856</ele><time>2026-05-04T14:03:03.404Z</time></trkpt><trkpt lat="41.0399467" lon="13.9674833"><ele>1.1428571428571428</ele><time>2026-05-04T14:03:04.405Z</time></trkpt><trkpt lat="41.039925" lon="13.9673967"><ele>1.0</ele><time>2026-05-04T14:03:05.405Z</time></trkpt><trkpt lat="41.0399033" lon="13.9673083"><ele>1.0</ele><time>2026-05-04T14:03:06.405Z</time></trkpt><trkpt lat="41.0398833" lon="13.96722"><ele>0.9999999999999999</ele><time>2026-05-04T14:03:07.403Z</time></trkpt><trkpt lat="41.0398667" lon="13.96713"><ele>1.0</ele><time>2026-05-04T14:03:08.406Z</time></trkpt><trkpt lat="41.03985" lon="13.96704"><ele>1.0</ele><time>2026-05-04T14:03:09.404Z</time></trkpt><trkpt lat="41.0398367" lon="13.9669467"><ele>0.9999999999999999</ele><time>2026-05-04T14:03:10.405Z</time></trkpt><trkpt lat="41.03982" lon="13.9668583"><ele>1.0</ele><time>2026-05-04T14:03:11.405Z</time></trkpt><trkpt lat="41.0398033" lon="13.9667683"><ele>1.0</ele><time>2026-05-04T14:03:12.406Z</time></trkpt><trkpt lat="41.039785" lon="13.9666767"><ele>1.0</ele><time>2026-05-04T14:03:13.406Z</time></trkpt><trkpt lat="41.0397667" lon="13.966585"><ele>0.9999999999999999</ele><time>2026-05-04T14:03:14.405Z</time></trkpt><trkpt lat="41.039745" lon="13.9664983"><ele>1.0</ele><time>2026-05-04T14:03:15.407Z</time></trkpt><trkpt lat="41.0397283" lon="13.966405"><ele>1.0</ele><time>2026-05-04T14:03:16.407Z</time></trkpt><trkpt lat="41.0397083" lon="13.966315"><ele>0.9999999999999999</ele><time>2026-05-04T14:03:17.405Z</time></trkpt><trkpt lat="41.0396883" lon="13.9662233"><ele>1.0</ele><time>2026-05-04T14:03:18.406Z</time></trkpt><trkpt lat="41.0396683" lon="13.9661333"><ele>1.0</ele><time>2026-05-04T14:03:19.406Z</time></trkpt><trkpt lat="41.03965" lon="13.9660417"><ele>1.0</ele><time>2026-05-04T14:03:20.404Z</time></trkpt><trkpt lat="41.0396333" lon="13.9659517"><ele>0.9999999999999999</ele><time>2026-05-04T14:03:21.404Z</time></trkpt><trkpt lat="41.0396183" lon="13.96586"><ele>1.0</ele><time>2026-05-04T14:03:22.406Z</time></trkpt><trkpt lat="41.0396" lon="13.9657683"><ele>1.0</ele><time>2026-05-04T14:03:23.406Z</time></trkpt><trkpt lat="41.0395833" lon="13.9656767"><ele>0.9999999999999999</ele><time>2026-05-04T14:03:24.406Z</time></trkpt><trkpt lat="41.0395617" lon="13.965585"><ele>1.0</ele><time>2026-05-04T14:03:25.406Z</time></trkpt><trkpt lat="41.0395417" lon="13.96549"><ele>1.0</ele><time>2026-05-04T14:03:26.403Z</time></trkpt><trkpt lat="41.0395233" lon="13.965395"><ele>0.8571428571428571</ele><time>2026-05-04T14:03:27.405Z</time></trkpt><trkpt lat="41.039505" lon="13.9653033"><ele>0.7142857142857142</ele><time>2026-05-04T14:03:28.405Z</time></trkpt><trkpt lat="41.039485" lon="13.96521"><ele>0.5714285714285714</ele><time>2026-05-04T14:03:29.406Z</time></trkpt><trkpt lat="41.0394667" lon="13.965115"><ele>0.42857142857142855</ele><time>2026-05-04T14:03:30.408Z</time></trkpt><trkpt lat="41.03945" lon="13.9650217"><ele>0.2857142857142857</ele><time>2026-05-04T14:03:31.407Z</time></trkpt><trkpt lat="41.03943" lon="13.96493"><ele>0.14285714285714285</ele><time>2026-05-04T14:03:32.407Z</time></trkpt><trkpt lat="41.0394117" lon="13.9648417"><ele>0.0</ele><time>2026-05-04T14:03:33.406Z</time></trkpt><trkpt lat="41.039395" lon="13.9647533"><ele>-0.14285714285714285</ele><time>2026-05-04T14:03:34.407Z</time></trkpt><trkpt lat="41.0393783" lon="13.9646667"><ele>-0.2857142857142857</ele><time>2026-05-04T14:03:35.404Z</time></trkpt><trkpt lat="41.03936" lon="13.9645767"><ele>-0.42857142857142855</ele><time>2026-05-04T14:03:36.406Z</time></trkpt><trkpt lat="41.0393433" lon="13.9644817"><ele>-0.5714285714285714</ele><time>2026-05-04T14:03:37.408Z</time></trkpt><trkpt lat="41.0393267" lon="13.96439"><ele>-0.7142857142857142</ele><time>2026-05-04T14:03:38.408Z</time></trkpt><trkpt lat="41.0393083" lon="13.964295"><ele>-0.8571428571428571</ele><time>2026-05-04T14:03:39.405Z</time></trkpt><trkpt lat="41.03929" lon="13.9642"><ele>-1.0</ele><time>2026-05-04T14:03:40.405Z</time></trkpt><trkpt lat="41.03927" lon="13.9641067"><ele>-0.7142857142857142</ele><time>2026-05-04T14:03:41.406Z</time></trkpt><trkpt lat="41.0392517" lon="13.964015"><ele>-0.4285714285714285</ele><time>2026-05-04T14:03:42.406Z</time></trkpt><trkpt lat="41.0392333" lon="13.96392"><ele>-0.14285714285714285</ele><time>2026-05-04T14:03:43.405Z</time></trkpt><trkpt lat="41.039215" lon="13.96383"><ele>0.14285714285714285</ele><time>2026-05-04T14:03:44.403Z</time></trkpt><trkpt lat="41.039195" lon="13.9637417"><ele>0.4285714285714285</ele><time>2026-05-04T14:03:45.406Z</time></trkpt><trkpt lat="41.0391767" lon="13.9636533"><ele>0.7142857142857142</ele><time>2026-05-04T14:03:46.406Z</time></trkpt><trkpt lat="41.0391617" lon="13.9635633"><ele>1.0</ele><time>2026-05-04T14:03:47.404Z</time></trkpt><trkpt lat="41.039145" lon="13.9634717"><ele>0.8571428571428571</ele><time>2026-05-04T14:03:48.405Z</time></trkpt><trkpt lat="41.0391267" lon="13.9633817"><ele>0.7142857142857142</ele><time>2026-05-04T14:03:49.405Z</time></trkpt><trkpt lat="41.0391083" lon="13.9632917"><ele>0.5714285714285714</ele><time>2026-05-04T14:03:50.406Z</time></trkpt><trkpt lat="41.03909" lon="13.9632033"><ele>0.42857142857142855</ele><time>2026-05-04T14:03:51.404Z</time></trkpt><trkpt lat="41.03907" lon="13.9631167"><ele>0.2857142857142857</ele><time>2026-05-04T14:03:52.406Z</time></trkpt><trkpt lat="41.0390517" lon="13.96303"><ele>0.14285714285714285</ele><time>2026-05-04T14:03:53.405Z</time></trkpt><trkpt lat="41.0390333" lon="13.9629433"><ele>0.0</ele><time>2026-05-04T14:03:54.406Z</time></trkpt><trkpt lat="41.0390133" lon="13.9628567"><ele>0.0</ele><time>2026-05-04T14:03:55.405Z</time></trkpt><trkpt lat="41.038995" lon="13.9627683"><ele>0.0</ele><time>2026-05-04T14:03:56.405Z</time></trkpt><trkpt lat="41.0389767" lon="13.9626767"><ele>0.0</ele><time>2026-05-04T14:03:57.404Z</time></trkpt><trkpt lat="41.03896" lon="13.9625833"><ele>0.0</ele><time>2026-05-04T14:03:58.407Z</time></trkpt><trkpt lat="41.0389433" lon="13.96249"><ele>0.0</ele><time>2026-05-04T14:03:59.407Z</time></trkpt><trkpt lat="41.0389233" lon="13.962395"><ele>0.0</ele><time>2026-05-04T14:04:00.407Z</time></trkpt><trkpt lat="41.0389033" lon="13.9623017"><ele>0.0</ele><time>2026-05-04T14:04:01.407Z</time></trkpt><trkpt lat="41.0388833" lon="13.9622117"><ele>0.0</ele><time>2026-05-04T14:04:02.407Z</time></trkpt><trkpt lat="41.0388633" lon="13.9621167"><ele>0.0</ele><time>2026-05-04T14:04:03.407Z</time></trkpt><trkpt lat="41.0388433" lon="13.9620217"><ele>0.0</ele><time>2026-05-04T14:04:04.407Z</time></trkpt><trkpt lat="41.0388267" lon="13.9619267"><ele>0.0</ele><time>2026-05-04T14:04:05.408Z</time></trkpt><trkpt lat="41.0388067" lon="13.961835"><ele>0.0</ele><time>2026-05-04T14:04:06.407Z</time></trkpt><trkpt lat="41.0387883" lon="13.961735"><ele>0.0</ele><time>2026-05-04T14:04:07.409Z</time></trkpt><trkpt lat="41.0387683" lon="13.9616367"><ele>0.0</ele><time>2026-05-04T14:04:08.407Z</time></trkpt><trkpt lat="41.03875" lon="13.9615417"><ele>0.14285714285714285</ele><time>2026-05-04T14:04:09.407Z</time></trkpt><trkpt lat="41.03873" lon="13.9614467"><ele>0.2857142857142857</ele><time>2026-05-04T14:04:10.407Z</time></trkpt><trkpt lat="41.0387117" lon="13.9613517"><ele>0.42857142857142855</ele><time>2026-05-04T14:04:11.407Z</time></trkpt><trkpt lat="41.0386917" lon="13.96126"><ele>0.5714285714285714</ele><time>2026-05-04T14:04:12.406Z</time></trkpt><trkpt lat="41.038675" lon="13.9611683"><ele>0.7142857142857142</ele><time>2026-05-04T14:04:13.406Z</time></trkpt><trkpt lat="41.0386533" lon="13.961075"><ele>0.8571428571428571</ele><time>2026-05-04T14:04:14.407Z</time></trkpt><trkpt lat="41.03863" lon="13.96098"><ele>1.0</ele><time>2026-05-04T14:04:15.407Z</time></trkpt><trkpt lat="41.0386117" lon="13.9608883"><ele>0.8333333333333333</ele><time>2026-05-04T14:04:16.407Z</time></trkpt><trkpt lat="41.0385917" lon="13.960795"><ele>0.6666666666666666</ele><time>2026-05-04T14:04:17.405Z</time></trkpt><trkpt lat="41.0385717" lon="13.9606967"><ele>0.5</ele><time>2026-05-04T14:04:18.406Z</time></trkpt><trkpt lat="41.0385533" lon="13.9605967"><ele>0.3333333333333333</ele><time>2026-05-04T14:04:19.405Z</time></trkpt><trkpt lat="41.0385333" lon="13.960495"><ele>0.16666666666666666</ele><time>2026-05-04T14:04:20.406Z</time></trkpt><trkpt lat="41.0385117" lon="13.960395"><ele>0.0</ele><time>2026-05-04T14:04:21.404Z</time></trkpt><trkpt lat="41.0384917" lon="13.96029"><ele>0.0</ele><time>2026-05-04T14:04:22.406Z</time></trkpt><trkpt lat="41.0384717" lon="13.96019"><ele>0.0</ele><time>2026-05-04T14:04:23.404Z</time></trkpt><trkpt lat="41.03845" lon="13.9600883"><ele>0.0</ele><time>2026-05-04T14:04:24.405Z</time></trkpt><trkpt lat="41.03843" lon="13.9599883"><ele>0.0</ele><time>2026-05-04T14:04:25.406Z</time></trkpt><trkpt lat="41.03841" lon="13.9598883"><ele>0.0</ele><time>2026-05-04T14:04:26.405Z</time></trkpt><trkpt lat="41.0383917" lon="13.9597917"><ele>0.0</ele><time>2026-05-04T14:04:27.404Z</time></trkpt><trkpt lat="41.03837" lon="13.959695"><ele>0.0</ele><time>2026-05-04T14:04:28.407Z</time></trkpt><trkpt lat="41.0383517" lon="13.9595983"><ele>0.0</ele><time>2026-05-04T14:04:29.407Z</time></trkpt><trkpt lat="41.0383333" lon="13.9595"><ele>0.0</ele><time>2026-05-04T14:04:30.408Z</time></trkpt><trkpt lat="41.0383133" lon="13.9594033"><ele>0.0</ele><time>2026-05-04T14:04:31.407Z</time></trkpt><trkpt lat="41.0382933" lon="13.9593083"><ele>0.0</ele><time>2026-05-04T14:04:32.408Z</time></trkpt><trkpt lat="41.0382733" lon="13.95921"><ele>0.0</ele><time>2026-05-04T14:04:33.407Z</time></trkpt><trkpt lat="41.038255" lon="13.9591133"><ele>0.14285714285714285</ele><time>2026-05-04T14:04:34.404Z</time></trkpt><trkpt lat="41.0382367" lon="13.9590167"><ele>0.2857142857142857</ele><time>2026-05-04T14:04:35.407Z</time></trkpt><trkpt lat="41.03822" lon="13.95892"><ele>0.42857142857142855</ele><time>2026-05-04T14:04:36.407Z</time></trkpt><trkpt lat="41.0382017" lon="13.9588217"><ele>0.5714285714285714</ele><time>2026-05-04T14:04:37.409Z</time></trkpt><trkpt lat="41.0381833" lon="13.9587283"><ele>0.7142857142857142</ele><time>2026-05-04T14:04:38.404Z</time></trkpt><trkpt lat="41.0381617" lon="13.9586383"><ele>0.8571428571428571</ele><time>2026-05-04T14:04:39.408Z</time></trkpt><trkpt lat="41.0381417" lon="13.9585467"><ele>1.0</ele><time>2026-05-04T14:04:40.406Z</time></trkpt><trkpt lat="41.0381217" lon="13.9584517"><ele>1.1428571428571428</ele><time>2026-05-04T14:04:41.407Z</time></trkpt><trkpt lat="41.0381067" lon="13.9583567"><ele>1.2857142857142856</ele><time>2026-05-04T14:04:42.407Z</time></trkpt><trkpt lat="41.0380883" lon="13.9582633"><ele>1.4285714285714284</ele><time>2026-05-04T14:04:43.407Z</time></trkpt><trkpt lat="41.0380717" lon="13.95817"><ele>1.5714285714285714</ele><time>2026-05-04T14:04:44.408Z</time></trkpt><trkpt lat="41.0380517" lon="13.958075"><ele>1.714285714285714</ele><time>2026-05-04T14:04:45.406Z</time></trkpt><trkpt lat="41.038035" lon="13.9579783"><ele>1.857142857142857</ele><time>2026-05-04T14:04:46.405Z</time></trkpt><trkpt lat="41.0380167" lon="13.95788"><ele>2.0</ele><time>2026-05-04T14:04:47.406Z</time></trkpt><trkpt lat="41.0379967" lon="13.9577867"><ele>2.0</ele><time>2026-05-04T14:04:48.404Z</time></trkpt><trkpt lat="41.0379767" lon="13.957695"><ele>1.9999999999999998</ele><time>2026-05-04T14:04:49.405Z</time></trkpt><trkpt lat="41.0379567" lon="13.9576067"><ele>2.0</ele><time>2026-05-04T14:04:50.406Z</time></trkpt><trkpt lat="41.0379367" lon="13.9575167"><ele>2.0</ele><time>2026-05-04T14:04:51.405Z</time></trkpt><trkpt lat="41.03792" lon="13.95743"><ele>1.9999999999999998</ele><time>2026-05-04T14:04:52.404Z</time></trkpt><trkpt lat="41.0379033" lon="13.95734"><ele>2.0</ele><time>2026-05-04T14:04:53.405Z</time></trkpt><trkpt lat="41.0378867" lon="13.95725"><ele>2.0</ele><time>2026-05-04T14:04:54.405Z</time></trkpt><trkpt lat="41.03787" lon="13.9571583"><ele>1.857142857142857</ele><time>2026-05-04T14:04:55.406Z</time></trkpt><trkpt lat="41.0378517" lon="13.9570717"><ele>1.714285714285714</ele><time>2026-05-04T14:04:56.404Z</time></trkpt><trkpt lat="41.0378333" lon="13.95698"><ele>1.5714285714285714</ele><time>2026-05-04T14:04:57.404Z</time></trkpt><trkpt lat="41.0378167" lon="13.95689"><ele>1.4285714285714284</ele><time>2026-05-04T14:04:58.406Z</time></trkpt><trkpt lat="41.0378" lon="13.9568017"><ele>1.2857142857142856</ele><time>2026-05-04T14:04:59.406Z</time></trkpt><trkpt lat="41.0377833" lon="13.9567133"><ele>1.1428571428571428</ele><time>2026-05-04T14:05:00.406Z</time></trkpt><trkpt lat="41.037765" lon="13.9566233"><ele>1.0</ele><time>2026-05-04T14:05:01.409Z</time></trkpt><trkpt lat="41.0377483" lon="13.9565333"><ele>0.8571428571428571</ele><time>2026-05-04T14:05:02.407Z</time></trkpt><trkpt lat="41.0377283" lon="13.956445"><ele>0.7142857142857142</ele><time>2026-05-04T14:05:03.406Z</time></trkpt><trkpt lat="41.0377083" lon="13.95636"><ele>0.5714285714285714</ele><time>2026-05-04T14:05:04.407Z</time></trkpt><trkpt lat="41.0376883" lon="13.9562733"><ele>0.42857142857142855</ele><time>2026-05-04T14:05:05.407Z</time></trkpt><trkpt lat="41.0376717" lon="13.956185"><ele>0.2857142857142857</ele><time>2026-05-04T14:05:06.407Z</time></trkpt><trkpt lat="41.0376533" lon="13.9560917"><ele>0.14285714285714285</ele><time>2026-05-04T14:05:07.408Z</time></trkpt><trkpt lat="41.037635" lon="13.9560033"><ele>0.0</ele><time>2026-05-04T14:05:08.407Z</time></trkpt><trkpt lat="41.0376167" lon="13.9559133"><ele>0.0</ele><time>2026-05-04T14:05:09.407Z</time></trkpt><trkpt lat="41.0375983" lon="13.95582"><ele>0.0</ele><time>2026-05-04T14:05:10.407Z</time></trkpt><trkpt lat="41.03758" lon="13.9557267"><ele>0.0</ele><time>2026-05-04T14:05:11.407Z</time></trkpt><trkpt lat="41.0375617" lon="13.9556383"><ele>0.0</ele><time>2026-05-04T14:05:12.408Z</time></trkpt><trkpt lat="41.037545" lon="13.95555"><ele>0.0</ele><time>2026-05-04T14:05:13.409Z</time></trkpt><trkpt lat="41.0375283" lon="13.9554633"><ele>0.0</ele><time>2026-05-04T14:05:14.407Z</time></trkpt><trkpt lat="41.0375117" lon="13.9553767"><ele>0.0</ele><time>2026-05-04T14:05:15.406Z</time></trkpt><trkpt lat="41.037495" lon="13.9552917"><ele>0.0</ele><time>2026-05-04T14:05:16.404Z</time></trkpt><trkpt lat="41.037475" lon="13.9552033"><ele>0.0</ele><time>2026-05-04T14:05:17.405Z</time></trkpt><trkpt lat="41.0374567" lon="13.9551133"><ele>0.0</ele><time>2026-05-04T14:05:18.406Z</time></trkpt><trkpt lat="41.0374367" lon="13.9550233"><ele>0.0</ele><time>2026-05-04T14:05:19.404Z</time></trkpt><trkpt lat="41.0374183" lon="13.9549333"><ele>0.0</ele><time>2026-05-04T14:05:20.406Z</time></trkpt><trkpt lat="41.0374" lon="13.9548433"><ele>0.0</ele><time>2026-05-04T14:05:21.404Z</time></trkpt><trkpt lat="41.0373817" lon="13.9547517"><ele>0.0</ele><time>2026-05-04T14:05:22.405Z</time></trkpt><trkpt lat="41.0373633" lon="13.9546617"><ele>0.0</ele><time>2026-05-04T14:05:23.405Z</time></trkpt><trkpt lat="41.0373433" lon="13.9545733"><ele>0.0</ele><time>2026-05-04T14:05:24.405Z</time></trkpt><trkpt lat="41.037325" lon="13.9544833"><ele>0.0</ele><time>2026-05-04T14:05:25.405Z</time></trkpt><trkpt lat="41.0373083" lon="13.954395"><ele>0.0</ele><time>2026-05-04T14:05:26.408Z</time></trkpt><trkpt lat="41.0372883" lon="13.9543033"><ele>0.0</ele><time>2026-05-04T14:05:27.406Z</time></trkpt><trkpt lat="41.0372717" lon="13.95421"><ele>0.0</ele><time>2026-05-04T14:05:28.407Z</time></trkpt><trkpt lat="41.0372567" lon="13.954115"><ele>0.0</ele><time>2026-05-04T14:05:29.405Z</time></trkpt><trkpt lat="41.0372367" lon="13.9540233"><ele>0.0</ele><time>2026-05-04T14:05:30.403Z</time></trkpt><trkpt lat="41.037215" lon="13.9539267"><ele>0.0</ele><time>2026-05-04T14:05:31.409Z</time></trkpt><trkpt lat="41.0371967" lon="13.9538317"><ele>0.0</ele><time>2026-05-04T14:05:32.407Z</time></trkpt><trkpt lat="41.0371783" lon="13.953735"><ele>0.0</ele><time>2026-05-04T14:05:33.406Z</time></trkpt><trkpt lat="41.0371617" lon="13.95364"><ele>0.0</ele><time>2026-05-04T14:05:34.406Z</time></trkpt><trkpt lat="41.03714" lon="13.9535467"><ele>0.0</ele><time>2026-05-04T14:05:35.407Z</time></trkpt><trkpt lat="41.03712" lon="13.9534517"><ele>0.0</ele><time>2026-05-04T14:05:36.404Z</time></trkpt><trkpt lat="41.0371" lon="13.9533583"><ele>0.14285714285714285</ele><time>2026-05-04T14:05:37.407Z</time></trkpt><trkpt lat="41.03708" lon="13.95326"><ele>0.2857142857142857</ele><time>2026-05-04T14:05:38.405Z</time></trkpt><trkpt lat="41.0370617" lon="13.9531633"><ele>0.42857142857142855</ele><time>2026-05-04T14:05:39.407Z</time></trkpt><trkpt lat="41.0370433" lon="13.9530667"><ele>0.5714285714285714</ele><time>2026-05-04T14:05:40.406Z</time></trkpt><trkpt lat="41.0370267" lon="13.9529733"><ele>0.7142857142857142</ele><time>2026-05-04T14:05:41.405Z</time></trkpt><trkpt lat="41.03701" lon="13.9528783"><ele>0.8571428571428571</ele><time>2026-05-04T14:05:42.404Z</time></trkpt><trkpt lat="41.0369933" lon="13.95278"><ele>1.0</ele><time>2026-05-04T14:05:43.405Z</time></trkpt><trkpt lat="41.0369767" lon="13.95268"><ele>0.9999999999999999</ele><time>2026-05-04T14:05:44.408Z</time></trkpt><trkpt lat="41.0369533" lon="13.9525833"><ele>1.0</ele><time>2026-05-04T14:05:45.408Z</time></trkpt><trkpt lat="41.0369317" lon="13.95249"><ele>1.0</ele><time>2026-05-04T14:05:46.404Z</time></trkpt><trkpt lat="41.0369117" lon="13.95239"><ele>1.0</ele><time>2026-05-04T14:05:47.406Z</time></trkpt><trkpt lat="41.0368933" lon="13.9522917"><ele>0.9999999999999999</ele><time>2026-05-04T14:05:48.404Z</time></trkpt><trkpt lat="41.0368733" lon="13.9521983"><ele>1.0</ele><time>2026-05-04T14:05:49.406Z</time></trkpt><trkpt lat="41.0368567" lon="13.9520967"><ele>1.0</ele><time>2026-05-04T14:05:50.404Z</time></trkpt><trkpt lat="41.0368367" lon="13.952"><ele>0.9999999999999999</ele><time>2026-05-04T14:05:51.406Z</time></trkpt><trkpt lat="41.0368167" lon="13.9519033"><ele>1.0</ele><time>2026-05-04T14:05:52.405Z</time></trkpt><trkpt lat="41.0367967" lon="13.9518083"><ele>1.0</ele><time>2026-05-04T14:05:53.409Z</time></trkpt><trkpt lat="41.0367733" lon="13.951715"><ele>0.9999999999999999</ele><time>2026-05-04T14:05:54.406Z</time></trkpt><trkpt lat="41.036755" lon="13.9516183"><ele>1.0</ele><time>2026-05-04T14:05:55.408Z</time></trkpt><trkpt lat="41.0367383" lon="13.9515267"><ele>1.0</ele><time>2026-05-04T14:05:56.406Z</time></trkpt><trkpt lat="41.0367167" lon="13.9514383"><ele>1.0</ele><time>2026-05-04T14:05:57.407Z</time></trkpt><trkpt lat="41.0366983" lon="13.9513517"><ele>0.9999999999999999</ele><time>2026-05-04T14:05:58.406Z</time></trkpt><trkpt lat="41.03668" lon="13.9512617"><ele>1.0</ele><time>2026-05-04T14:05:59.408Z</time></trkpt><trkpt lat="41.03666" lon="13.95117"><ele>1.0</ele><time>2026-05-04T14:06:00.407Z</time></trkpt><trkpt lat="41.03664" lon="13.9510767"><ele>0.9999999999999999</ele><time>2026-05-04T14:06:01.404Z</time></trkpt><trkpt lat="41.03662" lon="13.950985"><ele>1.0</ele><time>2026-05-04T14:06:02.406Z</time></trkpt><trkpt lat="41.0365983" lon="13.950895"><ele>1.0</ele><time>2026-05-04T14:06:03.405Z</time></trkpt><trkpt lat="41.03658" lon="13.9508067"><ele>0.8571428571428571</ele><time>2026-05-04T14:06:04.406Z</time></trkpt><trkpt lat="41.0365617" lon="13.9507183"><ele>0.7142857142857142</ele><time>2026-05-04T14:06:05.404Z</time></trkpt><trkpt lat="41.036545" lon="13.9506317"><ele>0.5714285714285714</ele><time>2026-05-04T14:06:06.407Z</time></trkpt><trkpt lat="41.0365283" lon="13.9505483"><ele>0.42857142857142855</ele><time>2026-05-04T14:06:07.407Z</time></trkpt><trkpt lat="41.0365117" lon="13.9504617"><ele>0.2857142857142857</ele><time>2026-05-04T14:06:08.408Z</time></trkpt><trkpt lat="41.036495" lon="13.9503767"><ele>0.14285714285714285</ele><time>2026-05-04T14:06:09.407Z</time></trkpt><trkpt lat="41.03648" lon="13.95029"><ele>0.0</ele><time>2026-05-04T14:06:10.407Z</time></trkpt><trkpt lat="41.03646" lon="13.9502067"><ele>0.0</ele><time>2026-05-04T14:06:11.406Z</time></trkpt><trkpt lat="41.0364433" lon="13.9501217"><ele>0.0</ele><time>2026-05-04T14:06:12.406Z</time></trkpt><trkpt lat="41.0364283" lon="13.9500317"><ele>0.0</ele><time>2026-05-04T14:06:13.406Z</time></trkpt><trkpt lat="41.0364117" lon="13.9499433"><ele>0.0</ele><time>2026-05-04T14:06:14.408Z</time></trkpt><trkpt lat="41.0363967" lon="13.9498567"><ele>0.0</ele><time>2026-05-04T14:06:15.406Z</time></trkpt><trkpt lat="41.0363817" lon="13.9497733"><ele>0.0</ele><time>2026-05-04T14:06:16.407Z</time></trkpt><trkpt lat="41.0363633" lon="13.9496917"><ele>0.0</ele><time>2026-05-04T14:06:17.408Z</time></trkpt><trkpt lat="41.0363433" lon="13.9496067"><ele>0.0</ele><time>2026-05-04T14:06:18.407Z</time></trkpt><trkpt lat="41.036325" lon="13.9495267"><ele>0.0</ele><time>2026-05-04T14:06:19.407Z</time></trkpt><trkpt lat="41.03631" lon="13.9494417"><ele>0.0</ele><time>2026-05-04T14:06:20.406Z</time></trkpt><trkpt lat="41.0362967" lon="13.949355"><ele>0.0</ele><time>2026-05-04T14:06:21.407Z</time></trkpt><trkpt lat="41.0362783" lon="13.9492733"><ele>0.0</ele><time>2026-05-04T14:06:22.408Z</time></trkpt><trkpt lat="41.036265" lon="13.94919"><ele>0.0</ele><time>2026-05-04T14:06:23.408Z</time></trkpt><trkpt lat="41.0362517" lon="13.9491033"><ele>0.0</ele><time>2026-05-04T14:06:24.406Z</time></trkpt><trkpt lat="41.0362333" lon="13.9490167"><ele>0.0</ele><time>2026-05-04T14:06:25.408Z</time></trkpt><trkpt lat="41.0362183" lon="13.9489317"><ele>0.0</ele><time>2026-05-04T14:06:26.407Z</time></trkpt><trkpt lat="41.0362" lon="13.948845"><ele>0.0</ele><time>2026-05-04T14:06:27.406Z</time></trkpt><trkpt lat="41.03618" lon="13.9487567"><ele>0.0</ele><time>2026-05-04T14:06:28.408Z</time></trkpt><trkpt lat="41.0361617" lon="13.9486683"><ele>0.0</ele><time>2026-05-04T14:06:29.407Z</time></trkpt><trkpt lat="41.0361417" lon="13.9485783"><ele>0.0</ele><time>2026-05-04T14:06:30.408Z</time></trkpt><trkpt lat="41.0361233" lon="13.9484867"><ele>0.0</ele><time>2026-05-04T14:06:31.406Z</time></trkpt><trkpt lat="41.036105" lon="13.9484"><ele>-0.14285714285714285</ele><time>2026-05-04T14:06:32.408Z</time></trkpt><trkpt lat="41.0360833" lon="13.9483117"><ele>-0.2857142857142857</ele><time>2026-05-04T14:06:33.407Z</time></trkpt><trkpt lat="41.0360633" lon="13.9482233"><ele>-0.42857142857142855</ele><time>2026-05-04T14:06:34.407Z</time></trkpt><trkpt lat="41.0360433" lon="13.9481333"><ele>-0.5714285714285714</ele><time>2026-05-04T14:06:35.406Z</time></trkpt><trkpt lat="41.0360267" lon="13.9480467"><ele>-0.7142857142857142</ele><time>2026-05-04T14:06:36.407Z</time></trkpt><trkpt lat="41.0360117" lon="13.94796"><ele>-0.8571428571428571</ele><time>2026-05-04T14:06:37.405Z</time></trkpt><trkpt lat="41.035995" lon="13.9478767"><ele>-1.0</ele><time>2026-05-04T14:06:38.404Z</time></trkpt><trkpt lat="41.0359783" lon="13.94779"><ele>-1.0</ele><time>2026-05-04T14:06:39.406Z</time></trkpt><trkpt lat="41.0359633" lon="13.9477033"><ele>-0.9999999999999999</ele><time>2026-05-04T14:06:40.408Z</time></trkpt><trkpt lat="41.0359433" lon="13.9476183"><ele>-1.0</ele><time>2026-05-04T14:06:41.407Z</time></trkpt><trkpt lat="41.0359283" lon="13.9475333"><ele>-1.0</ele><time>2026-05-04T14:06:42.406Z</time></trkpt><trkpt lat="41.0359117" lon="13.9474483"><ele>-0.9999999999999999</ele><time>2026-05-04T14:06:43.408Z</time></trkpt><trkpt lat="41.035895" lon="13.9473617"><ele>-1.0</ele><time>2026-05-04T14:06:44.406Z</time></trkpt><trkpt lat="41.0358767" lon="13.9472767"><ele>-1.0</ele><time>2026-05-04T14:06:45.407Z</time></trkpt><trkpt lat="41.03586" lon="13.9471917"><ele>-1.0</ele><time>2026-05-04T14:06:46.407Z</time></trkpt><trkpt lat="41.03584" lon="13.947105"><ele>-0.9999999999999999</ele><time>2026-05-04T14:06:47.407Z</time></trkpt><trkpt lat="41.0358217" lon="13.9470217"><ele>-1.0</ele><time>2026-05-04T14:06:48.407Z</time></trkpt><trkpt lat="41.0358067" lon="13.9469333"><ele>-1.0</ele><time>2026-05-04T14:06:49.408Z</time></trkpt><trkpt lat="41.03579" lon="13.946845"><ele>-0.9999999999999999</ele><time>2026-05-04T14:06:50.404Z</time></trkpt><trkpt lat="41.0357717" lon="13.9467617"><ele>-1.0</ele><time>2026-05-04T14:06:51.406Z</time></trkpt><trkpt lat="41.0357533" lon="13.9466767"><ele>-1.0</ele><time>2026-05-04T14:06:52.408Z</time></trkpt><trkpt lat="41.035735" lon="13.94659"><ele>-0.8571428571428571</ele><time>2026-05-04T14:06:53.406Z</time></trkpt><trkpt lat="41.03572" lon="13.946505"><ele>-0.7142857142857142</ele><time>2026-05-04T14:06:54.407Z</time></trkpt><trkpt lat="41.035705" lon="13.94642"><ele>-0.5714285714285714</ele><time>2026-05-04T14:06:55.409Z</time></trkpt><trkpt lat="41.0356883" lon="13.9463383"><ele>-0.42857142857142855</ele><time>2026-05-04T14:06:56.408Z</time></trkpt><trkpt lat="41.03567" lon="13.946255"><ele>-0.2857142857142857</ele><time>2026-05-04T14:06:57.405Z</time></trkpt><trkpt lat="41.0356517" lon="13.94617"><ele>-0.14285714285714285</ele><time>2026-05-04T14:06:58.406Z</time></trkpt><trkpt lat="41.0356333" lon="13.9460833"><ele>0.0</ele><time>2026-05-04T14:06:59.406Z</time></trkpt><trkpt lat="41.035615" lon="13.946"><ele>0.0</ele><time>2026-05-04T14:07:00.405Z</time></trkpt><trkpt lat="41.035595" lon="13.9459167"><ele>0.0</ele><time>2026-05-04T14:07:01.404Z</time></trkpt><trkpt lat="41.0355717" lon="13.9458367"><ele>0.0</ele><time>2026-05-04T14:07:02.403Z</time></trkpt><trkpt lat="41.0355533" lon="13.945755"><ele>0.0</ele><time>2026-05-04T14:07:03.403Z</time></trkpt><trkpt lat="41.0355383" lon="13.9456717"><ele>0.0</ele><time>2026-05-04T14:07:04.404Z</time></trkpt><trkpt lat="41.03552" lon="13.9455867"><ele>0.0</ele><time>2026-05-04T14:07:05.406Z</time></trkpt><trkpt lat="41.0355017" lon="13.945505"><ele>0.0</ele><time>2026-05-04T14:07:06.405Z</time></trkpt><trkpt lat="41.0354817" lon="13.9454233"><ele>-0.14285714285714285</ele><time>2026-05-04T14:07:07.407Z</time></trkpt><trkpt lat="41.035465" lon="13.9453367"><ele>-0.2857142857142857</ele><time>2026-05-04T14:07:08.406Z</time></trkpt><trkpt lat="41.0354467" lon="13.9452517"><ele>-0.42857142857142855</ele><time>2026-05-04T14:07:09.403Z</time></trkpt><trkpt lat="41.03543" lon="13.9451667"><ele>-0.5714285714285714</ele><time>2026-05-04T14:07:10.405Z</time></trkpt><trkpt lat="41.0354117" lon="13.9450817"><ele>-0.7142857142857142</ele><time>2026-05-04T14:07:11.405Z</time></trkpt><trkpt lat="41.0353933" lon="13.9449983"><ele>-0.8571428571428571</ele><time>2026-05-04T14:07:12.405Z</time></trkpt><trkpt lat="41.0353783" lon="13.9449133"><ele>-1.0</ele><time>2026-05-04T14:07:13.406Z</time></trkpt><trkpt lat="41.03536" lon="13.9448333"><ele>-0.6000000000000001</ele><time>2026-05-04T14:07:14.408Z</time></trkpt><trkpt lat="41.0353267" lon="13.9446833"><ele>-0.20000000000000007</ele><time>2026-05-04T14:07:16.405Z</time></trkpt><trkpt lat="41.0352933" lon="13.944545"><ele>0.20000000000000007</ele><time>2026-05-04T14:07:18.406Z</time></trkpt><trkpt lat="41.0352683" lon="13.9444183"><ele>0.6000000000000001</ele><time>2026-05-04T14:07:20.406Z</time></trkpt><trkpt lat="41.0352517" lon="13.9443033"><ele>1.0</ele><time>2026-05-04T14:07:22.407Z</time></trkpt><trkpt lat="41.0352267" lon="13.944185"><ele>1.6</ele><time>2026-05-04T14:07:24.407Z</time></trkpt><trkpt lat="41.0352017" lon="13.94406"><ele>2.2</ele><time>2026-05-04T14:07:26.407Z</time></trkpt><trkpt lat="41.03517" lon="13.9439317"><ele>2.8000000000000003</ele><time>2026-05-04T14:07:28.406Z</time></trkpt><trkpt lat="41.0351467" lon="13.943795"><ele>3.4000000000000004</ele><time>2026-05-04T14:07:30.407Z</time></trkpt><trkpt lat="41.0351283" lon="13.94366"><ele>4.0</ele><time>2026-05-04T14:07:32.405Z</time></trkpt><trkpt lat="41.03511" lon="13.94353"><ele>4.0</ele><time>2026-05-04T14:07:34.407Z</time></trkpt><trkpt lat="41.0350833" lon="13.9434117"><ele>4.0</ele><time>2026-05-04T14:07:36.407Z</time></trkpt><trkpt lat="41.0350533" lon="13.9432967"><ele>4.0</ele><time>2026-05-04T14:07:38.407Z</time></trkpt><trkpt lat="41.03503" lon="13.94318"><ele>4.0</ele><time>2026-05-04T14:07:40.403Z</time></trkpt><trkpt lat="41.0350167" lon="13.943055"><ele>4.0</ele><time>2026-05-04T14:07:42.404Z</time></trkpt><trkpt lat="41.0349917" lon="13.9429333"><ele>3.833333333333333</ele><time>2026-05-04T14:07:44.408Z</time></trkpt><trkpt lat="41.0349733" lon="13.9428233"><ele>3.6666666666666665</ele><time>2026-05-04T14:07:46.407Z</time></trkpt><trkpt lat="41.03496" lon="13.94272"><ele>3.5</ele><time>2026-05-04T14:07:48.407Z</time></trkpt><trkpt lat="41.0349467" lon="13.9426183"><ele>3.333333333333333</ele><time>2026-05-04T14:07:50.407Z</time></trkpt><trkpt lat="41.03492" lon="13.9425033"><ele>3.1666666666666665</ele><time>2026-05-04T14:07:52.404Z</time></trkpt><trkpt lat="41.03489" lon="13.9423883"><ele>3.0</ele><time>2026-05-04T14:07:54.406Z</time></trkpt><trkpt lat="41.0348517" lon="13.9422817"><ele>2.8</ele><time>2026-05-04T14:07:56.405Z</time></trkpt><trkpt lat="41.0348217" lon="13.9421817"><ele>2.5999999999999996</ele><time>2026-05-04T14:07:58.406Z</time></trkpt><trkpt lat="41.0348117" lon="13.9420733"><ele>2.4000000000000004</ele><time>2026-05-04T14:08:00.405Z</time></trkpt><trkpt lat="41.03481" lon="13.94195"><ele>2.2</ele><time>2026-05-04T14:08:02.404Z</time></trkpt><trkpt lat="41.034795" lon="13.941815"><ele>2.0</ele><time>2026-05-04T14:08:04.406Z</time></trkpt><trkpt lat="41.0347533" lon="13.9416967"><ele>2.4000000000000004</ele><time>2026-05-04T14:08:06.405Z</time></trkpt><trkpt lat="41.0347133" lon="13.9415783"><ele>2.8000000000000003</ele><time>2026-05-04T14:08:08.406Z</time></trkpt><trkpt lat="41.0346783" lon="13.9414717"><ele>3.2</ele><time>2026-05-04T14:08:10.406Z</time></trkpt><trkpt lat="41.03464" lon="13.9413717"><ele>3.6</ele><time>2026-05-04T14:08:12.405Z</time></trkpt><trkpt lat="41.0345983" lon="13.9412767"><ele>4.0</ele><time>2026-05-04T14:08:14.404Z</time></trkpt><trkpt lat="41.0345567" lon="13.9411583"><ele>3.9999999999999996</ele><time>2026-05-04T14:08:16.406Z</time></trkpt><trkpt lat="41.0345083" lon="13.9410533"><ele>4.0</ele><time>2026-05-04T14:08:18.403Z</time></trkpt><trkpt lat="41.034455" lon="13.9409583"><ele>4.0</ele><time>2026-05-04T14:08:20.405Z</time></trkpt><trkpt lat="41.0344033" lon="13.9408633"><ele>4.0</ele><time>2026-05-04T14:08:22.404Z</time></trkpt><trkpt lat="41.034345" lon="13.9407717"><ele>3.9999999999999996</ele><time>2026-05-04T14:08:24.404Z</time></trkpt><trkpt lat="41.034285" lon="13.9407033"><ele>4.0</ele><time>2026-05-04T14:08:26.404Z</time></trkpt><trkpt lat="41.0342267" lon="13.9406433"><ele>4.2</ele><time>2026-05-04T14:08:28.402Z</time></trkpt><trkpt lat="41.03417" lon="13.9405817"><ele>4.4</ele><time>2026-05-04T14:08:31.406Z</time></trkpt><trkpt lat="41.03424" lon="13.9406167"><ele>4.6</ele><time>2026-05-04T14:08:40.407Z</time></trkpt><trkpt lat="41.034315" lon="13.9406183"><ele>4.8</ele><time>2026-05-04T14:08:43.407Z</time></trkpt><trkpt lat="41.0343283" lon="13.9405283"><ele>5.0</ele><time>2026-05-04T14:08:46.405Z</time></trkpt><trkpt lat="41.0342" lon="13.94069"><ele>5.0</ele><time>2026-05-04T14:09:42.404Z</time></trkpt><trkpt lat="41.0340683" lon="13.9407783"><ele>5.0</ele><time>2026-05-04T14:09:49.404Z</time></trkpt><trkpt lat="41.0341467" lon="13.9407917"><ele>5.0</ele><time>2026-05-04T14:10:05.406Z</time></trkpt><trkpt lat="41.0342283" lon="13.94069"><ele>5.0</ele><time>2026-05-04T14:10:43.404Z</time></trkpt><trkpt lat="41.0341933" lon="13.940575"><ele>5.0</ele><time>2026-05-04T14:11:19.403Z</time></trkpt><trkpt lat="41.0341202" lon="13.9405694"><ele>4.8</ele><time>2026-05-04T14:12:05.489Z</time></trkpt><trkpt lat="41.034053" lon="13.9405762"><ele>4.6</ele><time>2026-05-04T14:12:07.506Z</time></trkpt><trkpt lat="41.0339767" lon="13.94037"><ele>4.4</ele><time>2026-05-04T14:12:09.402Z</time></trkpt><trkpt lat="41.0339133" lon="13.9402917"><ele>4.2</ele><time>2026-05-04T14:12:11.401Z</time></trkpt><trkpt lat="41.03384" lon="13.9402217"><ele>4.0</ele><time>2026-05-04T14:12:13.403Z</time></trkpt><trkpt lat="41.0337733" lon="13.9401683"><ele>3.9999999999999996</ele><time>2026-05-04T14:12:15.401Z</time></trkpt><trkpt lat="41.0336883" lon="13.9401383"><ele>4.0</ele><time>2026-05-04T14:12:17.401Z</time></trkpt><trkpt lat="41.0336117" lon="13.9401217"><ele>4.0</ele><time>2026-05-04T14:12:19.401Z</time></trkpt><trkpt lat="41.0335417" lon="13.9401717"><ele>4.0</ele><time>2026-05-04T14:12:21.402Z</time></trkpt><trkpt lat="41.033495" lon="13.9402783"><ele>3.9999999999999996</ele><time>2026-05-04T14:12:23.401Z</time></trkpt><trkpt lat="41.0334617" lon="13.9404033"><ele>4.0</ele><time>2026-05-04T14:12:25.403Z</time></trkpt><trkpt lat="41.0334" lon="13.9405267"><ele>4.0</ele><time>2026-05-04T14:12:27.402Z</time></trkpt><trkpt lat="41.03333" lon="13.9406433"><ele>4.0</ele><time>2026-05-04T14:12:29.403Z</time></trkpt><trkpt lat="41.03325" lon="13.940735"><ele>4.0</ele><time>2026-05-04T14:12:31.401Z</time></trkpt><trkpt lat="41.033185" lon="13.9408217"><ele>4.0</ele><time>2026-05-04T14:12:33.402Z</time></trkpt><trkpt lat="41.0331017" lon="13.9409083"><ele>4.0</ele><time>2026-05-04T14:12:35.402Z</time></trkpt><trkpt lat="41.0330217" lon="13.94099"><ele>3.6</ele><time>2026-05-04T14:12:37.403Z</time></trkpt><trkpt lat="41.0329417" lon="13.9410767"><ele>3.2</ele><time>2026-05-04T14:12:39.401Z</time></trkpt><trkpt lat="41.0328433" lon="13.9411533"><ele>2.8000000000000003</ele><time>2026-05-04T14:12:41.402Z</time></trkpt><trkpt lat="41.0327567" lon="13.9412217"><ele>2.4000000000000004</ele><time>2026-05-04T14:12:43.401Z</time></trkpt><trkpt lat="41.032665" lon="13.9412967"><ele>2.0</ele><time>2026-05-04T14:12:45.403Z</time></trkpt><trkpt lat="41.0325683" lon="13.9413733"><ele>2.0</ele><time>2026-05-04T14:12:47.403Z</time></trkpt><trkpt lat="41.0324667" lon="13.9414567"><ele>2.0</ele><time>2026-05-04T14:12:49.403Z</time></trkpt><trkpt lat="41.032365" lon="13.9415483"><ele>2.0</ele><time>2026-05-04T14:12:51.402Z</time></trkpt><trkpt lat="41.03226" lon="13.9416383"><ele>2.0</ele><time>2026-05-04T14:12:53.403Z</time></trkpt><trkpt lat="41.03215" lon="13.9417233"><ele>2.0</ele><time>2026-05-04T14:12:55.402Z</time></trkpt><trkpt lat="41.0320483" lon="13.9418183"><ele>2.0</ele><time>2026-05-04T14:12:57.402Z</time></trkpt><trkpt lat="41.03195" lon="13.9419233"><ele>2.0</ele><time>2026-05-04T14:12:59.401Z</time></trkpt><trkpt lat="41.0318467" lon="13.9420083"><ele>2.0</ele><time>2026-05-04T14:13:01.402Z</time></trkpt><trkpt lat="41.0317483" lon="13.9421"><ele>2.0</ele><time>2026-05-04T14:13:03.402Z</time></trkpt><trkpt lat="41.031655" lon="13.9421983"><ele>2.0</ele><time>2026-05-04T14:13:05.401Z</time></trkpt><trkpt lat="41.0315533" lon="13.9422967"><ele>2.0</ele><time>2026-05-04T14:13:07.402Z</time></trkpt><trkpt lat="41.0314467" lon="13.9423717"><ele>2.0</ele><time>2026-05-04T14:13:09.402Z</time></trkpt><trkpt lat="41.0313467" lon="13.9424483"><ele>1.75</ele><time>2026-05-04T14:13:11.402Z</time></trkpt><trkpt lat="41.03125" lon="13.9425317"><ele>1.5</ele><time>2026-05-04T14:13:13.401Z</time></trkpt><trkpt lat="41.0311567" lon="13.942615"><ele>1.25</ele><time>2026-05-04T14:13:15.401Z</time></trkpt><trkpt lat="41.031065" lon="13.9427"><ele>1.0</ele><time>2026-05-04T14:13:17.402Z</time></trkpt><trkpt lat="41.0309783" lon="13.9427983"><ele>1.0</ele><time>2026-05-04T14:13:19.401Z</time></trkpt><trkpt lat="41.0308967" lon="13.942905"><ele>1.0</ele><time>2026-05-04T14:13:21.403Z</time></trkpt><trkpt lat="41.0308133" lon="13.94301"><ele>1.0</ele><time>2026-05-04T14:13:23.402Z</time></trkpt><trkpt lat="41.03072" lon="13.9431033"><ele>1.0</ele><time>2026-05-04T14:13:25.402Z</time></trkpt><trkpt lat="41.0306167" lon="13.943185"><ele>1.2000000000000002</ele><time>2026-05-04T14:13:27.402Z</time></trkpt><trkpt lat="41.030515" lon="13.943255"><ele>1.4000000000000001</ele><time>2026-05-04T14:13:29.402Z</time></trkpt><trkpt lat="41.030415" lon="13.9433233"><ele>1.6</ele><time>2026-05-04T14:13:31.402Z</time></trkpt><trkpt lat="41.0303117" lon="13.9433717"><ele>1.8</ele><time>2026-05-04T14:13:33.401Z</time></trkpt><trkpt lat="41.0302217" lon="13.943425"><ele>2.0</ele><time>2026-05-04T14:13:35.402Z</time></trkpt><trkpt lat="41.0301383" lon="13.943475"><ele>2.25</ele><time>2026-05-04T14:13:37.402Z</time></trkpt><trkpt lat="41.0300417" lon="13.9435367"><ele>2.5</ele><time>2026-05-04T14:13:39.402Z</time></trkpt><trkpt lat="41.0299417" lon="13.943605"><ele>2.75</ele><time>2026-05-04T14:13:41.402Z</time></trkpt><trkpt lat="41.02983" lon="13.94367"><ele>3.0</ele><time>2026-05-04T14:13:43.402Z</time></trkpt><trkpt lat="41.0297283" lon="13.9437433"><ele>2.6666666666666665</ele><time>2026-05-04T14:13:45.401Z</time></trkpt><trkpt lat="41.029635" lon="13.94383"><ele>2.3333333333333335</ele><time>2026-05-04T14:13:47.402Z</time></trkpt><trkpt lat="41.0295483" lon="13.943935"><ele>2.0</ele><time>2026-05-04T14:13:49.402Z</time></trkpt><trkpt lat="41.0294933" lon="13.943985"><ele>1.6666666666666665</ele><time>2026-05-04T14:13:50.402Z</time></trkpt><trkpt lat="41.0294417" lon="13.944035"><ele>1.3333333333333333</ele><time>2026-05-04T14:13:51.401Z</time></trkpt><trkpt lat="41.0293883" lon="13.944085"><ele>1.0</ele><time>2026-05-04T14:13:52.403Z</time></trkpt><trkpt lat="41.0293383" lon="13.9441383"><ele>0.9999999999999999</ele><time>2026-05-04T14:13:53.404Z</time></trkpt><trkpt lat="41.0292867" lon="13.9441917"><ele>1.0</ele><time>2026-05-04T14:13:54.402Z</time></trkpt><trkpt lat="41.0291967" lon="13.944305"><ele>1.0</ele><time>2026-05-04T14:13:56.402Z</time></trkpt><trkpt lat="41.029145" lon="13.9443633"><ele>1.0</ele><time>2026-05-04T14:13:57.402Z</time></trkpt><trkpt lat="41.029095" lon="13.94442"><ele>0.9999999999999999</ele><time>2026-05-04T14:13:58.403Z</time></trkpt><trkpt lat="41.029045" lon="13.9444767"><ele>1.0</ele><time>2026-05-04T14:13:59.402Z</time></trkpt><trkpt lat="41.0289967" lon="13.9445317"><ele>1.1428571428571428</ele><time>2026-05-04T14:14:00.401Z</time></trkpt><trkpt lat="41.0289433" lon="13.94459"><ele>1.2857142857142856</ele><time>2026-05-04T14:14:01.403Z</time></trkpt><trkpt lat="41.0288917" lon="13.94465"><ele>1.4285714285714284</ele><time>2026-05-04T14:14:02.402Z</time></trkpt><trkpt lat="41.028845" lon="13.9447117"><ele>1.5714285714285714</ele><time>2026-05-04T14:14:03.404Z</time></trkpt><trkpt lat="41.0288" lon="13.944775"><ele>1.714285714285714</ele><time>2026-05-04T14:14:04.402Z</time></trkpt><trkpt lat="41.0287517" lon="13.9448317"><ele>1.857142857142857</ele><time>2026-05-04T14:14:05.402Z</time></trkpt><trkpt lat="41.0287033" lon="13.9448883"><ele>2.0</ele><time>2026-05-04T14:14:06.402Z</time></trkpt><trkpt lat="41.028655" lon="13.944945"><ele>1.9999999999999998</ele><time>2026-05-04T14:14:07.403Z</time></trkpt><trkpt lat="41.0286067" lon="13.945"><ele>2.0</ele><time>2026-05-04T14:14:08.402Z</time></trkpt><trkpt lat="41.0285083" lon="13.9451083"><ele>2.0</ele><time>2026-05-04T14:14:10.402Z</time></trkpt><trkpt lat="41.02846" lon="13.9451633"><ele>2.0</ele><time>2026-05-04T14:14:11.401Z</time></trkpt><trkpt lat="41.0284117" lon="13.94522"><ele>1.9999999999999998</ele><time>2026-05-04T14:14:12.401Z</time></trkpt><trkpt lat="41.0283617" lon="13.9452783"><ele>2.0</ele><time>2026-05-04T14:14:13.402Z</time></trkpt><trkpt lat="41.0283083" lon="13.9453317"><ele>2.0</ele><time>2026-05-04T14:14:14.402Z</time></trkpt><trkpt lat="41.0282517" lon="13.9453833"><ele>1.9999999999999998</ele><time>2026-05-04T14:14:15.403Z</time></trkpt><trkpt lat="41.0281983" lon="13.9454383"><ele>2.0</ele><time>2026-05-04T14:14:16.401Z</time></trkpt><trkpt lat="41.0281417" lon="13.9454867"><ele>2.0</ele><time>2026-05-04T14:14:17.402Z</time></trkpt><trkpt lat="41.0280883" lon="13.9455333"><ele>1.9999999999999998</ele><time>2026-05-04T14:14:18.401Z</time></trkpt><trkpt lat="41.0280367" lon="13.9455817"><ele>2.0</ele><time>2026-05-04T14:14:19.402Z</time></trkpt><trkpt lat="41.0279833" lon="13.94563"><ele>2.0</ele><time>2026-05-04T14:14:20.401Z</time></trkpt><trkpt lat="41.02793" lon="13.9456783"><ele>2.0</ele><time>2026-05-04T14:14:21.402Z</time></trkpt><trkpt lat="41.0278233" lon="13.9457617"><ele>2.0</ele><time>2026-05-04T14:14:23.402Z</time></trkpt><trkpt lat="41.0277317" lon="13.9458583"><ele>2.0</ele><time>2026-05-04T14:14:25.402Z</time></trkpt><trkpt lat="41.0276733" lon="13.9459633"><ele>2.0</ele><time>2026-05-04T14:14:27.404Z</time></trkpt><trkpt lat="41.027635" lon="13.9460567"><ele>2.0</ele><time>2026-05-04T14:14:29.402Z</time></trkpt><trkpt lat="41.02759" lon="13.9461283"><ele>2.4000000000000004</ele><time>2026-05-04T14:14:31.401Z</time></trkpt><trkpt lat="41.0275233" lon="13.946195"><ele>2.8000000000000003</ele><time>2026-05-04T14:14:33.403Z</time></trkpt><trkpt lat="41.027445" lon="13.94627"><ele>3.2</ele><time>2026-05-04T14:14:35.402Z</time></trkpt><trkpt lat="41.0273567" lon="13.9463533"><ele>3.6</ele><time>2026-05-04T14:14:37.402Z</time></trkpt><trkpt lat="41.0272633" lon="13.9464417"><ele>4.0</ele><time>2026-05-04T14:14:39.402Z</time></trkpt><trkpt lat="41.027165" lon="13.94653"><ele>4.0</ele><time>2026-05-04T14:14:41.401Z</time></trkpt><trkpt lat="41.0270633" lon="13.9466217"><ele>4.0</ele><time>2026-05-04T14:14:43.402Z</time></trkpt><trkpt lat="41.0269633" lon="13.9467167"><ele>4.0</ele><time>2026-05-04T14:14:45.402Z</time></trkpt><trkpt lat="41.0269067" lon="13.9467683"><ele>4.0</ele><time>2026-05-04T14:14:46.402Z</time></trkpt><trkpt lat="41.0268483" lon="13.946815"><ele>4.0</ele><time>2026-05-04T14:14:47.402Z</time></trkpt><trkpt lat="41.02679" lon="13.94686"><ele>4.0</ele><time>2026-05-04T14:14:48.402Z</time></trkpt><trkpt lat="41.0267367" lon="13.94691"><ele>3.9999999999999996</ele><time>2026-05-04T14:14:49.402Z</time></trkpt><trkpt lat="41.026685" lon="13.94696"><ele>4.0</ele><time>2026-05-04T14:14:50.402Z</time></trkpt><trkpt lat="41.0266283" lon="13.9470117"><ele>4.0</ele><time>2026-05-04T14:14:51.402Z</time></trkpt><trkpt lat="41.0265767" lon="13.9470633"><ele>3.9999999999999996</ele><time>2026-05-04T14:14:52.401Z</time></trkpt><trkpt lat="41.02652" lon="13.94711"><ele>4.0</ele><time>2026-05-04T14:14:53.402Z</time></trkpt><trkpt lat="41.02647" lon="13.9471617"><ele>4.0</ele><time>2026-05-04T14:14:54.402Z</time></trkpt><trkpt lat="41.0264167" lon="13.94721"><ele>3.714285714285714</ele><time>2026-05-04T14:14:55.401Z</time></trkpt><trkpt lat="41.02636" lon="13.9472583"><ele>3.428571428571428</ele><time>2026-05-04T14:14:56.403Z</time></trkpt><trkpt lat="41.0263067" lon="13.9473033"><ele>3.142857142857143</ele><time>2026-05-04T14:14:57.402Z</time></trkpt><trkpt lat="41.02625" lon="13.94735"><ele>2.8571428571428568</ele><time>2026-05-04T14:14:58.402Z</time></trkpt><trkpt lat="41.0261917" lon="13.947395"><ele>2.571428571428571</ele><time>2026-05-04T14:14:59.402Z</time></trkpt><trkpt lat="41.0261317" lon="13.9474383"><ele>2.2857142857142856</ele><time>2026-05-04T14:15:00.401Z</time></trkpt><trkpt lat="41.0260733" lon="13.9474817"><ele>2.0</ele><time>2026-05-04T14:15:01.402Z</time></trkpt><trkpt lat="41.026015" lon="13.9475283"><ele>2.142857142857143</ele><time>2026-05-04T14:15:02.402Z</time></trkpt><trkpt lat="41.025955" lon="13.94758"><ele>2.2857142857142856</ele><time>2026-05-04T14:15:03.402Z</time></trkpt><trkpt lat="41.0258983" lon="13.94763"><ele>2.4285714285714284</ele><time>2026-05-04T14:15:04.402Z</time></trkpt><trkpt lat="41.02584" lon="13.9476817"><ele>2.571428571428571</ele><time>2026-05-04T14:15:05.403Z</time></trkpt><trkpt lat="41.0257867" lon="13.9477283"><ele>2.7142857142857144</ele><time>2026-05-04T14:15:06.402Z</time></trkpt><trkpt lat="41.0257283" lon="13.9477733"><ele>2.8571428571428568</ele><time>2026-05-04T14:15:07.402Z</time></trkpt><trkpt lat="41.0256717" lon="13.9478183"><ele>3.0</ele><time>2026-05-04T14:15:08.403Z</time></trkpt><trkpt lat="41.025615" lon="13.947865"><ele>3.1428571428571423</ele><time>2026-05-04T14:15:09.402Z</time></trkpt><trkpt lat="41.025555" lon="13.9479117"><ele>3.2857142857142856</ele><time>2026-05-04T14:15:10.402Z</time></trkpt><trkpt lat="41.025495" lon="13.947955"><ele>3.4285714285714284</ele><time>2026-05-04T14:15:11.403Z</time></trkpt><trkpt lat="41.0254333" lon="13.947995"><ele>3.571428571428571</ele><time>2026-05-04T14:15:12.401Z</time></trkpt><trkpt lat="41.0253683" lon="13.94804"><ele>3.714285714285714</ele><time>2026-05-04T14:15:13.402Z</time></trkpt><trkpt lat="41.0253033" lon="13.9480883"><ele>3.8571428571428568</ele><time>2026-05-04T14:15:14.402Z</time></trkpt><trkpt lat="41.02524" lon="13.9481383"><ele>4.0</ele><time>2026-05-04T14:15:15.402Z</time></trkpt><trkpt lat="41.0251783" lon="13.94819"><ele>4.0</ele><time>2026-05-04T14:15:16.402Z</time></trkpt><trkpt lat="41.0251217" lon="13.94824"><ele>3.9999999999999996</ele><time>2026-05-04T14:15:17.403Z</time></trkpt><trkpt lat="41.0250633" lon="13.9482967"><ele>4.0</ele><time>2026-05-04T14:15:18.401Z</time></trkpt><trkpt lat="41.025005" lon="13.9483467"><ele>4.0</ele><time>2026-05-04T14:15:19.403Z</time></trkpt><trkpt lat="41.0249417" lon="13.9483967"><ele>3.9999999999999996</ele><time>2026-05-04T14:15:20.402Z</time></trkpt><trkpt lat="41.02488" lon="13.9484433"><ele>4.0</ele><time>2026-05-04T14:15:21.404Z</time></trkpt><trkpt lat="41.02482" lon="13.948495"><ele>4.0</ele><time>2026-05-04T14:15:22.402Z</time></trkpt><trkpt lat="41.0247617" lon="13.9485417"><ele>4.142857142857142</ele><time>2026-05-04T14:15:23.403Z</time></trkpt><trkpt lat="41.024705" lon="13.9485917"><ele>4.285714285714286</ele><time>2026-05-04T14:15:24.402Z</time></trkpt><trkpt lat="41.0246467" lon="13.948635"><ele>4.428571428571429</ele><time>2026-05-04T14:15:25.403Z</time></trkpt><trkpt lat="41.0245883" lon="13.94868"><ele>4.571428571428571</ele><time>2026-05-04T14:15:26.402Z</time></trkpt><trkpt lat="41.02453" lon="13.94873"><ele>4.714285714285714</ele><time>2026-05-04T14:15:27.401Z</time></trkpt><trkpt lat="41.02447" lon="13.9487817"><ele>4.857142857142857</ele><time>2026-05-04T14:15:28.403Z</time></trkpt><trkpt lat="41.0244117" lon="13.948835"><ele>5.0</ele><time>2026-05-04T14:15:29.402Z</time></trkpt><trkpt lat="41.02435" lon="13.94889"><ele>5.0</ele><time>2026-05-04T14:15:30.401Z</time></trkpt><trkpt lat="41.0242917" lon="13.9489417"><ele>5.0</ele><time>2026-05-04T14:15:31.403Z</time></trkpt><trkpt lat="41.02423" lon="13.9489933"><ele>5.0</ele><time>2026-05-04T14:15:32.401Z</time></trkpt><trkpt lat="41.0241683" lon="13.9490433"><ele>5.0</ele><time>2026-05-04T14:15:33.402Z</time></trkpt><trkpt lat="41.0241083" lon="13.9490917"><ele>5.0</ele><time>2026-05-04T14:15:34.402Z</time></trkpt><trkpt lat="41.0240483" lon="13.9491383"><ele>5.0</ele><time>2026-05-04T14:15:35.403Z</time></trkpt><trkpt lat="41.02399" lon="13.9491867"><ele>5.0</ele><time>2026-05-04T14:15:36.402Z</time></trkpt><trkpt lat="41.0239283" lon="13.9492333"><ele>4.571428571428571</ele><time>2026-05-04T14:15:37.403Z</time></trkpt><trkpt lat="41.023865" lon="13.949285"><ele>4.142857142857143</ele><time>2026-05-04T14:15:38.401Z</time></trkpt><trkpt lat="41.0238" lon="13.949335"><ele>3.7142857142857144</ele><time>2026-05-04T14:15:39.402Z</time></trkpt><trkpt lat="41.0237367" lon="13.949385"><ele>3.2857142857142856</ele><time>2026-05-04T14:15:40.402Z</time></trkpt><trkpt lat="41.0236767" lon="13.9494367"><ele>2.8571428571428568</ele><time>2026-05-04T14:15:41.403Z</time></trkpt><trkpt lat="41.0236167" lon="13.949485"><ele>2.4285714285714284</ele><time>2026-05-04T14:15:42.402Z</time></trkpt><trkpt lat="41.0235533" lon="13.9495333"><ele>2.0</ele><time>2026-05-04T14:15:43.402Z</time></trkpt><trkpt lat="41.0234933" lon="13.949585"><ele>2.0</ele><time>2026-05-04T14:15:44.402Z</time></trkpt><trkpt lat="41.0234383" lon="13.9496383"><ele>1.9999999999999998</ele><time>2026-05-04T14:15:45.402Z</time></trkpt><trkpt lat="41.0233833" lon="13.9496983"><ele>2.0</ele><time>2026-05-04T14:15:46.402Z</time></trkpt><trkpt lat="41.0233267" lon="13.9497567"><ele>2.0</ele><time>2026-05-04T14:15:47.402Z</time></trkpt><trkpt lat="41.0232683" lon="13.9498117"><ele>1.9999999999999998</ele><time>2026-05-04T14:15:48.403Z</time></trkpt><trkpt lat="41.0232083" lon="13.9498617"><ele>2.0</ele><time>2026-05-04T14:15:49.403Z</time></trkpt><trkpt lat="41.0231433" lon="13.9499067"><ele>2.0</ele><time>2026-05-04T14:15:50.401Z</time></trkpt><trkpt lat="41.0230767" lon="13.9499483"><ele>2.0</ele><time>2026-05-04T14:15:51.402Z</time></trkpt><trkpt lat="41.0230133" lon="13.9499867"><ele>1.9999999999999998</ele><time>2026-05-04T14:15:52.402Z</time></trkpt><trkpt lat="41.022955" lon="13.950025"><ele>2.0</ele><time>2026-05-04T14:15:53.404Z</time></trkpt><trkpt lat="41.0228983" lon="13.9500667"><ele>2.0</ele><time>2026-05-04T14:15:54.402Z</time></trkpt><trkpt lat="41.0228433" lon="13.9501117"><ele>1.9999999999999998</ele><time>2026-05-04T14:15:55.402Z</time></trkpt><trkpt lat="41.0227883" lon="13.95016"><ele>2.0</ele><time>2026-05-04T14:15:56.401Z</time></trkpt><trkpt lat="41.0227317" lon="13.9502067"><ele>2.0</ele><time>2026-05-04T14:15:57.401Z</time></trkpt><trkpt lat="41.0226767" lon="13.9502567"><ele>2.0</ele><time>2026-05-04T14:15:58.402Z</time></trkpt><trkpt lat="41.0226233" lon="13.9503083"><ele>1.9999999999999998</ele><time>2026-05-04T14:15:59.403Z</time></trkpt><trkpt lat="41.0225667" lon="13.9503567"><ele>2.0</ele><time>2026-05-04T14:16:00.404Z</time></trkpt><trkpt lat="41.0225083" lon="13.9504033"><ele>2.0</ele><time>2026-05-04T14:16:01.402Z</time></trkpt><trkpt lat="41.02245" lon="13.9504483"><ele>1.9999999999999998</ele><time>2026-05-04T14:16:02.402Z</time></trkpt><trkpt lat="41.022395" lon="13.9504917"><ele>2.0</ele><time>2026-05-04T14:16:03.402Z</time></trkpt><trkpt lat="41.02234" lon="13.9505417"><ele>2.0</ele><time>2026-05-04T14:16:04.402Z</time></trkpt><trkpt lat="41.0222833" lon="13.9505917"><ele>2.142857142857143</ele><time>2026-05-04T14:16:05.402Z</time></trkpt><trkpt lat="41.022225" lon="13.9506433"><ele>2.2857142857142856</ele><time>2026-05-04T14:16:06.402Z</time></trkpt><trkpt lat="41.022165" lon="13.95069"><ele>2.4285714285714284</ele><time>2026-05-04T14:16:07.402Z</time></trkpt><trkpt lat="41.0221067" lon="13.950735"><ele>2.571428571428571</ele><time>2026-05-04T14:16:08.402Z</time></trkpt><trkpt lat="41.0220467" lon="13.9507767"><ele>2.7142857142857144</ele><time>2026-05-04T14:16:09.403Z</time></trkpt><trkpt lat="41.02199" lon="13.9508217"><ele>2.8571428571428568</ele><time>2026-05-04T14:16:10.403Z</time></trkpt><trkpt lat="41.0219267" lon="13.950865"><ele>3.0</ele><time>2026-05-04T14:16:11.402Z</time></trkpt><trkpt lat="41.0218683" lon="13.950915"><ele>2.9999999999999996</ele><time>2026-05-04T14:16:12.402Z</time></trkpt><trkpt lat="41.0218117" lon="13.9509683"><ele>3.0</ele><time>2026-05-04T14:16:13.403Z</time></trkpt><trkpt lat="41.0217567" lon="13.95102"><ele>3.0</ele><time>2026-05-04T14:16:14.401Z</time></trkpt><trkpt lat="41.0217017" lon="13.9510717"><ele>3.0</ele><time>2026-05-04T14:16:15.401Z</time></trkpt><trkpt lat="41.0216417" lon="13.9511183"><ele>3.0</ele><time>2026-05-04T14:16:16.402Z</time></trkpt><trkpt lat="41.02158" lon="13.9511633"><ele>2.9999999999999996</ele><time>2026-05-04T14:16:17.402Z</time></trkpt><trkpt lat="41.02152" lon="13.951205"><ele>3.0</ele><time>2026-05-04T14:16:18.402Z</time></trkpt><trkpt lat="41.02146" lon="13.9512517"><ele>3.1428571428571423</ele><time>2026-05-04T14:16:19.403Z</time></trkpt><trkpt lat="41.0213983" lon="13.9512983"><ele>3.2857142857142856</ele><time>2026-05-04T14:16:20.401Z</time></trkpt><trkpt lat="41.0213383" lon="13.951345"><ele>3.4285714285714284</ele><time>2026-05-04T14:16:21.401Z</time></trkpt><trkpt lat="41.02128" lon="13.9513917"><ele>3.571428571428571</ele><time>2026-05-04T14:16:22.402Z</time></trkpt><trkpt lat="41.02122" lon="13.95144"><ele>3.714285714285714</ele><time>2026-05-04T14:16:23.402Z</time></trkpt><trkpt lat="41.0211583" lon="13.9514883"><ele>3.8571428571428568</ele><time>2026-05-04T14:16:24.402Z</time></trkpt><trkpt lat="41.0210967" lon="13.9515367"><ele>4.0</ele><time>2026-05-04T14:16:25.403Z</time></trkpt><trkpt lat="41.02104" lon="13.9515883"><ele>4.0</ele><time>2026-05-04T14:16:26.402Z</time></trkpt><trkpt lat="41.02098" lon="13.95164"><ele>3.9999999999999996</ele><time>2026-05-04T14:16:27.402Z</time></trkpt><trkpt lat="41.02092" lon="13.9516883"><ele>4.0</ele><time>2026-05-04T14:16:28.403Z</time></trkpt><trkpt lat="41.02086" lon="13.9517367"><ele>4.0</ele><time>2026-05-04T14:16:29.402Z</time></trkpt><trkpt lat="41.0208" lon="13.9517833"><ele>3.9999999999999996</ele><time>2026-05-04T14:16:30.402Z</time></trkpt><trkpt lat="41.0207417" lon="13.9518333"><ele>4.0</ele><time>2026-05-04T14:16:31.401Z</time></trkpt><trkpt lat="41.02068" lon="13.951885"><ele>4.0</ele><time>2026-05-04T14:16:32.402Z</time></trkpt><trkpt lat="41.02062" lon="13.9519367"><ele>3.8571428571428568</ele><time>2026-05-04T14:16:33.402Z</time></trkpt><trkpt lat="41.0205583" lon="13.9519833"><ele>3.714285714285714</ele><time>2026-05-04T14:16:34.402Z</time></trkpt><trkpt lat="41.0204967" lon="13.9520333"><ele>3.571428571428571</ele><time>2026-05-04T14:16:35.403Z</time></trkpt><trkpt lat="41.020435" lon="13.952085"><ele>3.4285714285714284</ele><time>2026-05-04T14:16:36.403Z</time></trkpt><trkpt lat="41.020375" lon="13.9521383"><ele>3.2857142857142856</ele><time>2026-05-04T14:16:37.403Z</time></trkpt><trkpt lat="41.020315" lon="13.95219"><ele>3.1428571428571423</ele><time>2026-05-04T14:16:38.403Z</time></trkpt><trkpt lat="41.0202533" lon="13.9522417"><ele>3.0</ele><time>2026-05-04T14:16:39.401Z</time></trkpt><trkpt lat="41.0201883" lon="13.9522917"><ele>2.9999999999999996</ele><time>2026-05-04T14:16:40.402Z</time></trkpt><trkpt lat="41.0201267" lon="13.9523417"><ele>3.0</ele><time>2026-05-04T14:16:41.402Z</time></trkpt><trkpt lat="41.0200633" lon="13.9523917"><ele>3.0</ele><time>2026-05-04T14:16:42.402Z</time></trkpt><trkpt lat="41.0199983" lon="13.95244"><ele>3.0</ele><time>2026-05-04T14:16:43.404Z</time></trkpt><trkpt lat="41.0199333" lon="13.9524883"><ele>3.0</ele><time>2026-05-04T14:16:44.404Z</time></trkpt><trkpt lat="41.01987" lon="13.9525367"><ele>2.9999999999999996</ele><time>2026-05-04T14:16:45.403Z</time></trkpt><trkpt lat="41.0198067" lon="13.95259"><ele>3.0</ele><time>2026-05-04T14:16:46.403Z</time></trkpt><trkpt lat="41.019745" lon="13.9526417"><ele>2.9999999999999996</ele><time>2026-05-04T14:16:47.403Z</time></trkpt><trkpt lat="41.019685" lon="13.952695"><ele>3.0</ele><time>2026-05-04T14:16:48.403Z</time></trkpt><trkpt lat="41.0196233" lon="13.95275"><ele>3.0</ele><time>2026-05-04T14:16:49.403Z</time></trkpt><trkpt lat="41.0195617" lon="13.9528033"><ele>3.0</ele><time>2026-05-04T14:16:50.403Z</time></trkpt><trkpt lat="41.0195" lon="13.952855"><ele>3.0</ele><time>2026-05-04T14:16:51.402Z</time></trkpt><trkpt lat="41.0194367" lon="13.9529083"><ele>2.9999999999999996</ele><time>2026-05-04T14:16:52.403Z</time></trkpt><trkpt lat="41.0193733" lon="13.95296"><ele>3.0</ele><time>2026-05-04T14:16:53.403Z</time></trkpt><trkpt lat="41.0193117" lon="13.95301"><ele>3.0</ele><time>2026-05-04T14:16:54.403Z</time></trkpt><trkpt lat="41.0192533" lon="13.953065"><ele>3.0</ele><time>2026-05-04T14:16:55.403Z</time></trkpt><trkpt lat="41.0191917" lon="13.95312"><ele>3.0</ele><time>2026-05-04T14:16:56.402Z</time></trkpt><trkpt lat="41.0191283" lon="13.953175"><ele>3.0</ele><time>2026-05-04T14:16:57.401Z</time></trkpt><trkpt lat="41.0190617" lon="13.9532333"><ele>3.0</ele><time>2026-05-04T14:16:58.402Z</time></trkpt><trkpt lat="41.0189967" lon="13.9532883"><ele>3.0</ele><time>2026-05-04T14:16:59.403Z</time></trkpt><trkpt lat="41.0189333" lon="13.9533367"><ele>3.1428571428571423</ele><time>2026-05-04T14:17:00.402Z</time></trkpt><trkpt lat="41.0188683" lon="13.9533833"><ele>3.2857142857142856</ele><time>2026-05-04T14:17:01.403Z</time></trkpt><trkpt lat="41.018805" lon="13.95343"><ele>3.4285714285714284</ele><time>2026-05-04T14:17:02.403Z</time></trkpt><trkpt lat="41.01874" lon="13.9534783"><ele>3.571428571428571</ele><time>2026-05-04T14:17:03.404Z</time></trkpt><trkpt lat="41.0186767" lon="13.9535283"><ele>3.714285714285714</ele><time>2026-05-04T14:17:04.403Z</time></trkpt><trkpt lat="41.0186133" lon="13.95358"><ele>3.8571428571428568</ele><time>2026-05-04T14:17:05.404Z</time></trkpt><trkpt lat="41.0185517" lon="13.953635"><ele>4.0</ele><time>2026-05-04T14:17:06.403Z</time></trkpt><trkpt lat="41.018485" lon="13.9536883"><ele>4.0</ele><time>2026-05-04T14:17:07.402Z</time></trkpt><trkpt lat="41.0184183" lon="13.9537417"><ele>3.9999999999999996</ele><time>2026-05-04T14:17:08.402Z</time></trkpt><trkpt lat="41.0183567" lon="13.953795"><ele>4.0</ele><time>2026-05-04T14:17:09.404Z</time></trkpt><trkpt lat="41.0182967" lon="13.95384"><ele>4.0</ele><time>2026-05-04T14:17:10.403Z</time></trkpt><trkpt lat="41.0182383" lon="13.9538867"><ele>3.9999999999999996</ele><time>2026-05-04T14:17:11.404Z</time></trkpt><trkpt lat="41.018175" lon="13.9539317"><ele>4.0</ele><time>2026-05-04T14:17:12.403Z</time></trkpt><trkpt lat="41.018105" lon="13.9539667"><ele>4.0</ele><time>2026-05-04T14:17:13.403Z</time></trkpt><trkpt lat="41.01804" lon="13.95399"><ele>4.0</ele><time>2026-05-04T14:17:14.402Z</time></trkpt><trkpt lat="41.0179783" lon="13.9540217"><ele>3.9999999999999996</ele><time>2026-05-04T14:17:15.403Z</time></trkpt><trkpt lat="41.0179267" lon="13.95407"><ele>4.0</ele><time>2026-05-04T14:17:16.403Z</time></trkpt><trkpt lat="41.017885" lon="13.9541333"><ele>4.0</ele><time>2026-05-04T14:17:17.404Z</time></trkpt><trkpt lat="41.01784" lon="13.9542"><ele>3.9999999999999996</ele><time>2026-05-04T14:17:18.403Z</time></trkpt><trkpt lat="41.0177933" lon="13.95426"><ele>4.0</ele><time>2026-05-04T14:17:19.403Z</time></trkpt><trkpt lat="41.01774" lon="13.95431"><ele>4.0</ele><time>2026-05-04T14:17:20.404Z</time></trkpt><trkpt lat="41.017685" lon="13.9543533"><ele>4.0</ele><time>2026-05-04T14:17:21.401Z</time></trkpt><trkpt lat="41.0176283" lon="13.9543967"><ele>3.9999999999999996</ele><time>2026-05-04T14:17:22.402Z</time></trkpt><trkpt lat="41.0175717" lon="13.95444"><ele>4.0</ele><time>2026-05-04T14:17:23.403Z</time></trkpt><trkpt lat="41.0175133" lon="13.95449"><ele>4.0</ele><time>2026-05-04T14:17:24.403Z</time></trkpt><trkpt lat="41.0174583" lon="13.9545433"><ele>3.9999999999999996</ele><time>2026-05-04T14:17:25.403Z</time></trkpt><trkpt lat="41.0173983" lon="13.9545933"><ele>4.0</ele><time>2026-05-04T14:17:26.403Z</time></trkpt><trkpt lat="41.0173383" lon="13.9546417"><ele>4.0</ele><time>2026-05-04T14:17:27.402Z</time></trkpt><trkpt lat="41.01728" lon="13.9546883"><ele>4.0</ele><time>2026-05-04T14:17:28.403Z</time></trkpt><trkpt lat="41.0172183" lon="13.954735"><ele>3.9999999999999996</ele><time>2026-05-04T14:17:29.403Z</time></trkpt><trkpt lat="41.01716" lon="13.9547833"><ele>4.0</ele><time>2026-05-04T14:17:30.403Z</time></trkpt><trkpt lat="41.0171017" lon="13.9548317"><ele>4.0</ele><time>2026-05-04T14:17:31.404Z</time></trkpt><trkpt lat="41.0170433" lon="13.954875"><ele>3.9999999999999996</ele><time>2026-05-04T14:17:32.405Z</time></trkpt><trkpt lat="41.016985" lon="13.9549167"><ele>4.0</ele><time>2026-05-04T14:17:33.401Z</time></trkpt><trkpt lat="41.0169267" lon="13.954965"><ele>4.0</ele><time>2026-05-04T14:17:34.402Z</time></trkpt><trkpt lat="41.01687" lon="13.9550167"><ele>4.0</ele><time>2026-05-04T14:17:35.403Z</time></trkpt><trkpt lat="41.01681" lon="13.9550633"><ele>3.9999999999999996</ele><time>2026-05-04T14:17:36.403Z</time></trkpt><trkpt lat="41.01675" lon="13.9551133"><ele>4.0</ele><time>2026-05-04T14:17:37.403Z</time></trkpt><trkpt lat="41.0166883" lon="13.9551617"><ele>4.0</ele><time>2026-05-04T14:17:38.403Z</time></trkpt><trkpt lat="41.0166317" lon="13.955215"><ele>3.9999999999999996</ele><time>2026-05-04T14:17:39.402Z</time></trkpt><trkpt lat="41.0165733" lon="13.955265"><ele>4.0</ele><time>2026-05-04T14:17:40.402Z</time></trkpt><trkpt lat="41.01651" lon="13.9553183"><ele>4.0</ele><time>2026-05-04T14:17:41.404Z</time></trkpt><trkpt lat="41.0164483" lon="13.9553717"><ele>4.0</ele><time>2026-05-04T14:17:42.401Z</time></trkpt><trkpt lat="41.0163867" lon="13.95542"><ele>3.9999999999999996</ele><time>2026-05-04T14:17:43.403Z</time></trkpt><trkpt lat="41.0163233" lon="13.9554767"><ele>4.0</ele><time>2026-05-04T14:17:44.401Z</time></trkpt><trkpt lat="41.0162617" lon="13.9555283"><ele>4.0</ele><time>2026-05-04T14:17:45.402Z</time></trkpt><trkpt lat="41.0162" lon="13.95558"><ele>3.9999999999999996</ele><time>2026-05-04T14:17:46.401Z</time></trkpt><trkpt lat="41.0161417" lon="13.9556317"><ele>4.0</ele><time>2026-05-04T14:17:47.402Z</time></trkpt><trkpt lat="41.0160817" lon="13.955685"><ele>4.0</ele><time>2026-05-04T14:17:48.403Z</time></trkpt><trkpt lat="41.01602" lon="13.9557383"><ele>4.0</ele><time>2026-05-04T14:17:49.403Z</time></trkpt><trkpt lat="41.0159567" lon="13.9557933"><ele>3.9999999999999996</ele><time>2026-05-04T14:17:50.402Z</time></trkpt><trkpt lat="41.0158933" lon="13.955845"><ele>4.0</ele><time>2026-05-04T14:17:51.402Z</time></trkpt><trkpt lat="41.0158317" lon="13.9558933"><ele>4.0</ele><time>2026-05-04T14:17:52.402Z</time></trkpt><trkpt lat="41.0157733" lon="13.9559417"><ele>3.9999999999999996</ele><time>2026-05-04T14:17:53.403Z</time></trkpt><trkpt lat="41.0157117" lon="13.9559867"><ele>4.0</ele><time>2026-05-04T14:17:54.403Z</time></trkpt><trkpt lat="41.01565" lon="13.9560317"><ele>4.0</ele><time>2026-05-04T14:17:55.402Z</time></trkpt><trkpt lat="41.0155883" lon="13.95608"><ele>3.8000000000000003</ele><time>2026-05-04T14:17:56.402Z</time></trkpt><trkpt lat="41.0155283" lon="13.9561283"><ele>3.6000000000000005</ele><time>2026-05-04T14:17:57.401Z</time></trkpt><trkpt lat="41.015475" lon="13.9561783"><ele>3.4</ele><time>2026-05-04T14:17:58.403Z</time></trkpt><trkpt lat="41.01538" lon="13.9562517"><ele>3.2</ele><time>2026-05-04T14:18:00.402Z</time></trkpt><trkpt lat="41.01528" lon="13.9563017"><ele>3.0</ele><time>2026-05-04T14:18:02.404Z</time></trkpt><trkpt lat="41.0152" lon="13.9563933"><ele>3.0</ele><time>2026-05-04T14:18:04.401Z</time></trkpt><trkpt lat="41.01511" lon="13.9564867"><ele>3.0</ele><time>2026-05-04T14:18:06.402Z</time></trkpt><trkpt lat="41.0150083" lon="13.956575"><ele>3.0</ele><time>2026-05-04T14:18:08.403Z</time></trkpt><trkpt lat="41.0149517" lon="13.956615"><ele>3.0</ele><time>2026-05-04T14:18:09.403Z</time></trkpt><trkpt lat="41.014895" lon="13.9566567"><ele>3.0</ele><time>2026-05-04T14:18:10.403Z</time></trkpt><trkpt lat="41.0148383" lon="13.956705"><ele>3.0</ele><time>2026-05-04T14:18:11.403Z</time></trkpt><trkpt lat="41.0147833" lon="13.95675"><ele>2.8571428571428568</ele><time>2026-05-04T14:18:12.403Z</time></trkpt><trkpt lat="41.0147267" lon="13.9568017"><ele>2.7142857142857144</ele><time>2026-05-04T14:18:13.402Z</time></trkpt><trkpt lat="41.01467" lon="13.9568517"><ele>2.571428571428571</ele><time>2026-05-04T14:18:14.403Z</time></trkpt><trkpt lat="41.014615" lon="13.9569"><ele>2.4285714285714284</ele><time>2026-05-04T14:18:15.401Z</time></trkpt><trkpt lat="41.01456" lon="13.9569467"><ele>2.2857142857142856</ele><time>2026-05-04T14:18:16.402Z</time></trkpt><trkpt lat="41.0145" lon="13.956995"><ele>2.142857142857143</ele><time>2026-05-04T14:18:17.403Z</time></trkpt><trkpt lat="41.0144433" lon="13.95704"><ele>2.0</ele><time>2026-05-04T14:18:18.402Z</time></trkpt><trkpt lat="41.0143817" lon="13.957085"><ele>2.0</ele><time>2026-05-04T14:18:19.403Z</time></trkpt><trkpt lat="41.0143183" lon="13.95713"><ele>1.9999999999999998</ele><time>2026-05-04T14:18:20.401Z</time></trkpt><trkpt lat="41.0142583" lon="13.95718"><ele>2.0</ele><time>2026-05-04T14:18:21.402Z</time></trkpt><trkpt lat="41.0142033" lon="13.9572383"><ele>2.0</ele><time>2026-05-04T14:18:22.403Z</time></trkpt><trkpt lat="41.01415" lon="13.9572967"><ele>1.9999999999999998</ele><time>2026-05-04T14:18:23.402Z</time></trkpt><trkpt lat="41.0140917" lon="13.95735"><ele>2.0</ele><time>2026-05-04T14:18:24.403Z</time></trkpt><trkpt lat="41.0140317" lon="13.957395"><ele>2.0</ele><time>2026-05-04T14:18:25.402Z</time></trkpt><trkpt lat="41.0139717" lon="13.9574367"><ele>2.0</ele><time>2026-05-04T14:18:26.403Z</time></trkpt><trkpt lat="41.0139133" lon="13.9574783"><ele>1.9999999999999998</ele><time>2026-05-04T14:18:27.403Z</time></trkpt><trkpt lat="41.013855" lon="13.9575267"><ele>2.0</ele><time>2026-05-04T14:18:28.402Z</time></trkpt><trkpt lat="41.013795" lon="13.9575783"><ele>2.0</ele><time>2026-05-04T14:18:29.403Z</time></trkpt><trkpt lat="41.0137367" lon="13.957625"><ele>1.9999999999999998</ele><time>2026-05-04T14:18:30.403Z</time></trkpt><trkpt lat="41.0136783" lon="13.95767"><ele>2.0</ele><time>2026-05-04T14:18:31.403Z</time></trkpt><trkpt lat="41.0136217" lon="13.957715"><ele>2.0</ele><time>2026-05-04T14:18:32.404Z</time></trkpt><trkpt lat="41.0135633" lon="13.9577633"><ele>2.0</ele><time>2026-05-04T14:18:33.402Z</time></trkpt><trkpt lat="41.013505" lon="13.9578133"><ele>1.9999999999999998</ele><time>2026-05-04T14:18:34.402Z</time></trkpt><trkpt lat="41.0134467" lon="13.9578617"><ele>2.0</ele><time>2026-05-04T14:18:35.403Z</time></trkpt><trkpt lat="41.0133867" lon="13.9579067"><ele>2.0</ele><time>2026-05-04T14:18:36.403Z</time></trkpt><trkpt lat="41.013325" lon="13.9579533"><ele>1.9999999999999998</ele><time>2026-05-04T14:18:37.402Z</time></trkpt><trkpt lat="41.0132633" lon="13.9580017"><ele>2.0</ele><time>2026-05-04T14:18:38.403Z</time></trkpt><trkpt lat="41.0132017" lon="13.9580517"><ele>2.0</ele><time>2026-05-04T14:18:39.403Z</time></trkpt><trkpt lat="41.013145" lon="13.9581"><ele>2.2857142857142856</ele><time>2026-05-04T14:18:40.402Z</time></trkpt><trkpt lat="41.0130867" lon="13.9581483"><ele>2.571428571428571</ele><time>2026-05-04T14:18:41.403Z</time></trkpt><trkpt lat="41.0130283" lon="13.958195"><ele>2.8571428571428568</ele><time>2026-05-04T14:18:42.402Z</time></trkpt><trkpt lat="41.0129683" lon="13.9582467"><ele>3.142857142857143</ele><time>2026-05-04T14:18:43.402Z</time></trkpt><trkpt lat="41.01291" lon="13.9583"><ele>3.428571428571428</ele><time>2026-05-04T14:18:44.403Z</time></trkpt><trkpt lat="41.0128517" lon="13.9583567"><ele>3.714285714285714</ele><time>2026-05-04T14:18:45.402Z</time></trkpt><trkpt lat="41.0127883" lon="13.9584067"><ele>4.0</ele><time>2026-05-04T14:18:46.405Z</time></trkpt><trkpt lat="41.012725" lon="13.958455"><ele>4.0</ele><time>2026-05-04T14:18:47.403Z</time></trkpt><trkpt lat="41.0126633" lon="13.9585083"><ele>3.9999999999999996</ele><time>2026-05-04T14:18:48.402Z</time></trkpt><trkpt lat="41.012605" lon="13.9585617"><ele>4.0</ele><time>2026-05-04T14:18:49.403Z</time></trkpt><trkpt lat="41.0125417" lon="13.9586117"><ele>4.0</ele><time>2026-05-04T14:18:50.402Z</time></trkpt><trkpt lat="41.0124783" lon="13.9586617"><ele>3.9999999999999996</ele><time>2026-05-04T14:18:51.401Z</time></trkpt><trkpt lat="41.0124183" lon="13.9587133"><ele>4.0</ele><time>2026-05-04T14:18:52.402Z</time></trkpt><trkpt lat="41.0123567" lon="13.9587683"><ele>4.0</ele><time>2026-05-04T14:18:53.403Z</time></trkpt><trkpt lat="41.0122967" lon="13.95882"><ele>4.0</ele><time>2026-05-04T14:18:54.403Z</time></trkpt><trkpt lat="41.0122367" lon="13.95887"><ele>3.9999999999999996</ele><time>2026-05-04T14:18:55.404Z</time></trkpt><trkpt lat="41.0121733" lon="13.958915"><ele>4.0</ele><time>2026-05-04T14:18:56.405Z</time></trkpt><trkpt lat="41.0121133" lon="13.9589617"><ele>4.0</ele><time>2026-05-04T14:18:57.403Z</time></trkpt><trkpt lat="41.0120533" lon="13.9590083"><ele>3.9999999999999996</ele><time>2026-05-04T14:18:58.403Z</time></trkpt><trkpt lat="41.01199" lon="13.9590567"><ele>4.0</ele><time>2026-05-04T14:18:59.406Z</time></trkpt><trkpt lat="41.0119317" lon="13.959105"><ele>4.0</ele><time>2026-05-04T14:19:00.403Z</time></trkpt><trkpt lat="41.0118717" lon="13.95915"><ele>4.0</ele><time>2026-05-04T14:19:01.403Z</time></trkpt><trkpt lat="41.0118083" lon="13.9591933"><ele>3.9999999999999996</ele><time>2026-05-04T14:19:02.403Z</time></trkpt><trkpt lat="41.0117467" lon="13.9592433"><ele>4.0</ele><time>2026-05-04T14:19:03.403Z</time></trkpt><trkpt lat="41.011685" lon="13.959295"><ele>4.0</ele><time>2026-05-04T14:19:04.401Z</time></trkpt><trkpt lat="41.0116233" lon="13.9593467"><ele>3.9999999999999996</ele><time>2026-05-04T14:19:05.403Z</time></trkpt><trkpt lat="41.011565" lon="13.9593983"><ele>4.0</ele><time>2026-05-04T14:19:06.403Z</time></trkpt><trkpt lat="41.011505" lon="13.9594483"><ele>4.0</ele><time>2026-05-04T14:19:07.402Z</time></trkpt><trkpt lat="41.0114467" lon="13.9595017"><ele>3.8571428571428568</ele><time>2026-05-04T14:19:08.403Z</time></trkpt><trkpt lat="41.0113883" lon="13.9595533"><ele>3.714285714285714</ele><time>2026-05-04T14:19:09.403Z</time></trkpt><trkpt lat="41.0113283" lon="13.9596033"><ele>3.571428571428571</ele><time>2026-05-04T14:19:10.403Z</time></trkpt><trkpt lat="41.0112567" lon="13.95965"><ele>3.4285714285714284</ele><time>2026-05-04T14:19:11.402Z</time></trkpt><trkpt lat="41.011195" lon="13.9596967"><ele>3.2857142857142856</ele><time>2026-05-04T14:19:12.402Z</time></trkpt><trkpt lat="41.011135" lon="13.95974"><ele>3.1428571428571423</ele><time>2026-05-04T14:19:13.403Z</time></trkpt><trkpt lat="41.011075" lon="13.9597867"><ele>3.0</ele><time>2026-05-04T14:19:14.401Z</time></trkpt><trkpt lat="41.0110133" lon="13.959835"><ele>2.9999999999999996</ele><time>2026-05-04T14:19:15.402Z</time></trkpt><trkpt lat="41.010955" lon="13.9598833"><ele>3.0</ele><time>2026-05-04T14:19:16.403Z</time></trkpt><trkpt lat="41.0108983" lon="13.9599333"><ele>3.0</ele><time>2026-05-04T14:19:17.403Z</time></trkpt><trkpt lat="41.0108383" lon="13.9599833"><ele>3.0</ele><time>2026-05-04T14:19:18.403Z</time></trkpt><trkpt lat="41.0107817" lon="13.9600333"><ele>3.0</ele><time>2026-05-04T14:19:19.403Z</time></trkpt><trkpt lat="41.0107233" lon="13.960085"><ele>2.9999999999999996</ele><time>2026-05-04T14:19:20.403Z</time></trkpt><trkpt lat="41.0106633" lon="13.9601333"><ele>3.0</ele><time>2026-05-04T14:19:21.403Z</time></trkpt><trkpt lat="41.010605" lon="13.9601833"><ele>2.9999999999999996</ele><time>2026-05-04T14:19:22.403Z</time></trkpt><trkpt lat="41.0105433" lon="13.9602333"><ele>3.0</ele><time>2026-05-04T14:19:23.403Z</time></trkpt><trkpt lat="41.0104817" lon="13.9602833"><ele>3.0</ele><time>2026-05-04T14:19:24.403Z</time></trkpt><trkpt lat="41.0104233" lon="13.9603383"><ele>3.0</ele><time>2026-05-04T14:19:25.404Z</time></trkpt><trkpt lat="41.01036" lon="13.9603933"><ele>3.0</ele><time>2026-05-04T14:19:26.402Z</time></trkpt><trkpt lat="41.0102883" lon="13.960445"><ele>2.9999999999999996</ele><time>2026-05-04T14:19:27.403Z</time></trkpt><trkpt lat="41.010225" lon="13.9604917"><ele>3.0</ele><time>2026-05-04T14:19:28.403Z</time></trkpt><trkpt lat="41.0101633" lon="13.9605383"><ele>2.9999999999999996</ele><time>2026-05-04T14:19:29.403Z</time></trkpt><trkpt lat="41.0101017" lon="13.9605883"><ele>3.0</ele><time>2026-05-04T14:19:30.403Z</time></trkpt><trkpt lat="41.0100417" lon="13.9606433"><ele>3.0</ele><time>2026-05-04T14:19:31.402Z</time></trkpt><trkpt lat="41.0099833" lon="13.9607"><ele>3.0</ele><time>2026-05-04T14:19:32.403Z</time></trkpt><trkpt lat="41.0099233" lon="13.9607567"><ele>3.0</ele><time>2026-05-04T14:19:33.402Z</time></trkpt><trkpt lat="41.0098583" lon="13.9608117"><ele>2.9999999999999996</ele><time>2026-05-04T14:19:34.402Z</time></trkpt><trkpt lat="41.009795" lon="13.9608617"><ele>3.0</ele><time>2026-05-04T14:19:35.404Z</time></trkpt><trkpt lat="41.00973" lon="13.9609133"><ele>3.0</ele><time>2026-05-04T14:19:36.403Z</time></trkpt><trkpt lat="41.009665" lon="13.960965"><ele>3.0</ele><time>2026-05-04T14:19:37.402Z</time></trkpt><trkpt lat="41.0095983" lon="13.961015"><ele>3.0</ele><time>2026-05-04T14:19:38.403Z</time></trkpt><trkpt lat="41.0095333" lon="13.9610683"><ele>3.0</ele><time>2026-05-04T14:19:39.401Z</time></trkpt><trkpt lat="41.0094683" lon="13.9611233"><ele>3.0</ele><time>2026-05-04T14:19:40.403Z</time></trkpt><trkpt lat="41.0094017" lon="13.9611783"><ele>3.0</ele><time>2026-05-04T14:19:41.403Z</time></trkpt><trkpt lat="41.00934" lon="13.9612283"><ele>3.0</ele><time>2026-05-04T14:19:42.402Z</time></trkpt><trkpt lat="41.0092817" lon="13.9612767"><ele>3.0</ele><time>2026-05-04T14:19:43.402Z</time></trkpt><trkpt lat="41.0092267" lon="13.9613283"><ele>3.0</ele><time>2026-05-04T14:19:44.403Z</time></trkpt><trkpt lat="41.0091717" lon="13.961385"><ele>3.0</ele><time>2026-05-04T14:19:45.402Z</time></trkpt><trkpt lat="41.0091183" lon="13.9614383"><ele>3.0</ele><time>2026-05-04T14:19:46.403Z</time></trkpt><trkpt lat="41.0090667" lon="13.9614883"><ele>3.0</ele><time>2026-05-04T14:19:47.403Z</time></trkpt><trkpt lat="41.0089617" lon="13.9615767"><ele>3.0</ele><time>2026-05-04T14:19:49.403Z</time></trkpt><trkpt lat="41.0088533" lon="13.9616567"><ele>3.0</ele><time>2026-05-04T14:19:51.402Z</time></trkpt><trkpt lat="41.00875" lon="13.961735"><ele>3.0</ele><time>2026-05-04T14:19:53.403Z</time></trkpt><trkpt lat="41.0086517" lon="13.961815"><ele>3.0</ele><time>2026-05-04T14:19:55.403Z</time></trkpt><trkpt lat="41.0085483" lon="13.961885"><ele>3.0</ele><time>2026-05-04T14:19:57.403Z</time></trkpt><trkpt lat="41.0084383" lon="13.9619633"><ele>3.0</ele><time>2026-05-04T14:19:59.405Z</time></trkpt><trkpt lat="41.0083817" lon="13.9620033"><ele>3.0</ele><time>2026-05-04T14:20:00.403Z</time></trkpt><trkpt lat="41.0083283" lon="13.9620517"><ele>3.0</ele><time>2026-05-04T14:20:01.403Z</time></trkpt><trkpt lat="41.008275" lon="13.9621"><ele>3.0</ele><time>2026-05-04T14:20:02.402Z</time></trkpt><trkpt lat="41.008215" lon="13.9621483"><ele>3.0</ele><time>2026-05-04T14:20:03.403Z</time></trkpt><trkpt lat="41.0081533" lon="13.9622017"><ele>2.9999999999999996</ele><time>2026-05-04T14:20:04.402Z</time></trkpt><trkpt lat="41.008095" lon="13.9622583"><ele>3.0</ele><time>2026-05-04T14:20:05.403Z</time></trkpt><trkpt lat="41.0080317" lon="13.962315"><ele>3.0</ele><time>2026-05-04T14:20:06.403Z</time></trkpt><trkpt lat="41.0079667" lon="13.9623667"><ele>3.0</ele><time>2026-05-04T14:20:07.404Z</time></trkpt><trkpt lat="41.0079033" lon="13.9624183"><ele>3.0</ele><time>2026-05-04T14:20:08.403Z</time></trkpt><trkpt lat="41.00784" lon="13.9624717"><ele>2.9999999999999996</ele><time>2026-05-04T14:20:09.403Z</time></trkpt><trkpt lat="41.0077783" lon="13.96252"><ele>3.0</ele><time>2026-05-04T14:20:10.403Z</time></trkpt><trkpt lat="41.0077167" lon="13.9625717"><ele>2.9999999999999996</ele><time>2026-05-04T14:20:11.403Z</time></trkpt><trkpt lat="41.0076533" lon="13.9626217"><ele>3.0</ele><time>2026-05-04T14:20:12.403Z</time></trkpt><trkpt lat="41.00759" lon="13.9626733"><ele>3.0</ele><time>2026-05-04T14:20:13.403Z</time></trkpt><trkpt lat="41.0075283" lon="13.962725"><ele>3.0</ele><time>2026-05-04T14:20:14.402Z</time></trkpt><trkpt lat="41.0074683" lon="13.96278"><ele>3.0</ele><time>2026-05-04T14:20:15.402Z</time></trkpt><trkpt lat="41.0074083" lon="13.9628367"><ele>2.9999999999999996</ele><time>2026-05-04T14:20:16.403Z</time></trkpt><trkpt lat="41.007345" lon="13.9628883"><ele>3.0</ele><time>2026-05-04T14:20:17.402Z</time></trkpt><trkpt lat="41.0072817" lon="13.96294"><ele>2.9999999999999996</ele><time>2026-05-04T14:20:18.403Z</time></trkpt><trkpt lat="41.0072183" lon="13.962995"><ele>3.0</ele><time>2026-05-04T14:20:19.403Z</time></trkpt><trkpt lat="41.0071583" lon="13.9630517"><ele>3.0</ele><time>2026-05-04T14:20:20.402Z</time></trkpt><trkpt lat="41.007095" lon="13.9631033"><ele>3.0</ele><time>2026-05-04T14:20:21.403Z</time></trkpt><trkpt lat="41.0070333" lon="13.963155"><ele>3.0</ele><time>2026-05-04T14:20:22.403Z</time></trkpt><trkpt lat="41.0069733" lon="13.9632033"><ele>2.9999999999999996</ele><time>2026-05-04T14:20:23.403Z</time></trkpt><trkpt lat="41.0069083" lon="13.9632533"><ele>3.0</ele><time>2026-05-04T14:20:24.403Z</time></trkpt><trkpt lat="41.006845" lon="13.963305"><ele>2.9999999999999996</ele><time>2026-05-04T14:20:25.403Z</time></trkpt><trkpt lat="41.0067817" lon="13.963355"><ele>3.0</ele><time>2026-05-04T14:20:26.402Z</time></trkpt><trkpt lat="41.0067217" lon="13.9634067"><ele>3.0</ele><time>2026-05-04T14:20:27.403Z</time></trkpt><trkpt lat="41.0066617" lon="13.9634583"><ele>3.0</ele><time>2026-05-04T14:20:28.402Z</time></trkpt><trkpt lat="41.0066" lon="13.96351"><ele>3.0</ele><time>2026-05-04T14:20:29.403Z</time></trkpt><trkpt lat="41.0065383" lon="13.9635617"><ele>2.9999999999999996</ele><time>2026-05-04T14:20:30.403Z</time></trkpt><trkpt lat="41.006475" lon="13.9636167"><ele>3.0</ele><time>2026-05-04T14:20:31.403Z</time></trkpt><trkpt lat="41.0064117" lon="13.9636717"><ele>3.1666666666666665</ele><time>2026-05-04T14:20:32.402Z</time></trkpt><trkpt lat="41.006345" lon="13.9637233"><ele>3.333333333333333</ele><time>2026-05-04T14:20:33.403Z</time></trkpt><trkpt lat="41.0062767" lon="13.9637717"><ele>3.5</ele><time>2026-05-04T14:20:34.403Z</time></trkpt><trkpt lat="41.0062083" lon="13.9638217"><ele>3.6666666666666665</ele><time>2026-05-04T14:20:35.403Z</time></trkpt><trkpt lat="41.0061433" lon="13.9638767"><ele>3.833333333333333</ele><time>2026-05-04T14:20:36.403Z</time></trkpt><trkpt lat="41.0060783" lon="13.9639367"><ele>4.0</ele><time>2026-05-04T14:20:37.403Z</time></trkpt><trkpt lat="41.0060133" lon="13.9639917"><ele>3.9999999999999996</ele><time>2026-05-04T14:20:38.403Z</time></trkpt><trkpt lat="41.00595" lon="13.964045"><ele>4.0</ele><time>2026-05-04T14:20:39.402Z</time></trkpt><trkpt lat="41.00588" lon="13.9640983"><ele>4.0</ele><time>2026-05-04T14:20:40.402Z</time></trkpt><trkpt lat="41.0058117" lon="13.964155"><ele>4.0</ele><time>2026-05-04T14:20:41.402Z</time></trkpt><trkpt lat="41.005745" lon="13.9642133"><ele>3.9999999999999996</ele><time>2026-05-04T14:20:42.402Z</time></trkpt><trkpt lat="41.0056767" lon="13.96427"><ele>4.0</ele><time>2026-05-04T14:20:43.402Z</time></trkpt><trkpt lat="41.0056067" lon="13.9643217"><ele>4.166666666666666</ele><time>2026-05-04T14:20:44.402Z</time></trkpt><trkpt lat="41.0055367" lon="13.9643733"><ele>4.333333333333333</ele><time>2026-05-04T14:20:45.401Z</time></trkpt><trkpt lat="41.0054683" lon="13.96443"><ele>4.5</ele><time>2026-05-04T14:20:46.402Z</time></trkpt><trkpt lat="41.0054017" lon="13.9644883"><ele>4.666666666666667</ele><time>2026-05-04T14:20:47.403Z</time></trkpt><trkpt lat="41.005335" lon="13.9645417"><ele>4.833333333333334</ele><time>2026-05-04T14:20:48.401Z</time></trkpt><trkpt lat="41.0052667" lon="13.9645967"><ele>5.0</ele><time>2026-05-04T14:20:49.402Z</time></trkpt><trkpt lat="41.0052017" lon="13.9646533"><ele>5.0</ele><time>2026-05-04T14:20:50.402Z</time></trkpt><trkpt lat="41.005135" lon="13.96471"><ele>5.0</ele><time>2026-05-04T14:20:51.402Z</time></trkpt><trkpt lat="41.00507" lon="13.9647683"><ele>5.0</ele><time>2026-05-04T14:20:52.402Z</time></trkpt><trkpt lat="41.0049983" lon="13.9648233"><ele>5.0</ele><time>2026-05-04T14:20:53.402Z</time></trkpt><trkpt lat="41.0049267" lon="13.9648733"><ele>5.0</ele><time>2026-05-04T14:20:54.402Z</time></trkpt><trkpt lat="41.004855" lon="13.9649267"><ele>5.0</ele><time>2026-05-04T14:20:55.402Z</time></trkpt><trkpt lat="41.0047833" lon="13.9649817"><ele>4.833333333333334</ele><time>2026-05-04T14:20:56.402Z</time></trkpt><trkpt lat="41.0047117" lon="13.96504"><ele>4.666666666666667</ele><time>2026-05-04T14:20:57.401Z</time></trkpt><trkpt lat="41.00464" lon="13.9650967"><ele>4.5</ele><time>2026-05-04T14:20:58.402Z</time></trkpt><trkpt lat="41.00457" lon="13.965155"><ele>4.333333333333333</ele><time>2026-05-04T14:20:59.402Z</time></trkpt><trkpt lat="41.0044983" lon="13.96521"><ele>4.166666666666666</ele><time>2026-05-04T14:21:00.402Z</time></trkpt><trkpt lat="41.0044283" lon="13.9652667"><ele>4.0</ele><time>2026-05-04T14:21:01.402Z</time></trkpt><trkpt lat="41.00436" lon="13.965325"><ele>3.9999999999999996</ele><time>2026-05-04T14:21:02.402Z</time></trkpt><trkpt lat="41.0042933" lon="13.9653867"><ele>4.0</ele><time>2026-05-04T14:21:03.402Z</time></trkpt><trkpt lat="41.0042267" lon="13.9654467"><ele>4.0</ele><time>2026-05-04T14:21:04.401Z</time></trkpt><trkpt lat="41.0041617" lon="13.9655067"><ele>4.0</ele><time>2026-05-04T14:21:05.401Z</time></trkpt><trkpt lat="41.0040933" lon="13.9655633"><ele>3.9999999999999996</ele><time>2026-05-04T14:21:06.402Z</time></trkpt><trkpt lat="41.0040233" lon="13.9656183"><ele>4.0</ele><time>2026-05-04T14:21:07.402Z</time></trkpt><trkpt lat="41.0039517" lon="13.965675"><ele>3.833333333333333</ele><time>2026-05-04T14:21:08.403Z</time></trkpt><trkpt lat="41.00388" lon="13.9657283"><ele>3.6666666666666665</ele><time>2026-05-04T14:21:09.401Z</time></trkpt><trkpt lat="41.00381" lon="13.9657833"><ele>3.5</ele><time>2026-05-04T14:21:10.401Z</time></trkpt><trkpt lat="41.0037383" lon="13.9658367"><ele>3.333333333333333</ele><time>2026-05-04T14:21:11.402Z</time></trkpt><trkpt lat="41.0036667" lon="13.9658917"><ele>3.1666666666666665</ele><time>2026-05-04T14:21:12.401Z</time></trkpt><trkpt lat="41.0035983" lon="13.9659433"><ele>3.0</ele><time>2026-05-04T14:21:13.403Z</time></trkpt><trkpt lat="41.00353" lon="13.966"><ele>2.8333333333333335</ele><time>2026-05-04T14:21:14.402Z</time></trkpt><trkpt lat="41.00346" lon="13.9660583"><ele>2.6666666666666665</ele><time>2026-05-04T14:21:15.402Z</time></trkpt><trkpt lat="41.00339" lon="13.9661117"><ele>2.5</ele><time>2026-05-04T14:21:16.402Z</time></trkpt><trkpt lat="41.00332" lon="13.9661583"><ele>2.333333333333333</ele><time>2026-05-04T14:21:17.401Z</time></trkpt><trkpt lat="41.003255" lon="13.9662067"><ele>2.1666666666666665</ele><time>2026-05-04T14:21:18.402Z</time></trkpt><trkpt lat="41.0031883" lon="13.9662567"><ele>2.0</ele><time>2026-05-04T14:21:19.402Z</time></trkpt><trkpt lat="41.0031217" lon="13.9663017"><ele>2.5</ele><time>2026-05-04T14:21:20.401Z</time></trkpt><trkpt lat="41.003055" lon="13.966345"><ele>3.0</ele><time>2026-05-04T14:21:21.401Z</time></trkpt><trkpt lat="41.0029933" lon="13.9663867"><ele>3.5</ele><time>2026-05-04T14:21:22.402Z</time></trkpt><trkpt lat="41.00289" lon="13.9664833"><ele>4.0</ele><time>2026-05-04T14:21:24.402Z</time></trkpt><trkpt lat="41.0028383" lon="13.96654"><ele>4.5</ele><time>2026-05-04T14:21:25.402Z</time></trkpt><trkpt lat="41.0027867" lon="13.9665967"><ele>5.0</ele><time>2026-05-04T14:21:26.402Z</time></trkpt><trkpt lat="41.0027317" lon="13.9666533"><ele>4.857142857142857</ele><time>2026-05-04T14:21:27.402Z</time></trkpt><trkpt lat="41.0026767" lon="13.966705"><ele>4.714285714285714</ele><time>2026-05-04T14:21:28.402Z</time></trkpt><trkpt lat="41.0026167" lon="13.966755"><ele>4.571428571428571</ele><time>2026-05-04T14:21:29.401Z</time></trkpt><trkpt lat="41.0025567" lon="13.9668067"><ele>4.428571428571429</ele><time>2026-05-04T14:21:30.402Z</time></trkpt><trkpt lat="41.0024983" lon="13.96686"><ele>4.285714285714286</ele><time>2026-05-04T14:21:31.402Z</time></trkpt><trkpt lat="41.00244" lon="13.9669117"><ele>4.142857142857142</ele><time>2026-05-04T14:21:32.402Z</time></trkpt><trkpt lat="41.00238" lon="13.966965"><ele>4.0</ele><time>2026-05-04T14:21:33.401Z</time></trkpt><trkpt lat="41.0023167" lon="13.967015"><ele>4.0</ele><time>2026-05-04T14:21:34.402Z</time></trkpt><trkpt lat="41.002255" lon="13.967065"><ele>3.9999999999999996</ele><time>2026-05-04T14:21:35.402Z</time></trkpt><trkpt lat="41.002195" lon="13.9671133"><ele>4.0</ele><time>2026-05-04T14:21:36.401Z</time></trkpt><trkpt lat="41.00213" lon="13.9671633"><ele>4.0</ele><time>2026-05-04T14:21:37.403Z</time></trkpt><trkpt lat="41.0020683" lon="13.967215"><ele>3.9999999999999996</ele><time>2026-05-04T14:21:38.401Z</time></trkpt><trkpt lat="41.0020067" lon="13.9672683"><ele>4.0</ele><time>2026-05-04T14:21:39.402Z</time></trkpt><trkpt lat="41.001945" lon="13.9673217"><ele>4.0</ele><time>2026-05-04T14:21:40.402Z</time></trkpt><trkpt lat="41.0018817" lon="13.9673733"><ele>4.0</ele><time>2026-05-04T14:21:41.403Z</time></trkpt><trkpt lat="41.0018217" lon="13.967425"><ele>3.9999999999999996</ele><time>2026-05-04T14:21:42.402Z</time></trkpt><trkpt lat="41.0017617" lon="13.967475"><ele>4.0</ele><time>2026-05-04T14:21:43.402Z</time></trkpt><trkpt lat="41.0017017" lon="13.9675267"><ele>4.0</ele><time>2026-05-04T14:21:44.402Z</time></trkpt><trkpt lat="41.0016383" lon="13.96758"><ele>3.9999999999999996</ele><time>2026-05-04T14:21:45.402Z</time></trkpt><trkpt lat="41.0015767" lon="13.9676333"><ele>4.0</ele><time>2026-05-04T14:21:46.402Z</time></trkpt><trkpt lat="41.0015133" lon="13.9676817"><ele>4.0</ele><time>2026-05-04T14:21:47.401Z</time></trkpt><trkpt lat="41.0014533" lon="13.9677317"><ele>3.8571428571428568</ele><time>2026-05-04T14:21:48.402Z</time></trkpt><trkpt lat="41.0013917" lon="13.9677817"><ele>3.714285714285714</ele><time>2026-05-04T14:21:49.402Z</time></trkpt><trkpt lat="41.0013283" lon="13.9678333"><ele>3.571428571428571</ele><time>2026-05-04T14:21:50.402Z</time></trkpt><trkpt lat="41.001265" lon="13.9678867"><ele>3.4285714285714284</ele><time>2026-05-04T14:21:51.402Z</time></trkpt><trkpt lat="41.0012033" lon="13.96794"><ele>3.2857142857142856</ele><time>2026-05-04T14:21:52.401Z</time></trkpt><trkpt lat="41.001145" lon="13.9679917"><ele>3.1428571428571423</ele><time>2026-05-04T14:21:53.402Z</time></trkpt><trkpt lat="41.001085" lon="13.9680467"><ele>3.0</ele><time>2026-05-04T14:21:54.402Z</time></trkpt><trkpt lat="41.0010217" lon="13.9681"><ele>2.9999999999999996</ele><time>2026-05-04T14:21:55.402Z</time></trkpt><trkpt lat="41.0009583" lon="13.9681517"><ele>3.0</ele><time>2026-05-04T14:21:56.402Z</time></trkpt><trkpt lat="41.0008933" lon="13.9682033"><ele>3.0</ele><time>2026-05-04T14:21:57.402Z</time></trkpt><trkpt lat="41.0008283" lon="13.9682533"><ele>3.0</ele><time>2026-05-04T14:21:58.402Z</time></trkpt><trkpt lat="41.000765" lon="13.9683033"><ele>3.0</ele><time>2026-05-04T14:21:59.401Z</time></trkpt><trkpt lat="41.000705" lon="13.968355"><ele>2.9999999999999996</ele><time>2026-05-04T14:22:00.402Z</time></trkpt><trkpt lat="41.0006433" lon="13.9684083"><ele>3.0</ele><time>2026-05-04T14:22:01.401Z</time></trkpt><trkpt lat="41.00058" lon="13.9684617"><ele>2.714285714285714</ele><time>2026-05-04T14:22:02.401Z</time></trkpt><trkpt lat="41.000515" lon="13.9685133"><ele>2.4285714285714284</ele><time>2026-05-04T14:22:03.403Z</time></trkpt><trkpt lat="41.0004517" lon="13.968565"><ele>2.142857142857143</ele><time>2026-05-04T14:22:04.401Z</time></trkpt><trkpt lat="41.00039" lon="13.968615"><ele>1.857142857142857</ele><time>2026-05-04T14:22:05.401Z</time></trkpt><trkpt lat="41.00033" lon="13.9686633"><ele>1.5714285714285712</ele><time>2026-05-04T14:22:06.401Z</time></trkpt><trkpt lat="41.0002683" lon="13.9687117"><ele>1.2857142857142856</ele><time>2026-05-04T14:22:07.402Z</time></trkpt><trkpt lat="41.0002083" lon="13.9687583"><ele>1.0</ele><time>2026-05-04T14:22:08.402Z</time></trkpt><trkpt lat="41.00015" lon="13.96881"><ele>1.0</ele><time>2026-05-04T14:22:09.402Z</time></trkpt><trkpt lat="41.00009" lon="13.9688617"><ele>0.9999999999999999</ele><time>2026-05-04T14:22:10.401Z</time></trkpt><trkpt lat="41.0000267" lon="13.968915"><ele>1.0</ele><time>2026-05-04T14:22:11.402Z</time></trkpt><trkpt lat="40.999965" lon="13.968965"><ele>1.0</ele><time>2026-05-04T14:22:12.402Z</time></trkpt><trkpt lat="40.9999" lon="13.9690133"><ele>0.9999999999999999</ele><time>2026-05-04T14:22:13.402Z</time></trkpt><trkpt lat="40.9998383" lon="13.9690617"><ele>1.0</ele><time>2026-05-04T14:22:14.401Z</time></trkpt><trkpt lat="40.999775" lon="13.9691117"><ele>1.0</ele><time>2026-05-04T14:22:15.401Z</time></trkpt><trkpt lat="40.999715" lon="13.969165"><ele>1.1428571428571428</ele><time>2026-05-04T14:22:16.401Z</time></trkpt><trkpt lat="40.999655" lon="13.9692183"><ele>1.2857142857142856</ele><time>2026-05-04T14:22:17.402Z</time></trkpt><trkpt lat="40.9995933" lon="13.969275"><ele>1.4285714285714284</ele><time>2026-05-04T14:22:18.402Z</time></trkpt><trkpt lat="40.9995317" lon="13.9693267"><ele>1.5714285714285714</ele><time>2026-05-04T14:22:19.402Z</time></trkpt><trkpt lat="40.99947" lon="13.9693733"><ele>1.714285714285714</ele><time>2026-05-04T14:22:20.402Z</time></trkpt><trkpt lat="40.9994067" lon="13.96942"><ele>1.857142857142857</ele><time>2026-05-04T14:22:21.402Z</time></trkpt><trkpt lat="40.99934" lon="13.969465"><ele>2.0</ele><time>2026-05-04T14:22:22.401Z</time></trkpt><trkpt lat="40.9992767" lon="13.9695133"><ele>2.0</ele><time>2026-05-04T14:22:23.402Z</time></trkpt><trkpt lat="40.999215" lon="13.9695633"><ele>1.9999999999999998</ele><time>2026-05-04T14:22:24.402Z</time></trkpt><trkpt lat="40.9991533" lon="13.969615"><ele>2.0</ele><time>2026-05-04T14:22:25.401Z</time></trkpt><trkpt lat="40.9990917" lon="13.9696667"><ele>2.0</ele><time>2026-05-04T14:22:26.401Z</time></trkpt><trkpt lat="40.99903" lon="13.9697217"><ele>1.9999999999999998</ele><time>2026-05-04T14:22:27.402Z</time></trkpt><trkpt lat="40.99897" lon="13.9697733"><ele>2.0</ele><time>2026-05-04T14:22:28.402Z</time></trkpt><trkpt lat="40.9989117" lon="13.969825"><ele>2.0</ele><time>2026-05-04T14:22:29.402Z</time></trkpt><trkpt lat="40.998855" lon="13.9698767"><ele>2.0</ele><time>2026-05-04T14:22:30.402Z</time></trkpt><trkpt lat="40.9988017" lon="13.9699283"><ele>1.9999999999999998</ele><time>2026-05-04T14:22:31.405Z</time></trkpt><trkpt lat="40.998745" lon="13.969975"><ele>2.0</ele><time>2026-05-04T14:22:32.401Z</time></trkpt><trkpt lat="40.99869" lon="13.9700183"><ele>2.0</ele><time>2026-05-04T14:22:33.402Z</time></trkpt><trkpt lat="40.9986333" lon="13.97006"><ele>1.9999999999999998</ele><time>2026-05-04T14:22:34.402Z</time></trkpt><trkpt lat="40.9985733" lon="13.970105"><ele>2.0</ele><time>2026-05-04T14:22:35.402Z</time></trkpt><trkpt lat="40.99851" lon="13.97015"><ele>2.0</ele><time>2026-05-04T14:22:36.402Z</time></trkpt><trkpt lat="40.9984517" lon="13.9701983"><ele>2.0</ele><time>2026-05-04T14:22:37.402Z</time></trkpt><trkpt lat="40.99839" lon="13.970245"><ele>1.9999999999999998</ele><time>2026-05-04T14:22:38.402Z</time></trkpt><trkpt lat="40.9983283" lon="13.9702967"><ele>2.0</ele><time>2026-05-04T14:22:39.402Z</time></trkpt><trkpt lat="40.9982683" lon="13.97035"><ele>2.0</ele><time>2026-05-04T14:22:40.401Z</time></trkpt><trkpt lat="40.99821" lon="13.9704033"><ele>1.9999999999999998</ele><time>2026-05-04T14:22:41.402Z</time></trkpt><trkpt lat="40.9981467" lon="13.9704533"><ele>2.0</ele><time>2026-05-04T14:22:42.402Z</time></trkpt><trkpt lat="40.9980817" lon="13.9705033"><ele>2.0</ele><time>2026-05-04T14:22:43.401Z</time></trkpt><trkpt lat="40.99802" lon="13.9705517"><ele>1.9999999999999998</ele><time>2026-05-04T14:22:44.402Z</time></trkpt><trkpt lat="40.9979567" lon="13.9706033"><ele>2.0</ele><time>2026-05-04T14:22:45.401Z</time></trkpt><trkpt lat="40.9978917" lon="13.9706567"><ele>2.0</ele><time>2026-05-04T14:22:46.402Z</time></trkpt><trkpt lat="40.997825" lon="13.9707083"><ele>2.0</ele><time>2026-05-04T14:22:47.401Z</time></trkpt><trkpt lat="40.9977633" lon="13.9707617"><ele>1.9999999999999998</ele><time>2026-05-04T14:22:48.406Z</time></trkpt><trkpt lat="40.9977" lon="13.9708183"><ele>2.0</ele><time>2026-05-04T14:22:49.402Z</time></trkpt><trkpt lat="40.9976367" lon="13.9708717"><ele>2.0</ele><time>2026-05-04T14:22:50.401Z</time></trkpt><trkpt lat="40.9975733" lon="13.9709167"><ele>1.9999999999999998</ele><time>2026-05-04T14:22:51.402Z</time></trkpt><trkpt lat="40.9975183" lon="13.9709683"><ele>2.0</ele><time>2026-05-04T14:22:52.403Z</time></trkpt><trkpt lat="40.9974617" lon="13.9710217"><ele>2.0</ele><time>2026-05-04T14:22:53.402Z</time></trkpt><trkpt lat="40.997405" lon="13.9710767"><ele>1.9999999999999998</ele><time>2026-05-04T14:22:54.402Z</time></trkpt><trkpt lat="40.9973533" lon="13.9711383"><ele>2.0</ele><time>2026-05-04T14:22:55.402Z</time></trkpt><trkpt lat="40.9973017" lon="13.9712017"><ele>2.0</ele><time>2026-05-04T14:22:56.402Z</time></trkpt><trkpt lat="40.9972467" lon="13.9712633"><ele>2.2857142857142856</ele><time>2026-05-04T14:22:57.402Z</time></trkpt><trkpt lat="40.9971917" lon="13.971325"><ele>2.571428571428571</ele><time>2026-05-04T14:22:58.402Z</time></trkpt><trkpt lat="40.9971367" lon="13.9713767"><ele>2.8571428571428568</ele><time>2026-05-04T14:22:59.402Z</time></trkpt><trkpt lat="40.9970783" lon="13.9714267"><ele>3.142857142857143</ele><time>2026-05-04T14:23:00.403Z</time></trkpt><trkpt lat="40.9970183" lon="13.971475"><ele>3.428571428571428</ele><time>2026-05-04T14:23:01.403Z</time></trkpt><trkpt lat="40.99696" lon="13.971525"><ele>3.714285714285714</ele><time>2026-05-04T14:23:02.402Z</time></trkpt><trkpt lat="40.9969" lon="13.9715767"><ele>4.0</ele><time>2026-05-04T14:23:03.401Z</time></trkpt><trkpt lat="40.9968417" lon="13.9716317"><ele>4.0</ele><time>2026-05-04T14:23:04.402Z</time></trkpt><trkpt lat="40.9967817" lon="13.971685"><ele>3.9999999999999996</ele><time>2026-05-04T14:23:05.402Z</time></trkpt><trkpt lat="40.9967217" lon="13.9717367"><ele>4.0</ele><time>2026-05-04T14:23:06.403Z</time></trkpt><trkpt lat="40.9966583" lon="13.9717883"><ele>4.0</ele><time>2026-05-04T14:23:07.402Z</time></trkpt><trkpt lat="40.99659" lon="13.971845"><ele>3.9999999999999996</ele><time>2026-05-04T14:23:08.401Z</time></trkpt><trkpt lat="40.9965283" lon="13.9718983"><ele>4.0</ele><time>2026-05-04T14:23:09.401Z</time></trkpt><trkpt lat="40.9964633" lon="13.9719517"><ele>4.0</ele><time>2026-05-04T14:23:10.403Z</time></trkpt><trkpt lat="40.9964" lon="13.9720033"><ele>4.428571428571429</ele><time>2026-05-04T14:23:11.402Z</time></trkpt><trkpt lat="40.996335" lon="13.97205"><ele>4.857142857142857</ele><time>2026-05-04T14:23:12.402Z</time></trkpt><trkpt lat="40.9962667" lon="13.97209"><ele>5.285714285714286</ele><time>2026-05-04T14:23:13.403Z</time></trkpt><trkpt lat="40.9961967" lon="13.9721217"><ele>5.714285714285714</ele><time>2026-05-04T14:23:14.402Z</time></trkpt><trkpt lat="40.9961233" lon="13.972155"><ele>6.142857142857142</ele><time>2026-05-04T14:23:15.402Z</time></trkpt><trkpt lat="40.9960567" lon="13.9721883"><ele>6.571428571428571</ele><time>2026-05-04T14:23:16.401Z</time></trkpt><trkpt lat="40.9959867" lon="13.9722267"><ele>7.0</ele><time>2026-05-04T14:23:17.402Z</time></trkpt><trkpt lat="40.9959217" lon="13.97227"><ele>7.0</ele><time>2026-05-04T14:23:18.403Z</time></trkpt><trkpt lat="40.9958567" lon="13.9723217"><ele>7.0</ele><time>2026-05-04T14:23:19.403Z</time></trkpt><trkpt lat="40.9957933" lon="13.9723717"><ele>7.0</ele><time>2026-05-04T14:23:20.402Z</time></trkpt><trkpt lat="40.9957317" lon="13.9724267"><ele>7.0</ele><time>2026-05-04T14:23:21.402Z</time></trkpt><trkpt lat="40.9956683" lon="13.9724783"><ele>7.0</ele><time>2026-05-04T14:23:22.401Z</time></trkpt><trkpt lat="40.995605" lon="13.9725283"><ele>7.0</ele><time>2026-05-04T14:23:23.402Z</time></trkpt><trkpt lat="40.99554" lon="13.97258"><ele>7.0</ele><time>2026-05-04T14:23:24.402Z</time></trkpt><trkpt lat="40.9954767" lon="13.972635"><ele>6.333333333333334</ele><time>2026-05-04T14:23:25.402Z</time></trkpt><trkpt lat="40.9954117" lon="13.9726883"><ele>5.666666666666667</ele><time>2026-05-04T14:23:26.402Z</time></trkpt><trkpt lat="40.9953483" lon="13.97274"><ele>5.0</ele><time>2026-05-04T14:23:27.402Z</time></trkpt><trkpt lat="40.995285" lon="13.9727933"><ele>4.333333333333334</ele><time>2026-05-04T14:23:28.402Z</time></trkpt><trkpt lat="40.99522" lon="13.9728467"><ele>3.666666666666667</ele><time>2026-05-04T14:23:29.402Z</time></trkpt><trkpt lat="40.9951533" lon="13.9729"><ele>3.0</ele><time>2026-05-04T14:23:30.403Z</time></trkpt><trkpt lat="40.9950867" lon="13.9729533"><ele>3.0</ele><time>2026-05-04T14:23:31.402Z</time></trkpt><trkpt lat="40.9950217" lon="13.9730067"><ele>3.0</ele><time>2026-05-04T14:23:32.402Z</time></trkpt><trkpt lat="40.9949533" lon="13.9730617"><ele>3.0</ele><time>2026-05-04T14:23:33.402Z</time></trkpt><trkpt lat="40.9948867" lon="13.973115"><ele>3.0</ele><time>2026-05-04T14:23:34.403Z</time></trkpt><trkpt lat="40.9948217" lon="13.97317"><ele>3.0</ele><time>2026-05-04T14:23:35.402Z</time></trkpt><trkpt lat="40.9947617" lon="13.9732233"><ele>3.0</ele><time>2026-05-04T14:23:36.401Z</time></trkpt><trkpt lat="40.9947" lon="13.97328"><ele>3.1666666666666665</ele><time>2026-05-04T14:23:37.402Z</time></trkpt><trkpt lat="40.9946367" lon="13.973335"><ele>3.333333333333333</ele><time>2026-05-04T14:23:38.402Z</time></trkpt><trkpt lat="40.9945683" lon="13.9733867"><ele>3.5</ele><time>2026-05-04T14:23:39.402Z</time></trkpt><trkpt lat="40.9945033" lon="13.9734383"><ele>3.6666666666666665</ele><time>2026-05-04T14:23:40.408Z</time></trkpt><trkpt lat="40.99444" lon="13.9734933"><ele>3.833333333333333</ele><time>2026-05-04T14:23:41.403Z</time></trkpt><trkpt lat="40.9943733" lon="13.9735483"><ele>4.0</ele><time>2026-05-04T14:23:42.402Z</time></trkpt><trkpt lat="40.9943083" lon="13.973605"><ele>3.9999999999999996</ele><time>2026-05-04T14:23:43.401Z</time></trkpt><trkpt lat="40.994245" lon="13.9736633"><ele>4.0</ele><time>2026-05-04T14:23:44.402Z</time></trkpt><trkpt lat="40.99418" lon="13.97372"><ele>4.0</ele><time>2026-05-04T14:23:45.401Z</time></trkpt><trkpt lat="40.994115" lon="13.9737767"><ele>4.0</ele><time>2026-05-04T14:23:46.401Z</time></trkpt><trkpt lat="40.9940483" lon="13.97383"><ele>3.9999999999999996</ele><time>2026-05-04T14:23:47.401Z</time></trkpt><trkpt lat="40.993985" lon="13.9738817"><ele>4.0</ele><time>2026-05-04T14:23:48.401Z</time></trkpt><trkpt lat="40.9939183" lon="13.9739317"><ele>3.833333333333333</ele><time>2026-05-04T14:23:49.402Z</time></trkpt><trkpt lat="40.9938567" lon="13.973985"><ele>3.6666666666666665</ele><time>2026-05-04T14:23:50.402Z</time></trkpt><trkpt lat="40.9937917" lon="13.9740367"><ele>3.5</ele><time>2026-05-04T14:23:51.402Z</time></trkpt><trkpt lat="40.9937283" lon="13.9740917"><ele>3.333333333333333</ele><time>2026-05-04T14:23:52.402Z</time></trkpt><trkpt lat="40.9936617" lon="13.9741417"><ele>3.1666666666666665</ele><time>2026-05-04T14:23:53.402Z</time></trkpt><trkpt lat="40.993595" lon="13.9741933"><ele>3.0</ele><time>2026-05-04T14:23:54.402Z</time></trkpt><trkpt lat="40.9935317" lon="13.97425"><ele>3.0</ele><time>2026-05-04T14:23:55.402Z</time></trkpt><trkpt lat="40.9934667" lon="13.9743017"><ele>3.0</ele><time>2026-05-04T14:23:56.402Z</time></trkpt><trkpt lat="40.9934017" lon="13.9743533"><ele>3.0</ele><time>2026-05-04T14:23:57.402Z</time></trkpt><trkpt lat="40.9933383" lon="13.974405"><ele>3.0</ele><time>2026-05-04T14:23:58.402Z</time></trkpt><trkpt lat="40.9932733" lon="13.9744583"><ele>3.0</ele><time>2026-05-04T14:23:59.401Z</time></trkpt><trkpt lat="40.9932117" lon="13.9745117"><ele>3.0</ele><time>2026-05-04T14:24:00.401Z</time></trkpt><trkpt lat="40.993145" lon="13.9745633"><ele>3.1666666666666665</ele><time>2026-05-04T14:24:01.402Z</time></trkpt><trkpt lat="40.9930767" lon="13.974615"><ele>3.333333333333333</ele><time>2026-05-04T14:24:02.402Z</time></trkpt><trkpt lat="40.9930133" lon="13.9746667"><ele>3.5</ele><time>2026-05-04T14:24:03.402Z</time></trkpt><trkpt lat="40.9929483" lon="13.97472"><ele>3.6666666666666665</ele><time>2026-05-04T14:24:04.402Z</time></trkpt><trkpt lat="40.9928833" lon="13.9747733"><ele>3.833333333333333</ele><time>2026-05-04T14:24:05.402Z</time></trkpt><trkpt lat="40.9928183" lon="13.9748233"><ele>4.0</ele><time>2026-05-04T14:24:06.401Z</time></trkpt><trkpt lat="40.99275" lon="13.9748717"><ele>3.9999999999999996</ele><time>2026-05-04T14:24:07.402Z</time></trkpt><trkpt lat="40.99268" lon="13.9749217"><ele>4.0</ele><time>2026-05-04T14:24:08.403Z</time></trkpt><trkpt lat="40.992615" lon="13.9749767"><ele>4.0</ele><time>2026-05-04T14:24:09.401Z</time></trkpt><trkpt lat="40.99255" lon="13.9750333"><ele>4.0</ele><time>2026-05-04T14:24:10.402Z</time></trkpt><trkpt lat="40.9924867" lon="13.9750867"><ele>3.9999999999999996</ele><time>2026-05-04T14:24:11.402Z</time></trkpt><trkpt lat="40.992425" lon="13.97514"><ele>4.0</ele><time>2026-05-04T14:24:12.403Z</time></trkpt><trkpt lat="40.9923617" lon="13.975195"><ele>3.8571428571428568</ele><time>2026-05-04T14:24:13.401Z</time></trkpt><trkpt lat="40.9922983" lon="13.9752533"><ele>3.714285714285714</ele><time>2026-05-04T14:24:14.402Z</time></trkpt><trkpt lat="40.992235" lon="13.9753067"><ele>3.571428571428571</ele><time>2026-05-04T14:24:15.402Z</time></trkpt><trkpt lat="40.992175" lon="13.9753567"><ele>3.4285714285714284</ele><time>2026-05-04T14:24:16.402Z</time></trkpt><trkpt lat="40.9921133" lon="13.975405"><ele>3.2857142857142856</ele><time>2026-05-04T14:24:17.403Z</time></trkpt><trkpt lat="40.9920533" lon="13.9754567"><ele>3.1428571428571423</ele><time>2026-05-04T14:24:18.403Z</time></trkpt><trkpt lat="40.9919933" lon="13.97551"><ele>3.0</ele><time>2026-05-04T14:24:19.403Z</time></trkpt><trkpt lat="40.9919283" lon="13.97556"><ele>3.0</ele><time>2026-05-04T14:24:20.401Z</time></trkpt><trkpt lat="40.99186" lon="13.9756067"><ele>3.0</ele><time>2026-05-04T14:24:21.402Z</time></trkpt><trkpt lat="40.9917917" lon="13.9756567"><ele>3.0</ele><time>2026-05-04T14:24:22.401Z</time></trkpt><trkpt lat="40.9917283" lon="13.97571"><ele>3.0</ele><time>2026-05-04T14:24:23.402Z</time></trkpt><trkpt lat="40.991665" lon="13.9757667"><ele>3.0</ele><time>2026-05-04T14:24:24.403Z</time></trkpt><trkpt lat="40.9916017" lon="13.9758217"><ele>3.0</ele><time>2026-05-04T14:24:25.403Z</time></trkpt><trkpt lat="40.99154" lon="13.9758767"><ele>3.1428571428571423</ele><time>2026-05-04T14:24:26.402Z</time></trkpt><trkpt lat="40.99148" lon="13.97593"><ele>3.2857142857142856</ele><time>2026-05-04T14:24:27.402Z</time></trkpt><trkpt lat="40.9914183" lon="13.9759817"><ele>3.4285714285714284</ele><time>2026-05-04T14:24:28.402Z</time></trkpt><trkpt lat="40.9913583" lon="13.9760333"><ele>3.571428571428571</ele><time>2026-05-04T14:24:29.401Z</time></trkpt><trkpt lat="40.991295" lon="13.9760867"><ele>3.714285714285714</ele><time>2026-05-04T14:24:30.402Z</time></trkpt><trkpt lat="40.9912317" lon="13.9761367"><ele>3.8571428571428568</ele><time>2026-05-04T14:24:31.402Z</time></trkpt><trkpt lat="40.9911717" lon="13.97619"><ele>4.0</ele><time>2026-05-04T14:24:32.402Z</time></trkpt><trkpt lat="40.991105" lon="13.976245"><ele>3.9999999999999996</ele><time>2026-05-04T14:24:33.402Z</time></trkpt><trkpt lat="40.9910367" lon="13.9762967"><ele>4.0</ele><time>2026-05-04T14:24:34.401Z</time></trkpt><trkpt lat="40.9909683" lon="13.9763517"><ele>4.0</ele><time>2026-05-04T14:24:35.403Z</time></trkpt><trkpt lat="40.9908983" lon="13.9763967"><ele>4.0</ele><time>2026-05-04T14:24:36.401Z</time></trkpt><trkpt lat="40.99083" lon="13.97644"><ele>3.9999999999999996</ele><time>2026-05-04T14:24:37.404Z</time></trkpt><trkpt lat="40.9907633" lon="13.976485"><ele>4.0</ele><time>2026-05-04T14:24:38.402Z</time></trkpt><trkpt lat="40.9907033" lon="13.976535"><ele>3.8571428571428568</ele><time>2026-05-04T14:24:39.402Z</time></trkpt><trkpt lat="40.9906433" lon="13.97659"><ele>3.714285714285714</ele><time>2026-05-04T14:24:40.402Z</time></trkpt><trkpt lat="40.9905833" lon="13.9766383"><ele>3.571428571428571</ele><time>2026-05-04T14:24:41.402Z</time></trkpt><trkpt lat="40.99052" lon="13.9766883"><ele>3.4285714285714284</ele><time>2026-05-04T14:24:42.401Z</time></trkpt><trkpt lat="40.9904583" lon="13.97674"><ele>3.2857142857142856</ele><time>2026-05-04T14:24:43.404Z</time></trkpt><trkpt lat="40.9903983" lon="13.9767933"><ele>3.1428571428571423</ele><time>2026-05-04T14:24:44.401Z</time></trkpt><trkpt lat="40.9903317" lon="13.9768517"><ele>3.0</ele><time>2026-05-04T14:24:45.402Z</time></trkpt><trkpt lat="40.9902667" lon="13.976905"><ele>2.9999999999999996</ele><time>2026-05-04T14:24:46.401Z</time></trkpt><trkpt lat="40.9902017" lon="13.9769567"><ele>3.0</ele><time>2026-05-04T14:24:47.402Z</time></trkpt><trkpt lat="40.99014" lon="13.9770083"><ele>3.0</ele><time>2026-05-04T14:24:48.402Z</time></trkpt><trkpt lat="40.9900767" lon="13.977055"><ele>3.0</ele><time>2026-05-04T14:24:49.403Z</time></trkpt><trkpt lat="40.9900133" lon="13.977105"><ele>3.0</ele><time>2026-05-04T14:24:50.403Z</time></trkpt><trkpt lat="40.9899517" lon="13.9771583"><ele>2.9999999999999996</ele><time>2026-05-04T14:24:51.402Z</time></trkpt><trkpt lat="40.9898867" lon="13.97721"><ele>3.0</ele><time>2026-05-04T14:24:52.403Z</time></trkpt><trkpt lat="40.9898233" lon="13.9772617"><ele>3.0</ele><time>2026-05-04T14:24:53.402Z</time></trkpt><trkpt lat="40.9897617" lon="13.9773133"><ele>3.0</ele><time>2026-05-04T14:24:54.402Z</time></trkpt><trkpt lat="40.9897017" lon="13.9773667"><ele>3.0</ele><time>2026-05-04T14:24:55.403Z</time></trkpt><trkpt lat="40.9896417" lon="13.977425"><ele>3.0</ele><time>2026-05-04T14:24:56.402Z</time></trkpt><trkpt lat="40.9895767" lon="13.9774833"><ele>3.0</ele><time>2026-05-04T14:24:57.402Z</time></trkpt><trkpt lat="40.989515" lon="13.97754"><ele>3.0</ele><time>2026-05-04T14:24:58.403Z</time></trkpt><trkpt lat="40.98945" lon="13.977595"><ele>3.0</ele><time>2026-05-04T14:24:59.403Z</time></trkpt><trkpt lat="40.9893833" lon="13.97765"><ele>3.0</ele><time>2026-05-04T14:25:00.402Z</time></trkpt><trkpt lat="40.989315" lon="13.9777033"><ele>3.0</ele><time>2026-05-04T14:25:01.402Z</time></trkpt><trkpt lat="40.9892433" lon="13.9777583"><ele>3.0</ele><time>2026-05-04T14:25:02.402Z</time></trkpt><trkpt lat="40.9891767" lon="13.9778117"><ele>3.0</ele><time>2026-05-04T14:25:03.402Z</time></trkpt><trkpt lat="40.9891067" lon="13.9778617"><ele>3.0</ele><time>2026-05-04T14:25:04.402Z</time></trkpt><trkpt lat="40.98904" lon="13.9779117"><ele>3.1666666666666665</ele><time>2026-05-04T14:25:05.403Z</time></trkpt><trkpt lat="40.988975" lon="13.9779667"><ele>3.333333333333333</ele><time>2026-05-04T14:25:06.401Z</time></trkpt><trkpt lat="40.98891" lon="13.97802"><ele>3.5</ele><time>2026-05-04T14:25:07.403Z</time></trkpt><trkpt lat="40.988845" lon="13.9780733"><ele>3.6666666666666665</ele><time>2026-05-04T14:25:08.402Z</time></trkpt><trkpt lat="40.9887817" lon="13.9781267"><ele>3.833333333333333</ele><time>2026-05-04T14:25:09.401Z</time></trkpt><trkpt lat="40.9887183" lon="13.9781783"><ele>4.0</ele><time>2026-05-04T14:25:10.401Z</time></trkpt><trkpt lat="40.9886517" lon="13.97823"><ele>4.0</ele><time>2026-05-04T14:25:11.402Z</time></trkpt><trkpt lat="40.9885867" lon="13.9782833"><ele>3.9999999999999996</ele><time>2026-05-04T14:25:12.403Z</time></trkpt><trkpt lat="40.98852" lon="13.9783367"><ele>4.0</ele><time>2026-05-04T14:25:13.403Z</time></trkpt><trkpt lat="40.9884567" lon="13.978385"><ele>4.0</ele><time>2026-05-04T14:25:14.407Z</time></trkpt><trkpt lat="40.9883917" lon="13.9784317"><ele>3.9999999999999996</ele><time>2026-05-04T14:25:15.402Z</time></trkpt><trkpt lat="40.9883333" lon="13.9784833"><ele>4.0</ele><time>2026-05-04T14:25:16.402Z</time></trkpt><trkpt lat="40.9882733" lon="13.9785367"><ele>4.0</ele><time>2026-05-04T14:25:17.403Z</time></trkpt><trkpt lat="40.9882083" lon="13.9785917"><ele>4.166666666666666</ele><time>2026-05-04T14:25:18.402Z</time></trkpt><trkpt lat="40.9881417" lon="13.9786467"><ele>4.333333333333333</ele><time>2026-05-04T14:25:19.403Z</time></trkpt><trkpt lat="40.98808" lon="13.9787067"><ele>4.5</ele><time>2026-05-04T14:25:20.403Z</time></trkpt><trkpt lat="40.988015" lon="13.9787617"><ele>4.666666666666667</ele><time>2026-05-04T14:25:21.402Z</time></trkpt><trkpt lat="40.9879483" lon="13.978815"><ele>4.833333333333334</ele><time>2026-05-04T14:25:22.402Z</time></trkpt><trkpt lat="40.9878833" lon="13.9788683"><ele>5.0</ele><time>2026-05-04T14:25:23.402Z</time></trkpt><trkpt lat="40.9878167" lon="13.9789217"><ele>5.0</ele><time>2026-05-04T14:25:24.403Z</time></trkpt><trkpt lat="40.98775" lon="13.9789767"><ele>5.0</ele><time>2026-05-04T14:25:25.402Z</time></trkpt><trkpt lat="40.9876833" lon="13.9790283"><ele>5.0</ele><time>2026-05-04T14:25:26.401Z</time></trkpt><trkpt lat="40.9876183" lon="13.9790833"><ele>5.0</ele><time>2026-05-04T14:25:27.401Z</time></trkpt><trkpt lat="40.9875533" lon="13.9791333"><ele>5.0</ele><time>2026-05-04T14:25:28.401Z</time></trkpt><trkpt lat="40.9874883" lon="13.9791883"><ele>5.0</ele><time>2026-05-04T14:25:29.403Z</time></trkpt><trkpt lat="40.98742" lon="13.9792483"><ele>4.5</ele><time>2026-05-04T14:25:30.401Z</time></trkpt><trkpt lat="40.98735" lon="13.9793033"><ele>4.0</ele><time>2026-05-04T14:25:31.403Z</time></trkpt><trkpt lat="40.9872867" lon="13.9793567"><ele>3.5</ele><time>2026-05-04T14:25:32.403Z</time></trkpt><trkpt lat="40.987225" lon="13.9794083"><ele>3.0</ele><time>2026-05-04T14:25:33.403Z</time></trkpt><trkpt lat="40.9871633" lon="13.9794583"><ele>2.5</ele><time>2026-05-04T14:25:34.402Z</time></trkpt><trkpt lat="40.9870983" lon="13.9795083"><ele>2.0</ele><time>2026-05-04T14:25:35.403Z</time></trkpt><trkpt lat="40.98703" lon="13.97956"><ele>1.9999999999999998</ele><time>2026-05-04T14:25:36.402Z</time></trkpt><trkpt lat="40.9869617" lon="13.9796033"><ele>2.0</ele><time>2026-05-04T14:25:37.403Z</time></trkpt><trkpt lat="40.98689" lon="13.9796417"><ele>2.0</ele><time>2026-05-04T14:25:38.403Z</time></trkpt><trkpt lat="40.9868167" lon="13.9796783"><ele>2.0</ele><time>2026-05-04T14:25:39.402Z</time></trkpt><trkpt lat="40.9867433" lon="13.9797183"><ele>1.9999999999999998</ele><time>2026-05-04T14:25:40.401Z</time></trkpt><trkpt lat="40.98667" lon="13.97976"><ele>2.0</ele><time>2026-05-04T14:25:41.402Z</time></trkpt><trkpt lat="40.9866" lon="13.9797983"><ele>2.1666666666666665</ele><time>2026-05-04T14:25:42.402Z</time></trkpt><trkpt lat="40.9865333" lon="13.97984"><ele>2.333333333333333</ele><time>2026-05-04T14:25:43.403Z</time></trkpt><trkpt lat="40.986465" lon="13.9798833"><ele>2.5</ele><time>2026-05-04T14:25:44.402Z</time></trkpt><trkpt lat="40.9863933" lon="13.9799283"><ele>2.6666666666666665</ele><time>2026-05-04T14:25:45.402Z</time></trkpt><trkpt lat="40.98632" lon="13.9799767"><ele>2.8333333333333335</ele><time>2026-05-04T14:25:46.403Z</time></trkpt><trkpt lat="40.986255" lon="13.9800333"><ele>3.0</ele><time>2026-05-04T14:25:47.401Z</time></trkpt><trkpt lat="40.9861883" lon="13.980095"><ele>3.0</ele><time>2026-05-04T14:25:48.403Z</time></trkpt><trkpt lat="40.9861267" lon="13.9801633"><ele>3.0</ele><time>2026-05-04T14:25:49.402Z</time></trkpt><trkpt lat="40.9860683" lon="13.9802383"><ele>3.0</ele><time>2026-05-04T14:25:50.403Z</time></trkpt><trkpt lat="40.9860117" lon="13.9803133"><ele>3.0</ele><time>2026-05-04T14:25:51.402Z</time></trkpt><trkpt lat="40.98595" lon="13.9803867"><ele>3.0</ele><time>2026-05-04T14:25:52.402Z</time></trkpt><trkpt lat="40.9858883" lon="13.9804583"><ele>3.0</ele><time>2026-05-04T14:25:53.402Z</time></trkpt><trkpt lat="40.9858317" lon="13.9805317"><ele>3.3333333333333335</ele><time>2026-05-04T14:25:54.403Z</time></trkpt><trkpt lat="40.98577" lon="13.980605"><ele>3.666666666666667</ele><time>2026-05-04T14:25:55.402Z</time></trkpt><trkpt lat="40.9857083" lon="13.9806767"><ele>4.0</ele><time>2026-05-04T14:25:56.401Z</time></trkpt><trkpt lat="40.9856467" lon="13.9807433"><ele>4.333333333333334</ele><time>2026-05-04T14:25:57.402Z</time></trkpt><trkpt lat="40.9855833" lon="13.9808017"><ele>4.666666666666667</ele><time>2026-05-04T14:25:58.402Z</time></trkpt><trkpt lat="40.9855167" lon="13.980855"><ele>5.0</ele><time>2026-05-04T14:25:59.403Z</time></trkpt><trkpt lat="40.9854517" lon="13.98091"><ele>5.0</ele><time>2026-05-04T14:26:00.402Z</time></trkpt><trkpt lat="40.985385" lon="13.9809667"><ele>5.0</ele><time>2026-05-04T14:26:01.405Z</time></trkpt><trkpt lat="40.9853183" lon="13.9810267"><ele>5.0</ele><time>2026-05-04T14:26:02.402Z</time></trkpt><trkpt lat="40.9852533" lon="13.9810883"><ele>5.0</ele><time>2026-05-04T14:26:03.401Z</time></trkpt><trkpt lat="40.985185" lon="13.9811417"><ele>5.0</ele><time>2026-05-04T14:26:04.404Z</time></trkpt><trkpt lat="40.985115" lon="13.98119"><ele>5.0</ele><time>2026-05-04T14:26:05.403Z</time></trkpt><trkpt lat="40.9850417" lon="13.98124"><ele>5.0</ele><time>2026-05-04T14:26:06.403Z</time></trkpt><trkpt lat="40.98498" lon="13.9812917"><ele>5.0</ele><time>2026-05-04T14:26:07.403Z</time></trkpt><trkpt lat="40.9849167" lon="13.9813483"><ele>5.0</ele><time>2026-05-04T14:26:08.402Z</time></trkpt><trkpt lat="40.98485" lon="13.9814033"><ele>5.0</ele><time>2026-05-04T14:26:09.401Z</time></trkpt><trkpt lat="40.98478" lon="13.9814583"><ele>5.0</ele><time>2026-05-04T14:26:10.403Z</time></trkpt><trkpt lat="40.9847117" lon="13.9815133"><ele>5.0</ele><time>2026-05-04T14:26:11.403Z</time></trkpt><trkpt lat="40.9846433" lon="13.9815683"><ele>5.0</ele><time>2026-05-04T14:26:12.403Z</time></trkpt><trkpt lat="40.984575" lon="13.9816233"><ele>5.0</ele><time>2026-05-04T14:26:13.403Z</time></trkpt><trkpt lat="40.9845067" lon="13.98168"><ele>5.0</ele><time>2026-05-04T14:26:14.403Z</time></trkpt><trkpt lat="40.9844383" lon="13.9817367"><ele>5.0</ele><time>2026-05-04T14:26:15.402Z</time></trkpt><trkpt lat="40.9843733" lon="13.981795"><ele>5.0</ele><time>2026-05-04T14:26:16.403Z</time></trkpt><trkpt lat="40.9843083" lon="13.981855"><ele>5.0</ele><time>2026-05-04T14:26:17.403Z</time></trkpt><trkpt lat="40.984245" lon="13.9819167"><ele>5.166666666666667</ele><time>2026-05-04T14:26:18.403Z</time></trkpt><trkpt lat="40.9841783" lon="13.9819783"><ele>5.333333333333334</ele><time>2026-05-04T14:26:19.402Z</time></trkpt><trkpt lat="40.9841133" lon="13.982035"><ele>5.5</ele><time>2026-05-04T14:26:20.403Z</time></trkpt><trkpt lat="40.9840467" lon="13.98209"><ele>5.666666666666667</ele><time>2026-05-04T14:26:21.403Z</time></trkpt><trkpt lat="40.9839783" lon="13.982145"><ele>5.833333333333333</ele><time>2026-05-04T14:26:22.403Z</time></trkpt><trkpt lat="40.98391" lon="13.9822"><ele>6.0</ele><time>2026-05-04T14:26:23.403Z</time></trkpt><trkpt lat="40.98384" lon="13.9822583"><ele>6.0</ele><time>2026-05-04T14:26:24.403Z</time></trkpt><trkpt lat="40.98377" lon="13.9823133"><ele>6.0</ele><time>2026-05-04T14:26:25.403Z</time></trkpt><trkpt lat="40.9836967" lon="13.982365"><ele>6.0</ele><time>2026-05-04T14:26:26.403Z</time></trkpt><trkpt lat="40.9836283" lon="13.9824217"><ele>6.0</ele><time>2026-05-04T14:26:27.403Z</time></trkpt><trkpt lat="40.9835567" lon="13.9824767"><ele>6.0</ele><time>2026-05-04T14:26:28.403Z</time></trkpt><trkpt lat="40.983485" lon="13.982535"><ele>6.0</ele><time>2026-05-04T14:26:29.403Z</time></trkpt><trkpt lat="40.9834133" lon="13.982595"><ele>5.5</ele><time>2026-05-04T14:26:30.402Z</time></trkpt><trkpt lat="40.9833417" lon="13.9826533"><ele>5.0</ele><time>2026-05-04T14:26:31.402Z</time></trkpt><trkpt lat="40.9832717" lon="13.9827067"><ele>4.5</ele><time>2026-05-04T14:26:32.402Z</time></trkpt><trkpt lat="40.9832017" lon="13.9827667"><ele>4.0</ele><time>2026-05-04T14:26:33.402Z</time></trkpt><trkpt lat="40.9831333" lon="13.982825"><ele>3.5</ele><time>2026-05-04T14:26:34.402Z</time></trkpt><trkpt lat="40.9830633" lon="13.9828783"><ele>3.0</ele><time>2026-05-04T14:26:35.402Z</time></trkpt><trkpt lat="40.9829933" lon="13.9829333"><ele>3.0</ele><time>2026-05-04T14:26:36.402Z</time></trkpt><trkpt lat="40.9829267" lon="13.982995"><ele>3.0</ele><time>2026-05-04T14:26:37.403Z</time></trkpt><trkpt lat="40.9828567" lon="13.9830533"><ele>3.0</ele><time>2026-05-04T14:26:38.403Z</time></trkpt><trkpt lat="40.9827883" lon="13.9831133"><ele>3.0</ele><time>2026-05-04T14:26:39.402Z</time></trkpt><trkpt lat="40.9827183" lon="13.9831717"><ele>3.0</ele><time>2026-05-04T14:26:40.403Z</time></trkpt><trkpt lat="40.9826517" lon="13.9832333"><ele>3.0</ele><time>2026-05-04T14:26:41.403Z</time></trkpt><trkpt lat="40.9825817" lon="13.9832917"><ele>3.0</ele><time>2026-05-04T14:26:42.402Z</time></trkpt><trkpt lat="40.9825133" lon="13.9833517"><ele>3.0</ele><time>2026-05-04T14:26:43.403Z</time></trkpt><trkpt lat="40.9824433" lon="13.9834133"><ele>3.0</ele><time>2026-05-04T14:26:44.403Z</time></trkpt><trkpt lat="40.9823733" lon="13.9834733"><ele>3.0</ele><time>2026-05-04T14:26:45.403Z</time></trkpt><trkpt lat="40.9823017" lon="13.9835317"><ele>3.0</ele><time>2026-05-04T14:26:46.403Z</time></trkpt><trkpt lat="40.9822283" lon="13.9835917"><ele>3.0</ele><time>2026-05-04T14:26:47.402Z</time></trkpt><trkpt lat="40.9821567" lon="13.98365"><ele>3.0</ele><time>2026-05-04T14:26:48.403Z</time></trkpt><trkpt lat="40.982085" lon="13.9837067"><ele>3.0</ele><time>2026-05-04T14:26:49.403Z</time></trkpt><trkpt lat="40.98201" lon="13.983765"><ele>3.0</ele><time>2026-05-04T14:26:50.403Z</time></trkpt><trkpt lat="40.98194" lon="13.983825"><ele>3.0</ele><time>2026-05-04T14:26:51.403Z</time></trkpt><trkpt lat="40.9818717" lon="13.983885"><ele>3.0</ele><time>2026-05-04T14:26:52.403Z</time></trkpt><trkpt lat="40.981805" lon="13.983945"><ele>3.0</ele><time>2026-05-04T14:26:53.402Z</time></trkpt><trkpt lat="40.9817367" lon="13.984005"><ele>3.0</ele><time>2026-05-04T14:26:54.402Z</time></trkpt><trkpt lat="40.9816667" lon="13.9840617"><ele>3.0</ele><time>2026-05-04T14:26:55.403Z</time></trkpt><trkpt lat="40.9815967" lon="13.9841167"><ele>3.0</ele><time>2026-05-04T14:26:56.403Z</time></trkpt><trkpt lat="40.9815283" lon="13.984175"><ele>3.0</ele><time>2026-05-04T14:26:57.402Z</time></trkpt><trkpt lat="40.98146" lon="13.9842333"><ele>3.0</ele><time>2026-05-04T14:26:58.403Z</time></trkpt><trkpt lat="40.9813917" lon="13.9842933"><ele>3.0</ele><time>2026-05-04T14:26:59.402Z</time></trkpt><trkpt lat="40.9813233" lon="13.9843517"><ele>3.0</ele><time>2026-05-04T14:27:00.402Z</time></trkpt><trkpt lat="40.9812517" lon="13.9844067"><ele>3.0</ele><time>2026-05-04T14:27:01.402Z</time></trkpt><trkpt lat="40.9811817" lon="13.9844617"><ele>3.0</ele><time>2026-05-04T14:27:02.403Z</time></trkpt><trkpt lat="40.9811133" lon="13.984515"><ele>3.0</ele><time>2026-05-04T14:27:03.402Z</time></trkpt><trkpt lat="40.9810467" lon="13.984575"><ele>3.0</ele><time>2026-05-04T14:27:04.402Z</time></trkpt><trkpt lat="40.9809817" lon="13.9846333"><ele>3.0</ele><time>2026-05-04T14:27:05.403Z</time></trkpt><trkpt lat="40.9809133" lon="13.98469"><ele>3.1666666666666665</ele><time>2026-05-04T14:27:06.403Z</time></trkpt><trkpt lat="40.9808433" lon="13.984745"><ele>3.333333333333333</ele><time>2026-05-04T14:27:07.403Z</time></trkpt><trkpt lat="40.9807733" lon="13.9848"><ele>3.5</ele><time>2026-05-04T14:27:08.402Z</time></trkpt><trkpt lat="40.980705" lon="13.9848583"><ele>3.6666666666666665</ele><time>2026-05-04T14:27:09.402Z</time></trkpt><trkpt lat="40.9806367" lon="13.9849133"><ele>3.833333333333333</ele><time>2026-05-04T14:27:10.403Z</time></trkpt><trkpt lat="40.98057" lon="13.984975"><ele>4.0</ele><time>2026-05-04T14:27:11.403Z</time></trkpt><trkpt lat="40.9805017" lon="13.9850317"><ele>3.9999999999999996</ele><time>2026-05-04T14:27:12.403Z</time></trkpt><trkpt lat="40.9804333" lon="13.98509"><ele>4.0</ele><time>2026-05-04T14:27:13.402Z</time></trkpt><trkpt lat="40.980365" lon="13.9851483"><ele>4.0</ele><time>2026-05-04T14:27:14.403Z</time></trkpt><trkpt lat="40.9802917" lon="13.9852067"><ele>4.0</ele><time>2026-05-04T14:27:15.402Z</time></trkpt><trkpt lat="40.9802233" lon="13.985265"><ele>3.9999999999999996</ele><time>2026-05-04T14:27:16.402Z</time></trkpt><trkpt lat="40.9801567" lon="13.9853167"><ele>4.0</ele><time>2026-05-04T14:27:17.402Z</time></trkpt><trkpt lat="40.98009" lon="13.98537"><ele>3.9999999999999996</ele><time>2026-05-04T14:27:18.402Z</time></trkpt><trkpt lat="40.9800267" lon="13.9854267"><ele>4.0</ele><time>2026-05-04T14:27:19.402Z</time></trkpt><trkpt lat="40.9799567" lon="13.9854833"><ele>4.0</ele><time>2026-05-04T14:27:20.403Z</time></trkpt><trkpt lat="40.9798867" lon="13.98554"><ele>4.0</ele><time>2026-05-04T14:27:21.403Z</time></trkpt><trkpt lat="40.9798167" lon="13.9855917"><ele>3.9999999999999996</ele><time>2026-05-04T14:27:22.403Z</time></trkpt><trkpt lat="40.9797433" lon="13.985645"><ele>4.0</ele><time>2026-05-04T14:27:23.402Z</time></trkpt><trkpt lat="40.9796733" lon="13.9857017"><ele>4.166666666666666</ele><time>2026-05-04T14:27:24.403Z</time></trkpt><trkpt lat="40.9796017" lon="13.985755"><ele>4.333333333333333</ele><time>2026-05-04T14:27:25.402Z</time></trkpt><trkpt lat="40.9795367" lon="13.98581"><ele>4.5</ele><time>2026-05-04T14:27:26.402Z</time></trkpt><trkpt lat="40.97947" lon="13.9858617"><ele>4.666666666666667</ele><time>2026-05-04T14:27:27.401Z</time></trkpt><trkpt lat="40.9794033" lon="13.9859117"><ele>4.833333333333334</ele><time>2026-05-04T14:27:28.404Z</time></trkpt><trkpt lat="40.97934" lon="13.9859667"><ele>5.0</ele><time>2026-05-04T14:27:29.403Z</time></trkpt><trkpt lat="40.979275" lon="13.9860267"><ele>5.0</ele><time>2026-05-04T14:27:30.402Z</time></trkpt><trkpt lat="40.9792117" lon="13.9860883"><ele>5.0</ele><time>2026-05-04T14:27:31.405Z</time></trkpt><trkpt lat="40.9791483" lon="13.98615"><ele>5.0</ele><time>2026-05-04T14:27:32.402Z</time></trkpt><trkpt lat="40.9790833" lon="13.9862083"><ele>5.0</ele><time>2026-05-04T14:27:33.403Z</time></trkpt><trkpt lat="40.9790167" lon="13.9862617"><ele>5.0</ele><time>2026-05-04T14:27:34.403Z</time></trkpt><trkpt lat="40.97895" lon="13.9863117"><ele>5.0</ele><time>2026-05-04T14:27:35.403Z</time></trkpt><trkpt lat="40.9788833" lon="13.986365"><ele>5.0</ele><time>2026-05-04T14:27:36.403Z</time></trkpt><trkpt lat="40.978815" lon="13.98642"><ele>5.0</ele><time>2026-05-04T14:27:37.402Z</time></trkpt><trkpt lat="40.9787467" lon="13.9864717"><ele>5.0</ele><time>2026-05-04T14:27:38.403Z</time></trkpt><trkpt lat="40.9786783" lon="13.98653"><ele>5.0</ele><time>2026-05-04T14:27:39.403Z</time></trkpt><trkpt lat="40.97861" lon="13.9865867"><ele>5.0</ele><time>2026-05-04T14:27:40.403Z</time></trkpt><trkpt lat="40.97854" lon="13.9866417"><ele>5.0</ele><time>2026-05-04T14:27:41.403Z</time></trkpt><trkpt lat="40.9784733" lon="13.986695"><ele>5.0</ele><time>2026-05-04T14:27:42.403Z</time></trkpt><trkpt lat="40.9784083" lon="13.9867467"><ele>5.0</ele><time>2026-05-04T14:27:43.403Z</time></trkpt><trkpt lat="40.978345" lon="13.9867983"><ele>5.0</ele><time>2026-05-04T14:27:44.403Z</time></trkpt><trkpt lat="40.9782783" lon="13.986855"><ele>5.0</ele><time>2026-05-04T14:27:45.403Z</time></trkpt><trkpt lat="40.97821" lon="13.9869117"><ele>5.0</ele><time>2026-05-04T14:27:46.402Z</time></trkpt><trkpt lat="40.9781417" lon="13.98697"><ele>5.0</ele><time>2026-05-04T14:27:47.403Z</time></trkpt><trkpt lat="40.978075" lon="13.9870283"><ele>5.0</ele><time>2026-05-04T14:27:48.403Z</time></trkpt><trkpt lat="40.9780083" lon="13.9870833"><ele>5.0</ele><time>2026-05-04T14:27:49.403Z</time></trkpt><trkpt lat="40.9779417" lon="13.9871383"><ele>5.0</ele><time>2026-05-04T14:27:50.403Z</time></trkpt><trkpt lat="40.977875" lon="13.9871917"><ele>5.0</ele><time>2026-05-04T14:27:51.403Z</time></trkpt><trkpt lat="40.9778083" lon="13.987245"><ele>5.0</ele><time>2026-05-04T14:27:52.403Z</time></trkpt><trkpt lat="40.9777417" lon="13.9872933"><ele>5.0</ele><time>2026-05-04T14:27:53.404Z</time></trkpt><trkpt lat="40.9776783" lon="13.98734"><ele>5.0</ele><time>2026-05-04T14:27:54.403Z</time></trkpt><trkpt lat="40.977615" lon="13.9873933"><ele>5.0</ele><time>2026-05-04T14:27:55.402Z</time></trkpt><trkpt lat="40.9775517" lon="13.987445"><ele>5.0</ele><time>2026-05-04T14:27:56.402Z</time></trkpt><trkpt lat="40.97749" lon="13.9875033"><ele>5.0</ele><time>2026-05-04T14:27:57.401Z</time></trkpt><trkpt lat="40.9774267" lon="13.9875583"><ele>5.0</ele><time>2026-05-04T14:27:58.402Z</time></trkpt><trkpt lat="40.9773633" lon="13.98761"><ele>5.0</ele><time>2026-05-04T14:27:59.402Z</time></trkpt><trkpt lat="40.9773017" lon="13.9876617"><ele>5.0</ele><time>2026-05-04T14:28:00.401Z</time></trkpt><trkpt lat="40.9772433" lon="13.9877167"><ele>4.857142857142857</ele><time>2026-05-04T14:28:01.402Z</time></trkpt><trkpt lat="40.9771833" lon="13.98777"><ele>4.714285714285714</ele><time>2026-05-04T14:28:02.402Z</time></trkpt><trkpt lat="40.9771217" lon="13.987825"><ele>4.571428571428571</ele><time>2026-05-04T14:28:03.401Z</time></trkpt><trkpt lat="40.9770583" lon="13.98788"><ele>4.428571428571429</ele><time>2026-05-04T14:28:04.402Z</time></trkpt><trkpt lat="40.9769983" lon="13.9879333"><ele>4.285714285714286</ele><time>2026-05-04T14:28:05.402Z</time></trkpt><trkpt lat="40.976935" lon="13.9879867"><ele>4.142857142857142</ele><time>2026-05-04T14:28:06.402Z</time></trkpt><trkpt lat="40.976875" lon="13.9880417"><ele>4.0</ele><time>2026-05-04T14:28:07.402Z</time></trkpt><trkpt lat="40.9768183" lon="13.9880983"><ele>4.0</ele><time>2026-05-04T14:28:08.403Z</time></trkpt><trkpt lat="40.9767583" lon="13.9881533"><ele>3.9999999999999996</ele><time>2026-05-04T14:28:09.401Z</time></trkpt><trkpt lat="40.976695" lon="13.9882033"><ele>4.0</ele><time>2026-05-04T14:28:10.403Z</time></trkpt><trkpt lat="40.97663" lon="13.9882517"><ele>4.0</ele><time>2026-05-04T14:28:11.402Z</time></trkpt><trkpt lat="40.9765633" lon="13.9882967"><ele>3.9999999999999996</ele><time>2026-05-04T14:28:12.402Z</time></trkpt><trkpt lat="40.9764967" lon="13.988345"><ele>4.0</ele><time>2026-05-04T14:28:13.401Z</time></trkpt><trkpt lat="40.97643" lon="13.9883883"><ele>4.0</ele><time>2026-05-04T14:28:14.402Z</time></trkpt><trkpt lat="40.9763667" lon="13.98843"><ele>4.166666666666666</ele><time>2026-05-04T14:28:15.402Z</time></trkpt><trkpt lat="40.9763033" lon="13.9884733"><ele>4.333333333333333</ele><time>2026-05-04T14:28:16.402Z</time></trkpt><trkpt lat="40.9762383" lon="13.98852"><ele>4.5</ele><time>2026-05-04T14:28:17.402Z</time></trkpt><trkpt lat="40.9761717" lon="13.9885733"><ele>4.666666666666667</ele><time>2026-05-04T14:28:18.402Z</time></trkpt><trkpt lat="40.9761033" lon="13.9886317"><ele>4.833333333333334</ele><time>2026-05-04T14:28:19.402Z</time></trkpt><trkpt lat="40.97604" lon="13.9886883"><ele>5.0</ele><time>2026-05-04T14:28:20.402Z</time></trkpt><trkpt lat="40.9759767" lon="13.9887433"><ele>5.0</ele><time>2026-05-04T14:28:21.403Z</time></trkpt><trkpt lat="40.975915" lon="13.9887967"><ele>5.0</ele><time>2026-05-04T14:28:22.401Z</time></trkpt><trkpt lat="40.9758517" lon="13.9888517"><ele>5.0</ele><time>2026-05-04T14:28:23.403Z</time></trkpt><trkpt lat="40.9757883" lon="13.9889083"><ele>5.0</ele><time>2026-05-04T14:28:24.402Z</time></trkpt><trkpt lat="40.975725" lon="13.988965"><ele>5.0</ele><time>2026-05-04T14:28:25.402Z</time></trkpt><trkpt lat="40.97566" lon="13.9890217"><ele>5.0</ele><time>2026-05-04T14:28:26.402Z</time></trkpt><trkpt lat="40.9755983" lon="13.9890767"><ele>5.142857142857142</ele><time>2026-05-04T14:28:27.401Z</time></trkpt><trkpt lat="40.9755367" lon="13.98913"><ele>5.285714285714286</ele><time>2026-05-04T14:28:28.402Z</time></trkpt><trkpt lat="40.9754733" lon="13.989185"><ele>5.428571428571429</ele><time>2026-05-04T14:28:29.402Z</time></trkpt><trkpt lat="40.9754083" lon="13.9892383"><ele>5.571428571428571</ele><time>2026-05-04T14:28:30.402Z</time></trkpt><trkpt lat="40.9753483" lon="13.989295"><ele>5.714285714285714</ele><time>2026-05-04T14:28:31.402Z</time></trkpt><trkpt lat="40.9752833" lon="13.9893517"><ele>5.857142857142857</ele><time>2026-05-04T14:28:32.402Z</time></trkpt><trkpt lat="40.9752233" lon="13.9894033"><ele>6.0</ele><time>2026-05-04T14:28:33.402Z</time></trkpt><trkpt lat="40.9751633" lon="13.9894533"><ele>5.7142857142857135</ele><time>2026-05-04T14:28:34.401Z</time></trkpt><trkpt lat="40.9751017" lon="13.9895033"><ele>5.428571428571429</ele><time>2026-05-04T14:28:35.402Z</time></trkpt><trkpt lat="40.9750383" lon="13.9895517"><ele>5.142857142857142</ele><time>2026-05-04T14:28:36.402Z</time></trkpt><trkpt lat="40.9749783" lon="13.9896"><ele>4.857142857142857</ele><time>2026-05-04T14:28:37.401Z</time></trkpt><trkpt lat="40.9749167" lon="13.98965"><ele>4.571428571428571</ele><time>2026-05-04T14:28:38.402Z</time></trkpt><trkpt lat="40.974855" lon="13.9897033"><ele>4.285714285714286</ele><time>2026-05-04T14:28:39.402Z</time></trkpt><trkpt lat="40.974795" lon="13.9897583"><ele>4.0</ele><time>2026-05-04T14:28:40.402Z</time></trkpt><trkpt lat="40.974735" lon="13.98981"><ele>4.0</ele><time>2026-05-04T14:28:41.402Z</time></trkpt><trkpt lat="40.974675" lon="13.9898617"><ele>3.9999999999999996</ele><time>2026-05-04T14:28:42.402Z</time></trkpt><trkpt lat="40.974615" lon="13.98991"><ele>4.0</ele><time>2026-05-04T14:28:43.404Z</time></trkpt><trkpt lat="40.974555" lon="13.9899567"><ele>4.0</ele><time>2026-05-04T14:28:44.401Z</time></trkpt><trkpt lat="40.9744917" lon="13.990005"><ele>3.9999999999999996</ele><time>2026-05-04T14:28:45.402Z</time></trkpt><trkpt lat="40.97443" lon="13.9900533"><ele>4.0</ele><time>2026-05-04T14:28:46.401Z</time></trkpt><trkpt lat="40.9743717" lon="13.990095"><ele>4.0</ele><time>2026-05-04T14:28:47.401Z</time></trkpt><trkpt lat="40.9743" lon="13.9901433"><ele>3.9999999999999996</ele><time>2026-05-04T14:28:48.401Z</time></trkpt><trkpt lat="40.9742333" lon="13.9902"><ele>4.0</ele><time>2026-05-04T14:28:49.402Z</time></trkpt><trkpt lat="40.97417" lon="13.99025"><ele>4.0</ele><time>2026-05-04T14:28:50.402Z</time></trkpt><trkpt lat="40.9741067" lon="13.9903033"><ele>4.0</ele><time>2026-05-04T14:28:51.402Z</time></trkpt><trkpt lat="40.974045" lon="13.9903567"><ele>3.9999999999999996</ele><time>2026-05-04T14:28:52.403Z</time></trkpt><trkpt lat="40.9739833" lon="13.990415"><ele>4.0</ele><time>2026-05-04T14:28:53.402Z</time></trkpt><trkpt lat="40.9739183" lon="13.9904717"><ele>3.9999999999999996</ele><time>2026-05-04T14:28:54.403Z</time></trkpt><trkpt lat="40.9738533" lon="13.9905267"><ele>4.0</ele><time>2026-05-04T14:28:55.402Z</time></trkpt><trkpt lat="40.97379" lon="13.99058"><ele>4.0</ele><time>2026-05-04T14:28:56.403Z</time></trkpt><trkpt lat="40.9737233" lon="13.99064"><ele>4.0</ele><time>2026-05-04T14:28:57.403Z</time></trkpt><trkpt lat="40.9736583" lon="13.990695"><ele>3.9999999999999996</ele><time>2026-05-04T14:28:58.403Z</time></trkpt><trkpt lat="40.9735917" lon="13.99075"><ele>4.0</ele><time>2026-05-04T14:28:59.402Z</time></trkpt><trkpt lat="40.9735283" lon="13.990805"><ele>4.0</ele><time>2026-05-04T14:29:00.403Z</time></trkpt><trkpt lat="40.973465" lon="13.9908583"><ele>3.9999999999999996</ele><time>2026-05-04T14:29:01.403Z</time></trkpt><trkpt lat="40.9734033" lon="13.9909067"><ele>4.0</ele><time>2026-05-04T14:29:02.402Z</time></trkpt><trkpt lat="40.9733433" lon="13.990955"><ele>4.0</ele><time>2026-05-04T14:29:03.401Z</time></trkpt><trkpt lat="40.9732817" lon="13.991005"><ele>3.9999999999999996</ele><time>2026-05-04T14:29:04.403Z</time></trkpt><trkpt lat="40.9732233" lon="13.991055"><ele>4.0</ele><time>2026-05-04T14:29:05.402Z</time></trkpt><trkpt lat="40.9731617" lon="13.991105"><ele>4.0</ele><time>2026-05-04T14:29:06.402Z</time></trkpt><trkpt lat="40.9730967" lon="13.99116"><ele>4.166666666666666</ele><time>2026-05-04T14:29:07.404Z</time></trkpt><trkpt lat="40.9730317" lon="13.991215"><ele>4.333333333333333</ele><time>2026-05-04T14:29:08.403Z</time></trkpt><trkpt lat="40.9729667" lon="13.9912717"><ele>4.5</ele><time>2026-05-04T14:29:09.402Z</time></trkpt><trkpt lat="40.9729" lon="13.99133"><ele>4.666666666666667</ele><time>2026-05-04T14:29:10.402Z</time></trkpt><trkpt lat="40.9728333" lon="13.9913883"><ele>4.833333333333334</ele><time>2026-05-04T14:29:11.403Z</time></trkpt><trkpt lat="40.9727667" lon="13.9914467"><ele>5.0</ele><time>2026-05-04T14:29:12.403Z</time></trkpt><trkpt lat="40.9726967" lon="13.9915033"><ele>5.0</ele><time>2026-05-04T14:29:13.403Z</time></trkpt><trkpt lat="40.9726317" lon="13.991565"><ele>5.0</ele><time>2026-05-04T14:29:14.404Z</time></trkpt><trkpt lat="40.972565" lon="13.9916283"><ele>5.0</ele><time>2026-05-04T14:29:15.401Z</time></trkpt><trkpt lat="40.9725" lon="13.9916917"><ele>5.0</ele><time>2026-05-04T14:29:16.402Z</time></trkpt><trkpt lat="40.9724383" lon="13.99175"><ele>5.0</ele><time>2026-05-04T14:29:17.404Z</time></trkpt><trkpt lat="40.9723767" lon="13.99181"><ele>5.0</ele><time>2026-05-04T14:29:18.403Z</time></trkpt><trkpt lat="40.9723133" lon="13.99187"><ele>4.833333333333334</ele><time>2026-05-04T14:29:19.403Z</time></trkpt><trkpt lat="40.9722483" lon="13.9919267"><ele>4.666666666666667</ele><time>2026-05-04T14:29:20.402Z</time></trkpt><trkpt lat="40.97218" lon="13.9919817"><ele>4.5</ele><time>2026-05-04T14:29:21.403Z</time></trkpt><trkpt lat="40.9721117" lon="13.9920367"><ele>4.333333333333333</ele><time>2026-05-04T14:29:22.402Z</time></trkpt><trkpt lat="40.9720417" lon="13.9920933"><ele>4.166666666666666</ele><time>2026-05-04T14:29:23.404Z</time></trkpt><trkpt lat="40.971975" lon="13.9921533"><ele>4.0</ele><time>2026-05-04T14:29:24.402Z</time></trkpt><trkpt lat="40.97191" lon="13.992215"><ele>3.9999999999999996</ele><time>2026-05-04T14:29:25.402Z</time></trkpt><trkpt lat="40.9718417" lon="13.9922717"><ele>4.0</ele><time>2026-05-04T14:29:26.403Z</time></trkpt><trkpt lat="40.971775" lon="13.9923283"><ele>4.0</ele><time>2026-05-04T14:29:27.401Z</time></trkpt><trkpt lat="40.9717083" lon="13.9923833"><ele>4.0</ele><time>2026-05-04T14:29:28.402Z</time></trkpt><trkpt lat="40.97164" lon="13.9924367"><ele>3.9999999999999996</ele><time>2026-05-04T14:29:29.403Z</time></trkpt><trkpt lat="40.971575" lon="13.9924883"><ele>4.0</ele><time>2026-05-04T14:29:30.402Z</time></trkpt><trkpt lat="40.97151" lon="13.9925433"><ele>4.166666666666666</ele><time>2026-05-04T14:29:31.403Z</time></trkpt><trkpt lat="40.9714467" lon="13.9926"><ele>4.333333333333333</ele><time>2026-05-04T14:29:32.403Z</time></trkpt><trkpt lat="40.9713817" lon="13.9926533"><ele>4.5</ele><time>2026-05-04T14:29:33.402Z</time></trkpt><trkpt lat="40.9713133" lon="13.992705"><ele>4.666666666666667</ele><time>2026-05-04T14:29:34.402Z</time></trkpt><trkpt lat="40.9712467" lon="13.9927567"><ele>4.833333333333334</ele><time>2026-05-04T14:29:35.402Z</time></trkpt><trkpt lat="40.97118" lon="13.9928083"><ele>5.0</ele><time>2026-05-04T14:29:36.403Z</time></trkpt><trkpt lat="40.9711167" lon="13.9928583"><ele>5.0</ele><time>2026-05-04T14:29:37.403Z</time></trkpt><trkpt lat="40.971055" lon="13.9929117"><ele>5.0</ele><time>2026-05-04T14:29:38.403Z</time></trkpt><trkpt lat="40.9709917" lon="13.9929683"><ele>5.0</ele><time>2026-05-04T14:29:39.402Z</time></trkpt><trkpt lat="40.970925" lon="13.993025"><ele>5.0</ele><time>2026-05-04T14:29:40.403Z</time></trkpt><trkpt lat="40.9708617" lon="13.99308"><ele>5.0</ele><time>2026-05-04T14:29:41.402Z</time></trkpt><trkpt lat="40.9707917" lon="13.993135"><ele>5.0</ele><time>2026-05-04T14:29:42.403Z</time></trkpt><trkpt lat="40.9707267" lon="13.9931917"><ele>5.5</ele><time>2026-05-04T14:29:43.403Z</time></trkpt><trkpt lat="40.9706633" lon="13.99325"><ele>6.0</ele><time>2026-05-04T14:29:44.403Z</time></trkpt><trkpt lat="40.9705983" lon="13.99331"><ele>6.5</ele><time>2026-05-04T14:29:45.403Z</time></trkpt><trkpt lat="40.97053" lon="13.9933667"><ele>7.0</ele><time>2026-05-04T14:29:46.402Z</time></trkpt><trkpt lat="40.9704617" lon="13.9934217"><ele>7.499999999999999</ele><time>2026-05-04T14:29:47.403Z</time></trkpt><trkpt lat="40.9703967" lon="13.993475"><ele>8.0</ele><time>2026-05-04T14:29:48.402Z</time></trkpt><trkpt lat="40.9703267" lon="13.9935267"><ele>7.999999999999999</ele><time>2026-05-04T14:29:49.403Z</time></trkpt><trkpt lat="40.97026" lon="13.99358"><ele>8.0</ele><time>2026-05-04T14:29:50.403Z</time></trkpt><trkpt lat="40.9701967" lon="13.9936383"><ele>8.0</ele><time>2026-05-04T14:29:51.402Z</time></trkpt><trkpt lat="40.9701317" lon="13.993695"><ele>8.0</ele><time>2026-05-04T14:29:52.402Z</time></trkpt><trkpt lat="40.970065" lon="13.99375"><ele>7.999999999999999</ele><time>2026-05-04T14:29:53.403Z</time></trkpt><trkpt lat="40.9700017" lon="13.9938"><ele>8.0</ele><time>2026-05-04T14:29:54.403Z</time></trkpt><trkpt lat="40.9699367" lon="13.9938517"><ele>7.666666666666666</ele><time>2026-05-04T14:29:55.403Z</time></trkpt><trkpt lat="40.9698717" lon="13.993905"><ele>7.333333333333333</ele><time>2026-05-04T14:29:56.403Z</time></trkpt><trkpt lat="40.9698033" lon="13.9939583"><ele>7.0</ele><time>2026-05-04T14:29:57.403Z</time></trkpt><trkpt lat="40.969735" lon="13.9940133"><ele>6.666666666666666</ele><time>2026-05-04T14:29:58.402Z</time></trkpt><trkpt lat="40.9696683" lon="13.9940683"><ele>6.333333333333333</ele><time>2026-05-04T14:29:59.403Z</time></trkpt><trkpt lat="40.9696017" lon="13.9941233"><ele>6.0</ele><time>2026-05-04T14:30:00.403Z</time></trkpt><trkpt lat="40.969535" lon="13.9941783"><ele>6.0</ele><time>2026-05-04T14:30:01.402Z</time></trkpt><trkpt lat="40.9694683" lon="13.9942317"><ele>6.0</ele><time>2026-05-04T14:30:02.403Z</time></trkpt><trkpt lat="40.9694" lon="13.9942883"><ele>6.0</ele><time>2026-05-04T14:30:03.403Z</time></trkpt><trkpt lat="40.9693333" lon="13.9943433"><ele>6.0</ele><time>2026-05-04T14:30:04.404Z</time></trkpt><trkpt lat="40.9692683" lon="13.9944017"><ele>6.0</ele><time>2026-05-04T14:30:05.403Z</time></trkpt><trkpt lat="40.9692033" lon="13.99446"><ele>6.0</ele><time>2026-05-04T14:30:06.403Z</time></trkpt><trkpt lat="40.9691367" lon="13.9945183"><ele>6.0</ele><time>2026-05-04T14:30:07.402Z</time></trkpt><trkpt lat="40.9690667" lon="13.994575"><ele>6.0</ele><time>2026-05-04T14:30:08.403Z</time></trkpt><trkpt lat="40.969" lon="13.9946333"><ele>6.0</ele><time>2026-05-04T14:30:09.402Z</time></trkpt><trkpt lat="40.9689317" lon="13.9946883"><ele>6.0</ele><time>2026-05-04T14:30:10.403Z</time></trkpt><trkpt lat="40.96886" lon="13.9947433"><ele>6.0</ele><time>2026-05-04T14:30:11.403Z</time></trkpt><trkpt lat="40.968795" lon="13.9948017"><ele>6.0</ele><time>2026-05-04T14:30:12.402Z</time></trkpt><trkpt lat="40.968725" lon="13.994855"><ele>6.0</ele><time>2026-05-04T14:30:13.403Z</time></trkpt><trkpt lat="40.9686567" lon="13.994915"><ele>6.0</ele><time>2026-05-04T14:30:14.401Z</time></trkpt><trkpt lat="40.96859" lon="13.9949733"><ele>6.0</ele><time>2026-05-04T14:30:15.401Z</time></trkpt><trkpt lat="40.9685217" lon="13.9950283"><ele>6.0</ele><time>2026-05-04T14:30:16.403Z</time></trkpt><trkpt lat="40.9684567" lon="13.9950817"><ele>6.0</ele><time>2026-05-04T14:30:17.402Z</time></trkpt><trkpt lat="40.968395" lon="13.9951367"><ele>6.0</ele><time>2026-05-04T14:30:18.403Z</time></trkpt><trkpt lat="40.9683383" lon="13.995195"><ele>5.833333333333333</ele><time>2026-05-04T14:30:19.407Z</time></trkpt><trkpt lat="40.9682767" lon="13.995255"><ele>5.666666666666667</ele><time>2026-05-04T14:30:20.403Z</time></trkpt><trkpt lat="40.9682117" lon="13.9953083"><ele>5.5</ele><time>2026-05-04T14:30:21.403Z</time></trkpt><trkpt lat="40.968145" lon="13.9953533"><ele>5.333333333333334</ele><time>2026-05-04T14:30:22.403Z</time></trkpt><trkpt lat="40.96808" lon="13.995405"><ele>5.166666666666667</ele><time>2026-05-04T14:30:23.403Z</time></trkpt><trkpt lat="40.9680167" lon="13.9954617"><ele>5.0</ele><time>2026-05-04T14:30:24.403Z</time></trkpt><trkpt lat="40.967955" lon="13.99552"><ele>5.0</ele><time>2026-05-04T14:30:25.403Z</time></trkpt><trkpt lat="40.9678883" lon="13.9955767"><ele>5.0</ele><time>2026-05-04T14:30:26.402Z</time></trkpt><trkpt lat="40.9678217" lon="13.9956333"><ele>5.0</ele><time>2026-05-04T14:30:27.403Z</time></trkpt><trkpt lat="40.9677533" lon="13.9956917"><ele>5.0</ele><time>2026-05-04T14:30:28.403Z</time></trkpt><trkpt lat="40.9676817" lon="13.99575"><ele>5.0</ele><time>2026-05-04T14:30:29.403Z</time></trkpt><trkpt lat="40.9676083" lon="13.9958083"><ele>5.0</ele><time>2026-05-04T14:30:30.402Z</time></trkpt><trkpt lat="40.9675367" lon="13.9958667"><ele>5.0</ele><time>2026-05-04T14:30:31.403Z</time></trkpt><trkpt lat="40.9674667" lon="13.9959267"><ele>5.0</ele><time>2026-05-04T14:30:32.403Z</time></trkpt><trkpt lat="40.9674017" lon="13.9959883"><ele>5.0</ele><time>2026-05-04T14:30:33.403Z</time></trkpt><trkpt lat="40.967335" lon="13.996045"><ele>5.0</ele><time>2026-05-04T14:30:34.403Z</time></trkpt><trkpt lat="40.9672733" lon="13.9961"><ele>5.0</ele><time>2026-05-04T14:30:35.402Z</time></trkpt><trkpt lat="40.9672067" lon="13.9961517"><ele>5.0</ele><time>2026-05-04T14:30:36.403Z</time></trkpt><trkpt lat="40.9671367" lon="13.9962033"><ele>5.0</ele><time>2026-05-04T14:30:37.403Z</time></trkpt><trkpt lat="40.96707" lon="13.996255"><ele>5.0</ele><time>2026-05-04T14:30:38.403Z</time></trkpt><trkpt lat="40.9670017" lon="13.996305"><ele>5.0</ele><time>2026-05-04T14:30:39.403Z</time></trkpt><trkpt lat="40.966935" lon="13.9963583"><ele>5.0</ele><time>2026-05-04T14:30:40.402Z</time></trkpt><trkpt lat="40.96687" lon="13.996415"><ele>5.0</ele><time>2026-05-04T14:30:41.403Z</time></trkpt><trkpt lat="40.9668067" lon="13.9964717"><ele>5.0</ele><time>2026-05-04T14:30:42.403Z</time></trkpt><trkpt lat="40.9667417" lon="13.99653"><ele>4.833333333333334</ele><time>2026-05-04T14:30:43.403Z</time></trkpt><trkpt lat="40.9666767" lon="13.9965867"><ele>4.666666666666667</ele><time>2026-05-04T14:30:44.403Z</time></trkpt><trkpt lat="40.9666133" lon="13.9966417"><ele>4.5</ele><time>2026-05-04T14:30:45.402Z</time></trkpt><trkpt lat="40.9665467" lon="13.9966967"><ele>4.333333333333333</ele><time>2026-05-04T14:30:46.402Z</time></trkpt><trkpt lat="40.9664833" lon="13.9967517"><ele>4.166666666666666</ele><time>2026-05-04T14:30:47.403Z</time></trkpt><trkpt lat="40.9664183" lon="13.9968083"><ele>4.0</ele><time>2026-05-04T14:30:48.403Z</time></trkpt><trkpt lat="40.96635" lon="13.9968633"><ele>3.9999999999999996</ele><time>2026-05-04T14:30:49.403Z</time></trkpt><trkpt lat="40.9662833" lon="13.99692"><ele>4.0</ele><time>2026-05-04T14:30:50.402Z</time></trkpt><trkpt lat="40.9662183" lon="13.9969817"><ele>4.0</ele><time>2026-05-04T14:30:51.403Z</time></trkpt><trkpt lat="40.9661517" lon="13.9970417"><ele>4.0</ele><time>2026-05-04T14:30:52.403Z</time></trkpt><trkpt lat="40.9660917" lon="13.9971033"><ele>3.9999999999999996</ele><time>2026-05-04T14:30:53.403Z</time></trkpt><trkpt lat="40.9660267" lon="13.9971617"><ele>4.0</ele><time>2026-05-04T14:30:54.403Z</time></trkpt><trkpt lat="40.96596" lon="13.99722"><ele>3.9999999999999996</ele><time>2026-05-04T14:30:55.403Z</time></trkpt><trkpt lat="40.9658933" lon="13.997275"><ele>4.0</ele><time>2026-05-04T14:30:56.403Z</time></trkpt><trkpt lat="40.9658283" lon="13.9973317"><ele>4.0</ele><time>2026-05-04T14:30:57.403Z</time></trkpt><trkpt lat="40.96576" lon="13.9973833"><ele>4.0</ele><time>2026-05-04T14:30:58.403Z</time></trkpt><trkpt lat="40.9656933" lon="13.997435"><ele>3.9999999999999996</ele><time>2026-05-04T14:30:59.403Z</time></trkpt><trkpt lat="40.9656217" lon="13.9974867"><ele>4.0</ele><time>2026-05-04T14:31:00.402Z</time></trkpt><trkpt lat="40.9655567" lon="13.99754"><ele>3.833333333333333</ele><time>2026-05-04T14:31:01.404Z</time></trkpt><trkpt lat="40.96549" lon="13.9975933"><ele>3.6666666666666665</ele><time>2026-05-04T14:31:02.403Z</time></trkpt><trkpt lat="40.9654233" lon="13.9976467"><ele>3.5</ele><time>2026-05-04T14:31:03.403Z</time></trkpt><trkpt lat="40.965355" lon="13.9977"><ele>3.333333333333333</ele><time>2026-05-04T14:31:04.403Z</time></trkpt><trkpt lat="40.9652867" lon="13.9977567"><ele>3.1666666666666665</ele><time>2026-05-04T14:31:05.403Z</time></trkpt><trkpt lat="40.96522" lon="13.9978133"><ele>3.0</ele><time>2026-05-04T14:31:06.403Z</time></trkpt><trkpt lat="40.9651533" lon="13.99787"><ele>3.0</ele><time>2026-05-04T14:31:07.402Z</time></trkpt><trkpt lat="40.965085" lon="13.997925"><ele>3.0</ele><time>2026-05-04T14:31:08.403Z</time></trkpt><trkpt lat="40.965015" lon="13.99798"><ele>3.0</ele><time>2026-05-04T14:31:09.403Z</time></trkpt><trkpt lat="40.96494" lon="13.998035"><ele>3.0</ele><time>2026-05-04T14:31:10.403Z</time></trkpt><trkpt lat="40.9648683" lon="13.9980883"><ele>3.0</ele><time>2026-05-04T14:31:11.402Z</time></trkpt><trkpt lat="40.9647967" lon="13.9981433"><ele>3.0</ele><time>2026-05-04T14:31:12.403Z</time></trkpt><trkpt lat="40.964725" lon="13.9981967"><ele>3.0</ele><time>2026-05-04T14:31:13.403Z</time></trkpt><trkpt lat="40.9646583" lon="13.9982583"><ele>3.0</ele><time>2026-05-04T14:31:14.402Z</time></trkpt><trkpt lat="40.9645867" lon="13.99832"><ele>3.0</ele><time>2026-05-04T14:31:15.402Z</time></trkpt><trkpt lat="40.9645133" lon="13.99838"><ele>3.0</ele><time>2026-05-04T14:31:16.403Z</time></trkpt><trkpt lat="40.9644433" lon="13.9984367"><ele>3.0</ele><time>2026-05-04T14:31:17.403Z</time></trkpt><trkpt lat="40.9643733" lon="13.9984967"><ele>3.0</ele><time>2026-05-04T14:31:18.403Z</time></trkpt><trkpt lat="40.9643017" lon="13.998555"><ele>3.0</ele><time>2026-05-04T14:31:19.403Z</time></trkpt><trkpt lat="40.9642333" lon="13.99861"><ele>3.0</ele><time>2026-05-04T14:31:20.403Z</time></trkpt><trkpt lat="40.9641633" lon="13.998665"><ele>3.0</ele><time>2026-05-04T14:31:21.405Z</time></trkpt><trkpt lat="40.96409" lon="13.9987183"><ele>3.0</ele><time>2026-05-04T14:31:22.402Z</time></trkpt><trkpt lat="40.964015" lon="13.9987733"><ele>3.0</ele><time>2026-05-04T14:31:23.404Z</time></trkpt><trkpt lat="40.9639383" lon="13.9988283"><ele>3.0</ele><time>2026-05-04T14:31:24.402Z</time></trkpt><trkpt lat="40.9638633" lon="13.9988833"><ele>3.0</ele><time>2026-05-04T14:31:25.402Z</time></trkpt><trkpt lat="40.9637883" lon="13.99894"><ele>3.0</ele><time>2026-05-04T14:31:26.402Z</time></trkpt><trkpt lat="40.96371" lon="13.9989967"><ele>3.0</ele><time>2026-05-04T14:31:27.402Z</time></trkpt><trkpt lat="40.963635" lon="13.999055"><ele>3.0</ele><time>2026-05-04T14:31:28.403Z</time></trkpt><trkpt lat="40.9635617" lon="13.9991117"><ele>3.0</ele><time>2026-05-04T14:31:29.403Z</time></trkpt><trkpt lat="40.9634883" lon="13.999165"><ele>3.0</ele><time>2026-05-04T14:31:30.403Z</time></trkpt><trkpt lat="40.9634133" lon="13.9992167"><ele>3.1666666666666665</ele><time>2026-05-04T14:31:31.403Z</time></trkpt><trkpt lat="40.9633417" lon="13.99927"><ele>3.333333333333333</ele><time>2026-05-04T14:31:32.401Z</time></trkpt><trkpt lat="40.9632683" lon="13.9993283"><ele>3.5</ele><time>2026-05-04T14:31:33.402Z</time></trkpt><trkpt lat="40.9631933" lon="13.9993867"><ele>3.6666666666666665</ele><time>2026-05-04T14:31:34.403Z</time></trkpt><trkpt lat="40.9631183" lon="13.9994483"><ele>3.833333333333333</ele><time>2026-05-04T14:31:35.403Z</time></trkpt><trkpt lat="40.96304" lon="13.9995067"><ele>4.0</ele><time>2026-05-04T14:31:36.403Z</time></trkpt><trkpt lat="40.9629633" lon="13.99957"><ele>3.9999999999999996</ele><time>2026-05-04T14:31:37.402Z</time></trkpt><trkpt lat="40.962885" lon="13.9996317"><ele>4.0</ele><time>2026-05-04T14:31:38.403Z</time></trkpt><trkpt lat="40.96281" lon="13.9996933"><ele>4.0</ele><time>2026-05-04T14:31:39.404Z</time></trkpt><trkpt lat="40.9627383" lon="13.9997533"><ele>4.0</ele><time>2026-05-04T14:31:40.403Z</time></trkpt><trkpt lat="40.962665" lon="13.9998117"><ele>3.9999999999999996</ele><time>2026-05-04T14:31:41.402Z</time></trkpt><trkpt lat="40.96259" lon="13.9998667"><ele>4.0</ele><time>2026-05-04T14:31:42.403Z</time></trkpt><trkpt lat="40.9625183" lon="13.9999233"><ele>4.5</ele><time>2026-05-04T14:31:43.404Z</time></trkpt><trkpt lat="40.9624483" lon="13.9999833"><ele>5.0</ele><time>2026-05-04T14:31:44.403Z</time></trkpt><trkpt lat="40.962375" lon="14.0000383"><ele>5.5</ele><time>2026-05-04T14:31:45.402Z</time></trkpt><trkpt lat="40.9623067" lon="14.0000933"><ele>6.0</ele><time>2026-05-04T14:31:46.403Z</time></trkpt><trkpt lat="40.96224" lon="14.0001483"><ele>6.500000000000001</ele><time>2026-05-04T14:31:47.404Z</time></trkpt><trkpt lat="40.96217" lon="14.0002017"><ele>7.0</ele><time>2026-05-04T14:31:48.403Z</time></trkpt><trkpt lat="40.9621" lon="14.0002567"><ele>7.000000000000001</ele><time>2026-05-04T14:31:49.404Z</time></trkpt><trkpt lat="40.9620317" lon="14.0003117"><ele>7.0</ele><time>2026-05-04T14:31:50.403Z</time></trkpt><trkpt lat="40.9619633" lon="14.0003683"><ele>7.0</ele><time>2026-05-04T14:31:51.402Z</time></trkpt><trkpt lat="40.9618933" lon="14.000425"><ele>7.0</ele><time>2026-05-04T14:31:52.403Z</time></trkpt><trkpt lat="40.9618233" lon="14.0004817"><ele>7.000000000000001</ele><time>2026-05-04T14:31:53.403Z</time></trkpt><trkpt lat="40.9617533" lon="14.00054"><ele>7.0</ele><time>2026-05-04T14:31:54.403Z</time></trkpt><trkpt lat="40.9616817" lon="14.0005967"><ele>7.333333333333334</ele><time>2026-05-04T14:31:55.403Z</time></trkpt><trkpt lat="40.96161" lon="14.000655"><ele>7.666666666666667</ele><time>2026-05-04T14:31:56.403Z</time></trkpt><trkpt lat="40.9615367" lon="14.0007117"><ele>8.0</ele><time>2026-05-04T14:31:57.402Z</time></trkpt><trkpt lat="40.9614617" lon="14.0007683"><ele>8.333333333333334</ele><time>2026-05-04T14:31:58.403Z</time></trkpt><trkpt lat="40.961385" lon="14.0008267"><ele>8.666666666666666</ele><time>2026-05-04T14:31:59.403Z</time></trkpt><trkpt lat="40.9613117" lon="14.0008817"><ele>9.0</ele><time>2026-05-04T14:32:00.403Z</time></trkpt><trkpt lat="40.9612383" lon="14.0009383"><ele>9.0</ele><time>2026-05-04T14:32:01.405Z</time></trkpt><trkpt lat="40.9611633" lon="14.0009917"><ele>9.0</ele><time>2026-05-04T14:32:02.403Z</time></trkpt><trkpt lat="40.9610883" lon="14.0010483"><ele>9.0</ele><time>2026-05-04T14:32:03.403Z</time></trkpt><trkpt lat="40.9610117" lon="14.0011033"><ele>9.0</ele><time>2026-05-04T14:32:04.403Z</time></trkpt><trkpt lat="40.9609383" lon="14.0011617"><ele>9.0</ele><time>2026-05-04T14:32:05.403Z</time></trkpt><trkpt lat="40.9608667" lon="14.00122"><ele>9.0</ele><time>2026-05-04T14:32:06.403Z</time></trkpt><trkpt lat="40.9607933" lon="14.0012767"><ele>9.0</ele><time>2026-05-04T14:32:07.403Z</time></trkpt><trkpt lat="40.96072" lon="14.001335"><ele>9.0</ele><time>2026-05-04T14:32:08.403Z</time></trkpt><trkpt lat="40.9606483" lon="14.0013817"><ele>9.0</ele><time>2026-05-04T14:32:09.403Z</time></trkpt><trkpt lat="40.9605717" lon="14.0014183"><ele>9.0</ele><time>2026-05-04T14:32:10.402Z</time></trkpt><trkpt lat="40.960495" lon="14.0014383"><ele>9.0</ele><time>2026-05-04T14:32:11.402Z</time></trkpt><trkpt lat="40.96042" lon="14.0014583"><ele>9.0</ele><time>2026-05-04T14:32:12.403Z</time></trkpt><trkpt lat="40.96035" lon="14.0014917"><ele>9.0</ele><time>2026-05-04T14:32:13.403Z</time></trkpt><trkpt lat="40.960295" lon="14.0015483"><ele>9.0</ele><time>2026-05-04T14:32:14.403Z</time></trkpt><trkpt lat="40.960245" lon="14.001615"><ele>9.0</ele><time>2026-05-04T14:32:15.402Z</time></trkpt><trkpt lat="40.96019" lon="14.0016783"><ele>9.0</ele><time>2026-05-04T14:32:16.403Z</time></trkpt><trkpt lat="40.9601267" lon="14.0017383"><ele>9.0</ele><time>2026-05-04T14:32:17.403Z</time></trkpt><trkpt lat="40.9600617" lon="14.0017967"><ele>9.0</ele><time>2026-05-04T14:32:18.403Z</time></trkpt><trkpt lat="40.9599967" lon="14.0018583"><ele>8.666666666666666</ele><time>2026-05-04T14:32:19.405Z</time></trkpt><trkpt lat="40.9599283" lon="14.001915"><ele>8.333333333333334</ele><time>2026-05-04T14:32:20.403Z</time></trkpt><trkpt lat="40.9598583" lon="14.001975"><ele>8.0</ele><time>2026-05-04T14:32:21.402Z</time></trkpt><trkpt lat="40.9597883" lon="14.0020333"><ele>7.666666666666667</ele><time>2026-05-04T14:32:22.404Z</time></trkpt><trkpt lat="40.9597183" lon="14.0020883"><ele>7.333333333333334</ele><time>2026-05-04T14:32:23.403Z</time></trkpt><trkpt lat="40.95965" lon="14.0021467"><ele>7.0</ele><time>2026-05-04T14:32:24.403Z</time></trkpt><trkpt lat="40.9595783" lon="14.0022"><ele>7.000000000000001</ele><time>2026-05-04T14:32:25.403Z</time></trkpt><trkpt lat="40.9595067" lon="14.002255"><ele>7.0</ele><time>2026-05-04T14:32:26.402Z</time></trkpt><trkpt lat="40.9594333" lon="14.0023117"><ele>7.0</ele><time>2026-05-04T14:32:27.402Z</time></trkpt><trkpt lat="40.959365" lon="14.0023683"><ele>7.0</ele><time>2026-05-04T14:32:28.403Z</time></trkpt><trkpt lat="40.9592967" lon="14.0024267"><ele>7.000000000000001</ele><time>2026-05-04T14:32:29.404Z</time></trkpt><trkpt lat="40.9592283" lon="14.00248"><ele>7.0</ele><time>2026-05-04T14:32:30.403Z</time></trkpt><trkpt lat="40.95916" lon="14.0025367"><ele>7.000000000000001</ele><time>2026-05-04T14:32:31.404Z</time></trkpt><trkpt lat="40.9590933" lon="14.0025967"><ele>7.0</ele><time>2026-05-04T14:32:32.402Z</time></trkpt><trkpt lat="40.9590267" lon="14.002655"><ele>7.0</ele><time>2026-05-04T14:32:33.403Z</time></trkpt><trkpt lat="40.95896" lon="14.0027133"><ele>7.0</ele><time>2026-05-04T14:32:34.403Z</time></trkpt><trkpt lat="40.9588917" lon="14.0027717"><ele>7.000000000000001</ele><time>2026-05-04T14:32:35.404Z</time></trkpt><trkpt lat="40.9588233" lon="14.00283"><ele>7.0</ele><time>2026-05-04T14:32:36.405Z</time></trkpt><trkpt lat="40.9587533" lon="14.0028883"><ele>7.000000000000001</ele><time>2026-05-04T14:32:37.402Z</time></trkpt><trkpt lat="40.958685" lon="14.0029467"><ele>7.0</ele><time>2026-05-04T14:32:38.402Z</time></trkpt><trkpt lat="40.958615" lon="14.0030017"><ele>7.0</ele><time>2026-05-04T14:32:39.403Z</time></trkpt><trkpt lat="40.9585433" lon="14.0030567"><ele>7.0</ele><time>2026-05-04T14:32:40.403Z</time></trkpt><trkpt lat="40.9584733" lon="14.0031133"><ele>7.000000000000001</ele><time>2026-05-04T14:32:41.406Z</time></trkpt><trkpt lat="40.9583983" lon="14.0031717"><ele>7.0</ele><time>2026-05-04T14:32:42.404Z</time></trkpt><trkpt lat="40.9583233" lon="14.0032283"><ele>6.833333333333334</ele><time>2026-05-04T14:32:43.405Z</time></trkpt><trkpt lat="40.9582533" lon="14.0032833"><ele>6.666666666666667</ele><time>2026-05-04T14:32:44.403Z</time></trkpt><trkpt lat="40.9581817" lon="14.0033367"><ele>6.5</ele><time>2026-05-04T14:32:45.406Z</time></trkpt><trkpt lat="40.95811" lon="14.003395"><ele>6.333333333333334</ele><time>2026-05-04T14:32:46.404Z</time></trkpt><trkpt lat="40.9580417" lon="14.0034567"><ele>6.166666666666667</ele><time>2026-05-04T14:32:47.404Z</time></trkpt><trkpt lat="40.9579717" lon="14.003515"><ele>6.0</ele><time>2026-05-04T14:32:48.404Z</time></trkpt><trkpt lat="40.9579033" lon="14.0035717"><ele>6.0</ele><time>2026-05-04T14:32:49.404Z</time></trkpt><trkpt lat="40.957835" lon="14.00363"><ele>6.0</ele><time>2026-05-04T14:32:50.404Z</time></trkpt><trkpt lat="40.9577633" lon="14.00369"><ele>6.0</ele><time>2026-05-04T14:32:51.403Z</time></trkpt><trkpt lat="40.9576917" lon="14.0037483"><ele>6.0</ele><time>2026-05-04T14:32:52.403Z</time></trkpt><trkpt lat="40.9576233" lon="14.003805"><ele>6.0</ele><time>2026-05-04T14:32:53.403Z</time></trkpt><trkpt lat="40.957555" lon="14.003865"><ele>6.0</ele><time>2026-05-04T14:32:54.404Z</time></trkpt><trkpt lat="40.957485" lon="14.00392"><ele>5.833333333333333</ele><time>2026-05-04T14:32:55.403Z</time></trkpt><trkpt lat="40.957415" lon="14.003975"><ele>5.666666666666667</ele><time>2026-05-04T14:32:56.404Z</time></trkpt><trkpt lat="40.957345" lon="14.0040317"><ele>5.5</ele><time>2026-05-04T14:32:57.402Z</time></trkpt><trkpt lat="40.9572767" lon="14.004085"><ele>5.333333333333334</ele><time>2026-05-04T14:32:58.403Z</time></trkpt><trkpt lat="40.9572083" lon="14.00414"><ele>5.166666666666667</ele><time>2026-05-04T14:32:59.404Z</time></trkpt><trkpt lat="40.9571417" lon="14.0041917"><ele>5.0</ele><time>2026-05-04T14:33:00.403Z</time></trkpt><trkpt lat="40.9570717" lon="14.0042417"><ele>5.0</ele><time>2026-05-04T14:33:01.403Z</time></trkpt><trkpt lat="40.957" lon="14.0042983"><ele>5.0</ele><time>2026-05-04T14:33:02.403Z</time></trkpt><trkpt lat="40.9569317" lon="14.0043517"><ele>5.0</ele><time>2026-05-04T14:33:03.403Z</time></trkpt><trkpt lat="40.9568633" lon="14.0044017"><ele>5.0</ele><time>2026-05-04T14:33:04.403Z</time></trkpt><trkpt lat="40.956795" lon="14.00445"><ele>5.0</ele><time>2026-05-04T14:33:05.403Z</time></trkpt><trkpt lat="40.9567267" lon="14.0045067"><ele>5.0</ele><time>2026-05-04T14:33:06.403Z</time></trkpt><trkpt lat="40.956655" lon="14.0045617"><ele>5.333333333333334</ele><time>2026-05-04T14:33:07.404Z</time></trkpt><trkpt lat="40.956585" lon="14.0046167"><ele>5.666666666666667</ele><time>2026-05-04T14:33:08.402Z</time></trkpt><trkpt lat="40.9565133" lon="14.0046717"><ele>6.0</ele><time>2026-05-04T14:33:09.402Z</time></trkpt><trkpt lat="40.9564383" lon="14.004725"><ele>6.333333333333334</ele><time>2026-05-04T14:33:10.402Z</time></trkpt><trkpt lat="40.9563683" lon="14.0047767"><ele>6.666666666666667</ele><time>2026-05-04T14:33:11.403Z</time></trkpt><trkpt lat="40.9562967" lon="14.0048283"><ele>7.0</ele><time>2026-05-04T14:33:12.403Z</time></trkpt><trkpt lat="40.9562283" lon="14.0048833"><ele>7.000000000000001</ele><time>2026-05-04T14:33:13.404Z</time></trkpt><trkpt lat="40.9561617" lon="14.0049383"><ele>7.0</ele><time>2026-05-04T14:33:14.403Z</time></trkpt><trkpt lat="40.9560967" lon="14.0049967"><ele>7.0</ele><time>2026-05-04T14:33:15.401Z</time></trkpt><trkpt lat="40.956025" lon="14.0050533"><ele>7.0</ele><time>2026-05-04T14:33:16.402Z</time></trkpt><trkpt lat="40.955955" lon="14.0051067"><ele>7.000000000000001</ele><time>2026-05-04T14:33:17.403Z</time></trkpt><trkpt lat="40.9558867" lon="14.0051617"><ele>7.0</ele><time>2026-05-04T14:33:18.403Z</time></trkpt><trkpt lat="40.95582" lon="14.0052183"><ele>7.166666666666667</ele><time>2026-05-04T14:33:19.403Z</time></trkpt><trkpt lat="40.95575" lon="14.0052733"><ele>7.333333333333334</ele><time>2026-05-04T14:33:20.403Z</time></trkpt><trkpt lat="40.9556817" lon="14.00533"><ele>7.5</ele><time>2026-05-04T14:33:21.402Z</time></trkpt><trkpt lat="40.9556133" lon="14.0053833"><ele>7.666666666666666</ele><time>2026-05-04T14:33:22.402Z</time></trkpt><trkpt lat="40.9555467" lon="14.0054383"><ele>7.833333333333333</ele><time>2026-05-04T14:33:23.404Z</time></trkpt><trkpt lat="40.9554783" lon="14.0054933"><ele>8.0</ele><time>2026-05-04T14:33:24.402Z</time></trkpt><trkpt lat="40.95541" lon="14.0055467"><ele>7.999999999999999</ele><time>2026-05-04T14:33:25.404Z</time></trkpt><trkpt lat="40.95534" lon="14.0055967"><ele>8.0</ele><time>2026-05-04T14:33:26.403Z</time></trkpt><trkpt lat="40.9552733" lon="14.0056483"><ele>8.0</ele><time>2026-05-04T14:33:27.402Z</time></trkpt><trkpt lat="40.9552083" lon="14.0057033"><ele>8.0</ele><time>2026-05-04T14:33:28.403Z</time></trkpt><trkpt lat="40.9551417" lon="14.0057583"><ele>7.999999999999999</ele><time>2026-05-04T14:33:29.404Z</time></trkpt><trkpt lat="40.9550767" lon="14.0058133"><ele>8.0</ele><time>2026-05-04T14:33:30.403Z</time></trkpt><trkpt lat="40.9550133" lon="14.0058667"><ele>7.499999999999999</ele><time>2026-05-04T14:33:31.403Z</time></trkpt><trkpt lat="40.9549467" lon="14.005925"><ele>7.0</ele><time>2026-05-04T14:33:32.403Z</time></trkpt><trkpt lat="40.954885" lon="14.0059833"><ele>6.5</ele><time>2026-05-04T14:33:33.403Z</time></trkpt><trkpt lat="40.95482" lon="14.006045"><ele>6.0</ele><time>2026-05-04T14:33:34.402Z</time></trkpt><trkpt lat="40.9547567" lon="14.0061017"><ele>5.5</ele><time>2026-05-04T14:33:35.403Z</time></trkpt><trkpt lat="40.9546883" lon="14.006155"><ele>5.0</ele><time>2026-05-04T14:33:36.402Z</time></trkpt><trkpt lat="40.9546183" lon="14.0062083"><ele>5.0</ele><time>2026-05-04T14:33:37.403Z</time></trkpt><trkpt lat="40.9545467" lon="14.0062583"><ele>5.0</ele><time>2026-05-04T14:33:38.403Z</time></trkpt><trkpt lat="40.9544783" lon="14.0063083"><ele>5.0</ele><time>2026-05-04T14:33:39.402Z</time></trkpt><trkpt lat="40.95441" lon="14.0063567"><ele>5.0</ele><time>2026-05-04T14:33:40.403Z</time></trkpt><trkpt lat="40.954345" lon="14.0064083"><ele>5.0</ele><time>2026-05-04T14:33:41.404Z</time></trkpt><trkpt lat="40.954275" lon="14.00646"><ele>5.0</ele><time>2026-05-04T14:33:42.403Z</time></trkpt><trkpt lat="40.95421" lon="14.0065133"><ele>5.0</ele><time>2026-05-04T14:33:43.403Z</time></trkpt><trkpt lat="40.954145" lon="14.0065717"><ele>5.0</ele><time>2026-05-04T14:33:44.402Z</time></trkpt><trkpt lat="40.9540783" lon="14.0066317"><ele>5.0</ele><time>2026-05-04T14:33:45.403Z</time></trkpt><trkpt lat="40.9540083" lon="14.0066883"><ele>5.0</ele><time>2026-05-04T14:33:46.403Z</time></trkpt><trkpt lat="40.9539383" lon="14.006745"><ele>5.0</ele><time>2026-05-04T14:33:47.404Z</time></trkpt><trkpt lat="40.9538683" lon="14.0068033"><ele>5.0</ele><time>2026-05-04T14:33:48.403Z</time></trkpt><trkpt lat="40.9537983" lon="14.0068633"><ele>4.666666666666667</ele><time>2026-05-04T14:33:49.404Z</time></trkpt><trkpt lat="40.95373" lon="14.0069217"><ele>4.333333333333334</ele><time>2026-05-04T14:33:50.402Z</time></trkpt><trkpt lat="40.95366" lon="14.006975"><ele>4.0</ele><time>2026-05-04T14:33:51.404Z</time></trkpt><trkpt lat="40.9535933" lon="14.00703"><ele>3.666666666666667</ele><time>2026-05-04T14:33:52.404Z</time></trkpt><trkpt lat="40.9535233" lon="14.0070867"><ele>3.3333333333333335</ele><time>2026-05-04T14:33:53.404Z</time></trkpt><trkpt lat="40.9534567" lon="14.0071467"><ele>3.0</ele><time>2026-05-04T14:33:54.404Z</time></trkpt><trkpt lat="40.9533883" lon="14.0072017"><ele>3.0</ele><time>2026-05-04T14:33:55.404Z</time></trkpt><trkpt lat="40.9533217" lon="14.00726"><ele>3.0</ele><time>2026-05-04T14:33:56.403Z</time></trkpt><trkpt lat="40.9532517" lon="14.007315"><ele>3.0</ele><time>2026-05-04T14:33:57.403Z</time></trkpt><trkpt lat="40.9531817" lon="14.0073667"><ele>3.0</ele><time>2026-05-04T14:33:58.404Z</time></trkpt><trkpt lat="40.9531133" lon="14.00742"><ele>3.0</ele><time>2026-05-04T14:33:59.404Z</time></trkpt><trkpt lat="40.9530467" lon="14.0074733"><ele>3.0</ele><time>2026-05-04T14:34:00.403Z</time></trkpt><trkpt lat="40.9529817" lon="14.0075267"><ele>3.0</ele><time>2026-05-04T14:34:01.404Z</time></trkpt><trkpt lat="40.9529167" lon="14.0075833"><ele>3.0</ele><time>2026-05-04T14:34:02.403Z</time></trkpt><trkpt lat="40.9528517" lon="14.00764"><ele>3.0</ele><time>2026-05-04T14:34:03.404Z</time></trkpt><trkpt lat="40.952785" lon="14.0076933"><ele>3.0</ele><time>2026-05-04T14:34:04.404Z</time></trkpt><trkpt lat="40.9527167" lon="14.0077483"><ele>3.0</ele><time>2026-05-04T14:34:05.409Z</time></trkpt><trkpt lat="40.9526467" lon="14.0078017"><ele>3.0</ele><time>2026-05-04T14:34:06.404Z</time></trkpt><trkpt lat="40.9525783" lon="14.007855"><ele>3.3333333333333335</ele><time>2026-05-04T14:34:07.404Z</time></trkpt><trkpt lat="40.9525133" lon="14.0079067"><ele>3.666666666666667</ele><time>2026-05-04T14:34:08.404Z</time></trkpt><trkpt lat="40.9524467" lon="14.0079583"><ele>4.0</ele><time>2026-05-04T14:34:09.403Z</time></trkpt><trkpt lat="40.9523833" lon="14.008005"><ele>4.333333333333334</ele><time>2026-05-04T14:34:10.403Z</time></trkpt><trkpt lat="40.95232" lon="14.008055"><ele>4.666666666666667</ele><time>2026-05-04T14:34:11.405Z</time></trkpt><trkpt lat="40.9522533" lon="14.0081067"><ele>5.0</ele><time>2026-05-04T14:34:12.404Z</time></trkpt><trkpt lat="40.95219" lon="14.0081583"><ele>5.0</ele><time>2026-05-04T14:34:13.405Z</time></trkpt><trkpt lat="40.9521217" lon="14.0082083"><ele>5.0</ele><time>2026-05-04T14:34:14.403Z</time></trkpt><trkpt lat="40.952055" lon="14.0082533"><ele>5.0</ele><time>2026-05-04T14:34:15.405Z</time></trkpt><trkpt lat="40.9519917" lon="14.0083"><ele>5.0</ele><time>2026-05-04T14:34:16.404Z</time></trkpt><trkpt lat="40.951935" lon="14.0083467"><ele>5.0</ele><time>2026-05-04T14:34:17.408Z</time></trkpt><trkpt lat="40.9518767" lon="14.0084"><ele>5.0</ele><time>2026-05-04T14:34:18.402Z</time></trkpt><trkpt lat="40.9518183" lon="14.0084467"><ele>5.0</ele><time>2026-05-04T14:34:19.402Z</time></trkpt><trkpt lat="40.95176" lon="14.0084867"><ele>4.833333333333334</ele><time>2026-05-04T14:34:20.405Z</time></trkpt><trkpt lat="40.951655" lon="14.0085717"><ele>4.666666666666667</ele><time>2026-05-04T14:34:22.403Z</time></trkpt><trkpt lat="40.9515567" lon="14.008665"><ele>4.5</ele><time>2026-05-04T14:34:24.403Z</time></trkpt><trkpt lat="40.9514983" lon="14.0087117"><ele>4.333333333333333</ele><time>2026-05-04T14:34:25.403Z</time></trkpt><trkpt lat="40.95144" lon="14.008755"><ele>4.166666666666666</ele><time>2026-05-04T14:34:26.401Z</time></trkpt><trkpt lat="40.9513817" lon="14.008795"><ele>4.0</ele><time>2026-05-04T14:34:27.402Z</time></trkpt><trkpt lat="40.95132" lon="14.00884"><ele>3.9999999999999996</ele><time>2026-05-04T14:34:28.401Z</time></trkpt><trkpt lat="40.9512617" lon="14.0088817"><ele>4.0</ele><time>2026-05-04T14:34:29.402Z</time></trkpt><trkpt lat="40.9511517" lon="14.0089717"><ele>4.0</ele><time>2026-05-04T14:34:31.406Z</time></trkpt><trkpt lat="40.9510933" lon="14.0090217"><ele>4.0</ele><time>2026-05-04T14:34:32.402Z</time></trkpt><trkpt lat="40.951035" lon="14.0090667"><ele>3.9999999999999996</ele><time>2026-05-04T14:34:33.401Z</time></trkpt><trkpt lat="40.9509817" lon="14.0091117"><ele>4.0</ele><time>2026-05-04T14:34:34.403Z</time></trkpt><trkpt lat="40.950925" lon="14.0091633"><ele>3.833333333333333</ele><time>2026-05-04T14:34:35.401Z</time></trkpt><trkpt lat="40.9508617" lon="14.0092167"><ele>3.6666666666666665</ele><time>2026-05-04T14:34:36.401Z</time></trkpt><trkpt lat="40.9508017" lon="14.009265"><ele>3.5</ele><time>2026-05-04T14:34:37.404Z</time></trkpt><trkpt lat="40.9507383" lon="14.0093133"><ele>3.333333333333333</ele><time>2026-05-04T14:34:38.402Z</time></trkpt><trkpt lat="40.9506767" lon="14.0093667"><ele>3.1666666666666665</ele><time>2026-05-04T14:34:39.401Z</time></trkpt><trkpt lat="40.9506117" lon="14.0094167"><ele>3.0</ele><time>2026-05-04T14:34:40.404Z</time></trkpt><trkpt lat="40.9504817" lon="14.009515"><ele>2.9999999999999996</ele><time>2026-05-04T14:34:42.402Z</time></trkpt><trkpt lat="40.95042" lon="14.009565"><ele>3.0</ele><time>2026-05-04T14:34:43.401Z</time></trkpt><trkpt lat="40.9503617" lon="14.0096183"><ele>3.0</ele><time>2026-05-04T14:34:44.401Z</time></trkpt><trkpt lat="40.950305" lon="14.0096717"><ele>3.0</ele><time>2026-05-04T14:34:45.402Z</time></trkpt><trkpt lat="40.9502433" lon="14.0097233"><ele>3.0</ele><time>2026-05-04T14:34:46.402Z</time></trkpt><trkpt lat="40.9501783" lon="14.0097733"><ele>2.9999999999999996</ele><time>2026-05-04T14:34:47.414Z</time></trkpt><trkpt lat="40.950115" lon="14.009825"><ele>3.0</ele><time>2026-05-04T14:34:48.403Z</time></trkpt><trkpt lat="40.9500517" lon="14.0098767"><ele>3.2857142857142856</ele><time>2026-05-04T14:34:49.405Z</time></trkpt><trkpt lat="40.94999" lon="14.0099267"><ele>3.571428571428571</ele><time>2026-05-04T14:34:50.402Z</time></trkpt><trkpt lat="40.949925" lon="14.0099717"><ele>3.8571428571428568</ele><time>2026-05-04T14:34:51.403Z</time></trkpt><trkpt lat="40.949865" lon="14.010025"><ele>4.142857142857142</ele><time>2026-05-04T14:34:52.401Z</time></trkpt><trkpt lat="40.9498067" lon="14.0100767"><ele>4.428571428571429</ele><time>2026-05-04T14:34:53.403Z</time></trkpt><trkpt lat="40.94975" lon="14.0101283"><ele>4.714285714285714</ele><time>2026-05-04T14:34:54.402Z</time></trkpt><trkpt lat="40.9496917" lon="14.0101767"><ele>5.0</ele><time>2026-05-04T14:34:55.401Z</time></trkpt><trkpt lat="40.9496367" lon="14.0102183"><ele>5.0</ele><time>2026-05-04T14:34:56.406Z</time></trkpt><trkpt lat="40.9495733" lon="14.01026"><ele>5.0</ele><time>2026-05-04T14:34:57.405Z</time></trkpt><trkpt lat="40.9495083" lon="14.0103"><ele>5.0</ele><time>2026-05-04T14:34:58.403Z</time></trkpt><trkpt lat="40.9494483" lon="14.010345"><ele>5.0</ele><time>2026-05-04T14:34:59.408Z</time></trkpt><trkpt lat="40.9493917" lon="14.01039"><ele>5.0</ele><time>2026-05-04T14:35:00.401Z</time></trkpt><trkpt lat="40.9493367" lon="14.0104333"><ele>5.0</ele><time>2026-05-04T14:35:01.402Z</time></trkpt><trkpt lat="40.9492817" lon="14.0104767"><ele>5.0</ele><time>2026-05-04T14:35:02.403Z</time></trkpt><trkpt lat="40.94923" lon="14.010525"><ele>5.0</ele><time>2026-05-04T14:35:03.402Z</time></trkpt><trkpt lat="40.9491267" lon="14.01061"><ele>5.0</ele><time>2026-05-04T14:35:05.403Z</time></trkpt><trkpt lat="40.9490733" lon="14.0106567"><ele>5.0</ele><time>2026-05-04T14:35:06.403Z</time></trkpt><trkpt lat="40.9490117" lon="14.0107083"><ele>5.0</ele><time>2026-05-04T14:35:07.404Z</time></trkpt><trkpt lat="40.9489517" lon="14.01076"><ele>5.0</ele><time>2026-05-04T14:35:08.402Z</time></trkpt><trkpt lat="40.948895" lon="14.010805"><ele>5.0</ele><time>2026-05-04T14:35:09.401Z</time></trkpt><trkpt lat="40.94879" lon="14.0108867"><ele>4.5</ele><time>2026-05-04T14:35:11.401Z</time></trkpt><trkpt lat="40.9486917" lon="14.010965"><ele>4.0</ele><time>2026-05-04T14:35:13.403Z</time></trkpt><trkpt lat="40.948595" lon="14.0110383"><ele>3.5</ele><time>2026-05-04T14:35:15.406Z</time></trkpt><trkpt lat="40.9484917" lon="14.01111"><ele>3.0</ele><time>2026-05-04T14:35:17.402Z</time></trkpt><trkpt lat="40.9483867" lon="14.0111633"><ele>3.0</ele><time>2026-05-04T14:35:19.405Z</time></trkpt><trkpt lat="40.948295" lon="14.0112317"><ele>3.0</ele><time>2026-05-04T14:35:21.402Z</time></trkpt><trkpt lat="40.9481983" lon="14.0113267"><ele>3.0</ele><time>2026-05-04T14:35:23.403Z</time></trkpt><trkpt lat="40.948145" lon="14.011375"><ele>3.0</ele><time>2026-05-04T14:35:24.402Z</time></trkpt><trkpt lat="40.9480917" lon="14.0114233"><ele>3.0</ele><time>2026-05-04T14:35:25.403Z</time></trkpt><trkpt lat="40.9480383" lon="14.01147"><ele>3.0</ele><time>2026-05-04T14:35:26.403Z</time></trkpt><trkpt lat="40.9479833" lon="14.0115167"><ele>2.9999999999999996</ele><time>2026-05-04T14:35:27.402Z</time></trkpt><trkpt lat="40.9479283" lon="14.011565"><ele>3.0</ele><time>2026-05-04T14:35:28.402Z</time></trkpt><trkpt lat="40.9478733" lon="14.011615"><ele>3.0</ele><time>2026-05-04T14:35:29.405Z</time></trkpt><trkpt lat="40.947815" lon="14.0116633"><ele>3.0</ele><time>2026-05-04T14:35:30.402Z</time></trkpt><trkpt lat="40.9477567" lon="14.0117133"><ele>3.0</ele><time>2026-05-04T14:35:31.402Z</time></trkpt><trkpt lat="40.9476967" lon="14.0117617"><ele>2.9999999999999996</ele><time>2026-05-04T14:35:32.402Z</time></trkpt><trkpt lat="40.9476383" lon="14.0118083"><ele>3.0</ele><time>2026-05-04T14:35:33.415Z</time></trkpt><trkpt lat="40.9475817" lon="14.0118533"><ele>3.1428571428571423</ele><time>2026-05-04T14:35:34.403Z</time></trkpt><trkpt lat="40.9475233" lon="14.0119017"><ele>3.2857142857142856</ele><time>2026-05-04T14:35:35.403Z</time></trkpt><trkpt lat="40.947465" lon="14.0119483"><ele>3.4285714285714284</ele><time>2026-05-04T14:35:36.407Z</time></trkpt><trkpt lat="40.9474067" lon="14.0119967"><ele>3.571428571428571</ele><time>2026-05-04T14:35:37.405Z</time></trkpt><trkpt lat="40.9473483" lon="14.0120467"><ele>3.714285714285714</ele><time>2026-05-04T14:35:38.402Z</time></trkpt><trkpt lat="40.94729" lon="14.0120983"><ele>3.8571428571428568</ele><time>2026-05-04T14:35:39.403Z</time></trkpt><trkpt lat="40.9472283" lon="14.0121483"><ele>4.0</ele><time>2026-05-04T14:35:40.403Z</time></trkpt><trkpt lat="40.9471633" lon="14.0121983"><ele>4.0</ele><time>2026-05-04T14:35:41.403Z</time></trkpt><trkpt lat="40.9471" lon="14.0122483"><ele>3.9999999999999996</ele><time>2026-05-04T14:35:42.403Z</time></trkpt><trkpt lat="40.9470383" lon="14.0123"><ele>4.0</ele><time>2026-05-04T14:35:43.402Z</time></trkpt><trkpt lat="40.9469733" lon="14.012355"><ele>4.0</ele><time>2026-05-04T14:35:44.402Z</time></trkpt><trkpt lat="40.9469083" lon="14.0124067"><ele>3.9999999999999996</ele><time>2026-05-04T14:35:45.402Z</time></trkpt><trkpt lat="40.9468467" lon="14.0124567"><ele>4.0</ele><time>2026-05-04T14:35:46.401Z</time></trkpt><trkpt lat="40.9467833" lon="14.01251"><ele>4.0</ele><time>2026-05-04T14:35:47.402Z</time></trkpt><trkpt lat="40.9467167" lon="14.012565"><ele>3.9999999999999996</ele><time>2026-05-04T14:35:48.403Z</time></trkpt><trkpt lat="40.9466533" lon="14.0126217"><ele>4.0</ele><time>2026-05-04T14:35:49.404Z</time></trkpt><trkpt lat="40.9465883" lon="14.0126783"><ele>4.0</ele><time>2026-05-04T14:35:50.402Z</time></trkpt><trkpt lat="40.9465233" lon="14.0127333"><ele>4.0</ele><time>2026-05-04T14:35:51.402Z</time></trkpt><trkpt lat="40.9464583" lon="14.012785"><ele>3.9999999999999996</ele><time>2026-05-04T14:35:52.403Z</time></trkpt><trkpt lat="40.9463933" lon="14.0128367"><ele>4.0</ele><time>2026-05-04T14:35:53.403Z</time></trkpt><trkpt lat="40.9463317" lon="14.01289"><ele>3.9999999999999996</ele><time>2026-05-04T14:35:54.403Z</time></trkpt><trkpt lat="40.9462667" lon="14.0129483"><ele>4.0</ele><time>2026-05-04T14:35:55.403Z</time></trkpt><trkpt lat="40.946205" lon="14.0130033"><ele>4.0</ele><time>2026-05-04T14:35:56.403Z</time></trkpt><trkpt lat="40.9461383" lon="14.01306"><ele>4.0</ele><time>2026-05-04T14:35:57.401Z</time></trkpt><trkpt lat="40.9460733" lon="14.01311"><ele>3.9999999999999996</ele><time>2026-05-04T14:35:58.402Z</time></trkpt><trkpt lat="40.9460083" lon="14.0131617"><ele>4.0</ele><time>2026-05-04T14:35:59.402Z</time></trkpt><trkpt lat="40.94595" lon="14.01321"><ele>4.0</ele><time>2026-05-04T14:36:00.403Z</time></trkpt><trkpt lat="40.9458833" lon="14.0132617"><ele>3.9999999999999996</ele><time>2026-05-04T14:36:01.403Z</time></trkpt><trkpt lat="40.9458167" lon="14.0133167"><ele>4.0</ele><time>2026-05-04T14:36:02.402Z</time></trkpt><trkpt lat="40.94575" lon="14.0133767"><ele>4.0</ele><time>2026-05-04T14:36:03.402Z</time></trkpt><trkpt lat="40.94569" lon="14.01343"><ele>3.9999999999999996</ele><time>2026-05-04T14:36:04.403Z</time></trkpt><trkpt lat="40.9456317" lon="14.0134817"><ele>4.0</ele><time>2026-05-04T14:36:05.402Z</time></trkpt><trkpt lat="40.9455733" lon="14.0135317"><ele>4.0</ele><time>2026-05-04T14:36:06.403Z</time></trkpt><trkpt lat="40.9455133" lon="14.0135783"><ele>3.714285714285714</ele><time>2026-05-04T14:36:07.403Z</time></trkpt><trkpt lat="40.9454533" lon="14.0136233"><ele>3.428571428571428</ele><time>2026-05-04T14:36:08.403Z</time></trkpt><trkpt lat="40.9453967" lon="14.0136667"><ele>3.142857142857143</ele><time>2026-05-04T14:36:09.403Z</time></trkpt><trkpt lat="40.9453367" lon="14.0137167"><ele>2.8571428571428568</ele><time>2026-05-04T14:36:10.402Z</time></trkpt><trkpt lat="40.9452733" lon="14.0137683"><ele>2.571428571428571</ele><time>2026-05-04T14:36:11.402Z</time></trkpt><trkpt lat="40.9452133" lon="14.01382"><ele>2.2857142857142856</ele><time>2026-05-04T14:36:12.403Z</time></trkpt><trkpt lat="40.945155" lon="14.0138683"><ele>2.0</ele><time>2026-05-04T14:36:13.403Z</time></trkpt><trkpt lat="40.9450917" lon="14.0139133"><ele>2.142857142857143</ele><time>2026-05-04T14:36:14.402Z</time></trkpt><trkpt lat="40.9450267" lon="14.0139667"><ele>2.2857142857142856</ele><time>2026-05-04T14:36:15.403Z</time></trkpt><trkpt lat="40.9449617" lon="14.014025"><ele>2.4285714285714284</ele><time>2026-05-04T14:36:16.402Z</time></trkpt><trkpt lat="40.944905" lon="14.0140783"><ele>2.571428571428571</ele><time>2026-05-04T14:36:17.402Z</time></trkpt><trkpt lat="40.944845" lon="14.01413"><ele>2.7142857142857144</ele><time>2026-05-04T14:36:18.402Z</time></trkpt><trkpt lat="40.94478" lon="14.0141767"><ele>2.8571428571428568</ele><time>2026-05-04T14:36:19.403Z</time></trkpt><trkpt lat="40.9447117" lon="14.0142183"><ele>3.0</ele><time>2026-05-04T14:36:20.403Z</time></trkpt><trkpt lat="40.9446433" lon="14.0142667"><ele>3.0</ele><time>2026-05-04T14:36:21.402Z</time></trkpt><trkpt lat="40.9445783" lon="14.0143233"><ele>3.0</ele><time>2026-05-04T14:36:22.402Z</time></trkpt><trkpt lat="40.944515" lon="14.0143767"><ele>3.0</ele><time>2026-05-04T14:36:23.403Z</time></trkpt><trkpt lat="40.9444533" lon="14.014435"><ele>3.0</ele><time>2026-05-04T14:36:24.402Z</time></trkpt><trkpt lat="40.9443917" lon="14.01449"><ele>3.0</ele><time>2026-05-04T14:36:25.403Z</time></trkpt><trkpt lat="40.9443267" lon="14.0145433"><ele>3.0</ele><time>2026-05-04T14:36:26.402Z</time></trkpt><trkpt lat="40.9442633" lon="14.0145967"><ele>3.0</ele><time>2026-05-04T14:36:27.402Z</time></trkpt><trkpt lat="40.9442" lon="14.0146533"><ele>3.0</ele><time>2026-05-04T14:36:28.403Z</time></trkpt><trkpt lat="40.944135" lon="14.01471"><ele>3.0</ele><time>2026-05-04T14:36:29.403Z</time></trkpt><trkpt lat="40.94407" lon="14.0147617"><ele>3.0</ele><time>2026-05-04T14:36:30.402Z</time></trkpt><trkpt lat="40.9440017" lon="14.0148083"><ele>3.0</ele><time>2026-05-04T14:36:31.404Z</time></trkpt><trkpt lat="40.9439317" lon="14.0148567"><ele>3.0</ele><time>2026-05-04T14:36:32.403Z</time></trkpt><trkpt lat="40.9438633" lon="14.0149067"><ele>3.0</ele><time>2026-05-04T14:36:33.402Z</time></trkpt><trkpt lat="40.9437933" lon="14.0149583"><ele>3.0</ele><time>2026-05-04T14:36:34.401Z</time></trkpt><trkpt lat="40.943725" lon="14.0150167"><ele>3.0</ele><time>2026-05-04T14:36:35.404Z</time></trkpt><trkpt lat="40.9436567" lon="14.0150717"><ele>3.0</ele><time>2026-05-04T14:36:36.403Z</time></trkpt><trkpt lat="40.9435917" lon="14.015125"><ele>3.0</ele><time>2026-05-04T14:36:37.403Z</time></trkpt><trkpt lat="40.9435317" lon="14.0151767"><ele>3.0</ele><time>2026-05-04T14:36:38.403Z</time></trkpt><trkpt lat="40.94347" lon="14.0152317"><ele>3.0</ele><time>2026-05-04T14:36:39.401Z</time></trkpt><trkpt lat="40.94341" lon="14.01529"><ele>3.0</ele><time>2026-05-04T14:36:40.404Z</time></trkpt><trkpt lat="40.9433483" lon="14.015345"><ele>3.0</ele><time>2026-05-04T14:36:41.403Z</time></trkpt><trkpt lat="40.9432817" lon="14.0153983"><ele>3.0</ele><time>2026-05-04T14:36:42.402Z</time></trkpt><trkpt lat="40.943215" lon="14.01545"><ele>3.0</ele><time>2026-05-04T14:36:43.402Z</time></trkpt><trkpt lat="40.9431483" lon="14.0155033"><ele>3.0</ele><time>2026-05-04T14:36:44.402Z</time></trkpt><trkpt lat="40.9430783" lon="14.01556"><ele>3.0</ele><time>2026-05-04T14:36:45.402Z</time></trkpt><trkpt lat="40.94301" lon="14.0156183"><ele>3.0</ele><time>2026-05-04T14:36:46.402Z</time></trkpt><trkpt lat="40.9429417" lon="14.0156783"><ele>3.0</ele><time>2026-05-04T14:36:47.403Z</time></trkpt><trkpt lat="40.9428733" lon="14.0157333"><ele>3.0</ele><time>2026-05-04T14:36:48.403Z</time></trkpt><trkpt lat="40.942805" lon="14.0157867"><ele>3.0</ele><time>2026-05-04T14:36:49.403Z</time></trkpt><trkpt lat="40.9427367" lon="14.015845"><ele>3.0</ele><time>2026-05-04T14:36:50.403Z</time></trkpt><trkpt lat="40.94267" lon="14.015905"><ele>3.0</ele><time>2026-05-04T14:36:51.402Z</time></trkpt><trkpt lat="40.9426017" lon="14.0159667"><ele>3.0</ele><time>2026-05-04T14:36:52.402Z</time></trkpt><trkpt lat="40.9425333" lon="14.016025"><ele>3.0</ele><time>2026-05-04T14:36:53.403Z</time></trkpt><trkpt lat="40.9424617" lon="14.0160783"><ele>3.0</ele><time>2026-05-04T14:36:54.403Z</time></trkpt><trkpt lat="40.9423917" lon="14.016135"><ele>3.0</ele><time>2026-05-04T14:36:55.403Z</time></trkpt><trkpt lat="40.9423233" lon="14.0161967"><ele>3.0</ele><time>2026-05-04T14:36:56.403Z</time></trkpt><trkpt lat="40.942255" lon="14.0162567"><ele>3.0</ele><time>2026-05-04T14:36:57.402Z</time></trkpt><trkpt lat="40.9421833" lon="14.0163133"><ele>3.0</ele><time>2026-05-04T14:36:58.402Z</time></trkpt><trkpt lat="40.942115" lon="14.0163667"><ele>3.0</ele><time>2026-05-04T14:36:59.402Z</time></trkpt><trkpt lat="40.94204" lon="14.016415"><ele>3.0</ele><time>2026-05-04T14:37:00.403Z</time></trkpt><trkpt lat="40.94197" lon="14.0164683"><ele>3.0</ele><time>2026-05-04T14:37:01.404Z</time></trkpt><trkpt lat="40.9419017" lon="14.0165283"><ele>3.0</ele><time>2026-05-04T14:37:02.403Z</time></trkpt><trkpt lat="40.941835" lon="14.0165917"><ele>3.0</ele><time>2026-05-04T14:37:03.402Z</time></trkpt><trkpt lat="40.941765" lon="14.0166483"><ele>3.0</ele><time>2026-05-04T14:37:04.402Z</time></trkpt><trkpt lat="40.9417033" lon="14.0167017"><ele>3.0</ele><time>2026-05-04T14:37:05.403Z</time></trkpt><trkpt lat="40.94164" lon="14.016755"><ele>3.0</ele><time>2026-05-04T14:37:06.404Z</time></trkpt><trkpt lat="40.941575" lon="14.0168033"><ele>3.0</ele><time>2026-05-04T14:37:07.403Z</time></trkpt><trkpt lat="40.9415083" lon="14.0168483"><ele>3.0</ele><time>2026-05-04T14:37:08.403Z</time></trkpt><trkpt lat="40.9414417" lon="14.0169"><ele>3.4285714285714284</ele><time>2026-05-04T14:37:09.402Z</time></trkpt><trkpt lat="40.9413767" lon="14.016955"><ele>3.8571428571428568</ele><time>2026-05-04T14:37:10.403Z</time></trkpt><trkpt lat="40.9413167" lon="14.0170067"><ele>4.285714285714286</ele><time>2026-05-04T14:37:11.403Z</time></trkpt><trkpt lat="40.9412533" lon="14.0170583"><ele>4.7142857142857135</ele><time>2026-05-04T14:37:12.403Z</time></trkpt><trkpt lat="40.94119" lon="14.01711"><ele>5.142857142857142</ele><time>2026-05-04T14:37:13.403Z</time></trkpt><trkpt lat="40.9411267" lon="14.01716"><ele>5.571428571428571</ele><time>2026-05-04T14:37:14.402Z</time></trkpt><trkpt lat="40.941065" lon="14.017215"><ele>6.0</ele><time>2026-05-04T14:37:15.401Z</time></trkpt><trkpt lat="40.941" lon="14.017275"><ele>6.0</ele><time>2026-05-04T14:37:16.403Z</time></trkpt><trkpt lat="40.940935" lon="14.0173367"><ele>6.0</ele><time>2026-05-04T14:37:17.404Z</time></trkpt><trkpt lat="40.94087" lon="14.0173983"><ele>6.0</ele><time>2026-05-04T14:37:18.402Z</time></trkpt><trkpt lat="40.9408083" lon="14.01746"><ele>6.0</ele><time>2026-05-04T14:37:19.404Z</time></trkpt><trkpt lat="40.9407367" lon="14.0175083"><ele>6.0</ele><time>2026-05-04T14:37:20.404Z</time></trkpt><trkpt lat="40.9406683" lon="14.0175533"><ele>6.0</ele><time>2026-05-04T14:37:21.402Z</time></trkpt><trkpt lat="40.9406033" lon="14.017605"><ele>6.0</ele><time>2026-05-04T14:37:22.402Z</time></trkpt><trkpt lat="40.9405317" lon="14.0176617"><ele>6.0</ele><time>2026-05-04T14:37:23.402Z</time></trkpt><trkpt lat="40.9404617" lon="14.0177117"><ele>6.0</ele><time>2026-05-04T14:37:24.403Z</time></trkpt><trkpt lat="40.9403883" lon="14.01776"><ele>6.0</ele><time>2026-05-04T14:37:25.404Z</time></trkpt><trkpt lat="40.9403167" lon="14.0178067"><ele>6.0</ele><time>2026-05-04T14:37:26.403Z</time></trkpt><trkpt lat="40.9402483" lon="14.0178567"><ele>6.0</ele><time>2026-05-04T14:37:27.405Z</time></trkpt><trkpt lat="40.9401767" lon="14.0179"><ele>6.0</ele><time>2026-05-04T14:37:28.402Z</time></trkpt><trkpt lat="40.9401067" lon="14.0179433"><ele>6.0</ele><time>2026-05-04T14:37:29.403Z</time></trkpt><trkpt lat="40.9400383" lon="14.01799"><ele>6.0</ele><time>2026-05-04T14:37:30.403Z</time></trkpt><trkpt lat="40.93997" lon="14.01804"><ele>6.0</ele><time>2026-05-04T14:37:31.403Z</time></trkpt><trkpt lat="40.9399017" lon="14.0180917"><ele>6.0</ele><time>2026-05-04T14:37:32.402Z</time></trkpt><trkpt lat="40.9398283" lon="14.0181167"><ele>6.0</ele><time>2026-05-04T14:37:33.402Z</time></trkpt><trkpt lat="40.9397567" lon="14.0181483"><ele>5.833333333333333</ele><time>2026-05-04T14:37:34.403Z</time></trkpt><trkpt lat="40.939685" lon="14.018195"><ele>5.666666666666667</ele><time>2026-05-04T14:37:35.402Z</time></trkpt><trkpt lat="40.939615" lon="14.0182433"><ele>5.5</ele><time>2026-05-04T14:37:36.403Z</time></trkpt><trkpt lat="40.9395433" lon="14.01829"><ele>5.333333333333334</ele><time>2026-05-04T14:37:37.402Z</time></trkpt><trkpt lat="40.93947" lon="14.0183317"><ele>5.166666666666667</ele><time>2026-05-04T14:37:38.403Z</time></trkpt><trkpt lat="40.9393967" lon="14.01837"><ele>5.0</ele><time>2026-05-04T14:37:39.401Z</time></trkpt><trkpt lat="40.9393233" lon="14.0184117"><ele>5.0</ele><time>2026-05-04T14:37:40.403Z</time></trkpt><trkpt lat="40.939245" lon="14.0184583"><ele>5.0</ele><time>2026-05-04T14:37:41.403Z</time></trkpt><trkpt lat="40.93917" lon="14.0185067"><ele>5.0</ele><time>2026-05-04T14:37:42.403Z</time></trkpt><trkpt lat="40.9390967" lon="14.01855"><ele>5.0</ele><time>2026-05-04T14:37:43.402Z</time></trkpt><trkpt lat="40.9390217" lon="14.0185917"><ele>5.0</ele><time>2026-05-04T14:37:44.402Z</time></trkpt><trkpt lat="40.9389433" lon="14.0186267"><ele>5.0</ele><time>2026-05-04T14:37:45.401Z</time></trkpt><trkpt lat="40.9388667" lon="14.0186783"><ele>5.5</ele><time>2026-05-04T14:37:46.402Z</time></trkpt><trkpt lat="40.9387917" lon="14.0187267"><ele>6.0</ele><time>2026-05-04T14:37:47.403Z</time></trkpt><trkpt lat="40.9387167" lon="14.0187767"><ele>6.5</ele><time>2026-05-04T14:37:48.403Z</time></trkpt><trkpt lat="40.9386433" lon="14.018825"><ele>7.0</ele><time>2026-05-04T14:37:49.404Z</time></trkpt><trkpt lat="40.9385717" lon="14.0188633"><ele>7.499999999999999</ele><time>2026-05-04T14:37:50.403Z</time></trkpt><trkpt lat="40.9385" lon="14.0189083"><ele>8.0</ele><time>2026-05-04T14:37:51.403Z</time></trkpt><trkpt lat="40.9384283" lon="14.0189533"><ele>8.333333333333332</ele><time>2026-05-04T14:37:52.403Z</time></trkpt><trkpt lat="40.9383567" lon="14.0189917"><ele>8.666666666666666</ele><time>2026-05-04T14:37:53.404Z</time></trkpt><trkpt lat="40.93828" lon="14.0190317"><ele>9.0</ele><time>2026-05-04T14:37:54.402Z</time></trkpt><trkpt lat="40.9382017" lon="14.0190733"><ele>9.333333333333334</ele><time>2026-05-04T14:37:55.403Z</time></trkpt><trkpt lat="40.9381267" lon="14.0191217"><ele>9.666666666666668</ele><time>2026-05-04T14:37:56.404Z</time></trkpt><trkpt lat="40.9380533" lon="14.0191733"><ele>10.0</ele><time>2026-05-04T14:37:57.403Z</time></trkpt><trkpt lat="40.9379767" lon="14.01922"><ele>10.0</ele><time>2026-05-04T14:37:58.403Z</time></trkpt><trkpt lat="40.9378983" lon="14.0192633"><ele>10.0</ele><time>2026-05-04T14:37:59.403Z</time></trkpt><trkpt lat="40.9378183" lon="14.0193083"><ele>10.0</ele><time>2026-05-04T14:38:00.404Z</time></trkpt><trkpt lat="40.9377433" lon="14.0193583"><ele>10.0</ele><time>2026-05-04T14:38:01.403Z</time></trkpt><trkpt lat="40.9376683" lon="14.019405"><ele>10.0</ele><time>2026-05-04T14:38:02.403Z</time></trkpt><trkpt lat="40.937595" lon="14.0194517"><ele>10.0</ele><time>2026-05-04T14:38:03.403Z</time></trkpt><trkpt lat="40.93752" lon="14.019495"><ele>10.0</ele><time>2026-05-04T14:38:04.403Z</time></trkpt><trkpt lat="40.9374433" lon="14.0195417"><ele>10.0</ele><time>2026-05-04T14:38:05.404Z</time></trkpt><trkpt lat="40.9373667" lon="14.01959"><ele>10.0</ele><time>2026-05-04T14:38:06.402Z</time></trkpt><trkpt lat="40.93729" lon="14.0196433"><ele>10.0</ele><time>2026-05-04T14:38:07.403Z</time></trkpt><trkpt lat="40.9372117" lon="14.01966"><ele>10.0</ele><time>2026-05-04T14:38:08.403Z</time></trkpt><trkpt lat="40.937135" lon="14.0197083"><ele>10.0</ele><time>2026-05-04T14:38:09.402Z</time></trkpt><trkpt lat="40.9370583" lon="14.0197583"><ele>10.0</ele><time>2026-05-04T14:38:10.403Z</time></trkpt><trkpt lat="40.93698" lon="14.0198017"><ele>10.0</ele><time>2026-05-04T14:38:11.404Z</time></trkpt><trkpt lat="40.936905" lon="14.019845"><ele>10.0</ele><time>2026-05-04T14:38:12.401Z</time></trkpt><trkpt lat="40.93683" lon="14.01989"><ele>10.0</ele><time>2026-05-04T14:38:13.403Z</time></trkpt><trkpt lat="40.9367567" lon="14.0199317"><ele>10.0</ele><time>2026-05-04T14:38:14.402Z</time></trkpt><trkpt lat="40.9366817" lon="14.0199783"><ele>10.0</ele><time>2026-05-04T14:38:15.403Z</time></trkpt><trkpt lat="40.93661" lon="14.0200267"><ele>9.166666666666668</ele><time>2026-05-04T14:38:16.403Z</time></trkpt><trkpt lat="40.936535" lon="14.0200733"><ele>8.333333333333334</ele><time>2026-05-04T14:38:17.403Z</time></trkpt><trkpt lat="40.9364583" lon="14.0201133"><ele>7.5</ele><time>2026-05-04T14:38:18.403Z</time></trkpt><trkpt lat="40.9363817" lon="14.020155"><ele>6.666666666666667</ele><time>2026-05-04T14:38:19.403Z</time></trkpt><trkpt lat="40.936305" lon="14.0201967"><ele>5.833333333333334</ele><time>2026-05-04T14:38:20.402Z</time></trkpt><trkpt lat="40.9362333" lon="14.0202367"><ele>5.0</ele><time>2026-05-04T14:38:21.403Z</time></trkpt><trkpt lat="40.9361633" lon="14.0202783"><ele>5.0</ele><time>2026-05-04T14:38:22.405Z</time></trkpt><trkpt lat="40.9360933" lon="14.0203217"><ele>5.0</ele><time>2026-05-04T14:38:23.404Z</time></trkpt><trkpt lat="40.9360217" lon="14.0203667"><ele>5.0</ele><time>2026-05-04T14:38:24.403Z</time></trkpt><trkpt lat="40.93595" lon="14.0204067"><ele>5.0</ele><time>2026-05-04T14:38:25.403Z</time></trkpt><trkpt lat="40.9358783" lon="14.0204433"><ele>5.0</ele><time>2026-05-04T14:38:26.403Z</time></trkpt><trkpt lat="40.93581" lon="14.0204817"><ele>5.0</ele><time>2026-05-04T14:38:27.403Z</time></trkpt><trkpt lat="40.9357383" lon="14.0205217"><ele>5.666666666666667</ele><time>2026-05-04T14:38:28.404Z</time></trkpt><trkpt lat="40.9356633" lon="14.0205567"><ele>6.333333333333334</ele><time>2026-05-04T14:38:29.403Z</time></trkpt><trkpt lat="40.93559" lon="14.0205967"><ele>7.0</ele><time>2026-05-04T14:38:30.403Z</time></trkpt><trkpt lat="40.9355183" lon="14.0206433"><ele>7.666666666666667</ele><time>2026-05-04T14:38:31.404Z</time></trkpt><trkpt lat="40.9354417" lon="14.02069"><ele>8.333333333333334</ele><time>2026-05-04T14:38:32.402Z</time></trkpt><trkpt lat="40.9353683" lon="14.0207383"><ele>9.0</ele><time>2026-05-04T14:38:33.403Z</time></trkpt><trkpt lat="40.9352967" lon="14.0207833"><ele>8.833333333333334</ele><time>2026-05-04T14:38:34.403Z</time></trkpt><trkpt lat="40.9352217" lon="14.0208267"><ele>8.666666666666666</ele><time>2026-05-04T14:38:35.403Z</time></trkpt><trkpt lat="40.93515" lon="14.0208733"><ele>8.5</ele><time>2026-05-04T14:38:36.403Z</time></trkpt><trkpt lat="40.935075" lon="14.0209217"><ele>8.333333333333332</ele><time>2026-05-04T14:38:37.404Z</time></trkpt><trkpt lat="40.9349983" lon="14.0209683"><ele>8.166666666666666</ele><time>2026-05-04T14:38:38.403Z</time></trkpt><trkpt lat="40.9349217" lon="14.0210083"><ele>8.0</ele><time>2026-05-04T14:38:39.403Z</time></trkpt><trkpt lat="40.9348433" lon="14.0210467"><ele>7.999999999999999</ele><time>2026-05-04T14:38:40.402Z</time></trkpt><trkpt lat="40.934765" lon="14.0210883"><ele>8.0</ele><time>2026-05-04T14:38:41.403Z</time></trkpt><trkpt lat="40.9346883" lon="14.021135"><ele>8.0</ele><time>2026-05-04T14:38:42.403Z</time></trkpt><trkpt lat="40.9346117" lon="14.02118"><ele>8.0</ele><time>2026-05-04T14:38:43.405Z</time></trkpt><trkpt lat="40.9345367" lon="14.0212233"><ele>7.999999999999999</ele><time>2026-05-04T14:38:44.403Z</time></trkpt><trkpt lat="40.9344583" lon="14.021265"><ele>8.0</ele><time>2026-05-04T14:38:45.404Z</time></trkpt><trkpt lat="40.9343767" lon="14.0213033"><ele>7.999999999999999</ele><time>2026-05-04T14:38:46.402Z</time></trkpt><trkpt lat="40.934295" lon="14.0213467"><ele>8.0</ele><time>2026-05-04T14:38:47.403Z</time></trkpt><trkpt lat="40.9342167" lon="14.0213917"><ele>8.0</ele><time>2026-05-04T14:38:48.403Z</time></trkpt><trkpt lat="40.9341417" lon="14.021435"><ele>8.0</ele><time>2026-05-04T14:38:49.403Z</time></trkpt><trkpt lat="40.9340667" lon="14.0214783"><ele>7.999999999999999</ele><time>2026-05-04T14:38:50.402Z</time></trkpt><trkpt lat="40.9339883" lon="14.0215217"><ele>8.0</ele><time>2026-05-04T14:38:51.403Z</time></trkpt><trkpt lat="40.93391" lon="14.021565"><ele>8.333333333333332</ele><time>2026-05-04T14:38:52.403Z</time></trkpt><trkpt lat="40.933835" lon="14.021615"><ele>8.666666666666666</ele><time>2026-05-04T14:38:53.403Z</time></trkpt><trkpt lat="40.9337567" lon="14.0216667"><ele>9.0</ele><time>2026-05-04T14:38:54.403Z</time></trkpt><trkpt lat="40.9336783" lon="14.02172"><ele>9.333333333333334</ele><time>2026-05-04T14:38:55.404Z</time></trkpt><trkpt lat="40.9336" lon="14.0217667"><ele>9.666666666666668</ele><time>2026-05-04T14:38:56.404Z</time></trkpt><trkpt lat="40.9335183" lon="14.021805"><ele>10.0</ele><time>2026-05-04T14:38:57.402Z</time></trkpt><trkpt lat="40.9334367" lon="14.0218533"><ele>9.0</ele><time>2026-05-04T14:38:58.403Z</time></trkpt><trkpt lat="40.9333583" lon="14.0219033"><ele>8.0</ele><time>2026-05-04T14:38:59.403Z</time></trkpt><trkpt lat="40.9332783" lon="14.0219517"><ele>7.0</ele><time>2026-05-04T14:39:00.403Z</time></trkpt><trkpt lat="40.9331983" lon="14.0219983"><ele>6.0</ele><time>2026-05-04T14:39:01.403Z</time></trkpt><trkpt lat="40.9331133" lon="14.022045"><ele>5.0</ele><time>2026-05-04T14:39:02.403Z</time></trkpt><trkpt lat="40.9330317" lon="14.02209"><ele>4.0</ele><time>2026-05-04T14:39:03.403Z</time></trkpt><trkpt lat="40.9329517" lon="14.0221317"><ele>3.9999999999999996</ele><time>2026-05-04T14:39:04.404Z</time></trkpt><trkpt lat="40.9328717" lon="14.0221767"><ele>4.0</ele><time>2026-05-04T14:39:05.403Z</time></trkpt><trkpt lat="40.9327933" lon="14.0222233"><ele>4.0</ele><time>2026-05-04T14:39:06.403Z</time></trkpt><trkpt lat="40.9327167" lon="14.02227"><ele>4.0</ele><time>2026-05-04T14:39:07.404Z</time></trkpt><trkpt lat="40.9326383" lon="14.02232"><ele>3.9999999999999996</ele><time>2026-05-04T14:39:08.404Z</time></trkpt><trkpt lat="40.9325633" lon="14.0223683"><ele>4.0</ele><time>2026-05-04T14:39:09.401Z</time></trkpt><trkpt lat="40.9324867" lon="14.0224117"><ele>4.333333333333333</ele><time>2026-05-04T14:39:10.402Z</time></trkpt><trkpt lat="40.9324083" lon="14.0224533"><ele>4.666666666666666</ele><time>2026-05-04T14:39:11.402Z</time></trkpt><trkpt lat="40.932325" lon="14.0224983"><ele>5.0</ele><time>2026-05-04T14:39:12.402Z</time></trkpt><trkpt lat="40.9322433" lon="14.0225433"><ele>5.333333333333333</ele><time>2026-05-04T14:39:13.403Z</time></trkpt><trkpt lat="40.9321617" lon="14.02259"><ele>5.666666666666667</ele><time>2026-05-04T14:39:14.402Z</time></trkpt><trkpt lat="40.9320783" lon="14.0226333"><ele>6.0</ele><time>2026-05-04T14:39:15.403Z</time></trkpt><trkpt lat="40.9319983" lon="14.02268"><ele>6.333333333333333</ele><time>2026-05-04T14:39:16.402Z</time></trkpt><trkpt lat="40.93192" lon="14.02273"><ele>6.666666666666666</ele><time>2026-05-04T14:39:17.403Z</time></trkpt><trkpt lat="40.93184" lon="14.022775"><ele>7.0</ele><time>2026-05-04T14:39:18.403Z</time></trkpt><trkpt lat="40.931765" lon="14.02282"><ele>7.333333333333333</ele><time>2026-05-04T14:39:19.404Z</time></trkpt><trkpt lat="40.931685" lon="14.0228667"><ele>7.666666666666666</ele><time>2026-05-04T14:39:20.402Z</time></trkpt><trkpt lat="40.9316067" lon="14.02291"><ele>8.0</ele><time>2026-05-04T14:39:21.402Z</time></trkpt><trkpt lat="40.9315267" lon="14.02296"><ele>8.5</ele><time>2026-05-04T14:39:22.403Z</time></trkpt><trkpt lat="40.9314467" lon="14.0230017"><ele>9.0</ele><time>2026-05-04T14:39:23.404Z</time></trkpt><trkpt lat="40.9313683" lon="14.0230483"><ele>9.5</ele><time>2026-05-04T14:39:24.402Z</time></trkpt><trkpt lat="40.9312883" lon="14.0230983"><ele>10.0</ele><time>2026-05-04T14:39:25.402Z</time></trkpt><trkpt lat="40.9312083" lon="14.0231467"><ele>10.5</ele><time>2026-05-04T14:39:26.403Z</time></trkpt><trkpt lat="40.93113" lon="14.0231933"><ele>11.0</ele><time>2026-05-04T14:39:27.401Z</time></trkpt><trkpt lat="40.9310517" lon="14.02324"><ele>11.0</ele><time>2026-05-04T14:39:28.402Z</time></trkpt><trkpt lat="40.9309767" lon="14.0232917"><ele>11.0</ele><time>2026-05-04T14:39:29.403Z</time></trkpt><trkpt lat="40.9309" lon="14.0233383"><ele>11.0</ele><time>2026-05-04T14:39:30.403Z</time></trkpt><trkpt lat="40.930825" lon="14.023375"><ele>11.0</ele><time>2026-05-04T14:39:31.403Z</time></trkpt><trkpt lat="40.93075" lon="14.0234133"><ele>11.0</ele><time>2026-05-04T14:39:32.402Z</time></trkpt><trkpt lat="40.9306783" lon="14.0234533"><ele>11.0</ele><time>2026-05-04T14:39:33.402Z</time></trkpt><trkpt lat="40.9306083" lon="14.0234933"><ele>10.571428571428571</ele><time>2026-05-04T14:39:34.402Z</time></trkpt><trkpt lat="40.9305367" lon="14.0235317"><ele>10.142857142857142</ele><time>2026-05-04T14:39:35.404Z</time></trkpt><trkpt lat="40.9304683" lon="14.0235717"><ele>9.714285714285714</ele><time>2026-05-04T14:39:36.403Z</time></trkpt><trkpt lat="40.9304017" lon="14.0236117"><ele>9.285714285714285</ele><time>2026-05-04T14:39:37.403Z</time></trkpt><trkpt lat="40.9303383" lon="14.0236533"><ele>8.857142857142856</ele><time>2026-05-04T14:39:38.403Z</time></trkpt><trkpt lat="40.9302767" lon="14.0236933"><ele>8.428571428571429</ele><time>2026-05-04T14:39:39.402Z</time></trkpt><trkpt lat="40.93021" lon="14.0237317"><ele>8.0</ele><time>2026-05-04T14:39:40.402Z</time></trkpt><trkpt lat="40.9301417" lon="14.0237683"><ele>8.0</ele><time>2026-05-04T14:39:41.403Z</time></trkpt><trkpt lat="40.93007" lon="14.0238"><ele>7.999999999999999</ele><time>2026-05-04T14:39:42.402Z</time></trkpt><trkpt lat="40.930005" lon="14.0238333"><ele>8.0</ele><time>2026-05-04T14:39:43.403Z</time></trkpt><trkpt lat="40.9299417" lon="14.02387"><ele>8.0</ele><time>2026-05-04T14:39:44.403Z</time></trkpt><trkpt lat="40.9298783" lon="14.0239033"><ele>7.999999999999999</ele><time>2026-05-04T14:39:45.403Z</time></trkpt><trkpt lat="40.9298133" lon="14.02394"><ele>8.0</ele><time>2026-05-04T14:39:46.404Z</time></trkpt><trkpt lat="40.9297517" lon="14.0239817"><ele>8.0</ele><time>2026-05-04T14:39:47.404Z</time></trkpt><trkpt lat="40.929685" lon="14.024025"><ele>7.7142857142857135</ele><time>2026-05-04T14:39:48.403Z</time></trkpt><trkpt lat="40.92962" lon="14.0240633"><ele>7.428571428571428</ele><time>2026-05-04T14:39:49.403Z</time></trkpt><trkpt lat="40.929555" lon="14.0241"><ele>7.142857142857142</ele><time>2026-05-04T14:39:50.403Z</time></trkpt><trkpt lat="40.9294883" lon="14.02414"><ele>6.857142857142857</ele><time>2026-05-04T14:39:51.402Z</time></trkpt><trkpt lat="40.9294217" lon="14.0241783"><ele>6.571428571428571</ele><time>2026-05-04T14:39:52.402Z</time></trkpt><trkpt lat="40.9293567" lon="14.02421"><ele>6.285714285714285</ele><time>2026-05-04T14:39:53.403Z</time></trkpt><trkpt lat="40.92929" lon="14.0242417"><ele>6.0</ele><time>2026-05-04T14:39:54.403Z</time></trkpt><trkpt lat="40.9292233" lon="14.0242783"><ele>6.7142857142857135</ele><time>2026-05-04T14:39:55.404Z</time></trkpt><trkpt lat="40.92916" lon="14.0243167"><ele>7.428571428571429</ele><time>2026-05-04T14:39:56.403Z</time></trkpt><trkpt lat="40.9290917" lon="14.0243483"><ele>8.142857142857142</ele><time>2026-05-04T14:39:57.402Z</time></trkpt><trkpt lat="40.929025" lon="14.0243783"><ele>8.857142857142858</ele><time>2026-05-04T14:39:58.405Z</time></trkpt><trkpt lat="40.92896" lon="14.0244033"><ele>9.571428571428571</ele><time>2026-05-04T14:39:59.404Z</time></trkpt><trkpt lat="40.9288967" lon="14.0244317"><ele>10.285714285714286</ele><time>2026-05-04T14:40:00.402Z</time></trkpt><trkpt lat="40.9288333" lon="14.0244617"><ele>11.0</ele><time>2026-05-04T14:40:01.403Z</time></trkpt><trkpt lat="40.9287717" lon="14.0244933"><ele>11.0</ele><time>2026-05-04T14:40:02.403Z</time></trkpt><trkpt lat="40.92871" lon="14.0245217"><ele>11.0</ele><time>2026-05-04T14:40:03.401Z</time></trkpt><trkpt lat="40.92859" lon="14.0245683"><ele>11.0</ele><time>2026-05-04T14:40:05.404Z</time></trkpt><trkpt lat="40.9285217" lon="14.0245917"><ele>11.0</ele><time>2026-05-04T14:40:06.405Z</time></trkpt><trkpt lat="40.9284533" lon="14.0246183"><ele>11.0</ele><time>2026-05-04T14:40:07.403Z</time></trkpt><trkpt lat="40.92838" lon="14.02464"><ele>11.0</ele><time>2026-05-04T14:40:08.402Z</time></trkpt><trkpt lat="40.9283117" lon="14.0246583"><ele>11.142857142857142</ele><time>2026-05-04T14:40:09.402Z</time></trkpt><trkpt lat="40.9282417" lon="14.0246767"><ele>11.285714285714285</ele><time>2026-05-04T14:40:10.403Z</time></trkpt><trkpt lat="40.92817" lon="14.024695"><ele>11.428571428571427</ele><time>2026-05-04T14:40:11.404Z</time></trkpt><trkpt lat="40.9281" lon="14.024715"><ele>11.571428571428571</ele><time>2026-05-04T14:40:12.402Z</time></trkpt><trkpt lat="40.92803" lon="14.0247317"><ele>11.714285714285714</ele><time>2026-05-04T14:40:13.403Z</time></trkpt><trkpt lat="40.92796" lon="14.0247433"><ele>11.857142857142856</ele><time>2026-05-04T14:40:14.403Z</time></trkpt><trkpt lat="40.92789" lon="14.024755"><ele>12.0</ele><time>2026-05-04T14:40:15.402Z</time></trkpt><trkpt lat="40.9278183" lon="14.02477"><ele>12.0</ele><time>2026-05-04T14:40:16.401Z</time></trkpt><trkpt lat="40.9277483" lon="14.02478"><ele>12.0</ele><time>2026-05-04T14:40:17.403Z</time></trkpt><trkpt lat="40.9276817" lon="14.02479"><ele>12.0</ele><time>2026-05-04T14:40:18.403Z</time></trkpt><trkpt lat="40.9276183" lon="14.0248"><ele>12.0</ele><time>2026-05-04T14:40:19.404Z</time></trkpt><trkpt lat="40.9275" lon="14.0248217"><ele>12.0</ele><time>2026-05-04T14:40:21.403Z</time></trkpt><trkpt lat="40.927375" lon="14.0248317"><ele>12.0</ele><time>2026-05-04T14:40:23.404Z</time></trkpt><trkpt lat="40.92731" lon="14.024835"><ele>11.857142857142856</ele><time>2026-05-04T14:40:24.401Z</time></trkpt><trkpt lat="40.927245" lon="14.0248383"><ele>11.714285714285714</ele><time>2026-05-04T14:40:25.403Z</time></trkpt><trkpt lat="40.92718" lon="14.0248417"><ele>11.571428571428571</ele><time>2026-05-04T14:40:26.403Z</time></trkpt><trkpt lat="40.9271167" lon="14.024845"><ele>11.428571428571427</ele><time>2026-05-04T14:40:27.402Z</time></trkpt><trkpt lat="40.9270483" lon="14.02485"><ele>11.285714285714285</ele><time>2026-05-04T14:40:28.402Z</time></trkpt><trkpt lat="40.9269817" lon="14.024855"><ele>11.142857142857142</ele><time>2026-05-04T14:40:29.404Z</time></trkpt><trkpt lat="40.9269133" lon="14.0248617"><ele>11.0</ele><time>2026-05-04T14:40:30.403Z</time></trkpt><trkpt lat="40.9268483" lon="14.0248633"><ele>11.0</ele><time>2026-05-04T14:40:31.404Z</time></trkpt><trkpt lat="40.92678" lon="14.0248633"><ele>11.0</ele><time>2026-05-04T14:40:32.403Z</time></trkpt><trkpt lat="40.9267117" lon="14.0248633"><ele>11.0</ele><time>2026-05-04T14:40:33.401Z</time></trkpt><trkpt lat="40.9266433" lon="14.02486"><ele>11.0</ele><time>2026-05-04T14:40:34.402Z</time></trkpt><trkpt lat="40.9265767" lon="14.02486"><ele>11.0</ele><time>2026-05-04T14:40:35.404Z</time></trkpt><trkpt lat="40.9265083" lon="14.02486"><ele>11.0</ele><time>2026-05-04T14:40:36.402Z</time></trkpt><trkpt lat="40.92644" lon="14.0248617"><ele>11.0</ele><time>2026-05-04T14:40:37.403Z</time></trkpt><trkpt lat="40.9263683" lon="14.0248633"><ele>11.0</ele><time>2026-05-04T14:40:38.403Z</time></trkpt><trkpt lat="40.9262983" lon="14.0248633"><ele>11.0</ele><time>2026-05-04T14:40:39.403Z</time></trkpt><trkpt lat="40.92623" lon="14.0248533"><ele>11.0</ele><time>2026-05-04T14:40:40.403Z</time></trkpt><trkpt lat="40.926155" lon="14.0248417"><ele>11.0</ele><time>2026-05-04T14:40:41.403Z</time></trkpt><trkpt lat="40.92608" lon="14.0248283"><ele>11.0</ele><time>2026-05-04T14:40:42.403Z</time></trkpt><trkpt lat="40.9260033" lon="14.024815"><ele>11.0</ele><time>2026-05-04T14:40:43.404Z</time></trkpt><trkpt lat="40.9259283" lon="14.024805"><ele>11.0</ele><time>2026-05-04T14:40:44.403Z</time></trkpt><trkpt lat="40.92585" lon="14.0247933"><ele>11.166666666666666</ele><time>2026-05-04T14:40:45.401Z</time></trkpt><trkpt lat="40.9257733" lon="14.0247833"><ele>11.333333333333332</ele><time>2026-05-04T14:40:46.403Z</time></trkpt><trkpt lat="40.9256983" lon="14.0247767"><ele>11.5</ele><time>2026-05-04T14:40:47.402Z</time></trkpt><trkpt lat="40.9256217" lon="14.0247733"><ele>11.666666666666666</ele><time>2026-05-04T14:40:48.403Z</time></trkpt><trkpt lat="40.925545" lon="14.0247633"><ele>11.833333333333334</ele><time>2026-05-04T14:40:49.403Z</time></trkpt><trkpt lat="40.9254667" lon="14.024755"><ele>12.0</ele><time>2026-05-04T14:40:50.403Z</time></trkpt><trkpt lat="40.9253867" lon="14.0247483"><ele>12.0</ele><time>2026-05-04T14:40:51.402Z</time></trkpt><trkpt lat="40.9253083" lon="14.0247417"><ele>12.0</ele><time>2026-05-04T14:40:52.403Z</time></trkpt><trkpt lat="40.9252333" lon="14.024735"><ele>12.0</ele><time>2026-05-04T14:40:53.403Z</time></trkpt><trkpt lat="40.9251583" lon="14.024725"><ele>12.0</ele><time>2026-05-04T14:40:54.403Z</time></trkpt><trkpt lat="40.925085" lon="14.024715"><ele>12.0</ele><time>2026-05-04T14:40:55.403Z</time></trkpt><trkpt lat="40.92501" lon="14.0247083"><ele>12.0</ele><time>2026-05-04T14:40:56.403Z</time></trkpt><trkpt lat="40.9249367" lon="14.0247033"><ele>11.5</ele><time>2026-05-04T14:40:57.402Z</time></trkpt><trkpt lat="40.92486" lon="14.024695"><ele>11.0</ele><time>2026-05-04T14:40:58.403Z</time></trkpt><trkpt lat="40.924785" lon="14.0246867"><ele>10.5</ele><time>2026-05-04T14:40:59.404Z</time></trkpt><trkpt lat="40.924705" lon="14.0246783"><ele>10.0</ele><time>2026-05-04T14:41:00.403Z</time></trkpt><trkpt lat="40.924625" lon="14.0246733"><ele>9.5</ele><time>2026-05-04T14:41:01.404Z</time></trkpt><trkpt lat="40.9245467" lon="14.0246683"><ele>9.0</ele><time>2026-05-04T14:41:02.402Z</time></trkpt><trkpt lat="40.92447" lon="14.0246633"><ele>9.0</ele><time>2026-05-04T14:41:03.402Z</time></trkpt><trkpt lat="40.9243933" lon="14.0246467"><ele>9.0</ele><time>2026-05-04T14:41:04.403Z</time></trkpt><trkpt lat="40.9243183" lon="14.02464"><ele>9.0</ele><time>2026-05-04T14:41:05.403Z</time></trkpt><trkpt lat="40.924245" lon="14.0246333"><ele>9.0</ele><time>2026-05-04T14:41:06.402Z</time></trkpt><trkpt lat="40.92417" lon="14.0246317"><ele>9.0</ele><time>2026-05-04T14:41:07.404Z</time></trkpt><trkpt lat="40.9240917" lon="14.0246267"><ele>9.0</ele><time>2026-05-04T14:41:08.402Z</time></trkpt><trkpt lat="40.9240167" lon="14.0246217"><ele>8.857142857142858</ele><time>2026-05-04T14:41:09.402Z</time></trkpt><trkpt lat="40.9239417" lon="14.0246167"><ele>8.714285714285715</ele><time>2026-05-04T14:41:10.404Z</time></trkpt><trkpt lat="40.9238667" lon="14.0246133"><ele>8.571428571428571</ele><time>2026-05-04T14:41:11.402Z</time></trkpt><trkpt lat="40.9237933" lon="14.0246083"><ele>8.428571428571429</ele><time>2026-05-04T14:41:12.402Z</time></trkpt><trkpt lat="40.92372" lon="14.024605"><ele>8.285714285714285</ele><time>2026-05-04T14:41:13.402Z</time></trkpt><trkpt lat="40.9236483" lon="14.0246017"><ele>8.142857142857142</ele><time>2026-05-04T14:41:14.402Z</time></trkpt><trkpt lat="40.9235817" lon="14.0246"><ele>8.0</ele><time>2026-05-04T14:41:15.401Z</time></trkpt><trkpt lat="40.9235133" lon="14.0245983"><ele>8.0</ele><time>2026-05-04T14:41:16.401Z</time></trkpt><trkpt lat="40.9234433" lon="14.02459"><ele>7.999999999999999</ele><time>2026-05-04T14:41:17.401Z</time></trkpt><trkpt lat="40.9233733" lon="14.0245833"><ele>8.0</ele><time>2026-05-04T14:41:18.403Z</time></trkpt><trkpt lat="40.9233017" lon="14.0245767"><ele>8.0</ele><time>2026-05-04T14:41:19.402Z</time></trkpt><trkpt lat="40.9232333" lon="14.02457"><ele>7.999999999999999</ele><time>2026-05-04T14:41:20.402Z</time></trkpt><trkpt lat="40.92316" lon="14.02456"><ele>8.0</ele><time>2026-05-04T14:41:21.401Z</time></trkpt><trkpt lat="40.923085" lon="14.02455"><ele>8.0</ele><time>2026-05-04T14:41:22.402Z</time></trkpt><trkpt lat="40.92301" lon="14.0245417"><ele>7.333333333333333</ele><time>2026-05-04T14:41:23.403Z</time></trkpt><trkpt lat="40.922935" lon="14.0245383"><ele>6.666666666666666</ele><time>2026-05-04T14:41:24.402Z</time></trkpt><trkpt lat="40.9228567" lon="14.024535"><ele>6.0</ele><time>2026-05-04T14:41:25.402Z</time></trkpt><trkpt lat="40.92278" lon="14.0245317"><ele>5.333333333333333</ele><time>2026-05-04T14:41:26.402Z</time></trkpt><trkpt lat="40.9227033" lon="14.0245267"><ele>4.666666666666666</ele><time>2026-05-04T14:41:27.402Z</time></trkpt><trkpt lat="40.922625" lon="14.02452"><ele>4.0</ele><time>2026-05-04T14:41:28.402Z</time></trkpt><trkpt lat="40.9225483" lon="14.0245167"><ele>3.8571428571428568</ele><time>2026-05-04T14:41:29.402Z</time></trkpt><trkpt lat="40.92247" lon="14.02451"><ele>3.714285714285714</ele><time>2026-05-04T14:41:30.402Z</time></trkpt><trkpt lat="40.922395" lon="14.0245017"><ele>3.571428571428571</ele><time>2026-05-04T14:41:31.401Z</time></trkpt><trkpt lat="40.9223233" lon="14.0244933"><ele>3.4285714285714284</ele><time>2026-05-04T14:41:32.401Z</time></trkpt><trkpt lat="40.9222533" lon="14.0244917"><ele>3.2857142857142856</ele><time>2026-05-04T14:41:33.402Z</time></trkpt><trkpt lat="40.922185" lon="14.0244833"><ele>3.1428571428571423</ele><time>2026-05-04T14:41:34.402Z</time></trkpt><trkpt lat="40.92212" lon="14.0244767"><ele>3.0</ele><time>2026-05-04T14:41:35.402Z</time></trkpt><trkpt lat="40.922055" lon="14.0244733"><ele>2.9999999999999996</ele><time>2026-05-04T14:41:36.402Z</time></trkpt><trkpt lat="40.921985" lon="14.0244717"><ele>3.0</ele><time>2026-05-04T14:41:37.402Z</time></trkpt><trkpt lat="40.92192" lon="14.0244683"><ele>3.0</ele><time>2026-05-04T14:41:38.402Z</time></trkpt><trkpt lat="40.921855" lon="14.024465"><ele>3.0</ele><time>2026-05-04T14:41:39.401Z</time></trkpt><trkpt lat="40.9217917" lon="14.0244583"><ele>3.0</ele><time>2026-05-04T14:41:40.402Z</time></trkpt><trkpt lat="40.9217267" lon="14.0244533"><ele>2.9999999999999996</ele><time>2026-05-04T14:41:41.403Z</time></trkpt><trkpt lat="40.9216633" lon="14.024445"><ele>3.0</ele><time>2026-05-04T14:41:42.402Z</time></trkpt><trkpt lat="40.9215417" lon="14.024435"><ele>3.1428571428571423</ele><time>2026-05-04T14:41:44.403Z</time></trkpt><trkpt lat="40.9214783" lon="14.0244317"><ele>3.2857142857142856</ele><time>2026-05-04T14:41:45.401Z</time></trkpt><trkpt lat="40.9214133" lon="14.0244283"><ele>3.4285714285714284</ele><time>2026-05-04T14:41:46.401Z</time></trkpt><trkpt lat="40.92135" lon="14.0244233"><ele>3.571428571428571</ele><time>2026-05-04T14:41:47.402Z</time></trkpt><trkpt lat="40.921285" lon="14.0244183"><ele>3.714285714285714</ele><time>2026-05-04T14:41:48.401Z</time></trkpt><trkpt lat="40.92122" lon="14.024415"><ele>3.8571428571428568</ele><time>2026-05-04T14:41:49.403Z</time></trkpt><trkpt lat="40.921095" lon="14.0244067"><ele>4.0</ele><time>2026-05-04T14:41:51.403Z</time></trkpt><trkpt lat="40.9210283" lon="14.0244033"><ele>4.0</ele><time>2026-05-04T14:41:52.401Z</time></trkpt><trkpt lat="40.92096" lon="14.0244"><ele>3.9999999999999996</ele><time>2026-05-04T14:41:53.402Z</time></trkpt><trkpt lat="40.9208917" lon="14.0243967"><ele>4.0</ele><time>2026-05-04T14:41:54.402Z</time></trkpt><trkpt lat="40.9208233" lon="14.02439"><ele>4.0</ele><time>2026-05-04T14:41:55.402Z</time></trkpt><trkpt lat="40.9207517" lon="14.02438"><ele>3.9999999999999996</ele><time>2026-05-04T14:41:56.402Z</time></trkpt><trkpt lat="40.9206817" lon="14.02437"><ele>4.0</ele><time>2026-05-04T14:41:57.403Z</time></trkpt><trkpt lat="40.920605" lon="14.0243583"><ele>4.0</ele><time>2026-05-04T14:41:58.402Z</time></trkpt><trkpt lat="40.92053" lon="14.02435"><ele>4.285714285714286</ele><time>2026-05-04T14:41:59.402Z</time></trkpt><trkpt lat="40.9204567" lon="14.0243417"><ele>4.571428571428571</ele><time>2026-05-04T14:42:00.401Z</time></trkpt><trkpt lat="40.9203817" lon="14.0243367"><ele>4.857142857142857</ele><time>2026-05-04T14:42:01.402Z</time></trkpt><trkpt lat="40.9203083" lon="14.0243317"><ele>5.142857142857142</ele><time>2026-05-04T14:42:02.402Z</time></trkpt><trkpt lat="40.9202333" lon="14.024325"><ele>5.428571428571429</ele><time>2026-05-04T14:42:03.401Z</time></trkpt><trkpt lat="40.9201583" lon="14.0243183"><ele>5.7142857142857135</ele><time>2026-05-04T14:42:04.402Z</time></trkpt><trkpt lat="40.9200817" lon="14.0243117"><ele>6.0</ele><time>2026-05-04T14:42:05.402Z</time></trkpt><trkpt lat="40.9200083" lon="14.0243083"><ele>6.0</ele><time>2026-05-04T14:42:06.401Z</time></trkpt><trkpt lat="40.9199383" lon="14.02431"><ele>6.0</ele><time>2026-05-04T14:42:07.401Z</time></trkpt><trkpt lat="40.9198717" lon="14.02431"><ele>6.0</ele><time>2026-05-04T14:42:08.402Z</time></trkpt><trkpt lat="40.9198067" lon="14.0243133"><ele>6.0</ele><time>2026-05-04T14:42:09.402Z</time></trkpt><trkpt lat="40.9197433" lon="14.0243183"><ele>6.0</ele><time>2026-05-04T14:42:10.401Z</time></trkpt><trkpt lat="40.91962" lon="14.0243433"><ele>6.0</ele><time>2026-05-04T14:42:12.402Z</time></trkpt><trkpt lat="40.9195567" lon="14.0243617"><ele>5.999999999999999</ele><time>2026-05-04T14:42:13.402Z</time></trkpt><trkpt lat="40.91949" lon="14.0243817"><ele>6.0</ele><time>2026-05-04T14:42:14.402Z</time></trkpt><trkpt lat="40.919425" lon="14.0244017"><ele>6.0</ele><time>2026-05-04T14:42:15.402Z</time></trkpt><trkpt lat="40.9193583" lon="14.0244267"><ele>6.0</ele><time>2026-05-04T14:42:16.402Z</time></trkpt><trkpt lat="40.919295" lon="14.0244567"><ele>6.0</ele><time>2026-05-04T14:42:17.409Z</time></trkpt><trkpt lat="40.919235" lon="14.0244883"><ele>5.999999999999999</ele><time>2026-05-04T14:42:18.402Z</time></trkpt><trkpt lat="40.9191733" lon="14.024525"><ele>6.0</ele><time>2026-05-04T14:42:19.403Z</time></trkpt><trkpt lat="40.9190767" lon="14.0245983"><ele>6.0</ele><time>2026-05-04T14:42:21.402Z</time></trkpt><trkpt lat="40.9189833" lon="14.0246717"><ele>6.0</ele><time>2026-05-04T14:42:23.404Z</time></trkpt><trkpt lat="40.9188867" lon="14.0247633"><ele>6.0</ele><time>2026-05-04T14:42:25.402Z</time></trkpt><trkpt lat="40.9188017" lon="14.02486"><ele>6.0</ele><time>2026-05-04T14:42:27.403Z</time></trkpt><trkpt lat="40.91873" lon="14.0249383"><ele>6.0</ele><time>2026-05-04T14:42:29.402Z</time></trkpt><trkpt lat="40.91865" lon="14.025035"><ele>5.75</ele><time>2026-05-04T14:42:31.403Z</time></trkpt><trkpt lat="40.9185767" lon="14.02515"><ele>5.5</ele><time>2026-05-04T14:42:33.402Z</time></trkpt><trkpt lat="40.9184983" lon="14.025265"><ele>5.25</ele><time>2026-05-04T14:42:35.401Z</time></trkpt><trkpt lat="40.918435" lon="14.0253833"><ele>5.0</ele><time>2026-05-04T14:42:37.401Z</time></trkpt><trkpt lat="40.9183783" lon="14.0255167"><ele>4.75</ele><time>2026-05-04T14:42:39.402Z</time></trkpt><trkpt lat="40.9183183" lon="14.025655"><ele>4.5</ele><time>2026-05-04T14:42:41.402Z</time></trkpt><trkpt lat="40.918265" lon="14.0258083"><ele>4.25</ele><time>2026-05-04T14:42:43.404Z</time></trkpt><trkpt lat="40.9182183" lon="14.0259617"><ele>4.0</ele><time>2026-05-04T14:42:45.406Z</time></trkpt><trkpt lat="40.91818" lon="14.02612"><ele>3.9999999999999996</ele><time>2026-05-04T14:42:47.402Z</time></trkpt><trkpt lat="40.9181583" lon="14.0262"><ele>4.0</ele><time>2026-05-04T14:42:48.402Z</time></trkpt><trkpt lat="40.9181417" lon="14.0262817"><ele>4.0</ele><time>2026-05-04T14:42:49.402Z</time></trkpt><trkpt lat="40.918125" lon="14.026365"><ele>4.0</ele><time>2026-05-04T14:42:50.403Z</time></trkpt><trkpt lat="40.9181067" lon="14.0265317"><ele>3.9999999999999996</ele><time>2026-05-04T14:42:52.402Z</time></trkpt><trkpt lat="40.918085" lon="14.0266933"><ele>4.0</ele><time>2026-05-04T14:42:54.402Z</time></trkpt><trkpt lat="40.9180767" lon="14.0267767"><ele>3.8571428571428568</ele><time>2026-05-04T14:42:55.402Z</time></trkpt><trkpt lat="40.91807" lon="14.0268667"><ele>3.714285714285714</ele><time>2026-05-04T14:42:56.404Z</time></trkpt><trkpt lat="40.918065" lon="14.0269517"><ele>3.571428571428571</ele><time>2026-05-04T14:42:57.402Z</time></trkpt><trkpt lat="40.9180633" lon="14.0270417"><ele>3.4285714285714284</ele><time>2026-05-04T14:42:58.401Z</time></trkpt><trkpt lat="40.91806" lon="14.0271283"><ele>3.2857142857142856</ele><time>2026-05-04T14:42:59.401Z</time></trkpt><trkpt lat="40.918055" lon="14.0272133"><ele>3.1428571428571423</ele><time>2026-05-04T14:43:00.402Z</time></trkpt><trkpt lat="40.91805" lon="14.0272983"><ele>3.0</ele><time>2026-05-04T14:43:01.402Z</time></trkpt><trkpt lat="40.9180467" lon="14.0273833"><ele>2.9999999999999996</ele><time>2026-05-04T14:43:02.402Z</time></trkpt><trkpt lat="40.918045" lon="14.0274667"><ele>3.0</ele><time>2026-05-04T14:43:03.402Z</time></trkpt><trkpt lat="40.918035" lon="14.0275517"><ele>3.0</ele><time>2026-05-04T14:43:04.402Z</time></trkpt><trkpt lat="40.918025" lon="14.0276367"><ele>3.0</ele><time>2026-05-04T14:43:05.402Z</time></trkpt><trkpt lat="40.9180217" lon="14.027725"><ele>3.0</ele><time>2026-05-04T14:43:06.402Z</time></trkpt><trkpt lat="40.918015" lon="14.02782"><ele>2.9999999999999996</ele><time>2026-05-04T14:43:07.401Z</time></trkpt><trkpt lat="40.91801" lon="14.027915"><ele>3.0</ele><time>2026-05-04T14:43:08.403Z</time></trkpt><trkpt lat="40.9180017" lon="14.0280067"><ele>2.8571428571428568</ele><time>2026-05-04T14:43:09.402Z</time></trkpt><trkpt lat="40.9179917" lon="14.0280967"><ele>2.7142857142857144</ele><time>2026-05-04T14:43:10.401Z</time></trkpt><trkpt lat="40.9179817" lon="14.0281883"><ele>2.571428571428571</ele><time>2026-05-04T14:43:11.401Z</time></trkpt><trkpt lat="40.917975" lon="14.028275"><ele>2.4285714285714284</ele><time>2026-05-04T14:43:12.402Z</time></trkpt><trkpt lat="40.9179683" lon="14.0283617"><ele>2.2857142857142856</ele><time>2026-05-04T14:43:13.403Z</time></trkpt><trkpt lat="40.9179567" lon="14.0284467"><ele>2.142857142857143</ele><time>2026-05-04T14:43:14.401Z</time></trkpt><trkpt lat="40.917945" lon="14.028535"><ele>2.0</ele><time>2026-05-04T14:43:15.402Z</time></trkpt><trkpt lat="40.9179367" lon="14.028625"><ele>2.571428571428571</ele><time>2026-05-04T14:43:16.402Z</time></trkpt><trkpt lat="40.9179267" lon="14.028715"><ele>3.1428571428571423</ele><time>2026-05-04T14:43:17.402Z</time></trkpt><trkpt lat="40.9179167" lon="14.028815"><ele>3.714285714285714</ele><time>2026-05-04T14:43:18.402Z</time></trkpt><trkpt lat="40.91791" lon="14.0289067"><ele>4.285714285714286</ele><time>2026-05-04T14:43:19.401Z</time></trkpt><trkpt lat="40.917905" lon="14.0289983"><ele>4.857142857142857</ele><time>2026-05-04T14:43:20.401Z</time></trkpt><trkpt lat="40.9178933" lon="14.0290833"><ele>5.428571428571428</ele><time>2026-05-04T14:43:21.402Z</time></trkpt><trkpt lat="40.9178833" lon="14.0291733"><ele>6.0</ele><time>2026-05-04T14:43:22.402Z</time></trkpt><trkpt lat="40.917865" lon="14.02934"><ele>6.857142857142857</ele><time>2026-05-04T14:43:24.402Z</time></trkpt><trkpt lat="40.9178617" lon="14.0294283"><ele>7.7142857142857135</ele><time>2026-05-04T14:43:25.403Z</time></trkpt><trkpt lat="40.9178567" lon="14.0295183"><ele>8.571428571428571</ele><time>2026-05-04T14:43:26.402Z</time></trkpt><trkpt lat="40.91785" lon="14.0296083"><ele>9.428571428571427</ele><time>2026-05-04T14:43:27.401Z</time></trkpt><trkpt lat="40.91784" lon="14.0297017"><ele>10.285714285714285</ele><time>2026-05-04T14:43:28.402Z</time></trkpt><trkpt lat="40.9178267" lon="14.0297917"><ele>11.142857142857142</ele><time>2026-05-04T14:43:29.403Z</time></trkpt><trkpt lat="40.9178167" lon="14.02988"><ele>12.0</ele><time>2026-05-04T14:43:30.401Z</time></trkpt><trkpt lat="40.917805" lon="14.0299683"><ele>11.999999999999998</ele><time>2026-05-04T14:43:31.402Z</time></trkpt><trkpt lat="40.9177933" lon="14.0300567"><ele>12.0</ele><time>2026-05-04T14:43:32.402Z</time></trkpt><trkpt lat="40.9177833" lon="14.0301467"><ele>12.0</ele><time>2026-05-04T14:43:33.402Z</time></trkpt><trkpt lat="40.9177767" lon="14.0302367"><ele>12.0</ele><time>2026-05-04T14:43:34.401Z</time></trkpt><trkpt lat="40.9177733" lon="14.0303283"><ele>12.0</ele><time>2026-05-04T14:43:35.402Z</time></trkpt><trkpt lat="40.9177717" lon="14.03042"><ele>11.999999999999998</ele><time>2026-05-04T14:43:36.402Z</time></trkpt><trkpt lat="40.9177667" lon="14.0305117"><ele>12.0</ele><time>2026-05-04T14:43:37.403Z</time></trkpt><trkpt lat="40.9177617" lon="14.0306017"><ele>11.999999999999998</ele><time>2026-05-04T14:43:38.402Z</time></trkpt><trkpt lat="40.9177567" lon="14.030695"><ele>12.0</ele><time>2026-05-04T14:43:39.402Z</time></trkpt><trkpt lat="40.917755" lon="14.0307867"><ele>12.0</ele><time>2026-05-04T14:43:40.401Z</time></trkpt><trkpt lat="40.9177483" lon="14.0308817"><ele>12.0</ele><time>2026-05-04T14:43:41.403Z</time></trkpt><trkpt lat="40.91774" lon="14.0309783"><ele>12.0</ele><time>2026-05-04T14:43:42.403Z</time></trkpt><trkpt lat="40.91773" lon="14.0310767"><ele>11.999999999999998</ele><time>2026-05-04T14:43:43.404Z</time></trkpt><trkpt lat="40.91772" lon="14.03118"><ele>12.0</ele><time>2026-05-04T14:43:44.402Z</time></trkpt><trkpt lat="40.9177117" lon="14.03128"><ele>12.0</ele><time>2026-05-04T14:43:45.402Z</time></trkpt><trkpt lat="40.9176967" lon="14.03138"><ele>12.0</ele><time>2026-05-04T14:43:46.403Z</time></trkpt><trkpt lat="40.9176833" lon="14.0314817"><ele>12.0</ele><time>2026-05-04T14:43:47.403Z</time></trkpt><trkpt lat="40.9176767" lon="14.0315833"><ele>12.0</ele><time>2026-05-04T14:43:48.402Z</time></trkpt><trkpt lat="40.91767" lon="14.0316883"><ele>12.0</ele><time>2026-05-04T14:43:49.401Z</time></trkpt><trkpt lat="40.9176583" lon="14.0318"><ele>12.0</ele><time>2026-05-04T14:43:50.401Z</time></trkpt><trkpt lat="40.9176417" lon="14.0319033"><ele>12.0</ele><time>2026-05-04T14:43:51.401Z</time></trkpt><trkpt lat="40.9176233" lon="14.0320033"><ele>12.0</ele><time>2026-05-04T14:43:52.402Z</time></trkpt><trkpt lat="40.9176067" lon="14.032105"><ele>12.0</ele><time>2026-05-04T14:43:53.402Z</time></trkpt><trkpt lat="40.9175883" lon="14.0322083"><ele>12.0</ele><time>2026-05-04T14:43:54.401Z</time></trkpt><trkpt lat="40.9175683" lon="14.0323117"><ele>12.0</ele><time>2026-05-04T14:43:55.402Z</time></trkpt><trkpt lat="40.9175467" lon="14.0324183"><ele>12.0</ele><time>2026-05-04T14:43:56.402Z</time></trkpt><trkpt lat="40.9175333" lon="14.0325267"><ele>11.833333333333334</ele><time>2026-05-04T14:43:57.402Z</time></trkpt><trkpt lat="40.9175233" lon="14.0326333"><ele>11.666666666666666</ele><time>2026-05-04T14:43:58.404Z</time></trkpt><trkpt lat="40.917515" lon="14.03274"><ele>11.5</ele><time>2026-05-04T14:43:59.402Z</time></trkpt><trkpt lat="40.9175067" lon="14.0328533"><ele>11.333333333333332</ele><time>2026-05-04T14:44:00.403Z</time></trkpt><trkpt lat="40.9174967" lon="14.0329667"><ele>11.166666666666666</ele><time>2026-05-04T14:44:01.402Z</time></trkpt><trkpt lat="40.9174867" lon="14.03307"><ele>11.0</ele><time>2026-05-04T14:44:02.402Z</time></trkpt><trkpt lat="40.91748" lon="14.033175"><ele>11.0</ele><time>2026-05-04T14:44:03.402Z</time></trkpt><trkpt lat="40.917475" lon="14.0332833"><ele>11.0</ele><time>2026-05-04T14:44:04.402Z</time></trkpt><trkpt lat="40.9174683" lon="14.0333917"><ele>11.0</ele><time>2026-05-04T14:44:05.402Z</time></trkpt><trkpt lat="40.91746" lon="14.0334967"><ele>11.0</ele><time>2026-05-04T14:44:06.402Z</time></trkpt><trkpt lat="40.9174517" lon="14.0336017"><ele>11.0</ele><time>2026-05-04T14:44:07.403Z</time></trkpt><trkpt lat="40.9174433" lon="14.0337067"><ele>11.0</ele><time>2026-05-04T14:44:08.402Z</time></trkpt><trkpt lat="40.9174317" lon="14.0338117"><ele>11.166666666666666</ele><time>2026-05-04T14:44:09.402Z</time></trkpt><trkpt lat="40.9174167" lon="14.0339167"><ele>11.333333333333332</ele><time>2026-05-04T14:44:10.402Z</time></trkpt><trkpt lat="40.9174" lon="14.0340233"><ele>11.5</ele><time>2026-05-04T14:44:11.402Z</time></trkpt><trkpt lat="40.9173767" lon="14.0341283"><ele>11.666666666666666</ele><time>2026-05-04T14:44:12.402Z</time></trkpt><trkpt lat="40.9173533" lon="14.03423"><ele>11.833333333333334</ele><time>2026-05-04T14:44:13.403Z</time></trkpt><trkpt lat="40.9173267" lon="14.0343317"><ele>12.0</ele><time>2026-05-04T14:44:14.403Z</time></trkpt><trkpt lat="40.9172983" lon="14.0344367"><ele>11.666666666666666</ele><time>2026-05-04T14:44:15.403Z</time></trkpt><trkpt lat="40.917265" lon="14.0345383"><ele>11.333333333333334</ele><time>2026-05-04T14:44:16.402Z</time></trkpt><trkpt lat="40.91723" lon="14.0346367"><ele>11.0</ele><time>2026-05-04T14:44:17.402Z</time></trkpt><trkpt lat="40.9171867" lon="14.0347317"><ele>10.666666666666668</ele><time>2026-05-04T14:44:18.403Z</time></trkpt><trkpt lat="40.91714" lon="14.0348233"><ele>10.333333333333334</ele><time>2026-05-04T14:44:19.405Z</time></trkpt><trkpt lat="40.9170867" lon="14.034915"><ele>10.0</ele><time>2026-05-04T14:44:20.403Z</time></trkpt><trkpt lat="40.9170317" lon="14.035005"><ele>10.0</ele><time>2026-05-04T14:44:21.402Z</time></trkpt><trkpt lat="40.9169667" lon="14.0350867"><ele>10.0</ele><time>2026-05-04T14:44:22.402Z</time></trkpt><trkpt lat="40.9168983" lon="14.03517"><ele>10.0</ele><time>2026-05-04T14:44:23.402Z</time></trkpt><trkpt lat="40.9168283" lon="14.03525"><ele>10.0</ele><time>2026-05-04T14:44:24.402Z</time></trkpt><trkpt lat="40.9167533" lon="14.0353183"><ele>10.0</ele><time>2026-05-04T14:44:25.401Z</time></trkpt><trkpt lat="40.9166767" lon="14.03539"><ele>9.0</ele><time>2026-05-04T14:44:26.402Z</time></trkpt><trkpt lat="40.916595" lon="14.035455"><ele>8.0</ele><time>2026-05-04T14:44:27.402Z</time></trkpt><trkpt lat="40.9165167" lon="14.0355167"><ele>7.0</ele><time>2026-05-04T14:44:28.401Z</time></trkpt><trkpt lat="40.9164317" lon="14.0355683"><ele>6.0</ele><time>2026-05-04T14:44:29.402Z</time></trkpt><trkpt lat="40.9163433" lon="14.035615"><ele>5.0</ele><time>2026-05-04T14:44:30.402Z</time></trkpt><trkpt lat="40.9162517" lon="14.0356567"><ele>5.0</ele><time>2026-05-04T14:44:31.403Z</time></trkpt><trkpt lat="40.9161583" lon="14.0356967"><ele>5.0</ele><time>2026-05-04T14:44:32.401Z</time></trkpt><trkpt lat="40.9160633" lon="14.035735"><ele>5.0</ele><time>2026-05-04T14:44:33.401Z</time></trkpt><trkpt lat="40.9159717" lon="14.03577"><ele>5.0</ele><time>2026-05-04T14:44:34.402Z</time></trkpt><trkpt lat="40.91588" lon="14.0358017"><ele>5.0</ele><time>2026-05-04T14:44:35.403Z</time></trkpt><trkpt lat="40.9157833" lon="14.0358317"><ele>4.6</ele><time>2026-05-04T14:44:36.402Z</time></trkpt><trkpt lat="40.9156933" lon="14.03586"><ele>4.2</ele><time>2026-05-04T14:44:37.402Z</time></trkpt><trkpt lat="40.9156017" lon="14.0358867"><ele>3.8</ele><time>2026-05-04T14:44:38.401Z</time></trkpt><trkpt lat="40.91551" lon="14.0359117"><ele>3.4</ele><time>2026-05-04T14:44:39.402Z</time></trkpt><trkpt lat="40.9154183" lon="14.0359383"><ele>3.0</ele><time>2026-05-04T14:44:40.401Z</time></trkpt><trkpt lat="40.9153283" lon="14.0359633"><ele>3.0</ele><time>2026-05-04T14:44:41.402Z</time></trkpt><trkpt lat="40.9152383" lon="14.0359917"><ele>3.0</ele><time>2026-05-04T14:44:42.402Z</time></trkpt><trkpt lat="40.9151533" lon="14.03602"><ele>3.0</ele><time>2026-05-04T14:44:43.402Z</time></trkpt><trkpt lat="40.9150667" lon="14.0360433"><ele>3.0</ele><time>2026-05-04T14:44:44.402Z</time></trkpt><trkpt lat="40.9149817" lon="14.0360717"><ele>3.0</ele><time>2026-05-04T14:44:45.402Z</time></trkpt><trkpt lat="40.9148967" lon="14.0361017"><ele>3.0</ele><time>2026-05-04T14:44:46.401Z</time></trkpt><trkpt lat="40.9148117" lon="14.0361333"><ele>2.5</ele><time>2026-05-04T14:44:47.403Z</time></trkpt><trkpt lat="40.9147233" lon="14.03616"><ele>2.0</ele><time>2026-05-04T14:44:48.402Z</time></trkpt><trkpt lat="40.91464" lon="14.0361867"><ele>1.5</ele><time>2026-05-04T14:44:49.402Z</time></trkpt><trkpt lat="40.9145567" lon="14.0362117"><ele>1.0</ele><time>2026-05-04T14:44:50.402Z</time></trkpt><trkpt lat="40.9144717" lon="14.0362383"><ele>0.5</ele><time>2026-05-04T14:44:51.401Z</time></trkpt><trkpt lat="40.914385" lon="14.0362617"><ele>0.0</ele><time>2026-05-04T14:44:52.401Z</time></trkpt><trkpt lat="40.9143" lon="14.036285"><ele>0.3333333333333333</ele><time>2026-05-04T14:44:53.402Z</time></trkpt><trkpt lat="40.91421" lon="14.036305"><ele>0.6666666666666666</ele><time>2026-05-04T14:44:54.403Z</time></trkpt><trkpt lat="40.914125" lon="14.0363233"><ele>1.0</ele><time>2026-05-04T14:44:55.402Z</time></trkpt><trkpt lat="40.91404" lon="14.0363467"><ele>1.3333333333333333</ele><time>2026-05-04T14:44:56.401Z</time></trkpt><trkpt lat="40.9139567" lon="14.036375"><ele>1.6666666666666665</ele><time>2026-05-04T14:44:57.402Z</time></trkpt><trkpt lat="40.9138717" lon="14.0364"><ele>2.0</ele><time>2026-05-04T14:44:58.402Z</time></trkpt><trkpt lat="40.9137883" lon="14.0364283"><ele>1.9999999999999998</ele><time>2026-05-04T14:44:59.403Z</time></trkpt><trkpt lat="40.9137067" lon="14.0364583"><ele>2.0</ele><time>2026-05-04T14:45:00.402Z</time></trkpt><trkpt lat="40.9136233" lon="14.036485"><ele>2.0</ele><time>2026-05-04T14:45:01.401Z</time></trkpt><trkpt lat="40.91354" lon="14.036505"><ele>2.0</ele><time>2026-05-04T14:45:02.402Z</time></trkpt><trkpt lat="40.9134583" lon="14.036525"><ele>1.9999999999999998</ele><time>2026-05-04T14:45:03.401Z</time></trkpt><trkpt lat="40.9133767" lon="14.036545"><ele>2.0</ele><time>2026-05-04T14:45:04.402Z</time></trkpt><trkpt lat="40.9132917" lon="14.0365717"><ele>1.9999999999999998</ele><time>2026-05-04T14:45:05.401Z</time></trkpt><trkpt lat="40.91321" lon="14.0365967"><ele>2.0</ele><time>2026-05-04T14:45:06.401Z</time></trkpt><trkpt lat="40.9131267" lon="14.0366183"><ele>2.0</ele><time>2026-05-04T14:45:07.403Z</time></trkpt><trkpt lat="40.913045" lon="14.03664"><ele>2.0</ele><time>2026-05-04T14:45:08.403Z</time></trkpt><trkpt lat="40.9129633" lon="14.036665"><ele>1.9999999999999998</ele><time>2026-05-04T14:45:09.402Z</time></trkpt><trkpt lat="40.91288" lon="14.03669"><ele>2.0</ele><time>2026-05-04T14:45:10.402Z</time></trkpt><trkpt lat="40.912795" lon="14.036715"><ele>1.9999999999999998</ele><time>2026-05-04T14:45:11.402Z</time></trkpt><trkpt lat="40.9127117" lon="14.03674"><ele>2.0</ele><time>2026-05-04T14:45:12.402Z</time></trkpt><trkpt lat="40.9126283" lon="14.036765"><ele>2.0</ele><time>2026-05-04T14:45:13.401Z</time></trkpt><trkpt lat="40.9125433" lon="14.0367867"><ele>2.0</ele><time>2026-05-04T14:45:14.401Z</time></trkpt><trkpt lat="40.91246" lon="14.0368117"><ele>1.9999999999999998</ele><time>2026-05-04T14:45:15.402Z</time></trkpt><trkpt lat="40.9123783" lon="14.03684"><ele>2.0</ele><time>2026-05-04T14:45:16.401Z</time></trkpt><trkpt lat="40.9122983" lon="14.036865"><ele>1.9999999999999998</ele><time>2026-05-04T14:45:17.403Z</time></trkpt><trkpt lat="40.9122167" lon="14.0368867"><ele>2.0</ele><time>2026-05-04T14:45:18.402Z</time></trkpt><trkpt lat="40.9121317" lon="14.0369067"><ele>2.0</ele><time>2026-05-04T14:45:19.402Z</time></trkpt><trkpt lat="40.9120517" lon="14.0369317"><ele>2.0</ele><time>2026-05-04T14:45:20.402Z</time></trkpt><trkpt lat="40.91197" lon="14.0369583"><ele>1.9999999999999998</ele><time>2026-05-04T14:45:21.404Z</time></trkpt><trkpt lat="40.9118883" lon="14.036985"><ele>2.0</ele><time>2026-05-04T14:45:22.404Z</time></trkpt><trkpt lat="40.9118017" lon="14.0370133"><ele>1.6666666666666665</ele><time>2026-05-04T14:45:23.402Z</time></trkpt><trkpt lat="40.9117167" lon="14.0370383"><ele>1.3333333333333333</ele><time>2026-05-04T14:45:24.402Z</time></trkpt><trkpt lat="40.91163" lon="14.0370617"><ele>1.0</ele><time>2026-05-04T14:45:25.403Z</time></trkpt><trkpt lat="40.9115467" lon="14.0370867"><ele>0.6666666666666666</ele><time>2026-05-04T14:45:26.402Z</time></trkpt><trkpt lat="40.9114633" lon="14.0371117"><ele>0.3333333333333333</ele><time>2026-05-04T14:45:27.402Z</time></trkpt><trkpt lat="40.9113817" lon="14.037135"><ele>0.0</ele><time>2026-05-04T14:45:28.402Z</time></trkpt><trkpt lat="40.911295" lon="14.0371533"><ele>0.0</ele><time>2026-05-04T14:45:29.402Z</time></trkpt><trkpt lat="40.91121" lon="14.0371717"><ele>0.0</ele><time>2026-05-04T14:45:30.401Z</time></trkpt><trkpt lat="40.9111267" lon="14.0371917"><ele>0.0</ele><time>2026-05-04T14:45:31.403Z</time></trkpt><trkpt lat="40.911045" lon="14.037215"><ele>0.0</ele><time>2026-05-04T14:45:32.403Z</time></trkpt><trkpt lat="40.910965" lon="14.0372383"><ele>0.0</ele><time>2026-05-04T14:45:33.403Z</time></trkpt><trkpt lat="40.9108833" lon="14.03726"><ele>0.0</ele><time>2026-05-04T14:45:34.402Z</time></trkpt><trkpt lat="40.9108017" lon="14.0372817"><ele>0.0</ele><time>2026-05-04T14:45:35.403Z</time></trkpt><trkpt lat="40.91072" lon="14.0373033"><ele>0.0</ele><time>2026-05-04T14:45:36.401Z</time></trkpt><trkpt lat="40.9106367" lon="14.0373267"><ele>0.0</ele><time>2026-05-04T14:45:37.404Z</time></trkpt><trkpt lat="40.910555" lon="14.0373517"><ele>0.0</ele><time>2026-05-04T14:45:38.402Z</time></trkpt><trkpt lat="40.9104733" lon="14.03738"><ele>0.0</ele><time>2026-05-04T14:45:39.402Z</time></trkpt><trkpt lat="40.9103933" lon="14.0374083"><ele>0.0</ele><time>2026-05-04T14:45:40.402Z</time></trkpt><trkpt lat="40.9103133" lon="14.0374383"><ele>0.0</ele><time>2026-05-04T14:45:41.403Z</time></trkpt><trkpt lat="40.9102317" lon="14.037465"><ele>0.0</ele><time>2026-05-04T14:45:42.402Z</time></trkpt><trkpt lat="40.9101533" lon="14.0374883"><ele>0.0</ele><time>2026-05-04T14:45:43.403Z</time></trkpt><trkpt lat="40.910075" lon="14.0375117"><ele>0.0</ele><time>2026-05-04T14:45:44.401Z</time></trkpt><trkpt lat="40.909995" lon="14.0375367"><ele>0.0</ele><time>2026-05-04T14:45:45.402Z</time></trkpt><trkpt lat="40.90992" lon="14.03756"><ele>0.0</ele><time>2026-05-04T14:45:46.402Z</time></trkpt><trkpt lat="40.909845" lon="14.0375833"><ele>0.16666666666666666</ele><time>2026-05-04T14:45:47.402Z</time></trkpt><trkpt lat="40.9097683" lon="14.0376117"><ele>0.3333333333333333</ele><time>2026-05-04T14:45:48.402Z</time></trkpt><trkpt lat="40.9096917" lon="14.0376383"><ele>0.5</ele><time>2026-05-04T14:45:49.402Z</time></trkpt><trkpt lat="40.9096167" lon="14.0376633"><ele>0.6666666666666666</ele><time>2026-05-04T14:45:50.401Z</time></trkpt><trkpt lat="40.9095383" lon="14.0376867"><ele>0.8333333333333333</ele><time>2026-05-04T14:45:51.401Z</time></trkpt><trkpt lat="40.90946" lon="14.0377117"><ele>1.0</ele><time>2026-05-04T14:45:52.402Z</time></trkpt><trkpt lat="40.9093817" lon="14.0377333"><ele>0.9999999999999999</ele><time>2026-05-04T14:45:53.401Z</time></trkpt><trkpt lat="40.9093017" lon="14.0377583"><ele>1.0</ele><time>2026-05-04T14:45:54.401Z</time></trkpt><trkpt lat="40.9092217" lon="14.0377833"><ele>1.0</ele><time>2026-05-04T14:45:55.403Z</time></trkpt><trkpt lat="40.909145" lon="14.0378033"><ele>1.0</ele><time>2026-05-04T14:45:56.402Z</time></trkpt><trkpt lat="40.9090683" lon="14.037825"><ele>0.9999999999999999</ele><time>2026-05-04T14:45:57.402Z</time></trkpt><trkpt lat="40.9089917" lon="14.037845"><ele>1.0</ele><time>2026-05-04T14:45:58.402Z</time></trkpt><trkpt lat="40.9089133" lon="14.037865"><ele>0.6666666666666666</ele><time>2026-05-04T14:45:59.402Z</time></trkpt><trkpt lat="40.908835" lon="14.0378867"><ele>0.3333333333333333</ele><time>2026-05-04T14:46:00.402Z</time></trkpt><trkpt lat="40.908755" lon="14.03791"><ele>0.0</ele><time>2026-05-04T14:46:01.402Z</time></trkpt><trkpt lat="40.9086717" lon="14.0379333"><ele>-0.3333333333333333</ele><time>2026-05-04T14:46:02.402Z</time></trkpt><trkpt lat="40.90859" lon="14.0379583"><ele>-0.6666666666666666</ele><time>2026-05-04T14:46:03.402Z</time></trkpt><trkpt lat="40.9085083" lon="14.037985"><ele>-1.0</ele><time>2026-05-04T14:46:04.401Z</time></trkpt><trkpt lat="40.9084283" lon="14.0380083"><ele>-0.6666666666666666</ele><time>2026-05-04T14:46:05.402Z</time></trkpt><trkpt lat="40.908345" lon="14.03803"><ele>-0.3333333333333333</ele><time>2026-05-04T14:46:06.402Z</time></trkpt><trkpt lat="40.9082617" lon="14.038055"><ele>0.0</ele><time>2026-05-04T14:46:07.402Z</time></trkpt><trkpt lat="40.90818" lon="14.0380817"><ele>0.3333333333333333</ele><time>2026-05-04T14:46:08.402Z</time></trkpt><trkpt lat="40.9080983" lon="14.0381117"><ele>0.6666666666666666</ele><time>2026-05-04T14:46:09.402Z</time></trkpt><trkpt lat="40.9080167" lon="14.0381367"><ele>1.0</ele><time>2026-05-04T14:46:10.403Z</time></trkpt><trkpt lat="40.9079383" lon="14.0381617"><ele>0.9999999999999999</ele><time>2026-05-04T14:46:11.402Z</time></trkpt><trkpt lat="40.9078583" lon="14.0381817"><ele>1.0</ele><time>2026-05-04T14:46:12.402Z</time></trkpt><trkpt lat="40.9077817" lon="14.038205"><ele>1.0</ele><time>2026-05-04T14:46:13.402Z</time></trkpt><trkpt lat="40.9077017" lon="14.038225"><ele>1.0</ele><time>2026-05-04T14:46:14.402Z</time></trkpt><trkpt lat="40.9076233" lon="14.03825"><ele>0.9999999999999999</ele><time>2026-05-04T14:46:15.402Z</time></trkpt><trkpt lat="40.907545" lon="14.0382733"><ele>1.0</ele><time>2026-05-04T14:46:16.401Z</time></trkpt><trkpt lat="40.9074667" lon="14.0382983"><ele>1.1666666666666665</ele><time>2026-05-04T14:46:17.402Z</time></trkpt><trkpt lat="40.90739" lon="14.0383233"><ele>1.3333333333333333</ele><time>2026-05-04T14:46:18.402Z</time></trkpt><trkpt lat="40.9073133" lon="14.0383467"><ele>1.5</ele><time>2026-05-04T14:46:19.403Z</time></trkpt><trkpt lat="40.907235" lon="14.0383667"><ele>1.6666666666666665</ele><time>2026-05-04T14:46:20.402Z</time></trkpt><trkpt lat="40.9071567" lon="14.0383917"><ele>1.8333333333333333</ele><time>2026-05-04T14:46:21.401Z</time></trkpt><trkpt lat="40.9070783" lon="14.0384133"><ele>2.0</ele><time>2026-05-04T14:46:22.402Z</time></trkpt><trkpt lat="40.9070017" lon="14.0384333"><ele>1.9999999999999998</ele><time>2026-05-04T14:46:23.401Z</time></trkpt><trkpt lat="40.9069267" lon="14.0384567"><ele>2.0</ele><time>2026-05-04T14:46:24.403Z</time></trkpt><trkpt lat="40.9068483" lon="14.0384767"><ele>2.0</ele><time>2026-05-04T14:46:25.403Z</time></trkpt><trkpt lat="40.9067733" lon="14.0385033"><ele>2.0</ele><time>2026-05-04T14:46:26.402Z</time></trkpt><trkpt lat="40.9067" lon="14.03853"><ele>1.9999999999999998</ele><time>2026-05-04T14:46:27.401Z</time></trkpt><trkpt lat="40.9066283" lon="14.0385567"><ele>2.0</ele><time>2026-05-04T14:46:28.403Z</time></trkpt><trkpt lat="40.9065533" lon="14.0385783"><ele>1.857142857142857</ele><time>2026-05-04T14:46:29.403Z</time></trkpt><trkpt lat="40.9064833" lon="14.0386"><ele>1.714285714285714</ele><time>2026-05-04T14:46:30.402Z</time></trkpt><trkpt lat="40.906415" lon="14.0386217"><ele>1.5714285714285714</ele><time>2026-05-04T14:46:31.403Z</time></trkpt><trkpt lat="40.906345" lon="14.0386483"><ele>1.4285714285714284</ele><time>2026-05-04T14:46:32.402Z</time></trkpt><trkpt lat="40.9062717" lon="14.0386717"><ele>1.2857142857142856</ele><time>2026-05-04T14:46:33.402Z</time></trkpt><trkpt lat="40.9062017" lon="14.0386917"><ele>1.1428571428571428</ele><time>2026-05-04T14:46:34.401Z</time></trkpt><trkpt lat="40.90613" lon="14.03871"><ele>1.0</ele><time>2026-05-04T14:46:35.404Z</time></trkpt><trkpt lat="40.90606" lon="14.0387283"><ele>0.9999999999999999</ele><time>2026-05-04T14:46:36.403Z</time></trkpt><trkpt lat="40.9059867" lon="14.0387483"><ele>1.0</ele><time>2026-05-04T14:46:37.402Z</time></trkpt><trkpt lat="40.9059117" lon="14.0387667"><ele>1.0</ele><time>2026-05-04T14:46:38.402Z</time></trkpt><trkpt lat="40.9058383" lon="14.0387867"><ele>1.0</ele><time>2026-05-04T14:46:39.402Z</time></trkpt><trkpt lat="40.905765" lon="14.0388117"><ele>0.9999999999999999</ele><time>2026-05-04T14:46:40.403Z</time></trkpt><trkpt lat="40.9056917" lon="14.0388333"><ele>1.0</ele><time>2026-05-04T14:46:41.403Z</time></trkpt><trkpt lat="40.905615" lon="14.038855"><ele>0.9999999999999999</ele><time>2026-05-04T14:46:42.402Z</time></trkpt><trkpt lat="40.9055417" lon="14.0388733"><ele>1.0</ele><time>2026-05-04T14:46:43.403Z</time></trkpt><trkpt lat="40.9054683" lon="14.0388933"><ele>1.0</ele><time>2026-05-04T14:46:44.401Z</time></trkpt><trkpt lat="40.905395" lon="14.0389183"><ele>1.0</ele><time>2026-05-04T14:46:45.402Z</time></trkpt><trkpt lat="40.90532" lon="14.0389433"><ele>0.9999999999999999</ele><time>2026-05-04T14:46:46.403Z</time></trkpt><trkpt lat="40.9052483" lon="14.03897"><ele>1.0</ele><time>2026-05-04T14:46:47.403Z</time></trkpt><trkpt lat="40.9051767" lon="14.0389933"><ele>0.9999999999999999</ele><time>2026-05-04T14:46:48.403Z</time></trkpt><trkpt lat="40.9051" lon="14.0390183"><ele>1.0</ele><time>2026-05-04T14:46:49.402Z</time></trkpt><trkpt lat="40.905025" lon="14.0390367"><ele>1.0</ele><time>2026-05-04T14:46:50.402Z</time></trkpt><trkpt lat="40.90495" lon="14.0390583"><ele>1.0</ele><time>2026-05-04T14:46:51.402Z</time></trkpt><trkpt lat="40.9048767" lon="14.03908"><ele>0.9999999999999999</ele><time>2026-05-04T14:46:52.403Z</time></trkpt><trkpt lat="40.9048" lon="14.0391033"><ele>1.0</ele><time>2026-05-04T14:46:53.403Z</time></trkpt><trkpt lat="40.9047233" lon="14.0391317"><ele>0.9999999999999999</ele><time>2026-05-04T14:46:54.404Z</time></trkpt><trkpt lat="40.904645" lon="14.03916"><ele>1.0</ele><time>2026-05-04T14:46:55.403Z</time></trkpt><trkpt lat="40.904565" lon="14.0391867"><ele>1.0</ele><time>2026-05-04T14:46:56.403Z</time></trkpt><trkpt lat="40.9044833" lon="14.0392167"><ele>1.0</ele><time>2026-05-04T14:46:57.403Z</time></trkpt><trkpt lat="40.904395" lon="14.0392433"><ele>0.9999999999999999</ele><time>2026-05-04T14:46:58.404Z</time></trkpt><trkpt lat="40.9043067" lon="14.0392617"><ele>1.0</ele><time>2026-05-04T14:46:59.403Z</time></trkpt><trkpt lat="40.90422" lon="14.039285"><ele>0.9999999999999999</ele><time>2026-05-04T14:47:00.403Z</time></trkpt><trkpt lat="40.904135" lon="14.0393117"><ele>1.0</ele><time>2026-05-04T14:47:01.403Z</time></trkpt><trkpt lat="40.9040517" lon="14.0393417"><ele>1.0</ele><time>2026-05-04T14:47:02.402Z</time></trkpt><trkpt lat="40.90397" lon="14.0393667"><ele>1.0</ele><time>2026-05-04T14:47:03.401Z</time></trkpt><trkpt lat="40.9038917" lon="14.0393917"><ele>0.9999999999999999</ele><time>2026-05-04T14:47:04.402Z</time></trkpt><trkpt lat="40.9038167" lon="14.03942"><ele>1.0</ele><time>2026-05-04T14:47:05.403Z</time></trkpt><trkpt lat="40.9037383" lon="14.03945"><ele>0.9999999999999999</ele><time>2026-05-04T14:47:06.401Z</time></trkpt><trkpt lat="40.903665" lon="14.039475"><ele>1.0</ele><time>2026-05-04T14:47:07.403Z</time></trkpt><trkpt lat="40.90359" lon="14.0394967"><ele>1.0</ele><time>2026-05-04T14:47:08.401Z</time></trkpt><trkpt lat="40.9035167" lon="14.039525"><ele>1.0</ele><time>2026-05-04T14:47:09.403Z</time></trkpt><trkpt lat="40.90344" lon="14.03955"><ele>0.9999999999999999</ele><time>2026-05-04T14:47:10.401Z</time></trkpt><trkpt lat="40.903365" lon="14.0395717"><ele>1.0</ele><time>2026-05-04T14:47:11.403Z</time></trkpt><trkpt lat="40.9032883" lon="14.0396"><ele>1.1666666666666665</ele><time>2026-05-04T14:47:12.403Z</time></trkpt><trkpt lat="40.9032117" lon="14.0396267"><ele>1.3333333333333333</ele><time>2026-05-04T14:47:13.403Z</time></trkpt><trkpt lat="40.903135" lon="14.03965"><ele>1.5</ele><time>2026-05-04T14:47:14.402Z</time></trkpt><trkpt lat="40.9030583" lon="14.0396733"><ele>1.6666666666666665</ele><time>2026-05-04T14:47:15.402Z</time></trkpt><trkpt lat="40.90298" lon="14.0396933"><ele>1.8333333333333333</ele><time>2026-05-04T14:47:16.403Z</time></trkpt><trkpt lat="40.9029033" lon="14.0397117"><ele>2.0</ele><time>2026-05-04T14:47:17.403Z</time></trkpt><trkpt lat="40.90283" lon="14.03973"><ele>2.0</ele><time>2026-05-04T14:47:18.401Z</time></trkpt><trkpt lat="40.9027567" lon="14.0397483"><ele>1.9999999999999998</ele><time>2026-05-04T14:47:19.402Z</time></trkpt><trkpt lat="40.902685" lon="14.0397667"><ele>2.0</ele><time>2026-05-04T14:47:20.402Z</time></trkpt><trkpt lat="40.9026133" lon="14.039785"><ele>2.0</ele><time>2026-05-04T14:47:21.403Z</time></trkpt><trkpt lat="40.9025467" lon="14.039805"><ele>1.9999999999999998</ele><time>2026-05-04T14:47:22.403Z</time></trkpt><trkpt lat="40.9024817" lon="14.039825"><ele>2.0</ele><time>2026-05-04T14:47:23.402Z</time></trkpt><trkpt lat="40.9024183" lon="14.0398417"><ele>2.0</ele><time>2026-05-04T14:47:24.404Z</time></trkpt><trkpt lat="40.902355" lon="14.0398567"><ele>1.7142857142857142</ele><time>2026-05-04T14:47:25.403Z</time></trkpt><trkpt lat="40.90229" lon="14.039875"><ele>1.4285714285714284</ele><time>2026-05-04T14:47:26.401Z</time></trkpt><trkpt lat="40.9022267" lon="14.0398917"><ele>1.1428571428571428</ele><time>2026-05-04T14:47:27.402Z</time></trkpt><trkpt lat="40.90216" lon="14.0399117"><ele>0.8571428571428571</ele><time>2026-05-04T14:47:28.403Z</time></trkpt><trkpt lat="40.9020933" lon="14.0399333"><ele>0.5714285714285714</ele><time>2026-05-04T14:47:29.403Z</time></trkpt><trkpt lat="40.9020233" lon="14.039955"><ele>0.2857142857142857</ele><time>2026-05-04T14:47:30.403Z</time></trkpt><trkpt lat="40.9019517" lon="14.039975"><ele>0.0</ele><time>2026-05-04T14:47:31.403Z</time></trkpt><trkpt lat="40.9018817" lon="14.0399933"><ele>0.0</ele><time>2026-05-04T14:47:32.404Z</time></trkpt><trkpt lat="40.9018117" lon="14.04001"><ele>0.0</ele><time>2026-05-04T14:47:33.404Z</time></trkpt><trkpt lat="40.901745" lon="14.0400317"><ele>0.0</ele><time>2026-05-04T14:47:34.405Z</time></trkpt><trkpt lat="40.9016833" lon="14.04005"><ele>0.0</ele><time>2026-05-04T14:47:35.404Z</time></trkpt><trkpt lat="40.9016167" lon="14.040075"><ele>0.0</ele><time>2026-05-04T14:47:36.403Z</time></trkpt><trkpt lat="40.9015533" lon="14.0401017"><ele>0.0</ele><time>2026-05-04T14:47:37.403Z</time></trkpt><trkpt lat="40.901485" lon="14.0401233"><ele>0.0</ele><time>2026-05-04T14:47:38.404Z</time></trkpt><trkpt lat="40.9014183" lon="14.04014"><ele>0.14285714285714285</ele><time>2026-05-04T14:47:39.403Z</time></trkpt><trkpt lat="40.9013517" lon="14.04016"><ele>0.2857142857142857</ele><time>2026-05-04T14:47:40.404Z</time></trkpt><trkpt lat="40.9012783" lon="14.0401817"><ele>0.42857142857142855</ele><time>2026-05-04T14:47:41.404Z</time></trkpt><trkpt lat="40.9012067" lon="14.0402067"><ele>0.5714285714285714</ele><time>2026-05-04T14:47:42.404Z</time></trkpt><trkpt lat="40.9011383" lon="14.0402317"><ele>0.7142857142857142</ele><time>2026-05-04T14:47:43.404Z</time></trkpt><trkpt lat="40.9010683" lon="14.0402517"><ele>0.8571428571428571</ele><time>2026-05-04T14:47:44.405Z</time></trkpt><trkpt lat="40.9010017" lon="14.0402717"><ele>1.0</ele><time>2026-05-04T14:47:45.403Z</time></trkpt><trkpt lat="40.900935" lon="14.0402933"><ele>1.1666666666666665</ele><time>2026-05-04T14:47:46.403Z</time></trkpt><trkpt lat="40.90087" lon="14.040315"><ele>1.3333333333333333</ele><time>2026-05-04T14:47:47.404Z</time></trkpt><trkpt lat="40.900805" lon="14.04033"><ele>1.5</ele><time>2026-05-04T14:47:48.404Z</time></trkpt><trkpt lat="40.9006833" lon="14.0403317"><ele>1.6666666666666665</ele><time>2026-05-04T14:47:50.403Z</time></trkpt><trkpt lat="40.9005617" lon="14.0403683"><ele>1.8333333333333333</ele><time>2026-05-04T14:47:52.403Z</time></trkpt><trkpt lat="40.9005133" lon="14.0404233"><ele>2.0</ele><time>2026-05-04T14:47:53.403Z</time></trkpt><trkpt lat="40.90047" lon="14.0404883"><ele>2.0</ele><time>2026-05-04T14:47:54.403Z</time></trkpt><trkpt lat="40.9004233" lon="14.0405567"><ele>1.9999999999999998</ele><time>2026-05-04T14:47:55.403Z</time></trkpt><trkpt lat="40.9003717" lon="14.0406233"><ele>2.0</ele><time>2026-05-04T14:47:56.403Z</time></trkpt><trkpt lat="40.9003183" lon="14.0406917"><ele>2.0</ele><time>2026-05-04T14:47:57.404Z</time></trkpt><trkpt lat="40.9002667" lon="14.0407567"><ele>1.9999999999999998</ele><time>2026-05-04T14:47:58.404Z</time></trkpt><trkpt lat="40.9002167" lon="14.0408283"><ele>2.0</ele><time>2026-05-04T14:47:59.404Z</time></trkpt><trkpt lat="40.9001633" lon="14.0409"><ele>2.0</ele><time>2026-05-04T14:48:00.402Z</time></trkpt><trkpt lat="40.90011" lon="14.040975"><ele>1.9999999999999998</ele><time>2026-05-04T14:48:01.404Z</time></trkpt><trkpt lat="40.9000567" lon="14.04105"><ele>2.0</ele><time>2026-05-04T14:48:02.405Z</time></trkpt><trkpt lat="40.9000033" lon="14.041125"><ele>2.0</ele><time>2026-05-04T14:48:03.403Z</time></trkpt><trkpt lat="40.8999483" lon="14.0412"><ele>2.0</ele><time>2026-05-04T14:48:04.403Z</time></trkpt><trkpt lat="40.8998917" lon="14.041275"><ele>1.9999999999999998</ele><time>2026-05-04T14:48:05.405Z</time></trkpt><trkpt lat="40.8998383" lon="14.0413533"><ele>2.0</ele><time>2026-05-04T14:48:06.404Z</time></trkpt><trkpt lat="40.899785" lon="14.0414283"><ele>1.9999999999999998</ele><time>2026-05-04T14:48:07.405Z</time></trkpt><trkpt lat="40.89973" lon="14.0415033"><ele>2.0</ele><time>2026-05-04T14:48:08.403Z</time></trkpt><trkpt lat="40.8996717" lon="14.0415783"><ele>2.0</ele><time>2026-05-04T14:48:09.403Z</time></trkpt><trkpt lat="40.899615" lon="14.0416483"><ele>2.0</ele><time>2026-05-04T14:48:10.403Z</time></trkpt><trkpt lat="40.89956" lon="14.0417183"><ele>1.9999999999999998</ele><time>2026-05-04T14:48:11.404Z</time></trkpt><trkpt lat="40.899505" lon="14.0417883"><ele>2.0</ele><time>2026-05-04T14:48:12.403Z</time></trkpt><trkpt lat="40.8994483" lon="14.041855"><ele>2.1666666666666665</ele><time>2026-05-04T14:48:13.402Z</time></trkpt><trkpt lat="40.8993933" lon="14.0419217"><ele>2.333333333333333</ele><time>2026-05-04T14:48:14.401Z</time></trkpt><trkpt lat="40.8993383" lon="14.0419917"><ele>2.5</ele><time>2026-05-04T14:48:15.401Z</time></trkpt><trkpt lat="40.8992817" lon="14.0420583"><ele>2.6666666666666665</ele><time>2026-05-04T14:48:16.402Z</time></trkpt><trkpt lat="40.8992283" lon="14.0421317"><ele>2.8333333333333335</ele><time>2026-05-04T14:48:17.402Z</time></trkpt><trkpt lat="40.8991733" lon="14.0422033"><ele>3.0</ele><time>2026-05-04T14:48:18.402Z</time></trkpt><trkpt lat="40.8991167" lon="14.042275"><ele>3.0</ele><time>2026-05-04T14:48:19.403Z</time></trkpt><trkpt lat="40.89906" lon="14.04235"><ele>3.0</ele><time>2026-05-04T14:48:20.401Z</time></trkpt><trkpt lat="40.899005" lon="14.0424233"><ele>3.0</ele><time>2026-05-04T14:48:21.402Z</time></trkpt><trkpt lat="40.8989517" lon="14.0425"><ele>3.0</ele><time>2026-05-04T14:48:22.402Z</time></trkpt><trkpt lat="40.8989033" lon="14.04257"><ele>3.0</ele><time>2026-05-04T14:48:23.401Z</time></trkpt><trkpt lat="40.89885" lon="14.042645"><ele>3.0</ele><time>2026-05-04T14:48:24.401Z</time></trkpt><trkpt lat="40.8987967" lon="14.0427167"><ele>3.0</ele><time>2026-05-04T14:48:25.403Z</time></trkpt><trkpt lat="40.8987433" lon="14.0427917"><ele>3.0</ele><time>2026-05-04T14:48:26.402Z</time></trkpt><trkpt lat="40.8986867" lon="14.042865"><ele>3.0</ele><time>2026-05-04T14:48:27.401Z</time></trkpt><trkpt lat="40.8986317" lon="14.0429317"><ele>3.0</ele><time>2026-05-04T14:48:28.402Z</time></trkpt><trkpt lat="40.898575" lon="14.0429967"><ele>3.0</ele><time>2026-05-04T14:48:29.402Z</time></trkpt><trkpt lat="40.8985167" lon="14.0430617"><ele>3.0</ele><time>2026-05-04T14:48:30.4Z</time></trkpt><trkpt lat="40.8984533" lon="14.043125"><ele>2.6666666666666665</ele><time>2026-05-04T14:48:31.403Z</time></trkpt><trkpt lat="40.8983883" lon="14.04319"><ele>2.3333333333333335</ele><time>2026-05-04T14:48:32.402Z</time></trkpt><trkpt lat="40.898325" lon="14.0432517"><ele>2.0</ele><time>2026-05-04T14:48:33.402Z</time></trkpt><trkpt lat="40.8982633" lon="14.0433133"><ele>1.6666666666666665</ele><time>2026-05-04T14:48:34.403Z</time></trkpt><trkpt lat="40.8982017" lon="14.043375"><ele>1.3333333333333333</ele><time>2026-05-04T14:48:35.401Z</time></trkpt><trkpt lat="40.8981383" lon="14.043435"><ele>1.0</ele><time>2026-05-04T14:48:36.401Z</time></trkpt><trkpt lat="40.8980717" lon="14.04349"><ele>0.9999999999999999</ele><time>2026-05-04T14:48:37.404Z</time></trkpt><trkpt lat="40.898005" lon="14.0435433"><ele>1.0</ele><time>2026-05-04T14:48:38.402Z</time></trkpt><trkpt lat="40.8979367" lon="14.0435967"><ele>1.0</ele><time>2026-05-04T14:48:39.402Z</time></trkpt><trkpt lat="40.8978667" lon="14.0436483"><ele>1.0</ele><time>2026-05-04T14:48:40.402Z</time></trkpt><trkpt lat="40.89779" lon="14.0437"><ele>0.9999999999999999</ele><time>2026-05-04T14:48:41.402Z</time></trkpt><trkpt lat="40.897715" lon="14.0437467"><ele>1.0</ele><time>2026-05-04T14:48:42.402Z</time></trkpt><trkpt lat="40.8976383" lon="14.0437883"><ele>0.9999999999999999</ele><time>2026-05-04T14:48:43.403Z</time></trkpt><trkpt lat="40.897565" lon="14.0438283"><ele>1.0</ele><time>2026-05-04T14:48:44.403Z</time></trkpt><trkpt lat="40.8974933" lon="14.043865"><ele>1.0</ele><time>2026-05-04T14:48:45.401Z</time></trkpt><trkpt lat="40.8974217" lon="14.0439017"><ele>1.0</ele><time>2026-05-04T14:48:46.401Z</time></trkpt><trkpt lat="40.897345" lon="14.0439383"><ele>0.9999999999999999</ele><time>2026-05-04T14:48:47.403Z</time></trkpt><trkpt lat="40.8972683" lon="14.043975"><ele>1.0</ele><time>2026-05-04T14:48:48.403Z</time></trkpt><trkpt lat="40.8971867" lon="14.044"><ele>0.9999999999999999</ele><time>2026-05-04T14:48:49.403Z</time></trkpt><trkpt lat="40.8971083" lon="14.0440267"><ele>1.0</ele><time>2026-05-04T14:48:50.4Z</time></trkpt><trkpt lat="40.8970283" lon="14.0440483"><ele>1.0</ele><time>2026-05-04T14:48:51.402Z</time></trkpt><trkpt lat="40.896945" lon="14.0440717"><ele>1.0</ele><time>2026-05-04T14:48:52.403Z</time></trkpt><trkpt lat="40.8968633" lon="14.0440883"><ele>0.9999999999999999</ele><time>2026-05-04T14:48:53.404Z</time></trkpt><trkpt lat="40.8967833" lon="14.0441067"><ele>1.0</ele><time>2026-05-04T14:48:54.403Z</time></trkpt><trkpt lat="40.896705" lon="14.0441217"><ele>0.9999999999999999</ele><time>2026-05-04T14:48:55.402Z</time></trkpt><trkpt lat="40.896625" lon="14.0441417"><ele>1.0</ele><time>2026-05-04T14:48:56.403Z</time></trkpt><trkpt lat="40.8965467" lon="14.0441567"><ele>1.0</ele><time>2026-05-04T14:48:57.401Z</time></trkpt><trkpt lat="40.8964683" lon="14.0441767"><ele>1.0</ele><time>2026-05-04T14:48:58.403Z</time></trkpt><trkpt lat="40.8963883" lon="14.0441967"><ele>0.9999999999999999</ele><time>2026-05-04T14:48:59.404Z</time></trkpt><trkpt lat="40.8963083" lon="14.0442133"><ele>1.0</ele><time>2026-05-04T14:49:00.402Z</time></trkpt><trkpt lat="40.896225" lon="14.0442317"><ele>0.9999999999999999</ele><time>2026-05-04T14:49:01.404Z</time></trkpt><trkpt lat="40.8961417" lon="14.0442483"><ele>1.0</ele><time>2026-05-04T14:49:02.402Z</time></trkpt><trkpt lat="40.8960633" lon="14.04427"><ele>1.0</ele><time>2026-05-04T14:49:03.401Z</time></trkpt><trkpt lat="40.8959833" lon="14.04429"><ele>1.0</ele><time>2026-05-04T14:49:04.402Z</time></trkpt><trkpt lat="40.8959017" lon="14.0443083"><ele>0.9999999999999999</ele><time>2026-05-04T14:49:05.403Z</time></trkpt><trkpt lat="40.8958217" lon="14.0443283"><ele>1.0</ele><time>2026-05-04T14:49:06.402Z</time></trkpt><trkpt lat="40.8957417" lon="14.0443467"><ele>0.8333333333333333</ele><time>2026-05-04T14:49:07.403Z</time></trkpt><trkpt lat="40.8956633" lon="14.0443633"><ele>0.6666666666666666</ele><time>2026-05-04T14:49:08.402Z</time></trkpt><trkpt lat="40.8955867" lon="14.0443767"><ele>0.5</ele><time>2026-05-04T14:49:09.401Z</time></trkpt><trkpt lat="40.8955117" lon="14.0443933"><ele>0.3333333333333333</ele><time>2026-05-04T14:49:10.403Z</time></trkpt><trkpt lat="40.895435" lon="14.0444083"><ele>0.16666666666666666</ele><time>2026-05-04T14:49:11.402Z</time></trkpt><trkpt lat="40.8953567" lon="14.0444233"><ele>0.0</ele><time>2026-05-04T14:49:12.402Z</time></trkpt><trkpt lat="40.8952767" lon="14.04444"><ele>0.0</ele><time>2026-05-04T14:49:13.402Z</time></trkpt><trkpt lat="40.8951933" lon="14.044455"><ele>0.0</ele><time>2026-05-04T14:49:14.402Z</time></trkpt><trkpt lat="40.8951133" lon="14.04447"><ele>0.0</ele><time>2026-05-04T14:49:15.403Z</time></trkpt><trkpt lat="40.895035" lon="14.0444867"><ele>0.0</ele><time>2026-05-04T14:49:16.402Z</time></trkpt><trkpt lat="40.8949583" lon="14.0445"><ele>0.0</ele><time>2026-05-04T14:49:17.401Z</time></trkpt><trkpt lat="40.894885" lon="14.0445117"><ele>0.0</ele><time>2026-05-04T14:49:18.401Z</time></trkpt><trkpt lat="40.894805" lon="14.04453"><ele>0.16666666666666666</ele><time>2026-05-04T14:49:19.402Z</time></trkpt><trkpt lat="40.8947317" lon="14.0445567"><ele>0.3333333333333333</ele><time>2026-05-04T14:49:20.403Z</time></trkpt><trkpt lat="40.8946533" lon="14.0445817"><ele>0.5</ele><time>2026-05-04T14:49:21.402Z</time></trkpt><trkpt lat="40.8945733" lon="14.0446"><ele>0.6666666666666666</ele><time>2026-05-04T14:49:22.402Z</time></trkpt><trkpt lat="40.8944983" lon="14.044615"><ele>0.8333333333333333</ele><time>2026-05-04T14:49:23.403Z</time></trkpt><trkpt lat="40.89442" lon="14.044635"><ele>1.0</ele><time>2026-05-04T14:49:24.403Z</time></trkpt><trkpt lat="40.8943433" lon="14.0446567"><ele>0.9999999999999999</ele><time>2026-05-04T14:49:25.403Z</time></trkpt><trkpt lat="40.8942683" lon="14.0446783"><ele>1.0</ele><time>2026-05-04T14:49:26.401Z</time></trkpt><trkpt lat="40.8941933" lon="14.0446983"><ele>1.0</ele><time>2026-05-04T14:49:27.401Z</time></trkpt><trkpt lat="40.8941183" lon="14.0447133"><ele>1.0</ele><time>2026-05-04T14:49:28.403Z</time></trkpt><trkpt lat="40.8940417" lon="14.0447333"><ele>0.9999999999999999</ele><time>2026-05-04T14:49:29.402Z</time></trkpt><trkpt lat="40.893965" lon="14.04475"><ele>1.0</ele><time>2026-05-04T14:49:30.402Z</time></trkpt><trkpt lat="40.8938917" lon="14.044765"><ele>0.8333333333333333</ele><time>2026-05-04T14:49:31.404Z</time></trkpt><trkpt lat="40.893815" lon="14.0447767"><ele>0.6666666666666666</ele><time>2026-05-04T14:49:32.402Z</time></trkpt><trkpt lat="40.893735" lon="14.0447933"><ele>0.5</ele><time>2026-05-04T14:49:33.401Z</time></trkpt><trkpt lat="40.893655" lon="14.0448133"><ele>0.3333333333333333</ele><time>2026-05-04T14:49:34.402Z</time></trkpt><trkpt lat="40.8935733" lon="14.044835"><ele>0.16666666666666666</ele><time>2026-05-04T14:49:35.403Z</time></trkpt><trkpt lat="40.8934933" lon="14.0448567"><ele>0.0</ele><time>2026-05-04T14:49:36.403Z</time></trkpt><trkpt lat="40.893415" lon="14.04488"><ele>0.0</ele><time>2026-05-04T14:49:37.402Z</time></trkpt><trkpt lat="40.89334" lon="14.0449033"><ele>0.0</ele><time>2026-05-04T14:49:38.401Z</time></trkpt><trkpt lat="40.893265" lon="14.04492"><ele>0.0</ele><time>2026-05-04T14:49:39.403Z</time></trkpt><trkpt lat="40.8931883" lon="14.0449383"><ele>0.0</ele><time>2026-05-04T14:49:40.401Z</time></trkpt><trkpt lat="40.89311" lon="14.0449567"><ele>0.0</ele><time>2026-05-04T14:49:41.403Z</time></trkpt><trkpt lat="40.8930383" lon="14.044975"><ele>0.0</ele><time>2026-05-04T14:49:42.401Z</time></trkpt><trkpt lat="40.892965" lon="14.04499"><ele>0.0</ele><time>2026-05-04T14:49:43.403Z</time></trkpt><trkpt lat="40.892885" lon="14.0450067"><ele>0.0</ele><time>2026-05-04T14:49:44.403Z</time></trkpt><trkpt lat="40.89281" lon="14.0450133"><ele>0.0</ele><time>2026-05-04T14:49:45.403Z</time></trkpt><trkpt lat="40.8927333" lon="14.045025"><ele>0.0</ele><time>2026-05-04T14:49:46.403Z</time></trkpt><trkpt lat="40.892655" lon="14.0450383"><ele>0.0</ele><time>2026-05-04T14:49:47.404Z</time></trkpt><trkpt lat="40.8925767" lon="14.0450517"><ele>0.0</ele><time>2026-05-04T14:49:48.4Z</time></trkpt><trkpt lat="40.8925" lon="14.04507"><ele>0.16666666666666666</ele><time>2026-05-04T14:49:49.403Z</time></trkpt><trkpt lat="40.8924267" lon="14.04509"><ele>0.3333333333333333</ele><time>2026-05-04T14:49:50.403Z</time></trkpt><trkpt lat="40.89235" lon="14.045105"><ele>0.5</ele><time>2026-05-04T14:49:51.4Z</time></trkpt><trkpt lat="40.8922733" lon="14.04512"><ele>0.6666666666666666</ele><time>2026-05-04T14:49:52.402Z</time></trkpt><trkpt lat="40.8922" lon="14.0451367"><ele>0.8333333333333333</ele><time>2026-05-04T14:49:53.402Z</time></trkpt><trkpt lat="40.892125" lon="14.04515"><ele>1.0</ele><time>2026-05-04T14:49:54.403Z</time></trkpt><trkpt lat="40.8920483" lon="14.0451667"><ele>0.9999999999999999</ele><time>2026-05-04T14:49:55.403Z</time></trkpt><trkpt lat="40.89197" lon="14.0451867"><ele>1.0</ele><time>2026-05-04T14:49:56.401Z</time></trkpt><trkpt lat="40.891895" lon="14.0452083"><ele>1.0</ele><time>2026-05-04T14:49:57.402Z</time></trkpt><trkpt lat="40.8918217" lon="14.0452283"><ele>1.0</ele><time>2026-05-04T14:49:58.402Z</time></trkpt><trkpt lat="40.8917417" lon="14.0452433"><ele>0.9999999999999999</ele><time>2026-05-04T14:49:59.402Z</time></trkpt><trkpt lat="40.8916633" lon="14.0452567"><ele>1.0</ele><time>2026-05-04T14:50:00.402Z</time></trkpt><trkpt lat="40.8915867" lon="14.045275"><ele>0.8333333333333333</ele><time>2026-05-04T14:50:01.403Z</time></trkpt><trkpt lat="40.89151" lon="14.0452933"><ele>0.6666666666666666</ele><time>2026-05-04T14:50:02.402Z</time></trkpt><trkpt lat="40.8914383" lon="14.04531"><ele>0.5</ele><time>2026-05-04T14:50:03.402Z</time></trkpt><trkpt lat="40.891365" lon="14.0453317"><ele>0.3333333333333333</ele><time>2026-05-04T14:50:04.401Z</time></trkpt><trkpt lat="40.8912917" lon="14.0453567"><ele>0.16666666666666666</ele><time>2026-05-04T14:50:05.403Z</time></trkpt><trkpt lat="40.8912133" lon="14.0453783"><ele>0.0</ele><time>2026-05-04T14:50:06.401Z</time></trkpt><trkpt lat="40.891135" lon="14.0453983"><ele>0.0</ele><time>2026-05-04T14:50:07.403Z</time></trkpt><trkpt lat="40.8910567" lon="14.045415"><ele>0.0</ele><time>2026-05-04T14:50:08.401Z</time></trkpt><trkpt lat="40.8909767" lon="14.045425"><ele>0.0</ele><time>2026-05-04T14:50:09.402Z</time></trkpt><trkpt lat="40.8908933" lon="14.04544"><ele>0.0</ele><time>2026-05-04T14:50:10.403Z</time></trkpt><trkpt lat="40.8908133" lon="14.0454583"><ele>0.0</ele><time>2026-05-04T14:50:11.402Z</time></trkpt><trkpt lat="40.8907367" lon="14.0454833"><ele>0.0</ele><time>2026-05-04T14:50:12.401Z</time></trkpt><trkpt lat="40.89066" lon="14.045505"><ele>-0.3333333333333333</ele><time>2026-05-04T14:50:13.403Z</time></trkpt><trkpt lat="40.890585" lon="14.0455267"><ele>-0.6666666666666666</ele><time>2026-05-04T14:50:14.401Z</time></trkpt><trkpt lat="40.8905083" lon="14.0455467"><ele>-1.0</ele><time>2026-05-04T14:50:15.402Z</time></trkpt><trkpt lat="40.89043" lon="14.045565"><ele>-1.3333333333333333</ele><time>2026-05-04T14:50:16.403Z</time></trkpt><trkpt lat="40.890355" lon="14.045585"><ele>-1.6666666666666665</ele><time>2026-05-04T14:50:17.402Z</time></trkpt><trkpt lat="40.8902783" lon="14.0456033"><ele>-2.0</ele><time>2026-05-04T14:50:18.403Z</time></trkpt><trkpt lat="40.8902033" lon="14.045625"><ele>-1.9999999999999998</ele><time>2026-05-04T14:50:19.403Z</time></trkpt><trkpt lat="40.8901283" lon="14.0456433"><ele>-2.0</ele><time>2026-05-04T14:50:20.401Z</time></trkpt><trkpt lat="40.89005" lon="14.0456633"><ele>-2.0</ele><time>2026-05-04T14:50:21.403Z</time></trkpt><trkpt lat="40.8899733" lon="14.04568"><ele>-2.0</ele><time>2026-05-04T14:50:22.402Z</time></trkpt><trkpt lat="40.889895" lon="14.0456933"><ele>-1.9999999999999998</ele><time>2026-05-04T14:50:23.403Z</time></trkpt><trkpt lat="40.8898183" lon="14.0457067"><ele>-2.0</ele><time>2026-05-04T14:50:24.403Z</time></trkpt><trkpt lat="40.8897417" lon="14.045725"><ele>-1.8333333333333333</ele><time>2026-05-04T14:50:25.403Z</time></trkpt><trkpt lat="40.8896683" lon="14.0457433"><ele>-1.6666666666666665</ele><time>2026-05-04T14:50:26.403Z</time></trkpt><trkpt lat="40.889595" lon="14.04576"><ele>-1.5</ele><time>2026-05-04T14:50:27.402Z</time></trkpt><trkpt lat="40.88952" lon="14.0457733"><ele>-1.3333333333333333</ele><time>2026-05-04T14:50:28.4Z</time></trkpt><trkpt lat="40.8894467" lon="14.0457867"><ele>-1.1666666666666665</ele><time>2026-05-04T14:50:29.403Z</time></trkpt><trkpt lat="40.88937" lon="14.0458033"><ele>-1.0</ele><time>2026-05-04T14:50:30.403Z</time></trkpt><trkpt lat="40.8892967" lon="14.0458183"><ele>-1.3333333333333333</ele><time>2026-05-04T14:50:31.403Z</time></trkpt><trkpt lat="40.8892183" lon="14.0458333"><ele>-1.6666666666666665</ele><time>2026-05-04T14:50:32.402Z</time></trkpt><trkpt lat="40.8891417" lon="14.0458517"><ele>-2.0</ele><time>2026-05-04T14:50:33.402Z</time></trkpt><trkpt lat="40.8890617" lon="14.04587"><ele>-2.3333333333333335</ele><time>2026-05-04T14:50:34.403Z</time></trkpt><trkpt lat="40.8889833" lon="14.0458883"><ele>-2.6666666666666665</ele><time>2026-05-04T14:50:35.402Z</time></trkpt><trkpt lat="40.888905" lon="14.0459067"><ele>-3.0</ele><time>2026-05-04T14:50:36.401Z</time></trkpt><trkpt lat="40.8888283" lon="14.0459233"><ele>-3.0</ele><time>2026-05-04T14:50:37.403Z</time></trkpt><trkpt lat="40.8887533" lon="14.0459383"><ele>-3.0</ele><time>2026-05-04T14:50:38.403Z</time></trkpt><trkpt lat="40.8886783" lon="14.0459533"><ele>-3.0</ele><time>2026-05-04T14:50:39.4Z</time></trkpt><trkpt lat="40.8886017" lon="14.045965"><ele>-3.0</ele><time>2026-05-04T14:50:40.403Z</time></trkpt><trkpt lat="40.888525" lon="14.0459783"><ele>-3.0</ele><time>2026-05-04T14:50:41.403Z</time></trkpt><trkpt lat="40.88845" lon="14.0459917"><ele>-3.0</ele><time>2026-05-04T14:50:42.402Z</time></trkpt><trkpt lat="40.888375" lon="14.046005"><ele>-3.1666666666666665</ele><time>2026-05-04T14:50:43.403Z</time></trkpt><trkpt lat="40.8883017" lon="14.04602"><ele>-3.333333333333333</ele><time>2026-05-04T14:50:44.402Z</time></trkpt><trkpt lat="40.8882267" lon="14.0460367"><ele>-3.5</ele><time>2026-05-04T14:50:45.401Z</time></trkpt><trkpt lat="40.8881483" lon="14.0460517"><ele>-3.6666666666666665</ele><time>2026-05-04T14:50:46.402Z</time></trkpt><trkpt lat="40.8880733" lon="14.04607"><ele>-3.833333333333333</ele><time>2026-05-04T14:50:47.403Z</time></trkpt><trkpt lat="40.8879983" lon="14.0460867"><ele>-4.0</ele><time>2026-05-04T14:50:48.403Z</time></trkpt><trkpt lat="40.8879217" lon="14.0461033"><ele>-3.9999999999999996</ele><time>2026-05-04T14:50:49.403Z</time></trkpt><trkpt lat="40.8878467" lon="14.0461217"><ele>-4.0</ele><time>2026-05-04T14:50:50.407Z</time></trkpt><trkpt lat="40.8877717" lon="14.0461383"><ele>-4.0</ele><time>2026-05-04T14:50:51.402Z</time></trkpt><trkpt lat="40.887695" lon="14.0461533"><ele>-4.0</ele><time>2026-05-04T14:50:52.401Z</time></trkpt><trkpt lat="40.88762" lon="14.0461717"><ele>-3.9999999999999996</ele><time>2026-05-04T14:50:53.403Z</time></trkpt><trkpt lat="40.8875433" lon="14.0461917"><ele>-4.0</ele><time>2026-05-04T14:50:54.402Z</time></trkpt><trkpt lat="40.8874667" lon="14.0462117"><ele>-4.142857142857142</ele><time>2026-05-04T14:50:55.404Z</time></trkpt><trkpt lat="40.88739" lon="14.0462333"><ele>-4.285714285714286</ele><time>2026-05-04T14:50:56.401Z</time></trkpt><trkpt lat="40.8873167" lon="14.046255"><ele>-4.428571428571429</ele><time>2026-05-04T14:50:57.402Z</time></trkpt><trkpt lat="40.8872433" lon="14.04627"><ele>-4.571428571428571</ele><time>2026-05-04T14:50:58.402Z</time></trkpt><trkpt lat="40.8871717" lon="14.0462817"><ele>-4.714285714285714</ele><time>2026-05-04T14:50:59.403Z</time></trkpt><trkpt lat="40.8870967" lon="14.0462933"><ele>-4.857142857142857</ele><time>2026-05-04T14:51:00.402Z</time></trkpt><trkpt lat="40.8870233" lon="14.046305"><ele>-5.0</ele><time>2026-05-04T14:51:01.403Z</time></trkpt><trkpt lat="40.88695" lon="14.0463183"><ele>-5.0</ele><time>2026-05-04T14:51:02.403Z</time></trkpt><trkpt lat="40.886875" lon="14.0463333"><ele>-5.0</ele><time>2026-05-04T14:51:03.402Z</time></trkpt><trkpt lat="40.8867983" lon="14.0463517"><ele>-5.0</ele><time>2026-05-04T14:51:04.403Z</time></trkpt><trkpt lat="40.8867267" lon="14.046365"><ele>-5.0</ele><time>2026-05-04T14:51:05.403Z</time></trkpt><trkpt lat="40.88665" lon="14.0463833"><ele>-5.0</ele><time>2026-05-04T14:51:06.41Z</time></trkpt><trkpt lat="40.88657" lon="14.0463983"><ele>-5.0</ele><time>2026-05-04T14:51:07.404Z</time></trkpt><trkpt lat="40.88649" lon="14.0464117"><ele>-4.5</ele><time>2026-05-04T14:51:08.403Z</time></trkpt><trkpt lat="40.88641" lon="14.0464267"><ele>-4.0</ele><time>2026-05-04T14:51:09.403Z</time></trkpt><trkpt lat="40.8863317" lon="14.0464433"><ele>-3.5</ele><time>2026-05-04T14:51:10.401Z</time></trkpt><trkpt lat="40.8862567" lon="14.04646"><ele>-3.0</ele><time>2026-05-04T14:51:11.401Z</time></trkpt><trkpt lat="40.8861783" lon="14.046475"><ele>-2.5</ele><time>2026-05-04T14:51:12.401Z</time></trkpt><trkpt lat="40.886105" lon="14.0464917"><ele>-2.0</ele><time>2026-05-04T14:51:13.401Z</time></trkpt><trkpt lat="40.88603" lon="14.0465117"><ele>-1.9999999999999998</ele><time>2026-05-04T14:51:14.401Z</time></trkpt><trkpt lat="40.8859517" lon="14.0465317"><ele>-2.0</ele><time>2026-05-04T14:51:15.402Z</time></trkpt><trkpt lat="40.885875" lon="14.046555"><ele>-2.0</ele><time>2026-05-04T14:51:16.401Z</time></trkpt><trkpt lat="40.8857983" lon="14.0465783"><ele>-2.0</ele><time>2026-05-04T14:51:17.403Z</time></trkpt><trkpt lat="40.8857233" lon="14.0466017"><ele>-1.9999999999999998</ele><time>2026-05-04T14:51:18.402Z</time></trkpt><trkpt lat="40.8856483" lon="14.0466233"><ele>-2.0</ele><time>2026-05-04T14:51:19.402Z</time></trkpt><trkpt lat="40.8855717" lon="14.0466433"><ele>-1.8333333333333333</ele><time>2026-05-04T14:51:20.402Z</time></trkpt><trkpt lat="40.8854933" lon="14.0466633"><ele>-1.6666666666666665</ele><time>2026-05-04T14:51:21.402Z</time></trkpt><trkpt lat="40.885415" lon="14.0466817"><ele>-1.5</ele><time>2026-05-04T14:51:22.402Z</time></trkpt><trkpt lat="40.8853367" lon="14.0466983"><ele>-1.3333333333333333</ele><time>2026-05-04T14:51:23.402Z</time></trkpt><trkpt lat="40.8852583" lon="14.0467167"><ele>-1.1666666666666665</ele><time>2026-05-04T14:51:24.402Z</time></trkpt><trkpt lat="40.8851833" lon="14.0467367"><ele>-1.0</ele><time>2026-05-04T14:51:25.402Z</time></trkpt><trkpt lat="40.885105" lon="14.046755"><ele>-0.6666666666666666</ele><time>2026-05-04T14:51:26.403Z</time></trkpt><trkpt lat="40.8850283" lon="14.046775"><ele>-0.3333333333333333</ele><time>2026-05-04T14:51:27.401Z</time></trkpt><trkpt lat="40.8849483" lon="14.0467933"><ele>0.0</ele><time>2026-05-04T14:51:28.402Z</time></trkpt><trkpt lat="40.884865" lon="14.04681"><ele>0.3333333333333333</ele><time>2026-05-04T14:51:29.402Z</time></trkpt><trkpt lat="40.8847833" lon="14.0468283"><ele>0.6666666666666666</ele><time>2026-05-04T14:51:30.402Z</time></trkpt><trkpt lat="40.8847017" lon="14.0468467"><ele>1.0</ele><time>2026-05-04T14:51:31.403Z</time></trkpt><trkpt lat="40.88462" lon="14.046865"><ele>0.9999999999999999</ele><time>2026-05-04T14:51:32.403Z</time></trkpt><trkpt lat="40.8845383" lon="14.0468817"><ele>1.0</ele><time>2026-05-04T14:51:33.402Z</time></trkpt><trkpt lat="40.8844583" lon="14.0469017"><ele>1.0</ele><time>2026-05-04T14:51:34.402Z</time></trkpt><trkpt lat="40.8843783" lon="14.0469233"><ele>1.0</ele><time>2026-05-04T14:51:35.401Z</time></trkpt><trkpt lat="40.8842967" lon="14.046945"><ele>0.9999999999999999</ele><time>2026-05-04T14:51:36.402Z</time></trkpt><trkpt lat="40.884215" lon="14.046965"><ele>1.0</ele><time>2026-05-04T14:51:37.402Z</time></trkpt><trkpt lat="40.8841333" lon="14.0469833"><ele>1.1666666666666665</ele><time>2026-05-04T14:51:38.403Z</time></trkpt><trkpt lat="40.8840517" lon="14.0470033"><ele>1.3333333333333333</ele><time>2026-05-04T14:51:39.402Z</time></trkpt><trkpt lat="40.88397" lon="14.0470217"><ele>1.5</ele><time>2026-05-04T14:51:40.402Z</time></trkpt><trkpt lat="40.8838867" lon="14.04704"><ele>1.6666666666666665</ele><time>2026-05-04T14:51:41.402Z</time></trkpt><trkpt lat="40.883805" lon="14.047055"><ele>1.8333333333333333</ele><time>2026-05-04T14:51:42.401Z</time></trkpt><trkpt lat="40.88372" lon="14.0470717"><ele>2.0</ele><time>2026-05-04T14:51:43.402Z</time></trkpt><trkpt lat="40.8836417" lon="14.0470933"><ele>1.9999999999999998</ele><time>2026-05-04T14:51:44.402Z</time></trkpt><trkpt lat="40.8835633" lon="14.0471167"><ele>2.0</ele><time>2026-05-04T14:51:45.402Z</time></trkpt><trkpt lat="40.883485" lon="14.047135"><ele>2.0</ele><time>2026-05-04T14:51:46.402Z</time></trkpt><trkpt lat="40.8834083" lon="14.047155"><ele>2.0</ele><time>2026-05-04T14:51:47.401Z</time></trkpt><trkpt lat="40.8833283" lon="14.047175"><ele>1.9999999999999998</ele><time>2026-05-04T14:51:48.401Z</time></trkpt><trkpt lat="40.8832517" lon="14.0471933"><ele>2.0</ele><time>2026-05-04T14:51:49.403Z</time></trkpt><trkpt lat="40.8831783" lon="14.04721"><ele>1.8333333333333333</ele><time>2026-05-04T14:51:50.403Z</time></trkpt><trkpt lat="40.8831017" lon="14.0472233"><ele>1.6666666666666665</ele><time>2026-05-04T14:51:51.403Z</time></trkpt><trkpt lat="40.8830283" lon="14.04724"><ele>1.5</ele><time>2026-05-04T14:51:52.402Z</time></trkpt><trkpt lat="40.8829517" lon="14.0472583"><ele>1.3333333333333333</ele><time>2026-05-04T14:51:53.402Z</time></trkpt><trkpt lat="40.8828717" lon="14.0472783"><ele>1.1666666666666665</ele><time>2026-05-04T14:51:54.402Z</time></trkpt><trkpt lat="40.8827933" lon="14.0472967"><ele>1.0</ele><time>2026-05-04T14:51:55.403Z</time></trkpt><trkpt lat="40.8827183" lon="14.0473133"><ele>0.9999999999999999</ele><time>2026-05-04T14:51:56.402Z</time></trkpt><trkpt lat="40.882645" lon="14.04733"><ele>1.0</ele><time>2026-05-04T14:51:57.402Z</time></trkpt><trkpt lat="40.8825683" lon="14.0473467"><ele>1.0</ele><time>2026-05-04T14:51:58.403Z</time></trkpt><trkpt lat="40.882495" lon="14.0473617"><ele>1.0</ele><time>2026-05-04T14:51:59.403Z</time></trkpt><trkpt lat="40.88242" lon="14.047375"><ele>0.9999999999999999</ele><time>2026-05-04T14:52:00.403Z</time></trkpt><trkpt lat="40.8823467" lon="14.04739"><ele>1.0</ele><time>2026-05-04T14:52:01.403Z</time></trkpt><trkpt lat="40.8822733" lon="14.047405"><ele>1.0</ele><time>2026-05-04T14:52:02.403Z</time></trkpt><trkpt lat="40.8822" lon="14.0474233"><ele>0.9999999999999999</ele><time>2026-05-04T14:52:03.401Z</time></trkpt><trkpt lat="40.88213" lon="14.0474433"><ele>1.0</ele><time>2026-05-04T14:52:04.403Z</time></trkpt><trkpt lat="40.88206" lon="14.0474617"><ele>1.0</ele><time>2026-05-04T14:52:05.403Z</time></trkpt><trkpt lat="40.8819917" lon="14.04748"><ele>0.9999999999999999</ele><time>2026-05-04T14:52:06.401Z</time></trkpt><trkpt lat="40.8819217" lon="14.047495"><ele>1.0</ele><time>2026-05-04T14:52:07.403Z</time></trkpt><trkpt lat="40.8818517" lon="14.0475067"><ele>1.0</ele><time>2026-05-04T14:52:08.402Z</time></trkpt><trkpt lat="40.8817783" lon="14.0475183"><ele>0.8571428571428571</ele><time>2026-05-04T14:52:09.402Z</time></trkpt><trkpt lat="40.8817033" lon="14.0475333"><ele>0.7142857142857142</ele><time>2026-05-04T14:52:10.403Z</time></trkpt><trkpt lat="40.88163" lon="14.0475517"><ele>0.5714285714285714</ele><time>2026-05-04T14:52:11.403Z</time></trkpt><trkpt lat="40.8815567" lon="14.04757"><ele>0.42857142857142855</ele><time>2026-05-04T14:52:12.403Z</time></trkpt><trkpt lat="40.881485" lon="14.0475883"><ele>0.2857142857142857</ele><time>2026-05-04T14:52:13.402Z</time></trkpt><trkpt lat="40.881415" lon="14.0476083"><ele>0.14285714285714285</ele><time>2026-05-04T14:52:14.403Z</time></trkpt><trkpt lat="40.8813433" lon="14.0476333"><ele>0.0</ele><time>2026-05-04T14:52:15.402Z</time></trkpt><trkpt lat="40.881275" lon="14.0476567"><ele>0.0</ele><time>2026-05-04T14:52:16.404Z</time></trkpt><trkpt lat="40.8812017" lon="14.0476783"><ele>0.0</ele><time>2026-05-04T14:52:17.403Z</time></trkpt><trkpt lat="40.8811317" lon="14.0477"><ele>0.0</ele><time>2026-05-04T14:52:18.402Z</time></trkpt><trkpt lat="40.88106" lon="14.04772"><ele>0.0</ele><time>2026-05-04T14:52:19.401Z</time></trkpt><trkpt lat="40.8809883" lon="14.0477383"><ele>0.0</ele><time>2026-05-04T14:52:20.403Z</time></trkpt><trkpt lat="40.8809133" lon="14.0477533"><ele>0.0</ele><time>2026-05-04T14:52:21.403Z</time></trkpt><trkpt lat="40.8808367" lon="14.0477667"><ele>0.0</ele><time>2026-05-04T14:52:22.406Z</time></trkpt><trkpt lat="40.8807617" lon="14.047785"><ele>0.0</ele><time>2026-05-04T14:52:23.403Z</time></trkpt><trkpt lat="40.8806883" lon="14.0478033"><ele>0.0</ele><time>2026-05-04T14:52:24.403Z</time></trkpt><trkpt lat="40.8806133" lon="14.0478183"><ele>0.0</ele><time>2026-05-04T14:52:25.402Z</time></trkpt><trkpt lat="40.880535" lon="14.0478317"><ele>0.0</ele><time>2026-05-04T14:52:26.402Z</time></trkpt><trkpt lat="40.88046" lon="14.047845"><ele>0.0</ele><time>2026-05-04T14:52:27.403Z</time></trkpt><trkpt lat="40.8803867" lon="14.0478583"><ele>0.0</ele><time>2026-05-04T14:52:28.403Z</time></trkpt><trkpt lat="40.8803117" lon="14.0478717"><ele>0.0</ele><time>2026-05-04T14:52:29.403Z</time></trkpt><trkpt lat="40.8802383" lon="14.04789"><ele>0.0</ele><time>2026-05-04T14:52:30.402Z</time></trkpt><trkpt lat="40.880165" lon="14.047905"><ele>0.0</ele><time>2026-05-04T14:52:31.402Z</time></trkpt><trkpt lat="40.88009" lon="14.04792"><ele>0.0</ele><time>2026-05-04T14:52:32.402Z</time></trkpt><trkpt lat="40.8800183" lon="14.0479383"><ele>0.0</ele><time>2026-05-04T14:52:33.403Z</time></trkpt><trkpt lat="40.879945" lon="14.0479567"><ele>0.0</ele><time>2026-05-04T14:52:34.403Z</time></trkpt><trkpt lat="40.8798717" lon="14.047975"><ele>0.0</ele><time>2026-05-04T14:52:35.402Z</time></trkpt><trkpt lat="40.8798" lon="14.0479933"><ele>0.0</ele><time>2026-05-04T14:52:36.403Z</time></trkpt><trkpt lat="40.8797283" lon="14.0480083"><ele>0.0</ele><time>2026-05-04T14:52:37.404Z</time></trkpt><trkpt lat="40.8796567" lon="14.0480233"><ele>0.0</ele><time>2026-05-04T14:52:38.402Z</time></trkpt><trkpt lat="40.8795833" lon="14.04804"><ele>0.0</ele><time>2026-05-04T14:52:39.403Z</time></trkpt><trkpt lat="40.87951" lon="14.0480567"><ele>0.0</ele><time>2026-05-04T14:52:40.402Z</time></trkpt><trkpt lat="40.879435" lon="14.0480733"><ele>0.0</ele><time>2026-05-04T14:52:41.403Z</time></trkpt><trkpt lat="40.8793583" lon="14.04809"><ele>0.0</ele><time>2026-05-04T14:52:42.402Z</time></trkpt><trkpt lat="40.8792867" lon="14.0481067"><ele>0.14285714285714285</ele><time>2026-05-04T14:52:43.401Z</time></trkpt><trkpt lat="40.8792167" lon="14.048125"><ele>0.2857142857142857</ele><time>2026-05-04T14:52:44.403Z</time></trkpt><trkpt lat="40.879145" lon="14.04814"><ele>0.42857142857142855</ele><time>2026-05-04T14:52:45.401Z</time></trkpt><trkpt lat="40.8790733" lon="14.048155"><ele>0.5714285714285714</ele><time>2026-05-04T14:52:46.401Z</time></trkpt><trkpt lat="40.8790017" lon="14.0481717"><ele>0.7142857142857142</ele><time>2026-05-04T14:52:47.403Z</time></trkpt><trkpt lat="40.8789283" lon="14.0481883"><ele>0.8571428571428571</ele><time>2026-05-04T14:52:48.403Z</time></trkpt><trkpt lat="40.87885" lon="14.0482067"><ele>1.0</ele><time>2026-05-04T14:52:49.403Z</time></trkpt><trkpt lat="40.8787717" lon="14.048225"><ele>0.9999999999999999</ele><time>2026-05-04T14:52:50.403Z</time></trkpt><trkpt lat="40.8786967" lon="14.0482417"><ele>1.0</ele><time>2026-05-04T14:52:51.402Z</time></trkpt><trkpt lat="40.8786233" lon="14.0482583"><ele>1.0</ele><time>2026-05-04T14:52:52.403Z</time></trkpt><trkpt lat="40.8785483" lon="14.0482767"><ele>1.0</ele><time>2026-05-04T14:52:53.403Z</time></trkpt><trkpt lat="40.878475" lon="14.048295"><ele>0.9999999999999999</ele><time>2026-05-04T14:52:54.403Z</time></trkpt><trkpt lat="40.8784017" lon="14.048315"><ele>1.0</ele><time>2026-05-04T14:52:55.403Z</time></trkpt><trkpt lat="40.878325" lon="14.0483367"><ele>0.6666666666666666</ele><time>2026-05-04T14:52:56.403Z</time></trkpt><trkpt lat="40.8782483" lon="14.048355"><ele>0.3333333333333333</ele><time>2026-05-04T14:52:57.403Z</time></trkpt><trkpt lat="40.878175" lon="14.0483733"><ele>0.0</ele><time>2026-05-04T14:52:58.403Z</time></trkpt><trkpt lat="40.8781" lon="14.04839"><ele>-0.3333333333333333</ele><time>2026-05-04T14:52:59.402Z</time></trkpt><trkpt lat="40.8780217" lon="14.048405"><ele>-0.6666666666666666</ele><time>2026-05-04T14:53:00.403Z</time></trkpt><trkpt lat="40.877945" lon="14.04842"><ele>-1.0</ele><time>2026-05-04T14:53:01.403Z</time></trkpt><trkpt lat="40.8778683" lon="14.0484367"><ele>-1.0</ele><time>2026-05-04T14:53:02.403Z</time></trkpt><trkpt lat="40.8777933" lon="14.0484533"><ele>-0.9999999999999999</ele><time>2026-05-04T14:53:03.403Z</time></trkpt><trkpt lat="40.8777233" lon="14.0484717"><ele>-1.0</ele><time>2026-05-04T14:53:04.403Z</time></trkpt><trkpt lat="40.8776533" lon="14.0484883"><ele>-1.0</ele><time>2026-05-04T14:53:05.404Z</time></trkpt><trkpt lat="40.87758" lon="14.0485067"><ele>-0.9999999999999999</ele><time>2026-05-04T14:53:06.402Z</time></trkpt><trkpt lat="40.8775067" lon="14.0485233"><ele>-1.0</ele><time>2026-05-04T14:53:07.403Z</time></trkpt><trkpt lat="40.8774267" lon="14.0485417"><ele>-1.0</ele><time>2026-05-04T14:53:08.402Z</time></trkpt><trkpt lat="40.8773467" lon="14.0485583"><ele>-0.8333333333333333</ele><time>2026-05-04T14:53:09.402Z</time></trkpt><trkpt lat="40.87727" lon="14.048575"><ele>-0.6666666666666666</ele><time>2026-05-04T14:53:10.401Z</time></trkpt><trkpt lat="40.877195" lon="14.0485917"><ele>-0.5</ele><time>2026-05-04T14:53:11.403Z</time></trkpt><trkpt lat="40.8771183" lon="14.048605"><ele>-0.3333333333333333</ele><time>2026-05-04T14:53:12.402Z</time></trkpt><trkpt lat="40.8770417" lon="14.048625"><ele>-0.16666666666666666</ele><time>2026-05-04T14:53:13.402Z</time></trkpt><trkpt lat="40.876965" lon="14.0486417"><ele>0.0</ele><time>2026-05-04T14:53:14.403Z</time></trkpt><trkpt lat="40.8768833" lon="14.0486567"><ele>0.0</ele><time>2026-05-04T14:53:15.403Z</time></trkpt><trkpt lat="40.8768067" lon="14.0486717"><ele>0.0</ele><time>2026-05-04T14:53:16.402Z</time></trkpt><trkpt lat="40.8767283" lon="14.0486883"><ele>0.0</ele><time>2026-05-04T14:53:17.404Z</time></trkpt><trkpt lat="40.8766517" lon="14.0487083"><ele>0.0</ele><time>2026-05-04T14:53:18.403Z</time></trkpt><trkpt lat="40.8765717" lon="14.0487267"><ele>0.0</ele><time>2026-05-04T14:53:19.404Z</time></trkpt><trkpt lat="40.87649" lon="14.048745"><ele>0.0</ele><time>2026-05-04T14:53:20.403Z</time></trkpt><trkpt lat="40.87641" lon="14.048765"><ele>0.0</ele><time>2026-05-04T14:53:21.403Z</time></trkpt><trkpt lat="40.8763267" lon="14.0487833"><ele>0.0</ele><time>2026-05-04T14:53:22.403Z</time></trkpt><trkpt lat="40.876245" lon="14.0488033"><ele>0.0</ele><time>2026-05-04T14:53:23.402Z</time></trkpt><trkpt lat="40.876165" lon="14.04882"><ele>0.0</ele><time>2026-05-04T14:53:24.402Z</time></trkpt><trkpt lat="40.8760867" lon="14.0488383"><ele>0.0</ele><time>2026-05-04T14:53:25.404Z</time></trkpt><trkpt lat="40.876005" lon="14.048855"><ele>0.0</ele><time>2026-05-04T14:53:26.403Z</time></trkpt><trkpt lat="40.8759233" lon="14.04887"><ele>0.0</ele><time>2026-05-04T14:53:27.403Z</time></trkpt><trkpt lat="40.8758417" lon="14.048885"><ele>0.0</ele><time>2026-05-04T14:53:28.402Z</time></trkpt><trkpt lat="40.8757617" lon="14.0489"><ele>0.0</ele><time>2026-05-04T14:53:29.403Z</time></trkpt><trkpt lat="40.8756833" lon="14.048915"><ele>0.0</ele><time>2026-05-04T14:53:30.403Z</time></trkpt><trkpt lat="40.875605" lon="14.0489317"><ele>0.0</ele><time>2026-05-04T14:53:31.403Z</time></trkpt><trkpt lat="40.875525" lon="14.0489517"><ele>0.0</ele><time>2026-05-04T14:53:32.403Z</time></trkpt><trkpt lat="40.8754433" lon="14.04897"><ele>0.0</ele><time>2026-05-04T14:53:33.402Z</time></trkpt><trkpt lat="40.8753617" lon="14.0489883"><ele>0.0</ele><time>2026-05-04T14:53:34.403Z</time></trkpt><trkpt lat="40.87528" lon="14.0490067"><ele>0.0</ele><time>2026-05-04T14:53:35.403Z</time></trkpt><trkpt lat="40.8751967" lon="14.0490267"><ele>0.0</ele><time>2026-05-04T14:53:36.403Z</time></trkpt><trkpt lat="40.8751167" lon="14.04905"><ele>0.0</ele><time>2026-05-04T14:53:37.403Z</time></trkpt><trkpt lat="40.875035" lon="14.04907"><ele>0.0</ele><time>2026-05-04T14:53:38.403Z</time></trkpt><trkpt lat="40.8749567" lon="14.0490883"><ele>0.16666666666666666</ele><time>2026-05-04T14:53:39.402Z</time></trkpt><trkpt lat="40.8748783" lon="14.04911"><ele>0.3333333333333333</ele><time>2026-05-04T14:53:40.403Z</time></trkpt><trkpt lat="40.8747983" lon="14.0491317"><ele>0.5</ele><time>2026-05-04T14:53:41.402Z</time></trkpt><trkpt lat="40.8747183" lon="14.0491517"><ele>0.6666666666666666</ele><time>2026-05-04T14:53:42.403Z</time></trkpt><trkpt lat="40.87464" lon="14.0491717"><ele>0.8333333333333333</ele><time>2026-05-04T14:53:43.404Z</time></trkpt><trkpt lat="40.8745583" lon="14.0491967"><ele>1.0</ele><time>2026-05-04T14:53:44.402Z</time></trkpt><trkpt lat="40.8744783" lon="14.0492167"><ele>0.9999999999999999</ele><time>2026-05-04T14:53:45.403Z</time></trkpt><trkpt lat="40.8743983" lon="14.0492317"><ele>1.0</ele><time>2026-05-04T14:53:46.402Z</time></trkpt><trkpt lat="40.87432" lon="14.0492467"><ele>1.0</ele><time>2026-05-04T14:53:47.402Z</time></trkpt><trkpt lat="40.8742383" lon="14.04926"><ele>1.0</ele><time>2026-05-04T14:53:48.405Z</time></trkpt><trkpt lat="40.874155" lon="14.0492733"><ele>0.9999999999999999</ele><time>2026-05-04T14:53:49.403Z</time></trkpt><trkpt lat="40.8740717" lon="14.0492883"><ele>1.0</ele><time>2026-05-04T14:53:50.403Z</time></trkpt><trkpt lat="40.8739867" lon="14.049305"><ele>0.6666666666666666</ele><time>2026-05-04T14:53:51.403Z</time></trkpt><trkpt lat="40.8739067" lon="14.0493283"><ele>0.3333333333333333</ele><time>2026-05-04T14:53:52.403Z</time></trkpt><trkpt lat="40.8738267" lon="14.04935"><ele>0.0</ele><time>2026-05-04T14:53:53.403Z</time></trkpt><trkpt lat="40.87375" lon="14.0493717"><ele>-0.3333333333333333</ele><time>2026-05-04T14:53:54.403Z</time></trkpt><trkpt lat="40.8736683" lon="14.0493867"><ele>-0.6666666666666666</ele><time>2026-05-04T14:53:55.404Z</time></trkpt><trkpt lat="40.8735917" lon="14.0494067"><ele>-1.0</ele><time>2026-05-04T14:53:56.403Z</time></trkpt><trkpt lat="40.8735133" lon="14.049425"><ele>-0.9999999999999999</ele><time>2026-05-04T14:53:57.405Z</time></trkpt><trkpt lat="40.873435" lon="14.0494417"><ele>-1.0</ele><time>2026-05-04T14:53:58.403Z</time></trkpt><trkpt lat="40.8733567" lon="14.04946"><ele>-1.0</ele><time>2026-05-04T14:53:59.405Z</time></trkpt><trkpt lat="40.87328" lon="14.049485"><ele>-1.0</ele><time>2026-05-04T14:54:00.403Z</time></trkpt><trkpt lat="40.8732033" lon="14.0495133"><ele>-0.9999999999999999</ele><time>2026-05-04T14:54:01.403Z</time></trkpt><trkpt lat="40.8731367" lon="14.049545"><ele>-1.0</ele><time>2026-05-04T14:54:02.402Z</time></trkpt><trkpt lat="40.873065" lon="14.0495817"><ele>-0.9999999999999999</ele><time>2026-05-04T14:54:03.403Z</time></trkpt><trkpt lat="40.872995" lon="14.04962"><ele>-1.0</ele><time>2026-05-04T14:54:04.402Z</time></trkpt><trkpt lat="40.8729233" lon="14.0496633"><ele>-1.0</ele><time>2026-05-04T14:54:05.404Z</time></trkpt><trkpt lat="40.8728567" lon="14.04971"><ele>-1.0</ele><time>2026-05-04T14:54:06.403Z</time></trkpt><trkpt lat="40.8727917" lon="14.0497567"><ele>-0.9999999999999999</ele><time>2026-05-04T14:54:07.404Z</time></trkpt><trkpt lat="40.872725" lon="14.0498067"><ele>-1.0</ele><time>2026-05-04T14:54:08.403Z</time></trkpt><trkpt lat="40.8726633" lon="14.0498583"><ele>-1.0</ele><time>2026-05-04T14:54:09.403Z</time></trkpt><trkpt lat="40.8726067" lon="14.0499133"><ele>-0.9999999999999999</ele><time>2026-05-04T14:54:10.403Z</time></trkpt><trkpt lat="40.87255" lon="14.0499683"><ele>-1.0</ele><time>2026-05-04T14:54:11.404Z</time></trkpt><trkpt lat="40.8724983" lon="14.0500267"><ele>-1.0</ele><time>2026-05-04T14:54:12.402Z</time></trkpt><trkpt lat="40.8724467" lon="14.050085"><ele>-0.9999999999999999</ele><time>2026-05-04T14:54:13.403Z</time></trkpt><trkpt lat="40.8723933" lon="14.0501433"><ele>-1.0</ele><time>2026-05-04T14:54:14.402Z</time></trkpt><trkpt lat="40.872345" lon="14.0502"><ele>-1.0</ele><time>2026-05-04T14:54:15.403Z</time></trkpt><trkpt lat="40.8722983" lon="14.0502583"><ele>-0.5714285714285714</ele><time>2026-05-04T14:54:16.403Z</time></trkpt><trkpt lat="40.87225" lon="14.050315"><ele>-0.1428571428571428</ele><time>2026-05-04T14:54:17.403Z</time></trkpt><trkpt lat="40.8722033" lon="14.050375"><ele>0.2857142857142857</ele><time>2026-05-04T14:54:18.402Z</time></trkpt><trkpt lat="40.872155" lon="14.0504383"><ele>0.7142857142857142</ele><time>2026-05-04T14:54:19.403Z</time></trkpt><trkpt lat="40.8721083" lon="14.0505067"><ele>1.1428571428571428</ele><time>2026-05-04T14:54:20.402Z</time></trkpt><trkpt lat="40.8720633" lon="14.05058"><ele>1.5714285714285714</ele><time>2026-05-04T14:54:21.403Z</time></trkpt><trkpt lat="40.8720233" lon="14.05065"><ele>2.0</ele><time>2026-05-04T14:54:22.402Z</time></trkpt><trkpt lat="40.8719833" lon="14.0507267"><ele>2.142857142857143</ele><time>2026-05-04T14:54:23.402Z</time></trkpt><trkpt lat="40.8719467" lon="14.0508067"><ele>2.2857142857142856</ele><time>2026-05-04T14:54:24.403Z</time></trkpt><trkpt lat="40.8719117" lon="14.05089"><ele>2.4285714285714284</ele><time>2026-05-04T14:54:25.404Z</time></trkpt><trkpt lat="40.871875" lon="14.0509733"><ele>2.571428571428571</ele><time>2026-05-04T14:54:26.403Z</time></trkpt><trkpt lat="40.87184" lon="14.05106"><ele>2.7142857142857144</ele><time>2026-05-04T14:54:27.403Z</time></trkpt><trkpt lat="40.87181" lon="14.0511467"><ele>2.8571428571428568</ele><time>2026-05-04T14:54:28.403Z</time></trkpt><trkpt lat="40.8717817" lon="14.0512367"><ele>3.0</ele><time>2026-05-04T14:54:29.402Z</time></trkpt><trkpt lat="40.871755" lon="14.0513283"><ele>3.0</ele><time>2026-05-04T14:54:30.402Z</time></trkpt><trkpt lat="40.8717267" lon="14.0514217"><ele>3.0</ele><time>2026-05-04T14:54:31.402Z</time></trkpt><trkpt lat="40.8717" lon="14.0515167"><ele>3.0</ele><time>2026-05-04T14:54:32.402Z</time></trkpt><trkpt lat="40.8716733" lon="14.0516133"><ele>3.0</ele><time>2026-05-04T14:54:33.401Z</time></trkpt><trkpt lat="40.8716467" lon="14.0517133"><ele>3.0</ele><time>2026-05-04T14:54:34.401Z</time></trkpt><trkpt lat="40.87162" lon="14.0518117"><ele>3.0</ele><time>2026-05-04T14:54:35.403Z</time></trkpt><trkpt lat="40.871595" lon="14.0519117"><ele>3.0</ele><time>2026-05-04T14:54:36.403Z</time></trkpt><trkpt lat="40.87157" lon="14.05201"><ele>3.0</ele><time>2026-05-04T14:54:37.402Z</time></trkpt><trkpt lat="40.871545" lon="14.0521083"><ele>3.0</ele><time>2026-05-04T14:54:38.401Z</time></trkpt><trkpt lat="40.8715217" lon="14.0522083"><ele>3.0</ele><time>2026-05-04T14:54:39.402Z</time></trkpt><trkpt lat="40.8714983" lon="14.0523133"><ele>3.0</ele><time>2026-05-04T14:54:40.402Z</time></trkpt><trkpt lat="40.8714717" lon="14.0524183"><ele>3.0</ele><time>2026-05-04T14:54:41.402Z</time></trkpt><trkpt lat="40.8714467" lon="14.0525167"><ele>2.6666666666666665</ele><time>2026-05-04T14:54:42.401Z</time></trkpt><trkpt lat="40.87142" lon="14.05262"><ele>2.3333333333333335</ele><time>2026-05-04T14:54:43.401Z</time></trkpt><trkpt lat="40.87139" lon="14.052725"><ele>2.0</ele><time>2026-05-04T14:54:44.402Z</time></trkpt><trkpt lat="40.8713633" lon="14.0528217"><ele>1.6666666666666665</ele><time>2026-05-04T14:54:45.401Z</time></trkpt><trkpt lat="40.8713367" lon="14.0529183"><ele>1.3333333333333333</ele><time>2026-05-04T14:54:46.402Z</time></trkpt><trkpt lat="40.87131" lon="14.0530117"><ele>1.0</ele><time>2026-05-04T14:54:47.402Z</time></trkpt><trkpt lat="40.871285" lon="14.053105"><ele>1.0</ele><time>2026-05-04T14:54:48.402Z</time></trkpt><trkpt lat="40.87126" lon="14.0531983"><ele>0.9999999999999999</ele><time>2026-05-04T14:54:49.401Z</time></trkpt><trkpt lat="40.8712333" lon="14.0532883"><ele>1.0</ele><time>2026-05-04T14:54:50.402Z</time></trkpt><trkpt lat="40.8712083" lon="14.0533783"><ele>1.0</ele><time>2026-05-04T14:54:51.402Z</time></trkpt><trkpt lat="40.871185" lon="14.0534683"><ele>0.9999999999999999</ele><time>2026-05-04T14:54:52.401Z</time></trkpt><trkpt lat="40.87116" lon="14.0535633"><ele>1.0</ele><time>2026-05-04T14:54:53.402Z</time></trkpt><trkpt lat="40.87114" lon="14.0536583"><ele>1.0</ele><time>2026-05-04T14:54:54.402Z</time></trkpt><trkpt lat="40.8711183" lon="14.05375"><ele>1.0</ele><time>2026-05-04T14:54:55.402Z</time></trkpt><trkpt lat="40.8710983" lon="14.0538417"><ele>0.9999999999999999</ele><time>2026-05-04T14:54:56.402Z</time></trkpt><trkpt lat="40.8710783" lon="14.0539283"><ele>1.0</ele><time>2026-05-04T14:54:57.402Z</time></trkpt><trkpt lat="40.871055" lon="14.05401"><ele>1.0</ele><time>2026-05-04T14:54:58.402Z</time></trkpt><trkpt lat="40.87103" lon="14.0540933"><ele>0.9999999999999999</ele><time>2026-05-04T14:54:59.402Z</time></trkpt><trkpt lat="40.8710083" lon="14.0541767"><ele>1.0</ele><time>2026-05-04T14:55:00.401Z</time></trkpt><trkpt lat="40.8709917" lon="14.0542583"><ele>1.0</ele><time>2026-05-04T14:55:01.401Z</time></trkpt><trkpt lat="40.8709733" lon="14.0543383"><ele>0.9999999999999999</ele><time>2026-05-04T14:55:02.401Z</time></trkpt><trkpt lat="40.8709533" lon="14.0544183"><ele>1.0</ele><time>2026-05-04T14:55:03.402Z</time></trkpt><trkpt lat="40.87092" lon="14.05458"><ele>1.0</ele><time>2026-05-04T14:55:05.401Z</time></trkpt><trkpt lat="40.8709017" lon="14.0546633"><ele>1.0</ele><time>2026-05-04T14:55:06.402Z</time></trkpt><trkpt lat="40.8708817" lon="14.054745"><ele>0.9999999999999999</ele><time>2026-05-04T14:55:07.403Z</time></trkpt><trkpt lat="40.8708583" lon="14.0548283"><ele>1.0</ele><time>2026-05-04T14:55:08.402Z</time></trkpt><trkpt lat="40.8708383" lon="14.0549083"><ele>1.0</ele><time>2026-05-04T14:55:09.401Z</time></trkpt><trkpt lat="40.870815" lon="14.0549933"><ele>0.9999999999999999</ele><time>2026-05-04T14:55:10.401Z</time></trkpt><trkpt lat="40.8707917" lon="14.0550767"><ele>1.0</ele><time>2026-05-04T14:55:11.401Z</time></trkpt><trkpt lat="40.8707667" lon="14.05516"><ele>1.0</ele><time>2026-05-04T14:55:12.403Z</time></trkpt><trkpt lat="40.8707417" lon="14.0552433"><ele>0.9999999999999999</ele><time>2026-05-04T14:55:13.402Z</time></trkpt><trkpt lat="40.87072" lon="14.0553233"><ele>1.0</ele><time>2026-05-04T14:55:14.402Z</time></trkpt><trkpt lat="40.8706983" lon="14.0554033"><ele>1.0</ele><time>2026-05-04T14:55:15.401Z</time></trkpt><trkpt lat="40.8706767" lon="14.0554833"><ele>1.0</ele><time>2026-05-04T14:55:16.402Z</time></trkpt><trkpt lat="40.870655" lon="14.0555667"><ele>0.9999999999999999</ele><time>2026-05-04T14:55:17.402Z</time></trkpt><trkpt lat="40.8706333" lon="14.05565"><ele>1.0</ele><time>2026-05-04T14:55:18.402Z</time></trkpt><trkpt lat="40.8706133" lon="14.055735"><ele>1.0</ele><time>2026-05-04T14:55:19.401Z</time></trkpt><trkpt lat="40.87059" lon="14.05582"><ele>0.9999999999999999</ele><time>2026-05-04T14:55:20.402Z</time></trkpt><trkpt lat="40.8705633" lon="14.0559067"><ele>1.0</ele><time>2026-05-04T14:55:21.402Z</time></trkpt><trkpt lat="40.8705383" lon="14.055995"><ele>1.0</ele><time>2026-05-04T14:55:22.401Z</time></trkpt><trkpt lat="40.8705133" lon="14.05609"><ele>1.1428571428571428</ele><time>2026-05-04T14:55:23.402Z</time></trkpt><trkpt lat="40.8704933" lon="14.0561817"><ele>1.2857142857142856</ele><time>2026-05-04T14:55:24.404Z</time></trkpt><trkpt lat="40.8704817" lon="14.056275"><ele>1.4285714285714284</ele><time>2026-05-04T14:55:25.402Z</time></trkpt><trkpt lat="40.87046" lon="14.0563733"><ele>1.5714285714285714</ele><time>2026-05-04T14:55:26.402Z</time></trkpt><trkpt lat="40.8704367" lon="14.0564683"><ele>1.714285714285714</ele><time>2026-05-04T14:55:27.402Z</time></trkpt><trkpt lat="40.8704117" lon="14.0565617"><ele>1.857142857142857</ele><time>2026-05-04T14:55:28.402Z</time></trkpt><trkpt lat="40.8703883" lon="14.0566567"><ele>2.0</ele><time>2026-05-04T14:55:29.402Z</time></trkpt><trkpt lat="40.8703633" lon="14.05676"><ele>1.9999999999999998</ele><time>2026-05-04T14:55:30.401Z</time></trkpt><trkpt lat="40.870335" lon="14.05686"><ele>2.0</ele><time>2026-05-04T14:55:31.402Z</time></trkpt><trkpt lat="40.870305" lon="14.0569633"><ele>2.0</ele><time>2026-05-04T14:55:32.402Z</time></trkpt><trkpt lat="40.870275" lon="14.05707"><ele>2.0</ele><time>2026-05-04T14:55:33.402Z</time></trkpt><trkpt lat="40.870245" lon="14.057175"><ele>1.9999999999999998</ele><time>2026-05-04T14:55:34.401Z</time></trkpt><trkpt lat="40.8702167" lon="14.0572833"><ele>2.0</ele><time>2026-05-04T14:55:35.402Z</time></trkpt><trkpt lat="40.87019" lon="14.057395"><ele>1.9999999999999998</ele><time>2026-05-04T14:55:36.401Z</time></trkpt><trkpt lat="40.8701633" lon="14.0575083"><ele>2.0</ele><time>2026-05-04T14:55:37.402Z</time></trkpt><trkpt lat="40.8701367" lon="14.0576183"><ele>2.0</ele><time>2026-05-04T14:55:38.403Z</time></trkpt><trkpt lat="40.87011" lon="14.057735"><ele>2.0</ele><time>2026-05-04T14:55:39.403Z</time></trkpt><trkpt lat="40.87008" lon="14.057845"><ele>1.9999999999999998</ele><time>2026-05-04T14:55:40.402Z</time></trkpt><trkpt lat="40.87005" lon="14.0579567"><ele>2.0</ele><time>2026-05-04T14:55:41.402Z</time></trkpt><trkpt lat="40.87002" lon="14.0580683"><ele>1.9999999999999998</ele><time>2026-05-04T14:55:42.401Z</time></trkpt><trkpt lat="40.8699883" lon="14.0581767"><ele>2.0</ele><time>2026-05-04T14:55:43.402Z</time></trkpt><trkpt lat="40.8699617" lon="14.0582833"><ele>2.0</ele><time>2026-05-04T14:55:44.402Z</time></trkpt><trkpt lat="40.869935" lon="14.0583867"><ele>2.0</ele><time>2026-05-04T14:55:45.401Z</time></trkpt><trkpt lat="40.8699067" lon="14.0584867"><ele>1.9999999999999998</ele><time>2026-05-04T14:55:46.403Z</time></trkpt><trkpt lat="40.8698783" lon="14.0585867"><ele>2.0</ele><time>2026-05-04T14:55:47.401Z</time></trkpt><trkpt lat="40.8698517" lon="14.058685"><ele>1.9999999999999998</ele><time>2026-05-04T14:55:48.401Z</time></trkpt><trkpt lat="40.8698283" lon="14.058785"><ele>2.0</ele><time>2026-05-04T14:55:49.401Z</time></trkpt><trkpt lat="40.8698067" lon="14.0588833"><ele>2.0</ele><time>2026-05-04T14:55:50.402Z</time></trkpt><trkpt lat="40.869785" lon="14.0589783"><ele>2.0</ele><time>2026-05-04T14:55:51.401Z</time></trkpt><trkpt lat="40.8697733" lon="14.0590717"><ele>1.9999999999999998</ele><time>2026-05-04T14:55:52.402Z</time></trkpt><trkpt lat="40.8697717" lon="14.0591617"><ele>2.0</ele><time>2026-05-04T14:55:53.402Z</time></trkpt><trkpt lat="40.8698183" lon="14.0592867"><ele>2.1666666666666665</ele><time>2026-05-04T14:55:55.402Z</time></trkpt><trkpt lat="40.869885" lon="14.05934"><ele>2.333333333333333</ele><time>2026-05-04T14:55:57.402Z</time></trkpt><trkpt lat="40.8699383" lon="14.05939"><ele>2.5</ele><time>2026-05-04T14:56:00.406Z</time></trkpt><trkpt lat="40.8699067" lon="14.0594983"><ele>2.6666666666666665</ele><time>2026-05-04T14:56:03.402Z</time></trkpt><trkpt lat="40.869855" lon="14.0596"><ele>2.8333333333333335</ele><time>2026-05-04T14:56:05.401Z</time></trkpt><trkpt lat="40.8698" lon="14.059715"><ele>3.0</ele><time>2026-05-04T14:56:07.401Z</time></trkpt><trkpt lat="40.8697467" lon="14.0598283"><ele>3.0</ele><time>2026-05-04T14:56:09.402Z</time></trkpt><trkpt lat="40.8697433" lon="14.0599417"><ele>3.0</ele><time>2026-05-04T14:56:11.401Z</time></trkpt><trkpt lat="40.8697967" lon="14.06003"><ele>3.0</ele><time>2026-05-04T14:56:13.403Z</time></trkpt><trkpt lat="40.8698733" lon="14.0600933"><ele>3.0</ele><time>2026-05-04T14:56:15.403Z</time></trkpt><trkpt lat="40.869935" lon="14.0601633"><ele>3.0</ele><time>2026-05-04T14:56:17.403Z</time></trkpt><trkpt lat="40.8699333" lon="14.0602733"><ele>3.0</ele><time>2026-05-04T14:56:20.403Z</time></trkpt><trkpt lat="40.869855" lon="14.0603317"><ele>3.1666666666666665</ele><time>2026-05-04T14:57:55.404Z</time></trkpt><trkpt lat="40.8698867" lon="14.0602367"><ele>3.333333333333333</ele><time>2026-05-04T14:57:59.402Z</time></trkpt><trkpt lat="40.8698417" lon="14.0601267"><ele>3.5</ele><time>2026-05-04T14:58:02.403Z</time></trkpt><trkpt lat="40.869785" lon="14.06007"><ele>3.6666666666666665</ele><time>2026-05-04T14:58:04.403Z</time></trkpt><trkpt lat="40.8697167" lon="14.060025"><ele>3.833333333333333</ele><time>2026-05-04T14:58:07.404Z</time></trkpt><trkpt lat="40.8696533" lon="14.0600467"><ele>4.0</ele><time>2026-05-04T14:58:10.402Z</time></trkpt><trkpt lat="40.86958" lon="14.0601383"><ele>4.0</ele><time>2026-05-04T14:58:13.404Z</time></trkpt><trkpt lat="40.869535" lon="14.060245"><ele>4.0</ele><time>2026-05-04T14:58:15.403Z</time></trkpt><trkpt lat="40.8694817" lon="14.0603633"><ele>4.0</ele><time>2026-05-04T14:58:17.403Z</time></trkpt><trkpt lat="40.8694233" lon="14.06049"><ele>4.0</ele><time>2026-05-04T14:58:19.403Z</time></trkpt><trkpt lat="40.869365" lon="14.060615"><ele>4.0</ele><time>2026-05-04T14:58:21.403Z</time></trkpt><trkpt lat="40.8693067" lon="14.0607467"><ele>3.8000000000000003</ele><time>2026-05-04T14:58:23.404Z</time></trkpt><trkpt lat="40.8692517" lon="14.0608733"><ele>3.6000000000000005</ele><time>2026-05-04T14:58:25.402Z</time></trkpt><trkpt lat="40.8691983" lon="14.0609933"><ele>3.4</ele><time>2026-05-04T14:58:27.404Z</time></trkpt><trkpt lat="40.8691567" lon="14.0611183"><ele>3.2</ele><time>2026-05-04T14:58:29.403Z</time></trkpt><trkpt lat="40.8691117" lon="14.061245"><ele>3.0</ele><time>2026-05-04T14:58:31.404Z</time></trkpt><trkpt lat="40.8690583" lon="14.0613667"><ele>3.0</ele><time>2026-05-04T14:58:33.403Z</time></trkpt><trkpt lat="40.869005" lon="14.061495"><ele>3.0</ele><time>2026-05-04T14:58:35.404Z</time></trkpt><trkpt lat="40.86895" lon="14.0616217"><ele>3.0</ele><time>2026-05-04T14:58:37.403Z</time></trkpt><trkpt lat="40.8688933" lon="14.0617217"><ele>3.0</ele><time>2026-05-04T14:58:39.402Z</time></trkpt><trkpt lat="40.8688283" lon="14.0617733"><ele>3.0</ele><time>2026-05-04T14:58:41.402Z</time></trkpt><trkpt lat="40.8687617" lon="14.0618517"><ele>3.1666666666666665</ele><time>2026-05-04T14:58:43.404Z</time></trkpt><trkpt lat="40.868695" lon="14.0619617"><ele>3.333333333333333</ele><time>2026-05-04T14:58:45.404Z</time></trkpt><trkpt lat="40.86864" lon="14.0621067"><ele>3.5</ele><time>2026-05-04T14:58:47.403Z</time></trkpt><trkpt lat="40.8686117" lon="14.0621867"><ele>3.6666666666666665</ele><time>2026-05-04T14:58:48.403Z</time></trkpt><trkpt lat="40.8685783" lon="14.06227"><ele>3.833333333333333</ele><time>2026-05-04T14:58:49.403Z</time></trkpt><trkpt lat="40.8685417" lon="14.0623567"><ele>4.0</ele><time>2026-05-04T14:58:50.405Z</time></trkpt><trkpt lat="40.86851" lon="14.0624433"><ele>4.142857142857142</ele><time>2026-05-04T14:58:51.403Z</time></trkpt><trkpt lat="40.8684767" lon="14.06253"><ele>4.285714285714286</ele><time>2026-05-04T14:58:52.402Z</time></trkpt><trkpt lat="40.8684467" lon="14.062615"><ele>4.428571428571429</ele><time>2026-05-04T14:58:53.404Z</time></trkpt><trkpt lat="40.8684133" lon="14.0626983"><ele>4.571428571428571</ele><time>2026-05-04T14:58:54.403Z</time></trkpt><trkpt lat="40.8683817" lon="14.06278"><ele>4.714285714285714</ele><time>2026-05-04T14:58:55.403Z</time></trkpt><trkpt lat="40.86835" lon="14.0628583"><ele>4.857142857142857</ele><time>2026-05-04T14:58:56.403Z</time></trkpt><trkpt lat="40.8683167" lon="14.0629383"><ele>5.0</ele><time>2026-05-04T14:58:57.403Z</time></trkpt><trkpt lat="40.8682867" lon="14.063015"><ele>4.666666666666667</ele><time>2026-05-04T14:58:58.402Z</time></trkpt><trkpt lat="40.868225" lon="14.0631567"><ele>4.333333333333334</ele><time>2026-05-04T14:59:00.402Z</time></trkpt><trkpt lat="40.86819" lon="14.06323"><ele>4.0</ele><time>2026-05-04T14:59:01.403Z</time></trkpt><trkpt lat="40.868155" lon="14.0633033"><ele>3.666666666666667</ele><time>2026-05-04T14:59:02.403Z</time></trkpt><trkpt lat="40.8681217" lon="14.0633767"><ele>3.3333333333333335</ele><time>2026-05-04T14:59:03.404Z</time></trkpt><trkpt lat="40.8680883" lon="14.0634517"><ele>3.0</ele><time>2026-05-04T14:59:04.405Z</time></trkpt><trkpt lat="40.8680533" lon="14.0635283"><ele>3.0</ele><time>2026-05-04T14:59:05.403Z</time></trkpt><trkpt lat="40.8680233" lon="14.0636067"><ele>3.0</ele><time>2026-05-04T14:59:06.403Z</time></trkpt><trkpt lat="40.8679717" lon="14.06375"><ele>3.0</ele><time>2026-05-04T14:59:08.403Z</time></trkpt><trkpt lat="40.8679167" lon="14.0638783"><ele>3.0</ele><time>2026-05-04T14:59:10.403Z</time></trkpt><trkpt lat="40.8678667" lon="14.0639933"><ele>3.0</ele><time>2026-05-04T14:59:12.404Z</time></trkpt><trkpt lat="40.8678067" lon="14.064115"><ele>3.1666666666666665</ele><time>2026-05-04T14:59:14.404Z</time></trkpt><trkpt lat="40.8677433" lon="14.0642517"><ele>3.333333333333333</ele><time>2026-05-04T14:59:16.404Z</time></trkpt><trkpt lat="40.86771" lon="14.0643233"><ele>3.5</ele><time>2026-05-04T14:59:17.404Z</time></trkpt><trkpt lat="40.867675" lon="14.0643967"><ele>3.6666666666666665</ele><time>2026-05-04T14:59:18.402Z</time></trkpt><trkpt lat="40.8676417" lon="14.0644733"><ele>3.833333333333333</ele><time>2026-05-04T14:59:19.403Z</time></trkpt><trkpt lat="40.8676067" lon="14.0645483"><ele>4.0</ele><time>2026-05-04T14:59:20.404Z</time></trkpt><trkpt lat="40.8675717" lon="14.064625"><ele>4.2</ele><time>2026-05-04T14:59:21.403Z</time></trkpt><trkpt lat="40.867545" lon="14.0647033"><ele>4.4</ele><time>2026-05-04T14:59:22.404Z</time></trkpt><trkpt lat="40.8675167" lon="14.0647783"><ele>4.6</ele><time>2026-05-04T14:59:23.405Z</time></trkpt><trkpt lat="40.8674583" lon="14.064925"><ele>4.8</ele><time>2026-05-04T14:59:25.403Z</time></trkpt><trkpt lat="40.8674033" lon="14.06507"><ele>5.0</ele><time>2026-05-04T14:59:27.402Z</time></trkpt><trkpt lat="40.8673417" lon="14.065215"><ele>5.0</ele><time>2026-05-04T14:59:29.404Z</time></trkpt><trkpt lat="40.8673117" lon="14.0652917"><ele>5.0</ele><time>2026-05-04T14:59:30.403Z</time></trkpt><trkpt lat="40.8672833" lon="14.06537"><ele>5.0</ele><time>2026-05-04T14:59:31.403Z</time></trkpt><trkpt lat="40.867255" lon="14.0654467"><ele>5.0</ele><time>2026-05-04T14:59:32.405Z</time></trkpt><trkpt lat="40.8672233" lon="14.06552"><ele>5.0</ele><time>2026-05-04T14:59:33.403Z</time></trkpt><trkpt lat="40.86717" lon="14.0656617"><ele>5.0</ele><time>2026-05-04T14:59:35.404Z</time></trkpt><trkpt lat="40.8671117" lon="14.0657983"><ele>5.4</ele><time>2026-05-04T14:59:37.403Z</time></trkpt><trkpt lat="40.8670767" lon="14.0658683"><ele>5.8</ele><time>2026-05-04T14:59:38.403Z</time></trkpt><trkpt lat="40.8670083" lon="14.066005"><ele>6.199999999999999</ele><time>2026-05-04T14:59:40.403Z</time></trkpt><trkpt lat="40.86693" lon="14.066125"><ele>6.6</ele><time>2026-05-04T14:59:42.403Z</time></trkpt><trkpt lat="40.8668233" lon="14.06618"><ele>7.0</ele><time>2026-05-04T14:59:44.405Z</time></trkpt><trkpt lat="40.8666967" lon="14.0661467"><ele>7.0</ele><time>2026-05-04T14:59:46.404Z</time></trkpt><trkpt lat="40.8666317" lon="14.066115"><ele>7.0</ele><time>2026-05-04T14:59:47.404Z</time></trkpt><trkpt lat="40.866565" lon="14.0660767"><ele>7.0</ele><time>2026-05-04T14:59:48.404Z</time></trkpt><trkpt lat="40.8665" lon="14.0660417"><ele>7.0</ele><time>2026-05-04T14:59:49.404Z</time></trkpt><trkpt lat="40.8664367" lon="14.066005"><ele>7.0</ele><time>2026-05-04T14:59:50.402Z</time></trkpt><trkpt lat="40.8663717" lon="14.06597"><ele>7.0</ele><time>2026-05-04T14:59:51.402Z</time></trkpt><trkpt lat="40.866305" lon="14.0659367"><ele>7.0</ele><time>2026-05-04T14:59:52.404Z</time></trkpt><trkpt lat="40.8662367" lon="14.0658933"><ele>7.0</ele><time>2026-05-04T14:59:53.404Z</time></trkpt><trkpt lat="40.8661733" lon="14.065855"><ele>7.0</ele><time>2026-05-04T14:59:54.403Z</time></trkpt><trkpt lat="40.86612" lon="14.0658017"><ele>7.0</ele><time>2026-05-04T14:59:55.403Z</time></trkpt><trkpt lat="40.8660633" lon="14.065755"><ele>7.0</ele><time>2026-05-04T14:59:56.404Z</time></trkpt><trkpt lat="40.866005" lon="14.0657033"><ele>7.0</ele><time>2026-05-04T14:59:57.406Z</time></trkpt><trkpt lat="40.8659433" lon="14.06565"><ele>7.0</ele><time>2026-05-04T14:59:58.403Z</time></trkpt><trkpt lat="40.8658833" lon="14.0656"><ele>7.0</ele><time>2026-05-04T14:59:59.402Z</time></trkpt><trkpt lat="40.8658217" lon="14.0655533"><ele>6.857142857142857</ele><time>2026-05-04T15:00:00.403Z</time></trkpt><trkpt lat="40.8657567" lon="14.065505"><ele>6.714285714285714</ele><time>2026-05-04T15:00:01.403Z</time></trkpt><trkpt lat="40.8656983" lon="14.0654533"><ele>6.571428571428571</ele><time>2026-05-04T15:00:02.403Z</time></trkpt><trkpt lat="40.86564" lon="14.0653983"><ele>6.428571428571429</ele><time>2026-05-04T15:00:03.403Z</time></trkpt><trkpt lat="40.8655783" lon="14.0653483"><ele>6.285714285714286</ele><time>2026-05-04T15:00:04.402Z</time></trkpt><trkpt lat="40.8655183" lon="14.0653033"><ele>6.142857142857142</ele><time>2026-05-04T15:00:05.403Z</time></trkpt><trkpt lat="40.8654567" lon="14.06526"><ele>6.0</ele><time>2026-05-04T15:00:06.402Z</time></trkpt><trkpt lat="40.865395" lon="14.065215"><ele>5.999999999999999</ele><time>2026-05-04T15:00:07.403Z</time></trkpt><trkpt lat="40.86533" lon="14.0651683"><ele>6.0</ele><time>2026-05-04T15:00:08.403Z</time></trkpt><trkpt lat="40.8652667" lon="14.0651233"><ele>6.0</ele><time>2026-05-04T15:00:09.403Z</time></trkpt><trkpt lat="40.8651983" lon="14.0650817"><ele>6.0</ele><time>2026-05-04T15:00:10.402Z</time></trkpt><trkpt lat="40.8651317" lon="14.0650367"><ele>6.0</ele><time>2026-05-04T15:00:11.403Z</time></trkpt><trkpt lat="40.8650667" lon="14.0649883"><ele>5.999999999999999</ele><time>2026-05-04T15:00:12.403Z</time></trkpt><trkpt lat="40.8649983" lon="14.06494"><ele>6.0</ele><time>2026-05-04T15:00:13.403Z</time></trkpt><trkpt lat="40.86493" lon="14.0648933"><ele>5.571428571428571</ele><time>2026-05-04T15:00:14.403Z</time></trkpt><trkpt lat="40.8648633" lon="14.0648417"><ele>5.142857142857142</ele><time>2026-05-04T15:00:15.402Z</time></trkpt><trkpt lat="40.8647967" lon="14.0647917"><ele>4.7142857142857135</ele><time>2026-05-04T15:00:16.403Z</time></trkpt><trkpt lat="40.86473" lon="14.064745"><ele>4.285714285714286</ele><time>2026-05-04T15:00:17.403Z</time></trkpt><trkpt lat="40.864665" lon="14.0646983"><ele>3.8571428571428568</ele><time>2026-05-04T15:00:18.403Z</time></trkpt><trkpt lat="40.8646" lon="14.0646533"><ele>3.4285714285714284</ele><time>2026-05-04T15:00:19.403Z</time></trkpt><trkpt lat="40.8645367" lon="14.06461"><ele>3.0</ele><time>2026-05-04T15:00:20.402Z</time></trkpt><trkpt lat="40.86447" lon="14.0645633"><ele>3.0</ele><time>2026-05-04T15:00:21.403Z</time></trkpt><trkpt lat="40.8644" lon="14.06451"><ele>3.0</ele><time>2026-05-04T15:00:22.403Z</time></trkpt><trkpt lat="40.8643317" lon="14.0644617"><ele>3.0</ele><time>2026-05-04T15:00:23.405Z</time></trkpt><trkpt lat="40.8642633" lon="14.06441"><ele>3.0</ele><time>2026-05-04T15:00:24.403Z</time></trkpt><trkpt lat="40.8642" lon="14.06436"><ele>3.0</ele><time>2026-05-04T15:00:25.403Z</time></trkpt><trkpt lat="40.8641333" lon="14.0643083"><ele>3.0</ele><time>2026-05-04T15:00:26.403Z</time></trkpt><trkpt lat="40.8640617" lon="14.064255"><ele>3.3333333333333335</ele><time>2026-05-04T15:00:27.402Z</time></trkpt><trkpt lat="40.8639933" lon="14.0642017"><ele>3.666666666666667</ele><time>2026-05-04T15:00:28.403Z</time></trkpt><trkpt lat="40.8639267" lon="14.0641517"><ele>4.0</ele><time>2026-05-04T15:00:29.403Z</time></trkpt><trkpt lat="40.8638567" lon="14.0640967"><ele>4.333333333333334</ele><time>2026-05-04T15:00:30.403Z</time></trkpt><trkpt lat="40.8637867" lon="14.06404"><ele>4.666666666666667</ele><time>2026-05-04T15:00:31.404Z</time></trkpt><trkpt lat="40.86372" lon="14.0639833"><ele>5.0</ele><time>2026-05-04T15:00:32.404Z</time></trkpt><trkpt lat="40.8636533" lon="14.0639233"><ele>5.0</ele><time>2026-05-04T15:00:33.404Z</time></trkpt><trkpt lat="40.863585" lon="14.063865"><ele>5.0</ele><time>2026-05-04T15:00:34.403Z</time></trkpt><trkpt lat="40.86352" lon="14.063805"><ele>5.0</ele><time>2026-05-04T15:00:35.402Z</time></trkpt><trkpt lat="40.863455" lon="14.063745"><ele>5.0</ele><time>2026-05-04T15:00:36.403Z</time></trkpt><trkpt lat="40.8633917" lon="14.063685"><ele>5.0</ele><time>2026-05-04T15:00:37.402Z</time></trkpt><trkpt lat="40.86333" lon="14.063625"><ele>5.0</ele><time>2026-05-04T15:00:38.402Z</time></trkpt><trkpt lat="40.8632633" lon="14.0635683"><ele>5.0</ele><time>2026-05-04T15:00:39.402Z</time></trkpt><trkpt lat="40.8631967" lon="14.0635117"><ele>5.0</ele><time>2026-05-04T15:00:40.403Z</time></trkpt><trkpt lat="40.8631283" lon="14.0634567"><ele>5.0</ele><time>2026-05-04T15:00:41.402Z</time></trkpt><trkpt lat="40.8630633" lon="14.0634017"><ele>5.0</ele><time>2026-05-04T15:00:42.402Z</time></trkpt><trkpt lat="40.8630017" lon="14.0633467"><ele>5.0</ele><time>2026-05-04T15:00:43.403Z</time></trkpt><trkpt lat="40.8629417" lon="14.0632883"><ele>5.0</ele><time>2026-05-04T15:00:44.402Z</time></trkpt><trkpt lat="40.8628817" lon="14.0632267"><ele>4.833333333333334</ele><time>2026-05-04T15:00:45.402Z</time></trkpt><trkpt lat="40.8628183" lon="14.0631683"><ele>4.666666666666667</ele><time>2026-05-04T15:00:46.401Z</time></trkpt><trkpt lat="40.8627567" lon="14.063115"><ele>4.5</ele><time>2026-05-04T15:00:47.402Z</time></trkpt><trkpt lat="40.862695" lon="14.0630533"><ele>4.333333333333333</ele><time>2026-05-04T15:00:48.403Z</time></trkpt><trkpt lat="40.862635" lon="14.062995"><ele>4.166666666666666</ele><time>2026-05-04T15:00:49.402Z</time></trkpt><trkpt lat="40.8625717" lon="14.0629383"><ele>4.0</ele><time>2026-05-04T15:00:50.401Z</time></trkpt><trkpt lat="40.8625117" lon="14.06288"><ele>3.9999999999999996</ele><time>2026-05-04T15:00:51.402Z</time></trkpt><trkpt lat="40.8624483" lon="14.0628167"><ele>4.0</ele><time>2026-05-04T15:00:52.404Z</time></trkpt><trkpt lat="40.8623867" lon="14.0627517"><ele>4.0</ele><time>2026-05-04T15:00:53.401Z</time></trkpt><trkpt lat="40.8623267" lon="14.06269"><ele>4.0</ele><time>2026-05-04T15:00:54.401Z</time></trkpt><trkpt lat="40.8622667" lon="14.0626233"><ele>3.9999999999999996</ele><time>2026-05-04T15:00:55.403Z</time></trkpt><trkpt lat="40.862205" lon="14.0625583"><ele>4.0</ele><time>2026-05-04T15:00:56.402Z</time></trkpt><trkpt lat="40.862145" lon="14.0624967"><ele>3.833333333333333</ele><time>2026-05-04T15:00:57.401Z</time></trkpt><trkpt lat="40.8620833" lon="14.0624383"><ele>3.6666666666666665</ele><time>2026-05-04T15:00:58.402Z</time></trkpt><trkpt lat="40.8620183" lon="14.06238"><ele>3.5</ele><time>2026-05-04T15:00:59.402Z</time></trkpt><trkpt lat="40.8619533" lon="14.0623217"><ele>3.333333333333333</ele><time>2026-05-04T15:01:00.402Z</time></trkpt><trkpt lat="40.8618883" lon="14.062265"><ele>3.1666666666666665</ele><time>2026-05-04T15:01:01.402Z</time></trkpt><trkpt lat="40.861825" lon="14.0622083"><ele>3.0</ele><time>2026-05-04T15:01:02.403Z</time></trkpt><trkpt lat="40.8617617" lon="14.0621517"><ele>3.0</ele><time>2026-05-04T15:01:03.402Z</time></trkpt><trkpt lat="40.861695" lon="14.0620983"><ele>3.0</ele><time>2026-05-04T15:01:04.401Z</time></trkpt><trkpt lat="40.8616267" lon="14.06205"><ele>3.0</ele><time>2026-05-04T15:01:05.401Z</time></trkpt><trkpt lat="40.8615583" lon="14.062005"><ele>3.0</ele><time>2026-05-04T15:01:06.402Z</time></trkpt><trkpt lat="40.8614883" lon="14.0619667"><ele>3.0</ele><time>2026-05-04T15:01:07.402Z</time></trkpt><trkpt lat="40.8614183" lon="14.0619283"><ele>3.0</ele><time>2026-05-04T15:01:08.401Z</time></trkpt><trkpt lat="40.8613467" lon="14.0618883"><ele>3.0</ele><time>2026-05-04T15:01:09.406Z</time></trkpt><trkpt lat="40.8612767" lon="14.0618483"><ele>3.0</ele><time>2026-05-04T15:01:10.402Z</time></trkpt><trkpt lat="40.8612083" lon="14.0618067"><ele>3.0</ele><time>2026-05-04T15:01:11.401Z</time></trkpt><trkpt lat="40.86114" lon="14.0617683"><ele>3.0</ele><time>2026-05-04T15:01:12.402Z</time></trkpt><trkpt lat="40.86107" lon="14.0617333"><ele>3.0</ele><time>2026-05-04T15:01:13.402Z</time></trkpt><trkpt lat="40.861" lon="14.0616933"><ele>3.0</ele><time>2026-05-04T15:01:14.401Z</time></trkpt><trkpt lat="40.8609283" lon="14.061655"><ele>2.8333333333333335</ele><time>2026-05-04T15:01:15.402Z</time></trkpt><trkpt lat="40.8608583" lon="14.0616133"><ele>2.6666666666666665</ele><time>2026-05-04T15:01:16.402Z</time></trkpt><trkpt lat="40.8607883" lon="14.0615733"><ele>2.5</ele><time>2026-05-04T15:01:17.402Z</time></trkpt><trkpt lat="40.8607167" lon="14.0615367"><ele>2.333333333333333</ele><time>2026-05-04T15:01:18.402Z</time></trkpt><trkpt lat="40.8606417" lon="14.0614983"><ele>2.1666666666666665</ele><time>2026-05-04T15:01:19.402Z</time></trkpt><trkpt lat="40.8605667" lon="14.0614567"><ele>2.0</ele><time>2026-05-04T15:01:20.403Z</time></trkpt><trkpt lat="40.8604917" lon="14.0614183"><ele>1.9999999999999998</ele><time>2026-05-04T15:01:21.402Z</time></trkpt><trkpt lat="40.8604183" lon="14.0613783"><ele>2.0</ele><time>2026-05-04T15:01:22.402Z</time></trkpt><trkpt lat="40.860345" lon="14.0613417"><ele>2.0</ele><time>2026-05-04T15:01:23.402Z</time></trkpt><trkpt lat="40.8602717" lon="14.0613"><ele>2.0</ele><time>2026-05-04T15:01:24.402Z</time></trkpt><trkpt lat="40.8601983" lon="14.0612567"><ele>1.9999999999999998</ele><time>2026-05-04T15:01:25.402Z</time></trkpt><trkpt lat="40.860125" lon="14.061215"><ele>2.0</ele><time>2026-05-04T15:01:26.402Z</time></trkpt><trkpt lat="40.8600517" lon="14.0611767"><ele>2.1666666666666665</ele><time>2026-05-04T15:01:27.402Z</time></trkpt><trkpt lat="40.8599783" lon="14.0611383"><ele>2.333333333333333</ele><time>2026-05-04T15:01:28.402Z</time></trkpt><trkpt lat="40.859905" lon="14.061095"><ele>2.5</ele><time>2026-05-04T15:01:29.402Z</time></trkpt><trkpt lat="40.8598333" lon="14.061045"><ele>2.6666666666666665</ele><time>2026-05-04T15:01:30.402Z</time></trkpt><trkpt lat="40.85976" lon="14.0610017"><ele>2.8333333333333335</ele><time>2026-05-04T15:01:31.402Z</time></trkpt><trkpt lat="40.859685" lon="14.0609633"><ele>3.0</ele><time>2026-05-04T15:01:32.402Z</time></trkpt><trkpt lat="40.8596117" lon="14.0609267"><ele>3.0</ele><time>2026-05-04T15:01:33.401Z</time></trkpt><trkpt lat="40.8595367" lon="14.060885"><ele>3.0</ele><time>2026-05-04T15:01:34.401Z</time></trkpt><trkpt lat="40.8594633" lon="14.0608433"><ele>3.0</ele><time>2026-05-04T15:01:35.403Z</time></trkpt><trkpt lat="40.8593883" lon="14.060805"><ele>3.0</ele><time>2026-05-04T15:01:36.402Z</time></trkpt><trkpt lat="40.859315" lon="14.060765"><ele>3.0</ele><time>2026-05-04T15:01:37.402Z</time></trkpt><trkpt lat="40.8592383" lon="14.0607267"><ele>3.0</ele><time>2026-05-04T15:01:38.401Z</time></trkpt><trkpt lat="40.8591617" lon="14.0606883"><ele>3.1666666666666665</ele><time>2026-05-04T15:01:39.402Z</time></trkpt><trkpt lat="40.859085" lon="14.0606467"><ele>3.333333333333333</ele><time>2026-05-04T15:01:40.402Z</time></trkpt><trkpt lat="40.8590083" lon="14.0606067"><ele>3.5</ele><time>2026-05-04T15:01:41.403Z</time></trkpt><trkpt lat="40.85893" lon="14.0605683"><ele>3.6666666666666665</ele><time>2026-05-04T15:01:42.401Z</time></trkpt><trkpt lat="40.8588517" lon="14.0605383"><ele>3.833333333333333</ele><time>2026-05-04T15:01:43.401Z</time></trkpt><trkpt lat="40.858775" lon="14.0605133"><ele>4.0</ele><time>2026-05-04T15:01:44.402Z</time></trkpt><trkpt lat="40.8586983" lon="14.0604917"><ele>3.9999999999999996</ele><time>2026-05-04T15:01:45.402Z</time></trkpt><trkpt lat="40.8586183" lon="14.0604717"><ele>4.0</ele><time>2026-05-04T15:01:46.402Z</time></trkpt><trkpt lat="40.858535" lon="14.0604633"><ele>4.0</ele><time>2026-05-04T15:01:47.401Z</time></trkpt><trkpt lat="40.8584533" lon="14.0604617"><ele>4.0</ele><time>2026-05-04T15:01:48.401Z</time></trkpt><trkpt lat="40.8583717" lon="14.0604617"><ele>3.9999999999999996</ele><time>2026-05-04T15:01:49.402Z</time></trkpt><trkpt lat="40.8582917" lon="14.0604617"><ele>4.0</ele><time>2026-05-04T15:01:50.402Z</time></trkpt><trkpt lat="40.8582133" lon="14.0604667"><ele>3.9999999999999996</ele><time>2026-05-04T15:01:51.402Z</time></trkpt><trkpt lat="40.8581367" lon="14.0604783"><ele>4.0</ele><time>2026-05-04T15:01:52.402Z</time></trkpt><trkpt lat="40.85806" lon="14.06049"><ele>4.0</ele><time>2026-05-04T15:01:53.402Z</time></trkpt><trkpt lat="40.8579817" lon="14.06051"><ele>4.0</ele><time>2026-05-04T15:01:54.402Z</time></trkpt><trkpt lat="40.8579017" lon="14.0605367"><ele>3.9999999999999996</ele><time>2026-05-04T15:01:55.402Z</time></trkpt><trkpt lat="40.85783" lon="14.0605433"><ele>4.0</ele><time>2026-05-04T15:01:56.402Z</time></trkpt><trkpt lat="40.8577567" lon="14.0605683"><ele>3.9999999999999996</ele><time>2026-05-04T15:01:57.401Z</time></trkpt><trkpt lat="40.8576817" lon="14.06059"><ele>4.0</ele><time>2026-05-04T15:01:58.402Z</time></trkpt><trkpt lat="40.8576033" lon="14.0606167"><ele>4.0</ele><time>2026-05-04T15:01:59.401Z</time></trkpt><trkpt lat="40.8575233" lon="14.0606433"><ele>4.0</ele><time>2026-05-04T15:02:00.402Z</time></trkpt><trkpt lat="40.8574467" lon="14.06067"><ele>3.9999999999999996</ele><time>2026-05-04T15:02:01.401Z</time></trkpt><trkpt lat="40.8573717" lon="14.0606933"><ele>4.0</ele><time>2026-05-04T15:02:02.402Z</time></trkpt><trkpt lat="40.8572967" lon="14.060715"><ele>3.9999999999999996</ele><time>2026-05-04T15:02:03.402Z</time></trkpt><trkpt lat="40.85722" lon="14.0607383"><ele>4.0</ele><time>2026-05-04T15:02:04.401Z</time></trkpt><trkpt lat="40.8571433" lon="14.0607583"><ele>4.0</ele><time>2026-05-04T15:02:05.402Z</time></trkpt><trkpt lat="40.857065" lon="14.06078"><ele>4.0</ele><time>2026-05-04T15:02:06.403Z</time></trkpt><trkpt lat="40.8569867" lon="14.060805"><ele>3.9999999999999996</ele><time>2026-05-04T15:02:07.402Z</time></trkpt><trkpt lat="40.8569083" lon="14.0608333"><ele>4.0</ele><time>2026-05-04T15:02:08.402Z</time></trkpt><trkpt lat="40.85683" lon="14.060855"><ele>3.833333333333333</ele><time>2026-05-04T15:02:09.402Z</time></trkpt><trkpt lat="40.8567533" lon="14.0608783"><ele>3.6666666666666665</ele><time>2026-05-04T15:02:10.402Z</time></trkpt><trkpt lat="40.8566783" lon="14.0609017"><ele>3.5</ele><time>2026-05-04T15:02:11.401Z</time></trkpt><trkpt lat="40.856605" lon="14.0609217"><ele>3.333333333333333</ele><time>2026-05-04T15:02:12.401Z</time></trkpt><trkpt lat="40.8565317" lon="14.0609433"><ele>3.1666666666666665</ele><time>2026-05-04T15:02:13.404Z</time></trkpt><trkpt lat="40.8564583" lon="14.060965"><ele>3.0</ele><time>2026-05-04T15:02:14.402Z</time></trkpt><trkpt lat="40.85638" lon="14.0609817"><ele>3.0</ele><time>2026-05-04T15:02:15.402Z</time></trkpt><trkpt lat="40.856305" lon="14.0609983"><ele>3.0</ele><time>2026-05-04T15:02:16.401Z</time></trkpt><trkpt lat="40.85623" lon="14.0610233"><ele>3.0</ele><time>2026-05-04T15:02:17.402Z</time></trkpt><trkpt lat="40.8561533" lon="14.061045"><ele>3.0</ele><time>2026-05-04T15:02:18.402Z</time></trkpt><trkpt lat="40.8560767" lon="14.0610683"><ele>3.0</ele><time>2026-05-04T15:02:19.401Z</time></trkpt><trkpt lat="40.8560033" lon="14.0610883"><ele>3.0</ele><time>2026-05-04T15:02:20.401Z</time></trkpt><trkpt lat="40.8559283" lon="14.0611067"><ele>2.8333333333333335</ele><time>2026-05-04T15:02:21.402Z</time></trkpt><trkpt lat="40.8558533" lon="14.06113"><ele>2.6666666666666665</ele><time>2026-05-04T15:02:22.402Z</time></trkpt><trkpt lat="40.8557783" lon="14.0611517"><ele>2.5</ele><time>2026-05-04T15:02:23.402Z</time></trkpt><trkpt lat="40.8557033" lon="14.0611783"><ele>2.333333333333333</ele><time>2026-05-04T15:02:24.402Z</time></trkpt><trkpt lat="40.85563" lon="14.0611967"><ele>2.1666666666666665</ele><time>2026-05-04T15:02:25.402Z</time></trkpt><trkpt lat="40.85556" lon="14.0612217"><ele>2.0</ele><time>2026-05-04T15:02:26.402Z</time></trkpt><trkpt lat="40.85549" lon="14.0612467"><ele>2.0</ele><time>2026-05-04T15:02:27.401Z</time></trkpt><trkpt lat="40.8554217" lon="14.0612683"><ele>1.9999999999999998</ele><time>2026-05-04T15:02:28.402Z</time></trkpt><trkpt lat="40.85535" lon="14.0612867"><ele>2.0</ele><time>2026-05-04T15:02:29.401Z</time></trkpt><trkpt lat="40.855275" lon="14.0613067"><ele>2.0</ele><time>2026-05-04T15:02:30.402Z</time></trkpt><trkpt lat="40.8552" lon="14.0613233"><ele>1.9999999999999998</ele><time>2026-05-04T15:02:31.403Z</time></trkpt><trkpt lat="40.855125" lon="14.0613383"><ele>2.0</ele><time>2026-05-04T15:02:32.402Z</time></trkpt><trkpt lat="40.8550483" lon="14.0613483"><ele>2.0</ele><time>2026-05-04T15:02:33.402Z</time></trkpt><trkpt lat="40.85497" lon="14.0613517"><ele>2.1666666666666665</ele><time>2026-05-04T15:02:34.402Z</time></trkpt><trkpt lat="40.8548933" lon="14.0613617"><ele>2.333333333333333</ele><time>2026-05-04T15:02:35.401Z</time></trkpt><trkpt lat="40.854815" lon="14.0613767"><ele>2.5</ele><time>2026-05-04T15:02:36.402Z</time></trkpt><trkpt lat="40.8547367" lon="14.0613917"><ele>2.6666666666666665</ele><time>2026-05-04T15:02:37.403Z</time></trkpt><trkpt lat="40.8546583" lon="14.0614017"><ele>2.8333333333333335</ele><time>2026-05-04T15:02:38.402Z</time></trkpt><trkpt lat="40.8545833" lon="14.0614133"><ele>3.0</ele><time>2026-05-04T15:02:39.402Z</time></trkpt><trkpt lat="40.8545083" lon="14.0614233"><ele>2.9999999999999996</ele><time>2026-05-04T15:02:40.401Z</time></trkpt><trkpt lat="40.854435" lon="14.0614283"><ele>3.0</ele><time>2026-05-04T15:02:41.403Z</time></trkpt><trkpt lat="40.8543667" lon="14.0614217"><ele>3.0</ele><time>2026-05-04T15:02:42.403Z</time></trkpt><trkpt lat="40.854295" lon="14.0614267"><ele>3.0</ele><time>2026-05-04T15:02:43.403Z</time></trkpt><trkpt lat="40.8542217" lon="14.061435"><ele>3.0</ele><time>2026-05-04T15:02:44.403Z</time></trkpt><trkpt lat="40.8541483" lon="14.0614433"><ele>2.9999999999999996</ele><time>2026-05-04T15:02:45.401Z</time></trkpt><trkpt lat="40.854075" lon="14.0614517"><ele>3.0</ele><time>2026-05-04T15:02:46.402Z</time></trkpt><trkpt lat="40.854" lon="14.0614617"><ele>2.9999999999999996</ele><time>2026-05-04T15:02:47.402Z</time></trkpt><trkpt lat="40.8539283" lon="14.0614633"><ele>3.0</ele><time>2026-05-04T15:02:48.402Z</time></trkpt><trkpt lat="40.853855" lon="14.0614733"><ele>3.0</ele><time>2026-05-04T15:02:49.402Z</time></trkpt><trkpt lat="40.853785" lon="14.0614733"><ele>3.0</ele><time>2026-05-04T15:02:50.403Z</time></trkpt><trkpt lat="40.8537133" lon="14.0614833"><ele>3.0</ele><time>2026-05-04T15:02:51.402Z</time></trkpt><trkpt lat="40.85364" lon="14.0614933"><ele>2.9999999999999996</ele><time>2026-05-04T15:02:52.402Z</time></trkpt><trkpt lat="40.8535667" lon="14.0615017"><ele>3.0</ele><time>2026-05-04T15:02:53.401Z</time></trkpt><trkpt lat="40.8534917" lon="14.0615067"><ele>3.2857142857142856</ele><time>2026-05-04T15:02:54.402Z</time></trkpt><trkpt lat="40.8534183" lon="14.0615083"><ele>3.571428571428571</ele><time>2026-05-04T15:02:55.403Z</time></trkpt><trkpt lat="40.85335" lon="14.0614933"><ele>3.8571428571428568</ele><time>2026-05-04T15:02:56.401Z</time></trkpt><trkpt lat="40.8532767" lon="14.06149"><ele>4.142857142857142</ele><time>2026-05-04T15:02:57.402Z</time></trkpt><trkpt lat="40.8532" lon="14.0614933"><ele>4.428571428571429</ele><time>2026-05-04T15:02:58.402Z</time></trkpt><trkpt lat="40.8531267" lon="14.0614917"><ele>4.714285714285714</ele><time>2026-05-04T15:02:59.403Z</time></trkpt><trkpt lat="40.8530517" lon="14.0614817"><ele>5.0</ele><time>2026-05-04T15:03:00.402Z</time></trkpt><trkpt lat="40.8529817" lon="14.061465"><ele>5.0</ele><time>2026-05-04T15:03:01.402Z</time></trkpt><trkpt lat="40.8529067" lon="14.0614633"><ele>5.0</ele><time>2026-05-04T15:03:02.402Z</time></trkpt><trkpt lat="40.8528333" lon="14.061465"><ele>5.0</ele><time>2026-05-04T15:03:03.402Z</time></trkpt><trkpt lat="40.85276" lon="14.0614667"><ele>5.0</ele><time>2026-05-04T15:03:04.402Z</time></trkpt><trkpt lat="40.8526867" lon="14.0614667"><ele>5.0</ele><time>2026-05-04T15:03:05.402Z</time></trkpt><trkpt lat="40.852615" lon="14.061465"><ele>5.0</ele><time>2026-05-04T15:03:06.402Z</time></trkpt><trkpt lat="40.852545" lon="14.0614633"><ele>5.0</ele><time>2026-05-04T15:03:07.403Z</time></trkpt><trkpt lat="40.8524717" lon="14.061465"><ele>5.166666666666667</ele><time>2026-05-04T15:03:08.401Z</time></trkpt><trkpt lat="40.8523983" lon="14.0614617"><ele>5.333333333333334</ele><time>2026-05-04T15:03:09.402Z</time></trkpt><trkpt lat="40.852325" lon="14.0614583"><ele>5.5</ele><time>2026-05-04T15:03:10.402Z</time></trkpt><trkpt lat="40.8522483" lon="14.0614467"><ele>5.666666666666667</ele><time>2026-05-04T15:03:11.401Z</time></trkpt><trkpt lat="40.8521733" lon="14.0614267"><ele>5.833333333333333</ele><time>2026-05-04T15:03:12.402Z</time></trkpt><trkpt lat="40.8520967" lon="14.0614017"><ele>6.0</ele><time>2026-05-04T15:03:13.402Z</time></trkpt><trkpt lat="40.8520217" lon="14.06137"><ele>6.0</ele><time>2026-05-04T15:03:14.402Z</time></trkpt><trkpt lat="40.8519483" lon="14.0613383"><ele>6.0</ele><time>2026-05-04T15:03:15.403Z</time></trkpt><trkpt lat="40.851875" lon="14.0613067"><ele>6.0</ele><time>2026-05-04T15:03:16.403Z</time></trkpt><trkpt lat="40.8518" lon="14.0612817"><ele>6.0</ele><time>2026-05-04T15:03:17.402Z</time></trkpt><trkpt lat="40.851725" lon="14.0612583"><ele>6.0</ele><time>2026-05-04T15:03:18.401Z</time></trkpt><trkpt lat="40.8516533" lon="14.061235"><ele>6.0</ele><time>2026-05-04T15:03:19.404Z</time></trkpt><trkpt lat="40.8515817" lon="14.0612117"><ele>6.142857142857142</ele><time>2026-05-04T15:03:20.402Z</time></trkpt><trkpt lat="40.8515117" lon="14.0611883"><ele>6.285714285714286</ele><time>2026-05-04T15:03:21.402Z</time></trkpt><trkpt lat="40.8514417" lon="14.0611667"><ele>6.428571428571429</ele><time>2026-05-04T15:03:22.406Z</time></trkpt><trkpt lat="40.85137" lon="14.0611433"><ele>6.571428571428571</ele><time>2026-05-04T15:03:23.402Z</time></trkpt><trkpt lat="40.8512983" lon="14.06112"><ele>6.714285714285714</ele><time>2026-05-04T15:03:24.401Z</time></trkpt><trkpt lat="40.8512267" lon="14.0610983"><ele>6.857142857142857</ele><time>2026-05-04T15:03:25.404Z</time></trkpt><trkpt lat="40.851155" lon="14.0610783"><ele>7.0</ele><time>2026-05-04T15:03:26.402Z</time></trkpt><trkpt lat="40.8510833" lon="14.0610533"><ele>7.0</ele><time>2026-05-04T15:03:27.402Z</time></trkpt><trkpt lat="40.8510133" lon="14.061025"><ele>7.0</ele><time>2026-05-04T15:03:28.402Z</time></trkpt><trkpt lat="40.8509433" lon="14.0609933"><ele>7.0</ele><time>2026-05-04T15:03:29.402Z</time></trkpt><trkpt lat="40.850875" lon="14.060965"><ele>7.0</ele><time>2026-05-04T15:03:30.401Z</time></trkpt><trkpt lat="40.8508067" lon="14.0609433"><ele>7.0</ele><time>2026-05-04T15:03:31.403Z</time></trkpt><trkpt lat="40.8507417" lon="14.0609217"><ele>7.0</ele><time>2026-05-04T15:03:32.402Z</time></trkpt><trkpt lat="40.850675" lon="14.0609017"><ele>7.0</ele><time>2026-05-04T15:03:33.403Z</time></trkpt><trkpt lat="40.8506083" lon="14.06088"><ele>6.857142857142857</ele><time>2026-05-04T15:03:34.402Z</time></trkpt><trkpt lat="40.8505417" lon="14.06086"><ele>6.714285714285714</ele><time>2026-05-04T15:03:35.401Z</time></trkpt><trkpt lat="40.8504783" lon="14.0608367"><ele>6.571428571428571</ele><time>2026-05-04T15:03:36.403Z</time></trkpt><trkpt lat="40.8504083" lon="14.060815"><ele>6.428571428571429</ele><time>2026-05-04T15:03:37.402Z</time></trkpt><trkpt lat="40.85034" lon="14.0607933"><ele>6.285714285714286</ele><time>2026-05-04T15:03:38.401Z</time></trkpt><trkpt lat="40.850275" lon="14.0607667"><ele>6.142857142857142</ele><time>2026-05-04T15:03:39.401Z</time></trkpt><trkpt lat="40.8502083" lon="14.0607383"><ele>6.0</ele><time>2026-05-04T15:03:40.402Z</time></trkpt><trkpt lat="40.8501433" lon="14.06071"><ele>6.428571428571428</ele><time>2026-05-04T15:03:41.401Z</time></trkpt><trkpt lat="40.850075" lon="14.0606817"><ele>6.857142857142858</ele><time>2026-05-04T15:03:42.402Z</time></trkpt><trkpt lat="40.8500067" lon="14.0606517"><ele>7.2857142857142865</ele><time>2026-05-04T15:03:43.403Z</time></trkpt><trkpt lat="40.849935" lon="14.0606233"><ele>7.714285714285714</ele><time>2026-05-04T15:03:44.401Z</time></trkpt><trkpt lat="40.8498633" lon="14.0605967"><ele>8.142857142857142</ele><time>2026-05-04T15:03:45.402Z</time></trkpt><trkpt lat="40.849795" lon="14.060565"><ele>8.571428571428573</ele><time>2026-05-04T15:03:46.403Z</time></trkpt><trkpt lat="40.8497283" lon="14.06053"><ele>9.0</ele><time>2026-05-04T15:03:47.402Z</time></trkpt><trkpt lat="40.849665" lon="14.060495"><ele>9.000000000000002</ele><time>2026-05-04T15:03:48.403Z</time></trkpt><trkpt lat="40.8496" lon="14.0604583"><ele>9.0</ele><time>2026-05-04T15:03:49.403Z</time></trkpt><trkpt lat="40.8495333" lon="14.0604233"><ele>9.0</ele><time>2026-05-04T15:03:50.402Z</time></trkpt><trkpt lat="40.8494667" lon="14.060395"><ele>9.0</ele><time>2026-05-04T15:03:51.402Z</time></trkpt><trkpt lat="40.8493983" lon="14.0603733"><ele>9.0</ele><time>2026-05-04T15:03:52.403Z</time></trkpt><trkpt lat="40.84933" lon="14.06035"><ele>9.000000000000002</ele><time>2026-05-04T15:03:53.402Z</time></trkpt><trkpt lat="40.8492617" lon="14.06033"><ele>9.0</ele><time>2026-05-04T15:03:54.403Z</time></trkpt><trkpt lat="40.8491933" lon="14.0603083"><ele>9.285714285714286</ele><time>2026-05-04T15:03:55.402Z</time></trkpt><trkpt lat="40.8491283" lon="14.0602967"><ele>9.571428571428571</ele><time>2026-05-04T15:03:56.401Z</time></trkpt><trkpt lat="40.84906" lon="14.0602817"><ele>9.857142857142858</ele><time>2026-05-04T15:03:57.403Z</time></trkpt><trkpt lat="40.8489933" lon="14.060265"><ele>10.142857142857142</ele><time>2026-05-04T15:03:58.401Z</time></trkpt><trkpt lat="40.848925" lon="14.0602467"><ele>10.428571428571429</ele><time>2026-05-04T15:03:59.402Z</time></trkpt><trkpt lat="40.8488583" lon="14.0602267"><ele>10.714285714285715</ele><time>2026-05-04T15:04:00.401Z</time></trkpt><trkpt lat="40.8487867" lon="14.060215"><ele>11.0</ele><time>2026-05-04T15:04:01.403Z</time></trkpt><trkpt lat="40.8487183" lon="14.060205"><ele>11.0</ele><time>2026-05-04T15:04:02.402Z</time></trkpt><trkpt lat="40.84865" lon="14.0601917"><ele>11.0</ele><time>2026-05-04T15:04:03.401Z</time></trkpt><trkpt lat="40.8485817" lon="14.060175"><ele>11.0</ele><time>2026-05-04T15:04:04.402Z</time></trkpt><trkpt lat="40.848515" lon="14.06016"><ele>11.0</ele><time>2026-05-04T15:04:05.402Z</time></trkpt><trkpt lat="40.8484483" lon="14.060145"><ele>11.0</ele><time>2026-05-04T15:04:06.401Z</time></trkpt><trkpt lat="40.84838" lon="14.0601283"><ele>11.0</ele><time>2026-05-04T15:04:07.403Z</time></trkpt><trkpt lat="40.84831" lon="14.0601067"><ele>11.0</ele><time>2026-05-04T15:04:08.401Z</time></trkpt><trkpt lat="40.8482417" lon="14.0600767"><ele>10.857142857142858</ele><time>2026-05-04T15:04:09.402Z</time></trkpt><trkpt lat="40.8481767" lon="14.0600333"><ele>10.714285714285714</ele><time>2026-05-04T15:04:10.402Z</time></trkpt><trkpt lat="40.8481183" lon="14.0599767"><ele>10.571428571428571</ele><time>2026-05-04T15:04:11.403Z</time></trkpt><trkpt lat="40.8480633" lon="14.05991"><ele>10.428571428571429</ele><time>2026-05-04T15:04:12.403Z</time></trkpt><trkpt lat="40.8480133" lon="14.0598383"><ele>10.285714285714286</ele><time>2026-05-04T15:04:13.403Z</time></trkpt><trkpt lat="40.8479633" lon="14.059765"><ele>10.142857142857142</ele><time>2026-05-04T15:04:14.402Z</time></trkpt><trkpt lat="40.847915" lon="14.0596933"><ele>10.0</ele><time>2026-05-04T15:04:15.401Z</time></trkpt><trkpt lat="40.847865" lon="14.0596217"><ele>10.0</ele><time>2026-05-04T15:04:16.402Z</time></trkpt><trkpt lat="40.8478133" lon="14.0595583"><ele>10.0</ele><time>2026-05-04T15:04:17.402Z</time></trkpt><trkpt lat="40.84776" lon="14.059505"><ele>10.0</ele><time>2026-05-04T15:04:18.402Z</time></trkpt><trkpt lat="40.8477033" lon="14.0594567"><ele>10.0</ele><time>2026-05-04T15:04:19.401Z</time></trkpt><trkpt lat="40.8476433" lon="14.059415"><ele>10.0</ele><time>2026-05-04T15:04:20.403Z</time></trkpt><trkpt lat="40.8475833" lon="14.059375"><ele>10.0</ele><time>2026-05-04T15:04:21.402Z</time></trkpt><trkpt lat="40.847525" lon="14.0593317"><ele>10.0</ele><time>2026-05-04T15:04:22.402Z</time></trkpt><trkpt lat="40.8474617" lon="14.0592883"><ele>10.428571428571429</ele><time>2026-05-04T15:04:23.402Z</time></trkpt><trkpt lat="40.8474" lon="14.0592433"><ele>10.857142857142858</ele><time>2026-05-04T15:04:24.402Z</time></trkpt><trkpt lat="40.84734" lon="14.0591983"><ele>11.285714285714285</ele><time>2026-05-04T15:04:25.404Z</time></trkpt><trkpt lat="40.84728" lon="14.05915"><ele>11.714285714285715</ele><time>2026-05-04T15:04:26.401Z</time></trkpt><trkpt lat="40.8472233" lon="14.0591"><ele>12.142857142857144</ele><time>2026-05-04T15:04:27.402Z</time></trkpt><trkpt lat="40.8471667" lon="14.05905"><ele>12.571428571428571</ele><time>2026-05-04T15:04:28.402Z</time></trkpt><trkpt lat="40.8471167" lon="14.058995"><ele>13.0</ele><time>2026-05-04T15:04:29.404Z</time></trkpt><trkpt lat="40.847065" lon="14.0589417"><ele>13.0</ele><time>2026-05-04T15:04:30.402Z</time></trkpt><trkpt lat="40.847015" lon="14.0588883"><ele>13.0</ele><time>2026-05-04T15:04:31.402Z</time></trkpt><trkpt lat="40.8469667" lon="14.05883"><ele>13.0</ele><time>2026-05-04T15:04:32.402Z</time></trkpt><trkpt lat="40.8468733" lon="14.05872"><ele>13.0</ele><time>2026-05-04T15:04:34.403Z</time></trkpt><trkpt lat="40.8467683" lon="14.0586333"><ele>13.0</ele><time>2026-05-04T15:04:36.402Z</time></trkpt><trkpt lat="40.846665" lon="14.0585767"><ele>13.8</ele><time>2026-05-04T15:04:38.403Z</time></trkpt><trkpt lat="40.846555" lon="14.0585417"><ele>14.600000000000001</ele><time>2026-05-04T15:04:40.403Z</time></trkpt><trkpt lat="40.8464467" lon="14.058525"><ele>15.399999999999999</ele><time>2026-05-04T15:04:42.402Z</time></trkpt><trkpt lat="40.8463483" lon="14.0585067"><ele>16.2</ele><time>2026-05-04T15:04:44.402Z</time></trkpt><trkpt lat="40.8462483" lon="14.05849"><ele>17.0</ele><time>2026-05-04T15:04:46.402Z</time></trkpt><trkpt lat="40.8461533" lon="14.05846"><ele>17.0</ele><time>2026-05-04T15:04:48.401Z</time></trkpt><trkpt lat="40.84606" lon="14.0584283"><ele>17.0</ele><time>2026-05-04T15:04:50.402Z</time></trkpt><trkpt lat="40.8459583" lon="14.0584017"><ele>17.0</ele><time>2026-05-04T15:04:52.402Z</time></trkpt><trkpt lat="40.8458483" lon="14.0583733"><ele>17.0</ele><time>2026-05-04T15:04:54.403Z</time></trkpt><trkpt lat="40.8457417" lon="14.0583567"><ele>17.0</ele><time>2026-05-04T15:04:56.401Z</time></trkpt><trkpt lat="40.84564" lon="14.0583417"><ele>17.4</ele><time>2026-05-04T15:04:58.403Z</time></trkpt><trkpt lat="40.8455333" lon="14.058325"><ele>17.799999999999997</ele><time>2026-05-04T15:05:00.403Z</time></trkpt><trkpt lat="40.8454317" lon="14.0583"><ele>18.2</ele><time>2026-05-04T15:05:02.403Z</time></trkpt><trkpt lat="40.84533" lon="14.058275"><ele>18.599999999999998</ele><time>2026-05-04T15:05:04.403Z</time></trkpt><trkpt lat="40.8452333" lon="14.0582317"><ele>19.0</ele><time>2026-05-04T15:05:06.403Z</time></trkpt><trkpt lat="40.8451417" lon="14.0581733"><ele>19.6</ele><time>2026-05-04T15:05:08.403Z</time></trkpt><trkpt lat="40.8450617" lon="14.0581"><ele>20.2</ele><time>2026-05-04T15:05:10.403Z</time></trkpt><trkpt lat="40.84499" lon="14.0580183"><ele>20.8</ele><time>2026-05-04T15:05:12.402Z</time></trkpt><trkpt lat="40.84492" lon="14.05794"><ele>21.400000000000002</ele><time>2026-05-04T15:05:14.401Z</time></trkpt><trkpt lat="40.8448533" lon="14.0578567"><ele>22.0</ele><time>2026-05-04T15:05:16.402Z</time></trkpt><trkpt lat="40.8447833" lon="14.05779"><ele>22.0</ele><time>2026-05-04T15:05:18.403Z</time></trkpt><trkpt lat="40.84471" lon="14.057735"><ele>22.0</ele><time>2026-05-04T15:05:20.402Z</time></trkpt><trkpt lat="40.84464" lon="14.0576867"><ele>22.0</ele><time>2026-05-04T15:05:22.402Z</time></trkpt><trkpt lat="40.84457" lon="14.057645"><ele>22.0</ele><time>2026-05-04T15:05:24.403Z</time></trkpt><trkpt lat="40.8444933" lon="14.0576033"><ele>22.0</ele><time>2026-05-04T15:05:26.402Z</time></trkpt><trkpt lat="40.84441" lon="14.0575683"><ele>22.0</ele><time>2026-05-04T15:05:28.402Z</time></trkpt><trkpt lat="40.84433" lon="14.057535"><ele>22.666666666666664</ele><time>2026-05-04T15:05:30.402Z</time></trkpt><trkpt lat="40.8442583" lon="14.0575117"><ele>23.333333333333332</ele><time>2026-05-04T15:05:32.402Z</time></trkpt><trkpt lat="40.84418" lon="14.0574833"><ele>24.0</ele><time>2026-05-04T15:05:34.401Z</time></trkpt><trkpt lat="40.8441017" lon="14.0574583"><ele>24.666666666666664</ele><time>2026-05-04T15:05:36.403Z</time></trkpt><trkpt lat="40.8440217" lon="14.057425"><ele>25.333333333333332</ele><time>2026-05-04T15:05:38.403Z</time></trkpt><trkpt lat="40.8439483" lon="14.05741"><ele>26.0</ele><time>2026-05-04T15:05:40.402Z</time></trkpt><trkpt lat="40.84388" lon="14.0573983"><ele>25.999999999999996</ele><time>2026-05-04T15:05:42.403Z</time></trkpt><trkpt lat="40.843805" lon="14.0573767"><ele>26.0</ele><time>2026-05-04T15:05:44.402Z</time></trkpt><trkpt lat="40.8437317" lon="14.05734"><ele>26.0</ele><time>2026-05-04T15:05:46.403Z</time></trkpt><trkpt lat="40.84367" lon="14.057305"><ele>26.0</ele><time>2026-05-04T15:05:48.402Z</time></trkpt><trkpt lat="40.8436083" lon="14.0572817"><ele>25.999999999999996</ele><time>2026-05-04T15:05:50.401Z</time></trkpt><trkpt lat="40.8435183" lon="14.05726"><ele>26.0</ele><time>2026-05-04T15:05:53.402Z</time></trkpt><trkpt lat="40.8434483" lon="14.057225"><ele>26.142857142857142</ele><time>2026-05-04T15:05:56.403Z</time></trkpt><trkpt lat="40.8434183" lon="14.057305"><ele>26.28571428571429</ele><time>2026-05-04T15:06:02.402Z</time></trkpt><trkpt lat="40.843445" lon="14.0574133"><ele>26.42857142857143</ele><time>2026-05-04T15:06:05.402Z</time></trkpt><trkpt lat="40.8434583" lon="14.0575067"><ele>26.57142857142857</ele><time>2026-05-04T15:06:07.403Z</time></trkpt><trkpt lat="40.8434717" lon="14.0576033"><ele>26.714285714285715</ele><time>2026-05-04T15:06:09.402Z</time></trkpt><trkpt lat="40.8434767" lon="14.057695"><ele>26.857142857142858</ele><time>2026-05-04T15:06:11.403Z</time></trkpt><trkpt lat="40.843475" lon="14.0577783"><ele>27.0</ele><time>2026-05-04T15:06:13.404Z</time></trkpt><trkpt lat="40.8434683" lon="14.0579"><ele>27.0</ele><time>2026-05-04T15:06:16.402Z</time></trkpt><trkpt lat="40.843465" lon="14.05799"><ele>27.0</ele><time>2026-05-04T15:06:18.403Z</time></trkpt><trkpt lat="40.8434567" lon="14.0580833"><ele>27.0</ele><time>2026-05-04T15:06:20.403Z</time></trkpt><trkpt lat="40.843455" lon="14.0581767"><ele>27.0</ele><time>2026-05-04T15:06:22.403Z</time></trkpt><trkpt lat="40.8434567" lon="14.058265"><ele>27.0</ele><time>2026-05-04T15:06:24.403Z</time></trkpt><trkpt lat="40.8434533" lon="14.058355"><ele>27.0</ele><time>2026-05-04T15:06:26.403Z</time></trkpt><trkpt lat="40.843465" lon="14.058445"><ele>27.0</ele><time>2026-05-04T15:06:28.404Z</time></trkpt><trkpt lat="40.8434767" lon="14.0585433"><ele>27.666666666666668</ele><time>2026-05-04T15:06:30.402Z</time></trkpt><trkpt lat="40.8434867" lon="14.058635"><ele>28.333333333333336</ele><time>2026-05-04T15:06:32.403Z</time></trkpt><trkpt lat="40.8434983" lon="14.058725"><ele>29.0</ele><time>2026-05-04T15:06:34.402Z</time></trkpt><trkpt lat="40.843525" lon="14.05882"><ele>29.666666666666668</ele><time>2026-05-04T15:06:36.402Z</time></trkpt><trkpt lat="40.8435383" lon="14.058925"><ele>30.333333333333336</ele><time>2026-05-04T15:06:38.403Z</time></trkpt><trkpt lat="40.84356" lon="14.05903"><ele>31.0</ele><time>2026-05-04T15:06:40.403Z</time></trkpt><trkpt lat="40.8435933" lon="14.0591333"><ele>31.666666666666668</ele><time>2026-05-04T15:06:42.402Z</time></trkpt><trkpt lat="40.8436283" lon="14.0592267"><ele>32.333333333333336</ele><time>2026-05-04T15:06:44.403Z</time></trkpt><trkpt lat="40.8436567" lon="14.0593183"><ele>33.0</ele><time>2026-05-04T15:06:46.403Z</time></trkpt><trkpt lat="40.8436833" lon="14.059415"><ele>33.666666666666664</ele><time>2026-05-04T15:06:48.403Z</time></trkpt><trkpt lat="40.8437117" lon="14.0595017"><ele>34.33333333333333</ele><time>2026-05-04T15:06:50.403Z</time></trkpt><trkpt lat="40.8437517" lon="14.0595833"><ele>35.0</ele><time>2026-05-04T15:06:52.403Z</time></trkpt><trkpt lat="40.8438133" lon="14.059645"><ele>35.0</ele><time>2026-05-04T15:06:54.402Z</time></trkpt><trkpt lat="40.8438833" lon="14.0596867"><ele>35.0</ele><time>2026-05-04T15:06:56.403Z</time></trkpt><trkpt lat="40.8439567" lon="14.0596983"><ele>35.0</ele><time>2026-05-04T15:06:58.403Z</time></trkpt><trkpt lat="40.8440467" lon="14.05974"><ele>35.0</ele><time>2026-05-04T15:07:01.403Z</time></trkpt><trkpt lat="40.8441183" lon="14.0597733"><ele>35.0</ele><time>2026-05-04T15:07:03.401Z</time></trkpt><trkpt lat="40.8441917" lon="14.059835"><ele>35.0</ele><time>2026-05-04T15:07:05.403Z</time></trkpt><trkpt lat="40.8442517" lon="14.05992"><ele>35.2</ele><time>2026-05-04T15:07:07.404Z</time></trkpt><trkpt lat="40.8442983" lon="14.0600283"><ele>35.4</ele><time>2026-05-04T15:07:09.401Z</time></trkpt><trkpt lat="40.8443383" lon="14.0601333"><ele>35.6</ele><time>2026-05-04T15:07:11.402Z</time></trkpt><trkpt lat="40.84436" lon="14.0602483"><ele>35.8</ele><time>2026-05-04T15:07:13.402Z</time></trkpt><trkpt lat="40.8443833" lon="14.0603683"><ele>36.0</ele><time>2026-05-04T15:07:15.401Z</time></trkpt><trkpt lat="40.8444233" lon="14.0604817"><ele>36.0</ele><time>2026-05-04T15:07:17.402Z</time></trkpt><trkpt lat="40.8444667" lon="14.0605817"><ele>36.0</ele><time>2026-05-04T15:07:19.402Z</time></trkpt><trkpt lat="40.8445183" lon="14.0606617"><ele>36.0</ele><time>2026-05-04T15:07:21.402Z</time></trkpt><trkpt lat="40.844595" lon="14.0607267"><ele>36.0</ele><time>2026-05-04T15:07:23.401Z</time></trkpt><trkpt lat="40.844675" lon="14.060785"><ele>36.0</ele><time>2026-05-04T15:07:25.402Z</time></trkpt><trkpt lat="40.844745" lon="14.0608433"><ele>36.0</ele><time>2026-05-04T15:07:27.403Z</time></trkpt><trkpt lat="40.844815" lon="14.0608933"><ele>36.333333333333336</ele><time>2026-05-04T15:07:29.402Z</time></trkpt><trkpt lat="40.8448767" lon="14.0609517"><ele>36.666666666666664</ele><time>2026-05-04T15:07:31.407Z</time></trkpt><trkpt lat="40.8449333" lon="14.0610117"><ele>37.0</ele><time>2026-05-04T15:07:33.402Z</time></trkpt><trkpt lat="40.8449967" lon="14.0610617"><ele>37.33333333333333</ele><time>2026-05-04T15:07:35.402Z</time></trkpt><trkpt lat="40.84506" lon="14.061125"><ele>37.666666666666664</ele><time>2026-05-04T15:07:37.402Z</time></trkpt><trkpt lat="40.8451333" lon="14.0611817"><ele>38.0</ele><time>2026-05-04T15:07:39.401Z</time></trkpt><trkpt lat="40.8451967" lon="14.0612533"><ele>38.0</ele><time>2026-05-04T15:07:41.401Z</time></trkpt><trkpt lat="40.8452533" lon="14.06133"><ele>38.0</ele><time>2026-05-04T15:07:43.402Z</time></trkpt><trkpt lat="40.8453033" lon="14.0614067"><ele>38.0</ele><time>2026-05-04T15:07:45.402Z</time></trkpt><trkpt lat="40.8453467" lon="14.0614883"><ele>38.0</ele><time>2026-05-04T15:07:47.402Z</time></trkpt><trkpt lat="40.84539" lon="14.0615633"><ele>38.0</ele><time>2026-05-04T15:07:49.401Z</time></trkpt><trkpt lat="40.845435" lon="14.0616417"><ele>38.0</ele><time>2026-05-04T15:07:51.402Z</time></trkpt><trkpt lat="40.845485" lon="14.0617483"><ele>38.83333333333333</ele><time>2026-05-04T15:07:54.402Z</time></trkpt><trkpt lat="40.8455317" lon="14.06184"><ele>39.666666666666664</ele><time>2026-05-04T15:07:57.402Z</time></trkpt><trkpt lat="40.8455617" lon="14.0619483"><ele>40.5</ele><time>2026-05-04T15:08:00.403Z</time></trkpt><trkpt lat="40.845585" lon="14.0620633"><ele>41.333333333333336</ele><time>2026-05-04T15:08:03.402Z</time></trkpt><trkpt lat="40.8456083" lon="14.06217"><ele>42.16666666666667</ele><time>2026-05-04T15:08:06.403Z</time></trkpt><trkpt lat="40.84563" lon="14.0622767"><ele>43.0</ele><time>2026-05-04T15:08:09.403Z</time></trkpt><trkpt lat="40.8456433" lon="14.062385"><ele>44.333333333333336</ele><time>2026-05-04T15:08:12.403Z</time></trkpt><trkpt lat="40.8456717" lon="14.0624983"><ele>45.66666666666667</ele><time>2026-05-04T15:08:15.405Z</time></trkpt><trkpt lat="40.845685" lon="14.062605"><ele>47.0</ele><time>2026-05-04T15:08:18.403Z</time></trkpt><trkpt lat="40.845695" lon="14.0626883"><ele>48.333333333333336</ele><time>2026-05-04T15:08:20.403Z</time></trkpt><trkpt lat="40.84571" lon="14.06277"><ele>49.666666666666664</ele><time>2026-05-04T15:08:22.403Z</time></trkpt><trkpt lat="40.8457333" lon="14.0628867"><ele>51.0</ele><time>2026-05-04T15:08:25.404Z</time></trkpt><trkpt lat="40.8457483" lon="14.06297"><ele>51.0</ele><time>2026-05-04T15:08:27.403Z</time></trkpt><trkpt lat="40.8457717" lon="14.0630817"><ele>51.0</ele><time>2026-05-04T15:08:30.402Z</time></trkpt><trkpt lat="40.8457933" lon="14.0631617"><ele>51.0</ele><time>2026-05-04T15:08:32.402Z</time></trkpt><trkpt lat="40.84581" lon="14.0632667"><ele>51.0</ele><time>2026-05-04T15:08:35.403Z</time></trkpt><trkpt lat="40.84583" lon="14.06336"><ele>51.0</ele><time>2026-05-04T15:08:38.403Z</time></trkpt><trkpt lat="40.8458517" lon="14.0634567"><ele>51.0</ele><time>2026-05-04T15:08:41.403Z</time></trkpt><trkpt lat="40.84587" lon="14.063565"><ele>51.666666666666664</ele><time>2026-05-04T15:08:44.403Z</time></trkpt><trkpt lat="40.84588" lon="14.0636867"><ele>52.33333333333333</ele><time>2026-05-04T15:08:47.402Z</time></trkpt><trkpt lat="40.8459017" lon="14.063765"><ele>53.0</ele><time>2026-05-04T15:08:49.403Z</time></trkpt><trkpt lat="40.845935" lon="14.06387"><ele>53.666666666666664</ele><time>2026-05-04T15:08:52.402Z</time></trkpt><trkpt lat="40.8459433" lon="14.0639917"><ele>54.33333333333333</ele><time>2026-05-04T15:08:55.403Z</time></trkpt><trkpt lat="40.8459667" lon="14.0640933"><ele>55.0</ele><time>2026-05-04T15:08:58.404Z</time></trkpt><trkpt lat="40.845995" lon="14.0641883"><ele>56.83333333333333</ele><time>2026-05-04T15:09:01.402Z</time></trkpt><trkpt lat="40.8460217" lon="14.0643033"><ele>58.666666666666664</ele><time>2026-05-04T15:09:04.403Z</time></trkpt><trkpt lat="40.846035" lon="14.064425"><ele>60.5</ele><time>2026-05-04T15:09:07.403Z</time></trkpt><trkpt lat="40.8460433" lon="14.0645417"><ele>62.33333333333333</ele><time>2026-05-04T15:09:10.402Z</time></trkpt><trkpt lat="40.8460217" lon="14.0646683"><ele>64.16666666666667</ele><time>2026-05-04T15:09:13.404Z</time></trkpt><trkpt lat="40.8460083" lon="14.0647533"><ele>66.0</ele><time>2026-05-04T15:09:15.402Z</time></trkpt><trkpt lat="40.8460133" lon="14.0648417"><ele>66.0</ele><time>2026-05-04T15:09:17.403Z</time></trkpt><trkpt lat="40.8459983" lon="14.0649267"><ele>66.0</ele><time>2026-05-04T15:09:19.402Z</time></trkpt><trkpt lat="40.8459633" lon="14.0650367"><ele>66.0</ele><time>2026-05-04T15:09:22.405Z</time></trkpt><trkpt lat="40.8459333" lon="14.0651333"><ele>66.0</ele><time>2026-05-04T15:09:25.403Z</time></trkpt><trkpt lat="40.8459133" lon="14.065235"><ele>66.0</ele><time>2026-05-04T15:09:28.404Z</time></trkpt><trkpt lat="40.845885" lon="14.0653417"><ele>66.0</ele><time>2026-05-04T15:09:31.403Z</time></trkpt><trkpt lat="40.8458633" lon="14.06543"><ele>69.66666666666667</ele><time>2026-05-04T15:09:35.404Z</time></trkpt><trkpt lat="40.8458383" lon="14.0655117"><ele>73.33333333333333</ele><time>2026-05-04T15:09:39.404Z</time></trkpt><trkpt lat="40.845775" lon="14.0655917"><ele>77.0</ele><time>2026-05-04T15:09:43.403Z</time></trkpt><trkpt lat="40.8457483" lon="14.06568"><ele>80.66666666666666</ele><time>2026-05-04T15:09:46.403Z</time></trkpt><trkpt lat="40.8457583" lon="14.0657733"><ele>84.33333333333333</ele><time>2026-05-04T15:09:48.403Z</time></trkpt><trkpt lat="40.8457567" lon="14.0658983"><ele>88.0</ele><time>2026-05-04T15:09:51.403Z</time></trkpt><trkpt lat="40.84572" lon="14.06601"><ele>87.83333333333333</ele><time>2026-05-04T15:09:53.402Z</time></trkpt><trkpt lat="40.8456817" lon="14.0661533"><ele>87.66666666666666</ele><time>2026-05-04T15:09:55.403Z</time></trkpt><trkpt lat="40.84563" lon="14.0663033"><ele>87.5</ele><time>2026-05-04T15:09:57.403Z</time></trkpt><trkpt lat="40.8456" lon="14.06638"><ele>87.33333333333333</ele><time>2026-05-04T15:09:58.404Z</time></trkpt><trkpt lat="40.8455633" lon="14.0664583"><ele>87.16666666666667</ele><time>2026-05-04T15:09:59.403Z</time></trkpt><trkpt lat="40.8455267" lon="14.06654"><ele>87.0</ele><time>2026-05-04T15:10:00.403Z</time></trkpt><trkpt lat="40.8454867" lon="14.0666217"><ele>87.0</ele><time>2026-05-04T15:10:01.403Z</time></trkpt><trkpt lat="40.8454483" lon="14.0667"><ele>87.0</ele><time>2026-05-04T15:10:02.403Z</time></trkpt><trkpt lat="40.8454133" lon="14.066785"><ele>87.0</ele><time>2026-05-04T15:10:03.405Z</time></trkpt><trkpt lat="40.8453817" lon="14.06687"><ele>87.0</ele><time>2026-05-04T15:10:04.404Z</time></trkpt><trkpt lat="40.84535" lon="14.0669517"><ele>87.0</ele><time>2026-05-04T15:10:05.403Z</time></trkpt><trkpt lat="40.8453167" lon="14.0670333"><ele>87.0</ele><time>2026-05-04T15:10:06.402Z</time></trkpt><trkpt lat="40.8452867" lon="14.0671183"><ele>87.0</ele><time>2026-05-04T15:10:07.403Z</time></trkpt><trkpt lat="40.8452517" lon="14.0672"><ele>87.0</ele><time>2026-05-04T15:10:08.402Z</time></trkpt><trkpt lat="40.8452217" lon="14.0672833"><ele>87.0</ele><time>2026-05-04T15:10:09.403Z</time></trkpt><trkpt lat="40.8451933" lon="14.06737"><ele>87.0</ele><time>2026-05-04T15:10:10.403Z</time></trkpt><trkpt lat="40.845165" lon="14.0674567"><ele>87.0</ele><time>2026-05-04T15:10:11.404Z</time></trkpt><trkpt lat="40.8451333" lon="14.0675467"><ele>87.0</ele><time>2026-05-04T15:10:12.402Z</time></trkpt><trkpt lat="40.845105" lon="14.0676367"><ele>87.0</ele><time>2026-05-04T15:10:13.404Z</time></trkpt><trkpt lat="40.84507" lon="14.0677217"><ele>87.0</ele><time>2026-05-04T15:10:14.403Z</time></trkpt><trkpt lat="40.8450383" lon="14.0678017"><ele>85.14285714285714</ele><time>2026-05-04T15:10:15.402Z</time></trkpt><trkpt lat="40.84501" lon="14.0678817"><ele>83.28571428571429</ele><time>2026-05-04T15:10:16.405Z</time></trkpt><trkpt lat="40.8449883" lon="14.0679617"><ele>81.42857142857143</ele><time>2026-05-04T15:10:17.404Z</time></trkpt><trkpt lat="40.8449617" lon="14.0680433"><ele>79.57142857142857</ele><time>2026-05-04T15:10:18.403Z</time></trkpt><trkpt lat="40.8449367" lon="14.06813"><ele>77.71428571428571</ele><time>2026-05-04T15:10:19.403Z</time></trkpt><trkpt lat="40.8449133" lon="14.0682233"><ele>75.85714285714286</ele><time>2026-05-04T15:10:20.403Z</time></trkpt><trkpt lat="40.8448983" lon="14.0683167"><ele>74.0</ele><time>2026-05-04T15:10:21.402Z</time></trkpt><trkpt lat="40.84489" lon="14.068415"><ele>73.33333333333334</ele><time>2026-05-04T15:10:22.402Z</time></trkpt><trkpt lat="40.8448867" lon="14.0685117"><ele>72.66666666666667</ele><time>2026-05-04T15:10:23.404Z</time></trkpt><trkpt lat="40.8448867" lon="14.0686133"><ele>72.0</ele><time>2026-05-04T15:10:24.403Z</time></trkpt><trkpt lat="40.8448917" lon="14.0687167"><ele>71.33333333333333</ele><time>2026-05-04T15:10:25.403Z</time></trkpt><trkpt lat="40.8449" lon="14.0688217"><ele>70.66666666666666</ele><time>2026-05-04T15:10:26.403Z</time></trkpt><trkpt lat="40.8449067" lon="14.0689267"><ele>70.0</ele><time>2026-05-04T15:10:27.403Z</time></trkpt><trkpt lat="40.8449183" lon="14.0690333"><ele>69.83333333333333</ele><time>2026-05-04T15:10:28.402Z</time></trkpt><trkpt lat="40.8449267" lon="14.06914"><ele>69.66666666666666</ele><time>2026-05-04T15:10:29.404Z</time></trkpt><trkpt lat="40.84493" lon="14.0692467"><ele>69.5</ele><time>2026-05-04T15:10:30.404Z</time></trkpt><trkpt lat="40.8449333" lon="14.069355"><ele>69.33333333333333</ele><time>2026-05-04T15:10:31.402Z</time></trkpt><trkpt lat="40.8449383" lon="14.0694617"><ele>69.16666666666667</ele><time>2026-05-04T15:10:32.403Z</time></trkpt><trkpt lat="40.8449433" lon="14.0695683"><ele>69.0</ele><time>2026-05-04T15:10:33.402Z</time></trkpt><trkpt lat="40.8449483" lon="14.069675"><ele>69.0</ele><time>2026-05-04T15:10:34.404Z</time></trkpt><trkpt lat="40.8449517" lon="14.0697833"><ele>69.0</ele><time>2026-05-04T15:10:35.402Z</time></trkpt><trkpt lat="40.844955" lon="14.069895"><ele>69.0</ele><time>2026-05-04T15:10:36.402Z</time></trkpt><trkpt lat="40.84496" lon="14.070005"><ele>69.0</ele><time>2026-05-04T15:10:37.403Z</time></trkpt><trkpt lat="40.8449667" lon="14.070115"><ele>69.0</ele><time>2026-05-04T15:10:38.403Z</time></trkpt><trkpt lat="40.8449717" lon="14.0702283"><ele>69.0</ele><time>2026-05-04T15:10:39.403Z</time></trkpt><trkpt lat="40.8449767" lon="14.0703417"><ele>69.0</ele><time>2026-05-04T15:10:40.402Z</time></trkpt><trkpt lat="40.844985" lon="14.0704517"><ele>69.0</ele><time>2026-05-04T15:10:41.402Z</time></trkpt><trkpt lat="40.8449917" lon="14.07056"><ele>69.0</ele><time>2026-05-04T15:10:42.403Z</time></trkpt><trkpt lat="40.844995" lon="14.0706717"><ele>69.0</ele><time>2026-05-04T15:10:43.404Z</time></trkpt><trkpt lat="40.8449967" lon="14.0707817"><ele>69.0</ele><time>2026-05-04T15:10:44.403Z</time></trkpt><trkpt lat="40.845" lon="14.0708933"><ele>69.0</ele><time>2026-05-04T15:10:45.403Z</time></trkpt><trkpt lat="40.8450033" lon="14.071005"><ele>69.0</ele><time>2026-05-04T15:10:46.403Z</time></trkpt><trkpt lat="40.845005" lon="14.0711133"><ele>69.0</ele><time>2026-05-04T15:10:47.403Z</time></trkpt><trkpt lat="40.8450083" lon="14.0712217"><ele>69.0</ele><time>2026-05-04T15:10:48.403Z</time></trkpt><trkpt lat="40.8450133" lon="14.0713283"><ele>69.0</ele><time>2026-05-04T15:10:49.404Z</time></trkpt><trkpt lat="40.845015" lon="14.0714383"><ele>69.0</ele><time>2026-05-04T15:10:50.403Z</time></trkpt><trkpt lat="40.8450183" lon="14.0715467"><ele>69.0</ele><time>2026-05-04T15:10:51.404Z</time></trkpt><trkpt lat="40.8450217" lon="14.0716567"><ele>68.83333333333333</ele><time>2026-05-04T15:10:52.403Z</time></trkpt><trkpt lat="40.845025" lon="14.0717683"><ele>68.66666666666667</ele><time>2026-05-04T15:10:53.403Z</time></trkpt><trkpt lat="40.84503" lon="14.0718783"><ele>68.5</ele><time>2026-05-04T15:10:54.403Z</time></trkpt><trkpt lat="40.845035" lon="14.071985"><ele>68.33333333333334</ele><time>2026-05-04T15:10:55.402Z</time></trkpt><trkpt lat="40.8450433" lon="14.0720933"><ele>68.16666666666667</ele><time>2026-05-04T15:10:56.402Z</time></trkpt><trkpt lat="40.8450483" lon="14.0721967"><ele>68.0</ele><time>2026-05-04T15:10:57.402Z</time></trkpt><trkpt lat="40.845055" lon="14.0722983"><ele>68.0</ele><time>2026-05-04T15:10:58.403Z</time></trkpt><trkpt lat="40.8450567" lon="14.0723983"><ele>68.0</ele><time>2026-05-04T15:10:59.404Z</time></trkpt><trkpt lat="40.8450633" lon="14.0725033"><ele>68.0</ele><time>2026-05-04T15:11:00.403Z</time></trkpt><trkpt lat="40.8450683" lon="14.072605"><ele>68.0</ele><time>2026-05-04T15:11:01.404Z</time></trkpt><trkpt lat="40.8450767" lon="14.072705"><ele>68.0</ele><time>2026-05-04T15:11:02.402Z</time></trkpt><trkpt lat="40.8450833" lon="14.072805"><ele>68.0</ele><time>2026-05-04T15:11:03.403Z</time></trkpt><trkpt lat="40.84509" lon="14.0729067"><ele>67.99999999999999</ele><time>2026-05-04T15:11:04.403Z</time></trkpt><trkpt lat="40.8450967" lon="14.0730083"><ele>68.0</ele><time>2026-05-04T15:11:05.403Z</time></trkpt><trkpt lat="40.8451" lon="14.0731067"><ele>68.0</ele><time>2026-05-04T15:11:06.403Z</time></trkpt><trkpt lat="40.8451067" lon="14.0732033"><ele>68.0</ele><time>2026-05-04T15:11:07.404Z</time></trkpt><trkpt lat="40.845115" lon="14.0733"><ele>68.0</ele><time>2026-05-04T15:11:08.403Z</time></trkpt><trkpt lat="40.845125" lon="14.0733933"><ele>67.99999999999999</ele><time>2026-05-04T15:11:09.403Z</time></trkpt><trkpt lat="40.8451317" lon="14.0734883"><ele>68.0</ele><time>2026-05-04T15:11:10.405Z</time></trkpt><trkpt lat="40.8451317" lon="14.0735883"><ele>68.16666666666667</ele><time>2026-05-04T15:11:11.403Z</time></trkpt><trkpt lat="40.8451183" lon="14.0736883"><ele>68.33333333333334</ele><time>2026-05-04T15:11:12.403Z</time></trkpt><trkpt lat="40.8450933" lon="14.07378"><ele>68.5</ele><time>2026-05-04T15:11:13.404Z</time></trkpt><trkpt lat="40.8450583" lon="14.0738683"><ele>68.66666666666667</ele><time>2026-05-04T15:11:14.405Z</time></trkpt><trkpt lat="40.845015" lon="14.0739533"><ele>68.83333333333333</ele><time>2026-05-04T15:11:15.403Z</time></trkpt><trkpt lat="40.8449667" lon="14.07404"><ele>69.0</ele><time>2026-05-04T15:11:16.402Z</time></trkpt><trkpt lat="40.8449183" lon="14.0741283"><ele>69.66666666666667</ele><time>2026-05-04T15:11:17.402Z</time></trkpt><trkpt lat="40.84487" lon="14.074215"><ele>70.33333333333333</ele><time>2026-05-04T15:11:18.404Z</time></trkpt><trkpt lat="40.8448233" lon="14.0743033"><ele>71.0</ele><time>2026-05-04T15:11:19.402Z</time></trkpt><trkpt lat="40.84478" lon="14.0743917"><ele>71.66666666666666</ele><time>2026-05-04T15:11:20.403Z</time></trkpt><trkpt lat="40.8447383" lon="14.0744817"><ele>72.33333333333333</ele><time>2026-05-04T15:11:21.403Z</time></trkpt><trkpt lat="40.8446983" lon="14.07457"><ele>73.0</ele><time>2026-05-04T15:11:22.403Z</time></trkpt><trkpt lat="40.84466" lon="14.07466"><ele>73.0</ele><time>2026-05-04T15:11:23.403Z</time></trkpt><trkpt lat="40.8446283" lon="14.0747533"><ele>73.0</ele><time>2026-05-04T15:11:24.403Z</time></trkpt><trkpt lat="40.8446017" lon="14.07485"><ele>73.0</ele><time>2026-05-04T15:11:25.404Z</time></trkpt><trkpt lat="40.8445767" lon="14.0749517"><ele>73.0</ele><time>2026-05-04T15:11:26.403Z</time></trkpt><trkpt lat="40.844555" lon="14.0750533"><ele>73.0</ele><time>2026-05-04T15:11:27.403Z</time></trkpt><trkpt lat="40.84454" lon="14.0751567"><ele>73.0</ele><time>2026-05-04T15:11:28.402Z</time></trkpt><trkpt lat="40.8445267" lon="14.075265"><ele>73.4</ele><time>2026-05-04T15:11:29.404Z</time></trkpt><trkpt lat="40.8445133" lon="14.075375"><ele>73.8</ele><time>2026-05-04T15:11:30.404Z</time></trkpt><trkpt lat="40.8445" lon="14.07549"><ele>74.2</ele><time>2026-05-04T15:11:31.404Z</time></trkpt><trkpt lat="40.844485" lon="14.0756067"><ele>74.6</ele><time>2026-05-04T15:11:32.403Z</time></trkpt><trkpt lat="40.844465" lon="14.0757283"><ele>75.0</ele><time>2026-05-04T15:11:33.402Z</time></trkpt><trkpt lat="40.8444483" lon="14.0758567"><ele>75.0</ele><time>2026-05-04T15:11:34.403Z</time></trkpt><trkpt lat="40.84443" lon="14.0759867"><ele>75.0</ele><time>2026-05-04T15:11:35.403Z</time></trkpt><trkpt lat="40.8444117" lon="14.07612"><ele>75.0</ele><time>2026-05-04T15:11:36.402Z</time></trkpt><trkpt lat="40.84439" lon="14.0762567"><ele>75.0</ele><time>2026-05-04T15:11:37.404Z</time></trkpt><trkpt lat="40.8443667" lon="14.0763967"><ele>75.0</ele><time>2026-05-04T15:11:38.404Z</time></trkpt><trkpt lat="40.8443417" lon="14.07654"><ele>75.75</ele><time>2026-05-04T15:11:39.403Z</time></trkpt><trkpt lat="40.8443133" lon="14.0766833"><ele>76.5</ele><time>2026-05-04T15:11:40.402Z</time></trkpt><trkpt lat="40.8442867" lon="14.0768283"><ele>77.25</ele><time>2026-05-04T15:11:41.404Z</time></trkpt><trkpt lat="40.8442533" lon="14.07697"><ele>78.0</ele><time>2026-05-04T15:11:42.403Z</time></trkpt><trkpt lat="40.8442167" lon="14.0771167"><ele>73.25</ele><time>2026-05-04T15:11:43.404Z</time></trkpt><trkpt lat="40.8441767" lon="14.0772617"><ele>68.5</ele><time>2026-05-04T15:11:44.402Z</time></trkpt><trkpt lat="40.844135" lon="14.0774"><ele>63.75</ele><time>2026-05-04T15:11:45.404Z</time></trkpt><trkpt lat="40.8440933" lon="14.0775417"><ele>59.0</ele><time>2026-05-04T15:11:46.402Z</time></trkpt><trkpt lat="40.8440483" lon="14.0776867"><ele>59.0</ele><time>2026-05-04T15:11:47.403Z</time></trkpt><trkpt lat="40.8440033" lon="14.0778367"><ele>59.0</ele><time>2026-05-04T15:11:48.402Z</time></trkpt><trkpt lat="40.843955" lon="14.07799"><ele>59.0</ele><time>2026-05-04T15:11:49.403Z</time></trkpt><trkpt lat="40.8439083" lon="14.0781433"><ele>59.0</ele><time>2026-05-04T15:11:50.403Z</time></trkpt><trkpt lat="40.8438583" lon="14.0783017"><ele>61.25</ele><time>2026-05-04T15:11:51.403Z</time></trkpt><trkpt lat="40.8438083" lon="14.0784567"><ele>63.5</ele><time>2026-05-04T15:11:52.403Z</time></trkpt><trkpt lat="40.8437617" lon="14.0786133"><ele>65.75</ele><time>2026-05-04T15:11:53.404Z</time></trkpt><trkpt lat="40.8437133" lon="14.07877"><ele>68.0</ele><time>2026-05-04T15:11:54.402Z</time></trkpt><trkpt lat="40.8436633" lon="14.07893"><ele>68.0</ele><time>2026-05-04T15:11:55.405Z</time></trkpt><trkpt lat="40.8436133" lon="14.079085"><ele>68.0</ele><time>2026-05-04T15:11:56.404Z</time></trkpt><trkpt lat="40.843565" lon="14.07924"><ele>68.0</ele><time>2026-05-04T15:11:57.404Z</time></trkpt><trkpt lat="40.843515" lon="14.0794"><ele>68.0</ele><time>2026-05-04T15:11:58.403Z</time></trkpt><trkpt lat="40.843465" lon="14.07956"><ele>62.75</ele><time>2026-05-04T15:11:59.404Z</time></trkpt><trkpt lat="40.84341" lon="14.0797217"><ele>57.5</ele><time>2026-05-04T15:12:00.404Z</time></trkpt><trkpt lat="40.8433567" lon="14.0798817"><ele>52.25</ele><time>2026-05-04T15:12:01.404Z</time></trkpt><trkpt lat="40.8433017" lon="14.0800417"><ele>47.0</ele><time>2026-05-04T15:12:02.404Z</time></trkpt><trkpt lat="40.843255" lon="14.0802"><ele>47.0</ele><time>2026-05-04T15:12:03.403Z</time></trkpt><trkpt lat="40.843205" lon="14.0803567"><ele>47.0</ele><time>2026-05-04T15:12:04.404Z</time></trkpt><trkpt lat="40.8431583" lon="14.0805117"><ele>47.0</ele><time>2026-05-04T15:12:05.403Z</time></trkpt><trkpt lat="40.8431133" lon="14.0806633"><ele>47.0</ele><time>2026-05-04T15:12:06.402Z</time></trkpt><trkpt lat="40.8430683" lon="14.08081"><ele>48.0</ele><time>2026-05-04T15:12:07.404Z</time></trkpt><trkpt lat="40.843025" lon="14.0809483"><ele>49.0</ele><time>2026-05-04T15:12:08.403Z</time></trkpt><trkpt lat="40.84299" lon="14.08107"><ele>50.0</ele><time>2026-05-04T15:12:09.403Z</time></trkpt><trkpt lat="40.84296" lon="14.081185"><ele>51.0</ele><time>2026-05-04T15:12:10.404Z</time></trkpt><trkpt lat="40.8429383" lon="14.0812933"><ele>52.0</ele><time>2026-05-04T15:12:11.404Z</time></trkpt><trkpt lat="40.8429183" lon="14.0814017"><ele>51.99999999999999</ele><time>2026-05-04T15:12:12.403Z</time></trkpt><trkpt lat="40.8429017" lon="14.0815083"><ele>52.0</ele><time>2026-05-04T15:12:13.405Z</time></trkpt><trkpt lat="40.8428867" lon="14.0816"><ele>52.0</ele><time>2026-05-04T15:12:14.403Z</time></trkpt><trkpt lat="40.8428267" lon="14.0817317"><ele>52.0</ele><time>2026-05-04T15:12:16.403Z</time></trkpt><trkpt lat="40.84278" lon="14.0817883"><ele>51.99999999999999</ele><time>2026-05-04T15:12:17.404Z</time></trkpt><trkpt lat="40.842735" lon="14.0818617"><ele>52.0</ele><time>2026-05-04T15:12:18.403Z</time></trkpt><trkpt lat="40.8426983" lon="14.08195"><ele>50.666666666666664</ele><time>2026-05-04T15:12:19.405Z</time></trkpt><trkpt lat="40.8426633" lon="14.0820467"><ele>49.33333333333333</ele><time>2026-05-04T15:12:20.404Z</time></trkpt><trkpt lat="40.8426217" lon="14.0821417"><ele>48.0</ele><time>2026-05-04T15:12:21.403Z</time></trkpt><trkpt lat="40.8425683" lon="14.08223"><ele>46.666666666666664</ele><time>2026-05-04T15:12:22.403Z</time></trkpt><trkpt lat="40.842515" lon="14.0823217"><ele>45.33333333333333</ele><time>2026-05-04T15:12:23.404Z</time></trkpt><trkpt lat="40.8424617" lon="14.0824233"><ele>44.0</ele><time>2026-05-04T15:12:24.402Z</time></trkpt><trkpt lat="40.8424067" lon="14.0825283"><ele>42.6</ele><time>2026-05-04T15:12:25.404Z</time></trkpt><trkpt lat="40.84235" lon="14.0826333"><ele>41.2</ele><time>2026-05-04T15:12:26.403Z</time></trkpt><trkpt lat="40.8422917" lon="14.082745"><ele>39.800000000000004</ele><time>2026-05-04T15:12:27.404Z</time></trkpt><trkpt lat="40.8422317" lon="14.0828583"><ele>38.400000000000006</ele><time>2026-05-04T15:12:28.404Z</time></trkpt><trkpt lat="40.8421717" lon="14.0829767"><ele>37.0</ele><time>2026-05-04T15:12:29.403Z</time></trkpt><trkpt lat="40.842115" lon="14.0830983"><ele>37.0</ele><time>2026-05-04T15:12:30.403Z</time></trkpt><trkpt lat="40.8420617" lon="14.0832283"><ele>37.0</ele><time>2026-05-04T15:12:31.403Z</time></trkpt><trkpt lat="40.8420167" lon="14.08336"><ele>37.0</ele><time>2026-05-04T15:12:32.402Z</time></trkpt><trkpt lat="40.841975" lon="14.0834983"><ele>37.0</ele><time>2026-05-04T15:12:33.403Z</time></trkpt><trkpt lat="40.84193" lon="14.083645"><ele>36.0</ele><time>2026-05-04T15:12:34.402Z</time></trkpt><trkpt lat="40.8418883" lon="14.0837983"><ele>35.0</ele><time>2026-05-04T15:12:35.404Z</time></trkpt><trkpt lat="40.8418517" lon="14.083945"><ele>34.0</ele><time>2026-05-04T15:12:36.404Z</time></trkpt><trkpt lat="40.8418117" lon="14.0840833"><ele>33.0</ele><time>2026-05-04T15:12:37.404Z</time></trkpt><trkpt lat="40.84177" lon="14.084235"><ele>32.75</ele><time>2026-05-04T15:12:38.404Z</time></trkpt><trkpt lat="40.8417383" lon="14.084395"><ele>32.5</ele><time>2026-05-04T15:12:39.404Z</time></trkpt><trkpt lat="40.8417" lon="14.084565"><ele>32.25</ele><time>2026-05-04T15:12:40.404Z</time></trkpt><trkpt lat="40.84167" lon="14.0847217"><ele>32.0</ele><time>2026-05-04T15:12:41.403Z</time></trkpt><trkpt lat="40.841635" lon="14.0848683"><ele>31.0</ele><time>2026-05-04T15:12:42.403Z</time></trkpt><trkpt lat="40.841605" lon="14.0850117"><ele>30.000000000000004</ele><time>2026-05-04T15:12:43.405Z</time></trkpt><trkpt lat="40.8415717" lon="14.085155"><ele>29.000000000000004</ele><time>2026-05-04T15:12:44.404Z</time></trkpt><trkpt lat="40.8415383" lon="14.0852967"><ele>28.0</ele><time>2026-05-04T15:12:45.402Z</time></trkpt><trkpt lat="40.8415083" lon="14.0854367"><ele>27.0</ele><time>2026-05-04T15:12:46.404Z</time></trkpt><trkpt lat="40.841475" lon="14.085575"><ele>27.0</ele><time>2026-05-04T15:12:47.404Z</time></trkpt><trkpt lat="40.8414417" lon="14.0857117"><ele>27.000000000000004</ele><time>2026-05-04T15:12:48.404Z</time></trkpt><trkpt lat="40.84141" lon="14.0858483"><ele>27.000000000000004</ele><time>2026-05-04T15:12:49.405Z</time></trkpt><trkpt lat="40.8413783" lon="14.085985"><ele>27.0</ele><time>2026-05-04T15:12:50.404Z</time></trkpt><trkpt lat="40.841345" lon="14.0861233"><ele>27.0</ele><time>2026-05-04T15:12:51.403Z</time></trkpt><trkpt lat="40.8413117" lon="14.08626"><ele>26.25</ele><time>2026-05-04T15:12:52.404Z</time></trkpt><trkpt lat="40.8412767" lon="14.0863967"><ele>25.5</ele><time>2026-05-04T15:12:53.404Z</time></trkpt><trkpt lat="40.8412367" lon="14.086535"><ele>24.75</ele><time>2026-05-04T15:12:54.404Z</time></trkpt><trkpt lat="40.8411933" lon="14.0866733"><ele>24.0</ele><time>2026-05-04T15:12:55.404Z</time></trkpt><trkpt lat="40.8411567" lon="14.0868183"><ele>23.75</ele><time>2026-05-04T15:12:56.403Z</time></trkpt><trkpt lat="40.841125" lon="14.086965"><ele>23.5</ele><time>2026-05-04T15:12:57.404Z</time></trkpt><trkpt lat="40.8411" lon="14.0871083"><ele>23.25</ele><time>2026-05-04T15:12:58.403Z</time></trkpt><trkpt lat="40.8410767" lon="14.0872567"><ele>23.0</ele><time>2026-05-04T15:12:59.404Z</time></trkpt><trkpt lat="40.8410517" lon="14.087405"><ele>22.799999999999997</ele><time>2026-05-04T15:13:00.404Z</time></trkpt><trkpt lat="40.841025" lon="14.0875483"><ele>22.6</ele><time>2026-05-04T15:13:01.404Z</time></trkpt><trkpt lat="40.8409933" lon="14.0876867"><ele>22.4</ele><time>2026-05-04T15:13:02.404Z</time></trkpt><trkpt lat="40.8409633" lon="14.087825"><ele>22.200000000000003</ele><time>2026-05-04T15:13:03.402Z</time></trkpt><trkpt lat="40.8409367" lon="14.0879617"><ele>22.0</ele><time>2026-05-04T15:13:04.404Z</time></trkpt><trkpt lat="40.8409117" lon="14.0880983"><ele>23.200000000000003</ele><time>2026-05-04T15:13:05.404Z</time></trkpt><trkpt lat="40.840885" lon="14.08823"><ele>24.4</ele><time>2026-05-04T15:13:06.403Z</time></trkpt><trkpt lat="40.8408567" lon="14.0883617"><ele>25.599999999999998</ele><time>2026-05-04T15:13:07.404Z</time></trkpt><trkpt lat="40.8408283" lon="14.0884883"><ele>26.799999999999997</ele><time>2026-05-04T15:13:08.404Z</time></trkpt><trkpt lat="40.8407967" lon="14.088615"><ele>28.0</ele><time>2026-05-04T15:13:09.402Z</time></trkpt><trkpt lat="40.8407667" lon="14.0887383"><ele>28.0</ele><time>2026-05-04T15:13:10.403Z</time></trkpt><trkpt lat="40.8407367" lon="14.088865"><ele>27.999999999999996</ele><time>2026-05-04T15:13:11.404Z</time></trkpt><trkpt lat="40.8407083" lon="14.0889867"><ele>27.999999999999996</ele><time>2026-05-04T15:13:12.402Z</time></trkpt><trkpt lat="40.8406767" lon="14.0891083"><ele>28.0</ele><time>2026-05-04T15:13:13.404Z</time></trkpt><trkpt lat="40.84065" lon="14.0892283"><ele>28.0</ele><time>2026-05-04T15:13:14.401Z</time></trkpt><trkpt lat="40.8406217" lon="14.0893467"><ele>28.000000000000004</ele><time>2026-05-04T15:13:15.401Z</time></trkpt><trkpt lat="40.840595" lon="14.0894633"><ele>28.0</ele><time>2026-05-04T15:13:16.402Z</time></trkpt><trkpt lat="40.8405733" lon="14.0895783"><ele>28.0</ele><time>2026-05-04T15:13:17.403Z</time></trkpt><trkpt lat="40.8405517" lon="14.0896933"><ele>28.0</ele><time>2026-05-04T15:13:18.403Z</time></trkpt><trkpt lat="40.8405233" lon="14.0897983"><ele>28.000000000000004</ele><time>2026-05-04T15:13:19.403Z</time></trkpt><trkpt lat="40.8404867" lon="14.0899067"><ele>28.0</ele><time>2026-05-04T15:13:20.401Z</time></trkpt><trkpt lat="40.8404517" lon="14.090015"><ele>28.000000000000004</ele><time>2026-05-04T15:13:21.4Z</time></trkpt><trkpt lat="40.8404233" lon="14.090125"><ele>28.0</ele><time>2026-05-04T15:13:22.401Z</time></trkpt><trkpt lat="40.840395" lon="14.0902333"><ele>28.0</ele><time>2026-05-04T15:13:23.402Z</time></trkpt><trkpt lat="40.8403683" lon="14.09034"><ele>28.0</ele><time>2026-05-04T15:13:24.402Z</time></trkpt><trkpt lat="40.8403367" lon="14.0904483"><ele>28.000000000000004</ele><time>2026-05-04T15:13:25.403Z</time></trkpt><trkpt lat="40.8403067" lon="14.0905517"><ele>28.0</ele><time>2026-05-04T15:13:26.402Z</time></trkpt><trkpt lat="40.84028" lon="14.0906517"><ele>28.0</ele><time>2026-05-04T15:13:27.402Z</time></trkpt><trkpt lat="40.8402583" lon="14.0907467"><ele>28.0</ele><time>2026-05-04T15:13:28.401Z</time></trkpt><trkpt lat="40.8402383" lon="14.09084"><ele>28.0</ele><time>2026-05-04T15:13:29.402Z</time></trkpt><trkpt lat="40.8402167" lon="14.0909333"><ele>28.0</ele><time>2026-05-04T15:13:30.402Z</time></trkpt><trkpt lat="40.8401967" lon="14.0910233"><ele>28.0</ele><time>2026-05-04T15:13:31.402Z</time></trkpt><trkpt lat="40.8401683" lon="14.0911167"><ele>28.0</ele><time>2026-05-04T15:13:32.403Z</time></trkpt><trkpt lat="40.8401367" lon="14.0912133"><ele>28.0</ele><time>2026-05-04T15:13:33.401Z</time></trkpt><trkpt lat="40.8401083" lon="14.0913233"><ele>29.0</ele><time>2026-05-04T15:13:34.402Z</time></trkpt><trkpt lat="40.8400883" lon="14.0914183"><ele>29.999999999999996</ele><time>2026-05-04T15:13:35.402Z</time></trkpt><trkpt lat="40.84006" lon="14.0914983"><ele>30.999999999999996</ele><time>2026-05-04T15:13:36.402Z</time></trkpt><trkpt lat="40.8400167" lon="14.0916617"><ele>32.0</ele><time>2026-05-04T15:13:38.403Z</time></trkpt><trkpt lat="40.8399967" lon="14.0917417"><ele>33.0</ele><time>2026-05-04T15:13:39.402Z</time></trkpt><trkpt lat="40.8399533" lon="14.091895"><ele>33.0</ele><time>2026-05-04T15:13:41.403Z</time></trkpt><trkpt lat="40.8399167" lon="14.092055"><ele>33.0</ele><time>2026-05-04T15:13:43.403Z</time></trkpt><trkpt lat="40.8398917" lon="14.0921417"><ele>33.0</ele><time>2026-05-04T15:13:44.403Z</time></trkpt><trkpt lat="40.8398717" lon="14.0922233"><ele>33.0</ele><time>2026-05-04T15:13:45.402Z</time></trkpt><trkpt lat="40.8398467" lon="14.092305"><ele>33.0</ele><time>2026-05-04T15:13:46.404Z</time></trkpt><trkpt lat="40.8398233" lon="14.0923833"><ele>33.0</ele><time>2026-05-04T15:13:47.403Z</time></trkpt><trkpt lat="40.8397983" lon="14.0924617"><ele>32.857142857142854</ele><time>2026-05-04T15:13:48.402Z</time></trkpt><trkpt lat="40.8397733" lon="14.0925467"><ele>32.714285714285715</ele><time>2026-05-04T15:13:49.403Z</time></trkpt><trkpt lat="40.8397483" lon="14.0926333"><ele>32.57142857142857</ele><time>2026-05-04T15:13:50.403Z</time></trkpt><trkpt lat="40.8397217" lon="14.0927183"><ele>32.42857142857143</ele><time>2026-05-04T15:13:51.4Z</time></trkpt><trkpt lat="40.8396933" lon="14.0928017"><ele>32.285714285714285</ele><time>2026-05-04T15:13:52.402Z</time></trkpt><trkpt lat="40.83966" lon="14.0928767"><ele>32.14285714285714</ele><time>2026-05-04T15:13:53.403Z</time></trkpt><trkpt lat="40.8396183" lon="14.0929467"><ele>32.0</ele><time>2026-05-04T15:13:54.403Z</time></trkpt><trkpt lat="40.83957" lon="14.093015"><ele>31.999999999999996</ele><time>2026-05-04T15:13:55.402Z</time></trkpt><trkpt lat="40.8395183" lon="14.093085"><ele>32.0</ele><time>2026-05-04T15:13:56.401Z</time></trkpt><trkpt lat="40.8394617" lon="14.09315"><ele>32.0</ele><time>2026-05-04T15:13:57.401Z</time></trkpt><trkpt lat="40.8394033" lon="14.0932067"><ele>32.0</ele><time>2026-05-04T15:13:58.402Z</time></trkpt><trkpt lat="40.83934" lon="14.0932633"><ele>31.999999999999996</ele><time>2026-05-04T15:13:59.405Z</time></trkpt><trkpt lat="40.839275" lon="14.09332"><ele>32.0</ele><time>2026-05-04T15:14:00.401Z</time></trkpt><trkpt lat="40.8392067" lon="14.093375"><ele>32.166666666666664</ele><time>2026-05-04T15:14:01.402Z</time></trkpt><trkpt lat="40.8391367" lon="14.0934333"><ele>32.33333333333333</ele><time>2026-05-04T15:14:02.402Z</time></trkpt><trkpt lat="40.8390667" lon="14.09349"><ele>32.5</ele><time>2026-05-04T15:14:03.401Z</time></trkpt><trkpt lat="40.8389967" lon="14.0935533"><ele>32.666666666666664</ele><time>2026-05-04T15:14:04.402Z</time></trkpt><trkpt lat="40.83893" lon="14.09362"><ele>32.833333333333336</ele><time>2026-05-04T15:14:05.403Z</time></trkpt><trkpt lat="40.83886" lon="14.0936833"><ele>33.0</ele><time>2026-05-04T15:14:06.402Z</time></trkpt><trkpt lat="40.83879" lon="14.09375"><ele>33.0</ele><time>2026-05-04T15:14:07.403Z</time></trkpt><trkpt lat="40.83872" lon="14.0938133"><ele>33.0</ele><time>2026-05-04T15:14:08.402Z</time></trkpt><trkpt lat="40.83865" lon="14.0938817"><ele>33.0</ele><time>2026-05-04T15:14:09.401Z</time></trkpt><trkpt lat="40.83858" lon="14.0939517"><ele>33.0</ele><time>2026-05-04T15:14:10.401Z</time></trkpt><trkpt lat="40.8385133" lon="14.0940283"><ele>33.0</ele><time>2026-05-04T15:14:11.403Z</time></trkpt><trkpt lat="40.8384533" lon="14.094115"><ele>33.0</ele><time>2026-05-04T15:14:12.403Z</time></trkpt><trkpt lat="40.8383933" lon="14.094205"><ele>32.6</ele><time>2026-05-04T15:14:13.403Z</time></trkpt><trkpt lat="40.8383367" lon="14.094295"><ele>32.199999999999996</ele><time>2026-05-04T15:14:14.401Z</time></trkpt><trkpt lat="40.8382817" lon="14.0943817"><ele>31.8</ele><time>2026-05-04T15:14:15.402Z</time></trkpt><trkpt lat="40.838225" lon="14.09447"><ele>31.4</ele><time>2026-05-04T15:14:16.404Z</time></trkpt><trkpt lat="40.8381683" lon="14.0945717"><ele>31.0</ele><time>2026-05-04T15:14:17.402Z</time></trkpt><trkpt lat="40.838155" lon="14.0947133"><ele>31.000000000000004</ele><time>2026-05-04T15:14:18.402Z</time></trkpt><trkpt lat="40.838145" lon="14.09484"><ele>31.0</ele><time>2026-05-04T15:14:19.403Z</time></trkpt><trkpt lat="40.8381383" lon="14.094975"><ele>31.0</ele><time>2026-05-04T15:14:20.402Z</time></trkpt><trkpt lat="40.8381183" lon="14.095085"><ele>31.0</ele><time>2026-05-04T15:14:21.403Z</time></trkpt><trkpt lat="40.8380883" lon="14.09517"><ele>31.000000000000004</ele><time>2026-05-04T15:14:22.403Z</time></trkpt><trkpt lat="40.8380633" lon="14.0952533"><ele>31.0</ele><time>2026-05-04T15:14:23.403Z</time></trkpt><trkpt lat="40.8380233" lon="14.0953333"><ele>30.833333333333336</ele><time>2026-05-04T15:14:24.402Z</time></trkpt><trkpt lat="40.837995" lon="14.095415"><ele>30.666666666666668</ele><time>2026-05-04T15:14:25.403Z</time></trkpt><trkpt lat="40.8379467" lon="14.0954833"><ele>30.5</ele><time>2026-05-04T15:14:26.405Z</time></trkpt><trkpt lat="40.8378783" lon="14.0955367"><ele>30.333333333333336</ele><time>2026-05-04T15:14:27.403Z</time></trkpt><trkpt lat="40.8378017" lon="14.095585"><ele>30.166666666666668</ele><time>2026-05-04T15:14:28.407Z</time></trkpt><trkpt lat="40.8377217" lon="14.09563"><ele>30.0</ele><time>2026-05-04T15:14:29.403Z</time></trkpt><trkpt lat="40.8376433" lon="14.0956683"><ele>29.833333333333332</ele><time>2026-05-04T15:14:30.401Z</time></trkpt><trkpt lat="40.8375667" lon="14.0957067"><ele>29.666666666666664</ele><time>2026-05-04T15:14:31.404Z</time></trkpt><trkpt lat="40.8374933" lon="14.0957417"><ele>29.5</ele><time>2026-05-04T15:14:32.402Z</time></trkpt><trkpt lat="40.83742" lon="14.0957717"><ele>29.333333333333332</ele><time>2026-05-04T15:14:33.406Z</time></trkpt><trkpt lat="40.8373533" lon="14.0957933"><ele>29.166666666666664</ele><time>2026-05-04T15:14:34.403Z</time></trkpt><trkpt lat="40.8372467" lon="14.0958217"><ele>29.0</ele><time>2026-05-04T15:14:36.405Z</time></trkpt><trkpt lat="40.8371467" lon="14.0958217"><ele>29.0</ele><time>2026-05-04T15:14:38.404Z</time></trkpt><trkpt lat="40.8370617" lon="14.0957733"><ele>29.0</ele><time>2026-05-04T15:14:40.403Z</time></trkpt><trkpt lat="40.83696" lon="14.0957367"><ele>29.0</ele><time>2026-05-04T15:14:42.403Z</time></trkpt><trkpt lat="40.8368383" lon="14.0957117"><ele>29.0</ele><time>2026-05-04T15:14:44.403Z</time></trkpt><trkpt lat="40.8367767" lon="14.0956933"><ele>29.0</ele><time>2026-05-04T15:14:45.403Z</time></trkpt><trkpt lat="40.8367133" lon="14.0956683"><ele>29.000000000000004</ele><time>2026-05-04T15:14:46.402Z</time></trkpt><trkpt lat="40.83665" lon="14.09565"><ele>29.0</ele><time>2026-05-04T15:14:47.403Z</time></trkpt><trkpt lat="40.8365867" lon="14.095635"><ele>29.000000000000004</ele><time>2026-05-04T15:14:48.404Z</time></trkpt><trkpt lat="40.8365233" lon="14.0956267"><ele>29.000000000000004</ele><time>2026-05-04T15:14:49.402Z</time></trkpt><trkpt lat="40.8364583" lon="14.095615"><ele>29.0</ele><time>2026-05-04T15:14:50.405Z</time></trkpt><trkpt lat="40.8363933" lon="14.0956017"><ele>29.000000000000004</ele><time>2026-05-04T15:14:51.403Z</time></trkpt><trkpt lat="40.8363267" lon="14.0955867"><ele>29.000000000000004</ele><time>2026-05-04T15:14:52.403Z</time></trkpt><trkpt lat="40.83626" lon="14.0955717"><ele>28.999999999999996</ele><time>2026-05-04T15:14:53.402Z</time></trkpt><trkpt lat="40.836195" lon="14.09556"><ele>29.0</ele><time>2026-05-04T15:14:54.403Z</time></trkpt><trkpt lat="40.83613" lon="14.0955517"><ele>29.0</ele><time>2026-05-04T15:14:55.403Z</time></trkpt><trkpt lat="40.836065" lon="14.0955433"><ele>29.0</ele><time>2026-05-04T15:14:56.402Z</time></trkpt><trkpt lat="40.83594" lon="14.0955267"><ele>28.999999999999996</ele><time>2026-05-04T15:14:58.403Z</time></trkpt><trkpt lat="40.8358233" lon="14.0955133"><ele>29.0</ele><time>2026-05-04T15:15:00.407Z</time></trkpt><trkpt lat="40.8357367" lon="14.0955117"><ele>28.6</ele><time>2026-05-04T15:15:02.405Z</time></trkpt><trkpt lat="40.8356467" lon="14.0955133"><ele>28.2</ele><time>2026-05-04T15:15:04.406Z</time></trkpt><trkpt lat="40.8355433" lon="14.095535"><ele>27.800000000000004</ele><time>2026-05-04T15:15:06.403Z</time></trkpt><trkpt lat="40.8354333" lon="14.0955733"><ele>27.400000000000002</ele><time>2026-05-04T15:15:08.403Z</time></trkpt><trkpt lat="40.8353333" lon="14.095625"><ele>27.0</ele><time>2026-05-04T15:15:10.403Z</time></trkpt><trkpt lat="40.8352333" lon="14.0956867"><ele>25.8</ele><time>2026-05-04T15:15:12.403Z</time></trkpt><trkpt lat="40.8351367" lon="14.095755"><ele>24.6</ele><time>2026-05-04T15:15:14.403Z</time></trkpt><trkpt lat="40.835045" lon="14.0958367"><ele>23.400000000000002</ele><time>2026-05-04T15:15:16.403Z</time></trkpt><trkpt lat="40.8349567" lon="14.095945"><ele>22.200000000000003</ele><time>2026-05-04T15:15:18.404Z</time></trkpt><trkpt lat="40.834915" lon="14.0960083"><ele>21.0</ele><time>2026-05-04T15:15:19.403Z</time></trkpt><trkpt lat="40.8348317" lon="14.0961433"><ele>21.0</ele><time>2026-05-04T15:15:21.403Z</time></trkpt><trkpt lat="40.8347933" lon="14.096215"><ele>21.0</ele><time>2026-05-04T15:15:22.405Z</time></trkpt><trkpt lat="40.8347533" lon="14.0962933"><ele>21.0</ele><time>2026-05-04T15:15:23.404Z</time></trkpt><trkpt lat="40.8347133" lon="14.0963733"><ele>21.0</ele><time>2026-05-04T15:15:24.404Z</time></trkpt><trkpt lat="40.834675" lon="14.0964583"><ele>21.0</ele><time>2026-05-04T15:15:25.405Z</time></trkpt><trkpt lat="40.8346367" lon="14.096545"><ele>21.0</ele><time>2026-05-04T15:15:26.403Z</time></trkpt><trkpt lat="40.8346" lon="14.0966333"><ele>21.0</ele><time>2026-05-04T15:15:27.404Z</time></trkpt><trkpt lat="40.8345617" lon="14.0967233"><ele>20.5</ele><time>2026-05-04T15:15:28.404Z</time></trkpt><trkpt lat="40.8345183" lon="14.096815"><ele>20.0</ele><time>2026-05-04T15:15:29.41Z</time></trkpt><trkpt lat="40.834475" lon="14.0969083"><ele>19.5</ele><time>2026-05-04T15:15:30.404Z</time></trkpt><trkpt lat="40.8344333" lon="14.0969983"><ele>19.0</ele><time>2026-05-04T15:15:31.404Z</time></trkpt><trkpt lat="40.8343917" lon="14.097085"><ele>18.5</ele><time>2026-05-04T15:15:32.407Z</time></trkpt><trkpt lat="40.8343533" lon="14.09716"><ele>18.0</ele><time>2026-05-04T15:15:33.406Z</time></trkpt><trkpt lat="40.8343167" lon="14.0972317"><ele>17.833333333333332</ele><time>2026-05-04T15:15:34.406Z</time></trkpt><trkpt lat="40.83428" lon="14.0973067"><ele>17.666666666666668</ele><time>2026-05-04T15:15:35.407Z</time></trkpt><trkpt lat="40.834245" lon="14.09738"><ele>17.5</ele><time>2026-05-04T15:15:36.403Z</time></trkpt><trkpt lat="40.83421" lon="14.0974517"><ele>17.333333333333336</ele><time>2026-05-04T15:15:37.406Z</time></trkpt><trkpt lat="40.8341783" lon="14.097525"><ele>17.166666666666668</ele><time>2026-05-04T15:15:38.403Z</time></trkpt><trkpt lat="40.83413" lon="14.0976633"><ele>17.0</ele><time>2026-05-04T15:15:40.403Z</time></trkpt><trkpt lat="40.8340867" lon="14.0977583"><ele>16.5</ele><time>2026-05-04T15:15:42.404Z</time></trkpt><trkpt lat="40.834025" lon="14.09785"><ele>16.0</ele><time>2026-05-04T15:15:45.402Z</time></trkpt><trkpt lat="40.8339717" lon="14.09792"><ele>15.5</ele><time>2026-05-04T15:15:47.402Z</time></trkpt><trkpt lat="40.8339" lon="14.0980017"><ele>15.0</ele><time>2026-05-04T15:15:50.403Z</time></trkpt><trkpt lat="40.83386" lon="14.0980967"><ele>14.500000000000002</ele><time>2026-05-04T15:15:52.402Z</time></trkpt><trkpt lat="40.83383" lon="14.098215"><ele>14.0</ele><time>2026-05-04T15:15:54.402Z</time></trkpt><trkpt lat="40.8337867" lon="14.09835"><ele>13.799999999999999</ele><time>2026-05-04T15:15:56.403Z</time></trkpt><trkpt lat="40.8337467" lon="14.0984617"><ele>13.599999999999998</ele><time>2026-05-04T15:15:58.403Z</time></trkpt><trkpt lat="40.8336967" lon="14.0985567"><ele>13.4</ele><time>2026-05-04T15:16:00.404Z</time></trkpt><trkpt lat="40.8336383" lon="14.0986483"><ele>13.2</ele><time>2026-05-04T15:16:02.408Z</time></trkpt><trkpt lat="40.8335783" lon="14.098755"><ele>13.0</ele><time>2026-05-04T15:16:04.41Z</time></trkpt><trkpt lat="40.833505" lon="14.0988633"><ele>12.25</ele><time>2026-05-04T15:16:06.402Z</time></trkpt><trkpt lat="40.8334417" lon="14.0989883"><ele>11.5</ele><time>2026-05-04T15:16:08.402Z</time></trkpt><trkpt lat="40.8333833" lon="14.0991167"><ele>10.75</ele><time>2026-05-04T15:16:10.403Z</time></trkpt><trkpt lat="40.83333" lon="14.099245"><ele>10.0</ele><time>2026-05-04T15:16:12.403Z</time></trkpt><trkpt lat="40.8332667" lon="14.0993767"><ele>9.6</ele><time>2026-05-04T15:16:14.402Z</time></trkpt><trkpt lat="40.8332" lon="14.099505"><ele>9.2</ele><time>2026-05-04T15:16:16.402Z</time></trkpt><trkpt lat="40.833135" lon="14.0996367"><ele>8.8</ele><time>2026-05-04T15:16:18.406Z</time></trkpt><trkpt lat="40.8330783" lon="14.099755"><ele>8.4</ele><time>2026-05-04T15:16:20.402Z</time></trkpt><trkpt lat="40.8330183" lon="14.0998717"><ele>8.0</ele><time>2026-05-04T15:16:22.408Z</time></trkpt><trkpt lat="40.832955" lon="14.1000033"><ele>7.800000000000001</ele><time>2026-05-04T15:16:24.401Z</time></trkpt><trkpt lat="40.8328967" lon="14.10013"><ele>7.6000000000000005</ele><time>2026-05-04T15:16:26.402Z</time></trkpt><trkpt lat="40.83285" lon="14.1002433"><ele>7.3999999999999995</ele><time>2026-05-04T15:16:28.402Z</time></trkpt><trkpt lat="40.8327983" lon="14.1003633"><ele>7.199999999999999</ele><time>2026-05-04T15:16:30.402Z</time></trkpt><trkpt lat="40.8327433" lon="14.10049"><ele>7.0</ele><time>2026-05-04T15:16:32.402Z</time></trkpt><trkpt lat="40.8326883" lon="14.10062"><ele>7.25</ele><time>2026-05-04T15:16:34.402Z</time></trkpt><trkpt lat="40.832665" lon="14.1007717"><ele>7.5</ele><time>2026-05-04T15:16:36.403Z</time></trkpt><trkpt lat="40.8326817" lon="14.1009217"><ele>7.75</ele><time>2026-05-04T15:16:38.403Z</time></trkpt><trkpt lat="40.8327367" lon="14.1010583"><ele>8.0</ele><time>2026-05-04T15:16:40.403Z</time></trkpt><trkpt lat="40.8328183" lon="14.1011833"><ele>8.0</ele><time>2026-05-04T15:16:42.403Z</time></trkpt><trkpt lat="40.83286" lon="14.1012467"><ele>7.999999999999999</ele><time>2026-05-04T15:16:43.402Z</time></trkpt><trkpt lat="40.8329067" lon="14.1013083"><ele>8.0</ele><time>2026-05-04T15:16:44.402Z</time></trkpt><trkpt lat="40.832955" lon="14.1013767"><ele>8.0</ele><time>2026-05-04T15:16:45.404Z</time></trkpt><trkpt lat="40.8330083" lon="14.1014433"><ele>7.999999999999999</ele><time>2026-05-04T15:16:46.403Z</time></trkpt><trkpt lat="40.8330567" lon="14.1015233"><ele>8.0</ele><time>2026-05-04T15:16:47.402Z</time></trkpt><trkpt lat="40.83311" lon="14.1015983"><ele>8.0</ele><time>2026-05-04T15:16:48.402Z</time></trkpt><trkpt lat="40.8331633" lon="14.101675"><ele>7.999999999999999</ele><time>2026-05-04T15:16:49.401Z</time></trkpt><trkpt lat="40.83322" lon="14.1017517"><ele>8.0</ele><time>2026-05-04T15:16:50.402Z</time></trkpt><trkpt lat="40.833275" lon="14.1018283"><ele>8.0</ele><time>2026-05-04T15:16:51.402Z</time></trkpt><trkpt lat="40.8333283" lon="14.1019033"><ele>8.0</ele><time>2026-05-04T15:16:52.401Z</time></trkpt><trkpt lat="40.8333783" lon="14.101985"><ele>7.999999999999999</ele><time>2026-05-04T15:16:53.402Z</time></trkpt><trkpt lat="40.83343" lon="14.1020633"><ele>8.0</ele><time>2026-05-04T15:16:54.401Z</time></trkpt><trkpt lat="40.83348" lon="14.10214"><ele>8.0</ele><time>2026-05-04T15:16:55.403Z</time></trkpt><trkpt lat="40.8335283" lon="14.1022117"><ele>7.999999999999999</ele><time>2026-05-04T15:16:56.402Z</time></trkpt><trkpt lat="40.8335767" lon="14.1022867"><ele>8.0</ele><time>2026-05-04T15:16:57.403Z</time></trkpt><trkpt lat="40.8336233" lon="14.1023567"><ele>8.0</ele><time>2026-05-04T15:16:58.403Z</time></trkpt><trkpt lat="40.833675" lon="14.102425"><ele>7.999999999999999</ele><time>2026-05-04T15:16:59.406Z</time></trkpt><trkpt lat="40.8337233" lon="14.1024983"><ele>8.0</ele><time>2026-05-04T15:17:00.402Z</time></trkpt><trkpt lat="40.83377" lon="14.1025717"><ele>8.0</ele><time>2026-05-04T15:17:01.402Z</time></trkpt><trkpt lat="40.8338217" lon="14.10264"><ele>8.142857142857142</ele><time>2026-05-04T15:17:02.402Z</time></trkpt><trkpt lat="40.8338733" lon="14.1027117"><ele>8.285714285714285</ele><time>2026-05-04T15:17:03.401Z</time></trkpt><trkpt lat="40.83392" lon="14.1027883"><ele>8.428571428571429</ele><time>2026-05-04T15:17:04.404Z</time></trkpt><trkpt lat="40.8339617" lon="14.1028683"><ele>8.571428571428571</ele><time>2026-05-04T15:17:05.404Z</time></trkpt><trkpt lat="40.834" lon="14.1029467"><ele>8.714285714285715</ele><time>2026-05-04T15:17:06.403Z</time></trkpt><trkpt lat="40.8340383" lon="14.103025"><ele>8.857142857142858</ele><time>2026-05-04T15:17:07.403Z</time></trkpt><trkpt lat="40.8340717" lon="14.103105"><ele>9.0</ele><time>2026-05-04T15:17:08.403Z</time></trkpt><trkpt lat="40.8341" lon="14.10319"><ele>9.333333333333334</ele><time>2026-05-04T15:17:09.402Z</time></trkpt><trkpt lat="40.8341233" lon="14.103275"><ele>9.666666666666666</ele><time>2026-05-04T15:17:10.402Z</time></trkpt><trkpt lat="40.83415" lon="14.1033517"><ele>10.0</ele><time>2026-05-04T15:17:11.402Z</time></trkpt><trkpt lat="40.834165" lon="14.103435"><ele>10.333333333333332</ele><time>2026-05-04T15:17:12.401Z</time></trkpt><trkpt lat="40.8341817" lon="14.1035933"><ele>10.666666666666666</ele><time>2026-05-04T15:17:14.403Z</time></trkpt><trkpt lat="40.834185" lon="14.1037567"><ele>11.0</ele><time>2026-05-04T15:17:16.404Z</time></trkpt><trkpt lat="40.83418" lon="14.1038467"><ele>11.0</ele><time>2026-05-04T15:17:17.403Z</time></trkpt><trkpt lat="40.83417" lon="14.1039317"><ele>11.0</ele><time>2026-05-04T15:17:18.404Z</time></trkpt><trkpt lat="40.8341583" lon="14.10402"><ele>11.0</ele><time>2026-05-04T15:17:19.412Z</time></trkpt><trkpt lat="40.83416" lon="14.1041033"><ele>11.0</ele><time>2026-05-04T15:17:20.404Z</time></trkpt><trkpt lat="40.8341517" lon="14.10426"><ele>11.0</ele><time>2026-05-04T15:17:22.403Z</time></trkpt><trkpt lat="40.8341583" lon="14.1044133"><ele>11.0</ele><time>2026-05-04T15:17:24.403Z</time></trkpt><trkpt lat="40.834165" lon="14.1044983"><ele>10.833333333333332</ele><time>2026-05-04T15:17:25.404Z</time></trkpt><trkpt lat="40.8341683" lon="14.1046683"><ele>10.666666666666666</ele><time>2026-05-04T15:17:27.402Z</time></trkpt><trkpt lat="40.834165" lon="14.1047517"><ele>10.5</ele><time>2026-05-04T15:17:28.403Z</time></trkpt><trkpt lat="40.8341567" lon="14.1049233"><ele>10.333333333333334</ele><time>2026-05-04T15:17:30.403Z</time></trkpt><trkpt lat="40.8341583" lon="14.1050067"><ele>10.166666666666668</ele><time>2026-05-04T15:17:31.403Z</time></trkpt><trkpt lat="40.8341567" lon="14.1050917"><ele>10.0</ele><time>2026-05-04T15:17:32.404Z</time></trkpt><trkpt lat="40.8341583" lon="14.1051767"><ele>10.333333333333334</ele><time>2026-05-04T15:17:33.403Z</time></trkpt><trkpt lat="40.8341617" lon="14.10526"><ele>10.666666666666668</ele><time>2026-05-04T15:17:34.403Z</time></trkpt><trkpt lat="40.834165" lon="14.1053433"><ele>11.0</ele><time>2026-05-04T15:17:35.404Z</time></trkpt><trkpt lat="40.8341667" lon="14.1054283"><ele>11.333333333333334</ele><time>2026-05-04T15:17:36.402Z</time></trkpt><trkpt lat="40.83417" lon="14.1055833"><ele>11.666666666666666</ele><time>2026-05-04T15:17:38.404Z</time></trkpt><trkpt lat="40.8341633" lon="14.1057383"><ele>12.0</ele><time>2026-05-04T15:17:40.404Z</time></trkpt><trkpt lat="40.8341483" lon="14.10588"><ele>12.2</ele><time>2026-05-04T15:17:42.404Z</time></trkpt><trkpt lat="40.8341367" lon="14.1060133"><ele>12.399999999999999</ele><time>2026-05-04T15:17:44.403Z</time></trkpt><trkpt lat="40.8341267" lon="14.10615"><ele>12.600000000000001</ele><time>2026-05-04T15:17:46.405Z</time></trkpt><trkpt lat="40.83411" lon="14.10629"><ele>12.8</ele><time>2026-05-04T15:17:48.404Z</time></trkpt><trkpt lat="40.8340933" lon="14.1064367"><ele>13.0</ele><time>2026-05-04T15:17:50.402Z</time></trkpt><trkpt lat="40.8340717" lon="14.1065883"><ele>13.166666666666666</ele><time>2026-05-04T15:17:52.404Z</time></trkpt><trkpt lat="40.83406" lon="14.1066733"><ele>13.333333333333332</ele><time>2026-05-04T15:17:53.404Z</time></trkpt><trkpt lat="40.8340483" lon="14.1067567"><ele>13.5</ele><time>2026-05-04T15:17:54.403Z</time></trkpt><trkpt lat="40.8340333" lon="14.10684"><ele>13.666666666666668</ele><time>2026-05-04T15:17:55.403Z</time></trkpt><trkpt lat="40.834025" lon="14.1069783"><ele>13.833333333333334</ele><time>2026-05-04T15:17:57.404Z</time></trkpt><trkpt lat="40.8340267" lon="14.1070617"><ele>14.0</ele><time>2026-05-04T15:17:59.403Z</time></trkpt><trkpt lat="40.83401" lon="14.1071817"><ele>14.000000000000002</ele><time>2026-05-04T15:18:02.405Z</time></trkpt><trkpt lat="40.8339883" lon="14.1072967"><ele>14.0</ele><time>2026-05-04T15:18:05.404Z</time></trkpt><trkpt lat="40.8339717" lon="14.1073783"><ele>14.0</ele><time>2026-05-04T15:18:07.404Z</time></trkpt><trkpt lat="40.83395" lon="14.1074717"><ele>14.0</ele><time>2026-05-04T15:18:09.404Z</time></trkpt><trkpt lat="40.83393" lon="14.107575"><ele>14.000000000000002</ele><time>2026-05-04T15:18:11.404Z</time></trkpt><trkpt lat="40.83391" lon="14.107685"><ele>14.0</ele><time>2026-05-04T15:18:13.404Z</time></trkpt><trkpt lat="40.8339" lon="14.107805"><ele>14.2</ele><time>2026-05-04T15:18:15.406Z</time></trkpt><trkpt lat="40.8338833" lon="14.1079333"><ele>14.399999999999999</ele><time>2026-05-04T15:18:17.403Z</time></trkpt><trkpt lat="40.8338683" lon="14.10807"><ele>14.6</ele><time>2026-05-04T15:18:19.404Z</time></trkpt><trkpt lat="40.8338467" lon="14.1082117"><ele>14.8</ele><time>2026-05-04T15:18:21.402Z</time></trkpt><trkpt lat="40.8338267" lon="14.1083617"><ele>15.0</ele><time>2026-05-04T15:18:23.405Z</time></trkpt><trkpt lat="40.8338167" lon="14.1084467"><ele>15.428571428571429</ele><time>2026-05-04T15:18:24.403Z</time></trkpt><trkpt lat="40.8338017" lon="14.1085333"><ele>15.857142857142858</ele><time>2026-05-04T15:18:25.403Z</time></trkpt><trkpt lat="40.8337817" lon="14.1086233"><ele>16.285714285714285</ele><time>2026-05-04T15:18:26.404Z</time></trkpt><trkpt lat="40.83376" lon="14.1087133"><ele>16.714285714285715</ele><time>2026-05-04T15:18:27.404Z</time></trkpt><trkpt lat="40.8337333" lon="14.1088017"><ele>17.142857142857142</ele><time>2026-05-04T15:18:28.403Z</time></trkpt><trkpt lat="40.8336983" lon="14.1088867"><ele>17.571428571428573</ele><time>2026-05-04T15:18:29.404Z</time></trkpt><trkpt lat="40.8336517" lon="14.10897"><ele>18.0</ele><time>2026-05-04T15:18:30.403Z</time></trkpt><trkpt lat="40.8335917" lon="14.1090433"><ele>16.5</ele><time>2026-05-04T15:18:31.404Z</time></trkpt><trkpt lat="40.83353" lon="14.109115"><ele>15.0</ele><time>2026-05-04T15:18:32.404Z</time></trkpt><trkpt lat="40.83346" lon="14.10917"><ele>13.5</ele><time>2026-05-04T15:18:33.403Z</time></trkpt><trkpt lat="40.83338" lon="14.1092233"><ele>12.0</ele><time>2026-05-04T15:18:34.404Z</time></trkpt><trkpt lat="40.8332933" lon="14.1092717"><ele>10.5</ele><time>2026-05-04T15:18:35.404Z</time></trkpt><trkpt lat="40.83321" lon="14.1092983"><ele>9.0</ele><time>2026-05-04T15:18:36.404Z</time></trkpt><trkpt lat="40.8331233" lon="14.1093417"><ele>9.0</ele><time>2026-05-04T15:18:37.403Z</time></trkpt><trkpt lat="40.8330383" lon="14.1094"><ele>9.0</ele><time>2026-05-04T15:18:38.403Z</time></trkpt><trkpt lat="40.8329667" lon="14.10947"><ele>9.0</ele><time>2026-05-04T15:18:39.403Z</time></trkpt><trkpt lat="40.8329" lon="14.109555"><ele>9.0</ele><time>2026-05-04T15:18:40.404Z</time></trkpt><trkpt lat="40.8328433" lon="14.10965"><ele>9.0</ele><time>2026-05-04T15:18:41.405Z</time></trkpt><trkpt lat="40.8327883" lon="14.1097467"><ele>9.0</ele><time>2026-05-04T15:18:42.403Z</time></trkpt><trkpt lat="40.832745" lon="14.1098533"><ele>9.0</ele><time>2026-05-04T15:18:43.404Z</time></trkpt><trkpt lat="40.8327033" lon="14.1099567"><ele>9.0</ele><time>2026-05-04T15:18:44.403Z</time></trkpt><trkpt lat="40.8326683" lon="14.1100633"><ele>9.0</ele><time>2026-05-04T15:18:45.404Z</time></trkpt><trkpt lat="40.8326333" lon="14.1101633"><ele>9.0</ele><time>2026-05-04T15:18:46.402Z</time></trkpt><trkpt lat="40.832595" lon="14.1102617"><ele>9.0</ele><time>2026-05-04T15:18:47.403Z</time></trkpt><trkpt lat="40.8325533" lon="14.1103567"><ele>8.833333333333334</ele><time>2026-05-04T15:18:48.403Z</time></trkpt><trkpt lat="40.8325083" lon="14.11045"><ele>8.666666666666666</ele><time>2026-05-04T15:18:49.404Z</time></trkpt><trkpt lat="40.8324567" lon="14.11054"><ele>8.5</ele><time>2026-05-04T15:18:50.403Z</time></trkpt><trkpt lat="40.832405" lon="14.1106267"><ele>8.333333333333332</ele><time>2026-05-04T15:18:51.403Z</time></trkpt><trkpt lat="40.832355" lon="14.1107133"><ele>8.166666666666666</ele><time>2026-05-04T15:18:52.403Z</time></trkpt><trkpt lat="40.8323033" lon="14.1108017"><ele>8.0</ele><time>2026-05-04T15:18:53.403Z</time></trkpt><trkpt lat="40.832255" lon="14.110885"><ele>8.857142857142858</ele><time>2026-05-04T15:18:54.403Z</time></trkpt><trkpt lat="40.8322033" lon="14.110965"><ele>9.714285714285714</ele><time>2026-05-04T15:18:55.405Z</time></trkpt><trkpt lat="40.8321583" lon="14.1110433"><ele>10.571428571428571</ele><time>2026-05-04T15:18:56.405Z</time></trkpt><trkpt lat="40.832115" lon="14.1111217"><ele>11.428571428571429</ele><time>2026-05-04T15:18:57.404Z</time></trkpt><trkpt lat="40.8320767" lon="14.1111983"><ele>12.285714285714285</ele><time>2026-05-04T15:18:58.404Z</time></trkpt><trkpt lat="40.8320417" lon="14.1112683"><ele>13.142857142857142</ele><time>2026-05-04T15:18:59.404Z</time></trkpt><trkpt lat="40.8319983" lon="14.11133"><ele>14.0</ele><time>2026-05-04T15:19:00.403Z</time></trkpt><trkpt lat="40.8319567" lon="14.1114017"><ele>14.000000000000002</ele><time>2026-05-04T15:19:01.404Z</time></trkpt><trkpt lat="40.8319117" lon="14.1114717"><ele>14.0</ele><time>2026-05-04T15:19:02.403Z</time></trkpt><trkpt lat="40.8318667" lon="14.111545"><ele>14.0</ele><time>2026-05-04T15:19:03.404Z</time></trkpt><trkpt lat="40.8318233" lon="14.11161"><ele>14.0</ele><time>2026-05-04T15:19:04.404Z</time></trkpt><trkpt lat="40.8317467" lon="14.111745"><ele>14.000000000000002</ele><time>2026-05-04T15:19:06.404Z</time></trkpt><trkpt lat="40.8317083" lon="14.1118183"><ele>14.0</ele><time>2026-05-04T15:19:07.403Z</time></trkpt><trkpt lat="40.8316717" lon="14.1118883"><ele>14.142857142857142</ele><time>2026-05-04T15:19:08.404Z</time></trkpt><trkpt lat="40.8316383" lon="14.11196"><ele>14.285714285714285</ele><time>2026-05-04T15:19:09.402Z</time></trkpt><trkpt lat="40.8316" lon="14.1120333"><ele>14.428571428571429</ele><time>2026-05-04T15:19:10.405Z</time></trkpt><trkpt lat="40.831555" lon="14.1121083"><ele>14.571428571428571</ele><time>2026-05-04T15:19:11.404Z</time></trkpt><trkpt lat="40.83151" lon="14.1121817"><ele>14.714285714285714</ele><time>2026-05-04T15:19:12.403Z</time></trkpt><trkpt lat="40.8314667" lon="14.1122617"><ele>14.857142857142858</ele><time>2026-05-04T15:19:13.405Z</time></trkpt><trkpt lat="40.8314233" lon="14.1123417"><ele>15.0</ele><time>2026-05-04T15:19:14.404Z</time></trkpt><trkpt lat="40.8313783" lon="14.1124233"><ele>15.0</ele><time>2026-05-04T15:19:15.405Z</time></trkpt><trkpt lat="40.8313367" lon="14.1125033"><ele>15.0</ele><time>2026-05-04T15:19:16.403Z</time></trkpt><trkpt lat="40.8312933" lon="14.112585"><ele>15.0</ele><time>2026-05-04T15:19:17.404Z</time></trkpt><trkpt lat="40.8312517" lon="14.112665"><ele>15.0</ele><time>2026-05-04T15:19:18.403Z</time></trkpt><trkpt lat="40.8312067" lon="14.1127483"><ele>15.0</ele><time>2026-05-04T15:19:19.403Z</time></trkpt><trkpt lat="40.83116" lon="14.1128217"><ele>15.0</ele><time>2026-05-04T15:19:20.403Z</time></trkpt><trkpt lat="40.8311083" lon="14.1128983"><ele>15.0</ele><time>2026-05-04T15:19:21.403Z</time></trkpt><trkpt lat="40.8310633" lon="14.11298"><ele>15.0</ele><time>2026-05-04T15:19:22.405Z</time></trkpt><trkpt lat="40.8310233" lon="14.1130533"><ele>15.0</ele><time>2026-05-04T15:19:23.404Z</time></trkpt><trkpt lat="40.8309783" lon="14.1131267"><ele>15.0</ele><time>2026-05-04T15:19:24.402Z</time></trkpt><trkpt lat="40.830935" lon="14.1132"><ele>15.0</ele><time>2026-05-04T15:19:25.404Z</time></trkpt><trkpt lat="40.8308917" lon="14.1132717"><ele>15.0</ele><time>2026-05-04T15:19:26.405Z</time></trkpt><trkpt lat="40.83085" lon="14.11334"><ele>15.0</ele><time>2026-05-04T15:19:27.403Z</time></trkpt><trkpt lat="40.8308" lon="14.113405"><ele>14.166666666666666</ele><time>2026-05-04T15:19:28.404Z</time></trkpt><trkpt lat="40.8306917" lon="14.1134933"><ele>13.333333333333334</ele><time>2026-05-04T15:19:30.403Z</time></trkpt><trkpt lat="40.830625" lon="14.1135083"><ele>12.5</ele><time>2026-05-04T15:19:31.404Z</time></trkpt><trkpt lat="40.8305517" lon="14.113525"><ele>11.666666666666668</ele><time>2026-05-04T15:19:32.404Z</time></trkpt><trkpt lat="40.8304833" lon="14.1135533"><ele>10.833333333333334</ele><time>2026-05-04T15:19:33.403Z</time></trkpt><trkpt lat="40.83042" lon="14.1135967"><ele>10.0</ele><time>2026-05-04T15:19:34.406Z</time></trkpt><trkpt lat="40.83036" lon="14.11366"><ele>10.0</ele><time>2026-05-04T15:19:35.404Z</time></trkpt><trkpt lat="40.8303067" lon="14.1137333"><ele>10.0</ele><time>2026-05-04T15:19:36.405Z</time></trkpt><trkpt lat="40.830255" lon="14.113815"><ele>10.0</ele><time>2026-05-04T15:19:37.404Z</time></trkpt><trkpt lat="40.8302117" lon="14.1138917"><ele>10.0</ele><time>2026-05-04T15:19:38.404Z</time></trkpt><trkpt lat="40.830165" lon="14.1139667"><ele>10.0</ele><time>2026-05-04T15:19:39.404Z</time></trkpt><trkpt lat="40.8301217" lon="14.1140417"><ele>10.0</ele><time>2026-05-04T15:19:40.403Z</time></trkpt><trkpt lat="40.830075" lon="14.1141183"><ele>10.0</ele><time>2026-05-04T15:19:41.405Z</time></trkpt><trkpt lat="40.8300283" lon="14.1141983"><ele>9.285714285714285</ele><time>2026-05-04T15:19:42.403Z</time></trkpt><trkpt lat="40.8299833" lon="14.1142717"><ele>8.571428571428571</ele><time>2026-05-04T15:19:43.403Z</time></trkpt><trkpt lat="40.829935" lon="14.1143433"><ele>7.857142857142858</ele><time>2026-05-04T15:19:44.409Z</time></trkpt><trkpt lat="40.8298917" lon="14.114415"><ele>7.142857142857142</ele><time>2026-05-04T15:19:45.404Z</time></trkpt><trkpt lat="40.8298483" lon="14.1144867"><ele>6.428571428571429</ele><time>2026-05-04T15:19:46.404Z</time></trkpt><trkpt lat="40.8298017" lon="14.1145617"><ele>5.714285714285714</ele><time>2026-05-04T15:19:47.404Z</time></trkpt><trkpt lat="40.8297533" lon="14.11463"><ele>5.0</ele><time>2026-05-04T15:19:48.405Z</time></trkpt><trkpt lat="40.8296983" lon="14.1146933"><ele>5.0</ele><time>2026-05-04T15:19:49.405Z</time></trkpt><trkpt lat="40.8296383" lon="14.11475"><ele>5.0</ele><time>2026-05-04T15:19:50.404Z</time></trkpt><trkpt lat="40.8295817" lon="14.11481"><ele>5.0</ele><time>2026-05-04T15:19:51.404Z</time></trkpt><trkpt lat="40.829535" lon="14.11488"><ele>5.0</ele><time>2026-05-04T15:19:52.404Z</time></trkpt><trkpt lat="40.8295017" lon="14.1149683"><ele>5.0</ele><time>2026-05-04T15:19:53.405Z</time></trkpt><trkpt lat="40.829485" lon="14.1150633"><ele>5.0</ele><time>2026-05-04T15:19:54.404Z</time></trkpt><trkpt lat="40.8294867" lon="14.115165"><ele>5.0</ele><time>2026-05-04T15:19:55.404Z</time></trkpt><trkpt lat="40.8295017" lon="14.1152667"><ele>5.666666666666667</ele><time>2026-05-04T15:19:56.404Z</time></trkpt><trkpt lat="40.8295183" lon="14.1153733"><ele>6.333333333333334</ele><time>2026-05-04T15:19:57.403Z</time></trkpt><trkpt lat="40.829525" lon="14.1154833"><ele>7.0</ele><time>2026-05-04T15:19:58.403Z</time></trkpt><trkpt lat="40.829525" lon="14.1155933"><ele>7.666666666666667</ele><time>2026-05-04T15:19:59.404Z</time></trkpt><trkpt lat="40.8295133" lon="14.1157017"><ele>8.333333333333334</ele><time>2026-05-04T15:20:00.404Z</time></trkpt><trkpt lat="40.8294917" lon="14.1158033"><ele>9.0</ele><time>2026-05-04T15:20:01.403Z</time></trkpt><trkpt lat="40.8294633" lon="14.1159"><ele>9.5</ele><time>2026-05-04T15:20:02.404Z</time></trkpt><trkpt lat="40.8294283" lon="14.1159917"><ele>10.0</ele><time>2026-05-04T15:20:03.404Z</time></trkpt><trkpt lat="40.8293883" lon="14.116075"><ele>10.5</ele><time>2026-05-04T15:20:04.403Z</time></trkpt><trkpt lat="40.8293433" lon="14.1161583"><ele>11.0</ele><time>2026-05-04T15:20:05.404Z</time></trkpt><trkpt lat="40.8293067" lon="14.1162467"><ele>11.5</ele><time>2026-05-04T15:20:06.404Z</time></trkpt><trkpt lat="40.8292733" lon="14.116335"><ele>12.0</ele><time>2026-05-04T15:20:07.405Z</time></trkpt><trkpt lat="40.8292417" lon="14.1164233"><ele>11.142857142857142</ele><time>2026-05-04T15:20:08.404Z</time></trkpt><trkpt lat="40.8292133" lon="14.1165117"><ele>10.285714285714285</ele><time>2026-05-04T15:20:09.405Z</time></trkpt><trkpt lat="40.829185" lon="14.1165983"><ele>9.428571428571427</ele><time>2026-05-04T15:20:10.403Z</time></trkpt><trkpt lat="40.8291533" lon="14.11668"><ele>8.571428571428571</ele><time>2026-05-04T15:20:11.404Z</time></trkpt><trkpt lat="40.8291217" lon="14.11676"><ele>7.7142857142857135</ele><time>2026-05-04T15:20:12.408Z</time></trkpt><trkpt lat="40.8290933" lon="14.11684"><ele>6.857142857142857</ele><time>2026-05-04T15:20:13.403Z</time></trkpt><trkpt lat="40.82907" lon="14.1169217"><ele>6.0</ele><time>2026-05-04T15:20:14.403Z</time></trkpt><trkpt lat="40.8290383" lon="14.1170017"><ele>5.999999999999999</ele><time>2026-05-04T15:20:15.402Z</time></trkpt><trkpt lat="40.8290067" lon="14.117085"><ele>6.0</ele><time>2026-05-04T15:20:16.401Z</time></trkpt><trkpt lat="40.828975" lon="14.117165"><ele>6.0</ele><time>2026-05-04T15:20:17.402Z</time></trkpt><trkpt lat="40.8289433" lon="14.1172483"><ele>6.0</ele><time>2026-05-04T15:20:18.402Z</time></trkpt><trkpt lat="40.8289117" lon="14.117335"><ele>6.0</ele><time>2026-05-04T15:20:19.402Z</time></trkpt><trkpt lat="40.8288767" lon="14.117415"><ele>5.999999999999999</ele><time>2026-05-04T15:20:20.401Z</time></trkpt><trkpt lat="40.82884" lon="14.1174967"><ele>6.0</ele><time>2026-05-04T15:20:21.401Z</time></trkpt><trkpt lat="40.8288" lon="14.1175767"><ele>6.857142857142857</ele><time>2026-05-04T15:20:22.402Z</time></trkpt><trkpt lat="40.8287583" lon="14.117655"><ele>7.7142857142857135</ele><time>2026-05-04T15:20:23.402Z</time></trkpt><trkpt lat="40.82872" lon="14.1177317"><ele>8.571428571428571</ele><time>2026-05-04T15:20:24.401Z</time></trkpt><trkpt lat="40.828685" lon="14.11781"><ele>9.428571428571427</ele><time>2026-05-04T15:20:25.403Z</time></trkpt><trkpt lat="40.82865" lon="14.1178833"><ele>10.285714285714285</ele><time>2026-05-04T15:20:26.402Z</time></trkpt><trkpt lat="40.8286067" lon="14.117955"><ele>11.142857142857142</ele><time>2026-05-04T15:20:27.403Z</time></trkpt><trkpt lat="40.8285633" lon="14.11803"><ele>12.0</ele><time>2026-05-04T15:20:28.404Z</time></trkpt><trkpt lat="40.82852" lon="14.118105"><ele>11.142857142857142</ele><time>2026-05-04T15:20:29.402Z</time></trkpt><trkpt lat="40.8284667" lon="14.1181733"><ele>10.285714285714285</ele><time>2026-05-04T15:20:30.402Z</time></trkpt><trkpt lat="40.82841" lon="14.1182367"><ele>9.428571428571427</ele><time>2026-05-04T15:20:31.401Z</time></trkpt><trkpt lat="40.8283517" lon="14.118295"><ele>8.571428571428571</ele><time>2026-05-04T15:20:32.403Z</time></trkpt><trkpt lat="40.8282917" lon="14.1183483"><ele>7.7142857142857135</ele><time>2026-05-04T15:20:33.404Z</time></trkpt><trkpt lat="40.8282233" lon="14.118395"><ele>6.857142857142857</ele><time>2026-05-04T15:20:34.402Z</time></trkpt><trkpt lat="40.8281567" lon="14.1184367"><ele>6.0</ele><time>2026-05-04T15:20:35.403Z</time></trkpt><trkpt lat="40.828095" lon="14.1184817"><ele>5.999999999999999</ele><time>2026-05-04T15:20:36.402Z</time></trkpt><trkpt lat="40.8280283" lon="14.1185233"><ele>6.0</ele><time>2026-05-04T15:20:37.403Z</time></trkpt><trkpt lat="40.8279667" lon="14.1185633"><ele>6.0</ele><time>2026-05-04T15:20:38.402Z</time></trkpt><trkpt lat="40.8279033" lon="14.118605"><ele>6.0</ele><time>2026-05-04T15:20:39.401Z</time></trkpt><trkpt lat="40.8278383" lon="14.1186433"><ele>6.0</ele><time>2026-05-04T15:20:40.402Z</time></trkpt><trkpt lat="40.8277733" lon="14.1186817"><ele>5.999999999999999</ele><time>2026-05-04T15:20:41.401Z</time></trkpt><trkpt lat="40.827715" lon="14.1187283"><ele>6.0</ele><time>2026-05-04T15:20:42.402Z</time></trkpt><trkpt lat="40.8276567" lon="14.118785"><ele>6.0</ele><time>2026-05-04T15:20:43.403Z</time></trkpt><trkpt lat="40.8276017" lon="14.11885"><ele>6.0</ele><time>2026-05-04T15:20:44.403Z</time></trkpt><trkpt lat="40.8275433" lon="14.1189083"><ele>6.0</ele><time>2026-05-04T15:20:45.402Z</time></trkpt><trkpt lat="40.8274917" lon="14.1189667"><ele>6.0</ele><time>2026-05-04T15:20:46.401Z</time></trkpt><trkpt lat="40.8274417" lon="14.1190283"><ele>6.0</ele><time>2026-05-04T15:20:47.402Z</time></trkpt><trkpt lat="40.8273983" lon="14.11909"><ele>6.0</ele><time>2026-05-04T15:20:48.402Z</time></trkpt><trkpt lat="40.82732" lon="14.1192133"><ele>6.8</ele><time>2026-05-04T15:20:50.402Z</time></trkpt><trkpt lat="40.82726" lon="14.11933"><ele>7.6</ele><time>2026-05-04T15:20:52.403Z</time></trkpt><trkpt lat="40.8271917" lon="14.1194417"><ele>8.4</ele><time>2026-05-04T15:20:54.402Z</time></trkpt><trkpt lat="40.8270983" lon="14.119525"><ele>9.2</ele><time>2026-05-04T15:20:56.402Z</time></trkpt><trkpt lat="40.8269967" lon="14.1195767"><ele>10.0</ele><time>2026-05-04T15:20:58.402Z</time></trkpt><trkpt lat="40.8269" lon="14.1195933"><ele>9.2</ele><time>2026-05-04T15:21:00.401Z</time></trkpt><trkpt lat="40.8268017" lon="14.1195867"><ele>8.4</ele><time>2026-05-04T15:21:02.402Z</time></trkpt><trkpt lat="40.8267133" lon="14.1195617"><ele>7.6</ele><time>2026-05-04T15:21:04.401Z</time></trkpt><trkpt lat="40.826615" lon="14.1195517"><ele>6.8</ele><time>2026-05-04T15:21:06.401Z</time></trkpt><trkpt lat="40.8265167" lon="14.11953"><ele>6.0</ele><time>2026-05-04T15:21:08.401Z</time></trkpt><trkpt lat="40.8264033" lon="14.1195083"><ele>6.0</ele><time>2026-05-04T15:21:10.401Z</time></trkpt><trkpt lat="40.8262967" lon="14.1194983"><ele>6.0</ele><time>2026-05-04T15:21:12.402Z</time></trkpt><trkpt lat="40.8261867" lon="14.1194733"><ele>6.0</ele><time>2026-05-04T15:21:14.401Z</time></trkpt><trkpt lat="40.82612" lon="14.1194517"><ele>6.0</ele><time>2026-05-04T15:21:15.402Z</time></trkpt><trkpt lat="40.8260567" lon="14.1194483"><ele>6.0</ele><time>2026-05-04T15:21:16.402Z</time></trkpt><trkpt lat="40.8259883" lon="14.1194583"><ele>6.0</ele><time>2026-05-04T15:21:17.401Z</time></trkpt><trkpt lat="40.8259267" lon="14.1194867"><ele>5.5</ele><time>2026-05-04T15:21:18.402Z</time></trkpt><trkpt lat="40.8258667" lon="14.1195267"><ele>5.0</ele><time>2026-05-04T15:21:19.402Z</time></trkpt><trkpt lat="40.82581" lon="14.1195717"><ele>4.5</ele><time>2026-05-04T15:21:20.401Z</time></trkpt><trkpt lat="40.825755" lon="14.1196217"><ele>4.0</ele><time>2026-05-04T15:21:21.402Z</time></trkpt><trkpt lat="40.8257" lon="14.11967"><ele>3.5</ele><time>2026-05-04T15:21:22.402Z</time></trkpt><trkpt lat="40.8255967" lon="14.11976"><ele>3.0</ele><time>2026-05-04T15:21:24.401Z</time></trkpt><trkpt lat="40.8254967" lon="14.119855"><ele>3.4</ele><time>2026-05-04T15:21:26.402Z</time></trkpt><trkpt lat="40.8254033" lon="14.11994"><ele>3.8</ele><time>2026-05-04T15:21:28.402Z</time></trkpt><trkpt lat="40.8253117" lon="14.1200133"><ele>4.2</ele><time>2026-05-04T15:21:30.402Z</time></trkpt><trkpt lat="40.82522" lon="14.1200717"><ele>4.6</ele><time>2026-05-04T15:21:32.403Z</time></trkpt><trkpt lat="40.8251133" lon="14.120125"><ele>5.0</ele><time>2026-05-04T15:21:34.402Z</time></trkpt><trkpt lat="40.8250533" lon="14.1201567"><ele>5.0</ele><time>2026-05-04T15:21:35.402Z</time></trkpt><trkpt lat="40.8249967" lon="14.1201933"><ele>5.0</ele><time>2026-05-04T15:21:36.402Z</time></trkpt><trkpt lat="40.8248933" lon="14.1202583"><ele>5.0</ele><time>2026-05-04T15:21:38.403Z</time></trkpt><trkpt lat="40.8247833" lon="14.120305"><ele>5.0</ele><time>2026-05-04T15:21:40.402Z</time></trkpt><trkpt lat="40.8246817" lon="14.1203533"><ele>5.0</ele><time>2026-05-04T15:21:42.402Z</time></trkpt><trkpt lat="40.8245867" lon="14.1204017"><ele>5.0</ele><time>2026-05-04T15:21:44.401Z</time></trkpt><trkpt lat="40.8244967" lon="14.1204467"><ele>5.0</ele><time>2026-05-04T15:21:46.402Z</time></trkpt><trkpt lat="40.824415" lon="14.120495"><ele>5.0</ele><time>2026-05-04T15:21:48.401Z</time></trkpt><trkpt lat="40.82434" lon="14.12054"><ele>5.0</ele><time>2026-05-04T15:21:50.403Z</time></trkpt><trkpt lat="40.8242683" lon="14.120585"><ele>5.0</ele><time>2026-05-04T15:21:52.402Z</time></trkpt><trkpt lat="40.8241983" lon="14.1206317"><ele>5.0</ele><time>2026-05-04T15:21:54.402Z</time></trkpt><trkpt lat="40.8241217" lon="14.1206667"><ele>5.142857142857142</ele><time>2026-05-04T15:21:56.401Z</time></trkpt><trkpt lat="40.8240383" lon="14.1206817"><ele>5.285714285714286</ele><time>2026-05-04T15:21:58.403Z</time></trkpt><trkpt lat="40.8239633" lon="14.1206833"><ele>5.428571428571429</ele><time>2026-05-04T15:22:00.402Z</time></trkpt><trkpt lat="40.8238983" lon="14.120685"><ele>5.571428571428571</ele><time>2026-05-04T15:22:02.402Z</time></trkpt><trkpt lat="40.82383" lon="14.1206717"><ele>5.714285714285714</ele><time>2026-05-04T15:22:07.402Z</time></trkpt><trkpt lat="40.823785" lon="14.1207533"><ele>5.857142857142857</ele><time>2026-05-04T15:22:11.401Z</time></trkpt><trkpt lat="40.82376" lon="14.1208333"><ele>6.0</ele><time>2026-05-04T15:22:14.402Z</time></trkpt><trkpt lat="40.8237367" lon="14.1209317"><ele>6.0</ele><time>2026-05-04T15:22:17.402Z</time></trkpt><trkpt lat="40.8237133" lon="14.1210467"><ele>6.0</ele><time>2026-05-04T15:22:20.401Z</time></trkpt><trkpt lat="40.8236483" lon="14.1211233"><ele>6.0</ele><time>2026-05-04T15:22:23.401Z</time></trkpt><trkpt lat="40.8235833" lon="14.12113"><ele>6.0</ele><time>2026-05-04T15:22:25.401Z</time></trkpt><trkpt lat="40.8235033" lon="14.1211283"><ele>6.0</ele><time>2026-05-04T15:22:27.402Z</time></trkpt><trkpt lat="40.8234067" lon="14.1211333"><ele>6.0</ele><time>2026-05-04T15:22:29.402Z</time></trkpt><trkpt lat="40.8232983" lon="14.1211383"><ele>6.6</ele><time>2026-05-04T15:22:31.401Z</time></trkpt><trkpt lat="40.8231933" lon="14.1211233"><ele>7.199999999999999</ele><time>2026-05-04T15:22:33.401Z</time></trkpt><trkpt lat="40.82309" lon="14.1210867"><ele>7.800000000000001</ele><time>2026-05-04T15:22:35.402Z</time></trkpt><trkpt lat="40.8229867" lon="14.1210533"><ele>8.4</ele><time>2026-05-04T15:22:37.403Z</time></trkpt><trkpt lat="40.8228817" lon="14.1210267"><ele>9.0</ele><time>2026-05-04T15:22:39.402Z</time></trkpt><trkpt lat="40.8227817" lon="14.1210083"><ele>9.0</ele><time>2026-05-04T15:22:41.401Z</time></trkpt><trkpt lat="40.8226883" lon="14.1209667"><ele>9.0</ele><time>2026-05-04T15:22:43.404Z</time></trkpt><trkpt lat="40.8226017" lon="14.12093"><ele>9.0</ele><time>2026-05-04T15:22:45.401Z</time></trkpt><trkpt lat="40.82253" lon="14.120895"><ele>9.0</ele><time>2026-05-04T15:22:47.403Z</time></trkpt><trkpt lat="40.822465" lon="14.120855"><ele>9.0</ele><time>2026-05-04T15:22:49.402Z</time></trkpt><trkpt lat="40.8223983" lon="14.12082"><ele>9.0</ele><time>2026-05-04T15:22:51.402Z</time></trkpt><trkpt lat="40.8223283" lon="14.120785"><ele>9.333333333333334</ele><time>2026-05-04T15:22:53.402Z</time></trkpt><trkpt lat="40.8222667" lon="14.1207517"><ele>9.666666666666666</ele><time>2026-05-04T15:22:55.402Z</time></trkpt><trkpt lat="40.822205" lon="14.12073"><ele>10.0</ele><time>2026-05-04T15:22:57.401Z</time></trkpt><trkpt lat="40.8221317" lon="14.12074"><ele>10.333333333333332</ele><time>2026-05-04T15:22:59.401Z</time></trkpt><trkpt lat="40.8220667" lon="14.1207767"><ele>10.666666666666666</ele><time>2026-05-04T15:23:01.402Z</time></trkpt><trkpt lat="40.82198" lon="14.120825"><ele>11.0</ele><time>2026-05-04T15:23:04.402Z</time></trkpt><trkpt lat="40.8213933" lon="14.1226717"><ele>11.333333333333332</ele><time>2026-05-04T15:23:34.402Z</time></trkpt><trkpt lat="40.8213817" lon="14.12276"><ele>11.666666666666666</ele><time>2026-05-04T15:23:35.403Z</time></trkpt><trkpt lat="40.821435" lon="14.12284"><ele>12.0</ele><time>2026-05-04T15:23:37.403Z</time></trkpt><trkpt lat="40.8214567" lon="14.12294"><ele>12.333333333333332</ele><time>2026-05-04T15:23:39.402Z</time></trkpt><trkpt lat="40.8214583" lon="14.1230683"><ele>12.666666666666666</ele><time>2026-05-04T15:23:41.405Z</time></trkpt><trkpt lat="40.8214983" lon="14.12318"><ele>13.0</ele><time>2026-05-04T15:23:43.402Z</time></trkpt><trkpt lat="40.8215217" lon="14.12329"><ele>12.999999999999998</ele><time>2026-05-04T15:23:45.403Z</time></trkpt><trkpt lat="40.82157" lon="14.1233867"><ele>13.0</ele><time>2026-05-04T15:23:47.402Z</time></trkpt><trkpt lat="40.8215683" lon="14.1234867"><ele>13.0</ele><time>2026-05-04T15:23:49.403Z</time></trkpt><trkpt lat="40.8215717" lon="14.1235817"><ele>13.0</ele><time>2026-05-04T15:23:51.401Z</time></trkpt><trkpt lat="40.8215767" lon="14.123705"><ele>12.999999999999998</ele><time>2026-05-04T15:23:54.402Z</time></trkpt><trkpt lat="40.8215983" lon="14.123825"><ele>13.0</ele><time>2026-05-04T15:23:57.401Z</time></trkpt><trkpt lat="40.8215967" lon="14.12393"><ele>13.0</ele><time>2026-05-04T15:24:00.402Z</time></trkpt><trkpt lat="40.8216067" lon="14.124015"><ele>13.0</ele><time>2026-05-04T15:24:02.404Z</time></trkpt><trkpt lat="40.821625" lon="14.1241"><ele>13.0</ele><time>2026-05-04T15:24:04.401Z</time></trkpt><trkpt lat="40.8216283" lon="14.1241917"><ele>13.0</ele><time>2026-05-04T15:24:06.402Z</time></trkpt><trkpt lat="40.821605" lon="14.1242783"><ele>13.0</ele><time>2026-05-04T15:24:08.402Z</time></trkpt><trkpt lat="40.8215467" lon="14.124335"><ele>13.0</ele><time>2026-05-04T15:24:10.401Z</time></trkpt><trkpt lat="40.8214533" lon="14.1243583"><ele>13.0</ele><time>2026-05-04T15:24:13.402Z</time></trkpt><trkpt lat="40.8213683" lon="14.1243833"><ele>12.499999999999998</ele><time>2026-05-04T15:24:16.402Z</time></trkpt><trkpt lat="40.8212917" lon="14.1243683"><ele>12.0</ele><time>2026-05-04T15:24:20.403Z</time></trkpt><trkpt lat="40.82121" lon="14.1243683"><ele>11.5</ele><time>2026-05-04T15:24:24.404Z</time></trkpt><trkpt lat="40.8211283" lon="14.1244183"><ele>11.0</ele><time>2026-05-04T15:24:27.402Z</time></trkpt><trkpt lat="40.8210633" lon="14.1244183"><ele>10.5</ele><time>2026-05-04T15:24:29.403Z</time></trkpt><trkpt lat="40.82099" lon="14.1244283"><ele>10.0</ele><time>2026-05-04T15:24:31.403Z</time></trkpt><trkpt lat="40.82092" lon="14.1244367"><ele>8.833333333333334</ele><time>2026-05-04T15:24:33.402Z</time></trkpt><trkpt lat="40.8208567" lon="14.12445"><ele>7.666666666666667</ele><time>2026-05-04T15:24:35.402Z</time></trkpt><trkpt lat="40.820795" lon="14.1245267"><ele>6.5</ele><time>2026-05-04T15:24:38.401Z</time></trkpt><trkpt lat="40.82081" lon="14.1246433"><ele>5.333333333333334</ele><time>2026-05-04T15:24:41.403Z</time></trkpt><trkpt lat="40.8208267" lon="14.12476"><ele>4.166666666666667</ele><time>2026-05-04T15:24:44.406Z</time></trkpt><trkpt lat="40.820855" lon="14.1248583"><ele>3.0</ele><time>2026-05-04T15:24:47.402Z</time></trkpt><trkpt lat="40.82095" lon="14.12488"><ele>3.833333333333333</ele><time>2026-05-04T15:24:50.402Z</time></trkpt><trkpt lat="40.8210217" lon="14.1248433"><ele>4.666666666666666</ele><time>2026-05-04T15:24:52.403Z</time></trkpt><trkpt lat="40.8210917" lon="14.12481"><ele>5.5</ele><time>2026-05-04T15:24:54.403Z</time></trkpt><trkpt lat="40.821155" lon="14.12479"><ele>6.333333333333333</ele><time>2026-05-04T15:24:56.402Z</time></trkpt><trkpt lat="40.8211817" lon="14.1249033"><ele>7.166666666666666</ele><time>2026-05-04T15:25:00.401Z</time></trkpt><trkpt lat="40.8211467" lon="14.1249817"><ele>8.0</ele><time>2026-05-04T15:25:02.403Z</time></trkpt><trkpt lat="40.8210933" lon="14.1250517"><ele>8.0</ele><time>2026-05-04T15:25:04.402Z</time></trkpt><trkpt lat="40.82105" lon="14.1251333"><ele>8.0</ele><time>2026-05-04T15:25:06.402Z</time></trkpt><trkpt lat="40.821025" lon="14.125235"><ele>8.0</ele><time>2026-05-04T15:25:08.401Z</time></trkpt><trkpt lat="40.8209883" lon="14.1253483"><ele>8.0</ele><time>2026-05-04T15:25:10.401Z</time></trkpt><trkpt lat="40.8209433" lon="14.125465"><ele>8.0</ele><time>2026-05-04T15:25:12.403Z</time></trkpt><trkpt lat="40.8209217" lon="14.1255983"><ele>7.800000000000001</ele><time>2026-05-04T15:25:14.402Z</time></trkpt><trkpt lat="40.82093" lon="14.12574"><ele>7.6000000000000005</ele><time>2026-05-04T15:25:16.401Z</time></trkpt><trkpt lat="40.8209367" lon="14.1258867"><ele>7.3999999999999995</ele><time>2026-05-04T15:25:18.402Z</time></trkpt><trkpt lat="40.8209467" lon="14.1260383"><ele>7.199999999999999</ele><time>2026-05-04T15:25:20.404Z</time></trkpt><trkpt lat="40.820965" lon="14.1261883"><ele>7.0</ele><time>2026-05-04T15:25:22.402Z</time></trkpt><trkpt lat="40.8209917" lon="14.12634"><ele>7.0</ele><time>2026-05-04T15:25:24.401Z</time></trkpt><trkpt lat="40.82101" lon="14.1264883"><ele>7.0</ele><time>2026-05-04T15:25:26.402Z</time></trkpt><trkpt lat="40.8210183" lon="14.1266383"><ele>7.0</ele><time>2026-05-04T15:25:28.402Z</time></trkpt><trkpt lat="40.8210167" lon="14.1267883"><ele>7.0</ele><time>2026-05-04T15:25:30.403Z</time></trkpt><trkpt lat="40.8210083" lon="14.1269333"><ele>6.8</ele><time>2026-05-04T15:25:32.402Z</time></trkpt><trkpt lat="40.8210067" lon="14.1270783"><ele>6.6</ele><time>2026-05-04T15:25:34.405Z</time></trkpt><trkpt lat="40.8210067" lon="14.1272233"><ele>6.3999999999999995</ele><time>2026-05-04T15:25:36.402Z</time></trkpt><trkpt lat="40.8210083" lon="14.12737"><ele>6.199999999999999</ele><time>2026-05-04T15:25:38.401Z</time></trkpt><trkpt lat="40.8210167" lon="14.1275183"><ele>6.0</ele><time>2026-05-04T15:25:40.402Z</time></trkpt><trkpt lat="40.8210217" lon="14.127675"><ele>5.999999999999999</ele><time>2026-05-04T15:25:42.401Z</time></trkpt><trkpt lat="40.82102" lon="14.12776"><ele>6.0</ele><time>2026-05-04T15:25:43.403Z</time></trkpt><trkpt lat="40.82102" lon="14.1278483"><ele>6.0</ele><time>2026-05-04T15:25:44.402Z</time></trkpt><trkpt lat="40.8210217" lon="14.1279417"><ele>6.0</ele><time>2026-05-04T15:25:45.402Z</time></trkpt><trkpt lat="40.82102" lon="14.1280383"><ele>6.0</ele><time>2026-05-04T15:25:46.401Z</time></trkpt><trkpt lat="40.8210183" lon="14.1281333"><ele>5.999999999999999</ele><time>2026-05-04T15:25:47.403Z</time></trkpt><trkpt lat="40.821015" lon="14.1282317"><ele>6.0</ele><time>2026-05-04T15:25:48.402Z</time></trkpt><trkpt lat="40.8210117" lon="14.1283317"><ele>5.999999999999999</ele><time>2026-05-04T15:25:49.402Z</time></trkpt><trkpt lat="40.821005" lon="14.12843"><ele>6.0</ele><time>2026-05-04T15:25:50.402Z</time></trkpt><trkpt lat="40.821" lon="14.1285283"><ele>6.0</ele><time>2026-05-04T15:25:51.403Z</time></trkpt><trkpt lat="40.8209983" lon="14.1286267"><ele>6.0</ele><time>2026-05-04T15:25:52.404Z</time></trkpt><trkpt lat="40.821" lon="14.1287233"><ele>6.0</ele><time>2026-05-04T15:25:53.402Z</time></trkpt><trkpt lat="40.8210017" lon="14.1288183"><ele>5.999999999999999</ele><time>2026-05-04T15:25:54.401Z</time></trkpt><trkpt lat="40.821" lon="14.1289117"><ele>6.0</ele><time>2026-05-04T15:25:55.403Z</time></trkpt><trkpt lat="40.8209983" lon="14.129005"><ele>6.142857142857142</ele><time>2026-05-04T15:25:56.402Z</time></trkpt><trkpt lat="40.8210017" lon="14.1290967"><ele>6.285714285714286</ele><time>2026-05-04T15:25:57.402Z</time></trkpt><trkpt lat="40.8210067" lon="14.129185"><ele>6.428571428571429</ele><time>2026-05-04T15:25:58.401Z</time></trkpt><trkpt lat="40.8210133" lon="14.1292767"><ele>6.571428571428571</ele><time>2026-05-04T15:25:59.402Z</time></trkpt><trkpt lat="40.821015" lon="14.12937"><ele>6.714285714285714</ele><time>2026-05-04T15:26:00.405Z</time></trkpt><trkpt lat="40.8210117" lon="14.1294617"><ele>6.857142857142857</ele><time>2026-05-04T15:26:01.403Z</time></trkpt><trkpt lat="40.821" lon="14.12955"><ele>7.0</ele><time>2026-05-04T15:26:02.403Z</time></trkpt><trkpt lat="40.8209917" lon="14.1296433"><ele>7.0</ele><time>2026-05-04T15:26:03.402Z</time></trkpt><trkpt lat="40.8209833" lon="14.129735"><ele>7.0</ele><time>2026-05-04T15:26:04.402Z</time></trkpt><trkpt lat="40.8209733" lon="14.12983"><ele>7.0</ele><time>2026-05-04T15:26:05.403Z</time></trkpt><trkpt lat="40.8209617" lon="14.129925"><ele>7.0</ele><time>2026-05-04T15:26:06.402Z</time></trkpt><trkpt lat="40.82095" lon="14.1300167"><ele>7.0</ele><time>2026-05-04T15:26:07.403Z</time></trkpt><trkpt lat="40.82094" lon="14.1301117"><ele>7.0</ele><time>2026-05-04T15:26:08.403Z</time></trkpt><trkpt lat="40.8209283" lon="14.1302083"><ele>7.0</ele><time>2026-05-04T15:26:09.403Z</time></trkpt><trkpt lat="40.82092" lon="14.1303017"><ele>6.142857142857143</ele><time>2026-05-04T15:26:10.401Z</time></trkpt><trkpt lat="40.82091" lon="14.130395"><ele>5.285714285714286</ele><time>2026-05-04T15:26:11.402Z</time></trkpt><trkpt lat="40.8209017" lon="14.1304867"><ele>4.428571428571429</ele><time>2026-05-04T15:26:12.402Z</time></trkpt><trkpt lat="40.8208983" lon="14.13058"><ele>3.571428571428571</ele><time>2026-05-04T15:26:13.403Z</time></trkpt><trkpt lat="40.8208933" lon="14.1306717"><ele>2.7142857142857144</ele><time>2026-05-04T15:26:14.402Z</time></trkpt><trkpt lat="40.8208833" lon="14.13076"><ele>1.8571428571428572</ele><time>2026-05-04T15:26:15.402Z</time></trkpt><trkpt lat="40.82087" lon="14.130845"><ele>1.0</ele><time>2026-05-04T15:26:16.403Z</time></trkpt><trkpt lat="40.8208567" lon="14.1309317"><ele>0.9999999999999999</ele><time>2026-05-04T15:26:17.403Z</time></trkpt><trkpt lat="40.8208333" lon="14.1310983"><ele>1.0</ele><time>2026-05-04T15:26:19.402Z</time></trkpt><trkpt lat="40.8208217" lon="14.131185"><ele>1.0</ele><time>2026-05-04T15:26:20.401Z</time></trkpt><trkpt lat="40.82081" lon="14.1312733"><ele>1.0</ele><time>2026-05-04T15:26:21.402Z</time></trkpt><trkpt lat="40.820795" lon="14.131365"><ele>0.9999999999999999</ele><time>2026-05-04T15:26:22.403Z</time></trkpt><trkpt lat="40.8207783" lon="14.1314567"><ele>1.0</ele><time>2026-05-04T15:26:23.403Z</time></trkpt><trkpt lat="40.8207633" lon="14.13155"><ele>1.3333333333333333</ele><time>2026-05-04T15:26:24.402Z</time></trkpt><trkpt lat="40.8207483" lon="14.1316467"><ele>1.6666666666666665</ele><time>2026-05-04T15:26:25.403Z</time></trkpt><trkpt lat="40.8207333" lon="14.1317433"><ele>2.0</ele><time>2026-05-04T15:26:26.402Z</time></trkpt><trkpt lat="40.8207167" lon="14.1318417"><ele>2.3333333333333335</ele><time>2026-05-04T15:26:27.403Z</time></trkpt><trkpt lat="40.8207" lon="14.1319417"><ele>2.6666666666666665</ele><time>2026-05-04T15:26:28.402Z</time></trkpt><trkpt lat="40.8206833" lon="14.1320467"><ele>3.0</ele><time>2026-05-04T15:26:29.402Z</time></trkpt><trkpt lat="40.82067" lon="14.1321483"><ele>2.9999999999999996</ele><time>2026-05-04T15:26:30.403Z</time></trkpt><trkpt lat="40.820655" lon="14.1322467"><ele>3.0</ele><time>2026-05-04T15:26:31.402Z</time></trkpt><trkpt lat="40.82063" lon="14.1323433"><ele>3.0</ele><time>2026-05-04T15:26:32.402Z</time></trkpt><trkpt lat="40.8205983" lon="14.1324383"><ele>3.0</ele><time>2026-05-04T15:26:33.402Z</time></trkpt><trkpt lat="40.8205667" lon="14.1325317"><ele>3.0</ele><time>2026-05-04T15:26:34.402Z</time></trkpt><trkpt lat="40.8205433" lon="14.1326183"><ele>2.9999999999999996</ele><time>2026-05-04T15:26:35.403Z</time></trkpt><trkpt lat="40.820525" lon="14.1327083"><ele>3.0</ele><time>2026-05-04T15:26:36.403Z</time></trkpt><trkpt lat="40.8205067" lon="14.1328017"><ele>3.4</ele><time>2026-05-04T15:26:37.403Z</time></trkpt><trkpt lat="40.8204833" lon="14.1328883"><ele>3.8</ele><time>2026-05-04T15:26:38.402Z</time></trkpt><trkpt lat="40.8204583" lon="14.1329667"><ele>4.2</ele><time>2026-05-04T15:26:39.403Z</time></trkpt><trkpt lat="40.8204033" lon="14.1331067"><ele>4.6</ele><time>2026-05-04T15:26:41.404Z</time></trkpt><trkpt lat="40.8203617" lon="14.1332583"><ele>5.0</ele><time>2026-05-04T15:26:43.405Z</time></trkpt><trkpt lat="40.8203067" lon="14.1334033"><ele>5.2</ele><time>2026-05-04T15:26:45.403Z</time></trkpt><trkpt lat="40.8202533" lon="14.1335483"><ele>5.4</ele><time>2026-05-04T15:26:47.401Z</time></trkpt><trkpt lat="40.8202083" lon="14.1337033"><ele>5.6</ele><time>2026-05-04T15:26:49.403Z</time></trkpt><trkpt lat="40.8201867" lon="14.1337833"><ele>5.8</ele><time>2026-05-04T15:26:50.404Z</time></trkpt><trkpt lat="40.8201483" lon="14.1339267"><ele>6.0</ele><time>2026-05-04T15:26:52.405Z</time></trkpt><trkpt lat="40.8201017" lon="14.1340567"><ele>5.5</ele><time>2026-05-04T15:26:54.404Z</time></trkpt><trkpt lat="40.82004" lon="14.1341833"><ele>5.0</ele><time>2026-05-04T15:26:56.403Z</time></trkpt><trkpt lat="40.8199683" lon="14.1343083"><ele>4.5</ele><time>2026-05-04T15:26:58.403Z</time></trkpt><trkpt lat="40.8198917" lon="14.134435"><ele>4.0</ele><time>2026-05-04T15:27:00.403Z</time></trkpt><trkpt lat="40.819815" lon="14.1345633"><ele>4.0</ele><time>2026-05-04T15:27:02.404Z</time></trkpt><trkpt lat="40.8197467" lon="14.13469"><ele>4.0</ele><time>2026-05-04T15:27:04.403Z</time></trkpt><trkpt lat="40.81967" lon="14.1348183"><ele>4.0</ele><time>2026-05-04T15:27:06.403Z</time></trkpt><trkpt lat="40.81959" lon="14.1349467"><ele>4.0</ele><time>2026-05-04T15:27:08.403Z</time></trkpt><trkpt lat="40.8195517" lon="14.1350133"><ele>4.0</ele><time>2026-05-04T15:27:09.405Z</time></trkpt><trkpt lat="40.8194767" lon="14.1351367"><ele>3.833333333333333</ele><time>2026-05-04T15:27:11.403Z</time></trkpt><trkpt lat="40.819415" lon="14.1352467"><ele>3.6666666666666665</ele><time>2026-05-04T15:27:13.404Z</time></trkpt><trkpt lat="40.8193633" lon="14.1353283"><ele>3.5</ele><time>2026-05-04T15:27:15.402Z</time></trkpt><trkpt lat="40.8193267" lon="14.1354033"><ele>3.333333333333333</ele><time>2026-05-04T15:27:17.403Z</time></trkpt><trkpt lat="40.819285" lon="14.1354783"><ele>3.1666666666666665</ele><time>2026-05-04T15:27:19.404Z</time></trkpt><trkpt lat="40.8192483" lon="14.1355583"><ele>3.0</ele><time>2026-05-04T15:27:21.403Z</time></trkpt><trkpt lat="40.8192033" lon="14.1356267"><ele>3.0</ele><time>2026-05-04T15:27:23.403Z</time></trkpt><trkpt lat="40.8191583" lon="14.1356983"><ele>3.0</ele><time>2026-05-04T15:27:25.403Z</time></trkpt><trkpt lat="40.819105" lon="14.1357867"><ele>3.0</ele><time>2026-05-04T15:27:27.403Z</time></trkpt><trkpt lat="40.8190533" lon="14.1358817"><ele>3.0</ele><time>2026-05-04T15:27:29.404Z</time></trkpt><trkpt lat="40.8189967" lon="14.1359683"><ele>3.0</ele><time>2026-05-04T15:27:31.402Z</time></trkpt><trkpt lat="40.81894" lon="14.1360633"><ele>3.0</ele><time>2026-05-04T15:27:33.401Z</time></trkpt><trkpt lat="40.81888" lon="14.136175"><ele>5.25</ele><time>2026-05-04T15:27:35.403Z</time></trkpt><trkpt lat="40.8188117" lon="14.1362883"><ele>7.5</ele><time>2026-05-04T15:27:37.401Z</time></trkpt><trkpt lat="40.818735" lon="14.13641"><ele>9.75</ele><time>2026-05-04T15:27:39.402Z</time></trkpt><trkpt lat="40.81866" lon="14.136535"><ele>12.0</ele><time>2026-05-04T15:27:41.403Z</time></trkpt><trkpt lat="40.8185867" lon="14.136655"><ele>13.2</ele><time>2026-05-04T15:27:43.403Z</time></trkpt><trkpt lat="40.81852" lon="14.1367617"><ele>14.399999999999999</ele><time>2026-05-04T15:27:45.402Z</time></trkpt><trkpt lat="40.81845" lon="14.13686"><ele>15.600000000000001</ele><time>2026-05-04T15:27:47.403Z</time></trkpt><trkpt lat="40.8183783" lon="14.1369633"><ele>16.8</ele><time>2026-05-04T15:27:49.403Z</time></trkpt><trkpt lat="40.818335" lon="14.1370717"><ele>18.0</ele><time>2026-05-04T15:27:51.403Z</time></trkpt><trkpt lat="40.8183033" lon="14.13716"><ele>17.8</ele><time>2026-05-04T15:27:53.403Z</time></trkpt><trkpt lat="40.8182733" lon="14.1372583"><ele>17.6</ele><time>2026-05-04T15:27:55.402Z</time></trkpt><trkpt lat="40.8182183" lon="14.13738"><ele>17.4</ele><time>2026-05-04T15:27:57.403Z</time></trkpt><trkpt lat="40.8181583" lon="14.1375217"><ele>17.2</ele><time>2026-05-04T15:27:59.403Z</time></trkpt><trkpt lat="40.818115" lon="14.1376617"><ele>17.0</ele><time>2026-05-04T15:28:01.402Z</time></trkpt><trkpt lat="40.8180683" lon="14.1378"><ele>17.0</ele><time>2026-05-04T15:28:03.402Z</time></trkpt><trkpt lat="40.8180333" lon="14.1379567"><ele>17.0</ele><time>2026-05-04T15:28:05.402Z</time></trkpt><trkpt lat="40.8179983" lon="14.13811"><ele>17.0</ele><time>2026-05-04T15:28:07.403Z</time></trkpt><trkpt lat="40.817965" lon="14.1382683"><ele>17.0</ele><time>2026-05-04T15:28:09.403Z</time></trkpt><trkpt lat="40.8179483" lon="14.138355"><ele>17.0</ele><time>2026-05-04T15:28:10.403Z</time></trkpt><trkpt lat="40.8179267" lon="14.1385167"><ele>18.2</ele><time>2026-05-04T15:28:12.402Z</time></trkpt><trkpt lat="40.8179067" lon="14.138675"><ele>19.4</ele><time>2026-05-04T15:28:14.402Z</time></trkpt><trkpt lat="40.8178883" lon="14.1388367"><ele>20.599999999999998</ele><time>2026-05-04T15:28:16.403Z</time></trkpt><trkpt lat="40.817865" lon="14.139"><ele>21.799999999999997</ele><time>2026-05-04T15:28:18.401Z</time></trkpt><trkpt lat="40.8178517" lon="14.139085"><ele>23.0</ele><time>2026-05-04T15:28:19.403Z</time></trkpt><trkpt lat="40.8178417" lon="14.1391767"><ele>23.42857142857143</ele><time>2026-05-04T15:28:20.402Z</time></trkpt><trkpt lat="40.817835" lon="14.1392667"><ele>23.857142857142854</ele><time>2026-05-04T15:28:21.403Z</time></trkpt><trkpt lat="40.8178283" lon="14.1393567"><ele>24.285714285714285</ele><time>2026-05-04T15:28:22.402Z</time></trkpt><trkpt lat="40.8178267" lon="14.1394433"><ele>24.714285714285715</ele><time>2026-05-04T15:28:23.403Z</time></trkpt><trkpt lat="40.8178267" lon="14.1395317"><ele>25.142857142857146</ele><time>2026-05-04T15:28:24.402Z</time></trkpt><trkpt lat="40.8178317" lon="14.1396217"><ele>25.57142857142857</ele><time>2026-05-04T15:28:25.402Z</time></trkpt><trkpt lat="40.8178383" lon="14.139715"><ele>26.0</ele><time>2026-05-04T15:28:26.403Z</time></trkpt><trkpt lat="40.8178467" lon="14.139805"><ele>26.142857142857142</ele><time>2026-05-04T15:28:27.402Z</time></trkpt><trkpt lat="40.81785" lon="14.1398967"><ele>26.28571428571429</ele><time>2026-05-04T15:28:28.403Z</time></trkpt><trkpt lat="40.8178567" lon="14.139995"><ele>26.42857142857143</ele><time>2026-05-04T15:28:29.402Z</time></trkpt><trkpt lat="40.817865" lon="14.1400933"><ele>26.57142857142857</ele><time>2026-05-04T15:28:30.401Z</time></trkpt><trkpt lat="40.8178767" lon="14.1401867"><ele>26.714285714285715</ele><time>2026-05-04T15:28:31.403Z</time></trkpt><trkpt lat="40.8178917" lon="14.14028"><ele>26.857142857142858</ele><time>2026-05-04T15:28:32.401Z</time></trkpt><trkpt lat="40.8179133" lon="14.1403717"><ele>27.0</ele><time>2026-05-04T15:28:33.401Z</time></trkpt><trkpt lat="40.817935" lon="14.1404633"><ele>27.0</ele><time>2026-05-04T15:28:34.403Z</time></trkpt><trkpt lat="40.8179567" lon="14.140555"><ele>27.0</ele><time>2026-05-04T15:28:35.402Z</time></trkpt><trkpt lat="40.8179783" lon="14.140645"><ele>27.0</ele><time>2026-05-04T15:28:36.402Z</time></trkpt><trkpt lat="40.8179983" lon="14.14073"><ele>27.0</ele><time>2026-05-04T15:28:37.402Z</time></trkpt><trkpt lat="40.81802" lon="14.140815"><ele>27.0</ele><time>2026-05-04T15:28:38.402Z</time></trkpt><trkpt lat="40.818045" lon="14.1408983"><ele>27.0</ele><time>2026-05-04T15:28:39.402Z</time></trkpt><trkpt lat="40.818075" lon="14.140985"><ele>27.0</ele><time>2026-05-04T15:28:40.402Z</time></trkpt><trkpt lat="40.8181067" lon="14.14107"><ele>25.857142857142858</ele><time>2026-05-04T15:28:41.402Z</time></trkpt><trkpt lat="40.81814" lon="14.1411533"><ele>24.714285714285715</ele><time>2026-05-04T15:28:42.401Z</time></trkpt><trkpt lat="40.818175" lon="14.1412383"><ele>23.57142857142857</ele><time>2026-05-04T15:28:43.403Z</time></trkpt><trkpt lat="40.8182083" lon="14.141325"><ele>22.42857142857143</ele><time>2026-05-04T15:28:44.401Z</time></trkpt><trkpt lat="40.8182433" lon="14.1414133"><ele>21.28571428571429</ele><time>2026-05-04T15:28:45.402Z</time></trkpt><trkpt lat="40.81828" lon="14.1415"><ele>20.142857142857142</ele><time>2026-05-04T15:28:46.402Z</time></trkpt><trkpt lat="40.818315" lon="14.141585"><ele>19.0</ele><time>2026-05-04T15:28:47.402Z</time></trkpt><trkpt lat="40.8183517" lon="14.1416717"><ele>17.857142857142858</ele><time>2026-05-04T15:28:48.401Z</time></trkpt><trkpt lat="40.8183883" lon="14.1417583"><ele>16.714285714285715</ele><time>2026-05-04T15:28:49.401Z</time></trkpt><trkpt lat="40.8184283" lon="14.1418433"><ele>15.571428571428573</ele><time>2026-05-04T15:28:50.402Z</time></trkpt><trkpt lat="40.8184617" lon="14.1419317"><ele>14.428571428571427</ele><time>2026-05-04T15:28:51.401Z</time></trkpt><trkpt lat="40.8184817" lon="14.1420217"><ele>13.285714285714285</ele><time>2026-05-04T15:28:52.402Z</time></trkpt><trkpt lat="40.8184933" lon="14.142115"><ele>12.142857142857142</ele><time>2026-05-04T15:28:53.402Z</time></trkpt><trkpt lat="40.818495" lon="14.1422067"><ele>11.0</ele><time>2026-05-04T15:28:54.401Z</time></trkpt><trkpt lat="40.8184917" lon="14.1423017"><ele>10.714285714285715</ele><time>2026-05-04T15:28:55.403Z</time></trkpt><trkpt lat="40.8184883" lon="14.1423933"><ele>10.428571428571429</ele><time>2026-05-04T15:28:56.401Z</time></trkpt><trkpt lat="40.8184833" lon="14.1424817"><ele>10.142857142857142</ele><time>2026-05-04T15:28:57.401Z</time></trkpt><trkpt lat="40.8184783" lon="14.14257"><ele>9.857142857142858</ele><time>2026-05-04T15:28:58.402Z</time></trkpt><trkpt lat="40.8184717" lon="14.1426583"><ele>9.571428571428571</ele><time>2026-05-04T15:28:59.401Z</time></trkpt><trkpt lat="40.8184683" lon="14.1427433"><ele>9.285714285714286</ele><time>2026-05-04T15:29:00.402Z</time></trkpt><trkpt lat="40.8184633" lon="14.14283"><ele>9.0</ele><time>2026-05-04T15:29:01.403Z</time></trkpt><trkpt lat="40.81846" lon="14.1429183"><ele>9.000000000000002</ele><time>2026-05-04T15:29:02.402Z</time></trkpt><trkpt lat="40.8184533" lon="14.14301"><ele>9.0</ele><time>2026-05-04T15:29:03.401Z</time></trkpt><trkpt lat="40.8184467" lon="14.1431067"><ele>9.0</ele><time>2026-05-04T15:29:04.404Z</time></trkpt><trkpt lat="40.8184383" lon="14.14321"><ele>9.0</ele><time>2026-05-04T15:29:05.404Z</time></trkpt><trkpt lat="40.81843" lon="14.1433117"><ele>9.0</ele><time>2026-05-04T15:29:06.402Z</time></trkpt><trkpt lat="40.8184267" lon="14.1434117"><ele>9.000000000000002</ele><time>2026-05-04T15:29:07.403Z</time></trkpt><trkpt lat="40.8184217" lon="14.1435083"><ele>9.0</ele><time>2026-05-04T15:29:08.402Z</time></trkpt><trkpt lat="40.8184217" lon="14.143605"><ele>9.142857142857144</ele><time>2026-05-04T15:29:09.402Z</time></trkpt><trkpt lat="40.818425" lon="14.1436983"><ele>9.285714285714286</ele><time>2026-05-04T15:29:10.402Z</time></trkpt><trkpt lat="40.8184267" lon="14.1437933"><ele>9.428571428571429</ele><time>2026-05-04T15:29:11.402Z</time></trkpt><trkpt lat="40.8184267" lon="14.1438883"><ele>9.571428571428573</ele><time>2026-05-04T15:29:12.403Z</time></trkpt><trkpt lat="40.81843" lon="14.143985"><ele>9.714285714285715</ele><time>2026-05-04T15:29:13.402Z</time></trkpt><trkpt lat="40.818435" lon="14.1440783"><ele>9.857142857142858</ele><time>2026-05-04T15:29:14.402Z</time></trkpt><trkpt lat="40.81844" lon="14.14417"><ele>10.0</ele><time>2026-05-04T15:29:15.402Z</time></trkpt><trkpt lat="40.81845" lon="14.144265"><ele>10.166666666666668</ele><time>2026-05-04T15:29:16.402Z</time></trkpt><trkpt lat="40.81846" lon="14.1443617"><ele>10.333333333333334</ele><time>2026-05-04T15:29:17.402Z</time></trkpt><trkpt lat="40.8184717" lon="14.14446"><ele>10.5</ele><time>2026-05-04T15:29:18.401Z</time></trkpt><trkpt lat="40.8184817" lon="14.1445617"><ele>10.666666666666666</ele><time>2026-05-04T15:29:19.402Z</time></trkpt><trkpt lat="40.8184967" lon="14.1446617"><ele>10.833333333333332</ele><time>2026-05-04T15:29:20.402Z</time></trkpt><trkpt lat="40.8185117" lon="14.1447633"><ele>11.0</ele><time>2026-05-04T15:29:21.402Z</time></trkpt><trkpt lat="40.818525" lon="14.1448633"><ele>15.666666666666666</ele><time>2026-05-04T15:29:22.402Z</time></trkpt><trkpt lat="40.8185383" lon="14.1449583"><ele>20.333333333333332</ele><time>2026-05-04T15:29:23.403Z</time></trkpt><trkpt lat="40.8185533" lon="14.145055"><ele>25.0</ele><time>2026-05-04T15:29:24.402Z</time></trkpt><trkpt lat="40.81857" lon="14.1451583"><ele>29.666666666666668</ele><time>2026-05-04T15:29:25.402Z</time></trkpt><trkpt lat="40.8185867" lon="14.14526"><ele>34.333333333333336</ele><time>2026-05-04T15:29:26.402Z</time></trkpt><trkpt lat="40.8186" lon="14.1453633"><ele>39.0</ele><time>2026-05-04T15:29:27.402Z</time></trkpt><trkpt lat="40.8186117" lon="14.1454667"><ele>39.0</ele><time>2026-05-04T15:29:28.402Z</time></trkpt><trkpt lat="40.818625" lon="14.145575"><ele>39.0</ele><time>2026-05-04T15:29:29.401Z</time></trkpt><trkpt lat="40.81864" lon="14.1456833"><ele>39.0</ele><time>2026-05-04T15:29:30.402Z</time></trkpt><trkpt lat="40.8186583" lon="14.1457917"><ele>39.0</ele><time>2026-05-04T15:29:31.401Z</time></trkpt><trkpt lat="40.8186717" lon="14.1459"><ele>39.0</ele><time>2026-05-04T15:29:32.402Z</time></trkpt><trkpt lat="40.8186783" lon="14.146005"><ele>39.0</ele><time>2026-05-04T15:29:33.402Z</time></trkpt><trkpt lat="40.8186783" lon="14.1461117"><ele>38.833333333333336</ele><time>2026-05-04T15:29:34.402Z</time></trkpt><trkpt lat="40.81867" lon="14.146215"><ele>38.666666666666664</ele><time>2026-05-04T15:29:35.401Z</time></trkpt><trkpt lat="40.8186567" lon="14.14632"><ele>38.5</ele><time>2026-05-04T15:29:36.402Z</time></trkpt><trkpt lat="40.818645" lon="14.14642"><ele>38.33333333333333</ele><time>2026-05-04T15:29:37.401Z</time></trkpt><trkpt lat="40.8186333" lon="14.1465167"><ele>38.166666666666664</ele><time>2026-05-04T15:29:38.402Z</time></trkpt><trkpt lat="40.8186183" lon="14.14661"><ele>38.0</ele><time>2026-05-04T15:29:39.402Z</time></trkpt><trkpt lat="40.8186033" lon="14.1467017"><ele>38.5</ele><time>2026-05-04T15:29:40.402Z</time></trkpt><trkpt lat="40.8185833" lon="14.1468017"><ele>39.0</ele><time>2026-05-04T15:29:41.402Z</time></trkpt><trkpt lat="40.8185667" lon="14.146905"><ele>39.5</ele><time>2026-05-04T15:29:42.402Z</time></trkpt><trkpt lat="40.8185533" lon="14.1470067"><ele>40.0</ele><time>2026-05-04T15:29:43.403Z</time></trkpt><trkpt lat="40.818545" lon="14.1471067"><ele>40.5</ele><time>2026-05-04T15:29:44.402Z</time></trkpt><trkpt lat="40.818535" lon="14.1472067"><ele>41.0</ele><time>2026-05-04T15:29:45.401Z</time></trkpt><trkpt lat="40.8185283" lon="14.1473083"><ele>41.14285714285714</ele><time>2026-05-04T15:29:46.401Z</time></trkpt><trkpt lat="40.8185267" lon="14.1474083"><ele>41.285714285714285</ele><time>2026-05-04T15:29:47.402Z</time></trkpt><trkpt lat="40.81853" lon="14.1475017"><ele>41.42857142857143</ele><time>2026-05-04T15:29:48.403Z</time></trkpt><trkpt lat="40.8185333" lon="14.147595"><ele>41.57142857142857</ele><time>2026-05-04T15:29:49.403Z</time></trkpt><trkpt lat="40.8185383" lon="14.147685"><ele>41.714285714285715</ele><time>2026-05-04T15:29:50.401Z</time></trkpt><trkpt lat="40.8185417" lon="14.147775"><ele>41.857142857142854</ele><time>2026-05-04T15:29:51.401Z</time></trkpt><trkpt lat="40.818545" lon="14.1478633"><ele>42.0</ele><time>2026-05-04T15:29:52.403Z</time></trkpt><trkpt lat="40.8185483" lon="14.14795"><ele>42.0</ele><time>2026-05-04T15:29:53.403Z</time></trkpt><trkpt lat="40.8185467" lon="14.1480383"><ele>42.0</ele><time>2026-05-04T15:29:54.402Z</time></trkpt><trkpt lat="40.8185483" lon="14.1481317"><ele>42.0</ele><time>2026-05-04T15:29:55.402Z</time></trkpt><trkpt lat="40.8185517" lon="14.1482283"><ele>42.0</ele><time>2026-05-04T15:29:56.401Z</time></trkpt><trkpt lat="40.8185567" lon="14.1483267"><ele>42.0</ele><time>2026-05-04T15:29:57.401Z</time></trkpt><trkpt lat="40.8185633" lon="14.148425"><ele>42.0</ele><time>2026-05-04T15:29:58.402Z</time></trkpt><trkpt lat="40.8185667" lon="14.1485233"><ele>42.0</ele><time>2026-05-04T15:29:59.401Z</time></trkpt><trkpt lat="40.8185717" lon="14.1486217"><ele>40.833333333333336</ele><time>2026-05-04T15:30:00.401Z</time></trkpt><trkpt lat="40.818575" lon="14.1487133"><ele>39.666666666666664</ele><time>2026-05-04T15:30:01.402Z</time></trkpt><trkpt lat="40.8185683" lon="14.1487983"><ele>38.5</ele><time>2026-05-04T15:30:02.403Z</time></trkpt><trkpt lat="40.81855" lon="14.1488783"><ele>37.33333333333333</ele><time>2026-05-04T15:30:03.402Z</time></trkpt><trkpt lat="40.8185017" lon="14.1490267"><ele>36.166666666666664</ele><time>2026-05-04T15:30:05.402Z</time></trkpt><trkpt lat="40.8184533" lon="14.14918"><ele>35.0</ele><time>2026-05-04T15:30:07.401Z</time></trkpt><trkpt lat="40.8184267" lon="14.1492633"><ele>31.142857142857142</ele><time>2026-05-04T15:30:08.402Z</time></trkpt><trkpt lat="40.8184033" lon="14.14935"><ele>27.285714285714285</ele><time>2026-05-04T15:30:09.401Z</time></trkpt><trkpt lat="40.81838" lon="14.1494417"><ele>23.428571428571427</ele><time>2026-05-04T15:30:10.402Z</time></trkpt><trkpt lat="40.8183583" lon="14.149535"><ele>19.57142857142857</ele><time>2026-05-04T15:30:11.402Z</time></trkpt><trkpt lat="40.8183317" lon="14.1496283"><ele>15.714285714285714</ele><time>2026-05-04T15:30:12.401Z</time></trkpt><trkpt lat="40.8183117" lon="14.14972"><ele>11.857142857142858</ele><time>2026-05-04T15:30:13.403Z</time></trkpt><trkpt lat="40.8182917" lon="14.1498083"><ele>8.0</ele><time>2026-05-04T15:30:14.401Z</time></trkpt><trkpt lat="40.8182817" lon="14.1499"><ele>8.0</ele><time>2026-05-04T15:30:15.402Z</time></trkpt><trkpt lat="40.8182667" lon="14.1499867"><ele>7.999999999999999</ele><time>2026-05-04T15:30:16.402Z</time></trkpt><trkpt lat="40.8182517" lon="14.1500783"><ele>8.0</ele><time>2026-05-04T15:30:17.402Z</time></trkpt><trkpt lat="40.8182317" lon="14.1501667"><ele>8.0</ele><time>2026-05-04T15:30:18.401Z</time></trkpt><trkpt lat="40.8182167" lon="14.15025"><ele>7.999999999999999</ele><time>2026-05-04T15:30:19.402Z</time></trkpt><trkpt lat="40.8182033" lon="14.1503333"><ele>8.0</ele><time>2026-05-04T15:30:20.401Z</time></trkpt><trkpt lat="40.8181867" lon="14.1504183"><ele>8.0</ele><time>2026-05-04T15:30:21.401Z</time></trkpt><trkpt lat="40.8181583" lon="14.1505767"><ele>7.999999999999999</ele><time>2026-05-04T15:30:23.402Z</time></trkpt><trkpt lat="40.81814" lon="14.1506567"><ele>8.0</ele><time>2026-05-04T15:30:24.402Z</time></trkpt><trkpt lat="40.8180767" lon="14.1508"><ele>8.0</ele><time>2026-05-04T15:30:26.401Z</time></trkpt><trkpt lat="40.818035" lon="14.15087"><ele>8.0</ele><time>2026-05-04T15:30:27.402Z</time></trkpt><trkpt lat="40.8179883" lon="14.1509383"><ele>7.999999999999999</ele><time>2026-05-04T15:30:28.401Z</time></trkpt><trkpt lat="40.817945" lon="14.1510117"><ele>8.0</ele><time>2026-05-04T15:30:29.402Z</time></trkpt><trkpt lat="40.8178967" lon="14.151085"><ele>10.0</ele><time>2026-05-04T15:30:30.402Z</time></trkpt><trkpt lat="40.8178533" lon="14.15116"><ele>12.0</ele><time>2026-05-04T15:30:31.403Z</time></trkpt><trkpt lat="40.81781" lon="14.1512317"><ele>14.0</ele><time>2026-05-04T15:30:32.403Z</time></trkpt><trkpt lat="40.8177683" lon="14.1513033"><ele>16.0</ele><time>2026-05-04T15:30:33.402Z</time></trkpt><trkpt lat="40.8177317" lon="14.151375"><ele>18.0</ele><time>2026-05-04T15:30:34.401Z</time></trkpt><trkpt lat="40.8177033" lon="14.15145"><ele>20.0</ele><time>2026-05-04T15:30:35.402Z</time></trkpt><trkpt lat="40.817685" lon="14.1516067"><ele>21.666666666666668</ele><time>2026-05-04T15:30:37.402Z</time></trkpt><trkpt lat="40.8177183" lon="14.1517717"><ele>23.333333333333336</ele><time>2026-05-04T15:30:39.404Z</time></trkpt><trkpt lat="40.817745" lon="14.151855"><ele>25.0</ele><time>2026-05-04T15:30:40.402Z</time></trkpt><trkpt lat="40.817785" lon="14.15194"><ele>26.666666666666668</ele><time>2026-05-04T15:30:41.402Z</time></trkpt><trkpt lat="40.8178267" lon="14.15202"><ele>28.333333333333332</ele><time>2026-05-04T15:30:42.403Z</time></trkpt><trkpt lat="40.817865" lon="14.1521017"><ele>30.0</ele><time>2026-05-04T15:30:43.402Z</time></trkpt><trkpt lat="40.81789" lon="14.1521867"><ele>30.0</ele><time>2026-05-04T15:30:44.401Z</time></trkpt><trkpt lat="40.817915" lon="14.152275"><ele>30.0</ele><time>2026-05-04T15:30:45.402Z</time></trkpt><trkpt lat="40.817935" lon="14.1523667"><ele>30.0</ele><time>2026-05-04T15:30:46.402Z</time></trkpt><trkpt lat="40.8179533" lon="14.1524567"><ele>30.0</ele><time>2026-05-04T15:30:47.401Z</time></trkpt><trkpt lat="40.8179717" lon="14.15255"><ele>30.0</ele><time>2026-05-04T15:30:48.403Z</time></trkpt><trkpt lat="40.8179917" lon="14.1526433"><ele>30.0</ele><time>2026-05-04T15:30:49.402Z</time></trkpt><trkpt lat="40.81801" lon="14.1527367"><ele>30.0</ele><time>2026-05-04T15:30:50.403Z</time></trkpt><trkpt lat="40.81802" lon="14.1528333"><ele>30.285714285714285</ele><time>2026-05-04T15:30:51.405Z</time></trkpt><trkpt lat="40.8180217" lon="14.1529317"><ele>30.57142857142857</ele><time>2026-05-04T15:30:52.404Z</time></trkpt><trkpt lat="40.8180133" lon="14.1530283"><ele>30.857142857142854</ele><time>2026-05-04T15:30:53.402Z</time></trkpt><trkpt lat="40.8180067" lon="14.153125"><ele>31.142857142857142</ele><time>2026-05-04T15:30:54.402Z</time></trkpt><trkpt lat="40.8180033" lon="14.1532233"><ele>31.428571428571423</ele><time>2026-05-04T15:30:55.402Z</time></trkpt><trkpt lat="40.8180067" lon="14.1533167"><ele>31.71428571428571</ele><time>2026-05-04T15:30:56.403Z</time></trkpt><trkpt lat="40.8180133" lon="14.15341"><ele>32.0</ele><time>2026-05-04T15:30:57.402Z</time></trkpt><trkpt lat="40.81802" lon="14.1535033"><ele>30.666666666666664</ele><time>2026-05-04T15:30:58.402Z</time></trkpt><trkpt lat="40.8180383" lon="14.15359"><ele>29.333333333333332</ele><time>2026-05-04T15:30:59.402Z</time></trkpt><trkpt lat="40.8180567" lon="14.15367"><ele>28.0</ele><time>2026-05-04T15:31:00.401Z</time></trkpt><trkpt lat="40.8180817" lon="14.1538183"><ele>26.666666666666664</ele><time>2026-05-04T15:31:02.402Z</time></trkpt><trkpt lat="40.8180917" lon="14.1539367"><ele>25.333333333333332</ele><time>2026-05-04T15:31:04.402Z</time></trkpt><trkpt lat="40.8180733" lon="14.154055"><ele>24.0</ele><time>2026-05-04T15:31:06.401Z</time></trkpt><trkpt lat="40.8180367" lon="14.15419"><ele>23.5</ele><time>2026-05-04T15:31:08.402Z</time></trkpt><trkpt lat="40.817965" lon="14.1543317"><ele>23.0</ele><time>2026-05-04T15:31:10.402Z</time></trkpt><trkpt lat="40.81792" lon="14.1544"><ele>22.5</ele><time>2026-05-04T15:31:11.403Z</time></trkpt><trkpt lat="40.8178683" lon="14.15447"><ele>22.0</ele><time>2026-05-04T15:31:12.402Z</time></trkpt><trkpt lat="40.8178133" lon="14.1545317"><ele>21.5</ele><time>2026-05-04T15:31:13.402Z</time></trkpt><trkpt lat="40.81776" lon="14.15459"><ele>21.0</ele><time>2026-05-04T15:31:14.402Z</time></trkpt><trkpt lat="40.8177067" lon="14.1546467"><ele>21.0</ele><time>2026-05-04T15:31:15.402Z</time></trkpt><trkpt lat="40.8176617" lon="14.1547117"><ele>21.0</ele><time>2026-05-04T15:31:16.402Z</time></trkpt><trkpt lat="40.8176333" lon="14.1547917"><ele>21.0</ele><time>2026-05-04T15:31:17.403Z</time></trkpt><trkpt lat="40.817625" lon="14.15488"><ele>21.0</ele><time>2026-05-04T15:31:18.401Z</time></trkpt><trkpt lat="40.8176317" lon="14.1549683"><ele>21.0</ele><time>2026-05-04T15:31:19.403Z</time></trkpt><trkpt lat="40.817655" lon="14.1550533"><ele>21.0</ele><time>2026-05-04T15:31:20.403Z</time></trkpt><trkpt lat="40.8176883" lon="14.1551383"><ele>21.0</ele><time>2026-05-04T15:31:21.402Z</time></trkpt><trkpt lat="40.81773" lon="14.1552167"><ele>20.833333333333332</ele><time>2026-05-04T15:31:22.402Z</time></trkpt><trkpt lat="40.8177783" lon="14.155295"><ele>20.666666666666668</ele><time>2026-05-04T15:31:23.402Z</time></trkpt><trkpt lat="40.81783" lon="14.1553717"><ele>20.5</ele><time>2026-05-04T15:31:24.402Z</time></trkpt><trkpt lat="40.8178867" lon="14.1554467"><ele>20.333333333333336</ele><time>2026-05-04T15:31:25.402Z</time></trkpt><trkpt lat="40.8179483" lon="14.15552"><ele>20.166666666666668</ele><time>2026-05-04T15:31:26.401Z</time></trkpt><trkpt lat="40.8180117" lon="14.1555883"><ele>20.0</ele><time>2026-05-04T15:31:27.402Z</time></trkpt><trkpt lat="40.81807" lon="14.1556617"><ele>19.0</ele><time>2026-05-04T15:31:28.403Z</time></trkpt><trkpt lat="40.81812" lon="14.1557417"><ele>18.0</ele><time>2026-05-04T15:31:29.403Z</time></trkpt><trkpt lat="40.8181583" lon="14.15583"><ele>17.0</ele><time>2026-05-04T15:31:30.403Z</time></trkpt><trkpt lat="40.8181833" lon="14.1559233"><ele>16.0</ele><time>2026-05-04T15:31:31.401Z</time></trkpt><trkpt lat="40.8181983" lon="14.1560067"><ele>15.000000000000002</ele><time>2026-05-04T15:31:32.403Z</time></trkpt><trkpt lat="40.8181967" lon="14.156145"><ele>14.0</ele><time>2026-05-04T15:31:34.402Z</time></trkpt><trkpt lat="40.8181617" lon="14.1562867"><ele>14.000000000000002</ele><time>2026-05-04T15:31:36.401Z</time></trkpt><trkpt lat="40.8181167" lon="14.156445"><ele>14.0</ele><time>2026-05-04T15:31:38.403Z</time></trkpt><trkpt lat="40.8180917" lon="14.1565267"><ele>14.0</ele><time>2026-05-04T15:31:39.402Z</time></trkpt><trkpt lat="40.81807" lon="14.1566133"><ele>14.0</ele><time>2026-05-04T15:31:40.402Z</time></trkpt><trkpt lat="40.818045" lon="14.1567067"><ele>14.000000000000002</ele><time>2026-05-04T15:31:41.402Z</time></trkpt><trkpt lat="40.8180167" lon="14.1568"><ele>14.0</ele><time>2026-05-04T15:31:42.402Z</time></trkpt><trkpt lat="40.8179867" lon="14.1568883"><ele>13.857142857142858</ele><time>2026-05-04T15:31:43.403Z</time></trkpt><trkpt lat="40.8179533" lon="14.1569767"><ele>13.714285714285715</ele><time>2026-05-04T15:31:44.403Z</time></trkpt><trkpt lat="40.81792" lon="14.1570567"><ele>13.571428571428571</ele><time>2026-05-04T15:31:45.401Z</time></trkpt><trkpt lat="40.8178883" lon="14.15714"><ele>13.428571428571429</ele><time>2026-05-04T15:31:46.402Z</time></trkpt><trkpt lat="40.8178583" lon="14.1572217"><ele>13.285714285714286</ele><time>2026-05-04T15:31:47.402Z</time></trkpt><trkpt lat="40.8178283" lon="14.1573017"><ele>13.142857142857142</ele><time>2026-05-04T15:31:48.401Z</time></trkpt><trkpt lat="40.8177983" lon="14.1573833"><ele>13.0</ele><time>2026-05-04T15:31:49.401Z</time></trkpt><trkpt lat="40.81777" lon="14.15746"><ele>13.999999999999998</ele><time>2026-05-04T15:31:50.401Z</time></trkpt><trkpt lat="40.8177417" lon="14.15754"><ele>15.0</ele><time>2026-05-04T15:31:51.401Z</time></trkpt><trkpt lat="40.8177067" lon="14.15762"><ele>16.0</ele><time>2026-05-04T15:31:52.402Z</time></trkpt><trkpt lat="40.817675" lon="14.1577"><ele>17.0</ele><time>2026-05-04T15:31:53.401Z</time></trkpt><trkpt lat="40.8176433" lon="14.1577783"><ele>18.0</ele><time>2026-05-04T15:31:54.402Z</time></trkpt><trkpt lat="40.817585" lon="14.1579317"><ele>19.0</ele><time>2026-05-04T15:31:56.405Z</time></trkpt><trkpt lat="40.8175517" lon="14.15801"><ele>17.285714285714285</ele><time>2026-05-04T15:31:57.404Z</time></trkpt><trkpt lat="40.8175183" lon="14.1580917"><ele>15.571428571428573</ele><time>2026-05-04T15:31:58.402Z</time></trkpt><trkpt lat="40.8174883" lon="14.158175"><ele>13.857142857142858</ele><time>2026-05-04T15:31:59.402Z</time></trkpt><trkpt lat="40.8174567" lon="14.15826"><ele>12.142857142857142</ele><time>2026-05-04T15:32:00.402Z</time></trkpt><trkpt lat="40.817425" lon="14.1583467"><ele>10.428571428571429</ele><time>2026-05-04T15:32:01.401Z</time></trkpt><trkpt lat="40.81739" lon="14.1584317"><ele>8.714285714285715</ele><time>2026-05-04T15:32:02.402Z</time></trkpt><trkpt lat="40.8173583" lon="14.158515"><ele>7.0</ele><time>2026-05-04T15:32:03.402Z</time></trkpt><trkpt lat="40.817325" lon="14.1585967"><ele>7.000000000000001</ele><time>2026-05-04T15:32:04.402Z</time></trkpt><trkpt lat="40.81729" lon="14.15868"><ele>7.0</ele><time>2026-05-04T15:32:05.403Z</time></trkpt><trkpt lat="40.81726" lon="14.1587633"><ele>7.0</ele><time>2026-05-04T15:32:06.402Z</time></trkpt><trkpt lat="40.81723" lon="14.1588367"><ele>7.0</ele><time>2026-05-04T15:32:07.403Z</time></trkpt><trkpt lat="40.8171767" lon="14.1589667"><ele>7.000000000000001</ele><time>2026-05-04T15:32:09.402Z</time></trkpt><trkpt lat="40.81713" lon="14.1591017"><ele>7.0</ele><time>2026-05-04T15:32:11.402Z</time></trkpt><trkpt lat="40.817075" lon="14.1592367"><ele>6.857142857142857</ele><time>2026-05-04T15:32:13.402Z</time></trkpt><trkpt lat="40.8170433" lon="14.1593117"><ele>6.714285714285714</ele><time>2026-05-04T15:32:14.402Z</time></trkpt><trkpt lat="40.817005" lon="14.1593883"><ele>6.571428571428571</ele><time>2026-05-04T15:32:15.402Z</time></trkpt><trkpt lat="40.816965" lon="14.1594683"><ele>6.428571428571429</ele><time>2026-05-04T15:32:16.403Z</time></trkpt><trkpt lat="40.816925" lon="14.1595483"><ele>6.285714285714286</ele><time>2026-05-04T15:32:17.401Z</time></trkpt><trkpt lat="40.816885" lon="14.15963"><ele>6.142857142857142</ele><time>2026-05-04T15:32:18.402Z</time></trkpt><trkpt lat="40.816845" lon="14.15971"><ele>6.0</ele><time>2026-05-04T15:32:19.403Z</time></trkpt><trkpt lat="40.8167983" lon="14.15979"><ele>5.666666666666667</ele><time>2026-05-04T15:32:20.402Z</time></trkpt><trkpt lat="40.8167517" lon="14.15987"><ele>5.333333333333333</ele><time>2026-05-04T15:32:21.401Z</time></trkpt><trkpt lat="40.8167083" lon="14.1599567"><ele>5.0</ele><time>2026-05-04T15:32:22.402Z</time></trkpt><trkpt lat="40.8166583" lon="14.1600433"><ele>4.666666666666666</ele><time>2026-05-04T15:32:23.403Z</time></trkpt><trkpt lat="40.8166133" lon="14.1601317"><ele>4.333333333333333</ele><time>2026-05-04T15:32:24.403Z</time></trkpt><trkpt lat="40.81657" lon="14.16022"><ele>4.0</ele><time>2026-05-04T15:32:25.402Z</time></trkpt><trkpt lat="40.816525" lon="14.16031"><ele>3.9999999999999996</ele><time>2026-05-04T15:32:26.403Z</time></trkpt><trkpt lat="40.8164833" lon="14.1603983"><ele>4.0</ele><time>2026-05-04T15:32:27.403Z</time></trkpt><trkpt lat="40.81644" lon="14.1604917"><ele>4.0</ele><time>2026-05-04T15:32:28.402Z</time></trkpt><trkpt lat="40.8163983" lon="14.1605833"><ele>4.0</ele><time>2026-05-04T15:32:29.402Z</time></trkpt><trkpt lat="40.8163583" lon="14.160675"><ele>3.9999999999999996</ele><time>2026-05-04T15:32:30.401Z</time></trkpt><trkpt lat="40.8163167" lon="14.1607667"><ele>4.0</ele><time>2026-05-04T15:32:31.403Z</time></trkpt><trkpt lat="40.8162733" lon="14.160855"><ele>4.666666666666666</ele><time>2026-05-04T15:32:32.402Z</time></trkpt><trkpt lat="40.8162317" lon="14.1609433"><ele>5.333333333333333</ele><time>2026-05-04T15:32:33.402Z</time></trkpt><trkpt lat="40.8161917" lon="14.1610317"><ele>6.0</ele><time>2026-05-04T15:32:34.402Z</time></trkpt><trkpt lat="40.8161517" lon="14.16112"><ele>6.666666666666666</ele><time>2026-05-04T15:32:35.405Z</time></trkpt><trkpt lat="40.8161117" lon="14.161205"><ele>7.333333333333333</ele><time>2026-05-04T15:32:36.403Z</time></trkpt><trkpt lat="40.8160733" lon="14.1612917"><ele>8.0</ele><time>2026-05-04T15:32:37.403Z</time></trkpt><trkpt lat="40.8160317" lon="14.16138"><ele>7.999999999999999</ele><time>2026-05-04T15:32:38.402Z</time></trkpt><trkpt lat="40.81599" lon="14.16147"><ele>8.0</ele><time>2026-05-04T15:32:39.402Z</time></trkpt><trkpt lat="40.8159517" lon="14.161565"><ele>8.0</ele><time>2026-05-04T15:32:40.404Z</time></trkpt><trkpt lat="40.81591" lon="14.1616567"><ele>8.0</ele><time>2026-05-04T15:32:41.403Z</time></trkpt><trkpt lat="40.81587" lon="14.161745"><ele>7.999999999999999</ele><time>2026-05-04T15:32:42.403Z</time></trkpt><trkpt lat="40.8158283" lon="14.1618317"><ele>8.0</ele><time>2026-05-04T15:32:43.403Z</time></trkpt><trkpt lat="40.8157917" lon="14.1619183"><ele>7.7142857142857135</ele><time>2026-05-04T15:32:44.402Z</time></trkpt><trkpt lat="40.81576" lon="14.1620033"><ele>7.428571428571428</ele><time>2026-05-04T15:32:45.401Z</time></trkpt><trkpt lat="40.8157267" lon="14.1620883"><ele>7.142857142857142</ele><time>2026-05-04T15:32:46.402Z</time></trkpt><trkpt lat="40.815695" lon="14.1621683"><ele>6.857142857142857</ele><time>2026-05-04T15:32:47.405Z</time></trkpt><trkpt lat="40.81566" lon="14.1622467"><ele>6.571428571428571</ele><time>2026-05-04T15:32:48.402Z</time></trkpt><trkpt lat="40.8156283" lon="14.1623233"><ele>6.285714285714285</ele><time>2026-05-04T15:32:49.401Z</time></trkpt><trkpt lat="40.8155933" lon="14.162395"><ele>6.0</ele><time>2026-05-04T15:32:50.402Z</time></trkpt><trkpt lat="40.8155267" lon="14.1625367"><ele>6.0</ele><time>2026-05-04T15:32:52.402Z</time></trkpt><trkpt lat="40.81546" lon="14.162665"><ele>6.0</ele><time>2026-05-04T15:32:54.401Z</time></trkpt><trkpt lat="40.8154017" lon="14.1627867"><ele>6.0</ele><time>2026-05-04T15:32:56.403Z</time></trkpt><trkpt lat="40.8153567" lon="14.1629067"><ele>6.0</ele><time>2026-05-04T15:32:58.402Z</time></trkpt><trkpt lat="40.81531" lon="14.1630217"><ele>6.0</ele><time>2026-05-04T15:33:00.403Z</time></trkpt><trkpt lat="40.8152517" lon="14.1631433"><ele>6.0</ele><time>2026-05-04T15:33:02.403Z</time></trkpt><trkpt lat="40.8151883" lon="14.1632717"><ele>6.0</ele><time>2026-05-04T15:33:04.403Z</time></trkpt><trkpt lat="40.8151233" lon="14.163405"><ele>6.0</ele><time>2026-05-04T15:33:06.401Z</time></trkpt><trkpt lat="40.8150867" lon="14.1634767"><ele>6.0</ele><time>2026-05-04T15:33:07.403Z</time></trkpt><trkpt lat="40.8150483" lon="14.1635517"><ele>6.0</ele><time>2026-05-04T15:33:08.403Z</time></trkpt><trkpt lat="40.8150067" lon="14.163625"><ele>6.0</ele><time>2026-05-04T15:33:09.401Z</time></trkpt><trkpt lat="40.8149467" lon="14.1637733"><ele>5.999999999999999</ele><time>2026-05-04T15:33:11.401Z</time></trkpt><trkpt lat="40.814915" lon="14.1638467"><ele>6.0</ele><time>2026-05-04T15:33:12.405Z</time></trkpt><trkpt lat="40.8148717" lon="14.1639433"><ele>6.0</ele><time>2026-05-04T15:33:14.404Z</time></trkpt><trkpt lat="40.8148433" lon="14.1640267"><ele>6.0</ele><time>2026-05-04T15:33:44.402Z</time></trkpt><trkpt lat="40.814795" lon="14.164105"><ele>6.0</ele><time>2026-05-04T15:33:47.403Z</time></trkpt><trkpt lat="40.814765" lon="14.1641833"><ele>5.999999999999999</ele><time>2026-05-04T15:33:49.402Z</time></trkpt><trkpt lat="40.81473" lon="14.164285"><ele>6.0</ele><time>2026-05-04T15:33:51.402Z</time></trkpt><trkpt lat="40.814675" lon="14.1643917"><ele>6.5</ele><time>2026-05-04T15:33:53.401Z</time></trkpt><trkpt lat="40.814605" lon="14.16452"><ele>7.0</ele><time>2026-05-04T15:33:55.403Z</time></trkpt><trkpt lat="40.8145683" lon="14.1645883"><ele>7.5</ele><time>2026-05-04T15:33:56.404Z</time></trkpt><trkpt lat="40.8145" lon="14.1647267"><ele>8.0</ele><time>2026-05-04T15:33:58.402Z</time></trkpt><trkpt lat="40.814465" lon="14.1647967"><ele>8.5</ele><time>2026-05-04T15:33:59.404Z</time></trkpt><trkpt lat="40.8144283" lon="14.164865"><ele>9.0</ele><time>2026-05-04T15:34:00.403Z</time></trkpt><trkpt lat="40.8143867" lon="14.1649433"><ele>8.833333333333334</ele><time>2026-05-04T15:34:01.402Z</time></trkpt><trkpt lat="40.8143467" lon="14.1650233"><ele>8.666666666666666</ele><time>2026-05-04T15:34:02.402Z</time></trkpt><trkpt lat="40.8143017" lon="14.1651133"><ele>8.5</ele><time>2026-05-04T15:34:03.402Z</time></trkpt><trkpt lat="40.8142633" lon="14.1652017"><ele>8.333333333333332</ele><time>2026-05-04T15:34:04.402Z</time></trkpt><trkpt lat="40.81422" lon="14.1652967"><ele>8.166666666666666</ele><time>2026-05-04T15:34:05.404Z</time></trkpt><trkpt lat="40.8141783" lon="14.1653817"><ele>8.0</ele><time>2026-05-04T15:34:06.403Z</time></trkpt><trkpt lat="40.8141417" lon="14.1654617"><ele>7.999999999999999</ele><time>2026-05-04T15:34:07.402Z</time></trkpt><trkpt lat="40.8141" lon="14.16554"><ele>8.0</ele><time>2026-05-04T15:34:08.402Z</time></trkpt><trkpt lat="40.814055" lon="14.1656167"><ele>8.0</ele><time>2026-05-04T15:34:09.401Z</time></trkpt><trkpt lat="40.8140133" lon="14.16569"><ele>8.0</ele><time>2026-05-04T15:34:10.403Z</time></trkpt><trkpt lat="40.8139767" lon="14.1657683"><ele>7.999999999999999</ele><time>2026-05-04T15:34:11.402Z</time></trkpt><trkpt lat="40.8139417" lon="14.1658433"><ele>8.0</ele><time>2026-05-04T15:34:12.402Z</time></trkpt><trkpt lat="40.8138783" lon="14.1659767"><ele>8.200000000000001</ele><time>2026-05-04T15:34:14.402Z</time></trkpt><trkpt lat="40.813805" lon="14.1660933"><ele>8.4</ele><time>2026-05-04T15:34:16.403Z</time></trkpt><trkpt lat="40.81374" lon="14.1662"><ele>8.600000000000001</ele><time>2026-05-04T15:34:18.402Z</time></trkpt><trkpt lat="40.81367" lon="14.166295"><ele>8.8</ele><time>2026-05-04T15:34:20.402Z</time></trkpt><trkpt lat="40.813615" lon="14.166385"><ele>9.0</ele><time>2026-05-04T15:34:22.403Z</time></trkpt><trkpt lat="40.8135817" lon="14.16648"><ele>9.333333333333334</ele><time>2026-05-04T15:34:24.403Z</time></trkpt><trkpt lat="40.81359" lon="14.16659"><ele>9.666666666666666</ele><time>2026-05-04T15:34:26.403Z</time></trkpt><trkpt lat="40.8136417" lon="14.1666633"><ele>10.0</ele><time>2026-05-04T15:34:28.402Z</time></trkpt><trkpt lat="40.8137217" lon="14.1667033"><ele>10.333333333333332</ele><time>2026-05-04T15:34:30.402Z</time></trkpt><trkpt lat="40.8138" lon="14.1667583"><ele>10.666666666666666</ele><time>2026-05-04T15:34:32.402Z</time></trkpt><trkpt lat="40.813865" lon="14.1668317"><ele>11.0</ele><time>2026-05-04T15:34:34.403Z</time></trkpt><trkpt lat="40.813915" lon="14.1669067"><ele>11.0</ele><time>2026-05-04T15:34:36.402Z</time></trkpt><trkpt lat="40.8139567" lon="14.1669833"><ele>11.0</ele><time>2026-05-04T15:34:38.404Z</time></trkpt><trkpt lat="40.813995" lon="14.1670733"><ele>11.0</ele><time>2026-05-04T15:34:40.402Z</time></trkpt><trkpt lat="40.8140417" lon="14.1671767"><ele>11.0</ele><time>2026-05-04T15:34:42.403Z</time></trkpt><trkpt lat="40.814085" lon="14.1672883"><ele>11.0</ele><time>2026-05-04T15:34:44.403Z</time></trkpt><trkpt lat="40.8141217" lon="14.1673817"><ele>11.0</ele><time>2026-05-04T15:34:46.405Z</time></trkpt><trkpt lat="40.81417" lon="14.1674717"><ele>11.166666666666666</ele><time>2026-05-04T15:34:48.402Z</time></trkpt><trkpt lat="40.8142183" lon="14.16757"><ele>11.333333333333332</ele><time>2026-05-04T15:34:50.402Z</time></trkpt><trkpt lat="40.8142667" lon="14.1676683"><ele>11.5</ele><time>2026-05-04T15:34:52.403Z</time></trkpt><trkpt lat="40.8143017" lon="14.1677717"><ele>11.666666666666666</ele><time>2026-05-04T15:34:54.403Z</time></trkpt><trkpt lat="40.8143283" lon="14.1678817"><ele>11.833333333333334</ele><time>2026-05-04T15:34:56.402Z</time></trkpt><trkpt lat="40.814355" lon="14.1679917"><ele>12.0</ele><time>2026-05-04T15:34:58.403Z</time></trkpt><trkpt lat="40.8143833" lon="14.1681083"><ele>12.2</ele><time>2026-05-04T15:35:00.401Z</time></trkpt><trkpt lat="40.8144233" lon="14.168235"><ele>12.399999999999999</ele><time>2026-05-04T15:35:02.403Z</time></trkpt><trkpt lat="40.8144633" lon="14.16835"><ele>12.600000000000001</ele><time>2026-05-04T15:35:04.402Z</time></trkpt><trkpt lat="40.8145067" lon="14.1684617"><ele>12.8</ele><time>2026-05-04T15:35:06.401Z</time></trkpt><trkpt lat="40.814545" lon="14.1685533"><ele>13.0</ele><time>2026-05-04T15:35:08.403Z</time></trkpt><trkpt lat="40.8145917" lon="14.16866"><ele>13.0</ele><time>2026-05-04T15:35:10.403Z</time></trkpt><trkpt lat="40.8146383" lon="14.1687733"><ele>13.0</ele><time>2026-05-04T15:35:12.402Z</time></trkpt><trkpt lat="40.8146833" lon="14.1689"><ele>13.0</ele><time>2026-05-04T15:35:14.402Z</time></trkpt><trkpt lat="40.8147217" lon="14.1690433"><ele>13.0</ele><time>2026-05-04T15:35:16.402Z</time></trkpt><trkpt lat="40.8147717" lon="14.1691867"><ele>13.0</ele><time>2026-05-04T15:35:18.401Z</time></trkpt><trkpt lat="40.8148167" lon="14.1693367"><ele>12.75</ele><time>2026-05-04T15:35:20.402Z</time></trkpt><trkpt lat="40.814865" lon="14.169485"><ele>12.5</ele><time>2026-05-04T15:35:22.402Z</time></trkpt><trkpt lat="40.8149117" lon="14.1696283"><ele>12.25</ele><time>2026-05-04T15:35:24.402Z</time></trkpt><trkpt lat="40.8149583" lon="14.1697717"><ele>12.0</ele><time>2026-05-04T15:35:26.401Z</time></trkpt><trkpt lat="40.815" lon="14.16992"><ele>11.8</ele><time>2026-05-04T15:35:28.402Z</time></trkpt><trkpt lat="40.81505" lon="14.1700617"><ele>11.6</ele><time>2026-05-04T15:35:30.403Z</time></trkpt><trkpt lat="40.8150967" lon="14.1702117"><ele>11.4</ele><time>2026-05-04T15:35:32.402Z</time></trkpt><trkpt lat="40.81512" lon="14.17029"><ele>11.200000000000001</ele><time>2026-05-04T15:35:33.403Z</time></trkpt><trkpt lat="40.81517" lon="14.1704283"><ele>11.0</ele><time>2026-05-04T15:35:35.402Z</time></trkpt><trkpt lat="40.81522" lon="14.17057"><ele>12.0</ele><time>2026-05-04T15:35:37.403Z</time></trkpt><trkpt lat="40.8152667" lon="14.1707067"><ele>13.0</ele><time>2026-05-04T15:35:39.402Z</time></trkpt><trkpt lat="40.8153117" lon="14.1708483"><ele>14.0</ele><time>2026-05-04T15:35:41.401Z</time></trkpt><trkpt lat="40.8153517" lon="14.17099"><ele>15.0</ele><time>2026-05-04T15:35:43.402Z</time></trkpt><trkpt lat="40.8154033" lon="14.1711317"><ele>15.0</ele><time>2026-05-04T15:35:45.403Z</time></trkpt><trkpt lat="40.8154483" lon="14.171265"><ele>15.0</ele><time>2026-05-04T15:35:47.402Z</time></trkpt><trkpt lat="40.8154883" lon="14.1714133"><ele>15.0</ele><time>2026-05-04T15:35:49.402Z</time></trkpt><trkpt lat="40.81553" lon="14.1715433"><ele>15.0</ele><time>2026-05-04T15:35:51.403Z</time></trkpt><trkpt lat="40.8155733" lon="14.1716683"><ele>15.0</ele><time>2026-05-04T15:35:53.401Z</time></trkpt><trkpt lat="40.8156083" lon="14.171805"><ele>14.6</ele><time>2026-05-04T15:35:55.402Z</time></trkpt><trkpt lat="40.81565" lon="14.1719383"><ele>14.2</ele><time>2026-05-04T15:35:57.403Z</time></trkpt><trkpt lat="40.8156967" lon="14.1720683"><ele>13.8</ele><time>2026-05-04T15:35:59.401Z</time></trkpt><trkpt lat="40.8157367" lon="14.1721933"><ele>13.4</ele><time>2026-05-04T15:36:01.402Z</time></trkpt><trkpt lat="40.81578" lon="14.1723117"><ele>13.0</ele><time>2026-05-04T15:36:03.41Z</time></trkpt><trkpt lat="40.8158067" lon="14.1724317"><ele>12.499999999999998</ele><time>2026-05-04T15:36:05.402Z</time></trkpt><trkpt lat="40.8158367" lon="14.172545"><ele>12.0</ele><time>2026-05-04T15:36:07.404Z</time></trkpt><trkpt lat="40.8158733" lon="14.1726483"><ele>11.5</ele><time>2026-05-04T15:36:09.4Z</time></trkpt><trkpt lat="40.8159017" lon="14.1727417"><ele>11.0</ele><time>2026-05-04T15:36:11.402Z</time></trkpt><trkpt lat="40.81592" lon="14.1728383"><ele>10.5</ele><time>2026-05-04T15:36:13.403Z</time></trkpt><trkpt lat="40.815955" lon="14.1729267"><ele>10.0</ele><time>2026-05-04T15:36:15.4Z</time></trkpt><trkpt lat="40.8159983" lon="14.173025"><ele>11.0</ele><time>2026-05-04T15:36:17.402Z</time></trkpt><trkpt lat="40.816035" lon="14.1731367"><ele>12.0</ele><time>2026-05-04T15:36:19.401Z</time></trkpt><trkpt lat="40.8160767" lon="14.1732733"><ele>13.0</ele><time>2026-05-04T15:36:21.402Z</time></trkpt><trkpt lat="40.816115" lon="14.1734083"><ele>14.0</ele><time>2026-05-04T15:36:23.402Z</time></trkpt><trkpt lat="40.8161567" lon="14.1735367"><ele>15.0</ele><time>2026-05-04T15:36:25.402Z</time></trkpt><trkpt lat="40.816205" lon="14.1736533"><ele>15.0</ele><time>2026-05-04T15:36:27.403Z</time></trkpt><trkpt lat="40.8162367" lon="14.17378"><ele>15.0</ele><time>2026-05-04T15:36:29.402Z</time></trkpt><trkpt lat="40.8162733" lon="14.1739"><ele>15.0</ele><time>2026-05-04T15:36:31.401Z</time></trkpt><trkpt lat="40.8163167" lon="14.1740167"><ele>15.0</ele><time>2026-05-04T15:36:33.403Z</time></trkpt><trkpt lat="40.8163633" lon="14.1741317"><ele>15.0</ele><time>2026-05-04T15:36:35.402Z</time></trkpt><trkpt lat="40.8164017" lon="14.1742517"><ele>14.6</ele><time>2026-05-04T15:36:37.401Z</time></trkpt><trkpt lat="40.8164417" lon="14.174375"><ele>14.2</ele><time>2026-05-04T15:36:39.4Z</time></trkpt><trkpt lat="40.81649" lon="14.1744817"><ele>13.8</ele><time>2026-05-04T15:36:41.401Z</time></trkpt><trkpt lat="40.8165333" lon="14.1745933"><ele>13.4</ele><time>2026-05-04T15:36:43.404Z</time></trkpt><trkpt lat="40.816565" lon="14.1747"><ele>13.0</ele><time>2026-05-04T15:36:45.402Z</time></trkpt><trkpt lat="40.81661" lon="14.1748167"><ele>12.833333333333332</ele><time>2026-05-04T15:36:47.402Z</time></trkpt><trkpt lat="40.8166517" lon="14.1749217"><ele>12.666666666666666</ele><time>2026-05-04T15:36:49.402Z</time></trkpt><trkpt lat="40.8166917" lon="14.175025"><ele>12.5</ele><time>2026-05-04T15:36:51.402Z</time></trkpt><trkpt lat="40.8167217" lon="14.1751383"><ele>12.333333333333332</ele><time>2026-05-04T15:36:53.402Z</time></trkpt><trkpt lat="40.816755" lon="14.1752483"><ele>12.166666666666666</ele><time>2026-05-04T15:36:55.402Z</time></trkpt><trkpt lat="40.816785" lon="14.1753583"><ele>12.0</ele><time>2026-05-04T15:36:57.402Z</time></trkpt><trkpt lat="40.8168217" lon="14.175475"><ele>13.0</ele><time>2026-05-04T15:36:59.401Z</time></trkpt><trkpt lat="40.8168567" lon="14.1755933"><ele>14.0</ele><time>2026-05-04T15:37:01.404Z</time></trkpt><trkpt lat="40.8168933" lon="14.1756883"><ele>15.0</ele><time>2026-05-04T15:37:03.401Z</time></trkpt><trkpt lat="40.816925" lon="14.1757833"><ele>16.0</ele><time>2026-05-04T15:37:05.402Z</time></trkpt><trkpt lat="40.8169567" lon="14.1758733"><ele>17.0</ele><time>2026-05-04T15:37:07.401Z</time></trkpt><trkpt lat="40.8169883" lon="14.175965"><ele>18.0</ele><time>2026-05-04T15:37:09.401Z</time></trkpt><trkpt lat="40.8170217" lon="14.1760733"><ele>18.0</ele><time>2026-05-04T15:37:11.402Z</time></trkpt><trkpt lat="40.8170717" lon="14.1761817"><ele>18.0</ele><time>2026-05-04T15:37:13.402Z</time></trkpt><trkpt lat="40.8171267" lon="14.1763017"><ele>18.0</ele><time>2026-05-04T15:37:15.402Z</time></trkpt><trkpt lat="40.8171733" lon="14.1764367"><ele>18.0</ele><time>2026-05-04T15:37:17.401Z</time></trkpt><trkpt lat="40.8172083" lon="14.1765633"><ele>18.0</ele><time>2026-05-04T15:37:19.402Z</time></trkpt><trkpt lat="40.81725" lon="14.1766817"><ele>17.833333333333332</ele><time>2026-05-04T15:37:21.402Z</time></trkpt><trkpt lat="40.8172817" lon="14.1768083"><ele>17.666666666666668</ele><time>2026-05-04T15:37:23.403Z</time></trkpt><trkpt lat="40.817315" lon="14.1769267"><ele>17.5</ele><time>2026-05-04T15:37:25.404Z</time></trkpt><trkpt lat="40.81735" lon="14.1770167"><ele>17.333333333333336</ele><time>2026-05-04T15:37:27.402Z</time></trkpt><trkpt lat="40.8173883" lon="14.1771017"><ele>17.166666666666668</ele><time>2026-05-04T15:37:29.401Z</time></trkpt><trkpt lat="40.8174267" lon="14.1772133"><ele>17.0</ele><time>2026-05-04T15:37:31.401Z</time></trkpt><trkpt lat="40.8174633" lon="14.1773417"><ele>17.2</ele><time>2026-05-04T15:37:33.404Z</time></trkpt><trkpt lat="40.817515" lon="14.1774683"><ele>17.4</ele><time>2026-05-04T15:37:35.402Z</time></trkpt><trkpt lat="40.8175633" lon="14.177595"><ele>17.6</ele><time>2026-05-04T15:37:37.402Z</time></trkpt><trkpt lat="40.81761" lon="14.1777267"><ele>17.8</ele><time>2026-05-04T15:37:39.403Z</time></trkpt><trkpt lat="40.8176533" lon="14.1778683"><ele>18.0</ele><time>2026-05-04T15:37:41.401Z</time></trkpt><trkpt lat="40.8176917" lon="14.178"><ele>18.5</ele><time>2026-05-04T15:37:43.401Z</time></trkpt><trkpt lat="40.81773" lon="14.17814"><ele>19.0</ele><time>2026-05-04T15:37:45.402Z</time></trkpt><trkpt lat="40.8177683" lon="14.1782733"><ele>19.5</ele><time>2026-05-04T15:37:47.402Z</time></trkpt><trkpt lat="40.8178017" lon="14.1784183"><ele>20.0</ele><time>2026-05-04T15:37:49.403Z</time></trkpt><trkpt lat="40.8178417" lon="14.17857"><ele>20.2</ele><time>2026-05-04T15:37:51.402Z</time></trkpt><trkpt lat="40.8178833" lon="14.178715"><ele>20.4</ele><time>2026-05-04T15:37:53.402Z</time></trkpt><trkpt lat="40.8179317" lon="14.17886"><ele>20.6</ele><time>2026-05-04T15:37:55.403Z</time></trkpt><trkpt lat="40.8179533" lon="14.1789383"><ele>20.8</ele><time>2026-05-04T15:37:56.403Z</time></trkpt><trkpt lat="40.8180017" lon="14.1790917"><ele>21.0</ele><time>2026-05-04T15:37:58.402Z</time></trkpt><trkpt lat="40.8180683" lon="14.1792733"><ele>21.200000000000003</ele><time>2026-05-04T15:38:01.402Z</time></trkpt><trkpt lat="40.818125" lon="14.1794633"><ele>21.400000000000002</ele><time>2026-05-04T15:38:03.403Z</time></trkpt><trkpt lat="40.818165" lon="14.1795633"><ele>21.6</ele><time>2026-05-04T15:38:04.402Z</time></trkpt><trkpt lat="40.8182167" lon="14.179615"><ele>21.8</ele><time>2026-05-04T15:38:05.402Z</time></trkpt><trkpt lat="40.8182717" lon="14.179755"><ele>22.0</ele><time>2026-05-04T15:38:07.403Z</time></trkpt><trkpt lat="40.8182917" lon="14.179835"><ele>22.0</ele><time>2026-05-04T15:38:08.402Z</time></trkpt><trkpt lat="40.818325" lon="14.1799917"><ele>22.0</ele><time>2026-05-04T15:38:10.405Z</time></trkpt><trkpt lat="40.8183733" lon="14.1801333"><ele>22.0</ele><time>2026-05-04T15:38:12.401Z</time></trkpt><trkpt lat="40.81843" lon="14.1802867"><ele>22.0</ele><time>2026-05-04T15:38:14.405Z</time></trkpt><trkpt lat="40.8184533" lon="14.18037"><ele>22.0</ele><time>2026-05-04T15:38:15.402Z</time></trkpt><trkpt lat="40.8184767" lon="14.1804583"><ele>22.142857142857142</ele><time>2026-05-04T15:38:16.404Z</time></trkpt><trkpt lat="40.8185067" lon="14.1805383"><ele>22.285714285714285</ele><time>2026-05-04T15:38:17.401Z</time></trkpt><trkpt lat="40.8185417" lon="14.1806183"><ele>22.42857142857143</ele><time>2026-05-04T15:38:18.403Z</time></trkpt><trkpt lat="40.818565" lon="14.1806983"><ele>22.57142857142857</ele><time>2026-05-04T15:38:19.401Z</time></trkpt><trkpt lat="40.8185967" lon="14.1807783"><ele>22.71428571428571</ele><time>2026-05-04T15:38:20.403Z</time></trkpt><trkpt lat="40.8186233" lon="14.18086"><ele>22.857142857142858</ele><time>2026-05-04T15:38:21.402Z</time></trkpt><trkpt lat="40.81865" lon="14.1809383"><ele>23.0</ele><time>2026-05-04T15:38:22.401Z</time></trkpt><trkpt lat="40.8186783" lon="14.1810133"><ele>23.166666666666668</ele><time>2026-05-04T15:38:23.402Z</time></trkpt><trkpt lat="40.8187117" lon="14.181085"><ele>23.333333333333336</ele><time>2026-05-04T15:38:24.401Z</time></trkpt><trkpt lat="40.8187683" lon="14.1812333"><ele>23.5</ele><time>2026-05-04T15:38:26.401Z</time></trkpt><trkpt lat="40.818795" lon="14.1813117"><ele>23.666666666666668</ele><time>2026-05-04T15:38:27.401Z</time></trkpt><trkpt lat="40.8188233" lon="14.1813867"><ele>23.833333333333332</ele><time>2026-05-04T15:38:28.403Z</time></trkpt><trkpt lat="40.81885" lon="14.181465"><ele>24.0</ele><time>2026-05-04T15:38:29.402Z</time></trkpt><trkpt lat="40.81887" lon="14.1815517"><ele>23.71428571428571</ele><time>2026-05-04T15:38:30.402Z</time></trkpt><trkpt lat="40.8188917" lon="14.1816317"><ele>23.428571428571427</ele><time>2026-05-04T15:38:31.401Z</time></trkpt><trkpt lat="40.8189133" lon="14.1817167"><ele>23.142857142857142</ele><time>2026-05-04T15:38:32.401Z</time></trkpt><trkpt lat="40.818935" lon="14.1818017"><ele>22.857142857142854</ele><time>2026-05-04T15:38:33.402Z</time></trkpt><trkpt lat="40.81896" lon="14.1818867"><ele>22.57142857142857</ele><time>2026-05-04T15:38:34.402Z</time></trkpt><trkpt lat="40.8189867" lon="14.1819667"><ele>22.285714285714285</ele><time>2026-05-04T15:38:35.402Z</time></trkpt><trkpt lat="40.8190117" lon="14.1820483"><ele>22.0</ele><time>2026-05-04T15:38:36.404Z</time></trkpt><trkpt lat="40.8190433" lon="14.1821233"><ele>22.0</ele><time>2026-05-04T15:38:37.401Z</time></trkpt><trkpt lat="40.8191017" lon="14.182265"><ele>22.0</ele><time>2026-05-04T15:38:39.402Z</time></trkpt><trkpt lat="40.8191483" lon="14.1824167"><ele>22.0</ele><time>2026-05-04T15:38:41.403Z</time></trkpt><trkpt lat="40.8191817" lon="14.1825717"><ele>22.0</ele><time>2026-05-04T15:38:43.401Z</time></trkpt><trkpt lat="40.8192217" lon="14.1827267"><ele>21.833333333333332</ele><time>2026-05-04T15:38:45.403Z</time></trkpt><trkpt lat="40.8192767" lon="14.1828733"><ele>21.666666666666664</ele><time>2026-05-04T15:38:47.404Z</time></trkpt><trkpt lat="40.819305" lon="14.18295"><ele>21.5</ele><time>2026-05-04T15:38:48.402Z</time></trkpt><trkpt lat="40.81933" lon="14.1830267"><ele>21.333333333333332</ele><time>2026-05-04T15:38:49.402Z</time></trkpt><trkpt lat="40.8193633" lon="14.1831033"><ele>21.166666666666668</ele><time>2026-05-04T15:38:50.402Z</time></trkpt><trkpt lat="40.819395" lon="14.1831833"><ele>21.0</ele><time>2026-05-04T15:38:51.401Z</time></trkpt><trkpt lat="40.819425" lon="14.1832633"><ele>20.857142857142858</ele><time>2026-05-04T15:38:52.402Z</time></trkpt><trkpt lat="40.8194583" lon="14.1833367"><ele>20.714285714285715</ele><time>2026-05-04T15:38:53.404Z</time></trkpt><trkpt lat="40.819485" lon="14.1834167"><ele>20.57142857142857</ele><time>2026-05-04T15:38:54.402Z</time></trkpt><trkpt lat="40.81951" lon="14.1834967"><ele>20.42857142857143</ele><time>2026-05-04T15:38:55.403Z</time></trkpt><trkpt lat="40.8195383" lon="14.183575"><ele>20.285714285714285</ele><time>2026-05-04T15:38:56.402Z</time></trkpt><trkpt lat="40.8195667" lon="14.183655"><ele>20.142857142857142</ele><time>2026-05-04T15:38:57.403Z</time></trkpt><trkpt lat="40.81959" lon="14.1837367"><ele>20.0</ele><time>2026-05-04T15:38:58.402Z</time></trkpt><trkpt lat="40.819615" lon="14.1838183"><ele>20.0</ele><time>2026-05-04T15:38:59.403Z</time></trkpt><trkpt lat="40.8196367" lon="14.1838983"><ele>20.0</ele><time>2026-05-04T15:39:00.402Z</time></trkpt><trkpt lat="40.8196583" lon="14.1839783"><ele>20.0</ele><time>2026-05-04T15:39:01.403Z</time></trkpt><trkpt lat="40.8197067" lon="14.1841283"><ele>20.0</ele><time>2026-05-04T15:39:03.402Z</time></trkpt><trkpt lat="40.81973" lon="14.1842067"><ele>20.0</ele><time>2026-05-04T15:39:04.403Z</time></trkpt><trkpt lat="40.8197533" lon="14.184285"><ele>20.0</ele><time>2026-05-04T15:39:05.403Z</time></trkpt><trkpt lat="40.8197967" lon="14.18443"><ele>20.2</ele><time>2026-05-04T15:39:07.403Z</time></trkpt><trkpt lat="40.819835" lon="14.18458"><ele>20.4</ele><time>2026-05-04T15:39:09.401Z</time></trkpt><trkpt lat="40.81988" lon="14.184735"><ele>20.6</ele><time>2026-05-04T15:39:11.402Z</time></trkpt><trkpt lat="40.8199017" lon="14.1848133"><ele>20.8</ele><time>2026-05-04T15:39:12.402Z</time></trkpt><trkpt lat="40.819945" lon="14.1849633"><ele>21.0</ele><time>2026-05-04T15:39:14.403Z</time></trkpt><trkpt lat="40.8199783" lon="14.185115"><ele>21.166666666666668</ele><time>2026-05-04T15:39:16.404Z</time></trkpt><trkpt lat="40.8200183" lon="14.1852617"><ele>21.333333333333332</ele><time>2026-05-04T15:39:18.404Z</time></trkpt><trkpt lat="40.82008" lon="14.1854133"><ele>21.5</ele><time>2026-05-04T15:39:20.404Z</time></trkpt><trkpt lat="40.820115" lon="14.1854917"><ele>21.666666666666664</ele><time>2026-05-04T15:39:21.402Z</time></trkpt><trkpt lat="40.8201433" lon="14.18557"><ele>21.833333333333332</ele><time>2026-05-04T15:39:22.402Z</time></trkpt><trkpt lat="40.8201667" lon="14.18565"><ele>22.0</ele><time>2026-05-04T15:39:23.401Z</time></trkpt><trkpt lat="40.8201933" lon="14.1857283"><ele>22.666666666666664</ele><time>2026-05-04T15:39:24.404Z</time></trkpt><trkpt lat="40.82022" lon="14.1858083"><ele>23.333333333333332</ele><time>2026-05-04T15:39:25.405Z</time></trkpt><trkpt lat="40.8202467" lon="14.1858867"><ele>24.0</ele><time>2026-05-04T15:39:26.402Z</time></trkpt><trkpt lat="40.8202717" lon="14.185965"><ele>24.666666666666664</ele><time>2026-05-04T15:39:27.403Z</time></trkpt><trkpt lat="40.8203" lon="14.186045"><ele>25.333333333333332</ele><time>2026-05-04T15:39:28.404Z</time></trkpt><trkpt lat="40.82036" lon="14.1861867"><ele>26.0</ele><time>2026-05-04T15:39:30.402Z</time></trkpt><trkpt lat="40.8204217" lon="14.18633"><ele>26.0</ele><time>2026-05-04T15:39:32.402Z</time></trkpt><trkpt lat="40.8204517" lon="14.1864033"><ele>26.0</ele><time>2026-05-04T15:39:33.402Z</time></trkpt><trkpt lat="40.8205133" lon="14.186525"><ele>26.0</ele><time>2026-05-04T15:39:35.403Z</time></trkpt><trkpt lat="40.8205467" lon="14.1866283"><ele>26.0</ele><time>2026-05-04T15:39:37.403Z</time></trkpt><trkpt lat="40.8205833" lon="14.1867483"><ele>26.0</ele><time>2026-05-04T15:39:39.402Z</time></trkpt><trkpt lat="40.8206317" lon="14.18687"><ele>26.0</ele><time>2026-05-04T15:39:41.402Z</time></trkpt><trkpt lat="40.82068" lon="14.187"><ele>26.0</ele><time>2026-05-04T15:39:43.403Z</time></trkpt><trkpt lat="40.82072" lon="14.18715"><ele>26.0</ele><time>2026-05-04T15:39:45.401Z</time></trkpt><trkpt lat="40.820775" lon="14.1873017"><ele>26.0</ele><time>2026-05-04T15:39:47.403Z</time></trkpt><trkpt lat="40.8208117" lon="14.187375"><ele>26.0</ele><time>2026-05-04T15:39:48.402Z</time></trkpt><trkpt lat="40.82084" lon="14.18745"><ele>26.0</ele><time>2026-05-04T15:39:49.403Z</time></trkpt><trkpt lat="40.8208683" lon="14.1875267"><ele>26.0</ele><time>2026-05-04T15:39:50.402Z</time></trkpt><trkpt lat="40.8208967" lon="14.1876117"><ele>26.0</ele><time>2026-05-04T15:39:51.401Z</time></trkpt><trkpt lat="40.8209283" lon="14.1876983"><ele>26.0</ele><time>2026-05-04T15:39:52.402Z</time></trkpt><trkpt lat="40.8209667" lon="14.1877833"><ele>26.0</ele><time>2026-05-04T15:39:53.403Z</time></trkpt><trkpt lat="40.8210017" lon="14.1878767"><ele>26.0</ele><time>2026-05-04T15:39:54.402Z</time></trkpt><trkpt lat="40.8210367" lon="14.18797"><ele>26.0</ele><time>2026-05-04T15:39:55.402Z</time></trkpt><trkpt lat="40.8210683" lon="14.1880683"><ele>25.999999999999996</ele><time>2026-05-04T15:39:56.402Z</time></trkpt><trkpt lat="40.8210983" lon="14.1881683"><ele>26.0</ele><time>2026-05-04T15:39:57.401Z</time></trkpt><trkpt lat="40.821135" lon="14.188265"><ele>26.0</ele><time>2026-05-04T15:39:58.401Z</time></trkpt><trkpt lat="40.8211683" lon="14.188365"><ele>26.0</ele><time>2026-05-04T15:39:59.402Z</time></trkpt><trkpt lat="40.8212067" lon="14.1884617"><ele>25.999999999999996</ele><time>2026-05-04T15:40:00.402Z</time></trkpt><trkpt lat="40.8212467" lon="14.1885517"><ele>26.0</ele><time>2026-05-04T15:40:01.402Z</time></trkpt><trkpt lat="40.8212817" lon="14.188645"><ele>26.0</ele><time>2026-05-04T15:40:02.402Z</time></trkpt><trkpt lat="40.8213133" lon="14.1887367"><ele>26.0</ele><time>2026-05-04T15:40:03.401Z</time></trkpt><trkpt lat="40.8213417" lon="14.1888267"><ele>26.0</ele><time>2026-05-04T15:40:04.402Z</time></trkpt><trkpt lat="40.8213717" lon="14.1889167"><ele>26.0</ele><time>2026-05-04T15:40:05.402Z</time></trkpt><trkpt lat="40.8213967" lon="14.1890083"><ele>26.0</ele><time>2026-05-04T15:40:06.402Z</time></trkpt><trkpt lat="40.8214267" lon="14.1890967"><ele>26.0</ele><time>2026-05-04T15:40:07.404Z</time></trkpt><trkpt lat="40.8214567" lon="14.189185"><ele>26.0</ele><time>2026-05-04T15:40:08.401Z</time></trkpt><trkpt lat="40.821485" lon="14.1892733"><ele>26.0</ele><time>2026-05-04T15:40:09.401Z</time></trkpt><trkpt lat="40.821515" lon="14.18936"><ele>26.0</ele><time>2026-05-04T15:40:10.404Z</time></trkpt><trkpt lat="40.821545" lon="14.1894467"><ele>26.0</ele><time>2026-05-04T15:40:11.401Z</time></trkpt><trkpt lat="40.821575" lon="14.189535"><ele>26.0</ele><time>2026-05-04T15:40:12.402Z</time></trkpt><trkpt lat="40.8216017" lon="14.1896233"><ele>26.0</ele><time>2026-05-04T15:40:13.402Z</time></trkpt><trkpt lat="40.8216283" lon="14.1897117"><ele>26.0</ele><time>2026-05-04T15:40:14.403Z</time></trkpt><trkpt lat="40.821655" lon="14.1898"><ele>26.0</ele><time>2026-05-04T15:40:15.402Z</time></trkpt><trkpt lat="40.8216817" lon="14.1898917"><ele>26.0</ele><time>2026-05-04T15:40:16.402Z</time></trkpt><trkpt lat="40.8217133" lon="14.1899833"><ele>26.0</ele><time>2026-05-04T15:40:17.401Z</time></trkpt><trkpt lat="40.8217433" lon="14.1900717"><ele>26.0</ele><time>2026-05-04T15:40:18.402Z</time></trkpt><trkpt lat="40.8217717" lon="14.19016"><ele>26.0</ele><time>2026-05-04T15:40:19.403Z</time></trkpt><trkpt lat="40.8218" lon="14.1902467"><ele>26.0</ele><time>2026-05-04T15:40:20.401Z</time></trkpt><trkpt lat="40.8218283" lon="14.1903333"><ele>26.0</ele><time>2026-05-04T15:40:21.402Z</time></trkpt><trkpt lat="40.8218567" lon="14.19042"><ele>26.0</ele><time>2026-05-04T15:40:22.402Z</time></trkpt><trkpt lat="40.821885" lon="14.190505"><ele>25.999999999999996</ele><time>2026-05-04T15:40:23.403Z</time></trkpt><trkpt lat="40.821915" lon="14.19059"><ele>26.0</ele><time>2026-05-04T15:40:24.403Z</time></trkpt><trkpt lat="40.8219467" lon="14.1906667"><ele>26.0</ele><time>2026-05-04T15:40:25.403Z</time></trkpt><trkpt lat="40.82199" lon="14.190815"><ele>26.0</ele><time>2026-05-04T15:40:27.402Z</time></trkpt><trkpt lat="40.8220317" lon="14.190965"><ele>25.999999999999996</ele><time>2026-05-04T15:40:29.404Z</time></trkpt><trkpt lat="40.8220567" lon="14.19105"><ele>26.0</ele><time>2026-05-04T15:40:30.403Z</time></trkpt><trkpt lat="40.822085" lon="14.1911267"><ele>26.142857142857142</ele><time>2026-05-04T15:40:31.403Z</time></trkpt><trkpt lat="40.8221183" lon="14.1912083"><ele>26.28571428571429</ele><time>2026-05-04T15:40:32.402Z</time></trkpt><trkpt lat="40.822155" lon="14.1912917"><ele>26.42857142857143</ele><time>2026-05-04T15:40:33.402Z</time></trkpt><trkpt lat="40.8221917" lon="14.1913733"><ele>26.57142857142857</ele><time>2026-05-04T15:40:34.402Z</time></trkpt><trkpt lat="40.822225" lon="14.1914583"><ele>26.714285714285715</ele><time>2026-05-04T15:40:35.402Z</time></trkpt><trkpt lat="40.8222583" lon="14.1915417"><ele>26.857142857142858</ele><time>2026-05-04T15:40:36.401Z</time></trkpt><trkpt lat="40.82229" lon="14.191625"><ele>27.0</ele><time>2026-05-04T15:40:37.403Z</time></trkpt><trkpt lat="40.82232" lon="14.191715"><ele>27.285714285714285</ele><time>2026-05-04T15:40:38.403Z</time></trkpt><trkpt lat="40.822345" lon="14.1918017"><ele>27.57142857142857</ele><time>2026-05-04T15:40:39.401Z</time></trkpt><trkpt lat="40.8223717" lon="14.191895"><ele>27.85714285714286</ele><time>2026-05-04T15:40:40.402Z</time></trkpt><trkpt lat="40.8224" lon="14.1919883"><ele>28.142857142857146</ele><time>2026-05-04T15:40:41.403Z</time></trkpt><trkpt lat="40.82243" lon="14.19208"><ele>28.42857142857143</ele><time>2026-05-04T15:40:42.402Z</time></trkpt><trkpt lat="40.82246" lon="14.19217"><ele>28.71428571428572</ele><time>2026-05-04T15:40:43.401Z</time></trkpt><trkpt lat="40.8224917" lon="14.1922533"><ele>29.000000000000004</ele><time>2026-05-04T15:40:44.402Z</time></trkpt><trkpt lat="40.8225217" lon="14.1923367"><ele>29.000000000000004</ele><time>2026-05-04T15:40:45.402Z</time></trkpt><trkpt lat="40.822555" lon="14.1924183"><ele>29.0</ele><time>2026-05-04T15:40:46.402Z</time></trkpt><trkpt lat="40.8225867" lon="14.1925017"><ele>29.000000000000004</ele><time>2026-05-04T15:40:47.402Z</time></trkpt><trkpt lat="40.822615" lon="14.1925883"><ele>29.000000000000004</ele><time>2026-05-04T15:40:48.403Z</time></trkpt><trkpt lat="40.822645" lon="14.1926733"><ele>29.0</ele><time>2026-05-04T15:40:49.403Z</time></trkpt><trkpt lat="40.8226783" lon="14.1927533"><ele>29.000000000000004</ele><time>2026-05-04T15:40:50.403Z</time></trkpt><trkpt lat="40.8227083" lon="14.19283"><ele>29.000000000000004</ele><time>2026-05-04T15:40:51.402Z</time></trkpt><trkpt lat="40.82274" lon="14.192905"><ele>29.0</ele><time>2026-05-04T15:40:52.401Z</time></trkpt><trkpt lat="40.82277" lon="14.1929817"><ele>29.0</ele><time>2026-05-04T15:40:53.401Z</time></trkpt><trkpt lat="40.82283" lon="14.193115"><ele>29.0</ele><time>2026-05-04T15:40:55.404Z</time></trkpt><trkpt lat="40.822885" lon="14.1932633"><ele>29.0</ele><time>2026-05-04T15:40:57.402Z</time></trkpt><trkpt lat="40.8229367" lon="14.19339"><ele>29.0</ele><time>2026-05-04T15:40:59.402Z</time></trkpt><trkpt lat="40.8229433" lon="14.1934883"><ele>28.999999999999996</ele><time>2026-05-04T15:41:01.402Z</time></trkpt><trkpt lat="40.8229267" lon="14.1936167"><ele>29.0</ele><time>2026-05-04T15:41:03.403Z</time></trkpt><trkpt lat="40.8229217" lon="14.19372"><ele>29.0</ele><time>2026-05-04T15:41:05.403Z</time></trkpt><trkpt lat="40.8229417" lon="14.19382"><ele>29.0</ele><time>2026-05-04T15:41:07.403Z</time></trkpt><trkpt lat="40.8229667" lon="14.1939317"><ele>28.999999999999996</ele><time>2026-05-04T15:41:09.403Z</time></trkpt><trkpt lat="40.8230083" lon="14.1940233"><ele>29.0</ele><time>2026-05-04T15:41:11.403Z</time></trkpt><trkpt lat="40.8230517" lon="14.1941183"><ele>29.333333333333332</ele><time>2026-05-04T15:41:13.402Z</time></trkpt><trkpt lat="40.8230983" lon="14.1942033"><ele>29.666666666666664</ele><time>2026-05-04T15:41:15.403Z</time></trkpt><trkpt lat="40.8231317" lon="14.1943033"><ele>30.0</ele><time>2026-05-04T15:41:17.403Z</time></trkpt><trkpt lat="40.8231667" lon="14.194405"><ele>30.333333333333336</ele><time>2026-05-04T15:41:19.404Z</time></trkpt><trkpt lat="40.8231983" lon="14.1944933"><ele>30.666666666666668</ele><time>2026-05-04T15:41:21.403Z</time></trkpt><trkpt lat="40.8232333" lon="14.194585"><ele>31.0</ele><time>2026-05-04T15:41:23.402Z</time></trkpt><trkpt lat="40.8232867" lon="14.1946717"><ele>31.0</ele><time>2026-05-04T15:41:25.403Z</time></trkpt><trkpt lat="40.8233333" lon="14.1947783"><ele>31.0</ele><time>2026-05-04T15:41:27.402Z</time></trkpt><trkpt lat="40.823375" lon="14.194895"><ele>31.0</ele><time>2026-05-04T15:41:29.403Z</time></trkpt><trkpt lat="40.8234167" lon="14.1950083"><ele>31.0</ele><time>2026-05-04T15:41:31.403Z</time></trkpt><trkpt lat="40.82346" lon="14.1951133"><ele>31.0</ele><time>2026-05-04T15:41:33.402Z</time></trkpt><trkpt lat="40.82351" lon="14.1952133"><ele>31.500000000000004</ele><time>2026-05-04T15:41:35.403Z</time></trkpt><trkpt lat="40.8235583" lon="14.19531"><ele>32.0</ele><time>2026-05-04T15:41:37.404Z</time></trkpt><trkpt lat="40.8236" lon="14.1954033"><ele>32.5</ele><time>2026-05-04T15:41:39.405Z</time></trkpt><trkpt lat="40.8236333" lon="14.1954917"><ele>33.0</ele><time>2026-05-04T15:41:41.402Z</time></trkpt><trkpt lat="40.8236683" lon="14.1955667"><ele>33.5</ele><time>2026-05-04T15:41:43.403Z</time></trkpt><trkpt lat="40.823705" lon="14.1956367"><ele>34.0</ele><time>2026-05-04T15:41:45.401Z</time></trkpt><trkpt lat="40.82375" lon="14.19573"><ele>34.0</ele><time>2026-05-04T15:41:47.402Z</time></trkpt><trkpt lat="40.8237833" lon="14.19586"><ele>34.0</ele><time>2026-05-04T15:41:49.403Z</time></trkpt><trkpt lat="40.82382" lon="14.1960133"><ele>34.0</ele><time>2026-05-04T15:41:51.403Z</time></trkpt><trkpt lat="40.8238617" lon="14.19617"><ele>34.0</ele><time>2026-05-04T15:41:53.402Z</time></trkpt><trkpt lat="40.8239083" lon="14.1963217"><ele>33.99999999999999</ele><time>2026-05-04T15:41:55.403Z</time></trkpt><trkpt lat="40.82393" lon="14.1964083"><ele>34.0</ele><time>2026-05-04T15:41:56.403Z</time></trkpt><trkpt lat="40.8239517" lon="14.1965033"><ele>34.0</ele><time>2026-05-04T15:41:57.403Z</time></trkpt><trkpt lat="40.823975" lon="14.1965867"><ele>34.0</ele><time>2026-05-04T15:41:58.403Z</time></trkpt><trkpt lat="40.8239933" lon="14.19667"><ele>34.0</ele><time>2026-05-04T15:41:59.403Z</time></trkpt><trkpt lat="40.8240167" lon="14.1967567"><ele>33.99999999999999</ele><time>2026-05-04T15:42:00.402Z</time></trkpt><trkpt lat="40.8240383" lon="14.196845"><ele>34.0</ele><time>2026-05-04T15:42:01.403Z</time></trkpt><trkpt lat="40.8240633" lon="14.1969333"><ele>33.42857142857142</ele><time>2026-05-04T15:42:02.406Z</time></trkpt><trkpt lat="40.8240883" lon="14.1970183"><ele>32.857142857142854</ele><time>2026-05-04T15:42:03.402Z</time></trkpt><trkpt lat="40.8241133" lon="14.1971"><ele>32.285714285714285</ele><time>2026-05-04T15:42:04.402Z</time></trkpt><trkpt lat="40.8241383" lon="14.19718"><ele>31.71428571428571</ele><time>2026-05-04T15:42:05.403Z</time></trkpt><trkpt lat="40.824165" lon="14.1972567"><ele>31.14285714285714</ele><time>2026-05-04T15:42:06.402Z</time></trkpt><trkpt lat="40.8241933" lon="14.1973367"><ele>30.571428571428573</ele><time>2026-05-04T15:42:07.404Z</time></trkpt><trkpt lat="40.824215" lon="14.1974217"><ele>30.0</ele><time>2026-05-04T15:42:08.401Z</time></trkpt><trkpt lat="40.8242317" lon="14.1975133"><ele>29.833333333333332</ele><time>2026-05-04T15:42:09.401Z</time></trkpt><trkpt lat="40.82425" lon="14.197595"><ele>29.666666666666664</ele><time>2026-05-04T15:42:10.401Z</time></trkpt><trkpt lat="40.8242867" lon="14.197745"><ele>29.5</ele><time>2026-05-04T15:42:12.402Z</time></trkpt><trkpt lat="40.8243367" lon="14.1978883"><ele>29.333333333333332</ele><time>2026-05-04T15:42:14.4Z</time></trkpt><trkpt lat="40.8243667" lon="14.197965"><ele>29.166666666666664</ele><time>2026-05-04T15:42:15.401Z</time></trkpt><trkpt lat="40.8243933" lon="14.1980467"><ele>29.0</ele><time>2026-05-04T15:42:16.402Z</time></trkpt><trkpt lat="40.8244183" lon="14.198125"><ele>29.571428571428577</ele><time>2026-05-04T15:42:17.402Z</time></trkpt><trkpt lat="40.8244483" lon="14.198205"><ele>30.142857142857146</ele><time>2026-05-04T15:42:18.401Z</time></trkpt><trkpt lat="40.8244767" lon="14.1982867"><ele>30.714285714285715</ele><time>2026-05-04T15:42:19.404Z</time></trkpt><trkpt lat="40.8245033" lon="14.1983667"><ele>31.28571428571429</ele><time>2026-05-04T15:42:20.401Z</time></trkpt><trkpt lat="40.8245267" lon="14.19845"><ele>31.85714285714286</ele><time>2026-05-04T15:42:21.402Z</time></trkpt><trkpt lat="40.824555" lon="14.19854"><ele>32.42857142857143</ele><time>2026-05-04T15:42:22.402Z</time></trkpt><trkpt lat="40.8245783" lon="14.1986317"><ele>33.0</ele><time>2026-05-04T15:42:23.401Z</time></trkpt><trkpt lat="40.8245967" lon="14.1987333"><ele>33.0</ele><time>2026-05-04T15:42:24.402Z</time></trkpt><trkpt lat="40.8246217" lon="14.1988283"><ele>33.0</ele><time>2026-05-04T15:42:25.401Z</time></trkpt><trkpt lat="40.8246483" lon="14.1989233"><ele>33.0</ele><time>2026-05-04T15:42:26.402Z</time></trkpt><trkpt lat="40.8246733" lon="14.1990167"><ele>33.0</ele><time>2026-05-04T15:42:27.402Z</time></trkpt><trkpt lat="40.8246983" lon="14.1991083"><ele>33.0</ele><time>2026-05-04T15:42:28.402Z</time></trkpt><trkpt lat="40.8247233" lon="14.1992017"><ele>33.0</ele><time>2026-05-04T15:42:29.401Z</time></trkpt><trkpt lat="40.8247467" lon="14.1992933"><ele>33.0</ele><time>2026-05-04T15:42:30.401Z</time></trkpt><trkpt lat="40.8247717" lon="14.1993817"><ele>33.0</ele><time>2026-05-04T15:42:31.402Z</time></trkpt><trkpt lat="40.824795" lon="14.19947"><ele>33.0</ele><time>2026-05-04T15:42:32.402Z</time></trkpt><trkpt lat="40.8248133" lon="14.1995583"><ele>33.0</ele><time>2026-05-04T15:42:33.401Z</time></trkpt><trkpt lat="40.8248283" lon="14.199645"><ele>33.0</ele><time>2026-05-04T15:42:34.404Z</time></trkpt><trkpt lat="40.824845" lon="14.1997317"><ele>33.0</ele><time>2026-05-04T15:42:35.402Z</time></trkpt><trkpt lat="40.8248583" lon="14.19982"><ele>33.0</ele><time>2026-05-04T15:42:36.402Z</time></trkpt><trkpt lat="40.8248733" lon="14.1999033"><ele>32.857142857142854</ele><time>2026-05-04T15:42:37.402Z</time></trkpt><trkpt lat="40.8248867" lon="14.1999867"><ele>32.714285714285715</ele><time>2026-05-04T15:42:38.402Z</time></trkpt><trkpt lat="40.8249017" lon="14.2000683"><ele>32.57142857142857</ele><time>2026-05-04T15:42:39.402Z</time></trkpt><trkpt lat="40.8249133" lon="14.200155"><ele>32.42857142857143</ele><time>2026-05-04T15:42:40.401Z</time></trkpt><trkpt lat="40.8249217" lon="14.20024"><ele>32.285714285714285</ele><time>2026-05-04T15:42:41.402Z</time></trkpt><trkpt lat="40.8249283" lon="14.2003233"><ele>32.14285714285714</ele><time>2026-05-04T15:42:42.401Z</time></trkpt><trkpt lat="40.8249317" lon="14.2004083"><ele>32.0</ele><time>2026-05-04T15:42:43.401Z</time></trkpt><trkpt lat="40.8249383" lon="14.200495"><ele>32.0</ele><time>2026-05-04T15:42:44.402Z</time></trkpt><trkpt lat="40.8249467" lon="14.200585"><ele>31.999999999999996</ele><time>2026-05-04T15:42:45.402Z</time></trkpt><trkpt lat="40.8249517" lon="14.20067"><ele>32.0</ele><time>2026-05-04T15:42:46.402Z</time></trkpt><trkpt lat="40.8249617" lon="14.2007583"><ele>32.0</ele><time>2026-05-04T15:42:47.403Z</time></trkpt><trkpt lat="40.8249733" lon="14.2008433"><ele>31.999999999999996</ele><time>2026-05-04T15:42:48.404Z</time></trkpt><trkpt lat="40.8249833" lon="14.2009317"><ele>32.0</ele><time>2026-05-04T15:42:49.402Z</time></trkpt><trkpt lat="40.8249933" lon="14.20102"><ele>32.0</ele><time>2026-05-04T15:42:50.402Z</time></trkpt><trkpt lat="40.8249983" lon="14.20111"><ele>31.6</ele><time>2026-05-04T15:42:51.4Z</time></trkpt><trkpt lat="40.8250017" lon="14.2011983"><ele>31.200000000000003</ele><time>2026-05-04T15:42:52.402Z</time></trkpt><trkpt lat="40.8250117" lon="14.20136"><ele>30.8</ele><time>2026-05-04T15:42:54.402Z</time></trkpt><trkpt lat="40.825025" lon="14.201505"><ele>30.4</ele><time>2026-05-04T15:42:56.402Z</time></trkpt><trkpt lat="40.8250567" lon="14.2016417"><ele>30.0</ele><time>2026-05-04T15:42:58.402Z</time></trkpt><trkpt lat="40.825075" lon="14.2017467"><ele>30.8</ele><time>2026-05-04T15:43:00.402Z</time></trkpt><trkpt lat="40.82506" lon="14.2018417"><ele>31.6</ele><time>2026-05-04T15:43:03.401Z</time></trkpt><trkpt lat="40.825075" lon="14.2019333"><ele>32.4</ele><time>2026-05-04T15:43:05.402Z</time></trkpt><trkpt lat="40.825075" lon="14.2020667"><ele>33.2</ele><time>2026-05-04T15:43:07.402Z</time></trkpt><trkpt lat="40.8250683" lon="14.2022217"><ele>34.0</ele><time>2026-05-04T15:43:09.402Z</time></trkpt><trkpt lat="40.8250817" lon="14.2023667"><ele>35.833333333333336</ele><time>2026-05-04T15:43:11.402Z</time></trkpt><trkpt lat="40.82511" lon="14.2025117"><ele>37.66666666666667</ele><time>2026-05-04T15:43:13.404Z</time></trkpt><trkpt lat="40.8251233" lon="14.2025933"><ele>39.5</ele><time>2026-05-04T15:43:14.401Z</time></trkpt><trkpt lat="40.8251267" lon="14.2026833"><ele>41.333333333333336</ele><time>2026-05-04T15:43:15.402Z</time></trkpt><trkpt lat="40.8251267" lon="14.2027683"><ele>43.166666666666664</ele><time>2026-05-04T15:43:16.402Z</time></trkpt><trkpt lat="40.8251367" lon="14.2028517"><ele>45.0</ele><time>2026-05-04T15:43:17.402Z</time></trkpt><trkpt lat="40.8251683" lon="14.202995"><ele>45.0</ele><time>2026-05-04T15:43:19.401Z</time></trkpt><trkpt lat="40.8251983" lon="14.2031117"><ele>45.0</ele><time>2026-05-04T15:43:21.402Z</time></trkpt><trkpt lat="40.8252333" lon="14.20324"><ele>45.0</ele><time>2026-05-04T15:43:23.402Z</time></trkpt><trkpt lat="40.825275" lon="14.2033517"><ele>45.0</ele><time>2026-05-04T15:43:25.402Z</time></trkpt><trkpt lat="40.8253117" lon="14.2034733"><ele>45.0</ele><time>2026-05-04T15:43:27.402Z</time></trkpt><trkpt lat="40.82535" lon="14.203595"><ele>45.0</ele><time>2026-05-04T15:43:29.402Z</time></trkpt><trkpt lat="40.8253967" lon="14.203715"><ele>45.0</ele><time>2026-05-04T15:43:31.403Z</time></trkpt><trkpt lat="40.8254417" lon="14.203845"><ele>45.0</ele><time>2026-05-04T15:43:33.402Z</time></trkpt><trkpt lat="40.82547" lon="14.2039783"><ele>45.0</ele><time>2026-05-04T15:43:35.402Z</time></trkpt><trkpt lat="40.8255017" lon="14.2041117"><ele>45.0</ele><time>2026-05-04T15:43:37.401Z</time></trkpt><trkpt lat="40.825545" lon="14.2042383"><ele>44.0</ele><time>2026-05-04T15:43:39.402Z</time></trkpt><trkpt lat="40.8255867" lon="14.2043633"><ele>43.0</ele><time>2026-05-04T15:43:41.402Z</time></trkpt><trkpt lat="40.8256333" lon="14.204505"><ele>42.0</ele><time>2026-05-04T15:43:43.402Z</time></trkpt><trkpt lat="40.8256767" lon="14.20465"><ele>41.0</ele><time>2026-05-04T15:43:45.402Z</time></trkpt><trkpt lat="40.82572" lon="14.204795"><ele>40.8</ele><time>2026-05-04T15:43:47.404Z</time></trkpt><trkpt lat="40.8257483" lon="14.20494"><ele>40.599999999999994</ele><time>2026-05-04T15:43:49.402Z</time></trkpt><trkpt lat="40.8257833" lon="14.2050717"><ele>40.4</ele><time>2026-05-04T15:43:51.402Z</time></trkpt><trkpt lat="40.825825" lon="14.2052"><ele>40.2</ele><time>2026-05-04T15:43:53.402Z</time></trkpt><trkpt lat="40.8258767" lon="14.2053367"><ele>40.0</ele><time>2026-05-04T15:43:55.402Z</time></trkpt><trkpt lat="40.825925" lon="14.205475"><ele>40.0</ele><time>2026-05-04T15:43:57.402Z</time></trkpt><trkpt lat="40.8259767" lon="14.2056183"><ele>40.0</ele><time>2026-05-04T15:43:59.401Z</time></trkpt><trkpt lat="40.8260383" lon="14.20576"><ele>40.0</ele><time>2026-05-04T15:44:01.402Z</time></trkpt><trkpt lat="40.826095" lon="14.2058933"><ele>40.0</ele><time>2026-05-04T15:44:03.401Z</time></trkpt><trkpt lat="40.826155" lon="14.206025"><ele>41.0</ele><time>2026-05-04T15:44:05.402Z</time></trkpt><trkpt lat="40.8262183" lon="14.2061617"><ele>42.0</ele><time>2026-05-04T15:44:07.401Z</time></trkpt><trkpt lat="40.8262783" lon="14.2063017"><ele>43.0</ele><time>2026-05-04T15:44:09.402Z</time></trkpt><trkpt lat="40.826325" lon="14.2064533"><ele>44.0</ele><time>2026-05-04T15:44:11.402Z</time></trkpt><trkpt lat="40.8263517" lon="14.2066167"><ele>44.33333333333333</ele><time>2026-05-04T15:44:13.402Z</time></trkpt><trkpt lat="40.82637" lon="14.2066983"><ele>44.666666666666664</ele><time>2026-05-04T15:44:14.402Z</time></trkpt><trkpt lat="40.82639" lon="14.20678"><ele>45.0</ele><time>2026-05-04T15:44:15.402Z</time></trkpt><trkpt lat="40.826415" lon="14.2069433"><ele>45.333333333333336</ele><time>2026-05-04T15:44:17.401Z</time></trkpt><trkpt lat="40.8264217" lon="14.2070267"><ele>45.66666666666667</ele><time>2026-05-04T15:44:18.402Z</time></trkpt><trkpt lat="40.8264333" lon="14.2071117"><ele>46.0</ele><time>2026-05-04T15:44:19.404Z</time></trkpt><trkpt lat="40.8264467" lon="14.2072"><ele>46.0</ele><time>2026-05-04T15:44:20.402Z</time></trkpt><trkpt lat="40.82646" lon="14.2072933"><ele>46.0</ele><time>2026-05-04T15:44:21.402Z</time></trkpt><trkpt lat="40.82647" lon="14.2073883"><ele>46.0</ele><time>2026-05-04T15:44:22.401Z</time></trkpt><trkpt lat="40.826485" lon="14.2074817"><ele>46.0</ele><time>2026-05-04T15:44:23.403Z</time></trkpt><trkpt lat="40.8265" lon="14.2075817"><ele>46.0</ele><time>2026-05-04T15:44:24.401Z</time></trkpt><trkpt lat="40.8265117" lon="14.207685"><ele>46.0</ele><time>2026-05-04T15:44:25.401Z</time></trkpt><trkpt lat="40.8265267" lon="14.2077883"><ele>46.333333333333336</ele><time>2026-05-04T15:44:26.402Z</time></trkpt><trkpt lat="40.8265417" lon="14.2078933"><ele>46.66666666666667</ele><time>2026-05-04T15:44:27.401Z</time></trkpt><trkpt lat="40.82656" lon="14.2080017"><ele>47.0</ele><time>2026-05-04T15:44:28.402Z</time></trkpt><trkpt lat="40.8265817" lon="14.20811"><ele>47.333333333333336</ele><time>2026-05-04T15:44:29.403Z</time></trkpt><trkpt lat="40.8266033" lon="14.208215"><ele>47.666666666666664</ele><time>2026-05-04T15:44:30.402Z</time></trkpt><trkpt lat="40.826625" lon="14.208325"><ele>48.0</ele><time>2026-05-04T15:44:31.403Z</time></trkpt><trkpt lat="40.8266517" lon="14.2084317"><ele>48.166666666666664</ele><time>2026-05-04T15:44:32.402Z</time></trkpt><trkpt lat="40.8266817" lon="14.2085383"><ele>48.33333333333333</ele><time>2026-05-04T15:44:33.403Z</time></trkpt><trkpt lat="40.8267067" lon="14.2086467"><ele>48.5</ele><time>2026-05-04T15:44:34.402Z</time></trkpt><trkpt lat="40.8267417" lon="14.2087517"><ele>48.666666666666664</ele><time>2026-05-04T15:44:35.403Z</time></trkpt><trkpt lat="40.8267717" lon="14.208855"><ele>48.83333333333333</ele><time>2026-05-04T15:44:36.401Z</time></trkpt><trkpt lat="40.826805" lon="14.2089683"><ele>49.0</ele><time>2026-05-04T15:44:37.402Z</time></trkpt><trkpt lat="40.8288067" lon="14.21942"><ele>44.49999999999999</ele><time>2026-05-04T15:45:43.403Z</time></trkpt><trkpt lat="40.828795" lon="14.2195167"><ele>40.0</ele><time>2026-05-04T15:45:45.402Z</time></trkpt><trkpt lat="40.8287567" lon="14.2196283"><ele>35.5</ele><time>2026-05-04T15:45:47.402Z</time></trkpt><trkpt lat="40.8287017" lon="14.2197583"><ele>31.0</ele><time>2026-05-04T15:45:49.405Z</time></trkpt><trkpt lat="40.8286667" lon="14.2198317"><ele>26.5</ele><time>2026-05-04T15:45:50.402Z</time></trkpt><trkpt lat="40.8286333" lon="14.2199267"><ele>22.0</ele><time>2026-05-04T15:45:51.402Z</time></trkpt><trkpt lat="40.8286" lon="14.22003"><ele>19.666666666666664</ele><time>2026-05-04T15:45:52.403Z</time></trkpt><trkpt lat="40.8285633" lon="14.2201333"><ele>17.333333333333332</ele><time>2026-05-04T15:45:53.402Z</time></trkpt><trkpt lat="40.8285367" lon="14.2202467"><ele>15.0</ele><time>2026-05-04T15:45:54.402Z</time></trkpt><trkpt lat="40.8285217" lon="14.2203567"><ele>12.666666666666666</ele><time>2026-05-04T15:45:55.402Z</time></trkpt><trkpt lat="40.82851" lon="14.22046"><ele>10.333333333333332</ele><time>2026-05-04T15:45:56.401Z</time></trkpt><trkpt lat="40.82847" lon="14.2205783"><ele>8.0</ele><time>2026-05-04T15:45:57.401Z</time></trkpt><trkpt lat="40.828425" lon="14.2206683"><ele>7.666666666666666</ele><time>2026-05-04T15:45:58.403Z</time></trkpt><trkpt lat="40.8283733" lon="14.220745"><ele>7.333333333333333</ele><time>2026-05-04T15:45:59.402Z</time></trkpt><trkpt lat="40.8283083" lon="14.22081"><ele>7.0</ele><time>2026-05-04T15:46:00.402Z</time></trkpt><trkpt lat="40.8282267" lon="14.2208733"><ele>6.666666666666666</ele><time>2026-05-04T15:46:01.402Z</time></trkpt><trkpt lat="40.828165" lon="14.2209417"><ele>6.333333333333333</ele><time>2026-05-04T15:46:02.402Z</time></trkpt><trkpt lat="40.8281283" lon="14.2210133"><ele>6.0</ele><time>2026-05-04T15:46:03.402Z</time></trkpt><trkpt lat="40.8280933" lon="14.2211467"><ele>6.0</ele><time>2026-05-04T15:46:05.402Z</time></trkpt><trkpt lat="40.8281183" lon="14.2212867"><ele>6.0</ele><time>2026-05-04T15:46:07.403Z</time></trkpt><trkpt lat="40.828155" lon="14.221435"><ele>6.0</ele><time>2026-05-04T15:46:09.402Z</time></trkpt><trkpt lat="40.82819" lon="14.2215083"><ele>6.0</ele><time>2026-05-04T15:46:10.402Z</time></trkpt><trkpt lat="40.8282317" lon="14.221575"><ele>6.0</ele><time>2026-05-04T15:46:11.403Z</time></trkpt><trkpt lat="40.82828" lon="14.2216384"><ele>6.0</ele><time>2026-05-04T15:46:12.402Z</time></trkpt><trkpt lat="40.828332" lon="14.2217017"><ele>5.571428571428571</ele><time>2026-05-04T15:46:13.408Z</time></trkpt><trkpt lat="40.8283835" lon="14.2217646"><ele>5.142857142857142</ele><time>2026-05-04T15:46:14.402Z</time></trkpt><trkpt lat="40.8284366" lon="14.2218259"><ele>4.7142857142857135</ele><time>2026-05-04T15:46:15.402Z</time></trkpt><trkpt lat="40.8284851" lon="14.2218887"><ele>4.285714285714286</ele><time>2026-05-04T15:46:16.404Z</time></trkpt><trkpt lat="40.8285329" lon="14.2219521"><ele>3.8571428571428568</ele><time>2026-05-04T15:46:17.403Z</time></trkpt><trkpt lat="40.8285788" lon="14.2220148"><ele>3.4285714285714284</ele><time>2026-05-04T15:46:18.402Z</time></trkpt><trkpt lat="40.8286248" lon="14.2220949"><ele>3.0</ele><time>2026-05-04T15:46:19.413Z</time></trkpt><trkpt lat="40.8286676" lon="14.2221654"><ele>4.5</ele><time>2026-05-04T15:46:20.405Z</time></trkpt><trkpt lat="40.8287494" lon="14.2222741"><ele>6.0</ele><time>2026-05-04T15:46:22.402Z</time></trkpt><trkpt lat="40.8288344" lon="14.2223748"><ele>7.5</ele><time>2026-05-04T15:46:24.405Z</time></trkpt><trkpt lat="40.8289131" lon="14.2224813"><ele>9.0</ele><time>2026-05-04T15:46:26.402Z</time></trkpt><trkpt lat="40.8289882" lon="14.2226068"><ele>9.0</ele><time>2026-05-04T15:46:28.402Z</time></trkpt><trkpt lat="40.8290515" lon="14.2227431"><ele>9.0</ele><time>2026-05-04T15:46:30.404Z</time></trkpt><trkpt lat="40.8290961" lon="14.2228095"><ele>9.0</ele><time>2026-05-04T15:46:31.403Z</time></trkpt><trkpt lat="40.8291398" lon="14.2228727"><ele>9.0</ele><time>2026-05-04T15:46:32.402Z</time></trkpt><trkpt lat="40.8291871" lon="14.2229376"><ele>9.0</ele><time>2026-05-04T15:46:33.402Z</time></trkpt><trkpt lat="40.8292356" lon="14.2230016"><ele>9.0</ele><time>2026-05-04T15:46:34.403Z</time></trkpt><trkpt lat="40.8292804" lon="14.2230668"><ele>9.142857142857144</ele><time>2026-05-04T15:46:35.402Z</time></trkpt><trkpt lat="40.8293265" lon="14.223131"><ele>9.285714285714286</ele><time>2026-05-04T15:46:36.404Z</time></trkpt><trkpt lat="40.8293743" lon="14.2231972"><ele>9.428571428571429</ele><time>2026-05-04T15:46:37.401Z</time></trkpt><trkpt lat="40.8294228" lon="14.2232611"><ele>9.571428571428573</ele><time>2026-05-04T15:46:38.402Z</time></trkpt><trkpt lat="40.8294715" lon="14.2233242"><ele>9.714285714285715</ele><time>2026-05-04T15:46:39.402Z</time></trkpt><trkpt lat="40.8295178" lon="14.2233925"><ele>9.857142857142858</ele><time>2026-05-04T15:46:40.404Z</time></trkpt><trkpt lat="40.8295633" lon="14.2234664"><ele>10.0</ele><time>2026-05-04T15:46:41.403Z</time></trkpt><trkpt lat="40.8296058" lon="14.2235419"><ele>10.0</ele><time>2026-05-04T15:46:42.401Z</time></trkpt><trkpt lat="40.8296487" lon="14.2236259"><ele>10.0</ele><time>2026-05-04T15:46:43.403Z</time></trkpt><trkpt lat="40.8296931" lon="14.2237105"><ele>10.0</ele><time>2026-05-04T15:46:44.402Z</time></trkpt><trkpt lat="40.82974" lon="14.2237933"><ele>10.0</ele><time>2026-05-04T15:46:45.401Z</time></trkpt><trkpt lat="40.82979" lon="14.2238733"><ele>10.0</ele><time>2026-05-04T15:46:46.403Z</time></trkpt><trkpt lat="40.8298367" lon="14.2239567"><ele>10.0</ele><time>2026-05-04T15:46:47.402Z</time></trkpt><trkpt lat="40.8298767" lon="14.2240383"><ele>9.571428571428571</ele><time>2026-05-04T15:46:48.402Z</time></trkpt><trkpt lat="40.8299167" lon="14.22412"><ele>9.142857142857142</ele><time>2026-05-04T15:46:49.402Z</time></trkpt><trkpt lat="40.8299583" lon="14.2241983"><ele>8.714285714285715</ele><time>2026-05-04T15:46:50.402Z</time></trkpt><trkpt lat="40.8300017" lon="14.22427"><ele>8.285714285714285</ele><time>2026-05-04T15:46:51.402Z</time></trkpt><trkpt lat="40.8300433" lon="14.2243417"><ele>7.857142857142858</ele><time>2026-05-04T15:46:52.402Z</time></trkpt><trkpt lat="40.8300883" lon="14.2244133"><ele>7.428571428571429</ele><time>2026-05-04T15:46:53.403Z</time></trkpt><trkpt lat="40.8301333" lon="14.22448"><ele>7.0</ele><time>2026-05-04T15:46:54.402Z</time></trkpt><trkpt lat="40.8301733" lon="14.2245467"><ele>7.714285714285714</ele><time>2026-05-04T15:46:55.402Z</time></trkpt><trkpt lat="40.83021" lon="14.22462"><ele>8.428571428571429</ele><time>2026-05-04T15:46:56.402Z</time></trkpt><trkpt lat="40.8302467" lon="14.2246933"><ele>9.142857142857142</ele><time>2026-05-04T15:46:57.402Z</time></trkpt><trkpt lat="40.8302833" lon="14.2247667"><ele>9.857142857142858</ele><time>2026-05-04T15:46:58.402Z</time></trkpt><trkpt lat="40.8303217" lon="14.224845"><ele>10.571428571428571</ele><time>2026-05-04T15:46:59.402Z</time></trkpt><trkpt lat="40.8303617" lon="14.2249267"><ele>11.285714285714285</ele><time>2026-05-04T15:47:00.402Z</time></trkpt><trkpt lat="40.8304033" lon="14.2250167"><ele>12.0</ele><time>2026-05-04T15:47:01.403Z</time></trkpt><trkpt lat="40.8304433" lon="14.2251067"><ele>12.0</ele><time>2026-05-04T15:47:02.402Z</time></trkpt><trkpt lat="40.8304833" lon="14.2251967"><ele>12.0</ele><time>2026-05-04T15:47:03.403Z</time></trkpt><trkpt lat="40.830525" lon="14.2252883"><ele>12.0</ele><time>2026-05-04T15:47:04.402Z</time></trkpt><trkpt lat="40.8305667" lon="14.225385"><ele>12.0</ele><time>2026-05-04T15:47:05.402Z</time></trkpt><trkpt lat="40.8306067" lon="14.2254833"><ele>12.0</ele><time>2026-05-04T15:47:06.402Z</time></trkpt><trkpt lat="40.8306433" lon="14.2255817"><ele>12.0</ele><time>2026-05-04T15:47:07.403Z</time></trkpt><trkpt lat="40.830685" lon="14.2256783"><ele>11.5</ele><time>2026-05-04T15:47:08.402Z</time></trkpt><trkpt lat="40.8307233" lon="14.2257817"><ele>11.0</ele><time>2026-05-04T15:47:09.402Z</time></trkpt><trkpt lat="40.8307633" lon="14.2258783"><ele>10.5</ele><time>2026-05-04T15:47:10.402Z</time></trkpt><trkpt lat="40.8308033" lon="14.2259767"><ele>10.0</ele><time>2026-05-04T15:47:11.402Z</time></trkpt><trkpt lat="40.8308417" lon="14.226075"><ele>9.5</ele><time>2026-05-04T15:47:12.403Z</time></trkpt><trkpt lat="40.8308833" lon="14.22617"><ele>9.0</ele><time>2026-05-04T15:47:13.402Z</time></trkpt><trkpt lat="40.8309217" lon="14.2262667"><ele>9.0</ele><time>2026-05-04T15:47:14.402Z</time></trkpt><trkpt lat="40.83096" lon="14.2263617"><ele>9.0</ele><time>2026-05-04T15:47:15.401Z</time></trkpt><trkpt lat="40.8309983" lon="14.2264567"><ele>9.0</ele><time>2026-05-04T15:47:16.402Z</time></trkpt><trkpt lat="40.8310367" lon="14.2265517"><ele>9.0</ele><time>2026-05-04T15:47:17.403Z</time></trkpt><trkpt lat="40.8310733" lon="14.2266483"><ele>9.0</ele><time>2026-05-04T15:47:18.402Z</time></trkpt><trkpt lat="40.83111" lon="14.2267467"><ele>9.0</ele><time>2026-05-04T15:47:19.403Z</time></trkpt><trkpt lat="40.8311483" lon="14.2268433"><ele>8.0</ele><time>2026-05-04T15:47:20.402Z</time></trkpt><trkpt lat="40.8311833" lon="14.226935"><ele>7.0</ele><time>2026-05-04T15:47:21.402Z</time></trkpt><trkpt lat="40.8312167" lon="14.2270333"><ele>6.0</ele><time>2026-05-04T15:47:22.404Z</time></trkpt><trkpt lat="40.8312483" lon="14.2271283"><ele>5.0</ele><time>2026-05-04T15:47:23.402Z</time></trkpt><trkpt lat="40.8312767" lon="14.2272267"><ele>4.0</ele><time>2026-05-04T15:47:24.403Z</time></trkpt><trkpt lat="40.8313033" lon="14.227325"><ele>3.0</ele><time>2026-05-04T15:47:25.402Z</time></trkpt><trkpt lat="40.8313317" lon="14.2274217"><ele>3.0</ele><time>2026-05-04T15:47:26.402Z</time></trkpt><trkpt lat="40.8313567" lon="14.2275217"><ele>3.0</ele><time>2026-05-04T15:47:27.403Z</time></trkpt><trkpt lat="40.8313833" lon="14.2276233"><ele>3.0</ele><time>2026-05-04T15:47:28.403Z</time></trkpt><trkpt lat="40.83141" lon="14.2277233"><ele>3.0</ele><time>2026-05-04T15:47:29.403Z</time></trkpt><trkpt lat="40.8314383" lon="14.2278217"><ele>3.0</ele><time>2026-05-04T15:47:30.402Z</time></trkpt><trkpt lat="40.8314633" lon="14.2279233"><ele>3.0</ele><time>2026-05-04T15:47:31.402Z</time></trkpt><trkpt lat="40.8314883" lon="14.2280267"><ele>3.0</ele><time>2026-05-04T15:47:32.402Z</time></trkpt><trkpt lat="40.8315133" lon="14.22813"><ele>3.0</ele><time>2026-05-04T15:47:33.402Z</time></trkpt><trkpt lat="40.8315383" lon="14.2282283"><ele>3.0</ele><time>2026-05-04T15:47:34.403Z</time></trkpt><trkpt lat="40.8315617" lon="14.2283283"><ele>3.0</ele><time>2026-05-04T15:47:35.402Z</time></trkpt><trkpt lat="40.831585" lon="14.2284317"><ele>3.0</ele><time>2026-05-04T15:47:36.402Z</time></trkpt><trkpt lat="40.8316067" lon="14.2285333"><ele>3.0</ele><time>2026-05-04T15:47:37.402Z</time></trkpt><trkpt lat="40.8316267" lon="14.2286367"><ele>2.8333333333333335</ele><time>2026-05-04T15:47:38.402Z</time></trkpt><trkpt lat="40.8316467" lon="14.2287383"><ele>2.6666666666666665</ele><time>2026-05-04T15:47:39.401Z</time></trkpt><trkpt lat="40.8316683" lon="14.2288383"><ele>2.5</ele><time>2026-05-04T15:47:40.403Z</time></trkpt><trkpt lat="40.83169" lon="14.22894"><ele>2.333333333333333</ele><time>2026-05-04T15:47:41.403Z</time></trkpt><trkpt lat="40.83171" lon="14.2290433"><ele>2.1666666666666665</ele><time>2026-05-04T15:47:42.402Z</time></trkpt><trkpt lat="40.8317317" lon="14.2291417"><ele>2.0</ele><time>2026-05-04T15:47:43.402Z</time></trkpt><trkpt lat="40.8317533" lon="14.2292417"><ele>1.9999999999999998</ele><time>2026-05-04T15:47:44.402Z</time></trkpt><trkpt lat="40.8317767" lon="14.2293417"><ele>2.0</ele><time>2026-05-04T15:47:45.403Z</time></trkpt><trkpt lat="40.8317983" lon="14.2294433"><ele>2.0</ele><time>2026-05-04T15:47:46.401Z</time></trkpt><trkpt lat="40.8318183" lon="14.2295467"><ele>2.0</ele><time>2026-05-04T15:47:47.402Z</time></trkpt><trkpt lat="40.8318417" lon="14.2296467"><ele>1.9999999999999998</ele><time>2026-05-04T15:47:48.401Z</time></trkpt><trkpt lat="40.8318633" lon="14.2297483"><ele>2.0</ele><time>2026-05-04T15:47:49.404Z</time></trkpt><trkpt lat="40.8318833" lon="14.22985"><ele>2.333333333333333</ele><time>2026-05-04T15:47:50.402Z</time></trkpt><trkpt lat="40.8319" lon="14.2299533"><ele>2.6666666666666665</ele><time>2026-05-04T15:47:51.404Z</time></trkpt><trkpt lat="40.8319117" lon="14.2300617"><ele>3.0</ele><time>2026-05-04T15:47:52.402Z</time></trkpt><trkpt lat="40.8319217" lon="14.2301667"><ele>3.333333333333333</ele><time>2026-05-04T15:47:53.402Z</time></trkpt><trkpt lat="40.831935" lon="14.2302717"><ele>3.6666666666666665</ele><time>2026-05-04T15:47:54.401Z</time></trkpt><trkpt lat="40.83195" lon="14.2303767"><ele>4.0</ele><time>2026-05-04T15:47:55.403Z</time></trkpt><trkpt lat="40.8319667" lon="14.23048"><ele>3.9999999999999996</ele><time>2026-05-04T15:47:56.403Z</time></trkpt><trkpt lat="40.8319833" lon="14.2305833"><ele>4.0</ele><time>2026-05-04T15:47:57.401Z</time></trkpt><trkpt lat="40.832" lon="14.2306883"><ele>4.0</ele><time>2026-05-04T15:47:58.403Z</time></trkpt><trkpt lat="40.832015" lon="14.230795"><ele>4.0</ele><time>2026-05-04T15:47:59.401Z</time></trkpt><trkpt lat="40.832025" lon="14.2309017"><ele>3.9999999999999996</ele><time>2026-05-04T15:48:00.403Z</time></trkpt><trkpt lat="40.832035" lon="14.2310067"><ele>4.0</ele><time>2026-05-04T15:48:01.403Z</time></trkpt><trkpt lat="40.8320433" lon="14.2311133"><ele>3.9999999999999996</ele><time>2026-05-04T15:48:02.402Z</time></trkpt><trkpt lat="40.832055" lon="14.2312183"><ele>4.0</ele><time>2026-05-04T15:48:03.401Z</time></trkpt><trkpt lat="40.832065" lon="14.2313233"><ele>4.0</ele><time>2026-05-04T15:48:04.401Z</time></trkpt><trkpt lat="40.8320733" lon="14.231435"><ele>4.0</ele><time>2026-05-04T15:48:05.403Z</time></trkpt><trkpt lat="40.8320783" lon="14.2315433"><ele>3.9999999999999996</ele><time>2026-05-04T15:48:06.402Z</time></trkpt><trkpt lat="40.832085" lon="14.2316517"><ele>4.0</ele><time>2026-05-04T15:48:07.402Z</time></trkpt><trkpt lat="40.832095" lon="14.2317617"><ele>3.9999999999999996</ele><time>2026-05-04T15:48:08.403Z</time></trkpt><trkpt lat="40.8321033" lon="14.23187"><ele>4.0</ele><time>2026-05-04T15:48:09.401Z</time></trkpt><trkpt lat="40.8321117" lon="14.2319767"><ele>4.0</ele><time>2026-05-04T15:48:10.404Z</time></trkpt><trkpt lat="40.8321167" lon="14.2320817"><ele>4.0</ele><time>2026-05-04T15:48:11.406Z</time></trkpt><trkpt lat="40.8321233" lon="14.23219"><ele>3.9999999999999996</ele><time>2026-05-04T15:48:12.402Z</time></trkpt><trkpt lat="40.8321267" lon="14.2323"><ele>4.0</ele><time>2026-05-04T15:48:13.403Z</time></trkpt><trkpt lat="40.8321317" lon="14.2324067"><ele>3.833333333333333</ele><time>2026-05-04T15:48:14.402Z</time></trkpt><trkpt lat="40.832135" lon="14.2325167"><ele>3.6666666666666665</ele><time>2026-05-04T15:48:15.402Z</time></trkpt><trkpt lat="40.8321383" lon="14.232625"><ele>3.5</ele><time>2026-05-04T15:48:16.403Z</time></trkpt><trkpt lat="40.8321417" lon="14.232735"><ele>3.333333333333333</ele><time>2026-05-04T15:48:17.402Z</time></trkpt><trkpt lat="40.8321417" lon="14.2328467"><ele>3.1666666666666665</ele><time>2026-05-04T15:48:18.403Z</time></trkpt><trkpt lat="40.8321433" lon="14.2329567"><ele>3.0</ele><time>2026-05-04T15:48:19.403Z</time></trkpt><trkpt lat="40.8321433" lon="14.23307"><ele>3.0</ele><time>2026-05-04T15:48:20.404Z</time></trkpt><trkpt lat="40.832145" lon="14.2331833"><ele>3.0</ele><time>2026-05-04T15:48:21.402Z</time></trkpt><trkpt lat="40.832145" lon="14.2333"><ele>3.0</ele><time>2026-05-04T15:48:22.402Z</time></trkpt><trkpt lat="40.832145" lon="14.2334183"><ele>3.0</ele><time>2026-05-04T15:48:23.403Z</time></trkpt><trkpt lat="40.8321433" lon="14.2335367"><ele>3.0</ele><time>2026-05-04T15:48:24.402Z</time></trkpt><trkpt lat="40.8321417" lon="14.2336533"><ele>3.0</ele><time>2026-05-04T15:48:25.402Z</time></trkpt><trkpt lat="40.8321383" lon="14.2337683"><ele>3.0</ele><time>2026-05-04T15:48:26.402Z</time></trkpt><trkpt lat="40.832135" lon="14.2338817"><ele>3.0</ele><time>2026-05-04T15:48:27.403Z</time></trkpt><trkpt lat="40.8321283" lon="14.2339933"><ele>3.0</ele><time>2026-05-04T15:48:28.402Z</time></trkpt><trkpt lat="40.8321233" lon="14.234105"><ele>3.0</ele><time>2026-05-04T15:48:29.403Z</time></trkpt><trkpt lat="40.8321167" lon="14.2342183"><ele>3.0</ele><time>2026-05-04T15:48:30.404Z</time></trkpt><trkpt lat="40.83211" lon="14.234335"><ele>3.0</ele><time>2026-05-04T15:48:31.403Z</time></trkpt><trkpt lat="40.832105" lon="14.2344533"><ele>3.0</ele><time>2026-05-04T15:48:32.403Z</time></trkpt><trkpt lat="40.8321" lon="14.2345683"><ele>3.0</ele><time>2026-05-04T15:48:33.402Z</time></trkpt><trkpt lat="40.8320883" lon="14.2346867"><ele>3.0</ele><time>2026-05-04T15:48:34.402Z</time></trkpt><trkpt lat="40.8320767" lon="14.2348"><ele>3.0</ele><time>2026-05-04T15:48:35.404Z</time></trkpt><trkpt lat="40.8320683" lon="14.2349133"><ele>3.0</ele><time>2026-05-04T15:48:36.403Z</time></trkpt><trkpt lat="40.8320583" lon="14.2350317"><ele>3.0</ele><time>2026-05-04T15:48:37.402Z</time></trkpt><trkpt lat="40.83205" lon="14.2351467"><ele>3.1666666666666665</ele><time>2026-05-04T15:48:38.402Z</time></trkpt><trkpt lat="40.8320433" lon="14.2352583"><ele>3.333333333333333</ele><time>2026-05-04T15:48:39.401Z</time></trkpt><trkpt lat="40.8320333" lon="14.2353717"><ele>3.5</ele><time>2026-05-04T15:48:40.402Z</time></trkpt><trkpt lat="40.8320217" lon="14.2354833"><ele>3.6666666666666665</ele><time>2026-05-04T15:48:41.402Z</time></trkpt><trkpt lat="40.8320117" lon="14.235595"><ele>3.833333333333333</ele><time>2026-05-04T15:48:42.403Z</time></trkpt><trkpt lat="40.8320017" lon="14.235705"><ele>4.0</ele><time>2026-05-04T15:48:43.404Z</time></trkpt><trkpt lat="40.83199" lon="14.2358183"><ele>3.9999999999999996</ele><time>2026-05-04T15:48:44.402Z</time></trkpt><trkpt lat="40.8319767" lon="14.2359283"><ele>4.0</ele><time>2026-05-04T15:48:45.402Z</time></trkpt><trkpt lat="40.8319667" lon="14.2360417"><ele>4.0</ele><time>2026-05-04T15:48:46.402Z</time></trkpt><trkpt lat="40.8319583" lon="14.2361567"><ele>4.0</ele><time>2026-05-04T15:48:47.403Z</time></trkpt><trkpt lat="40.8319517" lon="14.236275"><ele>3.9999999999999996</ele><time>2026-05-04T15:48:48.403Z</time></trkpt><trkpt lat="40.8319433" lon="14.2363933"><ele>4.0</ele><time>2026-05-04T15:48:49.402Z</time></trkpt><trkpt lat="40.8319333" lon="14.2365083"><ele>3.833333333333333</ele><time>2026-05-04T15:48:50.401Z</time></trkpt><trkpt lat="40.831925" lon="14.23662"><ele>3.6666666666666665</ele><time>2026-05-04T15:48:51.402Z</time></trkpt><trkpt lat="40.8319167" lon="14.236735"><ele>3.5</ele><time>2026-05-04T15:48:52.402Z</time></trkpt><trkpt lat="40.8319083" lon="14.2368417"><ele>3.333333333333333</ele><time>2026-05-04T15:48:53.403Z</time></trkpt><trkpt lat="40.8319" lon="14.2369517"><ele>3.1666666666666665</ele><time>2026-05-04T15:48:54.403Z</time></trkpt><trkpt lat="40.8318917" lon="14.2370633"><ele>3.0</ele><time>2026-05-04T15:48:55.402Z</time></trkpt><trkpt lat="40.8318833" lon="14.237175"><ele>3.0</ele><time>2026-05-04T15:48:56.403Z</time></trkpt><trkpt lat="40.8318767" lon="14.2372883"><ele>3.0</ele><time>2026-05-04T15:48:57.403Z</time></trkpt><trkpt lat="40.8318667" lon="14.2374017"><ele>3.0</ele><time>2026-05-04T15:48:58.403Z</time></trkpt><trkpt lat="40.8318583" lon="14.237515"><ele>3.0</ele><time>2026-05-04T15:48:59.403Z</time></trkpt><trkpt lat="40.8318467" lon="14.2376283"><ele>3.0</ele><time>2026-05-04T15:49:00.403Z</time></trkpt><trkpt lat="40.8318367" lon="14.23774"><ele>3.0</ele><time>2026-05-04T15:49:01.404Z</time></trkpt><trkpt lat="40.8318267" lon="14.2378517"><ele>3.3333333333333335</ele><time>2026-05-04T15:49:02.402Z</time></trkpt><trkpt lat="40.831815" lon="14.2379633"><ele>3.666666666666667</ele><time>2026-05-04T15:49:03.402Z</time></trkpt><trkpt lat="40.8318033" lon="14.2380767"><ele>4.0</ele><time>2026-05-04T15:49:04.403Z</time></trkpt><trkpt lat="40.83179" lon="14.23819"><ele>4.333333333333334</ele><time>2026-05-04T15:49:05.403Z</time></trkpt><trkpt lat="40.8317817" lon="14.2383017"><ele>4.666666666666667</ele><time>2026-05-04T15:49:06.403Z</time></trkpt><trkpt lat="40.83177" lon="14.2384133"><ele>5.0</ele><time>2026-05-04T15:49:07.404Z</time></trkpt><trkpt lat="40.83176" lon="14.2385283"><ele>4.333333333333334</ele><time>2026-05-04T15:49:08.401Z</time></trkpt><trkpt lat="40.8317483" lon="14.2386383"><ele>3.666666666666667</ele><time>2026-05-04T15:49:09.402Z</time></trkpt><trkpt lat="40.8317383" lon="14.2387483"><ele>3.0</ele><time>2026-05-04T15:49:10.403Z</time></trkpt><trkpt lat="40.83173" lon="14.2388583"><ele>2.3333333333333335</ele><time>2026-05-04T15:49:11.403Z</time></trkpt><trkpt lat="40.8317217" lon="14.2389733"><ele>1.6666666666666665</ele><time>2026-05-04T15:49:12.403Z</time></trkpt><trkpt lat="40.8317117" lon="14.239085"><ele>1.0</ele><time>2026-05-04T15:49:13.403Z</time></trkpt><trkpt lat="40.8317" lon="14.2391967"><ele>0.9999999999999999</ele><time>2026-05-04T15:49:14.402Z</time></trkpt><trkpt lat="40.8316917" lon="14.2393067"><ele>1.0</ele><time>2026-05-04T15:49:15.403Z</time></trkpt><trkpt lat="40.83168" lon="14.2394183"><ele>1.0</ele><time>2026-05-04T15:49:16.402Z</time></trkpt><trkpt lat="40.8316667" lon="14.2395283"><ele>1.0</ele><time>2026-05-04T15:49:17.403Z</time></trkpt><trkpt lat="40.8316567" lon="14.2396383"><ele>0.9999999999999999</ele><time>2026-05-04T15:49:18.402Z</time></trkpt><trkpt lat="40.8316467" lon="14.23975"><ele>1.0</ele><time>2026-05-04T15:49:19.402Z</time></trkpt><trkpt lat="40.831635" lon="14.2398583"><ele>1.1666666666666665</ele><time>2026-05-04T15:49:20.403Z</time></trkpt><trkpt lat="40.8316233" lon="14.239965"><ele>1.3333333333333333</ele><time>2026-05-04T15:49:21.402Z</time></trkpt><trkpt lat="40.8316167" lon="14.24007"><ele>1.5</ele><time>2026-05-04T15:49:22.402Z</time></trkpt><trkpt lat="40.8316083" lon="14.240175"><ele>1.6666666666666665</ele><time>2026-05-04T15:49:23.402Z</time></trkpt><trkpt lat="40.8316" lon="14.24028"><ele>1.8333333333333333</ele><time>2026-05-04T15:49:24.402Z</time></trkpt><trkpt lat="40.8315917" lon="14.2403833"><ele>2.0</ele><time>2026-05-04T15:49:25.403Z</time></trkpt><trkpt lat="40.8315817" lon="14.2404833"><ele>2.0</ele><time>2026-05-04T15:49:26.403Z</time></trkpt><trkpt lat="40.8315733" lon="14.2405783"><ele>1.9999999999999998</ele><time>2026-05-04T15:49:27.403Z</time></trkpt><trkpt lat="40.8315667" lon="14.2406717"><ele>2.0</ele><time>2026-05-04T15:49:28.401Z</time></trkpt><trkpt lat="40.8315617" lon="14.240765"><ele>2.0</ele><time>2026-05-04T15:49:29.403Z</time></trkpt><trkpt lat="40.831555" lon="14.2408583"><ele>1.9999999999999998</ele><time>2026-05-04T15:49:30.403Z</time></trkpt><trkpt lat="40.831545" lon="14.2409483"><ele>2.0</ele><time>2026-05-04T15:49:31.402Z</time></trkpt><trkpt lat="40.831535" lon="14.2410383"><ele>2.0</ele><time>2026-05-04T15:49:32.402Z</time></trkpt><trkpt lat="40.8315283" lon="14.241125"><ele>2.0</ele><time>2026-05-04T15:49:33.402Z</time></trkpt><trkpt lat="40.8315183" lon="14.241285"><ele>2.0</ele><time>2026-05-04T15:49:35.401Z</time></trkpt><trkpt lat="40.831505" lon="14.2414333"><ele>2.0</ele><time>2026-05-04T15:49:37.403Z</time></trkpt><trkpt lat="40.83154" lon="14.2415417"><ele>2.0</ele><time>2026-05-04T15:49:39.401Z</time></trkpt><trkpt lat="40.831605" lon="14.241605"><ele>2.0</ele><time>2026-05-04T15:49:41.401Z</time></trkpt><trkpt lat="40.8316667" lon="14.2415817"><ele>2.5</ele><time>2026-05-04T15:49:43.403Z</time></trkpt><trkpt lat="40.8317383" lon="14.241565"><ele>3.0</ele><time>2026-05-04T15:49:45.401Z</time></trkpt><trkpt lat="40.8318233" lon="14.2415333"><ele>3.5</ele><time>2026-05-04T15:49:56.402Z</time></trkpt><trkpt lat="40.8319017" lon="14.2415517"><ele>4.0</ele><time>2026-05-04T15:50:01.402Z</time></trkpt><trkpt lat="40.8319833" lon="14.2415417"><ele>4.5</ele><time>2026-05-04T15:50:10.402Z</time></trkpt><trkpt lat="40.8320567" lon="14.241555"><ele>5.0</ele><time>2026-05-04T15:50:13.403Z</time></trkpt><trkpt lat="40.8321833" lon="14.2416183"><ele>6.0</ele><time>2026-05-04T15:50:31.402Z</time></trkpt><trkpt lat="40.83219" lon="14.2417167"><ele>7.0</ele><time>2026-05-04T15:50:35.402Z</time></trkpt><trkpt lat="40.832175" lon="14.24183"><ele>8.0</ele><time>2026-05-04T15:50:38.4Z</time></trkpt><trkpt lat="40.832165" lon="14.2419333"><ele>9.0</ele><time>2026-05-04T15:50:41.402Z</time></trkpt><trkpt lat="40.8321617" lon="14.24203"><ele>10.0</ele><time>2026-05-04T15:50:43.402Z</time></trkpt><trkpt lat="40.8321517" lon="14.2421317"><ele>11.0</ele><time>2026-05-04T15:50:45.402Z</time></trkpt><trkpt lat="40.8321517" lon="14.2422567"><ele>12.200000000000001</ele><time>2026-05-04T15:50:47.402Z</time></trkpt><trkpt lat="40.8321517" lon="14.24239"><ele>13.4</ele><time>2026-05-04T15:50:49.401Z</time></trkpt><trkpt lat="40.8321367" lon="14.242505"><ele>14.6</ele><time>2026-05-04T15:50:51.401Z</time></trkpt><trkpt lat="40.8321283" lon="14.2426083"><ele>15.8</ele><time>2026-05-04T15:50:53.402Z</time></trkpt><trkpt lat="40.8321183" lon="14.2427233"><ele>17.0</ele><time>2026-05-04T15:50:55.403Z</time></trkpt><trkpt lat="40.8320983" lon="14.2428567"><ele>17.0</ele><time>2026-05-04T15:50:57.402Z</time></trkpt><trkpt lat="40.8320783" lon="14.2429917"><ele>17.0</ele><time>2026-05-04T15:50:59.402Z</time></trkpt><trkpt lat="40.8320717" lon="14.2431167"><ele>17.0</ele><time>2026-05-04T15:51:01.402Z</time></trkpt><trkpt lat="40.83207" lon="14.2432417"><ele>17.0</ele><time>2026-05-04T15:51:03.402Z</time></trkpt><trkpt lat="40.8320617" lon="14.24338"><ele>17.0</ele><time>2026-05-04T15:51:05.402Z</time></trkpt><trkpt lat="40.8320583" lon="14.2435417"><ele>17.2</ele><time>2026-05-04T15:51:07.402Z</time></trkpt><trkpt lat="40.832065" lon="14.243625"><ele>17.4</ele><time>2026-05-04T15:51:08.402Z</time></trkpt><trkpt lat="40.8321033" lon="14.24378"><ele>17.6</ele><time>2026-05-04T15:51:10.403Z</time></trkpt><trkpt lat="40.83214" lon="14.2439167"><ele>17.8</ele><time>2026-05-04T15:51:12.402Z</time></trkpt><trkpt lat="40.83218" lon="14.2440517"><ele>18.0</ele><time>2026-05-04T15:51:14.402Z</time></trkpt><trkpt lat="40.83221" lon="14.244175"><ele>20.0</ele><time>2026-05-04T15:51:16.402Z</time></trkpt><trkpt lat="40.8353811" lon="14.2503136"><ele>17.0</ele><time>2026-05-04T15:51:58.389Z</time></trkpt><trkpt lat="40.8321453" lon="14.2425962"><ele>20.0</ele><time>2026-05-04T15:52:26.057Z</time></trkpt><trkpt lat="40.83548" lon="14.2504583"><ele>20.0</ele><time>2026-05-04T15:52:39.402Z</time></trkpt><trkpt lat="40.83552" lon="14.2505367"><ele>20.0</ele><time>2026-05-04T15:52:40.406Z</time></trkpt><trkpt lat="40.8355783" lon="14.25065"><ele>20.0</ele><time>2026-05-04T15:52:41.402Z</time></trkpt><trkpt lat="40.8356367" lon="14.25075"><ele>20.0</ele><time>2026-05-04T15:52:42.402Z</time></trkpt><trkpt lat="40.835705" lon="14.2508367"><ele>20.0</ele><time>2026-05-04T15:52:43.403Z</time></trkpt><trkpt lat="40.8357683" lon="14.2509233"><ele>21.0</ele><time>2026-05-04T15:52:44.402Z</time></trkpt><trkpt lat="40.8358283" lon="14.2510233"><ele>22.0</ele><time>2026-05-04T15:52:45.401Z</time></trkpt><trkpt lat="40.835885" lon="14.2511133"><ele>23.0</ele><time>2026-05-04T15:52:46.402Z</time></trkpt><trkpt lat="40.835935" lon="14.25121"><ele>24.0</ele><time>2026-05-04T15:52:47.402Z</time></trkpt><trkpt lat="40.835985" lon="14.2513133"><ele>25.0</ele><time>2026-05-04T15:52:48.403Z</time></trkpt><trkpt lat="40.8360367" lon="14.2514117"><ele>23.666666666666668</ele><time>2026-05-04T15:52:49.402Z</time></trkpt><trkpt lat="40.83609" lon="14.2515017"><ele>22.333333333333336</ele><time>2026-05-04T15:52:50.402Z</time></trkpt><trkpt lat="40.8361417" lon="14.2515883"><ele>21.0</ele><time>2026-05-04T15:52:51.402Z</time></trkpt><trkpt lat="40.83619" lon="14.2516767"><ele>19.666666666666668</ele><time>2026-05-04T15:52:52.402Z</time></trkpt><trkpt lat="40.836235" lon="14.2517683"><ele>18.333333333333336</ele><time>2026-05-04T15:52:53.402Z</time></trkpt><trkpt lat="40.836285" lon="14.2518617"><ele>17.0</ele><time>2026-05-04T15:52:54.402Z</time></trkpt><trkpt lat="40.8363317" lon="14.25196"><ele>17.0</ele><time>2026-05-04T15:52:55.401Z</time></trkpt><trkpt lat="40.8363717" lon="14.25206"><ele>17.0</ele><time>2026-05-04T15:52:56.402Z</time></trkpt><trkpt lat="40.8364117" lon="14.252165"><ele>17.0</ele><time>2026-05-04T15:52:57.401Z</time></trkpt><trkpt lat="40.83645" lon="14.2522733"><ele>17.0</ele><time>2026-05-04T15:52:58.401Z</time></trkpt><trkpt lat="40.8364883" lon="14.2523767"><ele>17.0</ele><time>2026-05-04T15:52:59.401Z</time></trkpt><trkpt lat="40.8365267" lon="14.25248"><ele>17.0</ele><time>2026-05-04T15:53:00.401Z</time></trkpt><trkpt lat="40.8365617" lon="14.2525817"><ele>15.333333333333334</ele><time>2026-05-04T15:53:01.402Z</time></trkpt><trkpt lat="40.8365983" lon="14.2526817"><ele>13.666666666666668</ele><time>2026-05-04T15:53:02.401Z</time></trkpt><trkpt lat="40.8366333" lon="14.2527817"><ele>12.0</ele><time>2026-05-04T15:53:03.402Z</time></trkpt><trkpt lat="40.8366683" lon="14.2528783"><ele>10.333333333333334</ele><time>2026-05-04T15:53:04.402Z</time></trkpt><trkpt lat="40.8367" lon="14.2529733"><ele>8.666666666666668</ele><time>2026-05-04T15:53:05.403Z</time></trkpt><trkpt lat="40.8367367" lon="14.2530667"><ele>7.0</ele><time>2026-05-04T15:53:06.403Z</time></trkpt><trkpt lat="40.83677" lon="14.2531583"><ele>7.333333333333334</ele><time>2026-05-04T15:53:07.403Z</time></trkpt><trkpt lat="40.836805" lon="14.25325"><ele>7.666666666666667</ele><time>2026-05-04T15:53:08.401Z</time></trkpt><trkpt lat="40.83684" lon="14.2533433"><ele>8.0</ele><time>2026-05-04T15:53:09.401Z</time></trkpt><trkpt lat="40.8368767" lon="14.253435"><ele>8.333333333333334</ele><time>2026-05-04T15:53:10.402Z</time></trkpt><trkpt lat="40.8369183" lon="14.253525"><ele>8.666666666666666</ele><time>2026-05-04T15:53:11.402Z</time></trkpt><trkpt lat="40.8369683" lon="14.253605"><ele>9.0</ele><time>2026-05-04T15:53:12.401Z</time></trkpt><trkpt lat="40.8370233" lon="14.25368"><ele>9.0</ele><time>2026-05-04T15:53:13.403Z</time></trkpt><trkpt lat="40.8370867" lon="14.2537317"><ele>9.0</ele><time>2026-05-04T15:53:14.403Z</time></trkpt><trkpt lat="40.83715" lon="14.2537717"><ele>9.0</ele><time>2026-05-04T15:53:15.403Z</time></trkpt><trkpt lat="40.8372167" lon="14.25381"><ele>9.0</ele><time>2026-05-04T15:53:16.403Z</time></trkpt><trkpt lat="40.837285" lon="14.2538517"><ele>9.0</ele><time>2026-05-04T15:53:17.402Z</time></trkpt><trkpt lat="40.8373583" lon="14.253895"><ele>9.0</ele><time>2026-05-04T15:53:18.401Z</time></trkpt><trkpt lat="40.8374367" lon="14.253935"><ele>8.2</ele><time>2026-05-04T15:53:19.402Z</time></trkpt><trkpt lat="40.8375183" lon="14.2539833"><ele>7.4</ele><time>2026-05-04T15:53:20.401Z</time></trkpt><trkpt lat="40.8375967" lon="14.2540483"><ele>6.6</ele><time>2026-05-04T15:53:21.402Z</time></trkpt><trkpt lat="40.8376767" lon="14.25411"><ele>5.8</ele><time>2026-05-04T15:53:22.402Z</time></trkpt><trkpt lat="40.8377567" lon="14.254165"><ele>5.0</ele><time>2026-05-04T15:53:23.402Z</time></trkpt><trkpt lat="40.8378367" lon="14.2542233"><ele>5.0</ele><time>2026-05-04T15:53:24.403Z</time></trkpt><trkpt lat="40.8379167" lon="14.2542717"><ele>5.0</ele><time>2026-05-04T15:53:25.402Z</time></trkpt><trkpt lat="40.8379967" lon="14.2543133"><ele>5.0</ele><time>2026-05-04T15:53:26.403Z</time></trkpt><trkpt lat="40.8380733" lon="14.2543517"><ele>5.0</ele><time>2026-05-04T15:53:27.403Z</time></trkpt><trkpt lat="40.8381517" lon="14.2543933"><ele>5.0</ele><time>2026-05-04T15:53:28.403Z</time></trkpt><trkpt lat="40.8382283" lon="14.25444"><ele>5.0</ele><time>2026-05-04T15:53:29.402Z</time></trkpt><trkpt lat="40.8383017" lon="14.2544867"><ele>5.0</ele><time>2026-05-04T15:53:30.401Z</time></trkpt><trkpt lat="40.838375" lon="14.254535"><ele>5.0</ele><time>2026-05-04T15:53:31.402Z</time></trkpt><trkpt lat="40.8384483" lon="14.25458"><ele>5.0</ele><time>2026-05-04T15:53:32.402Z</time></trkpt><trkpt lat="40.8385217" lon="14.2546217"><ele>5.0</ele><time>2026-05-04T15:53:33.402Z</time></trkpt><trkpt lat="40.8385983" lon="14.2546583"><ele>5.0</ele><time>2026-05-04T15:53:34.402Z</time></trkpt><trkpt lat="40.8386733" lon="14.2547017"><ele>5.0</ele><time>2026-05-04T15:53:35.403Z</time></trkpt><trkpt lat="40.8387417" lon="14.254755"><ele>5.0</ele><time>2026-05-04T15:53:36.403Z</time></trkpt><trkpt lat="40.83881" lon="14.25481"><ele>5.0</ele><time>2026-05-04T15:53:37.401Z</time></trkpt><trkpt lat="40.838875" lon="14.25487"><ele>5.0</ele><time>2026-05-04T15:53:38.402Z</time></trkpt><trkpt lat="40.83894" lon="14.25493"><ele>5.0</ele><time>2026-05-04T15:53:39.402Z</time></trkpt><trkpt lat="40.839005" lon="14.2549867"><ele>5.0</ele><time>2026-05-04T15:53:40.402Z</time></trkpt><trkpt lat="40.839065" lon="14.2550367"><ele>5.0</ele><time>2026-05-04T15:53:41.403Z</time></trkpt><trkpt lat="40.8391217" lon="14.255085"><ele>5.0</ele><time>2026-05-04T15:53:42.401Z</time></trkpt><trkpt lat="40.8391833" lon="14.255135"><ele>5.0</ele><time>2026-05-04T15:53:43.403Z</time></trkpt><trkpt lat="40.8392483" lon="14.2551817"><ele>5.0</ele><time>2026-05-04T15:53:44.402Z</time></trkpt><trkpt lat="40.83932" lon="14.2552167"><ele>5.0</ele><time>2026-05-04T15:53:45.403Z</time></trkpt><trkpt lat="40.8393933" lon="14.2552517"><ele>5.0</ele><time>2026-05-04T15:53:46.405Z</time></trkpt><trkpt lat="40.8394683" lon="14.2552917"><ele>5.0</ele><time>2026-05-04T15:53:47.402Z</time></trkpt><trkpt lat="40.839545" lon="14.2553433"><ele>5.0</ele><time>2026-05-04T15:53:48.402Z</time></trkpt><trkpt lat="40.8396233" lon="14.2554017"><ele>5.0</ele><time>2026-05-04T15:53:49.403Z</time></trkpt><trkpt lat="40.8397033" lon="14.2554733"><ele>5.0</ele><time>2026-05-04T15:53:50.401Z</time></trkpt><trkpt lat="40.839785" lon="14.2555483"><ele>5.0</ele><time>2026-05-04T15:53:51.402Z</time></trkpt><trkpt lat="40.83987" lon="14.2556233"><ele>5.0</ele><time>2026-05-04T15:53:52.403Z</time></trkpt><trkpt lat="40.839955" lon="14.2556983"><ele>5.0</ele><time>2026-05-04T15:53:53.402Z</time></trkpt><trkpt lat="40.840045" lon="14.25577"><ele>5.0</ele><time>2026-05-04T15:53:54.402Z</time></trkpt><trkpt lat="40.8401383" lon="14.2558383"><ele>5.0</ele><time>2026-05-04T15:53:55.401Z</time></trkpt><trkpt lat="40.840235" lon="14.2559033"><ele>5.0</ele><time>2026-05-04T15:53:56.405Z</time></trkpt><trkpt lat="40.84033" lon="14.2559733"><ele>5.0</ele><time>2026-05-04T15:53:57.403Z</time></trkpt><trkpt lat="40.840425" lon="14.256045"><ele>5.8</ele><time>2026-05-04T15:53:58.406Z</time></trkpt><trkpt lat="40.840525" lon="14.2561183"><ele>6.6</ele><time>2026-05-04T15:53:59.401Z</time></trkpt><trkpt lat="40.840625" lon="14.2561883"><ele>7.4</ele><time>2026-05-04T15:54:00.406Z</time></trkpt><trkpt lat="40.8407217" lon="14.2562567"><ele>8.2</ele><time>2026-05-04T15:54:01.406Z</time></trkpt><trkpt lat="40.8408167" lon="14.256325"><ele>9.0</ele><time>2026-05-04T15:54:02.406Z</time></trkpt><trkpt lat="40.8409117" lon="14.2563917"><ele>9.4</ele><time>2026-05-04T15:54:03.402Z</time></trkpt><trkpt lat="40.841" lon="14.2564583"><ele>9.8</ele><time>2026-05-04T15:54:04.406Z</time></trkpt><trkpt lat="40.84109" lon="14.2565267"><ele>10.200000000000001</ele><time>2026-05-04T15:54:05.404Z</time></trkpt><trkpt lat="40.8411783" lon="14.256595"><ele>10.600000000000001</ele><time>2026-05-04T15:54:06.403Z</time></trkpt><trkpt lat="40.8412683" lon="14.25666"><ele>11.0</ele><time>2026-05-04T15:54:07.404Z</time></trkpt><trkpt lat="40.841355" lon="14.2567333"><ele>11.0</ele><time>2026-05-04T15:54:08.406Z</time></trkpt><trkpt lat="40.8414383" lon="14.2568033"><ele>11.0</ele><time>2026-05-04T15:54:09.406Z</time></trkpt><trkpt lat="40.8415183" lon="14.2568767"><ele>11.0</ele><time>2026-05-04T15:54:10.404Z</time></trkpt><trkpt lat="40.8415967" lon="14.2569433"><ele>11.0</ele><time>2026-05-04T15:54:11.402Z</time></trkpt><trkpt lat="40.8416733" lon="14.257005"><ele>11.0</ele><time>2026-05-04T15:54:12.402Z</time></trkpt><trkpt lat="40.84174" lon="14.2570617"><ele>10.857142857142858</ele><time>2026-05-04T15:54:13.403Z</time></trkpt><trkpt lat="40.8418" lon="14.25711"><ele>10.714285714285714</ele><time>2026-05-04T15:54:14.402Z</time></trkpt><trkpt lat="40.841855" lon="14.2571617"><ele>10.571428571428571</ele><time>2026-05-04T15:54:15.402Z</time></trkpt><trkpt lat="40.8419083" lon="14.2572083"><ele>10.428571428571429</ele><time>2026-05-04T15:54:16.404Z</time></trkpt><trkpt lat="40.8420017" lon="14.2572767"><ele>10.285714285714286</ele><time>2026-05-04T15:54:18.403Z</time></trkpt><trkpt lat="40.8420567" lon="14.2573267"><ele>10.142857142857142</ele><time>2026-05-04T15:54:20.402Z</time></trkpt><trkpt lat="40.8421183" lon="14.2573717"><ele>10.0</ele><time>2026-05-04T15:54:22.403Z</time></trkpt><trkpt lat="40.8421933" lon="14.2574267"><ele>10.0</ele><time>2026-05-04T15:54:24.403Z</time></trkpt><trkpt lat="40.8422783" lon="14.257495"><ele>10.0</ele><time>2026-05-04T15:54:26.404Z</time></trkpt><trkpt lat="40.8423733" lon="14.2575833"><ele>10.0</ele><time>2026-05-04T15:54:28.404Z</time></trkpt><trkpt lat="40.842475" lon="14.2576867"><ele>10.0</ele><time>2026-05-04T15:54:30.403Z</time></trkpt><trkpt lat="40.84253" lon="14.2577367"><ele>10.0</ele><time>2026-05-04T15:54:31.404Z</time></trkpt><trkpt lat="40.842585" lon="14.2577917"><ele>9.857142857142858</ele><time>2026-05-04T15:54:32.404Z</time></trkpt><trkpt lat="40.8426433" lon="14.2578417"><ele>9.714285714285715</ele><time>2026-05-04T15:54:33.403Z</time></trkpt><trkpt lat="40.8427033" lon="14.2578867"><ele>9.571428571428573</ele><time>2026-05-04T15:54:34.404Z</time></trkpt><trkpt lat="40.8427633" lon="14.2579333"><ele>9.428571428571429</ele><time>2026-05-04T15:54:35.404Z</time></trkpt><trkpt lat="40.8428267" lon="14.25798"><ele>9.285714285714286</ele><time>2026-05-04T15:54:36.403Z</time></trkpt><trkpt lat="40.84289" lon="14.2580267"><ele>9.142857142857144</ele><time>2026-05-04T15:54:37.403Z</time></trkpt><trkpt lat="40.842955" lon="14.258075"><ele>9.0</ele><time>2026-05-04T15:54:38.402Z</time></trkpt><trkpt lat="40.84302" lon="14.2581233"><ele>9.000000000000002</ele><time>2026-05-04T15:54:39.405Z</time></trkpt><trkpt lat="40.8430867" lon="14.2581617"><ele>9.0</ele><time>2026-05-04T15:54:40.404Z</time></trkpt><trkpt lat="40.84315" lon="14.2582033"><ele>9.0</ele><time>2026-05-04T15:54:41.403Z</time></trkpt><trkpt lat="40.8432117" lon="14.2582483"><ele>9.0</ele><time>2026-05-04T15:54:42.403Z</time></trkpt><trkpt lat="40.843275" lon="14.2582917"><ele>9.0</ele><time>2026-05-04T15:54:43.404Z</time></trkpt><trkpt lat="40.843335" lon="14.2583433"><ele>9.000000000000002</ele><time>2026-05-04T15:54:44.404Z</time></trkpt><trkpt lat="40.8434" lon="14.2583917"><ele>9.0</ele><time>2026-05-04T15:54:45.404Z</time></trkpt><trkpt lat="40.8434617" lon="14.258445"><ele>9.5</ele><time>2026-05-04T15:54:46.404Z</time></trkpt><trkpt lat="40.8435183" lon="14.2585083"><ele>10.0</ele><time>2026-05-04T15:54:47.405Z</time></trkpt><trkpt lat="40.8435817" lon="14.25857"><ele>10.5</ele><time>2026-05-04T15:54:48.403Z</time></trkpt><trkpt lat="40.8436433" lon="14.2586317"><ele>11.0</ele><time>2026-05-04T15:54:49.405Z</time></trkpt><trkpt lat="40.8436983" lon="14.2587017"><ele>11.5</ele><time>2026-05-04T15:54:50.402Z</time></trkpt><trkpt lat="40.84375" lon="14.2587717"><ele>12.0</ele><time>2026-05-04T15:54:51.403Z</time></trkpt><trkpt lat="40.8438017" lon="14.2588417"><ele>12.0</ele><time>2026-05-04T15:54:52.403Z</time></trkpt><trkpt lat="40.8438583" lon="14.2589117"><ele>12.0</ele><time>2026-05-04T15:54:53.403Z</time></trkpt><trkpt lat="40.8439133" lon="14.25898"><ele>12.0</ele><time>2026-05-04T15:54:54.403Z</time></trkpt><trkpt lat="40.8439633" lon="14.259055"><ele>12.0</ele><time>2026-05-04T15:54:55.405Z</time></trkpt><trkpt lat="40.844015" lon="14.2591283"><ele>12.0</ele><time>2026-05-04T15:54:56.403Z</time></trkpt><trkpt lat="40.844065" lon="14.2592033"><ele>12.0</ele><time>2026-05-04T15:54:57.403Z</time></trkpt><trkpt lat="40.8441167" lon="14.2592767"><ele>12.0</ele><time>2026-05-04T15:54:58.404Z</time></trkpt><trkpt lat="40.8441667" lon="14.259355"><ele>12.0</ele><time>2026-05-04T15:54:59.402Z</time></trkpt><trkpt lat="40.8442183" lon="14.25944"><ele>12.0</ele><time>2026-05-04T15:55:00.402Z</time></trkpt><trkpt lat="40.84427" lon="14.2595217"><ele>12.0</ele><time>2026-05-04T15:55:01.403Z</time></trkpt><trkpt lat="40.8443233" lon="14.259605"><ele>12.0</ele><time>2026-05-04T15:55:02.402Z</time></trkpt><trkpt lat="40.8443767" lon="14.2596883"><ele>12.0</ele><time>2026-05-04T15:55:03.402Z</time></trkpt><trkpt lat="40.8444317" lon="14.25977"><ele>11.833333333333334</ele><time>2026-05-04T15:55:04.403Z</time></trkpt><trkpt lat="40.8444883" lon="14.2598533"><ele>11.666666666666666</ele><time>2026-05-04T15:55:05.404Z</time></trkpt><trkpt lat="40.8445383" lon="14.2599383"><ele>11.5</ele><time>2026-05-04T15:55:06.402Z</time></trkpt><trkpt lat="40.84459" lon="14.260025"><ele>11.333333333333332</ele><time>2026-05-04T15:55:07.402Z</time></trkpt><trkpt lat="40.844645" lon="14.2601117"><ele>11.166666666666666</ele><time>2026-05-04T15:55:08.403Z</time></trkpt><trkpt lat="40.844695" lon="14.2602033"><ele>11.0</ele><time>2026-05-04T15:55:09.402Z</time></trkpt><trkpt lat="40.8447517" lon="14.2602933"><ele>11.0</ele><time>2026-05-04T15:55:10.404Z</time></trkpt><trkpt lat="40.8448033" lon="14.2603883"><ele>11.0</ele><time>2026-05-04T15:55:11.402Z</time></trkpt><trkpt lat="40.8448533" lon="14.2604883"><ele>11.0</ele><time>2026-05-04T15:55:12.404Z</time></trkpt><trkpt lat="40.8449" lon="14.2605883"><ele>11.0</ele><time>2026-05-04T15:55:13.403Z</time></trkpt><trkpt lat="40.8449433" lon="14.2606867"><ele>11.0</ele><time>2026-05-04T15:55:14.403Z</time></trkpt><trkpt lat="40.8449883" lon="14.260785"><ele>11.0</ele><time>2026-05-04T15:55:15.401Z</time></trkpt><trkpt lat="40.8450317" lon="14.26088"><ele>10.857142857142858</ele><time>2026-05-04T15:55:16.403Z</time></trkpt><trkpt lat="40.84507" lon="14.2609717"><ele>10.714285714285714</ele><time>2026-05-04T15:55:17.404Z</time></trkpt><trkpt lat="40.8450983" lon="14.2610617"><ele>10.571428571428571</ele><time>2026-05-04T15:55:18.404Z</time></trkpt><trkpt lat="40.8451267" lon="14.2611433"><ele>10.428571428571429</ele><time>2026-05-04T15:55:19.404Z</time></trkpt><trkpt lat="40.845165" lon="14.2612183"><ele>10.285714285714286</ele><time>2026-05-04T15:55:20.405Z</time></trkpt><trkpt lat="40.8451983" lon="14.261305"><ele>10.142857142857142</ele><time>2026-05-04T15:55:21.406Z</time></trkpt><trkpt lat="40.8452267" lon="14.2613917"><ele>10.0</ele><time>2026-05-04T15:55:22.402Z</time></trkpt><trkpt lat="40.845255" lon="14.261485"><ele>10.0</ele><time>2026-05-04T15:55:23.402Z</time></trkpt><trkpt lat="40.845285" lon="14.2615783"><ele>10.0</ele><time>2026-05-04T15:55:24.402Z</time></trkpt><trkpt lat="40.8453233" lon="14.2616733"><ele>10.0</ele><time>2026-05-04T15:55:25.402Z</time></trkpt><trkpt lat="40.8453617" lon="14.261775"><ele>10.0</ele><time>2026-05-04T15:55:26.406Z</time></trkpt><trkpt lat="40.8453967" lon="14.2618767"><ele>10.0</ele><time>2026-05-04T15:55:27.403Z</time></trkpt><trkpt lat="40.8454333" lon="14.2619783"><ele>10.0</ele><time>2026-05-04T15:55:28.403Z</time></trkpt><trkpt lat="40.8454683" lon="14.2620833"><ele>10.0</ele><time>2026-05-04T15:55:29.404Z</time></trkpt><trkpt lat="40.8454983" lon="14.262185"><ele>10.0</ele><time>2026-05-04T15:55:30.407Z</time></trkpt><trkpt lat="40.8455283" lon="14.2622867"><ele>10.0</ele><time>2026-05-04T15:55:31.404Z</time></trkpt><trkpt lat="40.8455567" lon="14.26239"><ele>10.0</ele><time>2026-05-04T15:55:32.404Z</time></trkpt><trkpt lat="40.845585" lon="14.2624967"><ele>10.0</ele><time>2026-05-04T15:55:33.403Z</time></trkpt><trkpt lat="40.845615" lon="14.262605"><ele>10.0</ele><time>2026-05-04T15:55:34.406Z</time></trkpt><trkpt lat="40.84564" lon="14.2627217"><ele>9.8</ele><time>2026-05-04T15:55:35.405Z</time></trkpt><trkpt lat="40.8456633" lon="14.262845"><ele>9.6</ele><time>2026-05-04T15:55:36.405Z</time></trkpt><trkpt lat="40.8456867" lon="14.262975"><ele>9.4</ele><time>2026-05-04T15:55:37.406Z</time></trkpt><trkpt lat="40.8457083" lon="14.2631117"><ele>9.2</ele><time>2026-05-04T15:55:38.403Z</time></trkpt><trkpt lat="40.8457317" lon="14.263245"><ele>9.0</ele><time>2026-05-04T15:55:39.404Z</time></trkpt><trkpt lat="40.8457533" lon="14.2633817"><ele>8.8</ele><time>2026-05-04T15:55:40.404Z</time></trkpt><trkpt lat="40.845775" lon="14.2635267"><ele>8.600000000000001</ele><time>2026-05-04T15:55:41.405Z</time></trkpt><trkpt lat="40.845785" lon="14.2636733"><ele>8.4</ele><time>2026-05-04T15:55:42.404Z</time></trkpt><trkpt lat="40.845795" lon="14.26382"><ele>8.200000000000001</ele><time>2026-05-04T15:55:43.403Z</time></trkpt><trkpt lat="40.8458083" lon="14.2639467"><ele>8.0</ele><time>2026-05-04T15:55:44.405Z</time></trkpt><trkpt lat="40.8458217" lon="14.26406"><ele>7.833333333333333</ele><time>2026-05-04T15:55:45.404Z</time></trkpt><trkpt lat="40.8458367" lon="14.26417"><ele>7.666666666666666</ele><time>2026-05-04T15:55:46.405Z</time></trkpt><trkpt lat="40.8458517" lon="14.26428"><ele>7.5</ele><time>2026-05-04T15:55:47.404Z</time></trkpt><trkpt lat="40.8458667" lon="14.264385"><ele>7.333333333333334</ele><time>2026-05-04T15:55:48.404Z</time></trkpt><trkpt lat="40.8458817" lon="14.264495"><ele>7.166666666666667</ele><time>2026-05-04T15:55:49.405Z</time></trkpt><trkpt lat="40.8458917" lon="14.2646067"><ele>7.0</ele><time>2026-05-04T15:55:50.404Z</time></trkpt><trkpt lat="40.8459017" lon="14.264715"><ele>6.833333333333334</ele><time>2026-05-04T15:55:51.403Z</time></trkpt><trkpt lat="40.8459167" lon="14.264825"><ele>6.666666666666667</ele><time>2026-05-04T15:55:52.403Z</time></trkpt><trkpt lat="40.84593" lon="14.264935"><ele>6.5</ele><time>2026-05-04T15:55:53.404Z</time></trkpt><trkpt lat="40.84594" lon="14.2650383"><ele>6.333333333333334</ele><time>2026-05-04T15:55:54.404Z</time></trkpt><trkpt lat="40.8459483" lon="14.265145"><ele>6.166666666666667</ele><time>2026-05-04T15:55:55.403Z</time></trkpt><trkpt lat="40.8459567" lon="14.26525"><ele>6.0</ele><time>2026-05-04T15:55:56.404Z</time></trkpt><trkpt lat="40.845965" lon="14.2653533"><ele>5.833333333333333</ele><time>2026-05-04T15:55:57.404Z</time></trkpt><trkpt lat="40.8459717" lon="14.26546"><ele>5.666666666666667</ele><time>2026-05-04T15:55:58.404Z</time></trkpt><trkpt lat="40.8459783" lon="14.2655633"><ele>5.5</ele><time>2026-05-04T15:55:59.404Z</time></trkpt><trkpt lat="40.8459833" lon="14.265665"><ele>5.333333333333334</ele><time>2026-05-04T15:56:00.406Z</time></trkpt><trkpt lat="40.8459867" lon="14.2657667"><ele>5.166666666666667</ele><time>2026-05-04T15:56:01.405Z</time></trkpt><trkpt lat="40.84599" lon="14.2658633"><ele>5.0</ele><time>2026-05-04T15:56:02.403Z</time></trkpt><trkpt lat="40.846" lon="14.26596"><ele>5.0</ele><time>2026-05-04T15:56:03.403Z</time></trkpt><trkpt lat="40.8460117" lon="14.2660567"><ele>5.0</ele><time>2026-05-04T15:56:04.404Z</time></trkpt><trkpt lat="40.8460217" lon="14.2661517"><ele>5.0</ele><time>2026-05-04T15:56:05.404Z</time></trkpt><trkpt lat="40.8460283" lon="14.266245"><ele>5.0</ele><time>2026-05-04T15:56:06.404Z</time></trkpt><trkpt lat="40.84603" lon="14.266335"><ele>5.0</ele><time>2026-05-04T15:56:07.404Z</time></trkpt><trkpt lat="40.8460333" lon="14.2664233"><ele>5.0</ele><time>2026-05-04T15:56:08.404Z</time></trkpt><trkpt lat="40.84604" lon="14.2665083"><ele>5.0</ele><time>2026-05-04T15:56:09.402Z</time></trkpt><trkpt lat="40.8460433" lon="14.2666783"><ele>4.857142857142857</ele><time>2026-05-04T15:56:11.402Z</time></trkpt><trkpt lat="40.84604" lon="14.266765"><ele>4.714285714285714</ele><time>2026-05-04T15:56:12.403Z</time></trkpt><trkpt lat="40.84604" lon="14.2668517"><ele>4.571428571428571</ele><time>2026-05-04T15:56:13.403Z</time></trkpt><trkpt lat="40.84604" lon="14.2669417"><ele>4.428571428571429</ele><time>2026-05-04T15:56:14.403Z</time></trkpt><trkpt lat="40.8460417" lon="14.2670333"><ele>4.285714285714286</ele><time>2026-05-04T15:56:15.401Z</time></trkpt><trkpt lat="40.8460483" lon="14.26713"><ele>4.142857142857142</ele><time>2026-05-04T15:56:16.403Z</time></trkpt><trkpt lat="40.8460567" lon="14.2672267"><ele>4.0</ele><time>2026-05-04T15:56:17.403Z</time></trkpt><trkpt lat="40.846065" lon="14.26732"><ele>4.0</ele><time>2026-05-04T15:56:18.403Z</time></trkpt><trkpt lat="40.8460733" lon="14.2674133"><ele>4.0</ele><time>2026-05-04T15:56:19.406Z</time></trkpt><trkpt lat="40.8460733" lon="14.267505"><ele>4.0</ele><time>2026-05-04T15:56:20.403Z</time></trkpt><trkpt lat="40.8460517" lon="14.2676583"><ele>4.0</ele><time>2026-05-04T15:56:22.403Z</time></trkpt><trkpt lat="40.846" lon="14.2677733"><ele>4.0</ele><time>2026-05-04T15:56:24.404Z</time></trkpt><trkpt lat="40.8459533" lon="14.267895"><ele>3.9999999999999996</ele><time>2026-05-04T15:56:26.403Z</time></trkpt><trkpt lat="40.84591" lon="14.2680383"><ele>4.0</ele><time>2026-05-04T15:56:28.403Z</time></trkpt><trkpt lat="40.8458933" lon="14.2681233"><ele>4.0</ele><time>2026-05-04T15:56:29.403Z</time></trkpt><trkpt lat="40.8458833" lon="14.2682083"><ele>4.0</ele><time>2026-05-04T15:56:30.402Z</time></trkpt><trkpt lat="40.8458767" lon="14.2682967"><ele>3.9999999999999996</ele><time>2026-05-04T15:56:31.403Z</time></trkpt><trkpt lat="40.8458767" lon="14.26839"><ele>4.0</ele><time>2026-05-04T15:56:32.403Z</time></trkpt><trkpt lat="40.84588" lon="14.2684833"><ele>3.714285714285714</ele><time>2026-05-04T15:56:33.404Z</time></trkpt><trkpt lat="40.8458867" lon="14.268575"><ele>3.428571428571428</ele><time>2026-05-04T15:56:34.402Z</time></trkpt><trkpt lat="40.8458983" lon="14.26866"><ele>3.142857142857143</ele><time>2026-05-04T15:56:35.402Z</time></trkpt><trkpt lat="40.8459183" lon="14.2687467"><ele>2.8571428571428568</ele><time>2026-05-04T15:56:36.403Z</time></trkpt><trkpt lat="40.8459433" lon="14.2688317"><ele>2.571428571428571</ele><time>2026-05-04T15:56:37.404Z</time></trkpt><trkpt lat="40.8459717" lon="14.268915"><ele>2.2857142857142856</ele><time>2026-05-04T15:56:38.403Z</time></trkpt><trkpt lat="40.8460017" lon="14.2689983"><ele>2.0</ele><time>2026-05-04T15:56:39.403Z</time></trkpt><trkpt lat="40.84603" lon="14.2690833"><ele>3.1666666666666665</ele><time>2026-05-04T15:56:40.402Z</time></trkpt><trkpt lat="40.846055" lon="14.269165"><ele>4.333333333333333</ele><time>2026-05-04T15:56:41.404Z</time></trkpt><trkpt lat="40.8460817" lon="14.2692483"><ele>5.5</ele><time>2026-05-04T15:56:42.403Z</time></trkpt><trkpt lat="40.8461133" lon="14.2693317"><ele>6.666666666666667</ele><time>2026-05-04T15:56:43.402Z</time></trkpt><trkpt lat="40.846145" lon="14.2694117"><ele>7.833333333333333</ele><time>2026-05-04T15:56:44.402Z</time></trkpt><trkpt lat="40.8461817" lon="14.2695517"><ele>9.0</ele><time>2026-05-04T15:56:46.402Z</time></trkpt><trkpt lat="40.8462067" lon="14.2696967"><ele>9.333333333333334</ele><time>2026-05-04T15:56:48.403Z</time></trkpt><trkpt lat="40.8462167" lon="14.2697833"><ele>9.666666666666666</ele><time>2026-05-04T15:56:49.405Z</time></trkpt><trkpt lat="40.8462283" lon="14.2698767"><ele>10.0</ele><time>2026-05-04T15:56:50.404Z</time></trkpt><trkpt lat="40.8462367" lon="14.2699767"><ele>10.333333333333332</ele><time>2026-05-04T15:56:51.402Z</time></trkpt><trkpt lat="40.8462433" lon="14.2700817"><ele>10.666666666666666</ele><time>2026-05-04T15:56:52.402Z</time></trkpt><trkpt lat="40.84625" lon="14.270185"><ele>11.0</ele><time>2026-05-04T15:56:53.402Z</time></trkpt><trkpt lat="40.8462567" lon="14.2702917"><ele>11.0</ele><time>2026-05-04T15:56:54.404Z</time></trkpt><trkpt lat="40.8462633" lon="14.2703967"><ele>11.0</ele><time>2026-05-04T15:56:55.404Z</time></trkpt><trkpt lat="40.84627" lon="14.2705017"><ele>11.0</ele><time>2026-05-04T15:56:56.403Z</time></trkpt><trkpt lat="40.846275" lon="14.2706083"><ele>11.0</ele><time>2026-05-04T15:56:57.402Z</time></trkpt><trkpt lat="40.8462817" lon="14.2707167"><ele>11.0</ele><time>2026-05-04T15:56:58.403Z</time></trkpt><trkpt lat="40.8462883" lon="14.2708233"><ele>11.0</ele><time>2026-05-04T15:56:59.403Z</time></trkpt><trkpt lat="40.846295" lon="14.2709317"><ele>11.0</ele><time>2026-05-04T15:57:00.403Z</time></trkpt><trkpt lat="40.8463017" lon="14.27104"><ele>11.0</ele><time>2026-05-04T15:57:01.402Z</time></trkpt><trkpt lat="40.84631" lon="14.27115"><ele>11.0</ele><time>2026-05-04T15:57:02.402Z</time></trkpt><trkpt lat="40.846315" lon="14.2712517"><ele>11.0</ele><time>2026-05-04T15:57:03.403Z</time></trkpt><trkpt lat="40.84632" lon="14.2713517"><ele>11.0</ele><time>2026-05-04T15:57:04.402Z</time></trkpt><trkpt lat="40.846325" lon="14.2714567"><ele>11.0</ele><time>2026-05-04T15:57:05.404Z</time></trkpt><trkpt lat="40.8463333" lon="14.2715617"><ele>10.833333333333332</ele><time>2026-05-04T15:57:06.402Z</time></trkpt><trkpt lat="40.8463433" lon="14.271665"><ele>10.666666666666666</ele><time>2026-05-04T15:57:07.403Z</time></trkpt><trkpt lat="40.8463517" lon="14.2717667"><ele>10.5</ele><time>2026-05-04T15:57:08.403Z</time></trkpt><trkpt lat="40.8463567" lon="14.271865"><ele>10.333333333333334</ele><time>2026-05-04T15:57:09.404Z</time></trkpt><trkpt lat="40.8463617" lon="14.2719667"><ele>10.166666666666668</ele><time>2026-05-04T15:57:10.403Z</time></trkpt><trkpt lat="40.8463667" lon="14.27207"><ele>10.0</ele><time>2026-05-04T15:57:11.404Z</time></trkpt><trkpt lat="40.846375" lon="14.2721683"><ele>10.0</ele><time>2026-05-04T15:57:12.402Z</time></trkpt><trkpt lat="40.8463817" lon="14.2722667"><ele>10.0</ele><time>2026-05-04T15:57:13.408Z</time></trkpt><trkpt lat="40.8463883" lon="14.2723617"><ele>10.0</ele><time>2026-05-04T15:57:14.403Z</time></trkpt><trkpt lat="40.8463917" lon="14.2724617"><ele>10.0</ele><time>2026-05-04T15:57:15.404Z</time></trkpt><trkpt lat="40.8463983" lon="14.2725583"><ele>10.0</ele><time>2026-05-04T15:57:16.403Z</time></trkpt><trkpt lat="40.8464067" lon="14.2726567"><ele>10.0</ele><time>2026-05-04T15:57:17.404Z</time></trkpt><trkpt lat="40.8464133" lon="14.2727517"><ele>10.0</ele><time>2026-05-04T15:57:18.403Z</time></trkpt><trkpt lat="40.84642" lon="14.27285"><ele>9.5</ele><time>2026-05-04T15:57:19.404Z</time></trkpt><trkpt lat="40.846425" lon="14.272945"><ele>9.0</ele><time>2026-05-04T15:57:20.404Z</time></trkpt><trkpt lat="40.84643" lon="14.2730383"><ele>8.5</ele><time>2026-05-04T15:57:21.403Z</time></trkpt><trkpt lat="40.8464317" lon="14.2731283"><ele>8.0</ele><time>2026-05-04T15:57:22.403Z</time></trkpt><trkpt lat="40.8464367" lon="14.273215"><ele>7.500000000000001</ele><time>2026-05-04T15:57:23.402Z</time></trkpt><trkpt lat="40.846425" lon="14.273355"><ele>7.0</ele><time>2026-05-04T15:57:25.403Z</time></trkpt><trkpt lat="40.8464233" lon="14.2734433"><ele>6.6</ele><time>2026-05-04T15:57:28.402Z</time></trkpt><trkpt lat="40.8464333" lon="14.2735367"><ele>6.199999999999999</ele><time>2026-05-04T15:57:30.401Z</time></trkpt><trkpt lat="40.8464433" lon="14.2736667"><ele>5.8</ele><time>2026-05-04T15:57:32.403Z</time></trkpt><trkpt lat="40.84646" lon="14.273795"><ele>5.4</ele><time>2026-05-04T15:57:34.403Z</time></trkpt><trkpt lat="40.846475" lon="14.2739467"><ele>5.0</ele><time>2026-05-04T15:57:36.403Z</time></trkpt><trkpt lat="40.8464883" lon="14.2741067"><ele>5.0</ele><time>2026-05-04T15:57:38.402Z</time></trkpt><trkpt lat="40.8464967" lon="14.2742583"><ele>5.0</ele><time>2026-05-04T15:57:40.402Z</time></trkpt><trkpt lat="40.8465033" lon="14.2743867"><ele>5.0</ele><time>2026-05-04T15:57:42.403Z</time></trkpt><trkpt lat="40.84652" lon="14.2745067"><ele>5.0</ele><time>2026-05-04T15:57:44.402Z</time></trkpt><trkpt lat="40.846545" lon="14.2746267"><ele>5.0</ele><time>2026-05-04T15:57:46.403Z</time></trkpt><trkpt lat="40.8465467" lon="14.27475"><ele>5.75</ele><time>2026-05-04T15:57:48.403Z</time></trkpt><trkpt lat="40.84655" lon="14.2748733"><ele>6.5</ele><time>2026-05-04T15:57:50.402Z</time></trkpt><trkpt lat="40.8465567" lon="14.2750317"><ele>7.25</ele><time>2026-05-04T15:57:52.403Z</time></trkpt><trkpt lat="40.8465717" lon="14.2752317"><ele>8.0</ele><time>2026-05-04T15:57:54.401Z</time></trkpt><trkpt lat="40.84658" lon="14.275345"><ele>7.999999999999999</ele><time>2026-05-04T15:57:55.404Z</time></trkpt><trkpt lat="40.8465883" lon="14.27546"><ele>8.0</ele><time>2026-05-04T15:57:56.403Z</time></trkpt><trkpt lat="40.8465983" lon="14.2755817"><ele>8.0</ele><time>2026-05-04T15:57:57.403Z</time></trkpt><trkpt lat="40.8466067" lon="14.275705"><ele>8.0</ele><time>2026-05-04T15:57:58.403Z</time></trkpt><trkpt lat="40.8466217" lon="14.2758217"><ele>7.999999999999999</ele><time>2026-05-04T15:57:59.403Z</time></trkpt><trkpt lat="40.8466317" lon="14.2759333"><ele>8.0</ele><time>2026-05-04T15:58:00.403Z</time></trkpt><trkpt lat="40.8466367" lon="14.2760417"><ele>8.142857142857142</ele><time>2026-05-04T15:58:01.403Z</time></trkpt><trkpt lat="40.84664" lon="14.2761433"><ele>8.285714285714285</ele><time>2026-05-04T15:58:02.402Z</time></trkpt><trkpt lat="40.8466433" lon="14.2762467"><ele>8.428571428571429</ele><time>2026-05-04T15:58:03.402Z</time></trkpt><trkpt lat="40.846645" lon="14.276345"><ele>8.571428571428571</ele><time>2026-05-04T15:58:04.404Z</time></trkpt><trkpt lat="40.84665" lon="14.276445"><ele>8.714285714285715</ele><time>2026-05-04T15:58:05.403Z</time></trkpt><trkpt lat="40.8466633" lon="14.276545"><ele>8.857142857142858</ele><time>2026-05-04T15:58:06.403Z</time></trkpt><trkpt lat="40.8466683" lon="14.2766333"><ele>9.0</ele><time>2026-05-04T15:58:07.403Z</time></trkpt><trkpt lat="40.846665" lon="14.27672"><ele>9.0</ele><time>2026-05-04T15:58:08.403Z</time></trkpt><trkpt lat="40.8466617" lon="14.27688"><ele>9.0</ele><time>2026-05-04T15:58:10.403Z</time></trkpt><trkpt lat="40.8466567" lon="14.2770183"><ele>9.0</ele><time>2026-05-04T15:58:12.403Z</time></trkpt><trkpt lat="40.8466267" lon="14.27716"><ele>9.0</ele><time>2026-05-04T15:58:14.402Z</time></trkpt><trkpt lat="40.8465867" lon="14.277305"><ele>9.0</ele><time>2026-05-04T15:58:16.402Z</time></trkpt><trkpt lat="40.8465417" lon="14.2774433"><ele>9.0</ele><time>2026-05-04T15:58:18.403Z</time></trkpt><trkpt lat="40.8464833" lon="14.2775767"><ele>9.0</ele><time>2026-05-04T15:58:20.402Z</time></trkpt><trkpt lat="40.846405" lon="14.2777417"><ele>9.0</ele><time>2026-05-04T15:58:22.402Z</time></trkpt><trkpt lat="40.846375" lon="14.2778767"><ele>9.0</ele><time>2026-05-04T15:58:24.403Z</time></trkpt><trkpt lat="40.84636" lon="14.278015"><ele>9.0</ele><time>2026-05-04T15:58:26.401Z</time></trkpt><trkpt lat="40.8463317" lon="14.2781567"><ele>9.0</ele><time>2026-05-04T15:58:28.402Z</time></trkpt><trkpt lat="40.84629" lon="14.27829"><ele>9.0</ele><time>2026-05-04T15:58:30.401Z</time></trkpt><trkpt lat="40.8462667" lon="14.2783683"><ele>9.0</ele><time>2026-05-04T15:58:31.403Z</time></trkpt><trkpt lat="40.8462417" lon="14.2784467"><ele>9.5</ele><time>2026-05-04T15:58:32.401Z</time></trkpt><trkpt lat="40.846185" lon="14.2785983"><ele>10.0</ele><time>2026-05-04T15:58:34.402Z</time></trkpt><trkpt lat="40.8461567" lon="14.27868"><ele>10.5</ele><time>2026-05-04T15:58:35.404Z</time></trkpt><trkpt lat="40.8461267" lon="14.2787583"><ele>11.0</ele><time>2026-05-04T15:58:36.403Z</time></trkpt><trkpt lat="40.8460933" lon="14.2788367"><ele>11.5</ele><time>2026-05-04T15:58:37.403Z</time></trkpt><trkpt lat="40.84606" lon="14.2789167"><ele>12.0</ele><time>2026-05-04T15:58:38.401Z</time></trkpt><trkpt lat="40.846025" lon="14.279"><ele>12.142857142857142</ele><time>2026-05-04T15:58:39.404Z</time></trkpt><trkpt lat="40.84599" lon="14.27908"><ele>12.285714285714285</ele><time>2026-05-04T15:58:40.402Z</time></trkpt><trkpt lat="40.8459567" lon="14.27916"><ele>12.428571428571427</ele><time>2026-05-04T15:58:41.405Z</time></trkpt><trkpt lat="40.8459183" lon="14.279245"><ele>12.571428571428571</ele><time>2026-05-04T15:58:42.403Z</time></trkpt><trkpt lat="40.8458817" lon="14.2793317"><ele>12.714285714285715</ele><time>2026-05-04T15:58:43.404Z</time></trkpt><trkpt lat="40.845845" lon="14.2794183"><ele>12.857142857142856</ele><time>2026-05-04T15:58:44.403Z</time></trkpt><trkpt lat="40.8458067" lon="14.2794983"><ele>13.0</ele><time>2026-05-04T15:58:45.402Z</time></trkpt><trkpt lat="40.8457717" lon="14.27958"><ele>12.857142857142856</ele><time>2026-05-04T15:58:46.402Z</time></trkpt><trkpt lat="40.845735" lon="14.27966"><ele>12.714285714285715</ele><time>2026-05-04T15:58:47.402Z</time></trkpt><trkpt lat="40.8456967" lon="14.2797483"><ele>12.571428571428571</ele><time>2026-05-04T15:58:48.404Z</time></trkpt><trkpt lat="40.84566" lon="14.2798367"><ele>12.428571428571427</ele><time>2026-05-04T15:58:49.404Z</time></trkpt><trkpt lat="40.845625" lon="14.2799267"><ele>12.285714285714285</ele><time>2026-05-04T15:58:50.402Z</time></trkpt><trkpt lat="40.84559" lon="14.2800117"><ele>12.142857142857142</ele><time>2026-05-04T15:58:51.402Z</time></trkpt><trkpt lat="40.845555" lon="14.280095"><ele>12.0</ele><time>2026-05-04T15:58:52.402Z</time></trkpt><trkpt lat="40.8455183" lon="14.2801767"><ele>11.999999999999998</ele><time>2026-05-04T15:58:53.403Z</time></trkpt><trkpt lat="40.8454817" lon="14.2802567"><ele>12.0</ele><time>2026-05-04T15:58:54.402Z</time></trkpt><trkpt lat="40.8454467" lon="14.2803383"><ele>12.0</ele><time>2026-05-04T15:58:55.405Z</time></trkpt><trkpt lat="40.8454133" lon="14.2804217"><ele>12.0</ele><time>2026-05-04T15:58:56.403Z</time></trkpt><trkpt lat="40.84538" lon="14.280505"><ele>12.0</ele><time>2026-05-04T15:58:57.403Z</time></trkpt><trkpt lat="40.845345" lon="14.280585"><ele>11.999999999999998</ele><time>2026-05-04T15:58:58.403Z</time></trkpt><trkpt lat="40.84531" lon="14.28067"><ele>12.0</ele><time>2026-05-04T15:58:59.402Z</time></trkpt><trkpt lat="40.8452717" lon="14.2807583"><ele>11.571428571428571</ele><time>2026-05-04T15:59:00.403Z</time></trkpt><trkpt lat="40.845235" lon="14.28084"><ele>11.142857142857142</ele><time>2026-05-04T15:59:01.402Z</time></trkpt><trkpt lat="40.8451967" lon="14.2809233"><ele>10.714285714285715</ele><time>2026-05-04T15:59:02.402Z</time></trkpt><trkpt lat="40.8451617" lon="14.281005"><ele>10.285714285714285</ele><time>2026-05-04T15:59:03.403Z</time></trkpt><trkpt lat="40.8451233" lon="14.28109"><ele>9.857142857142858</ele><time>2026-05-04T15:59:04.403Z</time></trkpt><trkpt lat="40.8450883" lon="14.281175"><ele>9.428571428571429</ele><time>2026-05-04T15:59:05.403Z</time></trkpt><trkpt lat="40.845055" lon="14.2812667"><ele>9.0</ele><time>2026-05-04T15:59:06.403Z</time></trkpt><trkpt lat="40.845025" lon="14.2813583"><ele>8.666666666666666</ele><time>2026-05-04T15:59:07.403Z</time></trkpt><trkpt lat="40.8449867" lon="14.2814433"><ele>8.333333333333334</ele><time>2026-05-04T15:59:08.402Z</time></trkpt><trkpt lat="40.844945" lon="14.28153"><ele>8.0</ele><time>2026-05-04T15:59:09.402Z</time></trkpt><trkpt lat="40.844905" lon="14.281615"><ele>7.666666666666667</ele><time>2026-05-04T15:59:10.404Z</time></trkpt><trkpt lat="40.8448667" lon="14.2816983"><ele>7.333333333333334</ele><time>2026-05-04T15:59:11.403Z</time></trkpt><trkpt lat="40.8448283" lon="14.2817867"><ele>7.0</ele><time>2026-05-04T15:59:12.403Z</time></trkpt><trkpt lat="40.8447883" lon="14.28187"><ele>7.0</ele><time>2026-05-04T15:59:13.404Z</time></trkpt><trkpt lat="40.844745" lon="14.28195"><ele>7.0</ele><time>2026-05-04T15:59:14.402Z</time></trkpt><trkpt lat="40.8447083" lon="14.2820283"><ele>7.0</ele><time>2026-05-04T15:59:15.403Z</time></trkpt><trkpt lat="40.8446717" lon="14.2821117"><ele>7.0</ele><time>2026-05-04T15:59:16.403Z</time></trkpt><trkpt lat="40.8446367" lon="14.2821967"><ele>7.0</ele><time>2026-05-04T15:59:17.403Z</time></trkpt><trkpt lat="40.844605" lon="14.2822817"><ele>7.0</ele><time>2026-05-04T15:59:18.402Z</time></trkpt><trkpt lat="40.8445783" lon="14.28236"><ele>7.0</ele><time>2026-05-04T15:59:19.403Z</time></trkpt><trkpt lat="40.8445117" lon="14.2824967"><ele>7.000000000000001</ele><time>2026-05-04T15:59:21.403Z</time></trkpt><trkpt lat="40.8444433" lon="14.2826033"><ele>7.0</ele><time>2026-05-04T15:59:23.404Z</time></trkpt><trkpt lat="40.8444133" lon="14.282695"><ele>7.0</ele><time>2026-05-04T15:59:25.404Z</time></trkpt><trkpt lat="40.8444083" lon="14.282785"><ele>7.0</ele><time>2026-05-04T15:59:28.404Z</time></trkpt><trkpt lat="40.844455" lon="14.282845"><ele>7.000000000000001</ele><time>2026-05-04T15:59:42.402Z</time></trkpt><trkpt lat="40.8445333" lon="14.282865"><ele>7.0</ele><time>2026-05-04T15:59:46.404Z</time></trkpt><trkpt lat="40.8446067" lon="14.28292"><ele>7.000000000000001</ele><time>2026-05-04T15:59:50.403Z</time></trkpt><trkpt lat="40.8446783" lon="14.2829983"><ele>7.0</ele><time>2026-05-04T15:59:53.403Z</time></trkpt><trkpt lat="40.8447283" lon="14.2830533"><ele>7.0</ele><time>2026-05-04T15:59:55.404Z</time></trkpt><trkpt lat="40.844785" lon="14.2831133"><ele>7.0</ele><time>2026-05-04T15:59:57.403Z</time></trkpt><trkpt lat="40.8448383" lon="14.28317"><ele>7.000000000000001</ele><time>2026-05-04T15:59:59.403Z</time></trkpt><trkpt lat="40.8449033" lon="14.28325"><ele>7.0</ele><time>2026-05-04T16:00:02.403Z</time></trkpt><trkpt lat="40.8449417" lon="14.2833283"><ele>7.0</ele><time>2026-05-04T16:00:04.401Z</time></trkpt><trkpt lat="40.844965" lon="14.283465"><ele>6.999999999999999</ele><time>2026-05-04T16:00:06.402Z</time></trkpt><trkpt lat="40.8449767" lon="14.2836217"><ele>6.999999999999999</ele><time>2026-05-04T16:00:08.402Z</time></trkpt><trkpt lat="40.8449867" lon="14.283795"><ele>7.0</ele><time>2026-05-04T16:00:10.401Z</time></trkpt><trkpt lat="40.8449967" lon="14.2838867"><ele>7.0</ele><time>2026-05-04T16:00:11.403Z</time></trkpt><trkpt lat="40.8450033" lon="14.2839783"><ele>7.0</ele><time>2026-05-04T16:00:12.402Z</time></trkpt><trkpt lat="40.84501" lon="14.2840717"><ele>7.0</ele><time>2026-05-04T16:00:13.402Z</time></trkpt><trkpt lat="40.8450133" lon="14.2841683"><ele>7.0</ele><time>2026-05-04T16:00:14.402Z</time></trkpt><trkpt lat="40.84502" lon="14.2842567"><ele>7.0</ele><time>2026-05-04T16:00:15.401Z</time></trkpt><trkpt lat="40.8450183" lon="14.2843433"><ele>7.0</ele><time>2026-05-04T16:00:16.402Z</time></trkpt><trkpt lat="40.8450167" lon="14.2844383"><ele>7.0</ele><time>2026-05-04T16:00:17.403Z</time></trkpt><trkpt lat="40.8450183" lon="14.2845283"><ele>7.0</ele><time>2026-05-04T16:00:18.402Z</time></trkpt><trkpt lat="40.84502" lon="14.2846183"><ele>7.0</ele><time>2026-05-04T16:00:19.402Z</time></trkpt><trkpt lat="40.8450167" lon="14.284715"><ele>7.0</ele><time>2026-05-04T16:00:20.403Z</time></trkpt><trkpt lat="40.8450217" lon="14.284805"><ele>7.0</ele><time>2026-05-04T16:00:21.401Z</time></trkpt><trkpt lat="40.84503" lon="14.284895"><ele>7.0</ele><time>2026-05-04T16:00:22.401Z</time></trkpt><trkpt lat="40.8450367" lon="14.2849883"><ele>7.0</ele><time>2026-05-04T16:00:23.403Z</time></trkpt><trkpt lat="40.8450417" lon="14.2850717"><ele>7.0</ele><time>2026-05-04T16:00:24.402Z</time></trkpt><trkpt lat="40.8450433" lon="14.2851667"><ele>7.0</ele><time>2026-05-04T16:00:25.403Z</time></trkpt><trkpt lat="40.8450467" lon="14.2852633"><ele>6.833333333333334</ele><time>2026-05-04T16:00:26.402Z</time></trkpt><trkpt lat="40.845045" lon="14.28536"><ele>6.666666666666667</ele><time>2026-05-04T16:00:27.401Z</time></trkpt><trkpt lat="40.84505" lon="14.2854567"><ele>6.5</ele><time>2026-05-04T16:00:28.402Z</time></trkpt><trkpt lat="40.8450567" lon="14.2855417"><ele>6.333333333333334</ele><time>2026-05-04T16:00:29.403Z</time></trkpt><trkpt lat="40.8450667" lon="14.2856267"><ele>6.166666666666667</ele><time>2026-05-04T16:00:30.404Z</time></trkpt><trkpt lat="40.845075" lon="14.2857167"><ele>6.0</ele><time>2026-05-04T16:00:31.402Z</time></trkpt><trkpt lat="40.8450733" lon="14.285875"><ele>6.0</ele><time>2026-05-04T16:00:33.402Z</time></trkpt><trkpt lat="40.8450633" lon="14.286005"><ele>6.0</ele><time>2026-05-04T16:00:35.403Z</time></trkpt><trkpt lat="40.8450833" lon="14.286125"><ele>6.0</ele><time>2026-05-04T16:00:37.403Z</time></trkpt><trkpt lat="40.845095" lon="14.286245"><ele>6.0</ele><time>2026-05-04T16:00:39.402Z</time></trkpt><trkpt lat="40.8451183" lon="14.2863333"><ele>6.0</ele><time>2026-05-04T16:00:43.402Z</time></trkpt><trkpt lat="40.8451883" lon="14.286395"><ele>6.0</ele><time>2026-05-04T16:00:47.403Z</time></trkpt><trkpt lat="40.8452717" lon="14.2864433"><ele>6.0</ele><time>2026-05-04T16:00:50.403Z</time></trkpt><trkpt lat="40.8453383" lon="14.2865083"><ele>6.0</ele><time>2026-05-04T16:00:52.403Z</time></trkpt><trkpt lat="40.8454067" lon="14.2865883"><ele>6.0</ele><time>2026-05-04T16:00:54.403Z</time></trkpt><trkpt lat="40.8454933" lon="14.2866617"><ele>6.0</ele><time>2026-05-04T16:00:56.404Z</time></trkpt><trkpt lat="40.8456033" lon="14.2867467"><ele>6.0</ele><time>2026-05-04T16:00:58.403Z</time></trkpt><trkpt lat="40.8457117" lon="14.2868133"><ele>6.0</ele><time>2026-05-04T16:01:00.403Z</time></trkpt><trkpt lat="40.8458217" lon="14.2868867"><ele>6.0</ele><time>2026-05-04T16:01:02.402Z</time></trkpt><trkpt lat="40.8459317" lon="14.2869517"><ele>6.0</ele><time>2026-05-04T16:01:04.402Z</time></trkpt><trkpt lat="40.846045" lon="14.2870233"><ele>6.0</ele><time>2026-05-04T16:01:06.402Z</time></trkpt><trkpt lat="40.8461533" lon="14.2870817"><ele>6.0</ele><time>2026-05-04T16:01:08.407Z</time></trkpt><trkpt lat="40.8462533" lon="14.287145"><ele>6.0</ele><time>2026-05-04T16:01:10.404Z</time></trkpt><trkpt lat="40.8463217" lon="14.2872217"><ele>6.0</ele><time>2026-05-04T16:01:11.403Z</time></trkpt><trkpt lat="40.8463783" lon="14.2872733"><ele>6.0</ele><time>2026-05-04T16:01:12.402Z</time></trkpt><trkpt lat="40.8464367" lon="14.2873217"><ele>6.0</ele><time>2026-05-04T16:01:13.403Z</time></trkpt><trkpt lat="40.8465" lon="14.2873633"><ele>6.0</ele><time>2026-05-04T16:01:14.405Z</time></trkpt><trkpt lat="40.8465617" lon="14.2874183"><ele>5.857142857142857</ele><time>2026-05-04T16:01:15.402Z</time></trkpt><trkpt lat="40.8466267" lon="14.2874667"><ele>5.714285714285714</ele><time>2026-05-04T16:01:16.403Z</time></trkpt><trkpt lat="40.8466867" lon="14.2875117"><ele>5.571428571428571</ele><time>2026-05-04T16:01:17.403Z</time></trkpt><trkpt lat="40.8467483" lon="14.2875533"><ele>5.428571428571429</ele><time>2026-05-04T16:01:18.403Z</time></trkpt><trkpt lat="40.8468117" lon="14.2875933"><ele>5.285714285714286</ele><time>2026-05-04T16:01:19.404Z</time></trkpt><trkpt lat="40.8468767" lon="14.28763"><ele>5.142857142857142</ele><time>2026-05-04T16:01:20.404Z</time></trkpt><trkpt lat="40.8469367" lon="14.28767"><ele>5.0</ele><time>2026-05-04T16:01:21.403Z</time></trkpt><trkpt lat="40.847" lon="14.2877083"><ele>5.0</ele><time>2026-05-04T16:01:22.402Z</time></trkpt><trkpt lat="40.8470583" lon="14.2877533"><ele>5.0</ele><time>2026-05-04T16:01:23.404Z</time></trkpt><trkpt lat="40.8471183" lon="14.2877917"><ele>5.0</ele><time>2026-05-04T16:01:24.403Z</time></trkpt><trkpt lat="40.8471817" lon="14.2878433"><ele>5.0</ele><time>2026-05-04T16:01:25.402Z</time></trkpt><trkpt lat="40.847245" lon="14.2878833"><ele>5.0</ele><time>2026-05-04T16:01:26.402Z</time></trkpt><trkpt lat="40.8473083" lon="14.28792"><ele>5.0</ele><time>2026-05-04T16:01:27.403Z</time></trkpt><trkpt lat="40.8473733" lon="14.2879583"><ele>5.0</ele><time>2026-05-04T16:01:28.404Z</time></trkpt><trkpt lat="40.8474433" lon="14.2880033"><ele>5.0</ele><time>2026-05-04T16:01:29.402Z</time></trkpt><trkpt lat="40.8475117" lon="14.288035"><ele>5.0</ele><time>2026-05-04T16:01:30.403Z</time></trkpt><trkpt lat="40.847575" lon="14.2880633"><ele>5.0</ele><time>2026-05-04T16:01:31.403Z</time></trkpt><trkpt lat="40.8476367" lon="14.2880917"><ele>5.0</ele><time>2026-05-04T16:01:32.403Z</time></trkpt><trkpt lat="40.8476933" lon="14.2881283"><ele>5.0</ele><time>2026-05-04T16:01:33.402Z</time></trkpt><trkpt lat="40.8477533" lon="14.2881617"><ele>5.0</ele><time>2026-05-04T16:01:34.403Z</time></trkpt><trkpt lat="40.847815" lon="14.2881917"><ele>5.0</ele><time>2026-05-04T16:01:35.404Z</time></trkpt><trkpt lat="40.8478817" lon="14.2882233"><ele>4.833333333333334</ele><time>2026-05-04T16:01:36.404Z</time></trkpt><trkpt lat="40.84795" lon="14.2882617"><ele>4.666666666666667</ele><time>2026-05-04T16:01:37.403Z</time></trkpt><trkpt lat="40.8480167" lon="14.28831"><ele>4.5</ele><time>2026-05-04T16:01:38.404Z</time></trkpt><trkpt lat="40.8480883" lon="14.2883533"><ele>4.333333333333333</ele><time>2026-05-04T16:01:39.404Z</time></trkpt><trkpt lat="40.8481567" lon="14.2884"><ele>4.166666666666666</ele><time>2026-05-04T16:01:40.403Z</time></trkpt><trkpt lat="40.8482233" lon="14.2884467"><ele>4.0</ele><time>2026-05-04T16:01:41.403Z</time></trkpt><trkpt lat="40.84829" lon="14.2884883"><ele>3.9999999999999996</ele><time>2026-05-04T16:01:42.402Z</time></trkpt><trkpt lat="40.8483583" lon="14.2885317"><ele>4.0</ele><time>2026-05-04T16:01:43.404Z</time></trkpt><trkpt lat="40.8484267" lon="14.2885767"><ele>4.0</ele><time>2026-05-04T16:01:44.403Z</time></trkpt><trkpt lat="40.8484967" lon="14.2886267"><ele>4.0</ele><time>2026-05-04T16:01:45.403Z</time></trkpt><trkpt lat="40.8485633" lon="14.2886733"><ele>3.9999999999999996</ele><time>2026-05-04T16:01:46.402Z</time></trkpt><trkpt lat="40.8486317" lon="14.2887183"><ele>4.0</ele><time>2026-05-04T16:01:47.404Z</time></trkpt><trkpt lat="40.8487" lon="14.2887633"><ele>3.9999999999999996</ele><time>2026-05-04T16:01:48.402Z</time></trkpt><trkpt lat="40.8487717" lon="14.2888"><ele>4.0</ele><time>2026-05-04T16:01:49.404Z</time></trkpt><trkpt lat="40.8488433" lon="14.2888417"><ele>4.0</ele><time>2026-05-04T16:01:50.404Z</time></trkpt><trkpt lat="40.8489167" lon="14.28888"><ele>4.0</ele><time>2026-05-04T16:01:51.402Z</time></trkpt><trkpt lat="40.8489867" lon="14.2889183"><ele>3.9999999999999996</ele><time>2026-05-04T16:01:52.404Z</time></trkpt><trkpt lat="40.8490583" lon="14.288955"><ele>4.0</ele><time>2026-05-04T16:01:53.403Z</time></trkpt><trkpt lat="40.84913" lon="14.2889867"><ele>4.0</ele><time>2026-05-04T16:01:54.404Z</time></trkpt><trkpt lat="40.8492017" lon="14.2890217"><ele>3.9999999999999996</ele><time>2026-05-04T16:01:55.404Z</time></trkpt><trkpt lat="40.84927" lon="14.2890617"><ele>4.0</ele><time>2026-05-04T16:01:56.403Z</time></trkpt><trkpt lat="40.84934" lon="14.2890967"><ele>4.0</ele><time>2026-05-04T16:01:57.403Z</time></trkpt><trkpt lat="40.8494083" lon="14.2891383"><ele>3.9999999999999996</ele><time>2026-05-04T16:01:58.404Z</time></trkpt><trkpt lat="40.849475" lon="14.2891733"><ele>4.0</ele><time>2026-05-04T16:01:59.403Z</time></trkpt><trkpt lat="40.8495383" lon="14.2892083"><ele>4.0</ele><time>2026-05-04T16:02:00.403Z</time></trkpt><trkpt lat="40.8496383" lon="14.2892733"><ele>3.4000000000000004</ele><time>2026-05-04T16:02:02.403Z</time></trkpt><trkpt lat="40.8497017" lon="14.2893733"><ele>2.8000000000000003</ele><time>2026-05-04T16:02:04.402Z</time></trkpt><trkpt lat="40.8497683" lon="14.2894917"><ele>2.2</ele><time>2026-05-04T16:02:06.403Z</time></trkpt><trkpt lat="40.8498817" lon="14.28952"><ele>1.6</ele><time>2026-05-04T16:02:08.404Z</time></trkpt><trkpt lat="40.849945" lon="14.289485"><ele>1.0</ele><time>2026-05-04T16:02:09.403Z</time></trkpt><trkpt lat="40.850005" lon="14.2894333"><ele>1.0</ele><time>2026-05-04T16:02:10.404Z</time></trkpt><trkpt lat="40.850065" lon="14.2893817"><ele>0.9999999999999999</ele><time>2026-05-04T16:02:11.404Z</time></trkpt><trkpt lat="40.850125" lon="14.289335"><ele>1.0</ele><time>2026-05-04T16:02:12.403Z</time></trkpt><trkpt lat="40.8501917" lon="14.2893067"><ele>1.0</ele><time>2026-05-04T16:02:13.403Z</time></trkpt><trkpt lat="40.8502633" lon="14.2892767"><ele>0.9999999999999999</ele><time>2026-05-04T16:02:14.405Z</time></trkpt><trkpt lat="40.8503283" lon="14.2892583"><ele>1.0</ele><time>2026-05-04T16:02:15.402Z</time></trkpt><trkpt lat="40.8503933" lon="14.2892417"><ele>1.0</ele><time>2026-05-04T16:02:16.406Z</time></trkpt><trkpt lat="40.8504567" lon="14.2892283"><ele>0.9999999999999999</ele><time>2026-05-04T16:02:17.402Z</time></trkpt><trkpt lat="40.8505217" lon="14.289215"><ele>1.0</ele><time>2026-05-04T16:02:18.403Z</time></trkpt><trkpt lat="40.8505883" lon="14.2892083"><ele>1.0</ele><time>2026-05-04T16:02:19.403Z</time></trkpt><trkpt lat="40.850655" lon="14.2891967"><ele>1.0</ele><time>2026-05-04T16:02:20.404Z</time></trkpt><trkpt lat="40.8507183" lon="14.28918"><ele>0.9999999999999999</ele><time>2026-05-04T16:02:21.402Z</time></trkpt><trkpt lat="40.8508333" lon="14.2891667"><ele>1.0</ele><time>2026-05-04T16:02:23.402Z</time></trkpt><trkpt lat="40.8509467" lon="14.28916"><ele>1.75</ele><time>2026-05-04T16:02:25.404Z</time></trkpt><trkpt lat="40.851065" lon="14.289145"><ele>2.5</ele><time>2026-05-04T16:02:27.404Z</time></trkpt><trkpt lat="40.8511833" lon="14.2891183"><ele>3.25</ele><time>2026-05-04T16:02:29.404Z</time></trkpt><trkpt lat="40.8513067" lon="14.28911"><ele>4.0</ele><time>2026-05-04T16:02:31.403Z</time></trkpt><trkpt lat="40.8514283" lon="14.2890883"><ele>3.9999999999999996</ele><time>2026-05-04T16:02:33.403Z</time></trkpt><trkpt lat="40.8514933" lon="14.2890767"><ele>4.0</ele><time>2026-05-04T16:02:34.404Z</time></trkpt><trkpt lat="40.85156" lon="14.289065"><ele>4.0</ele><time>2026-05-04T16:02:35.404Z</time></trkpt><trkpt lat="40.8516233" lon="14.289055"><ele>4.0</ele><time>2026-05-04T16:02:36.403Z</time></trkpt><trkpt lat="40.8516867" lon="14.2890433"><ele>3.9999999999999996</ele><time>2026-05-04T16:02:37.404Z</time></trkpt><trkpt lat="40.85175" lon="14.2890317"><ele>4.0</ele><time>2026-05-04T16:02:38.404Z</time></trkpt><trkpt lat="40.851875" lon="14.2890067"><ele>4.4</ele><time>2026-05-04T16:02:40.404Z</time></trkpt><trkpt lat="40.85199" lon="14.2889867"><ele>4.800000000000001</ele><time>2026-05-04T16:02:42.404Z</time></trkpt><trkpt lat="40.8521083" lon="14.288965"><ele>5.199999999999999</ele><time>2026-05-04T16:02:44.404Z</time></trkpt><trkpt lat="40.8521733" lon="14.2889567"><ele>5.6</ele><time>2026-05-04T16:02:45.406Z</time></trkpt><trkpt lat="40.8522367" lon="14.28895"><ele>6.0</ele><time>2026-05-04T16:02:46.402Z</time></trkpt><trkpt lat="40.8523567" lon="14.2889383"><ele>6.0</ele><time>2026-05-04T16:02:48.402Z</time></trkpt><trkpt lat="40.8524633" lon="14.2889183"><ele>6.0</ele><time>2026-05-04T16:02:50.403Z</time></trkpt><trkpt lat="40.8525617" lon="14.2889083"><ele>6.0</ele><time>2026-05-04T16:02:52.402Z</time></trkpt><trkpt lat="40.8526533" lon="14.2889"><ele>6.0</ele><time>2026-05-04T16:02:54.403Z</time></trkpt><trkpt lat="40.8527417" lon="14.2888817"><ele>6.0</ele><time>2026-05-04T16:02:56.403Z</time></trkpt><trkpt lat="40.8528417" lon="14.2888617"><ele>5.8</ele><time>2026-05-04T16:02:58.404Z</time></trkpt><trkpt lat="40.85295" lon="14.2888517"><ele>5.6</ele><time>2026-05-04T16:03:00.402Z</time></trkpt><trkpt lat="40.853065" lon="14.288835"><ele>5.4</ele><time>2026-05-04T16:03:02.402Z</time></trkpt><trkpt lat="40.853175" lon="14.288815"><ele>5.2</ele><time>2026-05-04T16:03:04.403Z</time></trkpt><trkpt lat="40.853285" lon="14.2887833"><ele>5.0</ele><time>2026-05-04T16:03:06.401Z</time></trkpt><trkpt lat="40.8533717" lon="14.28873"><ele>5.666666666666667</ele><time>2026-05-04T16:03:08.402Z</time></trkpt><trkpt lat="40.8534717" lon="14.2887033"><ele>6.333333333333334</ele><time>2026-05-04T16:03:10.402Z</time></trkpt><trkpt lat="40.8536" lon="14.2886983"><ele>7.0</ele><time>2026-05-04T16:03:12.402Z</time></trkpt><trkpt lat="40.8536717" lon="14.2886883"><ele>7.666666666666667</ele><time>2026-05-04T16:03:13.401Z</time></trkpt><trkpt lat="40.85374" lon="14.2886717"><ele>8.333333333333334</ele><time>2026-05-04T16:03:14.402Z</time></trkpt><trkpt lat="40.853805" lon="14.28865"><ele>9.0</ele><time>2026-05-04T16:03:15.401Z</time></trkpt><trkpt lat="40.853925" lon="14.2886117"><ele>9.0</ele><time>2026-05-04T16:03:17.402Z</time></trkpt><trkpt lat="40.8539917" lon="14.2885933"><ele>9.0</ele><time>2026-05-04T16:03:18.401Z</time></trkpt><trkpt lat="40.85411" lon="14.2885783"><ele>9.0</ele><time>2026-05-04T16:03:20.401Z</time></trkpt><trkpt lat="40.854225" lon="14.2885583"><ele>9.0</ele><time>2026-05-04T16:03:22.402Z</time></trkpt><trkpt lat="40.8548933" lon="14.288415"><ele>8.8</ele><time>2026-05-04T16:03:32.402Z</time></trkpt><trkpt lat="40.8549883" lon="14.2883883"><ele>8.600000000000001</ele><time>2026-05-04T16:03:33.402Z</time></trkpt><trkpt lat="40.85507" lon="14.2884033"><ele>8.4</ele><time>2026-05-04T16:03:34.401Z</time></trkpt><trkpt lat="40.855135" lon="14.2883867"><ele>8.200000000000001</ele><time>2026-05-04T16:03:35.401Z</time></trkpt><trkpt lat="40.8552517" lon="14.2883567"><ele>8.0</ele><time>2026-05-04T16:03:37.402Z</time></trkpt><trkpt lat="40.8553667" lon="14.2883467"><ele>7.333333333333333</ele><time>2026-05-04T16:03:39.402Z</time></trkpt><trkpt lat="40.8554317" lon="14.28834"><ele>6.666666666666666</ele><time>2026-05-04T16:03:40.401Z</time></trkpt><trkpt lat="40.8554967" lon="14.288335"><ele>6.0</ele><time>2026-05-04T16:03:41.402Z</time></trkpt><trkpt lat="40.8555633" lon="14.288325"><ele>5.333333333333333</ele><time>2026-05-04T16:03:42.403Z</time></trkpt><trkpt lat="40.855675" lon="14.2883017"><ele>4.666666666666666</ele><time>2026-05-04T16:03:44.402Z</time></trkpt><trkpt lat="40.855755" lon="14.2883067"><ele>4.0</ele><time>2026-05-04T16:03:46.404Z</time></trkpt><trkpt lat="40.8558317" lon="14.2883067"><ele>4.0</ele><time>2026-05-04T16:03:48.401Z</time></trkpt><trkpt lat="40.8559117" lon="14.2883383"><ele>4.0</ele><time>2026-05-04T16:03:50.402Z</time></trkpt><trkpt lat="40.855995" lon="14.2883583"><ele>4.0</ele><time>2026-05-04T16:03:52.402Z</time></trkpt><trkpt lat="40.8560767" lon="14.28834"><ele>4.0</ele><time>2026-05-04T16:03:54.401Z</time></trkpt><trkpt lat="40.8561617" lon="14.2882933"><ele>4.0</ele><time>2026-05-04T16:03:56.403Z</time></trkpt><trkpt lat="40.85627" lon="14.288255"><ele>4.5</ele><time>2026-05-04T16:03:58.402Z</time></trkpt><trkpt lat="40.856335" lon="14.2882467"><ele>5.0</ele><time>2026-05-04T16:03:59.402Z</time></trkpt><trkpt lat="40.8564017" lon="14.2882333"><ele>5.5</ele><time>2026-05-04T16:04:00.401Z</time></trkpt><trkpt lat="40.85647" lon="14.2882217"><ele>6.0</ele><time>2026-05-04T16:04:01.403Z</time></trkpt><trkpt lat="40.8565367" lon="14.288215"><ele>6.500000000000001</ele><time>2026-05-04T16:04:02.403Z</time></trkpt><trkpt lat="40.8566633" lon="14.2882017"><ele>7.0</ele><time>2026-05-04T16:04:04.402Z</time></trkpt><trkpt lat="40.85673" lon="14.288195"><ele>6.714285714285714</ele><time>2026-05-04T16:04:05.401Z</time></trkpt><trkpt lat="40.8568" lon="14.2881867"><ele>6.428571428571429</ele><time>2026-05-04T16:04:06.407Z</time></trkpt><trkpt lat="40.8568667" lon="14.2881783"><ele>6.142857142857142</ele><time>2026-05-04T16:04:07.405Z</time></trkpt><trkpt lat="40.8569333" lon="14.28817"><ele>5.857142857142858</ele><time>2026-05-04T16:04:08.404Z</time></trkpt><trkpt lat="40.857" lon="14.2881533"><ele>5.571428571428571</ele><time>2026-05-04T16:04:09.402Z</time></trkpt><trkpt lat="40.8570667" lon="14.2881367"><ele>5.285714285714286</ele><time>2026-05-04T16:04:10.401Z</time></trkpt><trkpt lat="40.8571367" lon="14.2881217"><ele>5.0</ele><time>2026-05-04T16:04:11.402Z</time></trkpt><trkpt lat="40.8572067" lon="14.2881083"><ele>5.0</ele><time>2026-05-04T16:04:12.401Z</time></trkpt><trkpt lat="40.857275" lon="14.2880967"><ele>5.0</ele><time>2026-05-04T16:04:13.406Z</time></trkpt><trkpt lat="40.857345" lon="14.2880833"><ele>5.0</ele><time>2026-05-04T16:04:14.401Z</time></trkpt><trkpt lat="40.857415" lon="14.2880733"><ele>5.0</ele><time>2026-05-04T16:04:15.401Z</time></trkpt><trkpt lat="40.857485" lon="14.288065"><ele>5.0</ele><time>2026-05-04T16:04:16.401Z</time></trkpt><trkpt lat="40.857555" lon="14.2880533"><ele>5.0</ele><time>2026-05-04T16:04:17.402Z</time></trkpt><trkpt lat="40.857625" lon="14.2880367"><ele>5.0</ele><time>2026-05-04T16:04:18.401Z</time></trkpt><trkpt lat="40.8577017" lon="14.2880233"><ele>4.833333333333334</ele><time>2026-05-04T16:04:19.402Z</time></trkpt><trkpt lat="40.85778" lon="14.28801"><ele>4.666666666666667</ele><time>2026-05-04T16:04:20.402Z</time></trkpt><trkpt lat="40.8578567" lon="14.2879967"><ele>4.5</ele><time>2026-05-04T16:04:21.402Z</time></trkpt><trkpt lat="40.857935" lon="14.28798"><ele>4.333333333333333</ele><time>2026-05-04T16:04:22.402Z</time></trkpt><trkpt lat="40.8580117" lon="14.2879667"><ele>4.166666666666666</ele><time>2026-05-04T16:04:23.401Z</time></trkpt><trkpt lat="40.8580883" lon="14.2879517"><ele>4.0</ele><time>2026-05-04T16:04:24.401Z</time></trkpt><trkpt lat="40.858165" lon="14.287935"><ele>4.0</ele><time>2026-05-04T16:04:25.401Z</time></trkpt><trkpt lat="40.8582417" lon="14.287925"><ele>3.9999999999999996</ele><time>2026-05-04T16:04:26.402Z</time></trkpt><trkpt lat="40.858315" lon="14.28794"><ele>4.0</ele><time>2026-05-04T16:04:27.402Z</time></trkpt><trkpt lat="40.8583767" lon="14.2879833"><ele>4.0</ele><time>2026-05-04T16:04:28.402Z</time></trkpt><trkpt lat="40.8584283" lon="14.28804"><ele>3.9999999999999996</ele><time>2026-05-04T16:04:29.402Z</time></trkpt><trkpt lat="40.8584583" lon="14.288115"><ele>4.0</ele><time>2026-05-04T16:04:30.402Z</time></trkpt><trkpt lat="40.8584733" lon="14.288205"><ele>4.0</ele><time>2026-05-04T16:04:31.401Z</time></trkpt><trkpt lat="40.8584783" lon="14.2882967"><ele>3.8571428571428568</ele><time>2026-05-04T16:04:32.402Z</time></trkpt><trkpt lat="40.85848" lon="14.2883917"><ele>3.714285714285714</ele><time>2026-05-04T16:04:33.401Z</time></trkpt><trkpt lat="40.8584817" lon="14.28849"><ele>3.571428571428571</ele><time>2026-05-04T16:04:34.401Z</time></trkpt><trkpt lat="40.8584833" lon="14.288585"><ele>3.4285714285714284</ele><time>2026-05-04T16:04:35.401Z</time></trkpt><trkpt lat="40.85849" lon="14.28868"><ele>3.2857142857142856</ele><time>2026-05-04T16:04:36.402Z</time></trkpt><trkpt lat="40.8584967" lon="14.28877"><ele>3.1428571428571423</ele><time>2026-05-04T16:04:37.402Z</time></trkpt><trkpt lat="40.858505" lon="14.2888633"><ele>3.0</ele><time>2026-05-04T16:04:38.401Z</time></trkpt><trkpt lat="40.858515" lon="14.288955"><ele>2.9999999999999996</ele><time>2026-05-04T16:04:39.402Z</time></trkpt><trkpt lat="40.8585233" lon="14.28905"><ele>3.0</ele><time>2026-05-04T16:04:40.402Z</time></trkpt><trkpt lat="40.85853" lon="14.2891483"><ele>3.0</ele><time>2026-05-04T16:04:41.401Z</time></trkpt><trkpt lat="40.85854" lon="14.2892417"><ele>3.0</ele><time>2026-05-04T16:04:42.402Z</time></trkpt><trkpt lat="40.8585483" lon="14.2893367"><ele>3.0</ele><time>2026-05-04T16:04:43.402Z</time></trkpt><trkpt lat="40.858555" lon="14.2894267"><ele>2.9999999999999996</ele><time>2026-05-04T16:04:44.402Z</time></trkpt><trkpt lat="40.8585633" lon="14.2895167"><ele>3.0</ele><time>2026-05-04T16:04:45.402Z</time></trkpt><trkpt lat="40.8585733" lon="14.2896067"><ele>2.9999999999999996</ele><time>2026-05-04T16:04:46.402Z</time></trkpt><trkpt lat="40.8585867" lon="14.2897"><ele>3.0</ele><time>2026-05-04T16:04:47.402Z</time></trkpt><trkpt lat="40.8585967" lon="14.289795"><ele>3.0</ele><time>2026-05-04T16:04:48.401Z</time></trkpt><trkpt lat="40.8586033" lon="14.2898867"><ele>3.0</ele><time>2026-05-04T16:04:49.401Z</time></trkpt><trkpt lat="40.8586083" lon="14.2899783"><ele>3.0</ele><time>2026-05-04T16:04:50.402Z</time></trkpt><trkpt lat="40.858615" lon="14.2900683"><ele>2.9999999999999996</ele><time>2026-05-04T16:04:51.401Z</time></trkpt><trkpt lat="40.85862" lon="14.2901583"><ele>3.0</ele><time>2026-05-04T16:04:52.402Z</time></trkpt><trkpt lat="40.8586183" lon="14.2902483"><ele>2.714285714285714</ele><time>2026-05-04T16:04:53.402Z</time></trkpt><trkpt lat="40.8586117" lon="14.2903367"><ele>2.4285714285714284</ele><time>2026-05-04T16:04:54.401Z</time></trkpt><trkpt lat="40.8586017" lon="14.2904217"><ele>2.142857142857143</ele><time>2026-05-04T16:04:55.401Z</time></trkpt><trkpt lat="40.85859" lon="14.2905117"><ele>1.857142857142857</ele><time>2026-05-04T16:04:56.402Z</time></trkpt><trkpt lat="40.8585767" lon="14.2905983"><ele>1.5714285714285712</ele><time>2026-05-04T16:04:57.4Z</time></trkpt><trkpt lat="40.8585633" lon="14.2906883"><ele>1.2857142857142856</ele><time>2026-05-04T16:04:58.402Z</time></trkpt><trkpt lat="40.8585583" lon="14.2907817"><ele>1.0</ele><time>2026-05-04T16:04:59.401Z</time></trkpt><trkpt lat="40.858555" lon="14.2908733"><ele>0.9999999999999999</ele><time>2026-05-04T16:05:00.402Z</time></trkpt><trkpt lat="40.858555" lon="14.2909717"><ele>1.0</ele><time>2026-05-04T16:05:01.402Z</time></trkpt><trkpt lat="40.8585583" lon="14.2910733"><ele>1.0</ele><time>2026-05-04T16:05:02.402Z</time></trkpt><trkpt lat="40.858565" lon="14.2911783"><ele>1.0</ele><time>2026-05-04T16:05:03.401Z</time></trkpt><trkpt lat="40.858575" lon="14.2912833"><ele>0.9999999999999999</ele><time>2026-05-04T16:05:04.401Z</time></trkpt><trkpt lat="40.8585867" lon="14.2913833"><ele>1.0</ele><time>2026-05-04T16:05:05.401Z</time></trkpt><trkpt lat="40.8586" lon="14.2914817"><ele>1.5</ele><time>2026-05-04T16:05:06.401Z</time></trkpt><trkpt lat="40.8586167" lon="14.2915717"><ele>2.0</ele><time>2026-05-04T16:05:07.402Z</time></trkpt><trkpt lat="40.8586383" lon="14.2916583"><ele>2.5</ele><time>2026-05-04T16:05:08.401Z</time></trkpt><trkpt lat="40.85867" lon="14.291735"><ele>3.0</ele><time>2026-05-04T16:05:09.402Z</time></trkpt><trkpt lat="40.8587183" lon="14.29179"><ele>3.4999999999999996</ele><time>2026-05-04T16:05:10.403Z</time></trkpt><trkpt lat="40.858825" lon="14.2918483"><ele>4.0</ele><time>2026-05-04T16:05:12.402Z</time></trkpt><trkpt lat="40.8588833" lon="14.2919067"><ele>4.0</ele><time>2026-05-04T16:05:14.402Z</time></trkpt><trkpt lat="40.8589033" lon="14.29199"><ele>3.9999999999999996</ele><time>2026-05-04T16:05:16.402Z</time></trkpt><trkpt lat="40.8589267" lon="14.2920733"><ele>4.0</ele><time>2026-05-04T16:05:18.402Z</time></trkpt><trkpt lat="40.8589417" lon="14.2921583"><ele>4.0</ele><time>2026-05-04T16:05:20.401Z</time></trkpt><trkpt lat="40.8589533" lon="14.2922567"><ele>3.9999999999999996</ele><time>2026-05-04T16:05:22.401Z</time></trkpt><trkpt lat="40.8589717" lon="14.2923617"><ele>4.0</ele><time>2026-05-04T16:05:24.402Z</time></trkpt><trkpt lat="40.8589833" lon="14.2924733"><ele>4.0</ele><time>2026-05-04T16:05:26.402Z</time></trkpt><trkpt lat="40.859" lon="14.2926083"><ele>4.333333333333333</ele><time>2026-05-04T16:05:28.402Z</time></trkpt><trkpt lat="40.8590167" lon="14.2927417"><ele>4.666666666666666</ele><time>2026-05-04T16:05:30.402Z</time></trkpt><trkpt lat="40.8590517" lon="14.29284"><ele>5.0</ele><time>2026-05-04T16:05:32.402Z</time></trkpt><trkpt lat="40.859135" lon="14.292875"><ele>5.333333333333333</ele><time>2026-05-04T16:05:34.402Z</time></trkpt><trkpt lat="40.8592233" lon="14.2928733"><ele>5.666666666666667</ele><time>2026-05-04T16:05:36.402Z</time></trkpt><trkpt lat="40.85929" lon="14.2928533"><ele>6.0</ele><time>2026-05-04T16:05:38.402Z</time></trkpt><trkpt lat="40.85935" lon="14.2928183"><ele>6.0</ele><time>2026-05-04T16:05:40.402Z</time></trkpt><trkpt lat="40.859445" lon="14.2927817"><ele>6.0</ele><time>2026-05-04T16:05:42.403Z</time></trkpt><trkpt lat="40.8595567" lon="14.2927717"><ele>6.0</ele><time>2026-05-04T16:05:44.402Z</time></trkpt><trkpt lat="40.859675" lon="14.2927433"><ele>6.0</ele><time>2026-05-04T16:05:46.402Z</time></trkpt><trkpt lat="40.8597983" lon="14.29272"><ele>6.0</ele><time>2026-05-04T16:05:48.402Z</time></trkpt><trkpt lat="40.8599133" lon="14.2927033"><ele>6.0</ele><time>2026-05-04T16:05:50.401Z</time></trkpt><trkpt lat="40.8600283" lon="14.2926933"><ele>6.0</ele><time>2026-05-04T16:05:52.402Z</time></trkpt><trkpt lat="40.860145" lon="14.2926817"><ele>6.0</ele><time>2026-05-04T16:05:54.402Z</time></trkpt><trkpt lat="40.8602633" lon="14.2926717"><ele>5.2</ele><time>2026-05-04T16:05:56.402Z</time></trkpt><trkpt lat="40.8603767" lon="14.29265"><ele>4.3999999999999995</ele><time>2026-05-04T16:05:58.402Z</time></trkpt><trkpt lat="40.8604867" lon="14.292635"><ele>3.6</ele><time>2026-05-04T16:06:00.414Z</time></trkpt><trkpt lat="40.8606083" lon="14.292625"><ele>2.8</ele><time>2026-05-04T16:06:02.401Z</time></trkpt><trkpt lat="40.8607033" lon="14.2926117"><ele>2.0</ele><time>2026-05-04T16:06:05.403Z</time></trkpt><trkpt lat="40.86077" lon="14.2926033"><ele>2.0</ele><time>2026-05-04T16:06:07.402Z</time></trkpt><trkpt lat="40.8608633" lon="14.2925933"><ele>2.0</ele><time>2026-05-04T16:06:09.401Z</time></trkpt><trkpt lat="40.8609683" lon="14.2925867"><ele>2.0</ele><time>2026-05-04T16:06:11.402Z</time></trkpt><trkpt lat="40.8610717" lon="14.2925833"><ele>2.0</ele><time>2026-05-04T16:06:13.403Z</time></trkpt><trkpt lat="40.861165" lon="14.2925733"><ele>2.0</ele><time>2026-05-04T16:06:15.402Z</time></trkpt><trkpt lat="40.86126" lon="14.2925767"><ele>1.8</ele><time>2026-05-04T16:06:17.403Z</time></trkpt><trkpt lat="40.861355" lon="14.2925567"><ele>1.6</ele><time>2026-05-04T16:06:19.403Z</time></trkpt><trkpt lat="40.861455" lon="14.2925533"><ele>1.4000000000000001</ele><time>2026-05-04T16:06:21.403Z</time></trkpt><trkpt lat="40.8615533" lon="14.29256"><ele>1.2000000000000002</ele><time>2026-05-04T16:06:23.403Z</time></trkpt><trkpt lat="40.8616433" lon="14.292555"><ele>1.0</ele><time>2026-05-04T16:06:25.404Z</time></trkpt><trkpt lat="40.8617367" lon="14.2925433"><ele>0.8333333333333333</ele><time>2026-05-04T16:06:27.402Z</time></trkpt><trkpt lat="40.861825" lon="14.2925367"><ele>0.6666666666666666</ele><time>2026-05-04T16:06:29.403Z</time></trkpt><trkpt lat="40.86191" lon="14.2925283"><ele>0.5</ele><time>2026-05-04T16:06:31.403Z</time></trkpt><trkpt lat="40.862" lon="14.2925217"><ele>0.3333333333333333</ele><time>2026-05-04T16:06:33.402Z</time></trkpt><trkpt lat="40.86209" lon="14.29251"><ele>0.16666666666666666</ele><time>2026-05-04T16:06:35.403Z</time></trkpt><trkpt lat="40.8621817" lon="14.2924917"><ele>0.0</ele><time>2026-05-04T16:06:37.403Z</time></trkpt><trkpt lat="40.86226" lon="14.292465"><ele>0.0</ele><time>2026-05-04T16:06:39.403Z</time></trkpt><trkpt lat="40.8623217" lon="14.2924217"><ele>0.0</ele><time>2026-05-04T16:06:41.402Z</time></trkpt><trkpt lat="40.8623967" lon="14.2924267"><ele>0.0</ele><time>2026-05-04T16:06:44.402Z</time></trkpt><trkpt lat="40.862435" lon="14.29254"><ele>0.0</ele><time>2026-05-04T16:06:47.402Z</time></trkpt><trkpt lat="40.8624767" lon="14.2926317"><ele>0.0</ele><time>2026-05-04T16:06:49.403Z</time></trkpt><trkpt lat="40.8625367" lon="14.2927167"><ele>0.0</ele><time>2026-05-04T16:06:51.406Z</time></trkpt><trkpt lat="40.862605" lon="14.2928"><ele>0.8</ele><time>2026-05-04T16:06:53.404Z</time></trkpt><trkpt lat="40.86268" lon="14.2928733"><ele>1.6</ele><time>2026-05-04T16:06:55.406Z</time></trkpt><trkpt lat="40.862765" lon="14.2929567"><ele>2.4000000000000004</ele><time>2026-05-04T16:06:57.405Z</time></trkpt><trkpt lat="40.8628283" lon="14.293065"><ele>3.2</ele><time>2026-05-04T16:06:59.404Z</time></trkpt><trkpt lat="40.8628883" lon="14.2931883"><ele>4.0</ele><time>2026-05-04T16:07:01.405Z</time></trkpt><trkpt lat="40.8629567" lon="14.293295"><ele>4.0</ele><time>2026-05-04T16:07:03.41Z</time></trkpt><trkpt lat="40.8630217" lon="14.2933983"><ele>4.0</ele><time>2026-05-04T16:07:05.403Z</time></trkpt><trkpt lat="40.8630733" lon="14.2934917"><ele>4.0</ele><time>2026-05-04T16:07:07.402Z</time></trkpt><trkpt lat="40.863125" lon="14.2935883"><ele>4.0</ele><time>2026-05-04T16:07:09.402Z</time></trkpt><trkpt lat="40.8631817" lon="14.2936767"><ele>4.0</ele><time>2026-05-04T16:07:11.402Z</time></trkpt><trkpt lat="40.8632367" lon="14.29377"><ele>4.0</ele><time>2026-05-04T16:07:13.401Z</time></trkpt><trkpt lat="40.863285" lon="14.293865"><ele>4.0</ele><time>2026-05-04T16:07:15.402Z</time></trkpt><trkpt lat="40.8633383" lon="14.2939617"><ele>4.0</ele><time>2026-05-04T16:07:17.402Z</time></trkpt><trkpt lat="40.863395" lon="14.29406"><ele>4.0</ele><time>2026-05-04T16:07:19.402Z</time></trkpt><trkpt lat="40.8634567" lon="14.294165"><ele>4.0</ele><time>2026-05-04T16:07:21.402Z</time></trkpt><trkpt lat="40.8635133" lon="14.294265"><ele>4.6</ele><time>2026-05-04T16:07:23.402Z</time></trkpt><trkpt lat="40.86357" lon="14.29437"><ele>5.2</ele><time>2026-05-04T16:07:25.403Z</time></trkpt><trkpt lat="40.8636267" lon="14.2944733"><ele>5.799999999999999</ele><time>2026-05-04T16:07:27.402Z</time></trkpt><trkpt lat="40.8636967" lon="14.2945983"><ele>6.3999999999999995</ele><time>2026-05-04T16:07:29.402Z</time></trkpt><trkpt lat="40.8637717" lon="14.2947133"><ele>7.0</ele><time>2026-05-04T16:07:31.403Z</time></trkpt><trkpt lat="40.8638783" lon="14.2948017"><ele>6.8</ele><time>2026-05-04T16:07:33.402Z</time></trkpt><trkpt lat="40.86401" lon="14.2948517"><ele>6.6</ele><time>2026-05-04T16:07:35.403Z</time></trkpt><trkpt lat="40.8641217" lon="14.2948583"><ele>6.3999999999999995</ele><time>2026-05-04T16:07:36.403Z</time></trkpt><trkpt lat="40.864215" lon="14.294855"><ele>6.199999999999999</ele><time>2026-05-04T16:07:37.402Z</time></trkpt><trkpt lat="40.864315" lon="14.2948167"><ele>6.0</ele><time>2026-05-04T16:07:38.402Z</time></trkpt><trkpt lat="40.8644017" lon="14.2947933"><ele>6.0</ele><time>2026-05-04T16:07:39.402Z</time></trkpt><trkpt lat="40.8644867" lon="14.2947683"><ele>6.0</ele><time>2026-05-04T16:07:40.405Z</time></trkpt><trkpt lat="40.8645683" lon="14.29475"><ele>6.0</ele><time>2026-05-04T16:07:41.405Z</time></trkpt><trkpt lat="40.86465" lon="14.294735"><ele>6.0</ele><time>2026-05-04T16:07:42.406Z</time></trkpt><trkpt lat="40.8647283" lon="14.2947167"><ele>6.0</ele><time>2026-05-04T16:07:43.406Z</time></trkpt><trkpt lat="40.8648083" lon="14.2946933"><ele>6.0</ele><time>2026-05-04T16:07:44.405Z</time></trkpt><trkpt lat="40.8648883" lon="14.294675"><ele>6.142857142857142</ele><time>2026-05-04T16:07:45.399Z</time></trkpt><trkpt lat="40.8649667" lon="14.29467"><ele>6.285714285714286</ele><time>2026-05-04T16:07:46.401Z</time></trkpt><trkpt lat="40.865045" lon="14.2946717"><ele>6.428571428571429</ele><time>2026-05-04T16:07:47.402Z</time></trkpt><trkpt lat="40.86512" lon="14.29467"><ele>6.571428571428571</ele><time>2026-05-04T16:07:48.401Z</time></trkpt><trkpt lat="40.8651933" lon="14.2946617"><ele>6.714285714285714</ele><time>2026-05-04T16:07:49.401Z</time></trkpt><trkpt lat="40.8652667" lon="14.29465"><ele>6.857142857142857</ele><time>2026-05-04T16:07:50.402Z</time></trkpt><trkpt lat="40.8653367" lon="14.2946467"><ele>7.0</ele><time>2026-05-04T16:07:51.402Z</time></trkpt><trkpt lat="40.8654067" lon="14.29465"><ele>7.333333333333334</ele><time>2026-05-04T16:07:52.402Z</time></trkpt><trkpt lat="40.865475" lon="14.2946617"><ele>7.666666666666667</ele><time>2026-05-04T16:07:53.403Z</time></trkpt><trkpt lat="40.8655433" lon="14.2946717"><ele>8.0</ele><time>2026-05-04T16:07:54.402Z</time></trkpt><trkpt lat="40.8656083" lon="14.2946817"><ele>8.333333333333334</ele><time>2026-05-04T16:07:55.402Z</time></trkpt><trkpt lat="40.8657367" lon="14.2946967"><ele>8.666666666666666</ele><time>2026-05-04T16:07:57.402Z</time></trkpt><trkpt lat="40.865805" lon="14.2947017"><ele>9.0</ele><time>2026-05-04T16:07:58.401Z</time></trkpt><trkpt lat="40.8658717" lon="14.2947133"><ele>9.0</ele><time>2026-05-04T16:07:59.402Z</time></trkpt><trkpt lat="40.865935" lon="14.29473"><ele>9.0</ele><time>2026-05-04T16:08:00.402Z</time></trkpt><trkpt lat="40.8660533" lon="14.29476"><ele>9.0</ele><time>2026-05-04T16:08:02.402Z</time></trkpt><trkpt lat="40.8661567" lon="14.2947967"><ele>9.0</ele><time>2026-05-04T16:08:04.402Z</time></trkpt><trkpt lat="40.866255" lon="14.2948317"><ele>9.0</ele><time>2026-05-04T16:08:06.401Z</time></trkpt><trkpt lat="40.8663533" lon="14.2948567"><ele>9.2</ele><time>2026-05-04T16:08:08.402Z</time></trkpt><trkpt lat="40.8664517" lon="14.2948883"><ele>9.4</ele><time>2026-05-04T16:08:10.402Z</time></trkpt><trkpt lat="40.8665533" lon="14.29492"><ele>9.6</ele><time>2026-05-04T16:08:12.402Z</time></trkpt><trkpt lat="40.8666567" lon="14.2949517"><ele>9.8</ele><time>2026-05-04T16:08:14.402Z</time></trkpt><trkpt lat="40.866755" lon="14.295005"><ele>10.0</ele><time>2026-05-04T16:08:16.401Z</time></trkpt><trkpt lat="40.8668533" lon="14.29506"><ele>10.4</ele><time>2026-05-04T16:08:18.402Z</time></trkpt><trkpt lat="40.8669517" lon="14.29511"><ele>10.8</ele><time>2026-05-04T16:08:20.402Z</time></trkpt><trkpt lat="40.8670367" lon="14.29516"><ele>11.2</ele><time>2026-05-04T16:08:22.402Z</time></trkpt><trkpt lat="40.8671183" lon="14.2952117"><ele>11.6</ele><time>2026-05-04T16:08:24.404Z</time></trkpt><trkpt lat="40.8672017" lon="14.2952617"><ele>12.0</ele><time>2026-05-04T16:08:26.401Z</time></trkpt><trkpt lat="40.86729" lon="14.2953133"><ele>12.0</ele><time>2026-05-04T16:08:28.402Z</time></trkpt><trkpt lat="40.8673667" lon="14.2953683"><ele>12.0</ele><time>2026-05-04T16:08:30.401Z</time></trkpt><trkpt lat="40.86744" lon="14.2954233"><ele>12.0</ele><time>2026-05-04T16:08:32.402Z</time></trkpt><trkpt lat="40.8675117" lon="14.2954667"><ele>12.0</ele><time>2026-05-04T16:08:34.402Z</time></trkpt><trkpt lat="40.8675867" lon="14.2954967"><ele>12.0</ele><time>2026-05-04T16:08:36.403Z</time></trkpt><trkpt lat="40.8676733" lon="14.2955367"><ele>12.0</ele><time>2026-05-04T16:08:38.403Z</time></trkpt><trkpt lat="40.867755" lon="14.2956033"><ele>12.399999999999999</ele><time>2026-05-04T16:08:40.401Z</time></trkpt><trkpt lat="40.8678267" lon="14.295685"><ele>12.799999999999999</ele><time>2026-05-04T16:08:42.403Z</time></trkpt><trkpt lat="40.8679017" lon="14.2957683"><ele>13.2</ele><time>2026-05-04T16:08:44.402Z</time></trkpt><trkpt lat="40.8679783" lon="14.2958483"><ele>13.6</ele><time>2026-05-04T16:08:46.402Z</time></trkpt><trkpt lat="40.8680467" lon="14.2959383"><ele>14.0</ele><time>2026-05-04T16:08:48.402Z</time></trkpt><trkpt lat="40.8681117" lon="14.2960133"><ele>14.0</ele><time>2026-05-04T16:08:50.401Z</time></trkpt><trkpt lat="40.86819" lon="14.2960783"><ele>13.999999999999998</ele><time>2026-05-04T16:08:52.401Z</time></trkpt><trkpt lat="40.8682817" lon="14.2961283"><ele>13.999999999999998</ele><time>2026-05-04T16:08:54.402Z</time></trkpt><trkpt lat="40.8683767" lon="14.2961667"><ele>14.0</ele><time>2026-05-04T16:08:56.403Z</time></trkpt><trkpt lat="40.8684633" lon="14.2962233"><ele>14.0</ele><time>2026-05-04T16:08:58.402Z</time></trkpt><trkpt lat="40.868535" lon="14.2963067"><ele>14.0</ele><time>2026-05-04T16:09:00.401Z</time></trkpt><trkpt lat="40.8685917" lon="14.296415"><ele>13.999999999999998</ele><time>2026-05-04T16:09:02.402Z</time></trkpt><trkpt lat="40.86865" lon="14.296515"><ele>13.999999999999998</ele><time>2026-05-04T16:09:04.402Z</time></trkpt><trkpt lat="40.8687083" lon="14.296605"><ele>14.0</ele><time>2026-05-04T16:09:06.402Z</time></trkpt><trkpt lat="40.86876" lon="14.2967017"><ele>14.0</ele><time>2026-05-04T16:09:08.402Z</time></trkpt><trkpt lat="40.8688167" lon="14.29679"><ele>14.0</ele><time>2026-05-04T16:09:10.402Z</time></trkpt><trkpt lat="40.86888" lon="14.2968733"><ele>13.999999999999998</ele><time>2026-05-04T16:09:12.402Z</time></trkpt><trkpt lat="40.8689533" lon="14.2969483"><ele>13.999999999999998</ele><time>2026-05-04T16:09:14.402Z</time></trkpt><trkpt lat="40.86902" lon="14.29702"><ele>14.0</ele><time>2026-05-04T16:09:16.404Z</time></trkpt><trkpt lat="40.8690867" lon="14.297095"><ele>14.0</ele><time>2026-05-04T16:09:18.403Z</time></trkpt><trkpt lat="40.8691567" lon="14.2971783"><ele>14.0</ele><time>2026-05-04T16:09:20.403Z</time></trkpt><trkpt lat="40.8690533" lon="14.297285"><ele>14.0</ele><time>2026-05-04T16:09:22.405Z</time></trkpt><trkpt lat="40.8691467" lon="14.2974283"><ele>14.0</ele><time>2026-05-04T16:09:24.401Z</time></trkpt><trkpt lat="40.869305" lon="14.2975867"><ele>15.25</ele><time>2026-05-04T16:09:26.402Z</time></trkpt><trkpt lat="40.8693917" lon="14.2976683"><ele>16.5</ele><time>2026-05-04T16:09:28.402Z</time></trkpt><trkpt lat="40.86948" lon="14.297775"><ele>17.75</ele><time>2026-05-04T16:09:30.402Z</time></trkpt><trkpt lat="40.8695617" lon="14.2978917"><ele>19.0</ele><time>2026-05-04T16:09:32.402Z</time></trkpt><trkpt lat="40.8696417" lon="14.2980117"><ele>18.4</ele><time>2026-05-04T16:09:34.401Z</time></trkpt><trkpt lat="40.86973" lon="14.2981233"><ele>17.799999999999997</ele><time>2026-05-04T16:09:36.402Z</time></trkpt><trkpt lat="40.8697733" lon="14.298185"><ele>17.200000000000003</ele><time>2026-05-04T16:09:37.402Z</time></trkpt><trkpt lat="40.8698533" lon="14.2982883"><ele>16.6</ele><time>2026-05-04T16:09:39.403Z</time></trkpt><trkpt lat="40.86992" lon="14.2983783"><ele>16.0</ele><time>2026-05-04T16:09:41.403Z</time></trkpt><trkpt lat="40.8699833" lon="14.29846"><ele>16.0</ele><time>2026-05-04T16:09:43.403Z</time></trkpt><trkpt lat="40.8700517" lon="14.2985517"><ele>16.0</ele><time>2026-05-04T16:09:45.402Z</time></trkpt><trkpt lat="40.8701267" lon="14.2986533"><ele>16.0</ele><time>2026-05-04T16:09:47.403Z</time></trkpt><trkpt lat="40.8702017" lon="14.2987533"><ele>16.0</ele><time>2026-05-04T16:09:49.403Z</time></trkpt><trkpt lat="40.8702767" lon="14.2988583"><ele>16.0</ele><time>2026-05-04T16:09:51.402Z</time></trkpt><trkpt lat="40.8703533" lon="14.2989767"><ele>16.2</ele><time>2026-05-04T16:09:53.403Z</time></trkpt><trkpt lat="40.870425" lon="14.2990833"><ele>16.400000000000002</ele><time>2026-05-04T16:09:55.405Z</time></trkpt><trkpt lat="40.870485" lon="14.2991583"><ele>16.6</ele><time>2026-05-04T16:09:57.402Z</time></trkpt><trkpt lat="40.8705533" lon="14.2992533"><ele>16.8</ele><time>2026-05-04T16:09:59.403Z</time></trkpt><trkpt lat="40.87064" lon="14.2993767"><ele>17.0</ele><time>2026-05-04T16:10:01.402Z</time></trkpt><trkpt lat="40.87069" lon="14.299445"><ele>16.999999999999996</ele><time>2026-05-04T16:10:02.403Z</time></trkpt><trkpt lat="40.8707417" lon="14.2995133"><ele>17.0</ele><time>2026-05-04T16:10:03.401Z</time></trkpt><trkpt lat="40.8707883" lon="14.2995833"><ele>17.0</ele><time>2026-05-04T16:10:04.401Z</time></trkpt><trkpt lat="40.8708383" lon="14.2996533"><ele>17.0</ele><time>2026-05-04T16:10:05.403Z</time></trkpt><trkpt lat="40.8708883" lon="14.2997233"><ele>17.0</ele><time>2026-05-04T16:10:06.402Z</time></trkpt><trkpt lat="40.8709383" lon="14.2997967"><ele>16.999999999999996</ele><time>2026-05-04T16:10:07.403Z</time></trkpt><trkpt lat="40.87099" lon="14.2998667"><ele>17.0</ele><time>2026-05-04T16:10:08.402Z</time></trkpt><trkpt lat="40.87104" lon="14.29994"><ele>17.285714285714285</ele><time>2026-05-04T16:10:09.402Z</time></trkpt><trkpt lat="40.871085" lon="14.300015"><ele>17.57142857142857</ele><time>2026-05-04T16:10:10.402Z</time></trkpt><trkpt lat="40.87113" lon="14.3000833"><ele>17.857142857142854</ele><time>2026-05-04T16:10:11.402Z</time></trkpt><trkpt lat="40.871175" lon="14.3001517"><ele>18.142857142857142</ele><time>2026-05-04T16:10:12.403Z</time></trkpt><trkpt lat="40.8712183" lon="14.3002183"><ele>18.42857142857143</ele><time>2026-05-04T16:10:13.403Z</time></trkpt><trkpt lat="40.8712667" lon="14.3002883"><ele>18.71428571428571</ele><time>2026-05-04T16:10:14.402Z</time></trkpt><trkpt lat="40.8713167" lon="14.30036"><ele>19.0</ele><time>2026-05-04T16:10:15.402Z</time></trkpt><trkpt lat="40.8713683" lon="14.3004283"><ele>19.0</ele><time>2026-05-04T16:10:16.403Z</time></trkpt><trkpt lat="40.8714167" lon="14.3004933"><ele>19.0</ele><time>2026-05-04T16:10:17.403Z</time></trkpt><trkpt lat="40.8714633" lon="14.3005617"><ele>19.0</ele><time>2026-05-04T16:10:18.403Z</time></trkpt><trkpt lat="40.8715117" lon="14.3006317"><ele>19.0</ele><time>2026-05-04T16:10:19.402Z</time></trkpt><trkpt lat="40.871555" lon="14.3007033"><ele>19.0</ele><time>2026-05-04T16:10:20.402Z</time></trkpt><trkpt lat="40.8715983" lon="14.3007767"><ele>19.0</ele><time>2026-05-04T16:10:21.401Z</time></trkpt><trkpt lat="40.8716417" lon="14.300845"><ele>19.0</ele><time>2026-05-04T16:10:22.403Z</time></trkpt><trkpt lat="40.8716883" lon="14.3009117"><ele>18.666666666666664</ele><time>2026-05-04T16:10:23.402Z</time></trkpt><trkpt lat="40.8717367" lon="14.3009817"><ele>18.333333333333332</ele><time>2026-05-04T16:10:24.402Z</time></trkpt><trkpt lat="40.87179" lon="14.30105"><ele>18.0</ele><time>2026-05-04T16:10:25.404Z</time></trkpt><trkpt lat="40.8718417" lon="14.3011133"><ele>17.666666666666668</ele><time>2026-05-04T16:10:26.401Z</time></trkpt><trkpt lat="40.8718883" lon="14.3011733"><ele>17.333333333333336</ele><time>2026-05-04T16:10:27.4Z</time></trkpt><trkpt lat="40.8719767" lon="14.30129"><ele>17.0</ele><time>2026-05-04T16:10:29.402Z</time></trkpt><trkpt lat="40.8720233" lon="14.3013467"><ele>17.333333333333336</ele><time>2026-05-04T16:10:30.402Z</time></trkpt><trkpt lat="40.8720717" lon="14.3014017"><ele>17.666666666666668</ele><time>2026-05-04T16:10:31.403Z</time></trkpt><trkpt lat="40.87216" lon="14.3015233"><ele>18.0</ele><time>2026-05-04T16:10:33.401Z</time></trkpt><trkpt lat="40.8722033" lon="14.3015867"><ele>18.333333333333332</ele><time>2026-05-04T16:10:34.401Z</time></trkpt><trkpt lat="40.87225" lon="14.30165"><ele>18.666666666666664</ele><time>2026-05-04T16:10:35.401Z</time></trkpt><trkpt lat="40.872295" lon="14.3017133"><ele>19.0</ele><time>2026-05-04T16:10:36.401Z</time></trkpt><trkpt lat="40.8723783" lon="14.301835"><ele>19.0</ele><time>2026-05-04T16:10:38.401Z</time></trkpt><trkpt lat="40.8724233" lon="14.301895"><ele>19.0</ele><time>2026-05-04T16:10:39.402Z</time></trkpt><trkpt lat="40.872505" lon="14.30202"><ele>19.0</ele><time>2026-05-04T16:10:41.402Z</time></trkpt><trkpt lat="40.8725467" lon="14.302085"><ele>19.0</ele><time>2026-05-04T16:10:42.401Z</time></trkpt><trkpt lat="40.8725917" lon="14.3021433"><ele>19.0</ele><time>2026-05-04T16:10:43.402Z</time></trkpt><trkpt lat="40.8726383" lon="14.3022017"><ele>19.0</ele><time>2026-05-04T16:10:44.402Z</time></trkpt><trkpt lat="40.872685" lon="14.3022583"><ele>19.0</ele><time>2026-05-04T16:10:45.401Z</time></trkpt><trkpt lat="40.8727333" lon="14.3023167"><ele>19.0</ele><time>2026-05-04T16:10:46.401Z</time></trkpt><trkpt lat="40.8727833" lon="14.30238"><ele>19.0</ele><time>2026-05-04T16:10:47.402Z</time></trkpt><trkpt lat="40.8728367" lon="14.3024433"><ele>19.0</ele><time>2026-05-04T16:10:48.4Z</time></trkpt><trkpt lat="40.87289" lon="14.3025017"><ele>19.0</ele><time>2026-05-04T16:10:49.401Z</time></trkpt><trkpt lat="40.8729417" lon="14.3025633"><ele>19.0</ele><time>2026-05-04T16:10:50.401Z</time></trkpt><trkpt lat="40.8729933" lon="14.3026283"><ele>19.0</ele><time>2026-05-04T16:10:51.4Z</time></trkpt><trkpt lat="40.8730467" lon="14.3026983"><ele>19.0</ele><time>2026-05-04T16:10:52.402Z</time></trkpt><trkpt lat="40.8731033" lon="14.3027633"><ele>19.0</ele><time>2026-05-04T16:10:53.401Z</time></trkpt><trkpt lat="40.8731533" lon="14.3028317"><ele>19.0</ele><time>2026-05-04T16:10:54.401Z</time></trkpt><trkpt lat="40.8732067" lon="14.3028983"><ele>19.0</ele><time>2026-05-04T16:10:55.402Z</time></trkpt><trkpt lat="40.8732567" lon="14.30297"><ele>19.0</ele><time>2026-05-04T16:10:56.402Z</time></trkpt><trkpt lat="40.873305" lon="14.3030367"><ele>19.0</ele><time>2026-05-04T16:10:57.401Z</time></trkpt><trkpt lat="40.8733567" lon="14.3030983"><ele>19.0</ele><time>2026-05-04T16:10:58.403Z</time></trkpt><trkpt lat="40.8734083" lon="14.3031617"><ele>19.0</ele><time>2026-05-04T16:10:59.402Z</time></trkpt><trkpt lat="40.873455" lon="14.3032267"><ele>18.857142857142858</ele><time>2026-05-04T16:11:00.402Z</time></trkpt><trkpt lat="40.8735067" lon="14.303285"><ele>18.714285714285715</ele><time>2026-05-04T16:11:01.402Z</time></trkpt><trkpt lat="40.8735583" lon="14.3033483"><ele>18.571428571428573</ele><time>2026-05-04T16:11:02.402Z</time></trkpt><trkpt lat="40.87361" lon="14.30341"><ele>18.42857142857143</ele><time>2026-05-04T16:11:03.402Z</time></trkpt><trkpt lat="40.8736583" lon="14.3034733"><ele>18.285714285714285</ele><time>2026-05-04T16:11:04.401Z</time></trkpt><trkpt lat="40.8737067" lon="14.3035333"><ele>18.142857142857146</ele><time>2026-05-04T16:11:05.401Z</time></trkpt><trkpt lat="40.8737533" lon="14.3035917"><ele>18.0</ele><time>2026-05-04T16:11:06.402Z</time></trkpt><trkpt lat="40.8738033" lon="14.3036467"><ele>18.0</ele><time>2026-05-04T16:11:07.402Z</time></trkpt><trkpt lat="40.8738917" lon="14.30375"><ele>18.0</ele><time>2026-05-04T16:11:09.401Z</time></trkpt><trkpt lat="40.873975" lon="14.30384"><ele>18.0</ele><time>2026-05-04T16:11:11.402Z</time></trkpt><trkpt lat="40.87405" lon="14.30393"><ele>18.0</ele><time>2026-05-04T16:11:13.402Z</time></trkpt><trkpt lat="40.8740983" lon="14.3039983"><ele>18.0</ele><time>2026-05-04T16:11:15.401Z</time></trkpt><trkpt lat="40.87416" lon="14.3040417"><ele>17.833333333333332</ele><time>2026-05-04T16:11:19.401Z</time></trkpt><trkpt lat="40.8742283" lon="14.3040267"><ele>17.666666666666668</ele><time>2026-05-04T16:11:22.402Z</time></trkpt><trkpt lat="40.8743167" lon="14.3039833"><ele>17.5</ele><time>2026-05-04T16:11:25.402Z</time></trkpt><trkpt lat="40.8743717" lon="14.3039233"><ele>17.333333333333336</ele><time>2026-05-04T16:11:27.401Z</time></trkpt><trkpt lat="40.8744317" lon="14.3038467"><ele>17.166666666666668</ele><time>2026-05-04T16:11:29.401Z</time></trkpt><trkpt lat="40.874495" lon="14.30376"><ele>17.0</ele><time>2026-05-04T16:11:31.402Z</time></trkpt><trkpt lat="40.8745683" lon="14.3036683"><ele>17.666666666666668</ele><time>2026-05-04T16:11:33.401Z</time></trkpt><trkpt lat="40.8746417" lon="14.30359"><ele>18.333333333333336</ele><time>2026-05-04T16:11:35.402Z</time></trkpt><trkpt lat="40.8747083" lon="14.303515"><ele>19.0</ele><time>2026-05-04T16:11:37.402Z</time></trkpt><trkpt lat="40.8747567" lon="14.30343"><ele>19.666666666666668</ele><time>2026-05-04T16:11:39.402Z</time></trkpt><trkpt lat="40.8748117" lon="14.3033617"><ele>20.333333333333332</ele><time>2026-05-04T16:11:41.402Z</time></trkpt><trkpt lat="40.8748767" lon="14.3032917"><ele>21.0</ele><time>2026-05-04T16:11:45.401Z</time></trkpt><trkpt lat="40.8749417" lon="14.3032233"><ele>21.0</ele><time>2026-05-04T16:11:48.402Z</time></trkpt><trkpt lat="40.87501" lon="14.3031733"><ele>21.0</ele><time>2026-05-04T16:11:50.401Z</time></trkpt><trkpt lat="40.8750833" lon="14.3031267"><ele>21.0</ele><time>2026-05-04T16:11:52.402Z</time></trkpt><trkpt lat="40.8751533" lon="14.3030517"><ele>21.0</ele><time>2026-05-04T16:11:54.402Z</time></trkpt><trkpt lat="40.8752333" lon="14.3029967"><ele>21.0</ele><time>2026-05-04T16:11:56.402Z</time></trkpt><trkpt lat="40.8753133" lon="14.3029367"><ele>21.0</ele><time>2026-05-04T16:11:58.402Z</time></trkpt><trkpt lat="40.8753767" lon="14.3028767"><ele>21.333333333333332</ele><time>2026-05-04T16:12:00.402Z</time></trkpt><trkpt lat="40.87544" lon="14.3028267"><ele>21.666666666666668</ele><time>2026-05-04T16:12:05.401Z</time></trkpt><trkpt lat="40.87551" lon="14.3027733"><ele>22.0</ele><time>2026-05-04T16:12:08.401Z</time></trkpt><trkpt lat="40.8755767" lon="14.3027317"><ele>22.333333333333336</ele><time>2026-05-04T16:12:10.402Z</time></trkpt><trkpt lat="40.8756467" lon="14.30268"><ele>22.666666666666668</ele><time>2026-05-04T16:12:12.401Z</time></trkpt><trkpt lat="40.8757117" lon="14.3026283"><ele>23.0</ele><time>2026-05-04T16:12:14.402Z</time></trkpt><trkpt lat="40.8757767" lon="14.3025667"><ele>23.0</ele><time>2026-05-04T16:12:16.402Z</time></trkpt><trkpt lat="40.8758283" lon="14.3025133"><ele>23.0</ele><time>2026-05-04T16:12:18.402Z</time></trkpt><trkpt lat="40.8758917" lon="14.302455"><ele>23.0</ele><time>2026-05-04T16:12:21.402Z</time></trkpt><trkpt lat="40.87597" lon="14.302425"><ele>23.0</ele><time>2026-05-04T16:12:24.402Z</time></trkpt><trkpt lat="40.8760517" lon="14.3023767"><ele>23.0</ele><time>2026-05-04T16:12:27.402Z</time></trkpt><trkpt lat="40.8761333" lon="14.302195"><ele>24.0</ele><time>2026-05-04T16:12:29.401Z</time></trkpt><trkpt lat="40.87619" lon="14.3021517"><ele>25.0</ele><time>2026-05-04T16:12:30.402Z</time></trkpt><trkpt lat="40.876235" lon="14.3020683"><ele>25.999999999999996</ele><time>2026-05-04T16:12:31.402Z</time></trkpt><trkpt lat="40.8763483" lon="14.30202"><ele>27.0</ele><time>2026-05-04T16:12:33.401Z</time></trkpt><trkpt lat="40.8764667" lon="14.3020583"><ele>28.0</ele><time>2026-05-04T16:12:35.402Z</time></trkpt><trkpt lat="40.8765433" lon="14.3021283"><ele>28.000000000000004</ele><time>2026-05-04T16:12:37.402Z</time></trkpt><trkpt lat="40.87659" lon="14.3022067"><ele>28.0</ele><time>2026-05-04T16:12:39.402Z</time></trkpt><trkpt lat="40.8766367" lon="14.3022983"><ele>28.0</ele><time>2026-05-04T16:12:41.402Z</time></trkpt><trkpt lat="40.876675" lon="14.302385"><ele>28.0</ele><time>2026-05-04T16:12:43.402Z</time></trkpt><trkpt lat="40.8767233" lon="14.3024933"><ele>28.000000000000004</ele><time>2026-05-04T16:12:46.402Z</time></trkpt><trkpt lat="40.8767617" lon="14.30257"><ele>28.0</ele><time>2026-05-04T16:12:48.402Z</time></trkpt><trkpt lat="40.8767933" lon="14.3026467"><ele>28.000000000000004</ele><time>2026-05-04T16:12:50.401Z</time></trkpt><trkpt lat="40.8768283" lon="14.3027217"><ele>28.0</ele><time>2026-05-04T16:12:52.402Z</time></trkpt><trkpt lat="40.87687" lon="14.3028067"><ele>28.0</ele><time>2026-05-04T16:12:54.401Z</time></trkpt><trkpt lat="40.8769133" lon="14.302895"><ele>28.0</ele><time>2026-05-04T16:12:56.401Z</time></trkpt><trkpt lat="40.8769583" lon="14.302985"><ele>28.000000000000004</ele><time>2026-05-04T16:12:58.402Z</time></trkpt><trkpt lat="40.8769967" lon="14.3030683"><ele>28.0</ele><time>2026-05-04T16:13:00.401Z</time></trkpt><trkpt lat="40.877035" lon="14.30315"><ele>28.000000000000004</ele><time>2026-05-04T16:13:02.402Z</time></trkpt><trkpt lat="40.8770767" lon="14.3032283"><ele>28.0</ele><time>2026-05-04T16:13:04.402Z</time></trkpt><trkpt lat="40.877115" lon="14.30332"><ele>28.0</ele><time>2026-05-04T16:13:06.402Z</time></trkpt><trkpt lat="40.87716" lon="14.3034083"><ele>28.0</ele><time>2026-05-04T16:13:08.404Z</time></trkpt><trkpt lat="40.8772067" lon="14.3034917"><ele>28.000000000000004</ele><time>2026-05-04T16:13:10.402Z</time></trkpt><trkpt lat="40.877265" lon="14.3035567"><ele>28.0</ele><time>2026-05-04T16:13:12.401Z</time></trkpt><trkpt lat="40.877335" lon="14.303615"><ele>28.0</ele><time>2026-05-04T16:13:14.403Z</time></trkpt><trkpt lat="40.8774067" lon="14.303675"><ele>27.999999999999996</ele><time>2026-05-04T16:13:16.403Z</time></trkpt><trkpt lat="40.8774883" lon="14.3037333"><ele>27.999999999999996</ele><time>2026-05-04T16:13:18.402Z</time></trkpt><trkpt lat="40.8775717" lon="14.30379"><ele>28.0</ele><time>2026-05-04T16:13:20.401Z</time></trkpt><trkpt lat="40.8776583" lon="14.30384"><ele>28.0</ele><time>2026-05-04T16:13:22.401Z</time></trkpt><trkpt lat="40.8777533" lon="14.303895"><ele>28.2</ele><time>2026-05-04T16:13:24.402Z</time></trkpt><trkpt lat="40.87785" lon="14.303955"><ele>28.4</ele><time>2026-05-04T16:13:26.401Z</time></trkpt><trkpt lat="40.877935" lon="14.30401"><ele>28.599999999999998</ele><time>2026-05-04T16:13:28.401Z</time></trkpt><trkpt lat="40.878025" lon="14.304065"><ele>28.799999999999997</ele><time>2026-05-04T16:13:30.401Z</time></trkpt><trkpt lat="40.8781183" lon="14.3041183"><ele>29.0</ele><time>2026-05-04T16:13:32.402Z</time></trkpt><trkpt lat="40.87821" lon="14.3041767"><ele>29.0</ele><time>2026-05-04T16:13:34.401Z</time></trkpt><trkpt lat="40.878305" lon="14.3042383"><ele>29.0</ele><time>2026-05-04T16:13:36.402Z</time></trkpt><trkpt lat="40.8784" lon="14.304305"><ele>29.0</ele><time>2026-05-04T16:13:38.401Z</time></trkpt><trkpt lat="40.8785" lon="14.3043833"><ele>29.0</ele><time>2026-05-04T16:13:40.402Z</time></trkpt><trkpt lat="40.8786" lon="14.30448"><ele>28.75</ele><time>2026-05-04T16:13:42.401Z</time></trkpt><trkpt lat="40.87869" lon="14.3045883"><ele>28.5</ele><time>2026-05-04T16:13:44.402Z</time></trkpt><trkpt lat="40.8787767" lon="14.3047017"><ele>28.25</ele><time>2026-05-04T16:13:46.402Z</time></trkpt><trkpt lat="40.878865" lon="14.3048133"><ele>28.0</ele><time>2026-05-04T16:13:48.402Z</time></trkpt><trkpt lat="40.8789517" lon="14.3049167"><ele>28.0</ele><time>2026-05-04T16:13:50.401Z</time></trkpt><trkpt lat="40.8790333" lon="14.3050283"><ele>28.0</ele><time>2026-05-04T16:13:52.402Z</time></trkpt><trkpt lat="40.8791183" lon="14.3051383"><ele>28.0</ele><time>2026-05-04T16:13:54.402Z</time></trkpt><trkpt lat="40.8792033" lon="14.305255"><ele>28.0</ele><time>2026-05-04T16:13:56.402Z</time></trkpt><trkpt lat="40.8792817" lon="14.3053583"><ele>28.4</ele><time>2026-05-04T16:13:58.403Z</time></trkpt><trkpt lat="40.87936" lon="14.305455"><ele>28.799999999999997</ele><time>2026-05-04T16:14:00.403Z</time></trkpt><trkpt lat="40.8794283" lon="14.3055617"><ele>29.2</ele><time>2026-05-04T16:14:02.402Z</time></trkpt><trkpt lat="40.87948" lon="14.305675"><ele>29.6</ele><time>2026-05-04T16:14:04.404Z</time></trkpt><trkpt lat="40.8795033" lon="14.3058017"><ele>30.0</ele><time>2026-05-04T16:14:06.403Z</time></trkpt><trkpt lat="40.879515" lon="14.3059517"><ele>30.0</ele><time>2026-05-04T16:14:08.405Z</time></trkpt><trkpt lat="40.8795417" lon="14.30611"><ele>30.0</ele><time>2026-05-04T16:14:10.401Z</time></trkpt><trkpt lat="40.8795583" lon="14.3061967"><ele>30.0</ele><time>2026-05-04T16:14:11.403Z</time></trkpt><trkpt lat="40.8796" lon="14.306345"><ele>30.0</ele><time>2026-05-04T16:14:13.401Z</time></trkpt><trkpt lat="40.8796233" lon="14.3064733"><ele>30.0</ele><time>2026-05-04T16:14:15.402Z</time></trkpt><trkpt lat="40.8796033" lon="14.306565"><ele>29.571428571428573</ele><time>2026-05-04T16:14:18.403Z</time></trkpt><trkpt lat="40.8796083" lon="14.3066667"><ele>29.142857142857142</ele><time>2026-05-04T16:14:22.402Z</time></trkpt><trkpt lat="40.8796483" lon="14.3067383"><ele>28.714285714285715</ele><time>2026-05-04T16:14:24.403Z</time></trkpt><trkpt lat="40.87969" lon="14.306825"><ele>28.285714285714285</ele><time>2026-05-04T16:14:27.402Z</time></trkpt><trkpt lat="40.8797533" lon="14.30687"><ele>27.857142857142854</ele><time>2026-05-04T16:14:30.402Z</time></trkpt><trkpt lat="40.87982" lon="14.30684"><ele>27.428571428571427</ele><time>2026-05-04T16:14:33.403Z</time></trkpt><trkpt lat="40.879885" lon="14.3067817"><ele>27.0</ele><time>2026-05-04T16:14:36.401Z</time></trkpt><trkpt lat="40.8799383" lon="14.3067317"><ele>27.0</ele><time>2026-05-04T16:14:38.403Z</time></trkpt><trkpt lat="40.879995" lon="14.3066833"><ele>27.0</ele><time>2026-05-04T16:14:40.403Z</time></trkpt><trkpt lat="40.880055" lon="14.30663"><ele>27.0</ele><time>2026-05-04T16:14:42.403Z</time></trkpt><trkpt lat="40.8801183" lon="14.306585"><ele>27.0</ele><time>2026-05-04T16:14:44.403Z</time></trkpt><trkpt lat="40.8801845" lon="14.3065317"><ele>27.0</ele><time>2026-05-04T16:14:46.471Z</time></trkpt><trkpt lat="40.8802527" lon="14.3065197"><ele>27.0</ele><time>2026-05-04T16:14:48.388Z</time></trkpt><trkpt lat="40.8803163" lon="14.306501"><ele>27.0</ele><time>2026-05-04T16:14:50.327Z</time></trkpt><trkpt lat="40.8804055" lon="14.3064633"><ele>28.0</ele><time>2026-05-04T16:14:53.228Z</time></trkpt><trkpt lat="40.8804711" lon="14.3064558"><ele>29.0</ele><time>2026-05-04T16:14:55.148Z</time></trkpt><trkpt lat="40.8805365" lon="14.3064347"><ele>30.0</ele><time>2026-05-04T16:14:57.005Z</time></trkpt><trkpt lat="40.8806137" lon="14.306421"><ele>31.0</ele><time>2026-05-04T16:14:59.248Z</time></trkpt><trkpt lat="40.8806744" lon="14.3063589"><ele>32.0</ele><time>2026-05-04T16:15:01.471Z</time></trkpt><trkpt lat="40.8807194" lon="14.3062827"><ele>33.0</ele><time>2026-05-04T16:15:03.456Z</time></trkpt><trkpt lat="40.8807732" lon="14.3063826"><ele>33.0</ele><time>2026-05-04T16:15:04.467Z</time></trkpt><trkpt lat="40.880839" lon="14.3064022"><ele>33.0</ele><time>2026-05-04T16:15:05.478Z</time></trkpt><trkpt lat="40.8809283" lon="14.30642"><ele>33.0</ele><time>2026-05-04T16:15:07.402Z</time></trkpt><trkpt lat="40.8809983" lon="14.306445"><ele>33.0</ele><time>2026-05-04T16:15:09.403Z</time></trkpt><trkpt lat="40.8810633" lon="14.3064717"><ele>33.0</ele><time>2026-05-04T16:15:11.403Z</time></trkpt><trkpt lat="40.881125" lon="14.306505"><ele>33.0</ele><time>2026-05-04T16:15:13.403Z</time></trkpt><trkpt lat="40.881185" lon="14.306535"><ele>33.0</ele><time>2026-05-04T16:15:15.402Z</time></trkpt><trkpt lat="40.8812683" lon="14.306575"><ele>34.166666666666664</ele><time>2026-05-04T16:15:18.402Z</time></trkpt><trkpt lat="40.8813467" lon="14.306625"><ele>35.333333333333336</ele><time>2026-05-04T16:15:21.403Z</time></trkpt><trkpt lat="40.8814267" lon="14.3066667"><ele>36.5</ele><time>2026-05-04T16:15:24.404Z</time></trkpt><trkpt lat="40.8815" lon="14.3067317"><ele>37.66666666666667</ele><time>2026-05-04T16:15:27.404Z</time></trkpt><trkpt lat="40.8815733" lon="14.306805"><ele>38.833333333333336</ele><time>2026-05-04T16:15:30.402Z</time></trkpt><trkpt lat="40.881645" lon="14.30688"><ele>40.0</ele><time>2026-05-04T16:15:33.403Z</time></trkpt><trkpt lat="40.881715" lon="14.30696"><ele>40.5</ele><time>2026-05-04T16:15:36.404Z</time></trkpt><trkpt lat="40.8817883" lon="14.3070283"><ele>41.0</ele><time>2026-05-04T16:15:39.405Z</time></trkpt><trkpt lat="40.8818567" lon="14.3070917"><ele>41.5</ele><time>2026-05-04T16:15:42.402Z</time></trkpt><trkpt lat="40.8819283" lon="14.3071667"><ele>42.0</ele><time>2026-05-04T16:15:45.402Z</time></trkpt><trkpt lat="40.8820033" lon="14.3072417"><ele>42.5</ele><time>2026-05-04T16:15:48.403Z</time></trkpt><trkpt lat="40.882075" lon="14.3073033"><ele>43.0</ele><time>2026-05-04T16:15:51.403Z</time></trkpt><trkpt lat="40.8821433" lon="14.3073767"><ele>43.00000000000001</ele><time>2026-05-04T16:15:54.403Z</time></trkpt><trkpt lat="40.882195" lon="14.3074267"><ele>43.0</ele><time>2026-05-04T16:15:56.402Z</time></trkpt><trkpt lat="40.8822483" lon="14.3074733"><ele>43.0</ele><time>2026-05-04T16:15:58.404Z</time></trkpt><trkpt lat="40.882305" lon="14.3075333"><ele>43.0</ele><time>2026-05-04T16:16:00.403Z</time></trkpt><trkpt lat="40.8823567" lon="14.3075933"><ele>43.0</ele><time>2026-05-04T16:16:02.406Z</time></trkpt><trkpt lat="40.88241" lon="14.307655"><ele>43.00000000000001</ele><time>2026-05-04T16:16:04.404Z</time></trkpt><trkpt lat="40.8824717" lon="14.3077133"><ele>43.0</ele><time>2026-05-04T16:16:06.403Z</time></trkpt><trkpt lat="40.8825333" lon="14.3077783"><ele>43.16666666666667</ele><time>2026-05-04T16:16:08.402Z</time></trkpt><trkpt lat="40.8826" lon="14.3078517"><ele>43.333333333333336</ele><time>2026-05-04T16:16:10.404Z</time></trkpt><trkpt lat="40.8826683" lon="14.3079217"><ele>43.5</ele><time>2026-05-04T16:16:12.403Z</time></trkpt><trkpt lat="40.8827317" lon="14.307985"><ele>43.666666666666664</ele><time>2026-05-04T16:16:14.401Z</time></trkpt><trkpt lat="40.8827917" lon="14.3080467"><ele>43.83333333333333</ele><time>2026-05-04T16:16:16.402Z</time></trkpt><trkpt lat="40.8828467" lon="14.3081017"><ele>44.0</ele><time>2026-05-04T16:16:18.401Z</time></trkpt><trkpt lat="40.88291" lon="14.3081717"><ele>44.0</ele><time>2026-05-04T16:16:20.403Z</time></trkpt><trkpt lat="40.8829767" lon="14.3082367"><ele>44.0</ele><time>2026-05-04T16:16:22.403Z</time></trkpt><trkpt lat="40.8830433" lon="14.3083017"><ele>44.0</ele><time>2026-05-04T16:16:24.403Z</time></trkpt><trkpt lat="40.8831133" lon="14.308355"><ele>44.0</ele><time>2026-05-04T16:16:26.403Z</time></trkpt><trkpt lat="40.8831783" lon="14.308405"><ele>44.0</ele><time>2026-05-04T16:16:28.403Z</time></trkpt><trkpt lat="40.88322" lon="14.3084683"><ele>44.0</ele><time>2026-05-04T16:16:30.403Z</time></trkpt><trkpt lat="40.8832933" lon="14.308545"><ele>44.0</ele><time>2026-05-04T16:16:33.402Z</time></trkpt><trkpt lat="40.8833683" lon="14.3085617"><ele>44.0</ele><time>2026-05-04T16:16:36.402Z</time></trkpt><trkpt lat="40.8834317" lon="14.308505"><ele>44.0</ele><time>2026-05-04T16:16:39.402Z</time></trkpt><trkpt lat="40.8834967" lon="14.30845"><ele>44.0</ele><time>2026-05-04T16:16:41.402Z</time></trkpt><trkpt lat="40.883575" lon="14.3083983"><ele>44.0</ele><time>2026-05-04T16:16:43.403Z</time></trkpt><trkpt lat="40.8836583" lon="14.3083183"><ele>44.0</ele><time>2026-05-04T16:16:45.406Z</time></trkpt><trkpt lat="40.8837517" lon="14.308225"><ele>45.0</ele><time>2026-05-04T16:16:47.404Z</time></trkpt><trkpt lat="40.883845" lon="14.308125"><ele>46.0</ele><time>2026-05-04T16:16:49.404Z</time></trkpt><trkpt lat="40.8839417" lon="14.3080217"><ele>47.0</ele><time>2026-05-04T16:16:51.402Z</time></trkpt><trkpt lat="40.8840367" lon="14.3079283"><ele>48.0</ele><time>2026-05-04T16:16:53.403Z</time></trkpt><trkpt lat="40.8841283" lon="14.3078317"><ele>48.0</ele><time>2026-05-04T16:16:55.403Z</time></trkpt><trkpt lat="40.8842117" lon="14.3077333"><ele>48.0</ele><time>2026-05-04T16:16:57.402Z</time></trkpt><trkpt lat="40.884295" lon="14.3076433"><ele>48.0</ele><time>2026-05-04T16:16:59.407Z</time></trkpt><trkpt lat="40.8843817" lon="14.30755"><ele>48.0</ele><time>2026-05-04T16:17:01.406Z</time></trkpt><trkpt lat="40.88446" lon="14.3074467"><ele>48.0</ele><time>2026-05-04T16:17:03.404Z</time></trkpt><trkpt lat="40.884535" lon="14.3073383"><ele>49.4</ele><time>2026-05-04T16:17:05.406Z</time></trkpt><trkpt lat="40.8846067" lon="14.307225"><ele>50.8</ele><time>2026-05-04T16:17:07.404Z</time></trkpt><trkpt lat="40.8846833" lon="14.3071167"><ele>52.2</ele><time>2026-05-04T16:17:09.402Z</time></trkpt><trkpt lat="40.8847483" lon="14.307005"><ele>53.6</ele><time>2026-05-04T16:17:11.403Z</time></trkpt><trkpt lat="40.884815" lon="14.3068983"><ele>55.0</ele><time>2026-05-04T16:17:13.403Z</time></trkpt><trkpt lat="40.8848717" lon="14.306795"><ele>55.0</ele><time>2026-05-04T16:17:15.403Z</time></trkpt><trkpt lat="40.8849317" lon="14.3066867"><ele>55.0</ele><time>2026-05-04T16:17:17.403Z</time></trkpt><trkpt lat="40.8849867" lon="14.3065783"><ele>55.0</ele><time>2026-05-04T16:17:19.403Z</time></trkpt><trkpt lat="40.8850483" lon="14.306475"><ele>55.0</ele><time>2026-05-04T16:17:21.402Z</time></trkpt><trkpt lat="40.8851083" lon="14.3063817"><ele>55.0</ele><time>2026-05-04T16:17:23.403Z</time></trkpt><trkpt lat="40.88517" lon="14.30629"><ele>55.0</ele><time>2026-05-04T16:17:25.404Z</time></trkpt><trkpt lat="40.885245" lon="14.306205"><ele>55.0</ele><time>2026-05-04T16:17:27.403Z</time></trkpt><trkpt lat="40.8853167" lon="14.30613"><ele>55.0</ele><time>2026-05-04T16:17:29.404Z</time></trkpt><trkpt lat="40.8853833" lon="14.3060467"><ele>55.0</ele><time>2026-05-04T16:17:31.404Z</time></trkpt><trkpt lat="40.8854533" lon="14.305975"><ele>55.0</ele><time>2026-05-04T16:17:33.403Z</time></trkpt><trkpt lat="40.8855317" lon="14.3059167"><ele>54.99999999999999</ele><time>2026-05-04T16:17:35.406Z</time></trkpt><trkpt lat="40.8856067" lon="14.30586"><ele>55.0</ele><time>2026-05-04T16:17:37.403Z</time></trkpt><trkpt lat="40.8856817" lon="14.3058"><ele>55.0</ele><time>2026-05-04T16:17:39.405Z</time></trkpt><trkpt lat="40.8857583" lon="14.3057383"><ele>55.0</ele><time>2026-05-04T16:17:41.402Z</time></trkpt><trkpt lat="40.885835" lon="14.3056767"><ele>54.99999999999999</ele><time>2026-05-04T16:17:43.404Z</time></trkpt><trkpt lat="40.88591" lon="14.30561"><ele>55.0</ele><time>2026-05-04T16:17:45.403Z</time></trkpt><trkpt lat="40.8859833" lon="14.3055483"><ele>56.0</ele><time>2026-05-04T16:17:47.402Z</time></trkpt><trkpt lat="40.8860583" lon="14.3054867"><ele>57.0</ele><time>2026-05-04T16:17:49.403Z</time></trkpt><trkpt lat="40.8861383" lon="14.305435"><ele>58.0</ele><time>2026-05-04T16:17:51.404Z</time></trkpt><trkpt lat="40.8862217" lon="14.3053833"><ele>59.0</ele><time>2026-05-04T16:17:53.404Z</time></trkpt><trkpt lat="40.8863083" lon="14.3053433"><ele>60.0</ele><time>2026-05-04T16:17:55.402Z</time></trkpt><trkpt lat="40.886395" lon="14.3053"><ele>60.0</ele><time>2026-05-04T16:17:57.403Z</time></trkpt><trkpt lat="40.8864833" lon="14.30527"><ele>60.0</ele><time>2026-05-04T16:17:59.405Z</time></trkpt><trkpt lat="40.8865717" lon="14.3052517"><ele>60.0</ele><time>2026-05-04T16:18:01.405Z</time></trkpt><trkpt lat="40.8866583" lon="14.3052283"><ele>60.0</ele><time>2026-05-04T16:18:03.406Z</time></trkpt><trkpt lat="40.8867483" lon="14.3052117"><ele>60.0</ele><time>2026-05-04T16:18:05.401Z</time></trkpt><trkpt lat="40.88684" lon="14.3052017"><ele>60.4</ele><time>2026-05-04T16:18:07.403Z</time></trkpt><trkpt lat="40.8869333" lon="14.3051967"><ele>60.8</ele><time>2026-05-04T16:18:09.404Z</time></trkpt><trkpt lat="40.8870217" lon="14.305195"><ele>61.2</ele><time>2026-05-04T16:18:11.404Z</time></trkpt><trkpt lat="40.8871167" lon="14.305195"><ele>61.6</ele><time>2026-05-04T16:18:13.403Z</time></trkpt><trkpt lat="40.887215" lon="14.3052"><ele>62.0</ele><time>2026-05-04T16:18:15.404Z</time></trkpt><trkpt lat="40.8873133" lon="14.3052"><ele>62.0</ele><time>2026-05-04T16:18:17.403Z</time></trkpt><trkpt lat="40.8874117" lon="14.305205"><ele>62.0</ele><time>2026-05-04T16:18:19.404Z</time></trkpt><trkpt lat="40.8875083" lon="14.3052017"><ele>62.0</ele><time>2026-05-04T16:18:21.402Z</time></trkpt><trkpt lat="40.8876033" lon="14.3051983"><ele>62.0</ele><time>2026-05-04T16:18:23.404Z</time></trkpt><trkpt lat="40.8876983" lon="14.3051933"><ele>62.0</ele><time>2026-05-04T16:18:25.404Z</time></trkpt><trkpt lat="40.8877983" lon="14.3051983"><ele>63.0</ele><time>2026-05-04T16:18:27.406Z</time></trkpt><trkpt lat="40.8879" lon="14.3052117"><ele>64.0</ele><time>2026-05-04T16:18:29.402Z</time></trkpt><trkpt lat="40.8879983" lon="14.3052183"><ele>65.0</ele><time>2026-05-04T16:18:31.401Z</time></trkpt><trkpt lat="40.8880933" lon="14.305225"><ele>66.0</ele><time>2026-05-04T16:18:33.405Z</time></trkpt><trkpt lat="40.888195" lon="14.3052267"><ele>67.0</ele><time>2026-05-04T16:18:35.403Z</time></trkpt><trkpt lat="40.8883" lon="14.30523"><ele>67.0</ele><time>2026-05-04T16:18:37.405Z</time></trkpt><trkpt lat="40.88841" lon="14.3052333"><ele>67.0</ele><time>2026-05-04T16:18:39.405Z</time></trkpt><trkpt lat="40.8885283" lon="14.3052333"><ele>67.0</ele><time>2026-05-04T16:18:41.404Z</time></trkpt><trkpt lat="40.8886517" lon="14.3052283"><ele>67.0</ele><time>2026-05-04T16:18:43.403Z</time></trkpt><trkpt lat="40.888715" lon="14.3052267"><ele>67.0</ele><time>2026-05-04T16:18:44.404Z</time></trkpt><trkpt lat="40.8888383" lon="14.3052217"><ele>66.85714285714286</ele><time>2026-05-04T16:18:46.405Z</time></trkpt><trkpt lat="40.8889033" lon="14.305215"><ele>66.71428571428571</ele><time>2026-05-04T16:18:47.403Z</time></trkpt><trkpt lat="40.88897" lon="14.305215"><ele>66.57142857142857</ele><time>2026-05-04T16:18:48.402Z</time></trkpt><trkpt lat="40.8890383" lon="14.3052133"><ele>66.42857142857143</ele><time>2026-05-04T16:18:49.404Z</time></trkpt><trkpt lat="40.88911" lon="14.3052117"><ele>66.28571428571429</ele><time>2026-05-04T16:18:50.402Z</time></trkpt><trkpt lat="40.8891817" lon="14.3052133"><ele>66.14285714285714</ele><time>2026-05-04T16:18:51.403Z</time></trkpt><trkpt lat="40.8892533" lon="14.3052167"><ele>66.0</ele><time>2026-05-04T16:18:52.404Z</time></trkpt><trkpt lat="40.88933" lon="14.3052183"><ele>65.5</ele><time>2026-05-04T16:18:53.403Z</time></trkpt><trkpt lat="40.8894117" lon="14.3052283"><ele>65.0</ele><time>2026-05-04T16:18:54.404Z</time></trkpt><trkpt lat="40.889495" lon="14.3052333"><ele>64.5</ele><time>2026-05-04T16:18:55.402Z</time></trkpt><trkpt lat="40.8895783" lon="14.305235"><ele>64.0</ele><time>2026-05-04T16:18:56.404Z</time></trkpt><trkpt lat="40.889665" lon="14.305235"><ele>63.5</ele><time>2026-05-04T16:18:57.405Z</time></trkpt><trkpt lat="40.8897517" lon="14.305235"><ele>63.0</ele><time>2026-05-04T16:18:58.402Z</time></trkpt><trkpt lat="40.8898367" lon="14.305235"><ele>63.0</ele><time>2026-05-04T16:18:59.403Z</time></trkpt><trkpt lat="40.889925" lon="14.305235"><ele>63.0</ele><time>2026-05-04T16:19:00.402Z</time></trkpt><trkpt lat="40.8900133" lon="14.3052317"><ele>63.0</ele><time>2026-05-04T16:19:01.405Z</time></trkpt><trkpt lat="40.8901017" lon="14.3052217"><ele>63.0</ele><time>2026-05-04T16:19:02.406Z</time></trkpt><trkpt lat="40.89019" lon="14.30521"><ele>63.0</ele><time>2026-05-04T16:19:03.401Z</time></trkpt><trkpt lat="40.8902767" lon="14.3051933"><ele>63.0</ele><time>2026-05-04T16:19:04.406Z</time></trkpt><trkpt lat="40.8903617" lon="14.30518"><ele>63.333333333333336</ele><time>2026-05-04T16:19:05.402Z</time></trkpt><trkpt lat="40.89045" lon="14.3051733"><ele>63.66666666666667</ele><time>2026-05-04T16:19:06.405Z</time></trkpt><trkpt lat="40.8905417" lon="14.305175"><ele>64.0</ele><time>2026-05-04T16:19:07.403Z</time></trkpt><trkpt lat="40.89063" lon="14.30518"><ele>64.33333333333334</ele><time>2026-05-04T16:19:08.405Z</time></trkpt><trkpt lat="40.89072" lon="14.3051917"><ele>64.66666666666667</ele><time>2026-05-04T16:19:09.404Z</time></trkpt><trkpt lat="40.8908083" lon="14.3052133"><ele>65.0</ele><time>2026-05-04T16:19:10.406Z</time></trkpt><trkpt lat="40.8908967" lon="14.30525"><ele>65.0</ele><time>2026-05-04T16:19:11.406Z</time></trkpt><trkpt lat="40.89098" lon="14.3052933"><ele>65.0</ele><time>2026-05-04T16:19:12.405Z</time></trkpt><trkpt lat="40.8910633" lon="14.3053417"><ele>65.0</ele><time>2026-05-04T16:19:13.402Z</time></trkpt><trkpt lat="40.8911483" lon="14.3053983"><ele>65.0</ele><time>2026-05-04T16:19:14.406Z</time></trkpt><trkpt lat="40.8912317" lon="14.3054583"><ele>65.0</ele><time>2026-05-04T16:19:15.402Z</time></trkpt><trkpt lat="40.8913167" lon="14.3055167"><ele>65.0</ele><time>2026-05-04T16:19:16.404Z</time></trkpt><trkpt lat="40.8913983" lon="14.3055767"><ele>65.0</ele><time>2026-05-04T16:19:17.404Z</time></trkpt><trkpt lat="40.8914783" lon="14.3056383"><ele>65.0</ele><time>2026-05-04T16:19:18.406Z</time></trkpt><trkpt lat="40.8915567" lon="14.3057017"><ele>65.0</ele><time>2026-05-04T16:19:19.402Z</time></trkpt><trkpt lat="40.8916367" lon="14.30576"><ele>65.0</ele><time>2026-05-04T16:19:20.402Z</time></trkpt><trkpt lat="40.891715" lon="14.3058183"><ele>64.6</ele><time>2026-05-04T16:19:21.405Z</time></trkpt><trkpt lat="40.8917933" lon="14.305875"><ele>64.2</ele><time>2026-05-04T16:19:22.401Z</time></trkpt><trkpt lat="40.891875" lon="14.3059317"><ele>63.8</ele><time>2026-05-04T16:19:23.402Z</time></trkpt><trkpt lat="40.8919583" lon="14.3059833"><ele>63.4</ele><time>2026-05-04T16:19:24.402Z</time></trkpt><trkpt lat="40.892045" lon="14.3060317"><ele>63.0</ele><time>2026-05-04T16:19:25.405Z</time></trkpt><trkpt lat="40.89213" lon="14.3060683"><ele>63.0</ele><time>2026-05-04T16:19:26.405Z</time></trkpt><trkpt lat="40.8922133" lon="14.3060933"><ele>63.0</ele><time>2026-05-04T16:19:27.403Z</time></trkpt><trkpt lat="40.8923" lon="14.30611"><ele>63.0</ele><time>2026-05-04T16:19:28.405Z</time></trkpt><trkpt lat="40.892385" lon="14.3061183"><ele>63.0</ele><time>2026-05-04T16:19:29.405Z</time></trkpt><trkpt lat="40.892465" lon="14.306115"><ele>63.0</ele><time>2026-05-04T16:19:30.402Z</time></trkpt><trkpt lat="40.8925433" lon="14.3061033"><ele>63.0</ele><time>2026-05-04T16:19:31.402Z</time></trkpt><trkpt lat="40.89262" lon="14.30608"><ele>63.5</ele><time>2026-05-04T16:19:32.403Z</time></trkpt><trkpt lat="40.892695" lon="14.3060467"><ele>64.0</ele><time>2026-05-04T16:19:33.406Z</time></trkpt><trkpt lat="40.8927667" lon="14.3060067"><ele>64.5</ele><time>2026-05-04T16:19:34.406Z</time></trkpt><trkpt lat="40.8928333" lon="14.30596"><ele>65.0</ele><time>2026-05-04T16:19:35.406Z</time></trkpt><trkpt lat="40.8928967" lon="14.30591"><ele>65.5</ele><time>2026-05-04T16:19:36.404Z</time></trkpt><trkpt lat="40.8929567" lon="14.3058567"><ele>66.0</ele><time>2026-05-04T16:19:37.401Z</time></trkpt><trkpt lat="40.8930167" lon="14.305805"><ele>66.0</ele><time>2026-05-04T16:19:38.408Z</time></trkpt><trkpt lat="40.8930717" lon="14.3057517"><ele>66.0</ele><time>2026-05-04T16:19:39.405Z</time></trkpt><trkpt lat="40.89313" lon="14.3056983"><ele>66.0</ele><time>2026-05-04T16:19:40.404Z</time></trkpt><trkpt lat="40.8931867" lon="14.30564"><ele>66.0</ele><time>2026-05-04T16:19:41.404Z</time></trkpt><trkpt lat="40.89324" lon="14.3055833"><ele>66.0</ele><time>2026-05-04T16:19:42.403Z</time></trkpt><trkpt lat="40.8932933" lon="14.3055267"><ele>66.0</ele><time>2026-05-04T16:19:43.404Z</time></trkpt><trkpt lat="40.893345" lon="14.3054733"><ele>66.0</ele><time>2026-05-04T16:19:44.403Z</time></trkpt><trkpt lat="40.8933967" lon="14.30542"><ele>66.14285714285714</ele><time>2026-05-04T16:19:45.402Z</time></trkpt><trkpt lat="40.8934417" lon="14.3053567"><ele>66.28571428571429</ele><time>2026-05-04T16:19:46.403Z</time></trkpt><trkpt lat="40.893485" lon="14.3052817"><ele>66.42857142857143</ele><time>2026-05-04T16:19:47.404Z</time></trkpt><trkpt lat="40.8935217" lon="14.305205"><ele>66.57142857142857</ele><time>2026-05-04T16:19:48.404Z</time></trkpt><trkpt lat="40.8935567" lon="14.3051267"><ele>66.71428571428571</ele><time>2026-05-04T16:19:49.404Z</time></trkpt><trkpt lat="40.8935867" lon="14.305045"><ele>66.85714285714286</ele><time>2026-05-04T16:19:50.404Z</time></trkpt><trkpt lat="40.89361" lon="14.30496"><ele>67.0</ele><time>2026-05-04T16:19:51.405Z</time></trkpt><trkpt lat="40.89363" lon="14.3048767"><ele>67.0</ele><time>2026-05-04T16:19:52.403Z</time></trkpt><trkpt lat="40.893645" lon="14.3047933"><ele>67.0</ele><time>2026-05-04T16:19:53.405Z</time></trkpt><trkpt lat="40.8936533" lon="14.3047067"><ele>67.0</ele><time>2026-05-04T16:19:54.404Z</time></trkpt><trkpt lat="40.8936617" lon="14.30462"><ele>67.0</ele><time>2026-05-04T16:19:55.403Z</time></trkpt><trkpt lat="40.8936633" lon="14.3045367"><ele>67.0</ele><time>2026-05-04T16:19:56.403Z</time></trkpt><trkpt lat="40.8936583" lon="14.30445"><ele>67.0</ele><time>2026-05-04T16:19:57.403Z</time></trkpt><trkpt lat="40.89365" lon="14.3043617"><ele>67.0</ele><time>2026-05-04T16:19:58.402Z</time></trkpt><trkpt lat="40.8936367" lon="14.3042733"><ele>66.85714285714286</ele><time>2026-05-04T16:19:59.404Z</time></trkpt><trkpt lat="40.89362" lon="14.3041833"><ele>66.71428571428571</ele><time>2026-05-04T16:20:00.403Z</time></trkpt><trkpt lat="40.8936033" lon="14.3040967"><ele>66.57142857142857</ele><time>2026-05-04T16:20:01.402Z</time></trkpt><trkpt lat="40.893585" lon="14.3040083"><ele>66.42857142857143</ele><time>2026-05-04T16:20:02.403Z</time></trkpt><trkpt lat="40.8935617" lon="14.3039217"><ele>66.28571428571429</ele><time>2026-05-04T16:20:03.403Z</time></trkpt><trkpt lat="40.8935383" lon="14.30384"><ele>66.14285714285714</ele><time>2026-05-04T16:20:04.404Z</time></trkpt><trkpt lat="40.893515" lon="14.3037617"><ele>66.0</ele><time>2026-05-04T16:20:05.402Z</time></trkpt><trkpt lat="40.8934917" lon="14.3036783"><ele>65.83333333333333</ele><time>2026-05-04T16:20:06.403Z</time></trkpt><trkpt lat="40.8934667" lon="14.3035967"><ele>65.66666666666667</ele><time>2026-05-04T16:20:07.403Z</time></trkpt><trkpt lat="40.8934433" lon="14.3035167"><ele>65.5</ele><time>2026-05-04T16:20:08.404Z</time></trkpt><trkpt lat="40.8934217" lon="14.303435"><ele>65.33333333333334</ele><time>2026-05-04T16:20:09.403Z</time></trkpt><trkpt lat="40.8934" lon="14.303355"><ele>65.16666666666667</ele><time>2026-05-04T16:20:10.404Z</time></trkpt><trkpt lat="40.89336" lon="14.3032017"><ele>65.0</ele><time>2026-05-04T16:20:12.404Z</time></trkpt><trkpt lat="40.8933183" lon="14.3030533"><ele>64.83333333333334</ele><time>2026-05-04T16:20:14.404Z</time></trkpt><trkpt lat="40.8932917" lon="14.3028867"><ele>64.66666666666667</ele><time>2026-05-04T16:20:16.402Z</time></trkpt><trkpt lat="40.89328" lon="14.3027967"><ele>64.5</ele><time>2026-05-04T16:20:17.404Z</time></trkpt><trkpt lat="40.8932667" lon="14.3027083"><ele>64.33333333333333</ele><time>2026-05-04T16:20:18.404Z</time></trkpt><trkpt lat="40.8932533" lon="14.30262"><ele>64.16666666666666</ele><time>2026-05-04T16:20:19.403Z</time></trkpt><trkpt lat="40.89324" lon="14.3025333"><ele>64.0</ele><time>2026-05-04T16:20:20.404Z</time></trkpt><trkpt lat="40.89323" lon="14.3024417"><ele>64.0</ele><time>2026-05-04T16:20:21.404Z</time></trkpt><trkpt lat="40.8932233" lon="14.302345"><ele>63.99999999999999</ele><time>2026-05-04T16:20:22.404Z</time></trkpt><trkpt lat="40.893225" lon="14.30225"><ele>64.0</ele><time>2026-05-04T16:20:23.404Z</time></trkpt><trkpt lat="40.8932333" lon="14.30216"><ele>64.0</ele><time>2026-05-04T16:20:24.402Z</time></trkpt><trkpt lat="40.8932467" lon="14.3020683"><ele>63.99999999999999</ele><time>2026-05-04T16:20:25.406Z</time></trkpt><trkpt lat="40.8932633" lon="14.3019783"><ele>64.0</ele><time>2026-05-04T16:20:26.401Z</time></trkpt><trkpt lat="40.8932867" lon="14.30189"><ele>64.0</ele><time>2026-05-04T16:20:27.403Z</time></trkpt><trkpt lat="40.893315" lon="14.3018017"><ele>64.42857142857143</ele><time>2026-05-04T16:20:28.403Z</time></trkpt><trkpt lat="40.8933483" lon="14.301715"><ele>64.85714285714285</ele><time>2026-05-04T16:20:29.403Z</time></trkpt><trkpt lat="40.89338" lon="14.3016317"><ele>65.28571428571428</ele><time>2026-05-04T16:20:30.403Z</time></trkpt><trkpt lat="40.893415" lon="14.30155"><ele>65.71428571428571</ele><time>2026-05-04T16:20:31.403Z</time></trkpt><trkpt lat="40.8934517" lon="14.3014633"><ele>66.14285714285714</ele><time>2026-05-04T16:20:32.403Z</time></trkpt><trkpt lat="40.8934867" lon="14.3013817"><ele>66.57142857142857</ele><time>2026-05-04T16:20:33.403Z</time></trkpt><trkpt lat="40.8935267" lon="14.3013033"><ele>67.0</ele><time>2026-05-04T16:20:34.403Z</time></trkpt><trkpt lat="40.8935667" lon="14.30123"><ele>67.28571428571429</ele><time>2026-05-04T16:20:35.404Z</time></trkpt><trkpt lat="40.8936083" lon="14.3011533"><ele>67.57142857142857</ele><time>2026-05-04T16:20:36.402Z</time></trkpt><trkpt lat="40.8936467" lon="14.301075"><ele>67.85714285714286</ele><time>2026-05-04T16:20:37.404Z</time></trkpt><trkpt lat="40.8936817" lon="14.3009967"><ele>68.14285714285714</ele><time>2026-05-04T16:20:38.402Z</time></trkpt><trkpt lat="40.893715" lon="14.3009183"><ele>68.42857142857143</ele><time>2026-05-04T16:20:39.401Z</time></trkpt><trkpt lat="40.89375" lon="14.30084"><ele>68.71428571428572</ele><time>2026-05-04T16:20:40.403Z</time></trkpt><trkpt lat="40.8937883" lon="14.300765"><ele>69.0</ele><time>2026-05-04T16:20:41.403Z</time></trkpt><trkpt lat="40.89383" lon="14.3006833"><ele>69.0</ele><time>2026-05-04T16:20:42.405Z</time></trkpt><trkpt lat="40.893865" lon="14.300605"><ele>69.0</ele><time>2026-05-04T16:20:43.404Z</time></trkpt><trkpt lat="40.8939" lon="14.300525"><ele>69.0</ele><time>2026-05-04T16:20:44.402Z</time></trkpt><trkpt lat="40.893935" lon="14.3004483"><ele>69.0</ele><time>2026-05-04T16:20:45.402Z</time></trkpt><trkpt lat="40.8939733" lon="14.300375"><ele>69.0</ele><time>2026-05-04T16:20:46.401Z</time></trkpt><trkpt lat="40.8940117" lon="14.3003017"><ele>69.0</ele><time>2026-05-04T16:20:47.402Z</time></trkpt><trkpt lat="40.8940517" lon="14.30023"><ele>69.0</ele><time>2026-05-04T16:20:48.402Z</time></trkpt><trkpt lat="40.8940933" lon="14.3001583"><ele>68.85714285714286</ele><time>2026-05-04T16:20:49.403Z</time></trkpt><trkpt lat="40.894135" lon="14.3000883"><ele>68.71428571428572</ele><time>2026-05-04T16:20:50.402Z</time></trkpt><trkpt lat="40.8941833" lon="14.3000167"><ele>68.57142857142857</ele><time>2026-05-04T16:20:51.402Z</time></trkpt><trkpt lat="40.8942317" lon="14.29995"><ele>68.42857142857143</ele><time>2026-05-04T16:20:52.403Z</time></trkpt><trkpt lat="40.89428" lon="14.2998817"><ele>68.28571428571428</ele><time>2026-05-04T16:20:53.402Z</time></trkpt><trkpt lat="40.89433" lon="14.299815"><ele>68.14285714285714</ele><time>2026-05-04T16:20:54.403Z</time></trkpt><trkpt lat="40.8943833" lon="14.29975"><ele>68.0</ele><time>2026-05-04T16:20:55.402Z</time></trkpt><trkpt lat="40.8944383" lon="14.2996883"><ele>68.28571428571428</ele><time>2026-05-04T16:20:56.403Z</time></trkpt><trkpt lat="40.89449" lon="14.2996233"><ele>68.57142857142857</ele><time>2026-05-04T16:20:57.402Z</time></trkpt><trkpt lat="40.894545" lon="14.29956"><ele>68.85714285714286</ele><time>2026-05-04T16:20:58.402Z</time></trkpt><trkpt lat="40.8945983" lon="14.2994933"><ele>69.14285714285714</ele><time>2026-05-04T16:20:59.402Z</time></trkpt><trkpt lat="40.8946533" lon="14.2994333"><ele>69.42857142857143</ele><time>2026-05-04T16:21:00.401Z</time></trkpt><trkpt lat="40.8947067" lon="14.2993783"><ele>69.71428571428571</ele><time>2026-05-04T16:21:01.403Z</time></trkpt><trkpt lat="40.8947617" lon="14.29932"><ele>70.0</ele><time>2026-05-04T16:21:02.401Z</time></trkpt><trkpt lat="40.8948167" lon="14.299265"><ele>70.0</ele><time>2026-05-04T16:21:03.402Z</time></trkpt><trkpt lat="40.8948733" lon="14.29921"><ele>70.0</ele><time>2026-05-04T16:21:04.404Z</time></trkpt><trkpt lat="40.8949333" lon="14.2991583"><ele>70.0</ele><time>2026-05-04T16:21:05.403Z</time></trkpt><trkpt lat="40.89499" lon="14.2990983"><ele>70.0</ele><time>2026-05-04T16:21:06.401Z</time></trkpt><trkpt lat="40.8950517" lon="14.2990417"><ele>70.0</ele><time>2026-05-04T16:21:07.402Z</time></trkpt><trkpt lat="40.8951133" lon="14.2989883"><ele>70.0</ele><time>2026-05-04T16:21:08.402Z</time></trkpt><trkpt lat="40.8951767" lon="14.2989383"><ele>70.0</ele><time>2026-05-04T16:21:09.403Z</time></trkpt><trkpt lat="40.8952367" lon="14.2988867"><ele>70.0</ele><time>2026-05-04T16:21:10.403Z</time></trkpt><trkpt lat="40.8952967" lon="14.2988333"><ele>70.0</ele><time>2026-05-04T16:21:11.403Z</time></trkpt><trkpt lat="40.8953583" lon="14.2987817"><ele>70.0</ele><time>2026-05-04T16:21:12.402Z</time></trkpt><trkpt lat="40.8954117" lon="14.298725"><ele>70.0</ele><time>2026-05-04T16:21:13.402Z</time></trkpt><trkpt lat="40.8954683" lon="14.2986717"><ele>70.0</ele><time>2026-05-04T16:21:14.402Z</time></trkpt><trkpt lat="40.8955233" lon="14.2986167"><ele>70.0</ele><time>2026-05-04T16:21:15.403Z</time></trkpt><trkpt lat="40.8955783" lon="14.2985583"><ele>70.0</ele><time>2026-05-04T16:21:16.402Z</time></trkpt><trkpt lat="40.895635" lon="14.2984983"><ele>70.0</ele><time>2026-05-04T16:21:17.404Z</time></trkpt><trkpt lat="40.8956917" lon="14.298445"><ele>70.0</ele><time>2026-05-04T16:21:18.406Z</time></trkpt><trkpt lat="40.8957483" lon="14.2983933"><ele>70.0</ele><time>2026-05-04T16:21:19.406Z</time></trkpt><trkpt lat="40.8958033" lon="14.298345"><ele>70.0</ele><time>2026-05-04T16:21:20.401Z</time></trkpt><trkpt lat="40.8958583" lon="14.2982967"><ele>70.0</ele><time>2026-05-04T16:21:21.403Z</time></trkpt><trkpt lat="40.8959167" lon="14.298255"><ele>70.0</ele><time>2026-05-04T16:21:22.403Z</time></trkpt><trkpt lat="40.89598" lon="14.2982183"><ele>70.0</ele><time>2026-05-04T16:21:23.403Z</time></trkpt><trkpt lat="40.8960467" lon="14.2981983"><ele>70.2</ele><time>2026-05-04T16:21:24.403Z</time></trkpt><trkpt lat="40.8961133" lon="14.2981933"><ele>70.4</ele><time>2026-05-04T16:21:25.402Z</time></trkpt><trkpt lat="40.8961767" lon="14.2981967"><ele>70.6</ele><time>2026-05-04T16:21:26.404Z</time></trkpt><trkpt lat="40.89629" lon="14.2982083"><ele>70.8</ele><time>2026-05-04T16:21:28.403Z</time></trkpt><trkpt lat="40.8964033" lon="14.2982033"><ele>71.0</ele><time>2026-05-04T16:21:30.402Z</time></trkpt><trkpt lat="40.89651" lon="14.2981967"><ele>71.0</ele><time>2026-05-04T16:21:32.401Z</time></trkpt><trkpt lat="40.896585" lon="14.2981617"><ele>71.0</ele><time>2026-05-04T16:21:34.403Z</time></trkpt><trkpt lat="40.8966183" lon="14.2980417"><ele>71.0</ele><time>2026-05-04T16:21:36.403Z</time></trkpt><trkpt lat="40.8966833" lon="14.2979433"><ele>71.0</ele><time>2026-05-04T16:21:38.402Z</time></trkpt><trkpt lat="40.8967717" lon="14.2978417"><ele>71.0</ele><time>2026-05-04T16:21:40.403Z</time></trkpt><trkpt lat="40.8968783" lon="14.2977717"><ele>71.16666666666667</ele><time>2026-05-04T16:21:42.403Z</time></trkpt><trkpt lat="40.8969433" lon="14.2977417"><ele>71.33333333333334</ele><time>2026-05-04T16:21:43.403Z</time></trkpt><trkpt lat="40.897005" lon="14.2977133"><ele>71.5</ele><time>2026-05-04T16:21:44.402Z</time></trkpt><trkpt lat="40.8970633" lon="14.2976733"><ele>71.66666666666667</ele><time>2026-05-04T16:21:45.402Z</time></trkpt><trkpt lat="40.8971183" lon="14.29763"><ele>71.83333333333333</ele><time>2026-05-04T16:21:46.404Z</time></trkpt><trkpt lat="40.8971717" lon="14.2975783"><ele>72.0</ele><time>2026-05-04T16:21:47.403Z</time></trkpt><trkpt lat="40.8972617" lon="14.2974717"><ele>72.0</ele><time>2026-05-04T16:21:49.405Z</time></trkpt><trkpt lat="40.8973433" lon="14.297345"><ele>72.0</ele><time>2026-05-04T16:21:51.402Z</time></trkpt><trkpt lat="40.897425" lon="14.2972167"><ele>72.0</ele><time>2026-05-04T16:21:53.404Z</time></trkpt><trkpt lat="40.89748" lon="14.297065"><ele>72.0</ele><time>2026-05-04T16:21:55.404Z</time></trkpt><trkpt lat="40.8975" lon="14.2969817"><ele>72.0</ele><time>2026-05-04T16:21:56.403Z</time></trkpt><trkpt lat="40.8975167" lon="14.296895"><ele>72.0</ele><time>2026-05-04T16:21:57.403Z</time></trkpt><trkpt lat="40.8975317" lon="14.29681"><ele>72.0</ele><time>2026-05-04T16:21:58.406Z</time></trkpt><trkpt lat="40.8975583" lon="14.296645"><ele>72.0</ele><time>2026-05-04T16:22:00.403Z</time></trkpt><trkpt lat="40.8975783" lon="14.2965633"><ele>72.0</ele><time>2026-05-04T16:22:01.403Z</time></trkpt><trkpt lat="40.8975967" lon="14.2964767"><ele>72.0</ele><time>2026-05-04T16:22:02.403Z</time></trkpt><trkpt lat="40.8976167" lon="14.2963917"><ele>72.0</ele><time>2026-05-04T16:22:03.403Z</time></trkpt><trkpt lat="40.8976367" lon="14.2963117"><ele>72.00000000000001</ele><time>2026-05-04T16:22:04.403Z</time></trkpt><trkpt lat="40.89766" lon="14.2962317"><ele>72.0</ele><time>2026-05-04T16:22:05.404Z</time></trkpt><trkpt lat="40.8976917" lon="14.2961517"><ele>72.0</ele><time>2026-05-04T16:22:06.404Z</time></trkpt><trkpt lat="40.8977283" lon="14.2960767"><ele>72.0</ele><time>2026-05-04T16:22:07.403Z</time></trkpt><trkpt lat="40.8977683" lon="14.29601"><ele>72.0</ele><time>2026-05-04T16:22:08.404Z</time></trkpt><trkpt lat="40.89781" lon="14.2959467"><ele>72.00000000000001</ele><time>2026-05-04T16:22:09.404Z</time></trkpt><trkpt lat="40.8978517" lon="14.2958833"><ele>72.0</ele><time>2026-05-04T16:22:10.404Z</time></trkpt><trkpt lat="40.897895" lon="14.2958183"><ele>72.0</ele><time>2026-05-04T16:22:11.403Z</time></trkpt><trkpt lat="40.8979317" lon="14.2957483"><ele>72.0</ele><time>2026-05-04T16:22:12.404Z</time></trkpt><trkpt lat="40.8979717" lon="14.29568"><ele>72.0</ele><time>2026-05-04T16:22:13.405Z</time></trkpt><trkpt lat="40.898015" lon="14.2956117"><ele>72.0</ele><time>2026-05-04T16:22:14.404Z</time></trkpt><trkpt lat="40.8980567" lon="14.2955467"><ele>72.0</ele><time>2026-05-04T16:22:15.404Z</time></trkpt><trkpt lat="40.8981417" lon="14.29542"><ele>72.0</ele><time>2026-05-04T16:22:17.404Z</time></trkpt><trkpt lat="40.8981867" lon="14.295355"><ele>71.71428571428572</ele><time>2026-05-04T16:22:18.404Z</time></trkpt><trkpt lat="40.898235" lon="14.2952967"><ele>71.42857142857143</ele><time>2026-05-04T16:22:19.404Z</time></trkpt><trkpt lat="40.8982817" lon="14.2952383"><ele>71.14285714285714</ele><time>2026-05-04T16:22:20.404Z</time></trkpt><trkpt lat="40.8983783" lon="14.2951367"><ele>70.85714285714286</ele><time>2026-05-04T16:22:22.403Z</time></trkpt><trkpt lat="40.8984283" lon="14.2950817"><ele>70.57142857142857</ele><time>2026-05-04T16:22:23.404Z</time></trkpt><trkpt lat="40.8984783" lon="14.2950267"><ele>70.28571428571429</ele><time>2026-05-04T16:22:24.404Z</time></trkpt><trkpt lat="40.8985267" lon="14.2949717"><ele>70.0</ele><time>2026-05-04T16:22:25.404Z</time></trkpt><trkpt lat="40.89858" lon="14.2949217"><ele>70.57142857142857</ele><time>2026-05-04T16:22:26.403Z</time></trkpt><trkpt lat="40.898635" lon="14.294875"><ele>71.14285714285714</ele><time>2026-05-04T16:22:27.402Z</time></trkpt><trkpt lat="40.8986917" lon="14.294825"><ele>71.71428571428572</ele><time>2026-05-04T16:22:28.403Z</time></trkpt><trkpt lat="40.8987483" lon="14.294775"><ele>72.28571428571428</ele><time>2026-05-04T16:22:29.403Z</time></trkpt><trkpt lat="40.8988033" lon="14.2947217"><ele>72.85714285714286</ele><time>2026-05-04T16:22:30.403Z</time></trkpt><trkpt lat="40.8988583" lon="14.2946733"><ele>73.42857142857143</ele><time>2026-05-04T16:22:31.405Z</time></trkpt><trkpt lat="40.8989167" lon="14.294635"><ele>74.0</ele><time>2026-05-04T16:22:32.405Z</time></trkpt><trkpt lat="40.8989767" lon="14.294605"><ele>74.0</ele><time>2026-05-04T16:22:33.404Z</time></trkpt><trkpt lat="40.89904" lon="14.2945783"><ele>74.0</ele><time>2026-05-04T16:22:34.403Z</time></trkpt><trkpt lat="40.8991017" lon="14.2945517"><ele>74.0</ele><time>2026-05-04T16:22:35.403Z</time></trkpt><trkpt lat="40.8992233" lon="14.2945067"><ele>74.0</ele><time>2026-05-04T16:22:37.405Z</time></trkpt><trkpt lat="40.899285" lon="14.2944883"><ele>74.0</ele><time>2026-05-04T16:22:38.404Z</time></trkpt><trkpt lat="40.8993467" lon="14.2944717"><ele>74.0</ele><time>2026-05-04T16:22:39.405Z</time></trkpt><trkpt lat="40.8994117" lon="14.29446"><ele>74.0</ele><time>2026-05-04T16:22:40.404Z</time></trkpt><trkpt lat="40.8994767" lon="14.2944467"><ele>73.71428571428572</ele><time>2026-05-04T16:22:41.405Z</time></trkpt><trkpt lat="40.8995467" lon="14.2944383"><ele>73.42857142857143</ele><time>2026-05-04T16:22:42.404Z</time></trkpt><trkpt lat="40.8996167" lon="14.29443"><ele>73.14285714285714</ele><time>2026-05-04T16:22:43.406Z</time></trkpt><trkpt lat="40.8996867" lon="14.294425"><ele>72.85714285714286</ele><time>2026-05-04T16:22:44.405Z</time></trkpt><trkpt lat="40.899755" lon="14.2944167"><ele>72.57142857142857</ele><time>2026-05-04T16:22:45.405Z</time></trkpt><trkpt lat="40.8998233" lon="14.2944167"><ele>72.28571428571429</ele><time>2026-05-04T16:22:46.402Z</time></trkpt><trkpt lat="40.8998883" lon="14.2944167"><ele>72.0</ele><time>2026-05-04T16:22:47.404Z</time></trkpt><trkpt lat="40.8999533" lon="14.2944133"><ele>72.0</ele><time>2026-05-04T16:22:48.404Z</time></trkpt><trkpt lat="40.9000167" lon="14.29441"><ele>72.0</ele><time>2026-05-04T16:22:49.404Z</time></trkpt><trkpt lat="40.9001317" lon="14.2943917"><ele>72.0</ele><time>2026-05-04T16:22:51.406Z</time></trkpt><trkpt lat="40.90024" lon="14.2943767"><ele>72.0</ele><time>2026-05-04T16:22:53.403Z</time></trkpt><trkpt lat="40.9003517" lon="14.2943517"><ele>72.0</ele><time>2026-05-04T16:22:55.404Z</time></trkpt><trkpt lat="40.9004617" lon="14.2943083"><ele>72.0</ele><time>2026-05-04T16:22:57.404Z</time></trkpt><trkpt lat="40.9005683" lon="14.29425"><ele>72.0</ele><time>2026-05-04T16:22:59.403Z</time></trkpt><trkpt lat="40.9006767" lon="14.2941917"><ele>72.0</ele><time>2026-05-04T16:23:01.404Z</time></trkpt><trkpt lat="40.9007917" lon="14.294135"><ele>72.0</ele><time>2026-05-04T16:23:03.403Z</time></trkpt><trkpt lat="40.9009067" lon="14.294075"><ele>72.0</ele><time>2026-05-04T16:23:05.404Z</time></trkpt><trkpt lat="40.900965" lon="14.2940417"><ele>72.0</ele><time>2026-05-04T16:23:06.403Z</time></trkpt><trkpt lat="40.901025" lon="14.2940117"><ele>72.0</ele><time>2026-05-04T16:23:07.403Z</time></trkpt><trkpt lat="40.9011417" lon="14.2939633"><ele>72.0</ele><time>2026-05-04T16:23:09.403Z</time></trkpt><trkpt lat="40.9012383" lon="14.29388"><ele>72.0</ele><time>2026-05-04T16:23:11.403Z</time></trkpt><trkpt lat="40.90127" lon="14.293735"><ele>71.71428571428572</ele><time>2026-05-04T16:23:13.406Z</time></trkpt><trkpt lat="40.901245" lon="14.2936517"><ele>71.42857142857143</ele><time>2026-05-04T16:23:14.404Z</time></trkpt><trkpt lat="40.9012067" lon="14.2935783"><ele>71.14285714285714</ele><time>2026-05-04T16:23:15.403Z</time></trkpt><trkpt lat="40.9011633" lon="14.29351"><ele>70.85714285714286</ele><time>2026-05-04T16:23:16.403Z</time></trkpt><trkpt lat="40.90112" lon="14.2934383"><ele>70.57142857142857</ele><time>2026-05-04T16:23:17.403Z</time></trkpt><trkpt lat="40.901085" lon="14.2933633"><ele>70.28571428571429</ele><time>2026-05-04T16:23:18.403Z</time></trkpt><trkpt lat="40.9010467" lon="14.29328"><ele>70.0</ele><time>2026-05-04T16:23:19.404Z</time></trkpt><trkpt lat="40.9010067" lon="14.2931967"><ele>70.0</ele><time>2026-05-04T16:23:20.402Z</time></trkpt><trkpt lat="40.9009683" lon="14.2931217"><ele>70.0</ele><time>2026-05-04T16:23:21.4Z</time></trkpt><trkpt lat="40.90093" lon="14.29305"><ele>70.0</ele><time>2026-05-04T16:23:22.404Z</time></trkpt><trkpt lat="40.90089" lon="14.2929767"><ele>70.0</ele><time>2026-05-04T16:23:23.403Z</time></trkpt><trkpt lat="40.9008167" lon="14.2928417"><ele>70.0</ele><time>2026-05-04T16:23:25.403Z</time></trkpt><trkpt lat="40.9007817" lon="14.29277"><ele>70.0</ele><time>2026-05-04T16:23:26.402Z</time></trkpt><trkpt lat="40.9007483" lon="14.2926983"><ele>70.8</ele><time>2026-05-04T16:23:27.402Z</time></trkpt><trkpt lat="40.9006867" lon="14.2925683"><ele>71.6</ele><time>2026-05-04T16:23:29.403Z</time></trkpt><trkpt lat="40.9006317" lon="14.2924567"><ele>72.4</ele><time>2026-05-04T16:23:31.403Z</time></trkpt><trkpt lat="40.9005767" lon="14.2923383"><ele>73.2</ele><time>2026-05-04T16:23:33.402Z</time></trkpt><trkpt lat="40.9005083" lon="14.2922183"><ele>74.0</ele><time>2026-05-04T16:23:35.404Z</time></trkpt><trkpt lat="40.900445" lon="14.2920983"><ele>74.4</ele><time>2026-05-04T16:23:37.402Z</time></trkpt><trkpt lat="40.9003867" lon="14.2919733"><ele>74.80000000000001</ele><time>2026-05-04T16:23:39.402Z</time></trkpt><trkpt lat="40.900325" lon="14.2918517"><ele>75.19999999999999</ele><time>2026-05-04T16:23:41.403Z</time></trkpt><trkpt lat="40.9002633" lon="14.2917433"><ele>75.6</ele><time>2026-05-04T16:23:43.402Z</time></trkpt><trkpt lat="40.9002167" lon="14.2916467"><ele>76.0</ele><time>2026-05-04T16:23:45.402Z</time></trkpt><trkpt lat="40.9001783" lon="14.2915617"><ele>76.0</ele><time>2026-05-04T16:23:47.404Z</time></trkpt><trkpt lat="40.9001367" lon="14.2914717"><ele>76.0</ele><time>2026-05-04T16:23:49.402Z</time></trkpt><trkpt lat="40.9000817" lon="14.29137"><ele>76.0</ele><time>2026-05-04T16:23:51.4Z</time></trkpt><trkpt lat="40.9000183" lon="14.291265"><ele>76.0</ele><time>2026-05-04T16:23:53.402Z</time></trkpt><trkpt lat="40.899955" lon="14.2911383"><ele>76.0</ele><time>2026-05-04T16:23:55.403Z</time></trkpt><trkpt lat="40.8998933" lon="14.2909883"><ele>76.39999999999999</ele><time>2026-05-04T16:23:57.4Z</time></trkpt><trkpt lat="40.8998567" lon="14.29092"><ele>76.8</ele><time>2026-05-04T16:23:58.401Z</time></trkpt><trkpt lat="40.8998017" lon="14.290785"><ele>77.19999999999999</ele><time>2026-05-04T16:24:00.401Z</time></trkpt><trkpt lat="40.899745" lon="14.2906633"><ele>77.6</ele><time>2026-05-04T16:24:02.401Z</time></trkpt><trkpt lat="40.8996883" lon="14.29053"><ele>78.0</ele><time>2026-05-04T16:24:04.401Z</time></trkpt><trkpt lat="40.899645" lon="14.29038"><ele>78.2</ele><time>2026-05-04T16:24:06.401Z</time></trkpt><trkpt lat="40.899575" lon="14.2902433"><ele>78.4</ele><time>2026-05-04T16:24:08.401Z</time></trkpt><trkpt lat="40.89954" lon="14.2901717"><ele>78.60000000000001</ele><time>2026-05-04T16:24:09.4Z</time></trkpt><trkpt lat="40.8994783" lon="14.2900467"><ele>78.8</ele><time>2026-05-04T16:24:11.403Z</time></trkpt><trkpt lat="40.899425" lon="14.2899117"><ele>79.0</ele><time>2026-05-04T16:24:13.403Z</time></trkpt><trkpt lat="40.899375" lon="14.2898"><ele>79.14285714285715</ele><time>2026-05-04T16:24:15.402Z</time></trkpt><trkpt lat="40.8993383" lon="14.28971"><ele>79.28571428571429</ele><time>2026-05-04T16:24:17.402Z</time></trkpt><trkpt lat="40.8993017" lon="14.2896383"><ele>79.42857142857143</ele><time>2026-05-04T16:24:19.402Z</time></trkpt><trkpt lat="40.89928" lon="14.28956"><ele>79.57142857142858</ele><time>2026-05-04T16:24:21.404Z</time></trkpt><trkpt lat="40.8992533" lon="14.28946"><ele>79.71428571428572</ele><time>2026-05-04T16:24:25.403Z</time></trkpt><trkpt lat="40.8992017" lon="14.28938"><ele>79.85714285714286</ele><time>2026-05-04T16:24:28.4Z</time></trkpt><trkpt lat="40.8991567" lon="14.2893217"><ele>80.0</ele><time>2026-05-04T16:24:30.401Z</time></trkpt><trkpt lat="40.89911" lon="14.2892583"><ele>80.2</ele><time>2026-05-04T16:24:32.401Z</time></trkpt><trkpt lat="40.8990567" lon="14.2891683"><ele>80.4</ele><time>2026-05-04T16:24:34.401Z</time></trkpt><trkpt lat="40.899005" lon="14.2890583"><ele>80.6</ele><time>2026-05-04T16:24:36.401Z</time></trkpt><trkpt lat="40.89895" lon="14.2889367"><ele>80.8</ele><time>2026-05-04T16:24:38.401Z</time></trkpt><trkpt lat="40.898895" lon="14.2888183"><ele>81.0</ele><time>2026-05-04T16:24:40.402Z</time></trkpt><trkpt lat="40.8988267" lon="14.2886917"><ele>81.0</ele><time>2026-05-04T16:24:42.402Z</time></trkpt><trkpt lat="40.89876" lon="14.2885583"><ele>81.0</ele><time>2026-05-04T16:24:44.402Z</time></trkpt><trkpt lat="40.8987033" lon="14.2884117"><ele>81.0</ele><time>2026-05-04T16:24:46.402Z</time></trkpt><trkpt lat="40.8986467" lon="14.2882717"><ele>81.0</ele><time>2026-05-04T16:24:48.401Z</time></trkpt><trkpt lat="40.8986017" lon="14.288135"><ele>80.8</ele><time>2026-05-04T16:24:50.402Z</time></trkpt><trkpt lat="40.898575" lon="14.2879917"><ele>80.6</ele><time>2026-05-04T16:24:52.401Z</time></trkpt><trkpt lat="40.89856" lon="14.2878483"><ele>80.4</ele><time>2026-05-04T16:24:54.4Z</time></trkpt><trkpt lat="40.8985483" lon="14.287715"><ele>80.2</ele><time>2026-05-04T16:24:56.401Z</time></trkpt><trkpt lat="40.8985417" lon="14.28758"><ele>80.0</ele><time>2026-05-04T16:24:58.402Z</time></trkpt><trkpt lat="40.8985383" lon="14.287455"><ele>80.0</ele><time>2026-05-04T16:25:00.401Z</time></trkpt><trkpt lat="40.8985333" lon="14.2873333"><ele>80.0</ele><time>2026-05-04T16:25:02.403Z</time></trkpt><trkpt lat="40.8985433" lon="14.2872383"><ele>80.0</ele><time>2026-05-04T16:25:04.401Z</time></trkpt><trkpt lat="40.8985383" lon="14.2871433"><ele>80.0</ele><time>2026-05-04T16:25:07.403Z</time></trkpt><trkpt lat="40.8984867" lon="14.28709"><ele>80.0</ele><time>2026-05-04T16:25:09.403Z</time></trkpt><trkpt lat="40.8984133" lon="14.2870567"><ele>80.0</ele><time>2026-05-04T16:25:11.403Z</time></trkpt><trkpt lat="40.8983067" lon="14.2870367"><ele>80.5</ele><time>2026-05-04T16:25:13.403Z</time></trkpt><trkpt lat="40.89819" lon="14.2870083"><ele>81.0</ele><time>2026-05-04T16:25:15.402Z</time></trkpt><trkpt lat="40.8980733" lon="14.28696"><ele>81.5</ele><time>2026-05-04T16:25:17.401Z</time></trkpt><trkpt lat="40.8979517" lon="14.2869117"><ele>82.0</ele><time>2026-05-04T16:25:19.402Z</time></trkpt><trkpt lat="40.8978317" lon="14.286885"><ele>82.0</ele><time>2026-05-04T16:25:21.403Z</time></trkpt><trkpt lat="40.8977683" lon="14.2868683"><ele>82.0</ele><time>2026-05-04T16:25:22.401Z</time></trkpt><trkpt lat="40.8976483" lon="14.2868333"><ele>82.0</ele><time>2026-05-04T16:25:24.402Z</time></trkpt><trkpt lat="40.8975333" lon="14.2867983"><ele>82.0</ele><time>2026-05-04T16:25:26.4Z</time></trkpt><trkpt lat="40.89742" lon="14.28676"><ele>82.0</ele><time>2026-05-04T16:25:28.402Z</time></trkpt><trkpt lat="40.8973117" lon="14.2867267"><ele>81.5</ele><time>2026-05-04T16:25:30.401Z</time></trkpt><trkpt lat="40.8972017" lon="14.286695"><ele>81.0</ele><time>2026-05-04T16:25:32.4Z</time></trkpt><trkpt lat="40.8970933" lon="14.2866567"><ele>80.5</ele><time>2026-05-04T16:25:34.401Z</time></trkpt><trkpt lat="40.89698" lon="14.2866133"><ele>80.0</ele><time>2026-05-04T16:25:36.402Z</time></trkpt><trkpt lat="40.896865" lon="14.286585"><ele>80.0</ele><time>2026-05-04T16:25:38.401Z</time></trkpt><trkpt lat="40.8967567" lon="14.2865417"><ele>80.0</ele><time>2026-05-04T16:25:40.401Z</time></trkpt><trkpt lat="40.8966483" lon="14.286495"><ele>80.0</ele><time>2026-05-04T16:25:42.402Z</time></trkpt><trkpt lat="40.8965333" lon="14.28646"><ele>80.0</ele><time>2026-05-04T16:25:44.401Z</time></trkpt><trkpt lat="40.89642" lon="14.2864083"><ele>80.0</ele><time>2026-05-04T16:25:46.407Z</time></trkpt><trkpt lat="40.896305" lon="14.2863633"><ele>80.0</ele><time>2026-05-04T16:25:48.402Z</time></trkpt><trkpt lat="40.8962417" lon="14.286345"><ele>80.0</ele><time>2026-05-04T16:25:49.402Z</time></trkpt><trkpt lat="40.89612" lon="14.2863"><ele>80.0</ele><time>2026-05-04T16:25:51.401Z</time></trkpt><trkpt lat="40.8960567" lon="14.286285"><ele>80.0</ele><time>2026-05-04T16:25:52.403Z</time></trkpt><trkpt lat="40.8959933" lon="14.2862683"><ele>80.0</ele><time>2026-05-04T16:25:53.402Z</time></trkpt><trkpt lat="40.8959233" lon="14.2862583"><ele>79.66666666666667</ele><time>2026-05-04T16:25:54.401Z</time></trkpt><trkpt lat="40.8958583" lon="14.2862483"><ele>79.33333333333334</ele><time>2026-05-04T16:25:55.403Z</time></trkpt><trkpt lat="40.895795" lon="14.28624"><ele>79.0</ele><time>2026-05-04T16:25:56.402Z</time></trkpt><trkpt lat="40.895675" lon="14.28621"><ele>78.66666666666667</ele><time>2026-05-04T16:25:58.401Z</time></trkpt><trkpt lat="40.8956083" lon="14.2862033"><ele>78.33333333333333</ele><time>2026-05-04T16:25:59.402Z</time></trkpt><trkpt lat="40.895545" lon="14.2862017"><ele>78.0</ele><time>2026-05-04T16:26:00.401Z</time></trkpt><trkpt lat="40.8954283" lon="14.2862083"><ele>78.0</ele><time>2026-05-04T16:26:02.402Z</time></trkpt><trkpt lat="40.8953183" lon="14.2862183"><ele>78.0</ele><time>2026-05-04T16:26:04.402Z</time></trkpt><trkpt lat="40.8952117" lon="14.2862083"><ele>78.0</ele><time>2026-05-04T16:26:06.401Z</time></trkpt><trkpt lat="40.8951117" lon="14.2862083"><ele>78.0</ele><time>2026-05-04T16:26:08.402Z</time></trkpt><trkpt lat="40.8950133" lon="14.28621"><ele>78.0</ele><time>2026-05-04T16:26:10.401Z</time></trkpt><trkpt lat="40.8949217" lon="14.2862117"><ele>78.33333333333333</ele><time>2026-05-04T16:26:12.402Z</time></trkpt><trkpt lat="40.8948317" lon="14.2861867"><ele>78.66666666666667</ele><time>2026-05-04T16:26:14.403Z</time></trkpt><trkpt lat="40.8947383" lon="14.286175"><ele>79.0</ele><time>2026-05-04T16:26:16.402Z</time></trkpt><trkpt lat="40.894655" lon="14.2861767"><ele>79.33333333333334</ele><time>2026-05-04T16:26:17.402Z</time></trkpt><trkpt lat="40.89456" lon="14.286155"><ele>79.66666666666667</ele><time>2026-05-04T16:26:19.402Z</time></trkpt><trkpt lat="40.894495" lon="14.2861667"><ele>80.0</ele><time>2026-05-04T16:26:20.402Z</time></trkpt><trkpt lat="40.894385" lon="14.286145"><ele>80.0</ele><time>2026-05-04T16:26:22.401Z</time></trkpt><trkpt lat="40.894295" lon="14.2861083"><ele>80.0</ele><time>2026-05-04T16:26:24.402Z</time></trkpt><trkpt lat="40.894205" lon="14.286085"><ele>80.0</ele><time>2026-05-04T16:26:26.403Z</time></trkpt><trkpt lat="40.8941183" lon="14.2860683"><ele>80.0</ele><time>2026-05-04T16:26:28.402Z</time></trkpt><trkpt lat="40.8940217" lon="14.2860467"><ele>80.0</ele><time>2026-05-04T16:26:30.401Z</time></trkpt><trkpt lat="40.8939233" lon="14.286025"><ele>80.16666666666667</ele><time>2026-05-04T16:26:32.402Z</time></trkpt><trkpt lat="40.8938283" lon="14.286005"><ele>80.33333333333334</ele><time>2026-05-04T16:26:34.401Z</time></trkpt><trkpt lat="40.89374" lon="14.285995"><ele>80.5</ele><time>2026-05-04T16:26:36.401Z</time></trkpt><trkpt lat="40.8936617" lon="14.285975"><ele>80.66666666666667</ele><time>2026-05-04T16:26:38.401Z</time></trkpt><trkpt lat="40.8935917" lon="14.2859467"><ele>80.83333333333333</ele><time>2026-05-04T16:26:40.402Z</time></trkpt><trkpt lat="40.8935283" lon="14.2859333"><ele>81.0</ele><time>2026-05-04T16:26:42.402Z</time></trkpt><trkpt lat="40.8934667" lon="14.2859633"><ele>81.0</ele><time>2026-05-04T16:26:45.403Z</time></trkpt><trkpt lat="40.89344" lon="14.286055"><ele>81.0</ele><time>2026-05-04T16:26:48.402Z</time></trkpt><trkpt lat="40.89346" lon="14.2861717"><ele>81.0</ele><time>2026-05-04T16:26:52.402Z</time></trkpt><trkpt lat="40.8934917" lon="14.28627"><ele>81.0</ele><time>2026-05-04T16:26:54.401Z</time></trkpt><trkpt lat="40.89353" lon="14.286395"><ele>81.0</ele><time>2026-05-04T16:26:56.404Z</time></trkpt><trkpt lat="40.8935717" lon="14.2865383"><ele>80.83333333333333</ele><time>2026-05-04T16:26:58.402Z</time></trkpt><trkpt lat="40.8935967" lon="14.286615"><ele>80.66666666666667</ele><time>2026-05-04T16:26:59.402Z</time></trkpt><trkpt lat="40.8936167" lon="14.2866983"><ele>80.5</ele><time>2026-05-04T16:27:00.402Z</time></trkpt><trkpt lat="40.8936417" lon="14.2867767"><ele>80.33333333333334</ele><time>2026-05-04T16:27:01.402Z</time></trkpt><trkpt lat="40.8936917" lon="14.2869283"><ele>80.16666666666667</ele><time>2026-05-04T16:27:03.401Z</time></trkpt><trkpt lat="40.8937133" lon="14.2870067"><ele>80.0</ele><time>2026-05-04T16:27:04.402Z</time></trkpt><trkpt lat="40.8937583" lon="14.2871567"><ele>80.0</ele><time>2026-05-04T16:27:06.402Z</time></trkpt><trkpt lat="40.8937817" lon="14.287235"><ele>80.0</ele><time>2026-05-04T16:27:07.402Z</time></trkpt><trkpt lat="40.8938283" lon="14.2873733"><ele>80.0</ele><time>2026-05-04T16:27:09.402Z</time></trkpt><trkpt lat="40.89387" lon="14.287505"><ele>80.0</ele><time>2026-05-04T16:27:11.402Z</time></trkpt><trkpt lat="40.8939067" lon="14.2876267"><ele>80.0</ele><time>2026-05-04T16:27:13.402Z</time></trkpt><trkpt lat="40.893935" lon="14.2877133"><ele>80.0</ele><time>2026-05-04T16:27:15.402Z</time></trkpt></trkseg></trk></gpx>